<?xml version="1.0" encoding="utf-8"?>
<gpx version="1.1" creator="com.bodunov.galileo/v6.1.2" xmlns:xsi="http://www.w3.org/2001/XMLSchema-instance" xmlns="http://www.topografix.com/GPX/1/1" xmlns:gom="https://gurumaps.app/gpx/v3" xsi:schemaLocation="http://www.topografix.com/GPX/1/1 http://www.topografix.com/GPX/1/1/gpx.xsd https://gurumaps.app/gpx/v3 https://gurumaps.app/gpx/v3/schema.xsd">
 <trk>
  <name>Автоном116082026</name>
  <type>TrackStyle_2196F3C8</type>
  <extensions>
   <gom:time>2026-08-17T01:38:13.481Z</gom:time>
   <line xmlns="http://www.topografix.com/GPX/gpx_style/0/2">
    <color>2196F3</color>
   </line>
  </extensions>
  <trkseg>
   <trkpt lat="59.3240734583" lon="34.7141275402"><ele>170.281</ele><time>2026-08-17T01:38:13.349Z</time><hdop>3.312</hdop><vdop>2.5</vdop><extensions><gom:speed>0.397</gom:speed></extensions></trkpt>
   <trkpt lat="59.324076392" lon="34.7141343296"><ele>170.497</ele><time>2026-08-17T01:38:14.168Z</time><hdop>3.25</hdop><vdop>2.5</vdop><extensions><gom:speed>0.509</gom:speed></extensions></trkpt>
   <trkpt lat="59.3240829718" lon="34.7141391911"><ele>170.691</ele><time>2026-08-17T01:38:14.649Z</time><hdop>3.25</hdop><vdop>2.5</vdop><extensions><gom:speed>0.676</gom:speed></extensions></trkpt>
   <trkpt lat="59.3240838938" lon="34.7141455613"><ele>170.807</ele><time>2026-08-17T01:38:15.514Z</time><hdop>3.312</hdop><vdop>2.5</vdop><extensions><gom:speed>0.681</gom:speed></extensions></trkpt>
   <trkpt lat="59.3240945807" lon="34.7141508419"><ele>170.659</ele><time>2026-08-17T01:38:16.132Z</time><hdop>3.437</hdop><vdop>2.5</vdop><extensions><gom:speed>0.82</gom:speed></extensions></trkpt>
   <trkpt lat="59.3241065669" lon="34.7141509257"><ele>170.495</ele><time>2026-08-17T01:38:16.649Z</time><hdop>3.437</hdop><vdop>2.5</vdop><extensions><gom:speed>0.908</gom:speed></extensions></trkpt>
   <trkpt lat="59.3241114703" lon="34.7141538594"><ele>170.396</ele><time>2026-08-17T01:38:17.284Z</time><hdop>3.562</hdop><vdop>2.5</vdop><extensions><gom:speed>0.897</gom:speed></extensions></trkpt>
   <trkpt lat="59.3241300781" lon="34.7141594753"><ele>170.085</ele><time>2026-08-17T01:38:18.387Z</time><hdop>3.75</hdop><vdop>2.5</vdop><extensions><gom:speed>0.991</gom:speed></extensions></trkpt>
   <trkpt lat="59.3241459618" lon="34.714167019"><ele>169.923</ele><time>2026-08-17T01:38:19.530Z</time><hdop>3.875</hdop><vdop>2.5</vdop><extensions><gom:speed>1.071</gom:speed></extensions></trkpt>
   <trkpt lat="59.3241563973" lon="34.7141655941"><ele>169.934</ele><time>2026-08-17T01:38:20.127Z</time><hdop>3.875</hdop><vdop>2.5</vdop><extensions><gom:speed>1.131</gom:speed></extensions></trkpt>
   <trkpt lat="59.3241654916" lon="34.7141640853"><ele>170.234</ele><time>2026-08-17T01:38:20.648Z</time><hdop>3.812</hdop><vdop>2.5</vdop><extensions><gom:speed>1.166</gom:speed></extensions></trkpt>
   <trkpt lat="59.324179699" lon="34.714160984"><ele>170.622</ele><time>2026-08-17T01:38:21.649Z</time><hdop>3.687</hdop><vdop>2.5</vdop><extensions><gom:speed>1.199</gom:speed></extensions></trkpt>
   <trkpt lat="59.324187075" lon="34.7141489979"><ele>170.853</ele><time>2026-08-17T01:38:22.444Z</time><hdop>3.562</hdop><vdop>2.5</vdop><extensions><gom:speed>1.189</gom:speed></extensions></trkpt>
   <trkpt lat="59.3241932777" lon="34.7141444717"><ele>171.294</ele><time>2026-08-17T01:38:22.950Z</time><hdop>3.375</hdop><vdop>2.5</vdop><extensions><gom:speed>1.203</gom:speed></extensions></trkpt>
   <trkpt lat="59.3241991869" lon="34.7141380176"><ele>171.558</ele><time>2026-08-17T01:38:23.507Z</time><hdop>3.312</hdop><vdop>2.5</vdop><extensions><gom:speed>1.194</gom:speed></extensions></trkpt>
   <trkpt lat="59.3242092871" lon="34.71414246"><ele>172.087</ele><time>2026-08-17T01:38:24.114Z</time><hdop>3.25</hdop><vdop>2.5</vdop><extensions><gom:speed>1.223</gom:speed></extensions></trkpt>
   <trkpt lat="59.3242163698" lon="34.7141464833"><ele>172.238</ele><time>2026-08-17T01:38:24.648Z</time><hdop>3.187</hdop><vdop>2.5</vdop><extensions><gom:speed>1.201</gom:speed></extensions></trkpt>
   <trkpt lat="59.3242230753" lon="34.7141388558"><ele>172.328</ele><time>2026-08-17T01:38:25.267Z</time><hdop>3.125</hdop><vdop>2.5</vdop><extensions><gom:speed>1.198</gom:speed></extensions></trkpt>
   <trkpt lat="59.3242299904" lon="34.7141407836"><ele>172.657</ele><time>2026-08-17T01:38:25.874Z</time><hdop>3.125</hdop><vdop>2.5</vdop><extensions><gom:speed>1.208</gom:speed></extensions></trkpt>
   <trkpt lat="59.3242337622" lon="34.7141329885"><ele>172.853</ele><time>2026-08-17T01:38:26.329Z</time><hdop>3.125</hdop><vdop>2.5</vdop><extensions><gom:speed>1.208</gom:speed></extensions></trkpt>
   <trkpt lat="59.3242420603" lon="34.7141393587"><ele>172.845</ele><time>2026-08-17T01:38:27.514Z</time><hdop>3.125</hdop><vdop>2.5</vdop><extensions><gom:speed>1.201</gom:speed></extensions></trkpt>
   <trkpt lat="59.3242454969" lon="34.7141558711"><ele>172.431</ele><time>2026-08-17T01:38:28.049Z</time><hdop>3.25</hdop><vdop>2.5</vdop><extensions><gom:speed>1.18</gom:speed></extensions></trkpt>
   <trkpt lat="59.3242457903" lon="34.7141578827"><ele>172.184</ele><time>2026-08-17T01:38:28.565Z</time><hdop>3.312</hdop><vdop>2.5</vdop><extensions><gom:speed>1.183</gom:speed></extensions></trkpt>
   <trkpt lat="59.3242547589" lon="34.7141800948"><ele>171.909</ele><time>2026-08-17T01:38:29.214Z</time><hdop>3.437</hdop><vdop>2.5</vdop><extensions><gom:speed>1.185</gom:speed></extensions></trkpt>
   <trkpt lat="59.3242647753" lon="34.714194344"><ele>171.612</ele><time>2026-08-17T01:38:29.689Z</time><hdop>3.437</hdop><vdop>2.5</vdop><extensions><gom:speed>1.224</gom:speed></extensions></trkpt>
   <trkpt lat="59.3242686729" lon="34.7142042347"><ele>171.434</ele><time>2026-08-17T01:38:30.307Z</time><hdop>3.562</hdop><vdop>2.5</vdop><extensions><gom:speed>1.214</gom:speed></extensions></trkpt>
   <trkpt lat="59.3242796951" lon="34.7142118622"><ele>171.331</ele><time>2026-08-17T01:38:30.852Z</time><hdop>3.5</hdop><vdop>2.5</vdop><extensions><gom:speed>1.228</gom:speed></extensions></trkpt>
   <trkpt lat="59.3242839698" lon="34.7142193221"><ele>171.27</ele><time>2026-08-17T01:38:31.348Z</time><hdop>3.562</hdop><vdop>2.5</vdop><extensions><gom:speed>1.228</gom:speed></extensions></trkpt>
   <trkpt lat="59.3242939862" lon="34.7142386843"><ele>171.086</ele><time>2026-08-17T01:38:32.511Z</time><hdop>3.562</hdop><vdop>2.5</vdop><extensions><gom:speed>1.219</gom:speed></extensions></trkpt>
   <trkpt lat="59.324299183" lon="34.7142431267"><ele>171.007</ele><time>2026-08-17T01:38:33.007Z</time><hdop>3.5</hdop><vdop>2.5</vdop><extensions><gom:speed>1.173</gom:speed></extensions></trkpt>
   <trkpt lat="59.3243009851" lon="34.7142545261"><ele>170.96</ele><time>2026-08-17T01:38:33.553Z</time><hdop>3.562</hdop><vdop>2.5</vdop><extensions><gom:speed>1.173</gom:speed></extensions></trkpt>
   <trkpt lat="59.3243104986" lon="34.7142560348"><ele>170.967</ele><time>2026-08-17T01:38:34.111Z</time><hdop>3.437</hdop><vdop>2.5</vdop><extensions><gom:speed>1.177</gom:speed></extensions></trkpt>
   <trkpt lat="59.3243154858" lon="34.7142612316"><ele>170.971</ele><time>2026-08-17T01:38:34.626Z</time><hdop>3.437</hdop><vdop>2.5</vdop><extensions><gom:speed>1.17</gom:speed></extensions></trkpt>
   <trkpt lat="59.3243240773" lon="34.7142593876"><ele>170.892</ele><time>2026-08-17T01:38:35.132Z</time><hdop>3.375</hdop><vdop>2.5</vdop><extensions><gom:speed>1.162</gom:speed></extensions></trkpt>
   <trkpt lat="59.3243330878" lon="34.714259639"><ele>171.005</ele><time>2026-08-17T01:38:35.649Z</time><hdop>3.25</hdop><vdop>2.5</vdop><extensions><gom:speed>1.19</gom:speed></extensions></trkpt>
   <trkpt lat="59.3243397933" lon="34.714267518"><ele>171.073</ele><time>2026-08-17T01:38:36.305Z</time><hdop>3.312</hdop><vdop>2.5</vdop><extensions><gom:speed>1.191</gom:speed></extensions></trkpt>
   <trkpt lat="59.3243484686" lon="34.7142700326"><ele>171.301</ele><time>2026-08-17T01:38:36.873Z</time><hdop>3.25</hdop><vdop>2.5</vdop><extensions><gom:speed>1.154</gom:speed></extensions></trkpt>
   <trkpt lat="59.3243566829" lon="34.7142766543"><ele>171.286</ele><time>2026-08-17T01:38:37.649Z</time><hdop>3.187</hdop><vdop>2.5</vdop><extensions><gom:speed>1.142</gom:speed></extensions></trkpt>
   <trkpt lat="59.3243648971" lon="34.7142882213"><ele>171.276</ele><time>2026-08-17T01:38:38.531Z</time><hdop>3.187</hdop><vdop>2.5</vdop><extensions><gom:speed>1.144</gom:speed></extensions></trkpt>
   <trkpt lat="59.3243723989" lon="34.7142915741"><ele>171.132</ele><time>2026-08-17T01:38:39.088Z</time><hdop>3.187</hdop><vdop>2.5</vdop><extensions><gom:speed>1.141</gom:speed></extensions></trkpt>
   <trkpt lat="59.3243784758" lon="34.7142959327"><ele>171.046</ele><time>2026-08-17T01:38:39.634Z</time><hdop>3.125</hdop><vdop>2.5</vdop><extensions><gom:speed>1.158</gom:speed></extensions></trkpt>
   <trkpt lat="59.324386271" lon="34.7142968547"><ele>170.92</ele><time>2026-08-17T01:38:40.211Z</time><hdop>3.187</hdop><vdop>2.5</vdop><extensions><gom:speed>1.171</gom:speed></extensions></trkpt>
   <trkpt lat="59.3243946948" lon="34.7142972738"><ele>170.785</ele><time>2026-08-17T01:38:40.787Z</time><hdop>3.125</hdop><vdop>2.5</vdop><extensions><gom:speed>1.168</gom:speed></extensions></trkpt>
   <trkpt lat="59.3244012746" lon="34.7143007942"><ele>170.704</ele><time>2026-08-17T01:38:41.354Z</time><hdop>3.125</hdop><vdop>2.5</vdop><extensions><gom:speed>1.159</gom:speed></extensions></trkpt>
   <trkpt lat="59.3244089859" lon="34.714300878"><ele>170.693</ele><time>2026-08-17T01:38:41.890Z</time><hdop>3.125</hdop><vdop>2.5</vdop><extensions><gom:speed>1.187</gom:speed></extensions></trkpt>
   <trkpt lat="59.3244157753" lon="34.7143025544"><ele>170.686</ele><time>2026-08-17T01:38:42.426Z</time><hdop>3.187</hdop><vdop>2.5</vdop><extensions><gom:speed>1.19</gom:speed></extensions></trkpt>
   <trkpt lat="59.3244241991" lon="34.7143016324"><ele>170.884</ele><time>2026-08-17T01:38:43.013Z</time><hdop>3.187</hdop><vdop>2.5</vdop><extensions><gom:speed>1.212</gom:speed></extensions></trkpt>
   <trkpt lat="59.3244309884" lon="34.7143014647"><ele>171.002</ele><time>2026-08-17T01:38:43.529Z</time><hdop>3.187</hdop><vdop>2.5</vdop><extensions><gom:speed>1.21</gom:speed></extensions></trkpt>
   <trkpt lat="59.3244386998" lon="34.7143004589"><ele>171.055</ele><time>2026-08-17T01:38:44.086Z</time><hdop>3.187</hdop><vdop>2.5</vdop><extensions><gom:speed>1.217</gom:speed></extensions></trkpt>
   <trkpt lat="59.3244456987" lon="34.7143002913"><ele>171.087</ele><time>2026-08-17T01:38:44.612Z</time><hdop>3.187</hdop><vdop>2.5</vdop><extensions><gom:speed>1.214</gom:speed></extensions></trkpt>
   <trkpt lat="59.3244527814" lon="34.7143018838"><ele>171.127</ele><time>2026-08-17T01:38:45.168Z</time><hdop>3.125</hdop><vdop>2.5</vdop><extensions><gom:speed>1.216</gom:speed></extensions></trkpt>
   <trkpt lat="59.3244584811" lon="34.7143044822"><ele>171.259</ele><time>2026-08-17T01:38:45.649Z</time><hdop>3.125</hdop><vdop>2.5</vdop><extensions><gom:speed>1.206</gom:speed></extensions></trkpt>
   <trkpt lat="59.3244658991" lon="34.7143069968"><ele>171.338</ele><time>2026-08-17T01:38:46.271Z</time><hdop>3.125</hdop><vdop>2.5</vdop><extensions><gom:speed>1.206</gom:speed></extensions></trkpt>
   <trkpt lat="59.3244724788" lon="34.7143099305"><ele>171.226</ele><time>2026-08-17T01:38:46.807Z</time><hdop>3.062</hdop><vdop>2.5</vdop><extensions><gom:speed>1.217</gom:speed></extensions></trkpt>
   <trkpt lat="59.3244800645" lon="34.7143116907"><ele>171.159</ele><time>2026-08-17T01:38:47.424Z</time><hdop>3.062</hdop><vdop>2.5</vdop><extensions><gom:speed>1.209</gom:speed></extensions></trkpt>
   <trkpt lat="59.3244926792" lon="34.7143146243"><ele>171.016</ele><time>2026-08-17T01:38:48.466Z</time><hdop>3.062</hdop><vdop>2.5</vdop><extensions><gom:speed>1.237</gom:speed></extensions></trkpt>
   <trkpt lat="59.3244984627" lon="34.7143177256"><ele>171.132</ele><time>2026-08-17T01:38:48.952Z</time><hdop>3.0</hdop><vdop>2.5</vdop><extensions><gom:speed>1.26</gom:speed></extensions></trkpt>
   <trkpt lat="59.3245051683" lon="34.7143198211"><ele>171.201</ele><time>2026-08-17T01:38:49.488Z</time><hdop>3.0</hdop><vdop>2.5</vdop><extensions><gom:speed>1.256</gom:speed></extensions></trkpt>
   <trkpt lat="59.3245107841" lon="34.7143243473"><ele>171.174</ele><time>2026-08-17T01:38:50.045Z</time><hdop>3.0</hdop><vdop>2.5</vdop><extensions><gom:speed>1.243</gom:speed></extensions></trkpt>
   <trkpt lat="59.3245176992" lon="34.7143279515"><ele>171.158</ele><time>2026-08-17T01:38:50.632Z</time><hdop>3.0</hdop><vdop>2.5</vdop><extensions><gom:speed>1.229</gom:speed></extensions></trkpt>
   <trkpt lat="59.3245226864" lon="34.7143319749"><ele>171.005</ele><time>2026-08-17T01:38:51.148Z</time><hdop>3.0</hdop><vdop>2.5</vdop><extensions><gom:speed>1.217</gom:speed></extensions></trkpt>
   <trkpt lat="59.3245283861" lon="34.7143340703"><ele>170.833</ele><time>2026-08-17T01:38:51.654Z</time><hdop>3.062</hdop><vdop>2.5</vdop><extensions><gom:speed>1.219</gom:speed></extensions></trkpt>
   <trkpt lat="59.3245348821" lon="34.7143400215"><ele>170.731</ele><time>2026-08-17T01:38:52.291Z</time><hdop>3.062</hdop><vdop>2.5</vdop><extensions><gom:speed>1.201</gom:speed></extensions></trkpt>
   <trkpt lat="59.3245396598" lon="34.7143457212"><ele>170.521</ele><time>2026-08-17T01:38:52.827Z</time><hdop>3.062</hdop><vdop>2.5</vdop><extensions><gom:speed>1.209</gom:speed></extensions></trkpt>
   <trkpt lat="59.3245463653" lon="34.7143493254"><ele>170.395</ele><time>2026-08-17T01:38:53.414Z</time><hdop>3.062</hdop><vdop>2.5</vdop><extensions><gom:speed>1.21</gom:speed></extensions></trkpt>
   <trkpt lat="59.3245508916" lon="34.7143516723"><ele>170.16</ele><time>2026-08-17T01:38:53.910Z</time><hdop>3.062</hdop><vdop>2.5</vdop><extensions><gom:speed>1.227</gom:speed></extensions></trkpt>
   <trkpt lat="59.3245576809" lon="34.7143546898"><ele>170.02</ele><time>2026-08-17T01:38:54.507Z</time><hdop>3.062</hdop><vdop>2.5</vdop><extensions><gom:speed>1.227</gom:speed></extensions></trkpt>
   <trkpt lat="59.324563674" lon="34.7143587969"><ele>170.005</ele><time>2026-08-17T01:38:55.093Z</time><hdop>3.062</hdop><vdop>2.5</vdop><extensions><gom:speed>1.215</gom:speed></extensions></trkpt>
   <trkpt lat="59.3245699604" lon="34.7143622335"><ele>169.996</ele><time>2026-08-17T01:38:55.630Z</time><hdop>3.062</hdop><vdop>2.5</vdop><extensions><gom:speed>1.212</gom:speed></extensions></trkpt>
   <trkpt lat="59.3245764983" lon="34.7143675979"><ele>169.887</ele><time>2026-08-17T01:38:56.227Z</time><hdop>3.062</hdop><vdop>2.5</vdop><extensions><gom:speed>1.209</gom:speed></extensions></trkpt>
   <trkpt lat="59.3245823656" lon="34.7143711183"><ele>169.724</ele><time>2026-08-17T01:38:56.734Z</time><hdop>3.0</hdop><vdop>2.5</vdop><extensions><gom:speed>1.226</gom:speed></extensions></trkpt>
   <trkpt lat="59.3245890711" lon="34.7143761475"><ele>169.627</ele><time>2026-08-17T01:38:57.330Z</time><hdop>3.0</hdop><vdop>2.5</vdop><extensions><gom:speed>1.233</gom:speed></extensions></trkpt>
   <trkpt lat="59.3245949804" lon="34.7143772371"><ele>169.687</ele><time>2026-08-17T01:38:57.866Z</time><hdop>3.0</hdop><vdop>2.5</vdop><extensions><gom:speed>1.229</gom:speed></extensions></trkpt>
   <trkpt lat="59.3246019793" lon="34.714380087"><ele>169.723</ele><time>2026-08-17T01:38:58.452Z</time><hdop>3.0</hdop><vdop>2.5</vdop><extensions><gom:speed>1.228</gom:speed></extensions></trkpt>
   <trkpt lat="59.3246079723" lon="34.7143807575"><ele>169.707</ele><time>2026-08-17T01:38:59.049Z</time><hdop>3.0</hdop><vdop>2.5</vdop><extensions><gom:speed>1.227</gom:speed></extensions></trkpt>
   <trkpt lat="59.3246135882" lon="34.7143823501"><ele>169.697</ele><time>2026-08-17T01:38:59.525Z</time><hdop>3.0</hdop><vdop>2.5</vdop><extensions><gom:speed>1.222</gom:speed></extensions></trkpt>
   <trkpt lat="59.3246189945" lon="34.7143844456"><ele>169.435</ele><time>2026-08-17T01:39:00.051Z</time><hdop>3.0</hdop><vdop>2.5</vdop><extensions><gom:speed>1.241</gom:speed></extensions></trkpt>
   <trkpt lat="59.3246257839" lon="34.7143875469"><ele>169.278</ele><time>2026-08-17T01:39:00.628Z</time><hdop>3.0</hdop><vdop>2.5</vdop><extensions><gom:speed>1.264</gom:speed></extensions></trkpt>
   <trkpt lat="59.3246314836" lon="34.7143914864"><ele>169.168</ele><time>2026-08-17T01:39:01.134Z</time><hdop>3.0</hdop><vdop>2.5</vdop><extensions><gom:speed>1.258</gom:speed></extensions></trkpt>
   <trkpt lat="59.3246374766" lon="34.714395342"><ele>169.102</ele><time>2026-08-17T01:39:01.651Z</time><hdop>3.0</hdop><vdop>2.5</vdop><extensions><gom:speed>1.258</gom:speed></extensions></trkpt>
   <trkpt lat="59.3246433859" lon="34.7143994492"><ele>169.099</ele><time>2026-08-17T01:39:02.166Z</time><hdop>3.0</hdop><vdop>2.5</vdop><extensions><gom:speed>1.256</gom:speed></extensions></trkpt>
   <trkpt lat="59.3246484988" lon="34.7144034725"><ele>169.198</ele><time>2026-08-17T01:39:02.649Z</time><hdop>3.0</hdop><vdop>2.5</vdop><extensions><gom:speed>1.205</gom:speed></extensions></trkpt>
   <trkpt lat="59.3246554977" lon="34.7144080825"><ele>169.258</ele><time>2026-08-17T01:39:03.289Z</time><hdop>3.0</hdop><vdop>2.5</vdop><extensions><gom:speed>1.206</gom:speed></extensions></trkpt>
   <trkpt lat="59.3246619937" lon="34.714414369"><ele>169.313</ele><time>2026-08-17T01:39:03.886Z</time><hdop>3.0</hdop><vdop>2.5</vdop><extensions><gom:speed>1.198</gom:speed></extensions></trkpt>
   <trkpt lat="59.324667861" lon="34.7144184761"><ele>169.346</ele><time>2026-08-17T01:39:04.391Z</time><hdop>3.0</hdop><vdop>2.5</vdop><extensions><gom:speed>1.205</gom:speed></extensions></trkpt>
   <trkpt lat="59.3246746923" lon="34.7144235891"><ele>169.364</ele><time>2026-08-17T01:39:04.948Z</time><hdop>3.0</hdop><vdop>2.5</vdop><extensions><gom:speed>1.228</gom:speed></extensions></trkpt>
   <trkpt lat="59.3246811882" lon="34.7144275286"><ele>169.375</ele><time>2026-08-17T01:39:05.484Z</time><hdop>3.0</hdop><vdop>2.5</vdop><extensions><gom:speed>1.217</gom:speed></extensions></trkpt>
   <trkpt lat="59.3246884805" lon="34.7144303784"><ele>169.201</ele><time>2026-08-17T01:39:06.071Z</time><hdop>3.0</hdop><vdop>2.5</vdop><extensions><gom:speed>1.215</gom:speed></extensions></trkpt>
   <trkpt lat="59.3246948926" lon="34.7144334797"><ele>169.097</ele><time>2026-08-17T01:39:06.587Z</time><hdop>3.0</hdop><vdop>2.5</vdop><extensions><gom:speed>1.215</gom:speed></extensions></trkpt>
   <trkpt lat="59.3247011791" lon="34.7144348208"><ele>168.797</ele><time>2026-08-17T01:39:07.174Z</time><hdop>3.0</hdop><vdop>2.5</vdop><extensions><gom:speed>1.207</gom:speed></extensions></trkpt>
   <trkpt lat="59.3247065854" lon="34.7144362457"><ele>168.618</ele><time>2026-08-17T01:39:07.649Z</time><hdop>3.0</hdop><vdop>2.5</vdop><extensions><gom:speed>1.206</gom:speed></extensions></trkpt>
   <trkpt lat="59.324712788" lon="34.71443985"><ele>168.474</ele><time>2026-08-17T01:39:08.206Z</time><hdop>3.0</hdop><vdop>2.5</vdop><extensions><gom:speed>1.235</gom:speed></extensions></trkpt>
   <trkpt lat="59.324718362" lon="34.71444446"><ele>168.319</ele><time>2026-08-17T01:39:08.712Z</time><hdop>3.0</hdop><vdop>2.5</vdop><extensions><gom:speed>1.248</gom:speed></extensions></trkpt>
   <trkpt lat="59.3247250675" lon="34.7144509979"><ele>168.227</ele><time>2026-08-17T01:39:09.349Z</time><hdop>3.0</hdop><vdop>2.5</vdop><extensions><gom:speed>1.25</gom:speed></extensions></trkpt>
   <trkpt lat="59.3247300966" lon="34.7144558594"><ele>168.016</ele><time>2026-08-17T01:39:09.826Z</time><hdop>3.0</hdop><vdop>2.5</vdop><extensions><gom:speed>1.255</gom:speed></extensions></trkpt>
   <trkpt lat="59.3247365926" lon="34.714462062"><ele>167.891</ele><time>2026-08-17T01:39:10.432Z</time><hdop>3.0</hdop><vdop>2.5</vdop><extensions><gom:speed>1.258</gom:speed></extensions></trkpt>
   <trkpt lat="59.3247410769" lon="34.7144672588"><ele>167.863</ele><time>2026-08-17T01:39:10.887Z</time><hdop>3.0</hdop><vdop>2.5</vdop><extensions><gom:speed>1.269</gom:speed></extensions></trkpt>
   <trkpt lat="59.3247467766" lon="34.7144737967"><ele>167.847</ele><time>2026-08-17T01:39:11.414Z</time><hdop>3.0</hdop><vdop>2.5</vdop><extensions><gom:speed>1.271</gom:speed></extensions></trkpt>
   <trkpt lat="59.3247520991" lon="34.7144776523"><ele>167.927</ele><time>2026-08-17T01:39:11.909Z</time><hdop>3.0</hdop><vdop>2.5</vdop><extensions><gom:speed>1.285</gom:speed></extensions></trkpt>
   <trkpt lat="59.324760984" lon="34.7144836873"><ele>167.975</ele><time>2026-08-17T01:39:12.647Z</time><hdop>3.0</hdop><vdop>2.5</vdop><extensions><gom:speed>1.281</gom:speed></extensions></trkpt>
   <trkpt lat="59.3247737664" lon="34.7144818433"><ele>167.972</ele><time>2026-08-17T01:39:13.649Z</time><hdop>3.0</hdop><vdop>2.5</vdop><extensions><gom:speed>1.293</gom:speed></extensions></trkpt>
   <trkpt lat="59.3247800947" lon="34.7144821786"><ele>167.97</ele><time>2026-08-17T01:39:14.145Z</time><hdop>3.0</hdop><vdop>2.5</vdop><extensions><gom:speed>1.277</gom:speed></extensions></trkpt>
   <trkpt lat="59.3247863811" lon="34.714483352"><ele>167.971</ele><time>2026-08-17T01:39:14.650Z</time><hdop>3.0</hdop><vdop>2.5</vdop><extensions><gom:speed>1.278</gom:speed></extensions></trkpt>
   <trkpt lat="59.3247928771" lon="34.7144872915"><ele>167.972</ele><time>2026-08-17T01:39:15.167Z</time><hdop>3.0</hdop><vdop>2.5</vdop><extensions><gom:speed>1.28</gom:speed></extensions></trkpt>
   <trkpt lat="59.3247986606" lon="34.7144896385"><ele>168.043</ele><time>2026-08-17T01:39:15.649Z</time><hdop>3.0</hdop><vdop>2.5</vdop><extensions><gom:speed>1.289</gom:speed></extensions></trkpt>
   <trkpt lat="59.324806372" lon="34.714493578"><ele>168.085</ele><time>2026-08-17T01:39:16.269Z</time><hdop>3.0</hdop><vdop>2.5</vdop><extensions><gom:speed>1.297</gom:speed></extensions></trkpt>
   <trkpt lat="59.3248130775" lon="34.7144946676"><ele>168.163</ele><time>2026-08-17T01:39:16.786Z</time><hdop>3.0</hdop><vdop>2.5</vdop><extensions><gom:speed>1.28</gom:speed></extensions></trkpt>
   <trkpt lat="59.3248199926" lon="34.7144977689"><ele>168.209</ele><time>2026-08-17T01:39:17.352Z</time><hdop>3.0</hdop><vdop>2.5</vdop><extensions><gom:speed>1.271</gom:speed></extensions></trkpt>
   <trkpt lat="59.3248274944" lon="34.7145017922"><ele>168.396</ele><time>2026-08-17T01:39:17.949Z</time><hdop>3.062</hdop><vdop>2.5</vdop><extensions><gom:speed>1.272</gom:speed></extensions></trkpt>
   <trkpt lat="59.3248331941" lon="34.7145045582"><ele>168.508</ele><time>2026-08-17T01:39:18.404Z</time><hdop>3.062</hdop><vdop>2.5</vdop><extensions><gom:speed>1.271</gom:speed></extensions></trkpt>
   <trkpt lat="59.3248404863" lon="34.7145094197"><ele>168.686</ele><time>2026-08-17T01:39:19.032Z</time><hdop>3.062</hdop><vdop>2.5</vdop><extensions><gom:speed>1.275</gom:speed></extensions></trkpt>
   <trkpt lat="59.3248457669" lon="34.714513946"><ele>168.793</ele><time>2026-08-17T01:39:19.487Z</time><hdop>3.062</hdop><vdop>2.5</vdop><extensions><gom:speed>1.272</gom:speed></extensions></trkpt>
   <trkpt lat="59.3248522629" lon="34.7145179693"><ele>168.846</ele><time>2026-08-17T01:39:20.033Z</time><hdop>3.125</hdop><vdop>2.5</vdop><extensions><gom:speed>1.297</gom:speed></extensions></trkpt>
   <trkpt lat="59.3248587589" lon="34.7145229984"><ele>168.878</ele><time>2026-08-17T01:39:20.569Z</time><hdop>3.125</hdop><vdop>2.5</vdop><extensions><gom:speed>1.296</gom:speed></extensions></trkpt>
   <trkpt lat="59.3248664702" lon="34.7145267703"><ele>168.885</ele><time>2026-08-17T01:39:21.207Z</time><hdop>3.125</hdop><vdop>2.5</vdop><extensions><gom:speed>1.302</gom:speed></extensions></trkpt>
   <trkpt lat="59.3248721699" lon="34.7145298716"><ele>168.889</ele><time>2026-08-17T01:39:21.672Z</time><hdop>3.125</hdop><vdop>2.5</vdop><extensions><gom:speed>1.309</gom:speed></extensions></trkpt>
   <trkpt lat="59.3248791688" lon="34.7145334758"><ele>168.58</ele><time>2026-08-17T01:39:22.289Z</time><hdop>3.125</hdop><vdop>2.5</vdop><extensions><gom:speed>1.317</gom:speed></extensions></trkpt>
   <trkpt lat="59.3248845751" lon="34.7145372477"><ele>168.373</ele><time>2026-08-17T01:39:22.745Z</time><hdop>3.125</hdop><vdop>2.5</vdop><extensions><gom:speed>1.321</gom:speed></extensions></trkpt>
   <trkpt lat="59.3248918674" lon="34.7145417739"><ele>168.249</ele><time>2026-08-17T01:39:23.352Z</time><hdop>3.125</hdop><vdop>2.5</vdop><extensions><gom:speed>1.324</gom:speed></extensions></trkpt>
   <trkpt lat="59.3249027638" lon="34.7145513293"><ele>167.988</ele><time>2026-08-17T01:39:24.414Z</time><hdop>3.062</hdop><vdop>2.5</vdop><extensions><gom:speed>1.286</gom:speed></extensions></trkpt>
   <trkpt lat="59.3249067872" lon="34.7145552688"><ele>167.621</ele><time>2026-08-17T01:39:24.869Z</time><hdop>3.062</hdop><vdop>2.5</vdop><extensions><gom:speed>1.287</gom:speed></extensions></trkpt>
   <trkpt lat="59.3249137861" lon="34.7145617228"><ele>167.402</ele><time>2026-08-17T01:39:25.487Z</time><hdop>3.062</hdop><vdop>2.5</vdop><extensions><gom:speed>1.296</gom:speed></extensions></trkpt>
   <trkpt lat="59.3249189828" lon="34.7145642374"><ele>167.277</ele><time>2026-08-17T01:39:25.972Z</time><hdop>3.0</hdop><vdop>2.5</vdop><extensions><gom:speed>1.319</gom:speed></extensions></trkpt>
   <trkpt lat="59.3249247663" lon="34.7145678416"><ele>167.202</ele><time>2026-08-17T01:39:26.468Z</time><hdop>3.0</hdop><vdop>2.5</vdop><extensions><gom:speed>1.317</gom:speed></extensions></trkpt>
   <trkpt lat="59.3249301727" lon="34.714571362"><ele>167.09</ele><time>2026-08-17T01:39:26.974Z</time><hdop>3.0</hdop><vdop>2.5</vdop><extensions><gom:speed>1.325</gom:speed></extensions></trkpt>
   <trkpt lat="59.3249366686" lon="34.7145778999"><ele>167.023</ele><time>2026-08-17T01:39:27.571Z</time><hdop>3.0</hdop><vdop>2.5</vdop><extensions><gom:speed>1.33</gom:speed></extensions></trkpt>
   <trkpt lat="59.324942075" lon="34.7145798277"><ele>166.988</ele><time>2026-08-17T01:39:28.067Z</time><hdop>3.0</hdop><vdop>2.5</vdop><extensions><gom:speed>1.328</gom:speed></extensions></trkpt>
   <trkpt lat="59.3249485709" lon="34.7145808336"><ele>167.144</ele><time>2026-08-17T01:39:28.649Z</time><hdop>3.0</hdop><vdop>2.5</vdop><extensions><gom:speed>1.344</gom:speed></extensions></trkpt>
   <trkpt lat="59.324954564" lon="34.714581085"><ele>167.237</ele><time>2026-08-17T01:39:29.109Z</time><hdop>3.0</hdop><vdop>2.5</vdop><extensions><gom:speed>1.347</gom:speed></extensions></trkpt>
   <trkpt lat="59.3249606828" lon="34.7145794925"><ele>167.227</ele><time>2026-08-17T01:39:29.649Z</time><hdop>3.0</hdop><vdop>2.5</vdop><extensions><gom:speed>1.3</gom:speed></extensions></trkpt>
   <trkpt lat="59.3249681846" lon="34.7145794925"><ele>167.221</ele><time>2026-08-17T01:39:30.272Z</time><hdop>3.0</hdop><vdop>2.5</vdop><extensions><gom:speed>1.307</gom:speed></extensions></trkpt>
   <trkpt lat="59.3249732976" lon="34.7145789895"><ele>167.289</ele><time>2026-08-17T01:39:30.729Z</time><hdop>3.0</hdop><vdop>2.5</vdop><extensions><gom:speed>1.315</gom:speed></extensions></trkpt>
   <trkpt lat="59.3249801707" lon="34.7145789895"><ele>167.33</ele><time>2026-08-17T01:39:31.275Z</time><hdop>3.0</hdop><vdop>2.5</vdop><extensions><gom:speed>1.32</gom:speed></extensions></trkpt>
   <trkpt lat="59.3249866667" lon="34.7145748824"><ele>167.557</ele><time>2026-08-17T01:39:31.810Z</time><hdop>3.0</hdop><vdop>2.5</vdop><extensions><gom:speed>1.341</gom:speed></extensions></trkpt>
   <trkpt lat="59.3249926598" lon="34.7145714458"><ele>167.692</ele><time>2026-08-17T01:39:32.286Z</time><hdop>3.0</hdop><vdop>2.5</vdop><extensions><gom:speed>1.337</gom:speed></extensions></trkpt>
   <trkpt lat="59.3249989881" lon="34.7145681769"><ele>167.999</ele><time>2026-08-17T01:39:32.812Z</time><hdop>3.0</hdop><vdop>2.5</vdop><extensions><gom:speed>1.337</gom:speed></extensions></trkpt>
   <trkpt lat="59.3250061965" lon="34.7145648241"><ele>168.182</ele><time>2026-08-17T01:39:33.368Z</time><hdop>3.062</hdop><vdop>2.5</vdop><extensions><gom:speed>1.341</gom:speed></extensions></trkpt>
   <trkpt lat="59.3250189789" lon="34.7145611361"><ele>168.476</ele><time>2026-08-17T01:39:34.370Z</time><hdop>3.062</hdop><vdop>2.5</vdop><extensions><gom:speed>1.324</gom:speed></extensions></trkpt>
   <trkpt lat="59.3250325995" lon="34.7145627287"><ele>168.678</ele><time>2026-08-17T01:39:35.433Z</time><hdop>3.062</hdop><vdop>2.5</vdop><extensions><gom:speed>1.309</gom:speed></extensions></trkpt>
   <trkpt lat="59.3250461782" lon="34.7145701885"><ele>169.064</ele><time>2026-08-17T01:39:36.545Z</time><hdop>3.125</hdop><vdop>2.5</vdop><extensions><gom:speed>1.287</gom:speed></extensions></trkpt>
   <trkpt lat="59.3250533866" lon="34.7145774808"><ele>169.109</ele><time>2026-08-17T01:39:37.193Z</time><hdop>3.125</hdop><vdop>2.5</vdop><extensions><gom:speed>1.308</gom:speed></extensions></trkpt>
   <trkpt lat="59.3250589606" lon="34.7145803306"><ele>169.136</ele><time>2026-08-17T01:39:37.648Z</time><hdop>3.062</hdop><vdop>2.5</vdop><extensions><gom:speed>1.293</gom:speed></extensions></trkpt>
   <trkpt lat="59.3250665881" lon="34.7145832643"><ele>169.154</ele><time>2026-08-17T01:39:38.265Z</time><hdop>3.062</hdop><vdop>2.5</vdop><extensions><gom:speed>1.297</gom:speed></extensions></trkpt>
   <trkpt lat="59.3250844835" lon="34.7145848569"><ele>169.019</ele><time>2026-08-17T01:39:39.649Z</time><hdop>3.0</hdop><vdop>2.5</vdop><extensions><gom:speed>1.339</gom:speed></extensions></trkpt>
   <trkpt lat="59.32509538" lon="34.7145818394"><ele>168.938</ele><time>2026-08-17T01:39:40.450Z</time><hdop>3.0</hdop><vdop>2.5</vdop><extensions><gom:speed>1.332</gom:speed></extensions></trkpt>
   <trkpt lat="59.3251103836" lon="34.7145846892"><ele>168.663</ele><time>2026-08-17T01:39:41.649Z</time><hdop>3.0</hdop><vdop>2.5</vdop><extensions><gom:speed>1.353</gom:speed></extensions></trkpt>
   <trkpt lat="59.3251236689" lon="34.7145858627"><ele>168.499</ele><time>2026-08-17T01:39:42.605Z</time><hdop>3.0</hdop><vdop>2.5</vdop><extensions><gom:speed>1.396</gom:speed></extensions></trkpt>
   <trkpt lat="59.3251380858" lon="34.7145936579"><ele>168.355</ele><time>2026-08-17T01:39:43.668Z</time><hdop>3.0</hdop><vdop>2.5</vdop><extensions><gom:speed>1.38</gom:speed></extensions></trkpt>
   <trkpt lat="59.3251437855" lon="34.7146002796"><ele>168.326</ele><time>2026-08-17T01:39:44.133Z</time><hdop>3.0</hdop><vdop>2.5</vdop><extensions><gom:speed>1.354</gom:speed></extensions></trkpt>
   <trkpt lat="59.3251492756" lon="34.7146066498"><ele>168.332</ele><time>2026-08-17T01:39:44.648Z</time><hdop>3.0</hdop><vdop>2.5</vdop><extensions><gom:speed>1.349</gom:speed></extensions></trkpt>
   <trkpt lat="59.3251554782" lon="34.7146122657"><ele>168.336</ele><time>2026-08-17T01:39:45.165Z</time><hdop>3.0</hdop><vdop>2.5</vdop><extensions><gom:speed>1.33</gom:speed></extensions></trkpt>
   <trkpt lat="59.325160675" lon="34.7146164567"><ele>168.209</ele><time>2026-08-17T01:39:45.649Z</time><hdop>3.0</hdop><vdop>2.5</vdop><extensions><gom:speed>1.349</gom:speed></extensions></trkpt>
   <trkpt lat="59.3251672967" lon="34.7146226593"><ele>168.134</ele><time>2026-08-17T01:39:46.228Z</time><hdop>3.0</hdop><vdop>2.5</vdop><extensions><gom:speed>1.358</gom:speed></extensions></trkpt>
   <trkpt lat="59.3251783608" lon="34.7146322984"><ele>167.976</ele><time>2026-08-17T01:39:47.189Z</time><hdop>3.0</hdop><vdop>2.5</vdop><extensions><gom:speed>1.365</gom:speed></extensions></trkpt>
   <trkpt lat="59.3251837672" lon="34.7146359865"><ele>167.793</ele><time>2026-08-17T01:39:47.649Z</time><hdop>3.0</hdop><vdop>2.5</vdop><extensions><gom:speed>1.347</gom:speed></extensions></trkpt>
   <trkpt lat="59.3251913947" lon="34.7146418538"><ele>167.684</ele><time>2026-08-17T01:39:48.271Z</time><hdop>3.0</hdop><vdop>2.5</vdop><extensions><gom:speed>1.354</gom:speed></extensions></trkpt>
   <trkpt lat="59.3251989803" lon="34.7146478888"><ele>167.611</ele><time>2026-08-17T01:39:48.868Z</time><hdop>3.0</hdop><vdop>2.5</vdop><extensions><gom:speed>1.341</gom:speed></extensions></trkpt>
   <trkpt lat="59.3252057696" lon="34.7146545943"><ele>167.567</ele><time>2026-08-17T01:39:49.404Z</time><hdop>3.0</hdop><vdop>2.5</vdop><extensions><gom:speed>1.344</gom:speed></extensions></trkpt>
   <trkpt lat="59.325212559" lon="34.7146583662"><ele>167.652</ele><time>2026-08-17T01:39:49.910Z</time><hdop>3.0</hdop><vdop>2.5</vdop><extensions><gom:speed>1.311</gom:speed></extensions></trkpt>
   <trkpt lat="59.3252189711" lon="34.7146646526"><ele>167.702</ele><time>2026-08-17T01:39:50.447Z</time><hdop>3.0</hdop><vdop>2.5</vdop><extensions><gom:speed>1.309</gom:speed></extensions></trkpt>
   <trkpt lat="59.3252263891" lon="34.7146680892"><ele>167.808</ele><time>2026-08-17T01:39:50.973Z</time><hdop>3.0</hdop><vdop>2.5</vdop><extensions><gom:speed>1.304</gom:speed></extensions></trkpt>
   <trkpt lat="59.3252327594" lon="34.7146739565"><ele>167.872</ele><time>2026-08-17T01:39:51.509Z</time><hdop>3.0</hdop><vdop>2.5</vdop><extensions><gom:speed>1.304</gom:speed></extensions></trkpt>
   <trkpt lat="59.3252402612" lon="34.7146776445"><ele>167.843</ele><time>2026-08-17T01:39:52.045Z</time><hdop>3.0</hdop><vdop>2.5</vdop><extensions><gom:speed>1.306</gom:speed></extensions></trkpt>
   <trkpt lat="59.3252467991" lon="34.7146829251"><ele>167.826</ele><time>2026-08-17T01:39:52.571Z</time><hdop>3.0</hdop><vdop>2.5</vdop><extensions><gom:speed>1.311</gom:speed></extensions></trkpt>
   <trkpt lat="59.3252553905" lon="34.7146880381"><ele>167.825</ele><time>2026-08-17T01:39:53.229Z</time><hdop>3.0</hdop><vdop>2.5</vdop><extensions><gom:speed>1.282</gom:speed></extensions></trkpt>
   <trkpt lat="59.3252693883" lon="34.714693654"><ele>167.671</ele><time>2026-08-17T01:39:54.230Z</time><hdop>3.0</hdop><vdop>2.5</vdop><extensions><gom:speed>1.286</gom:speed></extensions></trkpt>
   <trkpt lat="59.3252781893" lon="34.7146950789"><ele>167.495</ele><time>2026-08-17T01:39:54.746Z</time><hdop>3.0</hdop><vdop>2.5</vdop><extensions><gom:speed>1.276</gom:speed></extensions></trkpt>
   <trkpt lat="59.3252905945" lon="34.7147011977"><ele>167.493</ele><time>2026-08-17T01:39:55.649Z</time><hdop>3.0</hdop><vdop>2.5</vdop><extensions><gom:speed>1.285</gom:speed></extensions></trkpt>
   <trkpt lat="59.3253002756" lon="34.7147077356"><ele>167.491</ele><time>2026-08-17T01:39:56.406Z</time><hdop>3.0</hdop><vdop>2.5</vdop><extensions><gom:speed>1.284</gom:speed></extensions></trkpt>
   <trkpt lat="59.3253084899" lon="34.7147105854"><ele>167.558</ele><time>2026-08-17T01:39:56.952Z</time><hdop>3.0</hdop><vdop>2.5</vdop><extensions><gom:speed>1.281</gom:speed></extensions></trkpt>
   <trkpt lat="59.3253164946" lon="34.7147152793"><ele>167.598</ele><time>2026-08-17T01:39:57.569Z</time><hdop>3.0</hdop><vdop>2.5</vdop><extensions><gom:speed>1.285</gom:speed></extensions></trkpt>
   <trkpt lat="59.3253323783" lon="34.7147196379"><ele>167.79</ele><time>2026-08-17T01:39:58.648Z</time><hdop>3.0</hdop><vdop>2.5</vdop><extensions><gom:speed>1.3</gom:speed></extensions></trkpt>
   <trkpt lat="59.3253463761" lon="34.7147234936"><ele>167.863</ele><time>2026-08-17T01:39:59.649Z</time><hdop>3.0</hdop><vdop>2.5</vdop><extensions><gom:speed>1.327</gom:speed></extensions></trkpt>
   <trkpt lat="59.3253535845" lon="34.7147258405"><ele>167.907</ele><time>2026-08-17T01:40:00.149Z</time><hdop>3.0</hdop><vdop>2.5</vdop><extensions><gom:speed>1.338</gom:speed></extensions></trkpt>
   <trkpt lat="59.32536029" lon="34.7147296962"><ele>167.862</ele><time>2026-08-17T01:40:00.655Z</time><hdop>3.0</hdop><vdop>2.5</vdop><extensions><gom:speed>1.311</gom:speed></extensions></trkpt>
   <trkpt lat="59.3253669956" lon="34.7147309534"><ele>167.836</ele><time>2026-08-17T01:40:01.171Z</time><hdop>3.0</hdop><vdop>2.5</vdop><extensions><gom:speed>1.312</gom:speed></extensions></trkpt>
   <trkpt lat="59.325373282" lon="34.7147331327"><ele>167.847</ele><time>2026-08-17T01:40:01.667Z</time><hdop>3.0</hdop><vdop>2.5</vdop><extensions><gom:speed>1.286</gom:speed></extensions></trkpt>
   <trkpt lat="59.3253808676" lon="34.7147356473"><ele>167.854</ele><time>2026-08-17T01:40:02.294Z</time><hdop>3.0</hdop><vdop>2.5</vdop><extensions><gom:speed>1.288</gom:speed></extensions></trkpt>
   <trkpt lat="59.3253884951" lon="34.7147405926"><ele>167.931</ele><time>2026-08-17T01:40:02.972Z</time><hdop>3.0</hdop><vdop>2.5</vdop><extensions><gom:speed>1.271</gom:speed></extensions></trkpt>
   <trkpt lat="59.3253966675" lon="34.71474646"><ele>168.01</ele><time>2026-08-17T01:40:03.649Z</time><hdop>3.0</hdop><vdop>2.5</vdop><extensions><gom:speed>1.31</gom:speed></extensions></trkpt>
   <trkpt lat="59.3254080669" lon="34.7147549257"><ele>168.057</ele><time>2026-08-17T01:40:04.570Z</time><hdop>3.062</hdop><vdop>2.5</vdop><extensions><gom:speed>1.296</gom:speed></extensions></trkpt>
   <trkpt lat="59.3254136828" lon="34.7147581946"><ele>168.095</ele><time>2026-08-17T01:40:05.046Z</time><hdop>3.062</hdop><vdop>2.5</vdop><extensions><gom:speed>1.293</gom:speed></extensions></trkpt>
   <trkpt lat="59.3254202626" lon="34.7147604577"><ele>168.117</ele><time>2026-08-17T01:40:05.572Z</time><hdop>3.062</hdop><vdop>2.5</vdop><extensions><gom:speed>1.287</gom:speed></extensions></trkpt>
   <trkpt lat="59.3254266747" lon="34.7147615474"><ele>168.07</ele><time>2026-08-17T01:40:06.088Z</time><hdop>3.0</hdop><vdop>2.5</vdop><extensions><gom:speed>1.285</gom:speed></extensions></trkpt>
   <trkpt lat="59.3254340927" lon="34.71476314"><ele>168.042</ele><time>2026-08-17T01:40:06.645Z</time><hdop>3.0</hdop><vdop>2.5</vdop><extensions><gom:speed>1.269</gom:speed></extensions></trkpt>
   <trkpt lat="59.3254424746" lon="34.7147656545"><ele>167.966</ele><time>2026-08-17T01:40:07.292Z</time><hdop>3.0</hdop><vdop>2.5</vdop><extensions><gom:speed>1.279</gom:speed></extensions></trkpt>
   <trkpt lat="59.3254595737" lon="34.7147636429"><ele>167.971</ele><time>2026-08-17T01:40:08.648Z</time><hdop>3.0</hdop><vdop>2.5</vdop><extensions><gom:speed>1.263</gom:speed></extensions></trkpt>
   <trkpt lat="59.3254704702" lon="34.7147516567"><ele>167.267</ele><time>2026-08-17T01:40:09.660Z</time><hdop>3.0</hdop><vdop>2.5</vdop><extensions><gom:speed>1.215</gom:speed></extensions></trkpt>
   <trkpt lat="59.3254735715" lon="34.7147435263"><ele>166.845</ele><time>2026-08-17T01:40:10.125Z</time><hdop>3.0</hdop><vdop>2.5</vdop><extensions><gom:speed>1.244</gom:speed></extensions></trkpt>
   <trkpt lat="59.3254753736" lon="34.7147335518"><ele>166.191</ele><time>2026-08-17T01:40:10.650Z</time><hdop>3.0</hdop><vdop>2.5</vdop><extensions><gom:speed>1.228</gom:speed></extensions></trkpt>
   <trkpt lat="59.3254765889" lon="34.7147223201"><ele>165.799</ele><time>2026-08-17T01:40:11.127Z</time><hdop>3.0</hdop><vdop>2.5</vdop><extensions><gom:speed>1.229</gom:speed></extensions></trkpt>
   <trkpt lat="59.3254763794" lon="34.7147118427"><ele>165.064</ele><time>2026-08-17T01:40:11.649Z</time><hdop>3.0</hdop><vdop>2.5</vdop><extensions><gom:speed>1.183</gom:speed></extensions></trkpt>
   <trkpt lat="59.3254765889" lon="34.7146974258"><ele>164.624</ele><time>2026-08-17T01:40:12.310Z</time><hdop>3.0</hdop><vdop>2.5</vdop><extensions><gom:speed>1.179</gom:speed></extensions></trkpt>
   <trkpt lat="59.3254766728" lon="34.7146704361"><ele>163.138</ele><time>2026-08-17T01:40:13.649Z</time><hdop>3.0</hdop><vdop>2.5</vdop><extensions><gom:speed>1.228</gom:speed></extensions></trkpt>
   <trkpt lat="59.3254756669" lon="34.7146493975"><ele>162.25</ele><time>2026-08-17T01:40:14.607Z</time><hdop>3.062</hdop><vdop>2.5</vdop><extensions><gom:speed>1.098</gom:speed></extensions></trkpt>
   <trkpt lat="59.3254748706" lon="34.7146316279"><ele>161.624</ele><time>2026-08-17T01:40:15.487Z</time><hdop>3.0</hdop><vdop>2.5</vdop><extensions><gom:speed>1.11</gom:speed></extensions></trkpt>
   <trkpt lat="59.3254794807" lon="34.7146307897"><ele>161.835</ele><time>2026-08-17T01:40:15.953Z</time><hdop>3.0</hdop><vdop>2.5</vdop><extensions><gom:speed>1.049</gom:speed></extensions></trkpt>
   <trkpt lat="59.3254868987" lon="34.7146316279"><ele>161.961</ele><time>2026-08-17T01:40:16.610Z</time><hdop>3.0</hdop><vdop>2.5</vdop><extensions><gom:speed>1.079</gom:speed></extensions></trkpt>
   <trkpt lat="59.3254997649" lon="34.7146508225"><ele>161.612</ele><time>2026-08-17T01:40:17.592Z</time><hdop>3.0</hdop><vdop>2.5</vdop><extensions><gom:speed>1.201</gom:speed></extensions></trkpt>
   <trkpt lat="59.3255072667" lon="34.7146657422"><ele>161.391</ele><time>2026-08-17T01:40:18.168Z</time><hdop>3.0</hdop><vdop>2.5</vdop><extensions><gom:speed>1.274</gom:speed></extensions></trkpt>
   <trkpt lat="59.3255133855" lon="34.7146811649"><ele>161.259</ele><time>2026-08-17T01:40:18.649Z</time><hdop>3.0</hdop><vdop>2.625</vdop><extensions><gom:speed>1.263</gom:speed></extensions></trkpt>
   <trkpt lat="59.3255201748" lon="34.714694576"><ele>161.18</ele><time>2026-08-17T01:40:19.251Z</time><hdop>3.0</hdop><vdop>2.625</vdop><extensions><gom:speed>1.264</gom:speed></extensions></trkpt>
   <trkpt lat="59.3255267965" lon="34.7147092443"><ele>161.349</ele><time>2026-08-17T01:40:19.787Z</time><hdop>3.0</hdop><vdop>2.5</vdop><extensions><gom:speed>1.305</gom:speed></extensions></trkpt>
   <trkpt lat="59.325533083" lon="34.7147168719"><ele>161.449</ele><time>2026-08-17T01:40:20.313Z</time><hdop>3.0</hdop><vdop>2.5</vdop><extensions><gom:speed>1.305</gom:speed></extensions></trkpt>
   <trkpt lat="59.325539998" lon="34.7147284389"><ele>161.529</ele><time>2026-08-17T01:40:20.849Z</time><hdop>3.0</hdop><vdop>2.5</vdop><extensions><gom:speed>1.334</gom:speed></extensions></trkpt>
   <trkpt lat="59.3255462845" lon="34.7147349768"><ele>161.576</ele><time>2026-08-17T01:40:21.345Z</time><hdop>3.0</hdop><vdop>2.5</vdop><extensions><gom:speed>1.335</gom:speed></extensions></trkpt>
   <trkpt lat="59.3255549597" lon="34.7147462923"><ele>161.521</ele><time>2026-08-17T01:40:22.053Z</time><hdop>3.0</hdop><vdop>2.5</vdop><extensions><gom:speed>1.332</gom:speed></extensions></trkpt>
   <trkpt lat="59.3255621682" lon="34.7147537522"><ele>161.446</ele><time>2026-08-17T01:40:22.649Z</time><hdop>3.0</hdop><vdop>2.562</vdop><extensions><gom:speed>1.316</gom:speed></extensions></trkpt>
   <trkpt lat="59.3255712625" lon="34.7147684206"><ele>161.401</ele><time>2026-08-17T01:40:23.531Z</time><hdop>3.0</hdop><vdop>2.562</vdop><extensions><gom:speed>1.312</gom:speed></extensions></trkpt>
   <trkpt lat="59.3255764593" lon="34.7147808258"><ele>161.23</ele><time>2026-08-17T01:40:24.148Z</time><hdop>3.0</hdop><vdop>2.875</vdop><extensions><gom:speed>1.322</gom:speed></extensions></trkpt>
   <trkpt lat="59.3255817818" lon="34.7147896268"><ele>161.228</ele><time>2026-08-17T01:40:24.649Z</time><hdop>3.0</hdop><vdop>3.25</vdop><extensions><gom:speed>1.333</gom:speed></extensions></trkpt>
   <trkpt lat="59.3255882778" lon="34.7147989307"><ele>161.226</ele><time>2026-08-17T01:40:25.251Z</time><hdop>3.0</hdop><vdop>3.25</vdop><extensions><gom:speed>1.332</gom:speed></extensions></trkpt>
   <trkpt lat="59.3256010602" lon="34.7148143534"><ele>161.511</ele><time>2026-08-17T01:40:26.293Z</time><hdop>3.0</hdop><vdop>3.625</vdop><extensions><gom:speed>1.366</gom:speed></extensions></trkpt>
   <trkpt lat="59.3256129625" lon="34.7148201369"><ele>161.711</ele><time>2026-08-17T01:40:27.274Z</time><hdop>3.062</hdop><vdop>3.687</vdop><extensions><gom:speed>1.273</gom:speed></extensions></trkpt>
   <trkpt lat="59.3256189975" lon="34.7148127608"><ele>161.623</ele><time>2026-08-17T01:40:28.033Z</time><hdop>3.062</hdop><vdop>3.812</vdop><extensions><gom:speed>1.284</gom:speed></extensions></trkpt>
   <trkpt lat="59.3256192908" lon="34.7148045466"><ele>161.419</ele><time>2026-08-17T01:40:28.648Z</time><hdop>3.062</hdop><vdop>3.187</vdop><extensions><gom:speed>1.029</gom:speed></extensions></trkpt>
   <trkpt lat="59.3256183688" lon="34.714790465"><ele>161.298</ele><time>2026-08-17T01:40:29.449Z</time><hdop>3.062</hdop><vdop>3.187</vdop><extensions><gom:speed>1.017</gom:speed></extensions></trkpt>
   <trkpt lat="59.325611789" lon="34.7147829212"><ele>161.138</ele><time>2026-08-17T01:40:30.649Z</time><hdop>3.0</hdop><vdop>3.312</vdop><extensions><gom:speed>0.503</gom:speed></extensions></trkpt>
   <trkpt lat="59.3256096936" lon="34.7147826698"><ele>161.053</ele><time>2026-08-17T01:40:31.649Z</time><hdop>3.0</hdop><vdop>3.375</vdop><extensions><gom:speed>0.206</gom:speed></extensions></trkpt>
   <trkpt lat="59.3256069694" lon="34.7147846814"><ele>160.847</ele><time>2026-08-17T01:40:32.649Z</time><hdop>3.0</hdop><vdop>3.312</vdop><extensions><gom:speed>0.179</gom:speed></extensions></trkpt>
   <trkpt lat="59.3256060893" lon="34.7147843462"><ele>160.724</ele><time>2026-08-17T01:40:33.295Z</time><hdop>3.0</hdop><vdop>3.312</vdop><extensions><gom:speed>0.191</gom:speed></extensions></trkpt>
   <trkpt lat="59.3256035748" lon="34.7147852682"><ele>160.75</ele><time>2026-08-17T01:40:33.891Z</time><hdop>3.0</hdop><vdop>3.125</vdop><extensions><gom:speed>0.19</gom:speed></extensions></trkpt>
   <trkpt lat="59.3256024851" lon="34.7147839271"><ele>160.741</ele><time>2026-08-17T01:40:34.650Z</time><hdop>3.0</hdop><vdop>3.125</vdop><extensions><gom:speed>0.185</gom:speed></extensions></trkpt>
   <trkpt lat="59.3256001801" lon="34.7147840947"><ele>160.736</ele><time>2026-08-17T01:40:35.550Z</time><hdop>3.0</hdop><vdop>3.125</vdop><extensions><gom:speed>0.174</gom:speed></extensions></trkpt>
   <trkpt lat="59.3255970788" lon="34.7147744555"><ele>161.264</ele><time>2026-08-17T01:40:36.592Z</time><hdop>3.0</hdop><vdop>2.687</vdop><extensions><gom:speed>0.365</gom:speed></extensions></trkpt>
   <trkpt lat="59.3255876911" lon="34.7147582785"><ele>161.249</ele><time>2026-08-17T01:40:37.649Z</time><hdop>3.0</hdop><vdop>2.562</vdop><extensions><gom:speed>0.502</gom:speed></extensions></trkpt>
   <trkpt lat="59.3255788901" lon="34.7147437778"><ele>161.887</ele><time>2026-08-17T01:40:38.648Z</time><hdop>3.0</hdop><vdop>2.812</vdop><extensions><gom:speed>0.532</gom:speed></extensions></trkpt>
   <trkpt lat="59.3255726875" lon="34.7147356473"><ele>162.184</ele><time>2026-08-17T01:40:39.649Z</time><hdop>3.0</hdop><vdop>2.75</vdop><extensions><gom:speed>0.219</gom:speed></extensions></trkpt>
   <trkpt lat="59.3255685803" lon="34.7147315402"><ele>162.361</ele><time>2026-08-17T01:40:40.649Z</time><hdop>3.0</hdop><vdop>2.687</vdop><extensions><gom:speed>0.064</gom:speed></extensions></trkpt>
   <trkpt lat="59.325565479" lon="34.7147304505"><ele>162.47</ele><time>2026-08-17T01:40:41.649Z</time><hdop>3.0</hdop><vdop>2.625</vdop><extensions><gom:speed>0.031</gom:speed></extensions></trkpt>
   <trkpt lat="59.3255629645" lon="34.7147285227"><ele>162.536</ele><time>2026-08-17T01:40:42.648Z</time><hdop>3.0</hdop><vdop>2.562</vdop><extensions><gom:speed>0.024</gom:speed></extensions></trkpt>
   <trkpt lat="59.3255627968" lon="34.7147277683"><ele>162.576</ele><time>2026-08-17T01:40:43.654Z</time><hdop>3.0</hdop><vdop>2.562</vdop><extensions><gom:speed>0.023</gom:speed></extensions></trkpt>
   <trkpt lat="59.3255603661" lon="34.7147276845"><ele>162.6</ele><time>2026-08-17T01:40:44.649Z</time><hdop>3.0</hdop><vdop>2.562</vdop><extensions><gom:speed>0.02</gom:speed></extensions></trkpt>
   <trkpt lat="59.3255586897" lon="34.7147284389"><ele>162.615</ele><time>2026-08-17T01:40:45.648Z</time><hdop>3.0</hdop><vdop>2.75</vdop><extensions><gom:speed>0.026</gom:speed></extensions></trkpt>
   <trkpt lat="59.3255570971" lon="34.7147283551"><ele>162.663</ele><time>2026-08-17T01:40:46.649Z</time><hdop>3.0</hdop><vdop>2.75</vdop><extensions><gom:speed>0.044</gom:speed></extensions></trkpt>
   <trkpt lat="59.3255556722" lon="34.7147291932"><ele>162.693</ele><time>2026-08-17T01:40:47.649Z</time><hdop>3.0</hdop><vdop>2.625</vdop><extensions><gom:speed>0.033</gom:speed></extensions></trkpt>
   <trkpt lat="59.325555295" lon="34.7147284389"><ele>162.713</ele><time>2026-08-17T01:40:48.672Z</time><hdop>3.0</hdop><vdop>2.625</vdop><extensions><gom:speed>0.044</gom:speed></extensions></trkpt>
   <trkpt lat="59.325554373" lon="34.7147290256"><ele>162.668</ele><time>2026-08-17T01:40:49.652Z</time><hdop>3.0</hdop><vdop>2.687</vdop><extensions><gom:speed>0.047</gom:speed></extensions></trkpt>
   <trkpt lat="59.32555299" lon="34.7147294447"><ele>162.641</ele><time>2026-08-17T01:40:50.534Z</time><hdop>3.0</hdop><vdop>2.687</vdop><extensions><gom:speed>0.088</gom:speed></extensions></trkpt>
   <trkpt lat="59.3255519842" lon="34.7147286903"><ele>162.462</ele><time>2026-08-17T01:40:51.650Z</time><hdop>3.0</hdop><vdop>2.687</vdop><extensions><gom:speed>0.153</gom:speed></extensions></trkpt>
   <trkpt lat="59.3255518584" lon="34.7147275169"><ele>162.355</ele><time>2026-08-17T01:40:52.638Z</time><hdop>3.0</hdop><vdop>2.687</vdop><extensions><gom:speed>0.145</gom:speed></extensions></trkpt>
   <trkpt lat="59.3255530738" lon="34.7147292771"><ele>162.622</ele><time>2026-08-17T01:40:53.652Z</time><hdop>3.0</hdop><vdop>2.625</vdop><extensions><gom:speed>0.061</gom:speed></extensions></trkpt>
   <trkpt lat="59.3255539958" lon="34.714731624"><ele>162.828</ele><time>2026-08-17T01:40:54.662Z</time><hdop>3.0</hdop><vdop>2.812</vdop><extensions><gom:speed>0.062</gom:speed></extensions></trkpt>
   <trkpt lat="59.3255544987" lon="34.7147364855"><ele>162.828</ele><time>2026-08-17T01:40:55.652Z</time><hdop>3.0</hdop><vdop>2.875</vdop><extensions><gom:speed>0.071</gom:speed></extensions></trkpt>
   <trkpt lat="59.3255550855" lon="34.7147412632"><ele>163.158</ele><time>2026-08-17T01:40:56.652Z</time><hdop>3.0</hdop><vdop>2.812</vdop><extensions><gom:speed>0.085</gom:speed></extensions></trkpt>
   <trkpt lat="59.3255558817" lon="34.7147468791"><ele>163.646</ele><time>2026-08-17T01:40:57.656Z</time><hdop>3.0</hdop><vdop>2.937</vdop><extensions><gom:speed>0.089</gom:speed></extensions></trkpt>
   <trkpt lat="59.3255575581" lon="34.7147588652"><ele>163.807</ele><time>2026-08-17T01:40:58.649Z</time><hdop>3.0</hdop><vdop>2.812</vdop><extensions><gom:speed>0.096</gom:speed></extensions></trkpt>
   <trkpt lat="59.3255578934" lon="34.7147618827"><ele>163.888</ele><time>2026-08-17T01:40:59.660Z</time><hdop>3.0</hdop><vdop>3.0</vdop><extensions><gom:speed>0.051</gom:speed></extensions></trkpt>
   <trkpt lat="59.3255596955" lon="34.714769594"><ele>163.94</ele><time>2026-08-17T01:41:00.649Z</time><hdop>3.0</hdop><vdop>3.062</vdop><extensions><gom:speed>0.068</gom:speed></extensions></trkpt>
   <trkpt lat="59.3255599889" lon="34.7147721924"><ele>163.969</ele><time>2026-08-17T01:41:01.652Z</time><hdop>3.0</hdop><vdop>3.062</vdop><extensions><gom:speed>0.024</gom:speed></extensions></trkpt>
   <trkpt lat="59.3255609947" lon="34.7147758804"><ele>163.987</ele><time>2026-08-17T01:41:02.654Z</time><hdop>3.0</hdop><vdop>3.0</vdop><extensions><gom:speed>0.017</gom:speed></extensions></trkpt>
   <trkpt lat="59.3255623777" lon="34.7147795685"><ele>163.997</ele><time>2026-08-17T01:41:03.649Z</time><hdop>3.0</hdop><vdop>2.937</vdop><extensions><gom:speed>0.065</gom:speed></extensions></trkpt>
   <trkpt lat="59.3255623777" lon="34.7147808258"><ele>164.001</ele><time>2026-08-17T01:41:04.652Z</time><hdop>3.0</hdop><vdop>2.875</vdop><extensions><gom:speed>0.021</gom:speed></extensions></trkpt>
   <trkpt lat="59.3255628806" lon="34.7147827536"><ele>164.001</ele><time>2026-08-17T01:41:05.649Z</time><hdop>3.0</hdop><vdop>2.812</vdop><extensions><gom:speed>0.088</gom:speed></extensions></trkpt>
   <trkpt lat="59.3255629645" lon="34.7147851844"><ele>164.001</ele><time>2026-08-17T01:41:06.652Z</time><hdop>3.0</hdop><vdop>2.75</vdop><extensions><gom:speed>0.015</gom:speed></extensions></trkpt>
   <trkpt lat="59.3255633835" lon="34.714786274"><ele>164.0</ele><time>2026-08-17T01:41:07.652Z</time><hdop>3.0</hdop><vdop>2.75</vdop><extensions><gom:speed>0.014</gom:speed></extensions></trkpt>
   <trkpt lat="59.3255638865" lon="34.7147863578"><ele>163.999</ele><time>2026-08-17T01:41:08.648Z</time><hdop>3.0</hdop><vdop>2.625</vdop><extensions><gom:speed>0.09</gom:speed></extensions></trkpt>
   <trkpt lat="59.3255638865" lon="34.7147851844"><ele>163.997</ele><time>2026-08-17T01:41:09.652Z</time><hdop>3.0</hdop><vdop>2.562</vdop><extensions><gom:speed>0.019</gom:speed></extensions></trkpt>
   <trkpt lat="59.3255641798" lon="34.7147851844"><ele>163.996</ele><time>2026-08-17T01:41:10.649Z</time><hdop>3.0</hdop><vdop>2.5</vdop><extensions><gom:speed>0.086</gom:speed></extensions></trkpt>
   <trkpt lat="59.3255642636" lon="34.7147848491"><ele>163.994</ele><time>2026-08-17T01:41:11.648Z</time><hdop>3.0</hdop><vdop>2.5</vdop><extensions><gom:speed>0.09</gom:speed></extensions></trkpt>
   <trkpt lat="59.3255641798" lon="34.7147850167"><ele>163.993</ele><time>2026-08-17T01:41:12.509Z</time><hdop>3.0</hdop><vdop>2.5</vdop><extensions><gom:speed>0.076</gom:speed></extensions></trkpt>
   <trkpt lat="59.3255635931" lon="34.7147848491"><ele>163.845</ele><time>2026-08-17T01:41:13.648Z</time><hdop>3.0</hdop><vdop>2.5</vdop><extensions><gom:speed>0.071</gom:speed></extensions></trkpt>
   <trkpt lat="59.325563174" lon="34.7147837594"><ele>163.755</ele><time>2026-08-17T01:41:14.652Z</time><hdop>3.0</hdop><vdop>2.5</vdop><extensions><gom:speed>0.072</gom:speed></extensions></trkpt>
   <trkpt lat="59.3255626711" lon="34.7147834242"><ele>163.701</ele><time>2026-08-17T01:41:15.649Z</time><hdop>3.0</hdop><vdop>2.625</vdop><extensions><gom:speed>0.073</gom:speed></extensions></trkpt>
   <trkpt lat="59.3255623777" lon="34.714782586"><ele>163.665</ele><time>2026-08-17T01:41:16.652Z</time><hdop>3.0</hdop><vdop>2.5</vdop><extensions><gom:speed>0.073</gom:speed></extensions></trkpt>
   <trkpt lat="59.3255619586" lon="34.7147823345"><ele>163.645</ele><time>2026-08-17T01:41:17.649Z</time><hdop>3.0</hdop><vdop>2.5</vdop><extensions><gom:speed>0.072</gom:speed></extensions></trkpt>
   <trkpt lat="59.3255616653" lon="34.714781664"><ele>163.634</ele><time>2026-08-17T01:41:18.652Z</time><hdop>3.0</hdop><vdop>2.5</vdop><extensions><gom:speed>0.073</gom:speed></extensions></trkpt>
   <trkpt lat="59.3255614976" lon="34.714781161"><ele>163.627</ele><time>2026-08-17T01:41:19.651Z</time><hdop>3.0</hdop><vdop>2.5</vdop><extensions><gom:speed>0.07</gom:speed></extensions></trkpt>
   <trkpt lat="59.3255613719" lon="34.714781161"><ele>163.628</ele><time>2026-08-17T01:41:20.649Z</time><hdop>3.0</hdop><vdop>2.562</vdop><extensions><gom:speed>0.067</gom:speed></extensions></trkpt>
   <trkpt lat="59.3255611623" lon="34.7147806581"><ele>163.631</ele><time>2026-08-17T01:41:21.652Z</time><hdop>3.0</hdop><vdop>2.562</vdop><extensions><gom:speed>0.067</gom:speed></extensions></trkpt>
   <trkpt lat="59.3255609947" lon="34.7147806581"><ele>163.632</ele><time>2026-08-17T01:41:22.649Z</time><hdop>3.0</hdop><vdop>2.562</vdop><extensions><gom:speed>0.068</gom:speed></extensions></trkpt>
   <trkpt lat="59.325560869" lon="34.7147800714"><ele>163.636</ele><time>2026-08-17T01:41:23.653Z</time><hdop>3.0</hdop><vdop>2.562</vdop><extensions><gom:speed>0.068</gom:speed></extensions></trkpt>
   <trkpt lat="59.3255607852" lon="34.7147801552"><ele>163.638</ele><time>2026-08-17T01:41:24.649Z</time><hdop>3.0</hdop><vdop>2.687</vdop><extensions><gom:speed>0.126</gom:speed></extensions></trkpt>
   <trkpt lat="59.3255605756" lon="34.7147794847"><ele>163.64</ele><time>2026-08-17T01:41:25.287Z</time><hdop>3.0</hdop><vdop>2.687</vdop><extensions><gom:speed>0.128</gom:speed></extensions></trkpt>
   <trkpt lat="59.3255606594" lon="34.7147780597"><ele>163.743</ele><time>2026-08-17T01:41:26.066Z</time><hdop>3.0</hdop><vdop>2.5</vdop><extensions><gom:speed>0.233</gom:speed></extensions></trkpt>
   <trkpt lat="59.3255607852" lon="34.7147764672"><ele>163.772</ele><time>2026-08-17T01:41:26.653Z</time><hdop>3.0</hdop><vdop>2.5</vdop><extensions><gom:speed>0.238</gom:speed></extensions></trkpt>
   <trkpt lat="59.3255614976" lon="34.7147749584"><ele>163.786</ele><time>2026-08-17T01:41:27.649Z</time><hdop>3.0</hdop><vdop>2.5</vdop><extensions><gom:speed>0.102</gom:speed></extensions></trkpt>
   <trkpt lat="59.3255616653" lon="34.7147745393"><ele>163.878</ele><time>2026-08-17T01:41:28.657Z</time><hdop>3.0</hdop><vdop>2.5</vdop><extensions><gom:speed>0.098</gom:speed></extensions></trkpt>
   <trkpt lat="59.3255620844" lon="34.7147743717"><ele>163.94</ele><time>2026-08-17T01:41:29.668Z</time><hdop>3.0</hdop><vdop>2.5</vdop><extensions><gom:speed>0.083</gom:speed></extensions></trkpt>
   <trkpt lat="59.3255623777" lon="34.7147742879"><ele>163.976</ele><time>2026-08-17T01:41:30.652Z</time><hdop>3.0</hdop><vdop>2.562</vdop><extensions><gom:speed>0.072</gom:speed></extensions></trkpt>
   <trkpt lat="59.3255630902" lon="34.7147743717"><ele>163.996</ele><time>2026-08-17T01:41:31.649Z</time><hdop>3.0</hdop><vdop>2.5</vdop><extensions><gom:speed>0.069</gom:speed></extensions></trkpt>
   <trkpt lat="59.3255633835" lon="34.7147743717"><ele>164.011</ele><time>2026-08-17T01:41:32.649Z</time><hdop>3.0</hdop><vdop>2.5</vdop><extensions><gom:speed>0.065</gom:speed></extensions></trkpt>
   <trkpt lat="59.3255634674" lon="34.7147738688"><ele>164.021</ele><time>2026-08-17T01:41:33.652Z</time><hdop>3.0</hdop><vdop>2.5</vdop><extensions><gom:speed>0.065</gom:speed></extensions></trkpt>
   <trkpt lat="59.3255643894" lon="34.7147734497"><ele>163.933</ele><time>2026-08-17T01:41:34.649Z</time><hdop>3.0</hdop><vdop>2.5</vdop><extensions><gom:speed>0.286</gom:speed></extensions></trkpt>
   <trkpt lat="59.3255653952" lon="34.7147710189"><ele>163.832</ele><time>2026-08-17T01:41:35.652Z</time><hdop>3.0</hdop><vdop>2.5</vdop><extensions><gom:speed>0.329</gom:speed></extensions></trkpt>
   <trkpt lat="59.3255665687" lon="34.7147691749"><ele>164.022</ele><time>2026-08-17T01:41:36.649Z</time><hdop>3.0</hdop><vdop>2.5</vdop><extensions><gom:speed>0.277</gom:speed></extensions></trkpt>
   <trkpt lat="59.3255681612" lon="34.7147667442"><ele>164.149</ele><time>2026-08-17T01:41:37.660Z</time><hdop>3.0</hdop><vdop>2.5</vdop><extensions><gom:speed>0.173</gom:speed></extensions></trkpt>
   <trkpt lat="59.3255727713" lon="34.7147602901"><ele>164.304</ele><time>2026-08-17T01:41:38.649Z</time><hdop>3.0</hdop><vdop>2.5</vdop><extensions><gom:speed>0.163</gom:speed></extensions></trkpt>
   <trkpt lat="59.3255738609" lon="34.7147587814"><ele>164.397</ele><time>2026-08-17T01:41:39.127Z</time><hdop>3.0</hdop><vdop>2.5</vdop><extensions><gom:speed>0.134</gom:speed></extensions></trkpt>
   <trkpt lat="59.325575663" lon="34.7147553448"><ele>164.359</ele><time>2026-08-17T01:41:39.649Z</time><hdop>3.0</hdop><vdop>2.5</vdop><extensions><gom:speed>0.131</gom:speed></extensions></trkpt>
   <trkpt lat="59.3255763755" lon="34.7147524949"><ele>164.336</ele><time>2026-08-17T01:41:40.626Z</time><hdop>3.0</hdop><vdop>2.5</vdop><extensions><gom:speed>0.144</gom:speed></extensions></trkpt>
   <trkpt lat="59.3255802731" lon="34.7147419337"><ele>164.522</ele><time>2026-08-17T01:41:41.649Z</time><hdop>3.0</hdop><vdop>2.5</vdop><extensions><gom:speed>0.165</gom:speed></extensions></trkpt>
   <trkpt lat="59.3255811951" lon="34.7147394192"><ele>164.633</ele><time>2026-08-17T01:41:42.233Z</time><hdop>3.0</hdop><vdop>2.5</vdop><extensions><gom:speed>0.13</gom:speed></extensions></trkpt>
   <trkpt lat="59.3255833744" lon="34.7147337195"><ele>164.753</ele><time>2026-08-17T01:41:42.952Z</time><hdop>3.0</hdop><vdop>2.5</vdop><extensions><gom:speed>0.161</gom:speed></extensions></trkpt>
   <trkpt lat="59.3255864757" lon="34.7147266787"><ele>164.706</ele><time>2026-08-17T01:41:43.649Z</time><hdop>3.0</hdop><vdop>2.5</vdop><extensions><gom:speed>0.215</gom:speed></extensions></trkpt>
   <trkpt lat="59.3255876911" lon="34.7147224877"><ele>164.481</ele><time>2026-08-17T01:41:44.652Z</time><hdop>3.0</hdop><vdop>2.5</vdop><extensions><gom:speed>0.138</gom:speed></extensions></trkpt>
   <trkpt lat="59.3255901637" lon="34.7147127647"><ele>164.373</ele><time>2026-08-17T01:41:45.650Z</time><hdop>3.0</hdop><vdop>2.5</vdop><extensions><gom:speed>0.195</gom:speed></extensions></trkpt>
   <trkpt lat="59.32559096" lon="34.7147087414"><ele>164.157</ele><time>2026-08-17T01:41:46.666Z</time><hdop>3.0</hdop><vdop>2.5</vdop><extensions><gom:speed>0.133</gom:speed></extensions></trkpt>
   <trkpt lat="59.3255915887" lon="34.7147039637"><ele>164.06</ele><time>2026-08-17T01:41:47.652Z</time><hdop>3.0</hdop><vdop>2.5</vdop><extensions><gom:speed>0.077</gom:speed></extensions></trkpt>
   <trkpt lat="59.3255921754" lon="34.7146981802"><ele>164.034</ele><time>2026-08-17T01:41:48.650Z</time><hdop>3.0</hdop><vdop>2.5</vdop><extensions><gom:speed>0.114</gom:speed></extensions></trkpt>
   <trkpt lat="59.3255923849" lon="34.714695498"><ele>164.026</ele><time>2026-08-17T01:41:49.652Z</time><hdop>3.0</hdop><vdop>2.5</vdop><extensions><gom:speed>0.087</gom:speed></extensions></trkpt>
   <trkpt lat="59.3255929717" lon="34.714692732"><ele>164.144</ele><time>2026-08-17T01:41:50.650Z</time><hdop>3.0</hdop><vdop>2.5</vdop><extensions><gom:speed>0.138</gom:speed></extensions></trkpt>
   <trkpt lat="59.3255928878" lon="34.7146920614"><ele>164.501</ele><time>2026-08-17T01:41:51.652Z</time><hdop>3.0</hdop><vdop>2.5</vdop><extensions><gom:speed>0.078</gom:speed></extensions></trkpt>
   <trkpt lat="59.3255931812" lon="34.7146916423"><ele>164.598</ele><time>2026-08-17T01:41:52.652Z</time><hdop>3.062</hdop><vdop>2.5</vdop><extensions><gom:speed>0.093</gom:speed></extensions></trkpt>
   <trkpt lat="59.3255938937" lon="34.7146899659"><ele>164.656</ele><time>2026-08-17T01:41:53.211Z</time><hdop>3.062</hdop><vdop>2.5</vdop><extensions><gom:speed>0.14</gom:speed></extensions></trkpt>
   <trkpt lat="59.3255944804" lon="34.7146873676"><ele>164.65</ele><time>2026-08-17T01:41:54.658Z</time><hdop>3.187</hdop><vdop>2.5</vdop><extensions><gom:speed>0.109</gom:speed></extensions></trkpt>
   <trkpt lat="59.3255958634" lon="34.7146842662"><ele>164.361</ele><time>2026-08-17T01:41:55.649Z</time><hdop>3.25</hdop><vdop>2.5</vdop><extensions><gom:speed>0.163</gom:speed></extensions></trkpt>
   <trkpt lat="59.3255967854" lon="34.7146832604"><ele>164.188</ele><time>2026-08-17T01:41:56.226Z</time><hdop>3.375</hdop><vdop>2.5</vdop><extensions><gom:speed>0.13</gom:speed></extensions></trkpt>
   <trkpt lat="59.3255980846" lon="34.7146809973"><ele>163.825</ele><time>2026-08-17T01:41:57.652Z</time><hdop>3.5</hdop><vdop>2.5</vdop><extensions><gom:speed>0.098</gom:speed></extensions></trkpt>
   <trkpt lat="59.3255984618" lon="34.7146795724"><ele>163.608</ele><time>2026-08-17T01:41:58.533Z</time><hdop>3.625</hdop><vdop>2.5</vdop><extensions><gom:speed>0.149</gom:speed></extensions></trkpt>
   <trkpt lat="59.3255991743" lon="34.7146767225"><ele>163.546</ele><time>2026-08-17T01:41:59.585Z</time><hdop>3.75</hdop><vdop>2.5</vdop><extensions><gom:speed>0.175</gom:speed></extensions></trkpt>
   <trkpt lat="59.3255999706" lon="34.7146747947"><ele>163.471</ele><time>2026-08-17T01:42:00.445Z</time><hdop>3.812</hdop><vdop>2.5</vdop><extensions><gom:speed>0.157</gom:speed></extensions></trkpt>
   <trkpt lat="59.3256008926" lon="34.7146726992"><ele>163.315</ele><time>2026-08-17T01:42:01.345Z</time><hdop>3.875</hdop><vdop>2.5</vdop><extensions><gom:speed>0.193</gom:speed></extensions></trkpt>
   <trkpt lat="59.3256024851" lon="34.7146688435"><ele>163.208</ele><time>2026-08-17T01:42:02.649Z</time><hdop>3.937</hdop><vdop>2.5</vdop><extensions><gom:speed>0.206</gom:speed></extensions></trkpt>
   <trkpt lat="59.3256037843" lon="34.714667251"><ele>163.216</ele><time>2026-08-17T01:42:03.662Z</time><hdop>4.0</hdop><vdop>2.5</vdop><extensions><gom:speed>0.172</gom:speed></extensions></trkpt>
   <trkpt lat="59.3256052931" lon="34.7146647364"><ele>163.144</ele><time>2026-08-17T01:42:04.654Z</time><hdop>4.0</hdop><vdop>2.5</vdop><extensions><gom:speed>0.213</gom:speed></extensions></trkpt>
   <trkpt lat="59.3256049997" lon="34.714662138"><ele>163.1</ele><time>2026-08-17T01:42:05.652Z</time><hdop>4.062</hdop><vdop>2.5</vdop><extensions><gom:speed>0.081</gom:speed></extensions></trkpt>
   <trkpt lat="59.3256050835" lon="34.7146599587"><ele>163.076</ele><time>2026-08-17T01:42:06.652Z</time><hdop>4.0</hdop><vdop>2.5</vdop><extensions><gom:speed>0.071</gom:speed></extensions></trkpt>
   <trkpt lat="59.3256056702" lon="34.7146566898"><ele>163.025</ele><time>2026-08-17T01:42:07.648Z</time><hdop>4.0</hdop><vdop>2.5</vdop><extensions><gom:speed>0.137</gom:speed></extensions></trkpt>
   <trkpt lat="59.3256054607" lon="34.7146552649"><ele>162.906</ele><time>2026-08-17T01:42:08.652Z</time><hdop>4.0</hdop><vdop>2.5</vdop><extensions><gom:speed>0.092</gom:speed></extensions></trkpt>
   <trkpt lat="59.3256050835" lon="34.7146524988"><ele>162.846</ele><time>2026-08-17T01:42:09.652Z</time><hdop>3.875</hdop><vdop>2.5</vdop><extensions><gom:speed>0.105</gom:speed></extensions></trkpt>
   <trkpt lat="59.3256044968" lon="34.7146488946"><ele>162.416</ele><time>2026-08-17T01:42:10.652Z</time><hdop>3.875</hdop><vdop>2.5</vdop><extensions><gom:speed>0.085</gom:speed></extensions></trkpt>
   <trkpt lat="59.3256041615" lon="34.7146443684"><ele>162.174</ele><time>2026-08-17T01:42:11.655Z</time><hdop>3.875</hdop><vdop>2.5</vdop><extensions><gom:speed>0.069</gom:speed></extensions></trkpt>
   <trkpt lat="59.3256033652" lon="34.7146373276"><ele>161.97</ele><time>2026-08-17T01:42:12.649Z</time><hdop>3.875</hdop><vdop>2.5</vdop><extensions><gom:speed>0.1</gom:speed></extensions></trkpt>
   <trkpt lat="59.3256024851" lon="34.7146364894"><ele>161.776</ele><time>2026-08-17T01:42:13.652Z</time><hdop>3.875</hdop><vdop>2.5</vdop><extensions><gom:speed>0.091</gom:speed></extensions></trkpt>
   <trkpt lat="59.3256021918" lon="34.7146326337"><ele>161.862</ele><time>2026-08-17T01:42:14.652Z</time><hdop>3.812</hdop><vdop>2.5</vdop><extensions><gom:speed>0.102</gom:speed></extensions></trkpt>
   <trkpt lat="59.3256017727" lon="34.7146262635"><ele>161.967</ele><time>2026-08-17T01:42:15.649Z</time><hdop>3.687</hdop><vdop>2.5</vdop><extensions><gom:speed>0.118</gom:speed></extensions></trkpt>
   <trkpt lat="59.3256017727" lon="34.7146252576"><ele>162.023</ele><time>2026-08-17T01:42:16.652Z</time><hdop>3.687</hdop><vdop>2.625</vdop><extensions><gom:speed>0.06</gom:speed></extensions></trkpt>
   <trkpt lat="59.3256013955" lon="34.7146220725"><ele>162.169</ele><time>2026-08-17T01:42:17.652Z</time><hdop>3.687</hdop><vdop>2.5</vdop><extensions><gom:speed>0.067</gom:speed></extensions></trkpt>
   <trkpt lat="59.3256010602" lon="34.7146179654"><ele>162.427</ele><time>2026-08-17T01:42:18.652Z</time><hdop>3.687</hdop><vdop>2.5</vdop><extensions><gom:speed>0.062</gom:speed></extensions></trkpt>
   <trkpt lat="59.3256004735" lon="34.714613523"><ele>162.743</ele><time>2026-08-17T01:42:19.652Z</time><hdop>3.75</hdop><vdop>2.5</vdop><extensions><gom:speed>0.097</gom:speed></extensions></trkpt>
   <trkpt lat="59.3256001801" lon="34.714606566"><ele>162.667</ele><time>2026-08-17T01:42:20.659Z</time><hdop>3.812</hdop><vdop>2.5</vdop><extensions><gom:speed>0.139</gom:speed></extensions></trkpt>
   <trkpt lat="59.3255999706" lon="34.7145980165"><ele>162.475</ele><time>2026-08-17T01:42:21.570Z</time><hdop>3.937</hdop><vdop>2.687</vdop><extensions><gom:speed>0.171</gom:speed></extensions></trkpt>
   <trkpt lat="59.3256004735" lon="34.7145953343"><ele>162.361</ele><time>2026-08-17T01:42:22.652Z</time><hdop>4.0</hdop><vdop>2.687</vdop><extensions><gom:speed>0.177</gom:speed></extensions></trkpt>
   <trkpt lat="59.3255999706" lon="34.7145890478"><ele>162.242</ele><time>2026-08-17T01:42:23.634Z</time><hdop>4.0</hdop><vdop>2.937</vdop><extensions><gom:speed>0.193</gom:speed></extensions></trkpt>
   <trkpt lat="59.3255999706" lon="34.7145856951"><ele>162.014</ele><time>2026-08-17T01:42:24.524Z</time><hdop>4.062</hdop><vdop>3.187</vdop><extensions><gom:speed>0.166</gom:speed></extensions></trkpt>
   <trkpt lat="59.325600683" lon="34.7145823423"><ele>161.841</ele><time>2026-08-17T01:42:25.657Z</time><hdop>4.187</hdop><vdop>3.0</vdop><extensions><gom:speed>0.171</gom:speed></extensions></trkpt>
   <trkpt lat="59.3256004735" lon="34.7145758882"><ele>161.724</ele><time>2026-08-17T01:42:26.652Z</time><hdop>4.187</hdop><vdop>3.187</vdop><extensions><gom:speed>0.13</gom:speed></extensions></trkpt>
   <trkpt lat="59.3256003896" lon="34.7145744633"><ele>161.657</ele><time>2026-08-17T01:42:27.652Z</time><hdop>4.312</hdop><vdop>2.937</vdop><extensions><gom:speed>0.081</gom:speed></extensions></trkpt>
   <trkpt lat="59.3255996772" lon="34.7145703562"><ele>161.621</ele><time>2026-08-17T01:42:28.652Z</time><hdop>4.375</hdop><vdop>3.062</vdop><extensions><gom:speed>0.036</gom:speed></extensions></trkpt>
   <trkpt lat="59.325598378" lon="34.7145618905"><ele>161.604</ele><time>2026-08-17T01:42:29.650Z</time><hdop>4.375</hdop><vdop>3.062</vdop><extensions><gom:speed>0.073</gom:speed></extensions></trkpt>
   <trkpt lat="59.3255977913" lon="34.7145584539"><ele>161.598</ele><time>2026-08-17T01:42:30.655Z</time><hdop>4.375</hdop><vdop>3.062</vdop><extensions><gom:speed>0.111</gom:speed></extensions></trkpt>
   <trkpt lat="59.3255974979" lon="34.7145554364"><ele>161.603</ele><time>2026-08-17T01:42:31.652Z</time><hdop>4.375</hdop><vdop>3.125</vdop><extensions><gom:speed>0.015</gom:speed></extensions></trkpt>
   <trkpt lat="59.3255972883" lon="34.7145550173"><ele>161.612</ele><time>2026-08-17T01:42:32.653Z</time><hdop>4.25</hdop><vdop>3.125</vdop><extensions><gom:speed>0.009</gom:speed></extensions></trkpt>
   <trkpt lat="59.3255963663" lon="34.7145499882"><ele>161.628</ele><time>2026-08-17T01:42:33.648Z</time><hdop>4.187</hdop><vdop>3.125</vdop><extensions><gom:speed>0.093</gom:speed></extensions></trkpt>
   <trkpt lat="59.3255951929" lon="34.7145464678"><ele>161.647</ele><time>2026-08-17T01:42:34.649Z</time><hdop>4.125</hdop><vdop>2.937</vdop><extensions><gom:speed>0.105</gom:speed></extensions></trkpt>
   <trkpt lat="59.32559469" lon="34.7145451267"><ele>161.668</ele><time>2026-08-17T01:42:35.649Z</time><hdop>4.0</hdop><vdop>2.75</vdop><extensions><gom:speed>0.1</gom:speed></extensions></trkpt>
   <trkpt lat="59.3255945642" lon="34.7145435341"><ele>161.69</ele><time>2026-08-17T01:42:36.649Z</time><hdop>4.0</hdop><vdop>2.75</vdop><extensions><gom:speed>0.062</gom:speed></extensions></trkpt>
   <trkpt lat="59.3255952767" lon="34.7145416901"><ele>161.711</ele><time>2026-08-17T01:42:37.652Z</time><hdop>4.0</hdop><vdop>2.625</vdop><extensions><gom:speed>0.012</gom:speed></extensions></trkpt>
   <trkpt lat="59.3255948995" lon="34.7145371638"><ele>161.731</ele><time>2026-08-17T01:42:38.649Z</time><hdop>4.0</hdop><vdop>2.625</vdop><extensions><gom:speed>0.091</gom:speed></extensions></trkpt>
   <trkpt lat="59.3255949833" lon="34.7145360742"><ele>161.75</ele><time>2026-08-17T01:42:39.652Z</time><hdop>4.0</hdop><vdop>2.5</vdop><extensions><gom:speed>0.011</gom:speed></extensions></trkpt>
   <trkpt lat="59.3255942709" lon="34.7145331405"><ele>161.761</ele><time>2026-08-17T01:42:40.649Z</time><hdop>4.0</hdop><vdop>2.5</vdop><extensions><gom:speed>0.103</gom:speed></extensions></trkpt>
   <trkpt lat="59.3255940613" lon="34.71453247"><ele>161.773</ele><time>2026-08-17T01:42:41.649Z</time><hdop>4.062</hdop><vdop>2.5</vdop><extensions><gom:speed>0.109</gom:speed></extensions></trkpt>
   <trkpt lat="59.3255950671" lon="34.7145322185"><ele>161.787</ele><time>2026-08-17T01:42:42.655Z</time><hdop>4.062</hdop><vdop>2.5</vdop><extensions><gom:speed>0.018</gom:speed></extensions></trkpt>
   <trkpt lat="59.3255949833" lon="34.7145314642"><ele>161.803</ele><time>2026-08-17T01:42:43.652Z</time><hdop>4.062</hdop><vdop>2.5</vdop><extensions><gom:speed>0.018</gom:speed></extensions></trkpt>
   <trkpt lat="59.32559469" lon="34.7145304583"><ele>161.821</ele><time>2026-08-17T01:42:44.649Z</time><hdop>4.062</hdop><vdop>2.5</vdop><extensions><gom:speed>0.014</gom:speed></extensions></trkpt>
   <trkpt lat="59.3255944804" lon="34.7145296201"><ele>161.837</ele><time>2026-08-17T01:42:45.648Z</time><hdop>4.0</hdop><vdop>2.562</vdop><extensions><gom:speed>0.025</gom:speed></extensions></trkpt>
   <trkpt lat="59.3255942709" lon="34.7145290334"><ele>161.852</ele><time>2026-08-17T01:42:46.652Z</time><hdop>4.0</hdop><vdop>2.562</vdop><extensions><gom:speed>0.026</gom:speed></extensions></trkpt>
   <trkpt lat="59.325594187" lon="34.7145281952"><ele>161.864</ele><time>2026-08-17T01:42:47.653Z</time><hdop>4.0</hdop><vdop>2.5</vdop><extensions><gom:speed>0.033</gom:speed></extensions></trkpt>
   <trkpt lat="59.3255937679" lon="34.7145268541"><ele>161.873</ele><time>2026-08-17T01:42:48.649Z</time><hdop>3.875</hdop><vdop>2.5</vdop><extensions><gom:speed>0.048</gom:speed></extensions></trkpt>
   <trkpt lat="59.3255935584" lon="34.7145259321"><ele>161.882</ele><time>2026-08-17T01:42:49.652Z</time><hdop>3.875</hdop><vdop>2.5</vdop><extensions><gom:speed>0.048</gom:speed></extensions></trkpt>
   <trkpt lat="59.3255934746" lon="34.7145249263"><ele>161.894</ele><time>2026-08-17T01:42:50.652Z</time><hdop>3.812</hdop><vdop>2.562</vdop><extensions><gom:speed>0.054</gom:speed></extensions></trkpt>
   <trkpt lat="59.325593265" lon="34.7145238366"><ele>161.906</ele><time>2026-08-17T01:42:51.652Z</time><hdop>3.812</hdop><vdop>2.562</vdop><extensions><gom:speed>0.059</gom:speed></extensions></trkpt>
   <trkpt lat="59.3255929717" lon="34.714522747"><ele>161.919</ele><time>2026-08-17T01:42:52.652Z</time><hdop>3.75</hdop><vdop>2.625</vdop><extensions><gom:speed>0.064</gom:speed></extensions></trkpt>
   <trkpt lat="59.3255925945" lon="34.7145216573"><ele>161.93</ele><time>2026-08-17T01:42:53.649Z</time><hdop>3.687</hdop><vdop>2.625</vdop><extensions><gom:speed>0.072</gom:speed></extensions></trkpt>
   <trkpt lat="59.3255924688" lon="34.7145205677"><ele>161.938</ele><time>2026-08-17T01:42:54.652Z</time><hdop>3.687</hdop><vdop>2.562</vdop><extensions><gom:speed>0.072</gom:speed></extensions></trkpt>
   <trkpt lat="59.3255921754" lon="34.7145195619"><ele>161.945</ele><time>2026-08-17T01:42:55.649Z</time><hdop>3.687</hdop><vdop>2.5</vdop><extensions><gom:speed>0.079</gom:speed></extensions></trkpt>
   <trkpt lat="59.3255920916" lon="34.714518556"><ele>161.949</ele><time>2026-08-17T01:42:56.658Z</time><hdop>3.625</hdop><vdop>2.5</vdop><extensions><gom:speed>0.08</gom:speed></extensions></trkpt>
   <trkpt lat="59.325591882" lon="34.7145177178"><ele>161.953</ele><time>2026-08-17T01:42:57.652Z</time><hdop>3.625</hdop><vdop>2.5</vdop><extensions><gom:speed>0.083</gom:speed></extensions></trkpt>
   <trkpt lat="59.3255917982" lon="34.7145168796"><ele>161.957</ele><time>2026-08-17T01:42:58.652Z</time><hdop>3.687</hdop><vdop>2.562</vdop><extensions><gom:speed>0.086</gom:speed></extensions></trkpt>
   <trkpt lat="59.3255914629" lon="34.7145159576"><ele>161.958</ele><time>2026-08-17T01:42:59.649Z</time><hdop>3.687</hdop><vdop>2.625</vdop><extensions><gom:speed>0.091</gom:speed></extensions></trkpt>
   <trkpt lat="59.3255913791" lon="34.7145150356"><ele>161.957</ele><time>2026-08-17T01:43:00.652Z</time><hdop>3.687</hdop><vdop>2.625</vdop><extensions><gom:speed>0.091</gom:speed></extensions></trkpt>
   <trkpt lat="59.3255911696" lon="34.7145142813"><ele>161.957</ele><time>2026-08-17T01:43:01.655Z</time><hdop>3.687</hdop><vdop>2.625</vdop><extensions><gom:speed>0.092</gom:speed></extensions></trkpt>
   <trkpt lat="59.3255910857" lon="34.7145134431"><ele>161.959</ele><time>2026-08-17T01:43:02.667Z</time><hdop>3.75</hdop><vdop>2.687</vdop><extensions><gom:speed>0.095</gom:speed></extensions></trkpt>
   <trkpt lat="59.32559096" lon="34.714513024"><ele>161.96</ele><time>2026-08-17T01:43:03.648Z</time><hdop>3.75</hdop><vdop>2.75</vdop><extensions><gom:speed>0.097</gom:speed></extensions></trkpt>
   <trkpt lat="59.32559096" lon="34.7145122696"><ele>161.958</ele><time>2026-08-17T01:43:04.652Z</time><hdop>3.812</hdop><vdop>2.812</vdop><extensions><gom:speed>0.098</gom:speed></extensions></trkpt>
   <trkpt lat="59.32559096" lon="34.7145116829"><ele>161.958</ele><time>2026-08-17T01:43:05.652Z</time><hdop>3.812</hdop><vdop>2.75</vdop><extensions><gom:speed>0.097</gom:speed></extensions></trkpt>
   <trkpt lat="59.32559096" lon="34.7145112638"><ele>161.958</ele><time>2026-08-17T01:43:06.653Z</time><hdop>3.875</hdop><vdop>2.75</vdop><extensions><gom:speed>0.097</gom:speed></extensions></trkpt>
   <trkpt lat="59.3255908762" lon="34.7145109285"><ele>161.959</ele><time>2026-08-17T01:43:07.652Z</time><hdop>3.875</hdop><vdop>2.75</vdop><extensions><gom:speed>0.096</gom:speed></extensions></trkpt>
   <trkpt lat="59.3255908762" lon="34.714510677"><ele>161.96</ele><time>2026-08-17T01:43:08.652Z</time><hdop>3.937</hdop><vdop>2.812</vdop><extensions><gom:speed>0.098</gom:speed></extensions></trkpt>
   <trkpt lat="59.3255908762" lon="34.7145109285"><ele>161.961</ele><time>2026-08-17T01:43:09.648Z</time><hdop>3.937</hdop><vdop>2.75</vdop><extensions><gom:speed>0.103</gom:speed></extensions></trkpt>
   <trkpt lat="59.3255908762" lon="34.7145104256"><ele>161.961</ele><time>2026-08-17T01:43:10.660Z</time><hdop>4.0</hdop><vdop>2.687</vdop><extensions><gom:speed>0.103</gom:speed></extensions></trkpt>
   <trkpt lat="59.3255908762" lon="34.7145101741"><ele>161.968</ele><time>2026-08-17T01:43:11.652Z</time><hdop>4.0</hdop><vdop>2.687</vdop><extensions><gom:speed>0.105</gom:speed></extensions></trkpt>
   <trkpt lat="59.3255908762" lon="34.7145104256"><ele>161.972</ele><time>2026-08-17T01:43:12.649Z</time><hdop>4.0</hdop><vdop>2.75</vdop><extensions><gom:speed>0.102</gom:speed></extensions></trkpt>
   <trkpt lat="59.3255908762" lon="34.7145100903"><ele>161.979</ele><time>2026-08-17T01:43:13.796Z</time><hdop>4.062</hdop><vdop>2.75</vdop><extensions><gom:speed>0.102</gom:speed></extensions></trkpt>
   <trkpt lat="59.3255907924" lon="34.7145105932"><ele>161.986</ele><time>2026-08-17T01:43:14.649Z</time><hdop>4.062</hdop><vdop>2.75</vdop><extensions><gom:speed>0.105</gom:speed></extensions></trkpt>
   <trkpt lat="59.3255907924" lon="34.7145101741"><ele>161.997</ele><time>2026-08-17T01:43:15.652Z</time><hdop>4.062</hdop><vdop>2.75</vdop><extensions><gom:speed>0.105</gom:speed></extensions></trkpt>
   <trkpt lat="59.3255907924" lon="34.7145100903"><ele>162.011</ele><time>2026-08-17T01:43:16.652Z</time><hdop>4.125</hdop><vdop>2.75</vdop><extensions><gom:speed>0.106</gom:speed></extensions></trkpt>
   <trkpt lat="59.3255907924" lon="34.7145100903"><ele>162.023</ele><time>2026-08-17T01:43:17.652Z</time><hdop>4.125</hdop><vdop>2.812</vdop><extensions><gom:speed>0.107</gom:speed></extensions></trkpt>
   <trkpt lat="59.3255906666" lon="34.7145100903"><ele>162.035</ele><time>2026-08-17T01:43:18.652Z</time><hdop>4.187</hdop><vdop>2.812</vdop><extensions><gom:speed>0.105</gom:speed></extensions></trkpt>
   <trkpt lat="59.3255906666" lon="34.7145100903"><ele>162.049</ele><time>2026-08-17T01:43:19.664Z</time><hdop>4.187</hdop><vdop>2.75</vdop><extensions><gom:speed>0.106</gom:speed></extensions></trkpt>
   <trkpt lat="59.3255906666" lon="34.7145101741"><ele>162.027</ele><time>2026-08-17T01:43:20.652Z</time><hdop>4.25</hdop><vdop>2.812</vdop><extensions><gom:speed>0.106</gom:speed></extensions></trkpt>
   <trkpt lat="59.3255913791" lon="34.7145086654"><ele>162.023</ele><time>2026-08-17T01:43:21.649Z</time><hdop>4.375</hdop><vdop>2.812</vdop><extensions><gom:speed>0.192</gom:speed></extensions></trkpt>
   <trkpt lat="59.3255921754" lon="34.7145073243"><ele>162.026</ele><time>2026-08-17T01:43:22.648Z</time><hdop>4.437</hdop><vdop>2.75</vdop><extensions><gom:speed>0.185</gom:speed></extensions></trkpt>
   <trkpt lat="59.3255926783" lon="34.7145072405"><ele>162.037</ele><time>2026-08-17T01:43:23.649Z</time><hdop>4.562</hdop><vdop>2.625</vdop><extensions><gom:speed>0.169</gom:speed></extensions></trkpt>
   <trkpt lat="59.325593265" lon="34.7145076595"><ele>162.365</ele><time>2026-08-17T01:43:24.649Z</time><hdop>4.812</hdop><vdop>2.562</vdop><extensions><gom:speed>0.315</gom:speed></extensions></trkpt>
   <trkpt lat="59.3255937679" lon="34.7145058993"><ele>162.567</ele><time>2026-08-17T01:43:25.654Z</time><hdop>4.937</hdop><vdop>2.562</vdop><extensions><gom:speed>0.344</gom:speed></extensions></trkpt>
   <trkpt lat="59.3255949833" lon="34.7145066537"><ele>162.695</ele><time>2026-08-17T01:43:26.649Z</time><hdop>5.125</hdop><vdop>2.562</vdop><extensions><gom:speed>0.204</gom:speed></extensions></trkpt>
   <trkpt lat="59.3255955701" lon="34.7145068214"><ele>162.773</ele><time>2026-08-17T01:43:27.652Z</time><hdop>5.25</hdop><vdop>2.5</vdop><extensions><gom:speed>0.192</gom:speed></extensions></trkpt>
   <trkpt lat="59.325596995" lon="34.7145093359"><ele>162.825</ele><time>2026-08-17T01:43:28.649Z</time><hdop>5.187</hdop><vdop>2.5</vdop><extensions><gom:speed>0.161</gom:speed></extensions></trkpt>
   <trkpt lat="59.3255978751" lon="34.7145107609"><ele>162.858</ele><time>2026-08-17T01:43:29.649Z</time><hdop>5.312</hdop><vdop>2.5</vdop><extensions><gom:speed>0.148</gom:speed></extensions></trkpt>
   <trkpt lat="59.3255985875" lon="34.7145117667"><ele>162.878</ele><time>2026-08-17T01:43:30.650Z</time><hdop>5.187</hdop><vdop>2.5</vdop><extensions><gom:speed>0.137</gom:speed></extensions></trkpt>
   <trkpt lat="59.3255991743" lon="34.7145123534"><ele>162.893</ele><time>2026-08-17T01:43:31.648Z</time><hdop>5.125</hdop><vdop>2.5</vdop><extensions><gom:speed>0.128</gom:speed></extensions></trkpt>
   <trkpt lat="59.3255995934" lon="34.7145124372"><ele>162.903</ele><time>2026-08-17T01:43:32.652Z</time><hdop>5.062</hdop><vdop>2.5</vdop><extensions><gom:speed>0.128</gom:speed></extensions></trkpt>
   <trkpt lat="59.3256000963" lon="34.7145137783"><ele>162.91</ele><time>2026-08-17T01:43:33.649Z</time><hdop>4.937</hdop><vdop>2.5</vdop><extensions><gom:speed>0.112</gom:speed></extensions></trkpt>
   <trkpt lat="59.3256004735" lon="34.7145142813"><ele>162.915</ele><time>2026-08-17T01:43:34.659Z</time><hdop>4.937</hdop><vdop>2.5</vdop><extensions><gom:speed>0.112</gom:speed></extensions></trkpt>
   <trkpt lat="59.3256009764" lon="34.7145146165"><ele>162.922</ele><time>2026-08-17T01:43:35.648Z</time><hdop>4.812</hdop><vdop>2.5</vdop><extensions><gom:speed>0.11</gom:speed></extensions></trkpt>
   <trkpt lat="59.3256015631" lon="34.7145147842"><ele>163.06</ele><time>2026-08-17T01:43:36.649Z</time><hdop>4.687</hdop><vdop>2.5</vdop><extensions><gom:speed>0.189</gom:speed></extensions></trkpt>
   <trkpt lat="59.3256021918" lon="34.7145146165"><ele>163.15</ele><time>2026-08-17T01:43:37.652Z</time><hdop>4.625</hdop><vdop>2.5</vdop><extensions><gom:speed>0.198</gom:speed></extensions></trkpt>
   <trkpt lat="59.3256027785" lon="34.7145147842"><ele>163.208</ele><time>2026-08-17T01:43:38.652Z</time><hdop>4.687</hdop><vdop>2.5</vdop><extensions><gom:speed>0.189</gom:speed></extensions></trkpt>
   <trkpt lat="59.325603491" lon="34.7145150356"><ele>163.244</ele><time>2026-08-17T01:43:39.657Z</time><hdop>4.687</hdop><vdop>2.5</vdop><extensions><gom:speed>0.174</gom:speed></extensions></trkpt>
   <trkpt lat="59.3256039939" lon="34.7145152871"><ele>163.266</ele><time>2026-08-17T01:43:40.649Z</time><hdop>4.75</hdop><vdop>2.5</vdop><extensions><gom:speed>0.16</gom:speed></extensions></trkpt>
   <trkpt lat="59.3256043711" lon="34.7145152871"><ele>163.28</ele><time>2026-08-17T01:43:41.652Z</time><hdop>4.875</hdop><vdop>2.5</vdop><extensions><gom:speed>0.159</gom:speed></extensions></trkpt>
   <trkpt lat="59.325604874" lon="34.7145158738"><ele>163.29</ele><time>2026-08-17T01:43:42.650Z</time><hdop>4.875</hdop><vdop>2.5</vdop><extensions><gom:speed>0.135</gom:speed></extensions></trkpt>
   <trkpt lat="59.3256053769" lon="34.7145164605"><ele>163.297</ele><time>2026-08-17T01:43:43.649Z</time><hdop>4.875</hdop><vdop>2.5</vdop><extensions><gom:speed>0.128</gom:speed></extensions></trkpt>
   <trkpt lat="59.3256056702" lon="34.7145166282"><ele>163.303</ele><time>2026-08-17T01:43:44.652Z</time><hdop>4.875</hdop><vdop>2.5</vdop><extensions><gom:speed>0.128</gom:speed></extensions></trkpt>
   <trkpt lat="59.3256061732" lon="34.7145172987"><ele>163.307</ele><time>2026-08-17T01:43:45.649Z</time><hdop>4.812</hdop><vdop>2.5</vdop><extensions><gom:speed>0.117</gom:speed></extensions></trkpt>
   <trkpt lat="59.3256064665" lon="34.7145174664"><ele>163.318</ele><time>2026-08-17T01:43:46.657Z</time><hdop>4.75</hdop><vdop>2.5</vdop><extensions><gom:speed>0.117</gom:speed></extensions></trkpt>
   <trkpt lat="59.3256066761" lon="34.7145177178"><ele>163.328</ele><time>2026-08-17T01:43:47.653Z</time><hdop>4.75</hdop><vdop>2.5</vdop><extensions><gom:speed>0.116</gom:speed></extensions></trkpt>
   <trkpt lat="59.3256068856" lon="34.7145181369"><ele>163.337</ele><time>2026-08-17T01:43:48.661Z</time><hdop>4.75</hdop><vdop>2.5</vdop><extensions><gom:speed>0.115</gom:speed></extensions></trkpt>
   <trkpt lat="59.325607179" lon="34.7145187237"><ele>163.346</ele><time>2026-08-17T01:43:49.672Z</time><hdop>4.75</hdop><vdop>2.5</vdop><extensions><gom:speed>0.114</gom:speed></extensions></trkpt>
   <trkpt lat="59.325607179" lon="34.7145190589"><ele>163.352</ele><time>2026-08-17T01:43:50.649Z</time><hdop>4.625</hdop><vdop>2.5</vdop><extensions><gom:speed>0.11</gom:speed></extensions></trkpt>
   <trkpt lat="59.3256072628" lon="34.7145189751"><ele>163.362</ele><time>2026-08-17T01:43:51.652Z</time><hdop>4.625</hdop><vdop>2.5</vdop><extensions><gom:speed>0.11</gom:speed></extensions></trkpt>
   <trkpt lat="59.325607179" lon="34.7145192266"><ele>163.37</ele><time>2026-08-17T01:43:52.648Z</time><hdop>4.562</hdop><vdop>2.5</vdop><extensions><gom:speed>0.111</gom:speed></extensions></trkpt>
   <trkpt lat="59.3256073885" lon="34.7145192266"><ele>163.378</ele><time>2026-08-17T01:43:53.652Z</time><hdop>4.5</hdop><vdop>2.5</vdop><extensions><gom:speed>0.111</gom:speed></extensions></trkpt>
   <trkpt lat="59.3256074724" lon="34.714519478"><ele>163.385</ele><time>2026-08-17T01:43:54.652Z</time><hdop>4.437</hdop><vdop>2.5</vdop><extensions><gom:speed>0.11</gom:speed></extensions></trkpt>
   <trkpt lat="59.3256074724" lon="34.7145196457"><ele>163.39</ele><time>2026-08-17T01:43:55.652Z</time><hdop>4.437</hdop><vdop>2.5</vdop><extensions><gom:speed>0.108</gom:speed></extensions></trkpt>
   <trkpt lat="59.3256075981" lon="34.7145199809"><ele>163.395</ele><time>2026-08-17T01:43:56.653Z</time><hdop>4.5</hdop><vdop>2.5</vdop><extensions><gom:speed>0.104</gom:speed></extensions></trkpt>
   <trkpt lat="59.3256075981" lon="34.7145203162"><ele>163.408</ele><time>2026-08-17T01:43:57.648Z</time><hdop>4.5</hdop><vdop>2.5</vdop><extensions><gom:speed>0.102</gom:speed></extensions></trkpt>
   <trkpt lat="59.3256075981" lon="34.7145204839"><ele>163.415</ele><time>2026-08-17T01:43:58.652Z</time><hdop>4.5</hdop><vdop>2.5</vdop><extensions><gom:speed>0.102</gom:speed></extensions></trkpt>
   <trkpt lat="59.3256077657" lon="34.7145205677"><ele>163.42</ele><time>2026-08-17T01:43:59.652Z</time><hdop>4.562</hdop><vdop>2.5</vdop><extensions><gom:speed>0.101</gom:speed></extensions></trkpt>
   <trkpt lat="59.3256077657" lon="34.7145206515"><ele>163.425</ele><time>2026-08-17T01:44:00.652Z</time><hdop>4.562</hdop><vdop>2.5</vdop><extensions><gom:speed>0.101</gom:speed></extensions></trkpt>
   <trkpt lat="59.3256078915" lon="34.7145207353"><ele>163.43</ele><time>2026-08-17T01:44:01.692Z</time><hdop>4.562</hdop><vdop>2.5</vdop><extensions><gom:speed>0.102</gom:speed></extensions></trkpt>
   <trkpt lat="59.3256077657" lon="34.7145208191"><ele>163.436</ele><time>2026-08-17T01:44:02.649Z</time><hdop>4.562</hdop><vdop>2.5</vdop><extensions><gom:speed>0.101</gom:speed></extensions></trkpt>
   <trkpt lat="59.3256078915" lon="34.7145208191"><ele>163.44</ele><time>2026-08-17T01:44:03.652Z</time><hdop>4.562</hdop><vdop>2.5</vdop><extensions><gom:speed>0.1</gom:speed></extensions></trkpt>
   <trkpt lat="59.3256076819" lon="34.714521825"><ele>163.453</ele><time>2026-08-17T01:44:04.650Z</time><hdop>4.562</hdop><vdop>2.5</vdop><extensions><gom:speed>0.101</gom:speed></extensions></trkpt>
   <trkpt lat="59.3256077657" lon="34.7145220764"><ele>163.463</ele><time>2026-08-17T01:44:05.652Z</time><hdop>4.562</hdop><vdop>2.5</vdop><extensions><gom:speed>0.101</gom:speed></extensions></trkpt>
   <trkpt lat="59.3256077657" lon="34.7145221602"><ele>163.472</ele><time>2026-08-17T01:44:06.652Z</time><hdop>4.562</hdop><vdop>2.5</vdop><extensions><gom:speed>0.102</gom:speed></extensions></trkpt>
   <trkpt lat="59.3256077657" lon="34.7145221602"><ele>163.478</ele><time>2026-08-17T01:44:07.661Z</time><hdop>4.562</hdop><vdop>2.5</vdop><extensions><gom:speed>0.1</gom:speed></extensions></trkpt>
   <trkpt lat="59.3256077657" lon="34.7145221602"><ele>163.482</ele><time>2026-08-17T01:44:08.653Z</time><hdop>4.562</hdop><vdop>2.5</vdop><extensions><gom:speed>0.099</gom:speed></extensions></trkpt>
   <trkpt lat="59.3256076819" lon="34.714521825"><ele>163.489</ele><time>2026-08-17T01:44:09.649Z</time><hdop>4.5</hdop><vdop>2.5</vdop><extensions><gom:speed>0.101</gom:speed></extensions></trkpt>
   <trkpt lat="59.3256077657" lon="34.714521825"><ele>163.492</ele><time>2026-08-17T01:44:10.657Z</time><hdop>4.562</hdop><vdop>2.5</vdop><extensions><gom:speed>0.101</gom:speed></extensions></trkpt>
   <trkpt lat="59.3256077657" lon="34.714521825"><ele>163.492</ele><time>2026-08-17T01:44:11.652Z</time><hdop>4.5</hdop><vdop>2.5</vdop><extensions><gom:speed>0.103</gom:speed></extensions></trkpt>
   <trkpt lat="59.3256077657" lon="34.7145219926"><ele>163.49</ele><time>2026-08-17T01:44:12.659Z</time><hdop>4.5</hdop><vdop>2.5</vdop><extensions><gom:speed>0.102</gom:speed></extensions></trkpt>
   <trkpt lat="59.3256076819" lon="34.7145220764"><ele>163.488</ele><time>2026-08-17T01:44:13.671Z</time><hdop>4.5</hdop><vdop>2.5</vdop><extensions><gom:speed>0.102</gom:speed></extensions></trkpt>
   <trkpt lat="59.3256076819" lon="34.7145221602"><ele>163.487</ele><time>2026-08-17T01:44:14.652Z</time><hdop>4.5</hdop><vdop>2.5</vdop><extensions><gom:speed>0.103</gom:speed></extensions></trkpt>
   <trkpt lat="59.3256075981" lon="34.7145221602"><ele>163.487</ele><time>2026-08-17T01:44:15.652Z</time><hdop>4.562</hdop><vdop>2.5</vdop><extensions><gom:speed>0.105</gom:speed></extensions></trkpt>
   <trkpt lat="59.3256076819" lon="34.7145223279"><ele>163.334</ele><time>2026-08-17T01:44:16.649Z</time><hdop>4.562</hdop><vdop>2.5</vdop><extensions><gom:speed>0.107</gom:speed></extensions></trkpt>
   <trkpt lat="59.3256076819" lon="34.7145223279"><ele>163.268</ele><time>2026-08-17T01:44:17.657Z</time><hdop>4.562</hdop><vdop>2.5</vdop><extensions><gom:speed>0.107</gom:speed></extensions></trkpt>
   <trkpt lat="59.3256077657" lon="34.7145226632"><ele>163.236</ele><time>2026-08-17T01:44:18.652Z</time><hdop>4.562</hdop><vdop>2.5</vdop><extensions><gom:speed>0.19</gom:speed></extensions></trkpt>
   <trkpt lat="59.325608562" lon="34.7145224955"><ele>163.225</ele><time>2026-08-17T01:44:19.652Z</time><hdop>4.625</hdop><vdop>2.5</vdop><extensions><gom:speed>0.19</gom:speed></extensions></trkpt>
   <trkpt lat="59.3256090649" lon="34.7145231661"><ele>163.222</ele><time>2026-08-17T01:44:20.650Z</time><hdop>4.625</hdop><vdop>2.5</vdop><extensions><gom:speed>0.172</gom:speed></extensions></trkpt>
   <trkpt lat="59.3256092745" lon="34.7145232499"><ele>163.224</ele><time>2026-08-17T01:44:21.664Z</time><hdop>4.75</hdop><vdop>2.5</vdop><extensions><gom:speed>0.172</gom:speed></extensions></trkpt>
   <trkpt lat="59.3256096936" lon="34.7145240881"><ele>163.23</ele><time>2026-08-17T01:44:22.649Z</time><hdop>4.812</hdop><vdop>2.5</vdop><extensions><gom:speed>0.157</gom:speed></extensions></trkpt>
   <trkpt lat="59.3256098612" lon="34.714524591"><ele>163.234</ele><time>2026-08-17T01:44:23.648Z</time><hdop>4.812</hdop><vdop>2.5</vdop><extensions><gom:speed>0.147</gom:speed></extensions></trkpt>
   <trkpt lat="59.3256100707" lon="34.7145246748"><ele>163.237</ele><time>2026-08-17T01:44:24.652Z</time><hdop>4.875</hdop><vdop>2.5</vdop><extensions><gom:speed>0.137</gom:speed></extensions></trkpt>
   <trkpt lat="59.3256103641" lon="34.7145235852"><ele>163.243</ele><time>2026-08-17T01:44:25.649Z</time><hdop>4.937</hdop><vdop>2.5</vdop><extensions><gom:speed>0.188</gom:speed></extensions></trkpt>
   <trkpt lat="59.3256107832" lon="34.7145228308"><ele>163.251</ele><time>2026-08-17T01:44:26.652Z</time><hdop>5.0</hdop><vdop>2.5</vdop><extensions><gom:speed>0.194</gom:speed></extensions></trkpt>
   <trkpt lat="59.3256112861" lon="34.7145233337"><ele>163.26</ele><time>2026-08-17T01:44:27.653Z</time><hdop>5.0</hdop><vdop>2.5</vdop><extensions><gom:speed>0.185</gom:speed></extensions></trkpt>
   <trkpt lat="59.3256116633" lon="34.7145240881"><ele>163.268</ele><time>2026-08-17T01:44:28.652Z</time><hdop>5.125</hdop><vdop>2.5</vdop><extensions><gom:speed>0.174</gom:speed></extensions></trkpt>
   <trkpt lat="59.3256119986" lon="34.7145243395"><ele>163.276</ele><time>2026-08-17T01:44:29.657Z</time><hdop>5.125</hdop><vdop>2.5</vdop><extensions><gom:speed>0.162</gom:speed></extensions></trkpt>
   <trkpt lat="59.325612292" lon="34.7145251777"><ele>163.638</ele><time>2026-08-17T01:44:30.649Z</time><hdop>5.125</hdop><vdop>2.5</vdop><extensions><gom:speed>0.202</gom:speed></extensions></trkpt>
   <trkpt lat="59.3256126691" lon="34.7145257645"><ele>163.858</ele><time>2026-08-17T01:44:31.652Z</time><hdop>5.125</hdop><vdop>2.5</vdop><extensions><gom:speed>0.208</gom:speed></extensions></trkpt>
   <trkpt lat="59.3256128787" lon="34.7145267703"><ele>163.99</ele><time>2026-08-17T01:44:32.653Z</time><hdop>5.125</hdop><vdop>2.5</vdop><extensions><gom:speed>0.198</gom:speed></extensions></trkpt>
   <trkpt lat="59.3256128787" lon="34.7145279438"><ele>164.069</ele><time>2026-08-17T01:44:33.649Z</time><hdop>5.062</hdop><vdop>2.5</vdop><extensions><gom:speed>0.164</gom:speed></extensions></trkpt>
   <trkpt lat="59.3256130882" lon="34.7145280276"><ele>164.126</ele><time>2026-08-17T01:44:34.653Z</time><hdop>5.062</hdop><vdop>2.5</vdop><extensions><gom:speed>0.163</gom:speed></extensions></trkpt>
   <trkpt lat="59.3256133816" lon="34.7145286981"><ele>164.161</ele><time>2026-08-17T01:44:35.649Z</time><hdop>5.062</hdop><vdop>2.5</vdop><extensions><gom:speed>0.143</gom:speed></extensions></trkpt>
   <trkpt lat="59.3256135911" lon="34.7145292849"><ele>164.189</ele><time>2026-08-17T01:44:36.649Z</time><hdop>5.0</hdop><vdop>2.5</vdop><extensions><gom:speed>0.217</gom:speed></extensions></trkpt>
   <trkpt lat="59.3256137588" lon="34.7145299554"><ele>164.206</ele><time>2026-08-17T01:44:37.386Z</time><hdop>5.0</hdop><vdop>2.5</vdop><extensions><gom:speed>0.237</gom:speed></extensions></trkpt>
   <trkpt lat="59.3256134654" lon="34.714530626"><ele>164.214</ele><time>2026-08-17T01:44:38.145Z</time><hdop>5.062</hdop><vdop>2.5</vdop><extensions><gom:speed>0.313</gom:speed></extensions></trkpt>
   <trkpt lat="59.3256135911" lon="34.7145313803"><ele>164.078</ele><time>2026-08-17T01:44:38.652Z</time><hdop>5.125</hdop><vdop>2.625</vdop><extensions><gom:speed>0.348</gom:speed></extensions></trkpt>
   <trkpt lat="59.3256140941" lon="34.7145316318"><ele>163.996</ele><time>2026-08-17T01:44:39.330Z</time><hdop>5.187</hdop><vdop>2.625</vdop><extensions><gom:speed>0.308</gom:speed></extensions></trkpt>
   <trkpt lat="59.3256150999" lon="34.7145316318"><ele>163.93</ele><time>2026-08-17T01:44:40.624Z</time><hdop>5.312</hdop><vdop>2.625</vdop><extensions><gom:speed>0.424</gom:speed></extensions></trkpt>
   <trkpt lat="59.3256167763" lon="34.7145310451"><ele>163.738</ele><time>2026-08-17T01:44:41.130Z</time><hdop>5.5</hdop><vdop>2.75</vdop><extensions><gom:speed>0.517</gom:speed></extensions></trkpt>
   <trkpt lat="59.3256185784" lon="34.7145299554"><ele>163.621</ele><time>2026-08-17T01:44:41.652Z</time><hdop>5.562</hdop><vdop>2.562</vdop><extensions><gom:speed>0.314</gom:speed></extensions></trkpt>
   <trkpt lat="59.3256231884" lon="34.7145246748"><ele>163.794</ele><time>2026-08-17T01:44:42.649Z</time><hdop>5.687</hdop><vdop>2.5</vdop><extensions><gom:speed>0.272</gom:speed></extensions></trkpt>
   <trkpt lat="59.3256258706" lon="34.7145237528"><ele>163.915</ele><time>2026-08-17T01:44:43.659Z</time><hdop>5.625</hdop><vdop>2.5</vdop><extensions><gom:speed>0.205</gom:speed></extensions></trkpt>
   <trkpt lat="59.3256277985" lon="34.7145198971"><ele>164.138</ele><time>2026-08-17T01:44:44.652Z</time><hdop>5.562</hdop><vdop>2.5</vdop><extensions><gom:speed>0.13</gom:speed></extensions></trkpt>
   <trkpt lat="59.3256291815" lon="34.7145128563"><ele>164.38</ele><time>2026-08-17T01:44:45.662Z</time><hdop>5.312</hdop><vdop>2.625</vdop><extensions><gom:speed>0.106</gom:speed></extensions></trkpt>
   <trkpt lat="59.3256302711" lon="34.7145073243"><ele>164.233</ele><time>2026-08-17T01:44:46.653Z</time><hdop>5.0</hdop><vdop>2.5</vdop><extensions><gom:speed>0.106</gom:speed></extensions></trkpt>
   <trkpt lat="59.3256318637" lon="34.7144998644"><ele>164.128</ele><time>2026-08-17T01:44:47.652Z</time><hdop>4.875</hdop><vdop>2.625</vdop><extensions><gom:speed>0.11</gom:speed></extensions></trkpt>
   <trkpt lat="59.3256331629" lon="34.7144938294"><ele>164.065</ele><time>2026-08-17T01:44:48.212Z</time><hdop>4.75</hdop><vdop>2.625</vdop><extensions><gom:speed>0.138</gom:speed></extensions></trkpt>
   <trkpt lat="59.3256353841" lon="34.7144809213"><ele>164.171</ele><time>2026-08-17T01:44:49.648Z</time><hdop>4.5</hdop><vdop>3.0</vdop><extensions><gom:speed>0.116</gom:speed></extensions></trkpt>
   <trkpt lat="59.3256357613" lon="34.7144761436"><ele>164.182</ele><time>2026-08-17T01:44:50.681Z</time><hdop>4.375</hdop><vdop>2.875</vdop><extensions><gom:speed>0.11</gom:speed></extensions></trkpt>
   <trkpt lat="59.3256367671" lon="34.7144706954"><ele>164.444</ele><time>2026-08-17T01:44:51.652Z</time><hdop>4.312</hdop><vdop>3.25</vdop><extensions><gom:speed>0.089</gom:speed></extensions></trkpt>
   <trkpt lat="59.32563727" lon="34.714469019"><ele>164.557</ele><time>2026-08-17T01:44:52.652Z</time><hdop>4.312</hdop><vdop>3.312</vdop><extensions><gom:speed>0.069</gom:speed></extensions></trkpt>
   <trkpt lat="59.3256377729" lon="34.7144653309"><ele>164.606</ele><time>2026-08-17T01:44:53.652Z</time><hdop>4.25</hdop><vdop>3.25</vdop><extensions><gom:speed>0.074</gom:speed></extensions></trkpt>
   <trkpt lat="59.3256382759" lon="34.7144642413"><ele>164.635</ele><time>2026-08-17T01:44:54.171Z</time><hdop>4.312</hdop><vdop>3.25</vdop><extensions><gom:speed>0.113</gom:speed></extensions></trkpt>
   <trkpt lat="59.3256391979" lon="34.7144599665"><ele>164.583</ele><time>2026-08-17T01:44:54.649Z</time><hdop>4.312</hdop><vdop>3.25</vdop><extensions><gom:speed>0.138</gom:speed></extensions></trkpt>
   <trkpt lat="59.3256403713" lon="34.7144588769"><ele>164.552</ele><time>2026-08-17T01:44:55.669Z</time><hdop>4.375</hdop><vdop>3.25</vdop><extensions><gom:speed>0.167</gom:speed></extensions></trkpt>
   <trkpt lat="59.3256431793" lon="34.7144530934"><ele>164.323</ele><time>2026-08-17T01:44:56.648Z</time><hdop>4.312</hdop><vdop>2.937</vdop><extensions><gom:speed>0.162</gom:speed></extensions></trkpt>
   <trkpt lat="59.3256444785" lon="34.7144517523"><ele>164.187</ele><time>2026-08-17T01:44:57.530Z</time><hdop>4.312</hdop><vdop>2.937</vdop><extensions><gom:speed>0.192</gom:speed></extensions></trkpt>
   <trkpt lat="59.3256463644" lon="34.7144506626"><ele>163.68</ele><time>2026-08-17T01:44:58.491Z</time><hdop>4.312</hdop><vdop>2.937</vdop><extensions><gom:speed>0.184</gom:speed></extensions></trkpt>
   <trkpt lat="59.325648376" lon="34.7144498244"><ele>163.373</ele><time>2026-08-17T01:44:59.412Z</time><hdop>4.312</hdop><vdop>3.062</vdop><extensions><gom:speed>0.194</gom:speed></extensions></trkpt>
   <trkpt lat="59.3256517707" lon="34.7144483995"><ele>163.046</ele><time>2026-08-17T01:45:00.252Z</time><hdop>4.312</hdop><vdop>3.125</vdop><extensions><gom:speed>0.244</gom:speed></extensions></trkpt>
   <trkpt lat="59.3256569675" lon="34.7144464717"><ele>163.125</ele><time>2026-08-17T01:45:01.132Z</time><hdop>4.25</hdop><vdop>3.062</vdop><extensions><gom:speed>0.312</gom:speed></extensions></trkpt>
   <trkpt lat="59.3256611584" lon="34.7144438733"><ele>163.382</ele><time>2026-08-17T01:45:01.649Z</time><hdop>4.25</hdop><vdop>3.062</vdop><extensions><gom:speed>0.354</gom:speed></extensions></trkpt>
   <trkpt lat="59.3256647627" lon="34.7144426998"><ele>163.9</ele><time>2026-08-17T01:45:02.652Z</time><hdop>4.187</hdop><vdop>3.062</vdop><extensions><gom:speed>0.261</gom:speed></extensions></trkpt>
   <trkpt lat="59.3256727674" lon="34.714435659"><ele>163.884</ele><time>2026-08-17T01:45:03.649Z</time><hdop>4.125</hdop><vdop>2.875</vdop><extensions><gom:speed>0.316</gom:speed></extensions></trkpt>
   <trkpt lat="59.3256751981" lon="34.7144313842"><ele>163.874</ele><time>2026-08-17T01:45:04.430Z</time><hdop>4.062</hdop><vdop>2.875</vdop><extensions><gom:speed>0.293</gom:speed></extensions></trkpt>
   <trkpt lat="59.3256810655" lon="34.7144209907"><ele>163.364</ele><time>2026-08-17T01:45:05.649Z</time><hdop>4.0</hdop><vdop>2.687</vdop><extensions><gom:speed>0.292</gom:speed></extensions></trkpt>
   <trkpt lat="59.3256842925" lon="34.7144141175"><ele>162.862</ele><time>2026-08-17T01:45:06.649Z</time><hdop>3.937</hdop><vdop>2.625</vdop><extensions><gom:speed>0.285</gom:speed></extensions></trkpt>
   <trkpt lat="59.32568358" lon="34.7144135308"><ele>162.566</ele><time>2026-08-17T01:45:07.652Z</time><hdop>3.937</hdop><vdop>2.625</vdop><extensions><gom:speed>0.104</gom:speed></extensions></trkpt>
   <trkpt lat="59.3256846697" lon="34.7144054841"><ele>162.388</ele><time>2026-08-17T01:45:08.649Z</time><hdop>3.937</hdop><vdop>2.625</vdop><extensions><gom:speed>0.155</gom:speed></extensions></trkpt>
   <trkpt lat="59.3256850888" lon="34.7144042269"><ele>162.191</ele><time>2026-08-17T01:45:09.652Z</time><hdop>3.937</hdop><vdop>2.625</vdop><extensions><gom:speed>0.084</gom:speed></extensions></trkpt>
   <trkpt lat="59.3256864718" lon="34.7143990301"><ele>162.074</ele><time>2026-08-17T01:45:10.349Z</time><hdop>3.937</hdop><vdop>2.625</vdop><extensions><gom:speed>0.146</gom:speed></extensions></trkpt>
   <trkpt lat="59.3256879805" lon="34.714396767"><ele>161.978</ele><time>2026-08-17T01:45:10.885Z</time><hdop>4.0</hdop><vdop>2.625</vdop><extensions><gom:speed>0.096</gom:speed></extensions></trkpt>
   <trkpt lat="59.3256884835" lon="34.7143938333"><ele>161.864</ele><time>2026-08-17T01:45:11.653Z</time><hdop>4.0</hdop><vdop>2.5</vdop><extensions><gom:speed>0.064</gom:speed></extensions></trkpt>
   <trkpt lat="59.3256891959" lon="34.7143882174"><ele>161.796</ele><time>2026-08-17T01:45:12.504Z</time><hdop>4.0</hdop><vdop>2.5</vdop><extensions><gom:speed>0.134</gom:speed></extensions></trkpt>
   <trkpt lat="59.3256884835" lon="34.7143753931"><ele>162.145</ele><time>2026-08-17T01:45:13.648Z</time><hdop>4.0</hdop><vdop>2.5</vdop><extensions><gom:speed>0.192</gom:speed></extensions></trkpt>
   <trkpt lat="59.3256869747" lon="34.7143631555"><ele>162.281</ele><time>2026-08-17T01:45:14.649Z</time><hdop>4.0</hdop><vdop>2.5</vdop><extensions><gom:speed>0.266</gom:speed></extensions></trkpt>
   <trkpt lat="59.3256866813" lon="34.71435645"><ele>162.362</ele><time>2026-08-17T01:45:15.509Z</time><hdop>4.062</hdop><vdop>2.5</vdop><extensions><gom:speed>0.298</gom:speed></extensions></trkpt>
   <trkpt lat="59.3256859689" lon="34.7143459726"><ele>162.426</ele><time>2026-08-17T01:45:16.532Z</time><hdop>4.125</hdop><vdop>2.562</vdop><extensions><gom:speed>0.33</gom:speed></extensions></trkpt>
   <trkpt lat="59.3256849631" lon="34.7143372555"><ele>162.675</ele><time>2026-08-17T01:45:17.512Z</time><hdop>4.187</hdop><vdop>2.625</vdop><extensions><gom:speed>0.331</gom:speed></extensions></trkpt>
   <trkpt lat="59.3256834962" lon="34.7143289574"><ele>162.62</ele><time>2026-08-17T01:45:18.648Z</time><hdop>4.25</hdop><vdop>3.062</vdop><extensions><gom:speed>0.346</gom:speed></extensions></trkpt>
   <trkpt lat="59.3256816941" lon="34.7143237606"><ele>162.605</ele><time>2026-08-17T01:45:19.649Z</time><hdop>4.25</hdop><vdop>2.875</vdop><extensions><gom:speed>0.281</gom:speed></extensions></trkpt>
   <trkpt lat="59.3256813588" lon="34.7143218328"><ele>162.595</ele><time>2026-08-17T01:45:20.507Z</time><hdop>4.312</hdop><vdop>2.875</vdop><extensions><gom:speed>0.228</gom:speed></extensions></trkpt>
   <trkpt lat="59.3256782994" lon="34.7143208269"><ele>162.842</ele><time>2026-08-17T01:45:21.649Z</time><hdop>4.25</hdop><vdop>2.562</vdop><extensions><gom:speed>0.19</gom:speed></extensions></trkpt>
   <trkpt lat="59.3256769583" lon="34.714322168"><ele>163.128</ele><time>2026-08-17T01:45:22.652Z</time><hdop>4.25</hdop><vdop>2.5</vdop><extensions><gom:speed>0.074</gom:speed></extensions></trkpt>
   <trkpt lat="59.3256739828" lon="34.7143210784"><ele>163.39</ele><time>2026-08-17T01:45:23.650Z</time><hdop>4.187</hdop><vdop>2.5</vdop><extensions><gom:speed>0.144</gom:speed></extensions></trkpt>
   <trkpt lat="59.325673396" lon="34.7143223357"><ele>163.311</ele><time>2026-08-17T01:45:24.652Z</time><hdop>4.25</hdop><vdop>2.5</vdop><extensions><gom:speed>0.073</gom:speed></extensions></trkpt>
   <trkpt lat="59.3256700852" lon="34.7143196535"><ele>163.015</ele><time>2026-08-17T01:45:25.649Z</time><hdop>4.187</hdop><vdop>2.5</vdop><extensions><gom:speed>0.141</gom:speed></extensions></trkpt>
   <trkpt lat="59.3256691632" lon="34.7143172227"><ele>162.838</ele><time>2026-08-17T01:45:26.486Z</time><hdop>4.25</hdop><vdop>2.5</vdop><extensions><gom:speed>0.143</gom:speed></extensions></trkpt>
   <trkpt lat="59.3256648884" lon="34.7143139538"><ele>162.687</ele><time>2026-08-17T01:45:27.649Z</time><hdop>4.25</hdop><vdop>2.5</vdop><extensions><gom:speed>0.164</gom:speed></extensions></trkpt>
   <trkpt lat="59.3256651818" lon="34.7143140376"><ele>162.609</ele><time>2026-08-17T01:45:28.652Z</time><hdop>4.312</hdop><vdop>2.625</vdop><extensions><gom:speed>0.057</gom:speed></extensions></trkpt>
   <trkpt lat="59.3256631701" lon="34.7143122774"><ele>162.509</ele><time>2026-08-17T01:45:29.652Z</time><hdop>4.375</hdop><vdop>2.687</vdop><extensions><gom:speed>0.073</gom:speed></extensions></trkpt>
   <trkpt lat="59.3256583924" lon="34.7143056557"><ele>162.511</ele><time>2026-08-17T01:45:30.649Z</time><hdop>4.375</hdop><vdop>2.875</vdop><extensions><gom:speed>0.155</gom:speed></extensions></trkpt>
   <trkpt lat="59.3256568837" lon="34.7143039793"><ele>162.511</ele><time>2026-08-17T01:45:31.232Z</time><hdop>4.437</hdop><vdop>2.875</vdop><extensions><gom:speed>0.145</gom:speed></extensions></trkpt>
   <trkpt lat="59.3256524832" lon="34.71429719"><ele>162.738</ele><time>2026-08-17T01:45:32.649Z</time><hdop>4.562</hdop><vdop>3.125</vdop><extensions><gom:speed>0.147</gom:speed></extensions></trkpt>
   <trkpt lat="59.3256493819" lon="34.7142915741"><ele>162.976</ele><time>2026-08-17T01:45:33.649Z</time><hdop>4.5</hdop><vdop>3.25</vdop><extensions><gom:speed>0.13</gom:speed></extensions></trkpt>
   <trkpt lat="59.3256467835" lon="34.7142858744"><ele>163.583</ele><time>2026-08-17T01:45:34.650Z</time><hdop>4.5</hdop><vdop>3.187</vdop><extensions><gom:speed>0.13</gom:speed></extensions></trkpt>
   <trkpt lat="59.3256435984" lon="34.714278163"><ele>163.966</ele><time>2026-08-17T01:45:35.649Z</time><hdop>4.437</hdop><vdop>3.062</vdop><extensions><gom:speed>0.152</gom:speed></extensions></trkpt>
   <trkpt lat="59.3256425925" lon="34.7142756485"><ele>164.195</ele><time>2026-08-17T01:45:36.108Z</time><hdop>4.437</hdop><vdop>3.062</vdop><extensions><gom:speed>0.138</gom:speed></extensions></trkpt>
   <trkpt lat="59.3256418801" lon="34.714274475"><ele>164.55</ele><time>2026-08-17T01:45:36.652Z</time><hdop>4.375</hdop><vdop>3.187</vdop><extensions><gom:speed>0.118</gom:speed></extensions></trkpt>
   <trkpt lat="59.3256384854" lon="34.7142642491"><ele>165.121</ele><time>2026-08-17T01:45:37.648Z</time><hdop>4.375</hdop><vdop>3.312</vdop><extensions><gom:speed>0.163</gom:speed></extensions></trkpt>
   <trkpt lat="59.3256368928" lon="34.7142607287"><ele>165.462</ele><time>2026-08-17T01:45:38.233Z</time><hdop>4.375</hdop><vdop>3.312</vdop><extensions><gom:speed>0.166</gom:speed></extensions></trkpt>
   <trkpt lat="59.3256310674" lon="34.7142496646"><ele>165.574</ele><time>2026-08-17T01:45:39.649Z</time><hdop>4.375</hdop><vdop>3.25</vdop><extensions><gom:speed>0.182</gom:speed></extensions></trkpt>
   <trkpt lat="59.3256292653" lon="34.7142468985"><ele>165.641</ele><time>2026-08-17T01:45:40.489Z</time><hdop>4.375</hdop><vdop>3.25</vdop><extensions><gom:speed>0.166</gom:speed></extensions></trkpt>
   <trkpt lat="59.3256275889" lon="34.7142432943"><ele>165.922</ele><time>2026-08-17T01:45:41.187Z</time><hdop>4.375</hdop><vdop>3.062</vdop><extensions><gom:speed>0.15</gom:speed></extensions></trkpt>
   <trkpt lat="59.3256267926" lon="34.7142414503"><ele>166.092</ele><time>2026-08-17T01:45:41.653Z</time><hdop>4.375</hdop><vdop>2.875</vdop><extensions><gom:speed>0.142</gom:speed></extensions></trkpt>
   <trkpt lat="59.3256237752" lon="34.714234661"><ele>166.372</ele><time>2026-08-17T01:45:42.664Z</time><hdop>4.375</hdop><vdop>2.75</vdop><extensions><gom:speed>0.18</gom:speed></extensions></trkpt>
   <trkpt lat="59.3256204643" lon="34.7142271172"><ele>166.814</ele><time>2026-08-17T01:45:43.652Z</time><hdop>4.437</hdop><vdop>2.75</vdop><extensions><gom:speed>0.218</gom:speed></extensions></trkpt>
   <trkpt lat="59.3256120824" lon="34.7142116945"><ele>166.962</ele><time>2026-08-17T01:45:44.649Z</time><hdop>4.437</hdop><vdop>2.687</vdop><extensions><gom:speed>0.303</gom:speed></extensions></trkpt>
   <trkpt lat="59.3256077657" lon="34.7142035641"><ele>167.07</ele><time>2026-08-17T01:45:45.652Z</time><hdop>4.562</hdop><vdop>2.625</vdop><extensions><gom:speed>0.329</gom:speed></extensions></trkpt>
   <trkpt lat="59.3256001801" lon="34.7141865488"><ele>167.258</ele><time>2026-08-17T01:45:46.649Z</time><hdop>4.687</hdop><vdop>2.687</vdop><extensions><gom:speed>0.406</gom:speed></extensions></trkpt>
   <trkpt lat="59.3255944804" lon="34.7141734731"><ele>167.328</ele><time>2026-08-17T01:45:47.649Z</time><hdop>4.75</hdop><vdop>2.562</vdop><extensions><gom:speed>0.336</gom:speed></extensions></trkpt>
   <trkpt lat="59.3255944804" lon="34.714173054"><ele>167.372</ele><time>2026-08-17T01:45:48.652Z</time><hdop>4.875</hdop><vdop>2.625</vdop><extensions><gom:speed>0.142</gom:speed></extensions></trkpt>
   <trkpt lat="59.3255899961" lon="34.7141605649"><ele>167.407</ele><time>2026-08-17T01:45:49.649Z</time><hdop>4.875</hdop><vdop>2.687</vdop><extensions><gom:speed>0.174</gom:speed></extensions></trkpt>
   <trkpt lat="59.3255883616" lon="34.714158218"><ele>167.432</ele><time>2026-08-17T01:45:50.657Z</time><hdop>4.937</hdop><vdop>2.687</vdop><extensions><gom:speed>0.065</gom:speed></extensions></trkpt>
   <trkpt lat="59.3255849669" lon="34.7141490817"><ele>167.453</ele><time>2026-08-17T01:45:51.648Z</time><hdop>4.937</hdop><vdop>2.625</vdop><extensions><gom:speed>0.135</gom:speed></extensions></trkpt>
   <trkpt lat="59.325583081" lon="34.7141437173"><ele>167.467</ele><time>2026-08-17T01:45:52.649Z</time><hdop>4.875</hdop><vdop>2.562</vdop><extensions><gom:speed>0.109</gom:speed></extensions></trkpt>
   <trkpt lat="59.3255822847" lon="34.7141394425"><ele>167.475</ele><time>2026-08-17T01:45:53.649Z</time><hdop>4.875</hdop><vdop>2.562</vdop><extensions><gom:speed>0.105</gom:speed></extensions></trkpt>
   <trkpt lat="59.3255819914" lon="34.7141343296"><ele>167.485</ele><time>2026-08-17T01:45:54.648Z</time><hdop>4.75</hdop><vdop>2.5</vdop><extensions><gom:speed>0.097</gom:speed></extensions></trkpt>
   <trkpt lat="59.3255823686" lon="34.7141333238"><ele>167.472</ele><time>2026-08-17T01:45:55.652Z</time><hdop>4.625</hdop><vdop>2.5</vdop><extensions><gom:speed>0.04</gom:speed></extensions></trkpt>
   <trkpt lat="59.3255814885" lon="34.7141297195"><ele>167.241</ele><time>2026-08-17T01:45:56.649Z</time><hdop>4.562</hdop><vdop>2.5</vdop><extensions><gom:speed>0.121</gom:speed></extensions></trkpt>
   <trkpt lat="59.3255812789" lon="34.7141293843"><ele>166.923</ele><time>2026-08-17T01:45:57.652Z</time><hdop>4.562</hdop><vdop>2.687</vdop><extensions><gom:speed>0.044</gom:speed></extensions></trkpt>
   <trkpt lat="59.3255808598" lon="34.7141271211"><ele>166.594</ele><time>2026-08-17T01:45:58.650Z</time><hdop>4.562</hdop><vdop>2.625</vdop><extensions><gom:speed>0.115</gom:speed></extensions></trkpt>
   <trkpt lat="59.3255799797" lon="34.7141255286"><ele>166.419</ele><time>2026-08-17T01:45:59.662Z</time><hdop>4.562</hdop><vdop>2.5</vdop><extensions><gom:speed>0.054</gom:speed></extensions></trkpt>
   <trkpt lat="59.3255794768" lon="34.7141223435"><ele>166.318</ele><time>2026-08-17T01:46:00.652Z</time><hdop>4.562</hdop><vdop>2.5</vdop><extensions><gom:speed>0.079</gom:speed></extensions></trkpt>
   <trkpt lat="59.325579393" lon="34.7141154703"><ele>166.261</ele><time>2026-08-17T01:46:01.649Z</time><hdop>4.562</hdop><vdop>2.5</vdop><extensions><gom:speed>0.143</gom:speed></extensions></trkpt>
   <trkpt lat="59.3255789739" lon="34.714113291"><ele>166.226</ele><time>2026-08-17T01:46:02.333Z</time><hdop>4.5</hdop><vdop>2.5</vdop><extensions><gom:speed>0.139</gom:speed></extensions></trkpt>
   <trkpt lat="59.3255790996" lon="34.7141089324"><ele>166.221</ele><time>2026-08-17T01:46:03.648Z</time><hdop>4.437</hdop><vdop>2.5</vdop><extensions><gom:speed>0.159</gom:speed></extensions></trkpt>
   <trkpt lat="59.3255792673" lon="34.7141064178"><ele>166.374</ele><time>2026-08-17T01:46:04.652Z</time><hdop>4.375</hdop><vdop>2.5</vdop><extensions><gom:speed>0.1</gom:speed></extensions></trkpt>
   <trkpt lat="59.3255796863" lon="34.714101724"><ele>166.629</ele><time>2026-08-17T01:46:05.648Z</time><hdop>4.375</hdop><vdop>2.5</vdop><extensions><gom:speed>0.251</gom:speed></extensions></trkpt>
   <trkpt lat="59.325579393" lon="34.7140950185"><ele>166.908</ele><time>2026-08-17T01:46:06.649Z</time><hdop>4.312</hdop><vdop>2.5</vdop><extensions><gom:speed>0.331</gom:speed></extensions></trkpt>
   <trkpt lat="59.3255780938" lon="34.7140889835"><ele>167.039</ele><time>2026-08-17T01:46:07.655Z</time><hdop>4.312</hdop><vdop>2.5</vdop><extensions><gom:speed>0.34</gom:speed></extensions></trkpt>
   <trkpt lat="59.325578471" lon="34.7140828647"><ele>166.914</ele><time>2026-08-17T01:46:08.649Z</time><hdop>4.375</hdop><vdop>2.5</vdop><extensions><gom:speed>0.37</gom:speed></extensions></trkpt>
   <trkpt lat="59.3255794768" lon="34.714075321"><ele>166.807</ele><time>2026-08-17T01:46:09.649Z</time><hdop>4.375</hdop><vdop>2.5</vdop><extensions><gom:speed>0.408</gom:speed></extensions></trkpt>
   <trkpt lat="59.325580776" lon="34.7140678611"><ele>166.654</ele><time>2026-08-17T01:46:10.649Z</time><hdop>4.437</hdop><vdop>2.5</vdop><extensions><gom:speed>0.31</gom:speed></extensions></trkpt>
   <trkpt lat="59.325580776" lon="34.7140631672"><ele>166.699</ele><time>2026-08-17T01:46:11.653Z</time><hdop>4.5</hdop><vdop>2.5</vdop><extensions><gom:speed>0.29</gom:speed></extensions></trkpt>
   <trkpt lat="59.3255809855" lon="34.7140579704"><ele>166.821</ele><time>2026-08-17T01:46:12.652Z</time><hdop>4.625</hdop><vdop>2.5</vdop><extensions><gom:speed>0.308</gom:speed></extensions></trkpt>
   <trkpt lat="59.3255832906" lon="34.7140528575"><ele>167.083</ele><time>2026-08-17T01:46:13.648Z</time><hdop>4.625</hdop><vdop>2.5</vdop><extensions><gom:speed>0.263</gom:speed></extensions></trkpt>
   <trkpt lat="59.3255857632" lon="34.7140494209"><ele>167.315</ele><time>2026-08-17T01:46:14.649Z</time><hdop>4.687</hdop><vdop>2.5</vdop><extensions><gom:speed>0.296</gom:speed></extensions></trkpt>
   <trkpt lat="59.3255875653" lon="34.7140463196"><ele>167.454</ele><time>2026-08-17T01:46:15.587Z</time><hdop>4.812</hdop><vdop>2.5</vdop><extensions><gom:speed>0.301</gom:speed></extensions></trkpt>
   <trkpt lat="59.3255902895" lon="34.7140460681"><ele>167.491</ele><time>2026-08-17T01:46:16.214Z</time><hdop>4.812</hdop><vdop>2.5</vdop><extensions><gom:speed>0.218</gom:speed></extensions></trkpt>
   <trkpt lat="59.3255919658" lon="34.7140455652"><ele>167.519</ele><time>2026-08-17T01:46:17.226Z</time><hdop>4.75</hdop><vdop>2.5</vdop><extensions><gom:speed>0.157</gom:speed></extensions></trkpt>
   <trkpt lat="59.3255982942" lon="34.7140383568"><ele>167.796</ele><time>2026-08-17T01:46:18.652Z</time><hdop>4.687</hdop><vdop>2.75</vdop><extensions><gom:speed>0.189</gom:speed></extensions></trkpt>
   <trkpt lat="59.3256044968" lon="34.7140315674"><ele>167.316</ele><time>2026-08-17T01:46:19.653Z</time><hdop>4.687</hdop><vdop>2.562</vdop><extensions><gom:speed>0.238</gom:speed></extensions></trkpt>
   <trkpt lat="59.3256189975" lon="34.7140193299"><ele>167.007</ele><time>2026-08-17T01:46:20.649Z</time><hdop>4.687</hdop><vdop>2.5</vdop><extensions><gom:speed>0.307</gom:speed></extensions></trkpt>
   <trkpt lat="59.3256213863" lon="34.7140172344"><ele>167.027</ele><time>2026-08-17T01:46:21.652Z</time><hdop>4.75</hdop><vdop>2.5</vdop><extensions><gom:speed>0.172</gom:speed></extensions></trkpt>
   <trkpt lat="59.3256277985" lon="34.7140108641"><ele>166.708</ele><time>2026-08-17T01:46:22.652Z</time><hdop>4.937</hdop><vdop>2.625</vdop><extensions><gom:speed>0.2</gom:speed></extensions></trkpt>
   <trkpt lat="59.3256387788" lon="34.7139983751"><ele>166.15</ele><time>2026-08-17T01:46:23.649Z</time><hdop>4.937</hdop><vdop>2.5</vdop><extensions><gom:speed>0.236</gom:speed></extensions></trkpt>
   <trkpt lat="59.3256419639" lon="34.7139944356"><ele>165.816</ele><time>2026-08-17T01:46:24.146Z</time><hdop>4.937</hdop><vdop>2.5</vdop><extensions><gom:speed>0.24</gom:speed></extensions></trkpt>
   <trkpt lat="59.3256434726" lon="34.7139925916"><ele>166.083</ele><time>2026-08-17T01:46:24.652Z</time><hdop>4.937</hdop><vdop>2.5</vdop><extensions><gom:speed>0.222</gom:speed></extensions></trkpt>
   <trkpt lat="59.3256475798" lon="34.7139868919"><ele>166.242</ele><time>2026-08-17T01:46:25.168Z</time><hdop>4.875</hdop><vdop>2.5</vdop><extensions><gom:speed>0.266</gom:speed></extensions></trkpt>
   <trkpt lat="59.3256500943" lon="34.7139823657"><ele>166.267</ele><time>2026-08-17T01:46:25.664Z</time><hdop>4.875</hdop><vdop>2.5</vdop><extensions><gom:speed>0.3</gom:speed></extensions></trkpt>
   <trkpt lat="59.3256546625" lon="34.7139742352"><ele>166.283</ele><time>2026-08-17T01:46:26.191Z</time><hdop>4.875</hdop><vdop>2.5</vdop><extensions><gom:speed>0.342</gom:speed></extensions></trkpt>
   <trkpt lat="59.3256577638" lon="34.7139685355"><ele>166.039</ele><time>2026-08-17T01:46:26.652Z</time><hdop>4.812</hdop><vdop>2.5</vdop><extensions><gom:speed>0.387</gom:speed></extensions></trkpt>
   <trkpt lat="59.3256615775" lon="34.7139611595"><ele>165.893</ele><time>2026-08-17T01:46:27.111Z</time><hdop>4.75</hdop><vdop>2.5</vdop><extensions><gom:speed>0.408</gom:speed></extensions></trkpt>
   <trkpt lat="59.3256657685" lon="34.7139518555"><ele>166.1</ele><time>2026-08-17T01:46:27.650Z</time><hdop>4.687</hdop><vdop>2.625</vdop><extensions><gom:speed>0.458</gom:speed></extensions></trkpt>
   <trkpt lat="59.325668786" lon="34.7139449824"><ele>165.751</ele><time>2026-08-17T01:46:28.652Z</time><hdop>4.687</hdop><vdop>2.562</vdop><extensions><gom:speed>0.36</gom:speed></extensions></trkpt>
   <trkpt lat="59.3256722645" lon="34.7139371872"><ele>165.543</ele><time>2026-08-17T01:46:29.367Z</time><hdop>4.687</hdop><vdop>2.562</vdop><extensions><gom:speed>0.375</gom:speed></extensions></trkpt>
   <trkpt lat="59.3256773774" lon="34.7139279671"><ele>165.278</ele><time>2026-08-17T01:46:30.470Z</time><hdop>4.687</hdop><vdop>2.5</vdop><extensions><gom:speed>0.331</gom:speed></extensions></trkpt>
   <trkpt lat="59.3256810655" lon="34.7139213454"><ele>165.03</ele><time>2026-08-17T01:46:31.087Z</time><hdop>4.687</hdop><vdop>2.5</vdop><extensions><gom:speed>0.349</gom:speed></extensions></trkpt>
   <trkpt lat="59.3256844601" lon="34.7139171545"><ele>165.043</ele><time>2026-08-17T01:46:31.652Z</time><hdop>4.687</hdop><vdop>2.562</vdop><extensions><gom:speed>0.416</gom:speed></extensions></trkpt>
   <trkpt lat="59.3256907885" lon="34.7139048331"><ele>165.008</ele><time>2026-08-17T01:46:32.650Z</time><hdop>4.75</hdop><vdop>2.5</vdop><extensions><gom:speed>0.421</gom:speed></extensions></trkpt>
   <trkpt lat="59.3256916686" lon="34.7139006421"><ele>165.055</ele><time>2026-08-17T01:46:33.657Z</time><hdop>4.812</hdop><vdop>2.5</vdop><extensions><gom:speed>0.314</gom:speed></extensions></trkpt>
   <trkpt lat="59.325691459" lon="34.713891422"><ele>165.082</ele><time>2026-08-17T01:46:34.587Z</time><hdop>4.812</hdop><vdop>2.5</vdop><extensions><gom:speed>0.331</gom:speed></extensions></trkpt>
   <trkpt lat="59.3256902856" lon="34.7138813637"><ele>165.256</ele><time>2026-08-17T01:46:35.367Z</time><hdop>4.812</hdop><vdop>2.5</vdop><extensions><gom:speed>0.344</gom:speed></extensions></trkpt>
   <trkpt lat="59.3256879805" lon="34.7138730657"><ele>165.075</ele><time>2026-08-17T01:46:36.287Z</time><hdop>4.812</hdop><vdop>2.5</vdop><extensions><gom:speed>0.31</gom:speed></extensions></trkpt>
   <trkpt lat="59.3256869747" lon="34.7138625883"><ele>164.653</ele><time>2026-08-17T01:46:37.127Z</time><hdop>4.687</hdop><vdop>2.5</vdop><extensions><gom:speed>0.362</gom:speed></extensions></trkpt>
   <trkpt lat="59.3256860946" lon="34.713856218"><ele>164.253</ele><time>2026-08-17T01:46:37.652Z</time><hdop>4.687</hdop><vdop>2.5</vdop><extensions><gom:speed>0.442</gom:speed></extensions></trkpt>
   <trkpt lat="59.3256852983" lon="34.7138424717"><ele>164.259</ele><time>2026-08-17T01:46:38.652Z</time><hdop>4.625</hdop><vdop>2.5</vdop><extensions><gom:speed>0.462</gom:speed></extensions></trkpt>
   <trkpt lat="59.3256858851" lon="34.7138269652"><ele>164.489</ele><time>2026-08-17T01:46:39.648Z</time><hdop>4.562</hdop><vdop>2.5</vdop><extensions><gom:speed>0.493</gom:speed></extensions></trkpt>
   <trkpt lat="59.3256880644" lon="34.7138120454"><ele>164.474</ele><time>2026-08-17T01:46:40.649Z</time><hdop>4.5</hdop><vdop>2.562</vdop><extensions><gom:speed>0.538</gom:speed></extensions></trkpt>
   <trkpt lat="59.3256891959" lon="34.7137992211"><ele>164.96</ele><time>2026-08-17T01:46:41.650Z</time><hdop>4.5</hdop><vdop>2.75</vdop><extensions><gom:speed>0.568</gom:speed></extensions></trkpt>
   <trkpt lat="59.3256903694" lon="34.7137863968"><ele>165.25</ele><time>2026-08-17T01:46:42.509Z</time><hdop>4.562</hdop><vdop>2.75</vdop><extensions><gom:speed>0.527</gom:speed></extensions></trkpt>
   <trkpt lat="59.3256924649" lon="34.7137730696"><ele>164.914</ele><time>2026-08-17T01:46:43.410Z</time><hdop>4.625</hdop><vdop>2.687</vdop><extensions><gom:speed>0.509</gom:speed></extensions></trkpt>
   <trkpt lat="59.3256947699" lon="34.7137585689"><ele>164.71</ele><time>2026-08-17T01:46:44.351Z</time><hdop>4.75</hdop><vdop>2.812</vdop><extensions><gom:speed>0.553</gom:speed></extensions></trkpt>
   <trkpt lat="59.3256947699" lon="34.713739961"><ele>164.431</ele><time>2026-08-17T01:46:45.652Z</time><hdop>4.812</hdop><vdop>2.687</vdop><extensions><gom:speed>0.47</gom:speed></extensions></trkpt>
   <trkpt lat="59.3256933869" lon="34.7137262985"><ele>164.429</ele><time>2026-08-17T01:46:46.649Z</time><hdop>4.875</hdop><vdop>2.625</vdop><extensions><gom:speed>0.445</gom:speed></extensions></trkpt>
   <trkpt lat="59.3256920877" lon="34.7137182519"><ele>164.405</ele><time>2026-08-17T01:46:47.648Z</time><hdop>4.937</hdop><vdop>2.625</vdop><extensions><gom:speed>0.338</gom:speed></extensions></trkpt>
   <trkpt lat="59.3256916686" lon="34.7137152344"><ele>164.393</ele><time>2026-08-17T01:46:48.649Z</time><hdop>4.812</hdop><vdop>2.5</vdop><extensions><gom:speed>0.231</gom:speed></extensions></trkpt>
   <trkpt lat="59.3256913752" lon="34.7137222752"><ele>164.388</ele><time>2026-08-17T01:46:49.652Z</time><hdop>4.75</hdop><vdop>2.5</vdop><extensions><gom:speed>0.035</gom:speed></extensions></trkpt>
   <trkpt lat="59.3256912914" lon="34.7137206827"><ele>164.388</ele><time>2026-08-17T01:46:50.654Z</time><hdop>4.687</hdop><vdop>2.5</vdop><extensions><gom:speed>0.032</gom:speed></extensions></trkpt>
   <trkpt lat="59.3256899922" lon="34.7137185872"><ele>164.388</ele><time>2026-08-17T01:46:51.666Z</time><hdop>4.562</hdop><vdop>2.5</vdop><extensions><gom:speed>0.026</gom:speed></extensions></trkpt>
   <trkpt lat="59.3256887768" lon="34.7137169946"><ele>164.389</ele><time>2026-08-17T01:46:52.678Z</time><hdop>4.437</hdop><vdop>2.5</vdop><extensions><gom:speed>0.03</gom:speed></extensions></trkpt>
   <trkpt lat="59.3256875614" lon="34.7137134742"><ele>164.389</ele><time>2026-08-17T01:46:53.650Z</time><hdop>4.375</hdop><vdop>2.5</vdop><extensions><gom:speed>0.102</gom:speed></extensions></trkpt>
   <trkpt lat="59.3256865975" lon="34.7137148991"><ele>164.39</ele><time>2026-08-17T01:46:54.652Z</time><hdop>4.312</hdop><vdop>2.5</vdop><extensions><gom:speed>0.025</gom:speed></extensions></trkpt>
   <trkpt lat="59.3256861784" lon="34.7137132228"><ele>164.392</ele><time>2026-08-17T01:46:55.652Z</time><hdop>4.25</hdop><vdop>2.5</vdop><extensions><gom:speed>0.046</gom:speed></extensions></trkpt>
   <trkpt lat="59.3256865975" lon="34.7137101215"><ele>164.425</ele><time>2026-08-17T01:46:56.652Z</time><hdop>4.25</hdop><vdop>2.5</vdop><extensions><gom:speed>0.044</gom:speed></extensions></trkpt>
   <trkpt lat="59.3256867652" lon="34.7137103729"><ele>164.574</ele><time>2026-08-17T01:46:57.652Z</time><hdop>4.25</hdop><vdop>2.5</vdop><extensions><gom:speed>0.042</gom:speed></extensions></trkpt>
   <trkpt lat="59.3256869747" lon="34.7137103729"><ele>164.666</ele><time>2026-08-17T01:46:58.649Z</time><hdop>4.25</hdop><vdop>2.5</vdop><extensions><gom:speed>0.105</gom:speed></extensions></trkpt>
   <trkpt lat="59.3256862622" lon="34.7137103729"><ele>164.723</ele><time>2026-08-17T01:46:59.659Z</time><hdop>4.25</hdop><vdop>2.5</vdop><extensions><gom:speed>0.041</gom:speed></extensions></trkpt>
   <trkpt lat="59.325686388" lon="34.7137104567"><ele>164.761</ele><time>2026-08-17T01:47:00.649Z</time><hdop>4.187</hdop><vdop>2.5</vdop><extensions><gom:speed>0.112</gom:speed></extensions></trkpt>
   <trkpt lat="59.3256879805" lon="34.7137108758"><ele>164.783</ele><time>2026-08-17T01:47:01.682Z</time><hdop>4.125</hdop><vdop>2.5</vdop><extensions><gom:speed>0.041</gom:speed></extensions></trkpt>
   <trkpt lat="59.3256889864" lon="34.7137090318"><ele>164.799</ele><time>2026-08-17T01:47:02.652Z</time><hdop>4.125</hdop><vdop>2.5</vdop><extensions><gom:speed>0.031</gom:speed></extensions></trkpt>
   <trkpt lat="59.3256889864" lon="34.7137086965"><ele>164.812</ele><time>2026-08-17T01:47:03.649Z</time><hdop>4.062</hdop><vdop>2.5</vdop><extensions><gom:speed>0.04</gom:speed></extensions></trkpt>
   <trkpt lat="59.3256890702" lon="34.713708026"><ele>164.827</ele><time>2026-08-17T01:47:04.648Z</time><hdop>4.0</hdop><vdop>2.5</vdop><extensions><gom:speed>0.269</gom:speed></extensions></trkpt>
   <trkpt lat="59.3256896988" lon="34.713704757"><ele>164.836</ele><time>2026-08-17T01:47:05.345Z</time><hdop>3.937</hdop><vdop>2.5</vdop><extensions><gom:speed>0.284</gom:speed></extensions></trkpt>
   <trkpt lat="59.3256891959" lon="34.7137000632"><ele>164.449</ele><time>2026-08-17T01:47:06.652Z</time><hdop>3.937</hdop><vdop>2.5</vdop><extensions><gom:speed>0.214</gom:speed></extensions></trkpt>
   <trkpt lat="59.3256903694" lon="34.7136963751"><ele>164.22</ele><time>2026-08-17T01:47:07.652Z</time><hdop>3.875</hdop><vdop>2.5</vdop><extensions><gom:speed>0.341</gom:speed></extensions></trkpt>
   <trkpt lat="59.325691459" lon="34.713695956"><ele>164.087</ele><time>2026-08-17T01:47:08.650Z</time><hdop>3.812</hdop><vdop>2.5</vdop><extensions><gom:speed>0.206</gom:speed></extensions></trkpt>
   <trkpt lat="59.3256920877" lon="34.7136942797"><ele>164.086</ele><time>2026-08-17T01:47:09.675Z</time><hdop>3.875</hdop><vdop>2.5</vdop><extensions><gom:speed>0.197</gom:speed></extensions></trkpt>
   <trkpt lat="59.3256916686" lon="34.7136926871"><ele>163.9</ele><time>2026-08-17T01:47:10.652Z</time><hdop>4.0</hdop><vdop>2.5</vdop><extensions><gom:speed>0.237</gom:speed></extensions></trkpt>
   <trkpt lat="59.3256898665" lon="34.7136929386"><ele>163.619</ele><time>2026-08-17T01:47:11.649Z</time><hdop>4.0</hdop><vdop>2.5</vdop><extensions><gom:speed>0.41</gom:speed></extensions></trkpt>
   <trkpt lat="59.3256894893" lon="34.7136905916"><ele>163.454</ele><time>2026-08-17T01:47:12.648Z</time><hdop>4.0</hdop><vdop>2.5</vdop><extensions><gom:speed>0.249</gom:speed></extensions></trkpt>
   <trkpt lat="59.3256906627" lon="34.71368858"><ele>163.358</ele><time>2026-08-17T01:47:13.652Z</time><hdop>4.125</hdop><vdop>2.5</vdop><extensions><gom:speed>0.25</gom:speed></extensions></trkpt>
   <trkpt lat="59.3256899922" lon="34.7136882447"><ele>163.304</ele><time>2026-08-17T01:47:14.652Z</time><hdop>4.187</hdop><vdop>2.5</vdop><extensions><gom:speed>0.212</gom:speed></extensions></trkpt>
   <trkpt lat="59.3256880644" lon="34.7136916813"><ele>163.274</ele><time>2026-08-17T01:47:15.649Z</time><hdop>4.187</hdop><vdop>2.5</vdop><extensions><gom:speed>0.182</gom:speed></extensions></trkpt>
   <trkpt lat="59.3256868909" lon="34.7136920166"><ele>163.259</ele><time>2026-08-17T01:47:16.656Z</time><hdop>4.25</hdop><vdop>2.5</vdop><extensions><gom:speed>0.181</gom:speed></extensions></trkpt>
   <trkpt lat="59.3256861784" lon="34.7136942797"><ele>163.251</ele><time>2026-08-17T01:47:17.649Z</time><hdop>4.312</hdop><vdop>2.5</vdop><extensions><gom:speed>0.152</gom:speed></extensions></trkpt>
   <trkpt lat="59.3256861784" lon="34.713695034"><ele>163.247</ele><time>2026-08-17T01:47:18.649Z</time><hdop>4.312</hdop><vdop>2.5</vdop><extensions><gom:speed>0.141</gom:speed></extensions></trkpt>
   <trkpt lat="59.3256864718" lon="34.7136956208"><ele>163.245</ele><time>2026-08-17T01:47:19.648Z</time><hdop>4.25</hdop><vdop>2.5</vdop><extensions><gom:speed>0.137</gom:speed></extensions></trkpt>
   <trkpt lat="59.3256866813" lon="34.7136963751"><ele>163.248</ele><time>2026-08-17T01:47:20.649Z</time><hdop>4.25</hdop><vdop>2.5</vdop><extensions><gom:speed>0.129</gom:speed></extensions></trkpt>
   <trkpt lat="59.3256869747" lon="34.713695956"><ele>163.25</ele><time>2026-08-17T01:47:21.652Z</time><hdop>4.25</hdop><vdop>2.5</vdop><extensions><gom:speed>0.128</gom:speed></extensions></trkpt>
   <trkpt lat="59.3256876872" lon="34.713697381"><ele>163.252</ele><time>2026-08-17T01:47:22.652Z</time><hdop>4.187</hdop><vdop>2.5</vdop><extensions><gom:speed>0.122</gom:speed></extensions></trkpt>
   <trkpt lat="59.3256880644" lon="34.7136990573"><ele>163.255</ele><time>2026-08-17T01:47:23.652Z</time><hdop>4.125</hdop><vdop>2.5</vdop><extensions><gom:speed>0.119</gom:speed></extensions></trkpt>
   <trkpt lat="59.3256883996" lon="34.7137005661"><ele>163.262</ele><time>2026-08-17T01:47:24.649Z</time><hdop>4.125</hdop><vdop>2.5</vdop><extensions><gom:speed>0.118</gom:speed></extensions></trkpt>
   <trkpt lat="59.3256885673" lon="34.7137015719"><ele>163.271</ele><time>2026-08-17T01:47:25.661Z</time><hdop>4.062</hdop><vdop>2.5</vdop><extensions><gom:speed>0.117</gom:speed></extensions></trkpt>
   <trkpt lat="59.325688693" lon="34.7137021587"><ele>163.281</ele><time>2026-08-17T01:47:26.652Z</time><hdop>3.937</hdop><vdop>2.5</vdop><extensions><gom:speed>0.119</gom:speed></extensions></trkpt>
   <trkpt lat="59.3256887768" lon="34.7137028292"><ele>163.292</ele><time>2026-08-17T01:47:27.652Z</time><hdop>3.937</hdop><vdop>2.5</vdop><extensions><gom:speed>0.118</gom:speed></extensions></trkpt>
   <trkpt lat="59.3256888606" lon="34.7137034998"><ele>163.303</ele><time>2026-08-17T01:47:28.652Z</time><hdop>3.937</hdop><vdop>2.5</vdop><extensions><gom:speed>0.117</gom:speed></extensions></trkpt>
   <trkpt lat="59.3256888606" lon="34.7137049247"><ele>163.314</ele><time>2026-08-17T01:47:29.649Z</time><hdop>3.937</hdop><vdop>2.5</vdop><extensions><gom:speed>0.117</gom:speed></extensions></trkpt>
   <trkpt lat="59.3256889864" lon="34.7137051761"><ele>163.326</ele><time>2026-08-17T01:47:30.652Z</time><hdop>3.937</hdop><vdop>2.5</vdop><extensions><gom:speed>0.117</gom:speed></extensions></trkpt>
   <trkpt lat="59.3256887768" lon="34.7137062658"><ele>163.337</ele><time>2026-08-17T01:47:31.648Z</time><hdop>3.937</hdop><vdop>2.5</vdop><extensions><gom:speed>0.118</gom:speed></extensions></trkpt>
   <trkpt lat="59.325688693" lon="34.7137071878"><ele>163.345</ele><time>2026-08-17T01:47:32.649Z</time><hdop>4.0</hdop><vdop>2.5</vdop><extensions><gom:speed>0.119</gom:speed></extensions></trkpt>
   <trkpt lat="59.3256888606" lon="34.7137072716"><ele>163.352</ele><time>2026-08-17T01:47:33.654Z</time><hdop>4.0</hdop><vdop>2.5</vdop><extensions><gom:speed>0.119</gom:speed></extensions></trkpt>
   <trkpt lat="59.3256888606" lon="34.7137078583"><ele>163.361</ele><time>2026-08-17T01:47:34.666Z</time><hdop>4.062</hdop><vdop>2.5</vdop><extensions><gom:speed>0.117</gom:speed></extensions></trkpt>
   <trkpt lat="59.3256887768" lon="34.7137084451"><ele>163.369</ele><time>2026-08-17T01:47:35.652Z</time><hdop>4.125</hdop><vdop>2.5</vdop><extensions><gom:speed>0.116</gom:speed></extensions></trkpt>
   <trkpt lat="59.325688693" lon="34.7137096185"><ele>163.378</ele><time>2026-08-17T01:47:36.649Z</time><hdop>4.125</hdop><vdop>2.5</vdop><extensions><gom:speed>0.115</gom:speed></extensions></trkpt>
   <trkpt lat="59.325688693" lon="34.7137099538"><ele>163.387</ele><time>2026-08-17T01:47:37.652Z</time><hdop>4.187</hdop><vdop>2.5</vdop><extensions><gom:speed>0.115</gom:speed></extensions></trkpt>
   <trkpt lat="59.3256884835" lon="34.7137109597"><ele>163.397</ele><time>2026-08-17T01:47:38.649Z</time><hdop>4.187</hdop><vdop>2.5</vdop><extensions><gom:speed>0.117</gom:speed></extensions></trkpt>
   <trkpt lat="59.3256884835" lon="34.7137115464"><ele>163.406</ele><time>2026-08-17T01:47:39.649Z</time><hdop>4.25</hdop><vdop>2.5</vdop><extensions><gom:speed>0.117</gom:speed></extensions></trkpt>
   <trkpt lat="59.3256884835" lon="34.7137116302"><ele>163.415</ele><time>2026-08-17T01:47:40.652Z</time><hdop>4.25</hdop><vdop>2.5</vdop><extensions><gom:speed>0.117</gom:speed></extensions></trkpt>
   <trkpt lat="59.3256882739" lon="34.7137125522"><ele>163.423</ele><time>2026-08-17T01:47:41.648Z</time><hdop>4.312</hdop><vdop>2.5</vdop><extensions><gom:speed>0.118</gom:speed></extensions></trkpt>
   <trkpt lat="59.3256883996" lon="34.7137128875"><ele>163.433</ele><time>2026-08-17T01:47:42.658Z</time><hdop>4.375</hdop><vdop>2.5</vdop><extensions><gom:speed>0.118</gom:speed></extensions></trkpt>
   <trkpt lat="59.3256881901" lon="34.7137136419"><ele>163.443</ele><time>2026-08-17T01:47:43.649Z</time><hdop>4.375</hdop><vdop>2.5</vdop><extensions><gom:speed>0.117</gom:speed></extensions></trkpt>
   <trkpt lat="59.3256881901" lon="34.7137141448"><ele>163.451</ele><time>2026-08-17T01:47:44.649Z</time><hdop>4.375</hdop><vdop>2.5</vdop><extensions><gom:speed>0.116</gom:speed></extensions></trkpt>
   <trkpt lat="59.3256882739" lon="34.7137142286"><ele>163.459</ele><time>2026-08-17T01:47:45.652Z</time><hdop>4.437</hdop><vdop>2.5</vdop><extensions><gom:speed>0.116</gom:speed></extensions></trkpt>
   <trkpt lat="59.3256881901" lon="34.7137150668"><ele>163.467</ele><time>2026-08-17T01:47:46.649Z</time><hdop>4.5</hdop><vdop>2.5</vdop><extensions><gom:speed>0.113</gom:speed></extensions></trkpt>
   <trkpt lat="59.3256882739" lon="34.7137151506"><ele>163.474</ele><time>2026-08-17T01:47:47.652Z</time><hdop>4.5</hdop><vdop>2.5</vdop><extensions><gom:speed>0.113</gom:speed></extensions></trkpt>
   <trkpt lat="59.3256880644" lon="34.7137157373"><ele>163.482</ele><time>2026-08-17T01:47:48.649Z</time><hdop>4.5</hdop><vdop>2.5</vdop><extensions><gom:speed>0.112</gom:speed></extensions></trkpt>
   <trkpt lat="59.3256881901" lon="34.7137160726"><ele>163.49</ele><time>2026-08-17T01:47:49.652Z</time><hdop>4.562</hdop><vdop>2.5</vdop><extensions><gom:speed>0.112</gom:speed></extensions></trkpt>
   <trkpt lat="59.3256881901" lon="34.7137164917"><ele>163.496</ele><time>2026-08-17T01:47:50.651Z</time><hdop>4.562</hdop><vdop>2.5</vdop><extensions><gom:speed>0.114</gom:speed></extensions></trkpt>
   <trkpt lat="59.3256879805" lon="34.7137172461"><ele>163.504</ele><time>2026-08-17T01:47:51.648Z</time><hdop>4.5</hdop><vdop>2.5</vdop><extensions><gom:speed>0.113</gom:speed></extensions></trkpt>
   <trkpt lat="59.3256880644" lon="34.7137176652"><ele>163.511</ele><time>2026-08-17T01:47:52.652Z</time><hdop>4.5</hdop><vdop>2.5</vdop><extensions><gom:speed>0.113</gom:speed></extensions></trkpt>
   <trkpt lat="59.3256874776" lon="34.7137184195"><ele>163.517</ele><time>2026-08-17T01:47:53.649Z</time><hdop>4.5</hdop><vdop>2.5</vdop><extensions><gom:speed>0.117</gom:speed></extensions></trkpt>
   <trkpt lat="59.3256873938" lon="34.7137188386"><ele>163.524</ele><time>2026-08-17T01:47:54.652Z</time><hdop>4.562</hdop><vdop>2.5</vdop><extensions><gom:speed>0.117</gom:speed></extensions></trkpt>
   <trkpt lat="59.3256871843" lon="34.7137192577"><ele>163.532</ele><time>2026-08-17T01:47:55.649Z</time><hdop>4.5</hdop><vdop>2.5</vdop><extensions><gom:speed>0.115</gom:speed></extensions></trkpt>
   <trkpt lat="59.3256871843" lon="34.7137194254"><ele>163.538</ele><time>2026-08-17T01:47:56.652Z</time><hdop>4.562</hdop><vdop>2.5</vdop><extensions><gom:speed>0.115</gom:speed></extensions></trkpt>
   <trkpt lat="59.3256871843" lon="34.7137197606"><ele>163.545</ele><time>2026-08-17T01:47:57.653Z</time><hdop>4.625</hdop><vdop>2.5</vdop><extensions><gom:speed>0.115</gom:speed></extensions></trkpt>
   <trkpt lat="59.3256870585" lon="34.7137201797"><ele>163.551</ele><time>2026-08-17T01:47:58.652Z</time><hdop>4.687</hdop><vdop>2.5</vdop><extensions><gom:speed>0.114</gom:speed></extensions></trkpt>
   <trkpt lat="59.3256869747" lon="34.7137203474"><ele>163.558</ele><time>2026-08-17T01:47:59.656Z</time><hdop>4.687</hdop><vdop>2.5</vdop><extensions><gom:speed>0.116</gom:speed></extensions></trkpt>
   <trkpt lat="59.3256865975" lon="34.7137210179"><ele>163.593</ele><time>2026-08-17T01:48:00.649Z</time><hdop>4.687</hdop><vdop>2.5</vdop><extensions><gom:speed>0.283</gom:speed></extensions></trkpt>
   <trkpt lat="59.3256865975" lon="34.713722862"><ele>163.839</ele><time>2026-08-17T01:48:01.648Z</time><hdop>4.687</hdop><vdop>2.5</vdop><extensions><gom:speed>0.315</gom:speed></extensions></trkpt>
   <trkpt lat="59.325686388" lon="34.713722862"><ele>163.989</ele><time>2026-08-17T01:48:02.649Z</time><hdop>4.75</hdop><vdop>2.5</vdop><extensions><gom:speed>0.197</gom:speed></extensions></trkpt>
   <trkpt lat="59.3256856755" lon="34.7137225267"><ele>164.077</ele><time>2026-08-17T01:48:03.649Z</time><hdop>4.75</hdop><vdop>2.5</vdop><extensions><gom:speed>0.177</gom:speed></extensions></trkpt>
   <trkpt lat="59.3256855917" lon="34.713722359"><ele>164.13</ele><time>2026-08-17T01:48:04.652Z</time><hdop>4.812</hdop><vdop>2.5</vdop><extensions><gom:speed>0.175</gom:speed></extensions></trkpt>
   <trkpt lat="59.3256846697" lon="34.713723281"><ele>164.158</ele><time>2026-08-17T01:48:05.649Z</time><hdop>4.812</hdop><vdop>2.5</vdop><extensions><gom:speed>0.142</gom:speed></extensions></trkpt>
   <trkpt lat="59.3256844601" lon="34.7137241192"><ele>164.174</ele><time>2026-08-17T01:48:06.652Z</time><hdop>4.875</hdop><vdop>2.5</vdop><extensions><gom:speed>0.143</gom:speed></extensions></trkpt>
   <trkpt lat="59.32568358" lon="34.7137263824"><ele>164.188</ele><time>2026-08-17T01:48:07.649Z</time><hdop>4.875</hdop><vdop>2.5</vdop><extensions><gom:speed>0.128</gom:speed></extensions></trkpt>
   <trkpt lat="59.3256832867" lon="34.7137272205"><ele>164.152</ele><time>2026-08-17T01:48:08.661Z</time><hdop>4.937</hdop><vdop>2.5</vdop><extensions><gom:speed>0.128</gom:speed></extensions></trkpt>
   <trkpt lat="59.3256826999" lon="34.7137281426"><ele>164.138</ele><time>2026-08-17T01:48:09.672Z</time><hdop>4.937</hdop><vdop>2.5</vdop><extensions><gom:speed>0.196</gom:speed></extensions></trkpt>
   <trkpt lat="59.3256816941" lon="34.7137293998"><ele>164.13</ele><time>2026-08-17T01:48:10.649Z</time><hdop>4.937</hdop><vdop>2.5</vdop><extensions><gom:speed>0.181</gom:speed></extensions></trkpt>
   <trkpt lat="59.3256810655" lon="34.7137297351"><ele>164.125</ele><time>2026-08-17T01:48:11.652Z</time><hdop>5.0</hdop><vdop>2.5</vdop><extensions><gom:speed>0.181</gom:speed></extensions></trkpt>
   <trkpt lat="59.3256803949" lon="34.7137308248"><ele>164.121</ele><time>2026-08-17T01:48:12.649Z</time><hdop>5.0</hdop><vdop>2.5</vdop><extensions><gom:speed>0.162</gom:speed></extensions></trkpt>
   <trkpt lat="59.3256801854" lon="34.7137317468"><ele>164.119</ele><time>2026-08-17T01:48:13.653Z</time><hdop>5.0</hdop><vdop>2.5</vdop><extensions><gom:speed>0.161</gom:speed></extensions></trkpt>
   <trkpt lat="59.3256788862" lon="34.7137342613"><ele>164.117</ele><time>2026-08-17T01:48:14.649Z</time><hdop>4.687</hdop><vdop>2.5</vdop><extensions><gom:speed>0.092</gom:speed></extensions></trkpt>
   <trkpt lat="59.3256781737" lon="34.713735351"><ele>164.114</ele><time>2026-08-17T01:48:15.649Z</time><hdop>4.375</hdop><vdop>2.5</vdop><extensions><gom:speed>0.082</gom:speed></extensions></trkpt>
   <trkpt lat="59.3256778803" lon="34.7137360215"><ele>164.113</ele><time>2026-08-17T01:48:16.654Z</time><hdop>4.0</hdop><vdop>2.5</vdop><extensions><gom:speed>0.083</gom:speed></extensions></trkpt>
   <trkpt lat="59.3256773774" lon="34.7137369436"><ele>164.114</ele><time>2026-08-17T01:48:17.649Z</time><hdop>3.625</hdop><vdop>2.5</vdop><extensions><gom:speed>0.073</gom:speed></extensions></trkpt>
   <trkpt lat="59.3256772936" lon="34.7137375303"><ele>164.115</ele><time>2026-08-17T01:48:18.652Z</time><hdop>3.562</hdop><vdop>2.5</vdop><extensions><gom:speed>0.074</gom:speed></extensions></trkpt>
   <trkpt lat="59.3256769583" lon="34.7137376979"><ele>164.117</ele><time>2026-08-17T01:48:19.649Z</time><hdop>3.125</hdop><vdop>2.5</vdop><extensions><gom:speed>0.074</gom:speed></extensions></trkpt>
   <trkpt lat="59.3256767907" lon="34.7137380332"><ele>164.118</ele><time>2026-08-17T01:48:20.652Z</time><hdop>3.062</hdop><vdop>2.5</vdop><extensions><gom:speed>0.074</gom:speed></extensions></trkpt>
   <trkpt lat="59.3256764973" lon="34.713738117"><ele>164.121</ele><time>2026-08-17T01:48:21.648Z</time><hdop>3.0</hdop><vdop>2.5</vdop><extensions><gom:speed>0.078</gom:speed></extensions></trkpt>
   <trkpt lat="59.3256763716" lon="34.7137385361"><ele>164.124</ele><time>2026-08-17T01:48:22.652Z</time><hdop>3.0</hdop><vdop>2.5</vdop><extensions><gom:speed>0.078</gom:speed></extensions></trkpt>
   <trkpt lat="59.3256761621" lon="34.7137387876"><ele>164.128</ele><time>2026-08-17T01:48:23.653Z</time><hdop>3.0</hdop><vdop>2.5</vdop><extensions><gom:speed>0.076</gom:speed></extensions></trkpt>
   <trkpt lat="59.3256760782" lon="34.7137389552"><ele>164.133</ele><time>2026-08-17T01:48:24.652Z</time><hdop>3.0</hdop><vdop>2.5</vdop><extensions><gom:speed>0.076</gom:speed></extensions></trkpt>
   <trkpt lat="59.3256759944" lon="34.7137389552"><ele>164.138</ele><time>2026-08-17T01:48:25.659Z</time><hdop>3.0</hdop><vdop>2.5</vdop><extensions><gom:speed>0.075</gom:speed></extensions></trkpt>
   <trkpt lat="59.3256759944" lon="34.7137387876"><ele>164.143</ele><time>2026-08-17T01:48:26.649Z</time><hdop>3.0</hdop><vdop>2.5</vdop><extensions><gom:speed>0.077</gom:speed></extensions></trkpt>
   <trkpt lat="59.3256759944" lon="34.7137389552"><ele>164.146</ele><time>2026-08-17T01:48:27.649Z</time><hdop>3.0</hdop><vdop>2.5</vdop><extensions><gom:speed>0.08</gom:speed></extensions></trkpt>
   <trkpt lat="59.3256758687" lon="34.7137392905"><ele>164.149</ele><time>2026-08-17T01:48:28.652Z</time><hdop>3.0</hdop><vdop>2.5</vdop><extensions><gom:speed>0.08</gom:speed></extensions></trkpt>
   <trkpt lat="59.3256758687" lon="34.7137389552"><ele>164.15</ele><time>2026-08-17T01:48:29.650Z</time><hdop>3.0</hdop><vdop>2.5</vdop><extensions><gom:speed>0.076</gom:speed></extensions></trkpt>
   <trkpt lat="59.3256757849" lon="34.7137389552"><ele>164.151</ele><time>2026-08-17T01:48:30.652Z</time><hdop>3.0</hdop><vdop>2.5</vdop><extensions><gom:speed>0.076</gom:speed></extensions></trkpt>
   <trkpt lat="59.3256757849" lon="34.7137386199"><ele>164.148</ele><time>2026-08-17T01:48:31.648Z</time><hdop>3.0</hdop><vdop>2.5</vdop><extensions><gom:speed>0.072</gom:speed></extensions></trkpt>
   <trkpt lat="59.3256757849" lon="34.7137388714"><ele>164.146</ele><time>2026-08-17T01:48:32.652Z</time><hdop>3.0</hdop><vdop>2.5</vdop><extensions><gom:speed>0.072</gom:speed></extensions></trkpt>
   <trkpt lat="59.3256758687" lon="34.7137388714"><ele>164.143</ele><time>2026-08-17T01:48:33.651Z</time><hdop>3.0</hdop><vdop>2.5</vdop><extensions><gom:speed>0.071</gom:speed></extensions></trkpt>
   <trkpt lat="59.3256758687" lon="34.7137388714"><ele>164.14</ele><time>2026-08-17T01:48:34.649Z</time><hdop>3.0</hdop><vdop>2.5</vdop><extensions><gom:speed>0.071</gom:speed></extensions></trkpt>
   <trkpt lat="59.3256757849" lon="34.7137389552"><ele>164.136</ele><time>2026-08-17T01:48:35.653Z</time><hdop>3.0</hdop><vdop>2.5</vdop><extensions><gom:speed>0.072</gom:speed></extensions></trkpt>
   <trkpt lat="59.3256759944" lon="34.7137389552"><ele>164.131</ele><time>2026-08-17T01:48:36.649Z</time><hdop>3.0</hdop><vdop>2.5</vdop><extensions><gom:speed>0.068</gom:speed></extensions></trkpt>
   <trkpt lat="59.3256760782" lon="34.713739039"><ele>164.126</ele><time>2026-08-17T01:48:37.649Z</time><hdop>3.0</hdop><vdop>2.5</vdop><extensions><gom:speed>0.066</gom:speed></extensions></trkpt>
   <trkpt lat="59.3256761621" lon="34.7137391228"><ele>164.119</ele><time>2026-08-17T01:48:38.649Z</time><hdop>3.0</hdop><vdop>2.5</vdop><extensions><gom:speed>0.067</gom:speed></extensions></trkpt>
   <trkpt lat="59.3256765811" lon="34.7137391228"><ele>164.113</ele><time>2026-08-17T01:48:39.649Z</time><hdop>3.0</hdop><vdop>2.5</vdop><extensions><gom:speed>0.066</gom:speed></extensions></trkpt>
   <trkpt lat="59.325676665" lon="34.7137392905"><ele>164.107</ele><time>2026-08-17T01:48:40.652Z</time><hdop>3.0</hdop><vdop>2.5</vdop><extensions><gom:speed>0.066</gom:speed></extensions></trkpt>
   <trkpt lat="59.325676665" lon="34.7137395419"><ele>164.103</ele><time>2026-08-17T01:48:41.649Z</time><hdop>3.0</hdop><vdop>2.5</vdop><extensions><gom:speed>0.073</gom:speed></extensions></trkpt>
   <trkpt lat="59.325676665" lon="34.7137397934"><ele>164.102</ele><time>2026-08-17T01:48:42.656Z</time><hdop>3.0</hdop><vdop>2.5</vdop><extensions><gom:speed>0.073</gom:speed></extensions></trkpt>
   <trkpt lat="59.325676665" lon="34.713739961"><ele>164.102</ele><time>2026-08-17T01:48:43.649Z</time><hdop>3.0</hdop><vdop>2.5</vdop><extensions><gom:speed>0.071</gom:speed></extensions></trkpt>
   <trkpt lat="59.3256765811" lon="34.7137402963"><ele>164.103</ele><time>2026-08-17T01:48:44.652Z</time><hdop>3.0</hdop><vdop>2.5</vdop><extensions><gom:speed>0.071</gom:speed></extensions></trkpt>
   <trkpt lat="59.325676665" lon="34.7137402963"><ele>164.105</ele><time>2026-08-17T01:48:45.648Z</time><hdop>3.0</hdop><vdop>2.5</vdop><extensions><gom:speed>0.072</gom:speed></extensions></trkpt>
   <trkpt lat="59.325676665" lon="34.713740464"><ele>164.106</ele><time>2026-08-17T01:48:46.652Z</time><hdop>3.0</hdop><vdop>2.5</vdop><extensions><gom:speed>0.072</gom:speed></extensions></trkpt>
   <trkpt lat="59.3256769583" lon="34.7137406316"><ele>164.109</ele><time>2026-08-17T01:48:47.652Z</time><hdop>3.0</hdop><vdop>2.5</vdop><extensions><gom:speed>0.074</gom:speed></extensions></trkpt>
   <trkpt lat="59.3256769583" lon="34.7137407992"><ele>164.112</ele><time>2026-08-17T01:48:48.648Z</time><hdop>3.0</hdop><vdop>2.5</vdop><extensions><gom:speed>0.074</gom:speed></extensions></trkpt>
   <trkpt lat="59.3256769583" lon="34.713740883"><ele>164.115</ele><time>2026-08-17T01:48:49.652Z</time><hdop>3.0</hdop><vdop>2.5</vdop><extensions><gom:speed>0.075</gom:speed></extensions></trkpt>
   <trkpt lat="59.3256770841" lon="34.7137407992"><ele>164.275</ele><time>2026-08-17T01:48:50.649Z</time><hdop>3.0</hdop><vdop>2.5</vdop><extensions><gom:speed>0.123</gom:speed></extensions></trkpt>
   <trkpt lat="59.3256772936" lon="34.7137414698"><ele>164.329</ele><time>2026-08-17T01:48:51.649Z</time><hdop>3.0</hdop><vdop>2.5</vdop><extensions><gom:speed>0.103</gom:speed></extensions></trkpt>
   <trkpt lat="59.3256776708" lon="34.7137419727"><ele>164.362</ele><time>2026-08-17T01:48:52.649Z</time><hdop>3.0</hdop><vdop>2.5</vdop><extensions><gom:speed>0.091</gom:speed></extensions></trkpt>
   <trkpt lat="59.3256777965" lon="34.7137416374"><ele>164.381</ele><time>2026-08-17T01:48:53.178Z</time><hdop>3.0</hdop><vdop>2.5</vdop><extensions><gom:speed>0.091</gom:speed></extensions></trkpt>
   <trkpt lat="59.3256776708" lon="34.7137420565"><ele>164.396</ele><time>2026-08-17T01:48:53.652Z</time><hdop>3.0</hdop><vdop>2.5</vdop><extensions><gom:speed>0.091</gom:speed></extensions></trkpt>
   <trkpt lat="59.3256779642" lon="34.7137421403"><ele>164.407</ele><time>2026-08-17T01:48:54.652Z</time><hdop>3.0</hdop><vdop>2.5</vdop><extensions><gom:speed>0.08</gom:speed></extensions></trkpt>
   <trkpt lat="59.3256783833" lon="34.7137422242"><ele>164.416</ele><time>2026-08-17T01:48:55.649Z</time><hdop>3.0</hdop><vdop>2.5</vdop><extensions><gom:speed>0.071</gom:speed></extensions></trkpt>
   <trkpt lat="59.3256785928" lon="34.7137424756"><ele>164.424</ele><time>2026-08-17T01:48:56.652Z</time><hdop>3.0</hdop><vdop>2.5</vdop><extensions><gom:speed>0.071</gom:speed></extensions></trkpt>
   <trkpt lat="59.3256786766" lon="34.7137425594"><ele>164.429</ele><time>2026-08-17T01:48:57.649Z</time><hdop>3.0</hdop><vdop>2.5</vdop><extensions><gom:speed>0.065</gom:speed></extensions></trkpt>
   <trkpt lat="59.3256788862" lon="34.7137425594"><ele>164.434</ele><time>2026-08-17T01:48:58.648Z</time><hdop>3.0</hdop><vdop>2.5</vdop><extensions><gom:speed>0.065</gom:speed></extensions></trkpt>
   <trkpt lat="59.32567897" lon="34.7137428947"><ele>164.438</ele><time>2026-08-17T01:48:59.653Z</time><hdop>3.0</hdop><vdop>2.5</vdop><extensions><gom:speed>0.066</gom:speed></extensions></trkpt>
   <trkpt lat="59.3256791795" lon="34.7137428947"><ele>164.441</ele><time>2026-08-17T01:49:00.650Z</time><hdop>3.0</hdop><vdop>2.5</vdop><extensions><gom:speed>0.063</gom:speed></extensions></trkpt>
   <trkpt lat="59.3256792634" lon="34.7137429785"><ele>164.445</ele><time>2026-08-17T01:49:01.652Z</time><hdop>3.0</hdop><vdop>2.5</vdop><extensions><gom:speed>0.064</gom:speed></extensions></trkpt>
   <trkpt lat="59.3256795986" lon="34.7137431462"><ele>164.45</ele><time>2026-08-17T01:49:02.648Z</time><hdop>3.0</hdop><vdop>2.5</vdop><extensions><gom:speed>0.064</gom:speed></extensions></trkpt>
   <trkpt lat="59.3256796825" lon="34.7137433976"><ele>164.456</ele><time>2026-08-17T01:49:03.652Z</time><hdop>3.0</hdop><vdop>2.5</vdop><extensions><gom:speed>0.064</gom:speed></extensions></trkpt>
   <trkpt lat="59.3256796825" lon="34.71374323"><ele>164.459</ele><time>2026-08-17T01:49:04.307Z</time><hdop>3.0</hdop><vdop>2.5</vdop><extensions><gom:speed>0.064</gom:speed></extensions></trkpt>
   <trkpt lat="59.3256799758" lon="34.7137436491"><ele>164.466</ele><time>2026-08-17T01:49:05.649Z</time><hdop>3.0</hdop><vdop>2.5</vdop><extensions><gom:speed>0.066</gom:speed></extensions></trkpt>
   <trkpt lat="59.3256800596" lon="34.7137438167"><ele>164.471</ele><time>2026-08-17T01:49:06.652Z</time><hdop>3.0</hdop><vdop>2.5</vdop><extensions><gom:speed>0.066</gom:speed></extensions></trkpt>
   <trkpt lat="59.3256802692" lon="34.7137438167"><ele>164.474</ele><time>2026-08-17T01:49:07.649Z</time><hdop>3.0</hdop><vdop>2.5</vdop><extensions><gom:speed>0.067</gom:speed></extensions></trkpt>
   <trkpt lat="59.3256802692" lon="34.7137440682"><ele>164.475</ele><time>2026-08-17T01:49:08.658Z</time><hdop>3.0</hdop><vdop>2.5</vdop><extensions><gom:speed>0.067</gom:speed></extensions></trkpt>
   <trkpt lat="59.3256802692" lon="34.713744152"><ele>164.478</ele><time>2026-08-17T01:49:09.649Z</time><hdop>3.0</hdop><vdop>2.5</vdop><extensions><gom:speed>0.068</gom:speed></extensions></trkpt>
   <trkpt lat="59.3256802692" lon="34.7137443196"><ele>164.48</ele><time>2026-08-17T01:49:10.652Z</time><hdop>3.0</hdop><vdop>2.5</vdop><extensions><gom:speed>0.069</gom:speed></extensions></trkpt>
   <trkpt lat="59.3256803949" lon="34.7137443196"><ele>164.482</ele><time>2026-08-17T01:49:11.652Z</time><hdop>3.0</hdop><vdop>2.5</vdop><extensions><gom:speed>0.068</gom:speed></extensions></trkpt>
   <trkpt lat="59.3256806883" lon="34.7137443196"><ele>164.485</ele><time>2026-08-17T01:49:12.649Z</time><hdop>3.0</hdop><vdop>2.5</vdop><extensions><gom:speed>0.071</gom:speed></extensions></trkpt>
   <trkpt lat="59.3256806883" lon="34.7137445711"><ele>164.425</ele><time>2026-08-17T01:49:13.652Z</time><hdop>3.0</hdop><vdop>2.5</vdop><extensions><gom:speed>0.071</gom:speed></extensions></trkpt>
   <trkpt lat="59.3256806883" lon="34.7137451578"><ele>164.387</ele><time>2026-08-17T01:49:14.649Z</time><hdop>3.0</hdop><vdop>2.5</vdop><extensions><gom:speed>0.119</gom:speed></extensions></trkpt>
   <trkpt lat="59.3256807721" lon="34.7137457445"><ele>164.395</ele><time>2026-08-17T01:49:15.653Z</time><hdop>3.0</hdop><vdop>2.5</vdop><extensions><gom:speed>0.123</gom:speed></extensions></trkpt>
   <trkpt lat="59.3256809816" lon="34.7137476724"><ele>164.418</ele><time>2026-08-17T01:49:16.652Z</time><hdop>3.0</hdop><vdop>2.5</vdop><extensions><gom:speed>0.268</gom:speed></extensions></trkpt>
   <trkpt lat="59.3256813588" lon="34.7137474209"><ele>164.432</ele><time>2026-08-17T01:49:17.431Z</time><hdop>3.0</hdop><vdop>2.5</vdop><extensions><gom:speed>0.323</gom:speed></extensions></trkpt>
   <trkpt lat="59.325682197" lon="34.7137457445"><ele>164.451</ele><time>2026-08-17T01:49:18.229Z</time><hdop>3.0</hdop><vdop>2.5</vdop><extensions><gom:speed>0.1</gom:speed></extensions></trkpt>
   <trkpt lat="59.32568358" lon="34.7137374465"><ele>164.346</ele><time>2026-08-17T01:49:19.150Z</time><hdop>3.0</hdop><vdop>2.5</vdop><extensions><gom:speed>0.118</gom:speed></extensions></trkpt>
   <trkpt lat="59.325684083" lon="34.7137301542"><ele>164.169</ele><time>2026-08-17T01:49:19.648Z</time><hdop>3.0</hdop><vdop>2.5</vdop><extensions><gom:speed>0.149</gom:speed></extensions></trkpt>
   <trkpt lat="59.3256851726" lon="34.7137222752"><ele>163.935</ele><time>2026-08-17T01:49:20.652Z</time><hdop>3.0</hdop><vdop>2.5</vdop><extensions><gom:speed>0.28</gom:speed></extensions></trkpt>
   <trkpt lat="59.3256831609" lon="34.7137109597"><ele>163.796</ele><time>2026-08-17T01:49:21.508Z</time><hdop>3.0</hdop><vdop>2.5</vdop><extensions><gom:speed>0.382</gom:speed></extensions></trkpt>
   <trkpt lat="59.3256765811" lon="34.7136908431"><ele>163.598</ele><time>2026-08-17T01:49:22.225Z</time><hdop>3.062</hdop><vdop>2.5</vdop><extensions><gom:speed>0.445</gom:speed></extensions></trkpt>
   <trkpt lat="59.3256720968" lon="34.713682545"><ele>163.276</ele><time>2026-08-17T01:49:23.005Z</time><hdop>3.062</hdop><vdop>2.5</vdop><extensions><gom:speed>0.443</gom:speed></extensions></trkpt>
   <trkpt lat="59.3256690793" lon="34.7136762586"><ele>163.204</ele><time>2026-08-17T01:49:23.652Z</time><hdop>3.062</hdop><vdop>2.5</vdop><extensions><gom:speed>0.465</gom:speed></extensions></trkpt>
   <trkpt lat="59.3256617871" lon="34.7136617579"><ele>163.438</ele><time>2026-08-17T01:49:24.649Z</time><hdop>3.062</hdop><vdop>2.5</vdop><extensions><gom:speed>0.457</gom:speed></extensions></trkpt>
   <trkpt lat="59.3256578895" lon="34.7136560582"><ele>163.578</ele><time>2026-08-17T01:49:25.413Z</time><hdop>3.062</hdop><vdop>2.5</vdop><extensions><gom:speed>0.43</gom:speed></extensions></trkpt>
   <trkpt lat="59.3256527765" lon="34.7136458323"><ele>163.422</ele><time>2026-08-17T01:49:26.649Z</time><hdop>3.062</hdop><vdop>2.5</vdop><extensions><gom:speed>0.432</gom:speed></extensions></trkpt>
   <trkpt lat="59.3256485856" lon="34.7136391267"><ele>163.329</ele><time>2026-08-17T01:49:27.284Z</time><hdop>3.0</hdop><vdop>2.5</vdop><extensions><gom:speed>0.5</gom:speed></extensions></trkpt>
   <trkpt lat="59.3256453586" lon="34.7136316668"><ele>162.828</ele><time>2026-08-17T01:49:27.851Z</time><hdop>3.0</hdop><vdop>2.562</vdop><extensions><gom:speed>0.636</gom:speed></extensions></trkpt>
   <trkpt lat="59.3256424668" lon="34.7136245422"><ele>162.528</ele><time>2026-08-17T01:49:28.488Z</time><hdop>3.0</hdop><vdop>2.562</vdop><extensions><gom:speed>0.642</gom:speed></extensions></trkpt>
   <trkpt lat="59.3256434726" lon="34.7136161603"><ele>162.37</ele><time>2026-08-17T01:49:29.288Z</time><hdop>3.0</hdop><vdop>2.562</vdop><extensions><gom:speed>0.5</gom:speed></extensions></trkpt>
   <trkpt lat="59.3256489628" lon="34.7136020787"><ele>161.727</ele><time>2026-08-17T01:49:30.649Z</time><hdop>3.0</hdop><vdop>2.687</vdop><extensions><gom:speed>0.539</gom:speed></extensions></trkpt>
   <trkpt lat="59.3256503877" lon="34.7135955408"><ele>161.342</ele><time>2026-08-17T01:49:31.311Z</time><hdop>3.0</hdop><vdop>2.687</vdop><extensions><gom:speed>0.496</gom:speed></extensions></trkpt>
   <trkpt lat="59.3256544948" lon="34.7135900926"><ele>161.004</ele><time>2026-08-17T01:49:32.313Z</time><hdop>3.0</hdop><vdop>2.687</vdop><extensions><gom:speed>0.373</gom:speed></extensions></trkpt>
   <trkpt lat="59.325657177" lon="34.7135785256"><ele>160.992</ele><time>2026-08-17T01:49:33.588Z</time><hdop>3.0</hdop><vdop>2.75</vdop><extensions><gom:speed>0.392</gom:speed></extensions></trkpt>
   <trkpt lat="59.3256604879" lon="34.7135691378"><ele>160.749</ele><time>2026-08-17T01:49:34.164Z</time><hdop>3.0</hdop><vdop>2.875</vdop><extensions><gom:speed>0.383</gom:speed></extensions></trkpt>
   <trkpt lat="59.3256607813" lon="34.713565366"><ele>160.496</ele><time>2026-08-17T01:49:34.660Z</time><hdop>3.0</hdop><vdop>3.062</vdop><extensions><gom:speed>0.333</gom:speed></extensions></trkpt>
   <trkpt lat="59.3256631701" lon="34.7135522902"><ele>160.646</ele><time>2026-08-17T01:49:35.649Z</time><hdop>3.0</hdop><vdop>2.875</vdop><extensions><gom:speed>0.295</gom:speed></extensions></trkpt>
   <trkpt lat="59.3256638826" lon="34.7135441598"><ele>160.646</ele><time>2026-08-17T01:49:36.652Z</time><hdop>3.0</hdop><vdop>3.062</vdop><extensions><gom:speed>0.307</gom:speed></extensions></trkpt>
   <trkpt lat="59.3256649722" lon="34.7135326766"><ele>161.084</ele><time>2026-08-17T01:49:37.652Z</time><hdop>3.0</hdop><vdop>3.0</vdop><extensions><gom:speed>0.351</gom:speed></extensions></trkpt>
   <trkpt lat="59.3256660619" lon="34.7135252167"><ele>161.346</ele><time>2026-08-17T01:49:38.302Z</time><hdop>3.0</hdop><vdop>3.0</vdop><extensions><gom:speed>0.338</gom:speed></extensions></trkpt>
   <trkpt lat="59.3256673611" lon="34.7135137335"><ele>161.404</ele><time>2026-08-17T01:49:39.193Z</time><hdop>3.0</hdop><vdop>3.187</vdop><extensions><gom:speed>0.311</gom:speed></extensions></trkpt>
   <trkpt lat="59.3256682831" lon="34.7135083691"><ele>161.315</ele><time>2026-08-17T01:49:39.652Z</time><hdop>3.0</hdop><vdop>3.437</vdop><extensions><gom:speed>0.323</gom:speed></extensions></trkpt>
   <trkpt lat="59.3256707976" lon="34.7134928625"><ele>160.958</ele><time>2026-08-17T01:49:40.649Z</time><hdop>3.0</hdop><vdop>3.25</vdop><extensions><gom:speed>0.355</gom:speed></extensions></trkpt>
   <trkpt lat="59.3256711748" lon="34.7134866599"><ele>160.745</ele><time>2026-08-17T01:49:41.267Z</time><hdop>3.0</hdop><vdop>3.25</vdop><extensions><gom:speed>0.338</gom:speed></extensions></trkpt>
   <trkpt lat="59.3256712586" lon="34.7134807926"><ele>160.464</ele><time>2026-08-17T01:49:42.370Z</time><hdop>3.0</hdop><vdop>3.25</vdop><extensions><gom:speed>0.291</gom:speed></extensions></trkpt>
   <trkpt lat="59.3256712586" lon="34.7134784457"><ele>160.056</ele><time>2026-08-17T01:49:43.665Z</time><hdop>3.062</hdop><vdop>3.812</vdop><extensions><gom:speed>0.176</gom:speed></extensions></trkpt>
   <trkpt lat="59.3256715939" lon="34.7134753444"><ele>159.943</ele><time>2026-08-17T01:49:44.676Z</time><hdop>3.125</hdop><vdop>3.875</vdop><extensions><gom:speed>0.135</gom:speed></extensions></trkpt>
   <trkpt lat="59.3256718873" lon="34.7134734165"><ele>159.875</ele><time>2026-08-17T01:49:45.648Z</time><hdop>3.187</hdop><vdop>3.875</vdop><extensions><gom:speed>0.171</gom:speed></extensions></trkpt>
   <trkpt lat="59.325672474" lon="34.713470399"><ele>160.15</ele><time>2026-08-17T01:49:46.652Z</time><hdop>3.375</hdop><vdop>2.937</vdop><extensions><gom:speed>0.135</gom:speed></extensions></trkpt>
   <trkpt lat="59.3256726836" lon="34.7134661243"><ele>160.314</ele><time>2026-08-17T01:49:47.490Z</time><hdop>3.437</hdop><vdop>2.937</vdop><extensions><gom:speed>0.172</gom:speed></extensions></trkpt>
   <trkpt lat="59.3256715939" lon="34.7134589996"><ele>160.809</ele><time>2026-08-17T01:49:48.693Z</time><hdop>3.625</hdop><vdop>2.75</vdop><extensions><gom:speed>0.159</gom:speed></extensions></trkpt>
   <trkpt lat="59.3256705881" lon="34.7134568203"><ele>161.042</ele><time>2026-08-17T01:49:49.432Z</time><hdop>3.687</hdop><vdop>3.0</vdop><extensions><gom:speed>0.169</gom:speed></extensions></trkpt>
   <trkpt lat="59.3256665648" lon="34.7134502825"><ele>161.261</ele><time>2026-08-17T01:49:50.505Z</time><hdop>3.75</hdop><vdop>3.062</vdop><extensions><gom:speed>0.222</gom:speed></extensions></trkpt>
   <trkpt lat="59.3256641759" lon="34.7134436608"><ele>161.618</ele><time>2026-08-17T01:49:51.658Z</time><hdop>3.812</hdop><vdop>3.0</vdop><extensions><gom:speed>0.216</gom:speed></extensions></trkpt>
   <trkpt lat="59.3256621643" lon="34.7134359494"><ele>162.317</ele><time>2026-08-17T01:49:52.669Z</time><hdop>3.875</hdop><vdop>2.875</vdop><extensions><gom:speed>0.239</gom:speed></extensions></trkpt>
   <trkpt lat="59.3256584762" lon="34.7134227898"><ele>162.739</ele><time>2026-08-17T01:49:53.649Z</time><hdop>3.875</hdop><vdop>2.75</vdop><extensions><gom:speed>0.238</gom:speed></extensions></trkpt>
   <trkpt lat="59.3256569675" lon="34.7134161681"><ele>163.2</ele><time>2026-08-17T01:49:54.652Z</time><hdop>3.875</hdop><vdop>2.687</vdop><extensions><gom:speed>0.233</gom:speed></extensions></trkpt>
   <trkpt lat="59.3256547882" lon="34.7134047687"><ele>163.365</ele><time>2026-08-17T01:49:55.653Z</time><hdop>3.937</hdop><vdop>2.5</vdop><extensions><gom:speed>0.226</gom:speed></extensions></trkpt>
   <trkpt lat="59.3256533633" lon="34.7133960515"><ele>163.586</ele><time>2026-08-17T01:49:56.652Z</time><hdop>3.937</hdop><vdop>2.5</vdop><extensions><gom:speed>0.24</gom:speed></extensions></trkpt>
   <trkpt lat="59.3256526927" lon="34.7133845683"><ele>163.718</ele><time>2026-08-17T01:49:57.527Z</time><hdop>3.937</hdop><vdop>2.5</vdop><extensions><gom:speed>0.276</gom:speed></extensions></trkpt>
   <trkpt lat="59.3256514773" lon="34.7133733366"><ele>163.891</ele><time>2026-08-17T01:49:58.569Z</time><hdop>4.0</hdop><vdop>2.562</vdop><extensions><gom:speed>0.256</gom:speed></extensions></trkpt>
   <trkpt lat="59.3256505972" lon="34.7133641165"><ele>164.155</ele><time>2026-08-17T01:49:59.650Z</time><hdop>4.062</hdop><vdop>2.812</vdop><extensions><gom:speed>0.265</gom:speed></extensions></trkpt>
   <trkpt lat="59.3256504715" lon="34.7133597579"><ele>164.312</ele><time>2026-08-17T01:50:00.460Z</time><hdop>4.062</hdop><vdop>2.812</vdop><extensions><gom:speed>0.239</gom:speed></extensions></trkpt>
   <trkpt lat="59.3256504715" lon="34.7133439999"><ele>164.419</ele><time>2026-08-17T01:50:01.553Z</time><hdop>4.125</hdop><vdop>2.687</vdop><extensions><gom:speed>0.222</gom:speed></extensions></trkpt>
   <trkpt lat="59.3256512678" lon="34.713337462"><ele>164.48</ele><time>2026-08-17T01:50:02.493Z</time><hdop>4.125</hdop><vdop>2.812</vdop><extensions><gom:speed>0.204</gom:speed></extensions></trkpt>
   <trkpt lat="59.3256521898" lon="34.7133264818"><ele>164.683</ele><time>2026-08-17T01:50:03.687Z</time><hdop>4.187</hdop><vdop>2.812</vdop><extensions><gom:speed>0.172</gom:speed></extensions></trkpt>
   <trkpt lat="59.3256530699" lon="34.7133181837"><ele>164.726</ele><time>2026-08-17T01:50:04.527Z</time><hdop>4.187</hdop><vdop>2.687</vdop><extensions><gom:speed>0.225</gom:speed></extensions></trkpt>
   <trkpt lat="59.3256552911" lon="34.7133049403"><ele>164.608</ele><time>2026-08-17T01:50:05.306Z</time><hdop>4.25</hdop><vdop>2.937</vdop><extensions><gom:speed>0.315</gom:speed></extensions></trkpt>
   <trkpt lat="59.3256575961" lon="34.7132942952"><ele>164.638</ele><time>2026-08-17T01:50:06.024Z</time><hdop>4.312</hdop><vdop>3.187</vdop><extensions><gom:speed>0.345</gom:speed></extensions></trkpt>
   <trkpt lat="59.3256604879" lon="34.7132801298"><ele>165.106</ele><time>2026-08-17T01:50:06.649Z</time><hdop>4.437</hdop><vdop>3.125</vdop><extensions><gom:speed>0.369</gom:speed></extensions></trkpt>
   <trkpt lat="59.3256615775" lon="34.7132740949"><ele>165.386</ele><time>2026-08-17T01:50:07.127Z</time><hdop>4.437</hdop><vdop>3.125</vdop><extensions><gom:speed>0.395</gom:speed></extensions></trkpt>
   <trkpt lat="59.32566229" lon="34.7132652939"><ele>164.717</ele><time>2026-08-17T01:50:07.649Z</time><hdop>4.437</hdop><vdop>2.625</vdop><extensions><gom:speed>0.388</gom:speed></extensions></trkpt>
   <trkpt lat="59.3256625834" lon="34.7132604324"><ele>164.318</ele><time>2026-08-17T01:50:08.190Z</time><hdop>4.437</hdop><vdop>2.625</vdop><extensions><gom:speed>0.36</gom:speed></extensions></trkpt>
   <trkpt lat="59.3256626672" lon="34.7132568281"><ele>164.304</ele><time>2026-08-17T01:50:08.655Z</time><hdop>4.5</hdop><vdop>2.75</vdop><extensions><gom:speed>0.375</gom:speed></extensions></trkpt>
   <trkpt lat="59.32566229" lon="34.7132487815"><ele>164.296</ele><time>2026-08-17T01:50:09.191Z</time><hdop>4.5</hdop><vdop>2.75</vdop><extensions><gom:speed>0.392</gom:speed></extensions></trkpt>
   <trkpt lat="59.3256618709" lon="34.713241154"><ele>164.37</ele><time>2026-08-17T01:50:09.648Z</time><hdop>4.5</hdop><vdop>2.687</vdop><extensions><gom:speed>0.383</gom:speed></extensions></trkpt>
   <trkpt lat="59.3256619966" lon="34.7132356219"><ele>164.414</ele><time>2026-08-17T01:50:10.295Z</time><hdop>4.5</hdop><vdop>2.687</vdop><extensions><gom:speed>0.353</gom:speed></extensions></trkpt>
   <trkpt lat="59.3256635892" lon="34.7132277429"><ele>164.476</ele><time>2026-08-17T01:50:11.690Z</time><hdop>4.5</hdop><vdop>2.625</vdop><extensions><gom:speed>0.217</gom:speed></extensions></trkpt>
   <trkpt lat="59.3256639664" lon="34.7132160921"><ele>164.737</ele><time>2026-08-17T01:50:12.649Z</time><hdop>4.5</hdop><vdop>2.625</vdop><extensions><gom:speed>0.234</gom:speed></extensions></trkpt>
   <trkpt lat="59.325664595" lon="34.7132118173"><ele>164.788</ele><time>2026-08-17T01:50:13.652Z</time><hdop>4.5</hdop><vdop>2.75</vdop><extensions><gom:speed>0.164</gom:speed></extensions></trkpt>
   <trkpt lat="59.3256646788" lon="34.7132052794"><ele>164.824</ele><time>2026-08-17T01:50:14.652Z</time><hdop>4.5</hdop><vdop>2.812</vdop><extensions><gom:speed>0.137</gom:speed></extensions></trkpt>
   <trkpt lat="59.325664595" lon="34.7131986577"><ele>164.392</ele><time>2026-08-17T01:50:15.652Z</time><hdop>4.437</hdop><vdop>2.75</vdop><extensions><gom:speed>0.129</gom:speed></extensions></trkpt>
   <trkpt lat="59.3256650979" lon="34.7131896891"><ele>164.131</ele><time>2026-08-17T01:50:16.649Z</time><hdop>4.375</hdop><vdop>2.812</vdop><extensions><gom:speed>0.179</gom:speed></extensions></trkpt>
   <trkpt lat="59.3256653913" lon="34.7131865878"><ele>163.975</ele><time>2026-08-17T01:50:17.652Z</time><hdop>4.312</hdop><vdop>2.562</vdop><extensions><gom:speed>0.064</gom:speed></extensions></trkpt>
   <trkpt lat="59.3256658942" lon="34.7131831512"><ele>163.883</ele><time>2026-08-17T01:50:18.652Z</time><hdop>4.312</hdop><vdop>2.562</vdop><extensions><gom:speed>0.041</gom:speed></extensions></trkpt>
   <trkpt lat="59.3256655589" lon="34.7131806366"><ele>163.825</ele><time>2026-08-17T01:50:19.652Z</time><hdop>4.25</hdop><vdop>2.562</vdop><extensions><gom:speed>0.031</gom:speed></extensions></trkpt>
   <trkpt lat="59.3256656847" lon="34.7131782897"><ele>163.791</ele><time>2026-08-17T01:50:20.270Z</time><hdop>4.187</hdop><vdop>2.562</vdop><extensions><gom:speed>0.072</gom:speed></extensions></trkpt>
   <trkpt lat="59.3256662714" lon="34.713174434"><ele>163.779</ele><time>2026-08-17T01:50:21.626Z</time><hdop>4.125</hdop><vdop>2.562</vdop><extensions><gom:speed>0.116</gom:speed></extensions></trkpt>
   <trkpt lat="59.3256671934" lon="34.7131713327"><ele>163.796</ele><time>2026-08-17T01:50:22.587Z</time><hdop>4.062</hdop><vdop>2.812</vdop><extensions><gom:speed>0.122</gom:speed></extensions></trkpt>
   <trkpt lat="59.3256677802" lon="34.7131678961"><ele>163.829</ele><time>2026-08-17T01:50:23.224Z</time><hdop>3.937</hdop><vdop>2.562</vdop><extensions><gom:speed>0.116</gom:speed></extensions></trkpt>
   <trkpt lat="59.3256685764" lon="34.7131629508"><ele>163.946</ele><time>2026-08-17T01:50:23.973Z</time><hdop>3.875</hdop><vdop>2.625</vdop><extensions><gom:speed>0.187</gom:speed></extensions></trkpt>
   <trkpt lat="59.3256697918" lon="34.7131612744"><ele>164.138</ele><time>2026-08-17T01:50:24.652Z</time><hdop>3.875</hdop><vdop>2.5</vdop><extensions><gom:speed>0.178</gom:speed></extensions></trkpt>
   <trkpt lat="59.3256713844" lon="34.713158257"><ele>164.284</ele><time>2026-08-17T01:50:25.652Z</time><hdop>3.875</hdop><vdop>2.5</vdop><extensions><gom:speed>0.212</gom:speed></extensions></trkpt>
   <trkpt lat="59.325673396" lon="34.713154988"><ele>164.371</ele><time>2026-08-17T01:50:26.595Z</time><hdop>3.875</hdop><vdop>2.5</vdop><extensions><gom:speed>0.229</gom:speed></extensions></trkpt>
   <trkpt lat="59.3256744857" lon="34.7131533955"><ele>164.477</ele><time>2026-08-17T01:50:27.652Z</time><hdop>3.875</hdop><vdop>2.5</vdop><extensions><gom:speed>0.153</gom:speed></extensions></trkpt>
   <trkpt lat="59.3256759944" lon="34.7131512162"><ele>164.54</ele><time>2026-08-17T01:50:28.486Z</time><hdop>3.937</hdop><vdop>2.5</vdop><extensions><gom:speed>0.172</gom:speed></extensions></trkpt>
   <trkpt lat="59.3256771679" lon="34.7131484501"><ele>164.61</ele><time>2026-08-17T01:50:29.407Z</time><hdop>4.0</hdop><vdop>2.562</vdop><extensions><gom:speed>0.155</gom:speed></extensions></trkpt>
   <trkpt lat="59.3256786766" lon="34.7131464385"><ele>164.473</ele><time>2026-08-17T01:50:30.205Z</time><hdop>4.0</hdop><vdop>2.625</vdop><extensions><gom:speed>0.175</gom:speed></extensions></trkpt>
   <trkpt lat="59.3256805626" lon="34.7131423313"><ele>164.152</ele><time>2026-08-17T01:50:31.045Z</time><hdop>4.062</hdop><vdop>2.625</vdop><extensions><gom:speed>0.198</gom:speed></extensions></trkpt>
   <trkpt lat="59.3256810655" lon="34.7131410741"><ele>164.093</ele><time>2026-08-17T01:50:31.662Z</time><hdop>4.062</hdop><vdop>2.562</vdop><extensions><gom:speed>0.163</gom:speed></extensions></trkpt>
   <trkpt lat="59.3256819875" lon="34.713136464"><ele>164.07</ele><time>2026-08-17T01:50:32.652Z</time><hdop>4.062</hdop><vdop>2.625</vdop><extensions><gom:speed>0.135</gom:speed></extensions></trkpt>
   <trkpt lat="59.3256829933" lon="34.713131854"><ele>164.048</ele><time>2026-08-17T01:50:33.652Z</time><hdop>4.062</hdop><vdop>2.625</vdop><extensions><gom:speed>0.139</gom:speed></extensions></trkpt>
   <trkpt lat="59.3256848792" lon="34.713126741"><ele>164.034</ele><time>2026-08-17T01:50:34.647Z</time><hdop>4.062</hdop><vdop>2.625</vdop><extensions><gom:speed>0.173</gom:speed></extensions></trkpt>
   <trkpt lat="59.3256867652" lon="34.7131187782"><ele>164.038</ele><time>2026-08-17T01:50:35.649Z</time><hdop>4.125</hdop><vdop>2.687</vdop><extensions><gom:speed>0.197</gom:speed></extensions></trkpt>
   <trkpt lat="59.3256868909" lon="34.7131169342"><ele>163.902</ele><time>2026-08-17T01:50:36.652Z</time><hdop>4.125</hdop><vdop>2.875</vdop><extensions><gom:speed>0.104</gom:speed></extensions></trkpt>
   <trkpt lat="59.3256883996" lon="34.7131122403"><ele>163.82</ele><time>2026-08-17T01:50:37.652Z</time><hdop>4.187</hdop><vdop>2.625</vdop><extensions><gom:speed>0.083</gom:speed></extensions></trkpt>
   <trkpt lat="59.3256894893" lon="34.7131083846"><ele>163.598</ele><time>2026-08-17T01:50:38.652Z</time><hdop>4.25</hdop><vdop>2.687</vdop><extensions><gom:speed>0.078</gom:speed></extensions></trkpt>
   <trkpt lat="59.325690998" lon="34.7131039422"><ele>163.465</ele><time>2026-08-17T01:50:39.291Z</time><hdop>4.25</hdop><vdop>2.687</vdop><extensions><gom:speed>0.145</gom:speed></extensions></trkpt>
   <trkpt lat="59.3256930935" lon="34.7130987454"><ele>163.258</ele><time>2026-08-17T01:50:40.050Z</time><hdop>4.312</hdop><vdop>2.562</vdop><extensions><gom:speed>0.148</gom:speed></extensions></trkpt>
   <trkpt lat="59.3256946861" lon="34.7130937163"><ele>162.917</ele><time>2026-08-17T01:50:40.649Z</time><hdop>4.375</hdop><vdop>2.5</vdop><extensions><gom:speed>0.169</gom:speed></extensions></trkpt>
   <trkpt lat="59.3256959853" lon="34.713091537"><ele>162.713</ele><time>2026-08-17T01:50:41.426Z</time><hdop>4.375</hdop><vdop>2.5</vdop><extensions><gom:speed>0.196</gom:speed></extensions></trkpt>
   <trkpt lat="59.3256992961" lon="34.7130851668"><ele>162.615</ele><time>2026-08-17T01:50:42.649Z</time><hdop>4.375</hdop><vdop>2.5</vdop><extensions><gom:speed>0.181</gom:speed></extensions></trkpt>
   <trkpt lat="59.3257038642" lon="34.7130788803"><ele>162.469</ele><time>2026-08-17T01:50:43.649Z</time><hdop>4.375</hdop><vdop>2.5</vdop><extensions><gom:speed>0.201</gom:speed></extensions></trkpt>
   <trkpt lat="59.3257050796" lon="34.7130774554"><ele>162.395</ele><time>2026-08-17T01:50:44.652Z</time><hdop>4.375</hdop><vdop>2.5</vdop><extensions><gom:speed>0.138</gom:speed></extensions></trkpt>
   <trkpt lat="59.3257125814" lon="34.7130657207"><ele>162.36</ele><time>2026-08-17T01:50:45.652Z</time><hdop>4.312</hdop><vdop>2.5</vdop><extensions><gom:speed>0.083</gom:speed></extensions></trkpt>
   <trkpt lat="59.325718784" lon="34.7130569197"><ele>162.348</ele><time>2026-08-17T01:50:46.658Z</time><hdop>4.062</hdop><vdop>2.5</vdop><extensions><gom:speed>0.051</gom:speed></extensions></trkpt>
   <trkpt lat="59.3257231845" lon="34.713043844"><ele>162.391</ele><time>2026-08-17T01:50:47.649Z</time><hdop>3.937</hdop><vdop>2.5</vdop><extensions><gom:speed>0.081</gom:speed></extensions></trkpt>
   <trkpt lat="59.3257245675" lon="34.713039653"><ele>162.602</ele><time>2026-08-17T01:50:48.652Z</time><hdop>3.75</hdop><vdop>2.5</vdop><extensions><gom:speed>0.053</gom:speed></extensions></trkpt>
   <trkpt lat="59.3257269983" lon="34.7130302653"><ele>163.167</ele><time>2026-08-17T01:50:49.649Z</time><hdop>3.125</hdop><vdop>2.5</vdop><extensions><gom:speed>0.103</gom:speed></extensions></trkpt>
   <trkpt lat="59.3257281718" lon="34.7130260743"><ele>163.626</ele><time>2026-08-17T01:50:50.650Z</time><hdop>3.0</hdop><vdop>2.5</vdop><extensions><gom:speed>0.109</gom:speed></extensions></trkpt>
   <trkpt lat="59.3257285909" lon="34.7130250685"><ele>163.9</ele><time>2026-08-17T01:50:51.392Z</time><hdop>3.0</hdop><vdop>2.5</vdop><extensions><gom:speed>0.119</gom:speed></extensions></trkpt>
   <trkpt lat="59.3257284651" lon="34.713022051"><ele>164.039</ele><time>2026-08-17T01:50:52.373Z</time><hdop>3.0</hdop><vdop>2.5</vdop><extensions><gom:speed>0.13</gom:speed></extensions></trkpt>
   <trkpt lat="59.3257300996" lon="34.713015597"><ele>164.236</ele><time>2026-08-17T01:50:53.688Z</time><hdop>3.0</hdop><vdop>2.562</vdop><extensions><gom:speed>0.098</gom:speed></extensions></trkpt>
   <trkpt lat="59.3257379786" lon="34.7130027727"><ele>164.332</ele><time>2026-08-17T01:50:54.652Z</time><hdop>3.0</hdop><vdop>2.625</vdop><extensions><gom:speed>0.516</gom:speed></extensions></trkpt>
   <trkpt lat="59.3257396969" lon="34.7129920438"><ele>164.333</ele><time>2026-08-17T01:50:55.652Z</time><hdop>3.0</hdop><vdop>2.562</vdop><extensions><gom:speed>0.3</gom:speed></extensions></trkpt>
   <trkpt lat="59.3257417924" lon="34.7129858412"><ele>164.333</ele><time>2026-08-17T01:50:56.147Z</time><hdop>3.0</hdop><vdop>2.562</vdop><extensions><gom:speed>0.403</gom:speed></extensions></trkpt>
   <trkpt lat="59.32574196" lon="34.7129833266"><ele>164.529</ele><time>2026-08-17T01:50:56.652Z</time><hdop>3.0</hdop><vdop>2.5</vdop><extensions><gom:speed>0.241</gom:speed></extensions></trkpt>
   <trkpt lat="59.3257432592" lon="34.7129748609"><ele>164.874</ele><time>2026-08-17T01:50:57.652Z</time><hdop>3.0</hdop><vdop>2.5</vdop><extensions><gom:speed>0.177</gom:speed></extensions></trkpt>
   <trkpt lat="59.3257444746" lon="34.7129689936"><ele>165.197</ele><time>2026-08-17T01:50:58.656Z</time><hdop>3.0</hdop><vdop>2.5</vdop><extensions><gom:speed>0.143</gom:speed></extensions></trkpt>
   <trkpt lat="59.3257469891" lon="34.7129577618"><ele>165.235</ele><time>2026-08-17T01:50:59.649Z</time><hdop>3.0</hdop><vdop>2.5</vdop><extensions><gom:speed>0.136</gom:speed></extensions></trkpt>
   <trkpt lat="59.3257483722" lon="34.7129498828"><ele>165.463</ele><time>2026-08-17T01:51:00.648Z</time><hdop>3.0</hdop><vdop>2.5</vdop><extensions><gom:speed>0.152</gom:speed></extensions></trkpt>
   <trkpt lat="59.3257490846" lon="34.7129478712"><ele>165.588</ele><time>2026-08-17T01:51:01.652Z</time><hdop>3.0</hdop><vdop>2.5</vdop><extensions><gom:speed>0.11</gom:speed></extensions></trkpt>
   <trkpt lat="59.3257492942" lon="34.7129402437"><ele>165.495</ele><time>2026-08-17T01:51:02.649Z</time><hdop>3.0</hdop><vdop>2.5</vdop><extensions><gom:speed>0.119</gom:speed></extensions></trkpt>
   <trkpt lat="59.325749378" lon="34.7129373938"><ele>165.296</ele><time>2026-08-17T01:51:03.655Z</time><hdop>3.0</hdop><vdop>2.5</vdop><extensions><gom:speed>0.116</gom:speed></extensions></trkpt>
   <trkpt lat="59.3257481626" lon="34.7129343763"><ele>165.537</ele><time>2026-08-17T01:51:04.652Z</time><hdop>3.0</hdop><vdop>2.5</vdop><extensions><gom:speed>0.053</gom:speed></extensions></trkpt>
   <trkpt lat="59.325747995" lon="34.7129307721"><ele>165.845</ele><time>2026-08-17T01:51:05.652Z</time><hdop>3.0</hdop><vdop>2.5</vdop><extensions><gom:speed>0.061</gom:speed></extensions></trkpt>
   <trkpt lat="59.3257477854" lon="34.7129268326"><ele>165.961</ele><time>2026-08-17T01:51:06.649Z</time><hdop>3.0</hdop><vdop>2.5</vdop><extensions><gom:speed>0.131</gom:speed></extensions></trkpt>
   <trkpt lat="59.3257473663" lon="34.7129227255"><ele>166.031</ele><time>2026-08-17T01:51:07.550Z</time><hdop>3.0</hdop><vdop>2.5</vdop><extensions><gom:speed>0.108</gom:speed></extensions></trkpt>
   <trkpt lat="59.3257454804" lon="34.7129183669"><ele>166.141</ele><time>2026-08-17T01:51:08.652Z</time><hdop>3.0</hdop><vdop>2.562</vdop><extensions><gom:speed>0.127</gom:speed></extensions></trkpt>
   <trkpt lat="59.325744265" lon="34.7129156847"><ele>166.206</ele><time>2026-08-17T01:51:09.492Z</time><hdop>3.0</hdop><vdop>2.562</vdop><extensions><gom:speed>0.1</gom:speed></extensions></trkpt>
   <trkpt lat="59.325744265" lon="34.7129105717"><ele>166.171</ele><time>2026-08-17T01:51:10.652Z</time><hdop>3.0</hdop><vdop>2.5</vdop><extensions><gom:speed>0.138</gom:speed></extensions></trkpt>
   <trkpt lat="59.3257438878" lon="34.7129075542"><ele>166.151</ele><time>2026-08-17T01:51:11.111Z</time><hdop>3.0</hdop><vdop>2.5</vdop><extensions><gom:speed>0.12</gom:speed></extensions></trkpt>
   <trkpt lat="59.3257439717" lon="34.7129050397"><ele>166.075</ele><time>2026-08-17T01:51:11.652Z</time><hdop>3.0</hdop><vdop>2.5</vdop><extensions><gom:speed>0.168</gom:speed></extensions></trkpt>
   <trkpt lat="59.3257440974" lon="34.7129014354"><ele>166.03</ele><time>2026-08-17T01:51:12.446Z</time><hdop>3.0</hdop><vdop>2.5</vdop><extensions><gom:speed>0.169</gom:speed></extensions></trkpt>
   <trkpt lat="59.3257445584" lon="34.7128967416"><ele>166.173</ele><time>2026-08-17T01:51:13.367Z</time><hdop>3.0</hdop><vdop>2.5</vdop><extensions><gom:speed>0.185</gom:speed></extensions></trkpt>
   <trkpt lat="59.3257452708" lon="34.7128943946"><ele>166.252</ele><time>2026-08-17T01:51:14.653Z</time><hdop>3.0</hdop><vdop>2.5</vdop><extensions><gom:speed>0.103</gom:speed></extensions></trkpt>
   <trkpt lat="59.3257460671" lon="34.7128903713"><ele>166.298</ele><time>2026-08-17T01:51:15.431Z</time><hdop>3.0</hdop><vdop>2.5</vdop><extensions><gom:speed>0.175</gom:speed></extensions></trkpt>
   <trkpt lat="59.32574657" lon="34.7128842525"><ele>166.184</ele><time>2026-08-17T01:51:16.652Z</time><hdop>3.0</hdop><vdop>2.5</vdop><extensions><gom:speed>0.088</gom:speed></extensions></trkpt>
   <trkpt lat="59.3257464862" lon="34.7128811512"><ele>166.116</ele><time>2026-08-17T01:51:17.414Z</time><hdop>3.0</hdop><vdop>2.5</vdop><extensions><gom:speed>0.112</gom:speed></extensions></trkpt>
   <trkpt lat="59.3257463605" lon="34.7128776308"><ele>165.92</ele><time>2026-08-17T01:51:18.547Z</time><hdop>3.0</hdop><vdop>2.5</vdop><extensions><gom:speed>0.137</gom:speed></extensions></trkpt>
   <trkpt lat="59.3257461929" lon="34.7128746972"><ele>165.845</ele><time>2026-08-17T01:51:19.652Z</time><hdop>3.0</hdop><vdop>2.5</vdop><extensions><gom:speed>0.139</gom:speed></extensions></trkpt>
   <trkpt lat="59.3257467796" lon="34.7128720988"><ele>165.777</ele><time>2026-08-17T01:51:20.652Z</time><hdop>3.0</hdop><vdop>2.5</vdop><extensions><gom:speed>0.178</gom:speed></extensions></trkpt>
   <trkpt lat="59.3257496713" lon="34.7128671535"><ele>165.587</ele><time>2026-08-17T01:51:21.649Z</time><hdop>3.0</hdop><vdop>2.5</vdop><extensions><gom:speed>0.17</gom:speed></extensions></trkpt>
   <trkpt lat="59.3257505934" lon="34.7128638845"><ele>165.616</ele><time>2026-08-17T01:51:22.655Z</time><hdop>3.0</hdop><vdop>3.125</vdop><extensions><gom:speed>0.17</gom:speed></extensions></trkpt>
   <trkpt lat="59.3257521859" lon="34.7128632978"><ele>165.634</ele><time>2026-08-17T01:51:23.313Z</time><hdop>3.0</hdop><vdop>3.125</vdop><extensions><gom:speed>0.129</gom:speed></extensions></trkpt>
   <trkpt lat="59.3257535689" lon="34.7128616214"><ele>165.582</ele><time>2026-08-17T01:51:24.658Z</time><hdop>3.0</hdop><vdop>2.875</vdop><extensions><gom:speed>0.085</gom:speed></extensions></trkpt>
   <trkpt lat="59.3257548681" lon="34.7128597774"><ele>165.494</ele><time>2026-08-17T01:51:25.652Z</time><hdop>3.0</hdop><vdop>3.0</vdop><extensions><gom:speed>0.077</gom:speed></extensions></trkpt>
   <trkpt lat="59.325756293" lon="34.7128574305"><ele>165.437</ele><time>2026-08-17T01:51:26.662Z</time><hdop>3.0</hdop><vdop>3.0</vdop><extensions><gom:speed>0.12</gom:speed></extensions></trkpt>
   <trkpt lat="59.3257590591" lon="34.7128535748"><ele>165.403</ele><time>2026-08-17T01:51:27.673Z</time><hdop>3.0</hdop><vdop>3.0</vdop><extensions><gom:speed>0.161</gom:speed></extensions></trkpt>
   <trkpt lat="59.325762789" lon="34.7128471207"><ele>165.433</ele><time>2026-08-17T01:51:28.652Z</time><hdop>3.0</hdop><vdop>2.875</vdop><extensions><gom:speed>0.201</gom:speed></extensions></trkpt>
   <trkpt lat="59.3257676924" lon="34.7128401637"><ele>165.257</ele><time>2026-08-17T01:51:29.652Z</time><hdop>3.0</hdop><vdop>2.812</vdop><extensions><gom:speed>0.211</gom:speed></extensions></trkpt>
   <trkpt lat="59.3257726797" lon="34.7128365595"><ele>165.153</ele><time>2026-08-17T01:51:30.385Z</time><hdop>3.0</hdop><vdop>2.812</vdop><extensions><gom:speed>0.201</gom:speed></extensions></trkpt>
   <trkpt lat="59.3257778764" lon="34.7128328715"><ele>164.783</ele><time>2026-08-17T01:51:31.174Z</time><hdop>3.0</hdop><vdop>3.0</vdop><extensions><gom:speed>0.211</gom:speed></extensions></trkpt>
   <trkpt lat="59.3257795947" lon="34.7128310275"><ele>164.549</ele><time>2026-08-17T01:51:31.652Z</time><hdop>3.0</hdop><vdop>2.75</vdop><extensions><gom:speed>0.19</gom:speed></extensions></trkpt>
   <trkpt lat="59.3257842886" lon="34.7128284291"><ele>164.412</ele><time>2026-08-17T01:51:32.648Z</time><hdop>3.0</hdop><vdop>2.5</vdop><extensions><gom:speed>0.17</gom:speed></extensions></trkpt>
   <trkpt lat="59.3257855878" lon="34.7128271718"><ele>164.33</ele><time>2026-08-17T01:51:33.268Z</time><hdop>3.0</hdop><vdop>2.5</vdop><extensions><gom:speed>0.165</gom:speed></extensions></trkpt>
   <trkpt lat="59.3257870965" lon="34.712827088"><ele>164.184</ele><time>2026-08-17T01:51:34.654Z</time><hdop>3.0</hdop><vdop>2.5</vdop><extensions><gom:speed>0.069</gom:speed></extensions></trkpt>
   <trkpt lat="59.32578827" lon="34.7128272556"><ele>164.097</ele><time>2026-08-17T01:51:35.649Z</time><hdop>3.0</hdop><vdop>2.5</vdop><extensions><gom:speed>0.092</gom:speed></extensions></trkpt>
   <trkpt lat="59.3257884796" lon="34.7128282614"><ele>164.045</ele><time>2026-08-17T01:51:36.652Z</time><hdop>3.0</hdop><vdop>2.5</vdop><extensions><gom:speed>0.027</gom:speed></extensions></trkpt>
   <trkpt lat="59.3257888987" lon="34.7128293511"><ele>164.015</ele><time>2026-08-17T01:51:37.652Z</time><hdop>3.0</hdop><vdop>2.5</vdop><extensions><gom:speed>0.033</gom:speed></extensions></trkpt>
   <trkpt lat="59.325789192" lon="34.7128300216"><ele>163.998</ele><time>2026-08-17T01:51:38.652Z</time><hdop>3.0</hdop><vdop>2.5</vdop><extensions><gom:speed>0.017</gom:speed></extensions></trkpt>
   <trkpt lat="59.3257896949" lon="34.7128294349"><ele>163.988</ele><time>2026-08-17T01:51:39.653Z</time><hdop>3.0</hdop><vdop>2.5</vdop><extensions><gom:speed>0.091</gom:speed></extensions></trkpt>
   <trkpt lat="59.3257899883" lon="34.7128290996"><ele>163.981</ele><time>2026-08-17T01:51:40.649Z</time><hdop>3.0</hdop><vdop>2.5</vdop><extensions><gom:speed>0.058</gom:speed></extensions></trkpt>
   <trkpt lat="59.3257894854" lon="34.7128293511"><ele>163.98</ele><time>2026-08-17T01:51:41.652Z</time><hdop>3.0</hdop><vdop>2.5</vdop><extensions><gom:speed>0.014</gom:speed></extensions></trkpt>
   <trkpt lat="59.3257899883" lon="34.7128292673"><ele>163.982</ele><time>2026-08-17T01:51:42.648Z</time><hdop>3.0</hdop><vdop>2.5</vdop><extensions><gom:speed>0.09</gom:speed></extensions></trkpt>
   <trkpt lat="59.3257904912" lon="34.7128294349"><ele>163.984</ele><time>2026-08-17T01:51:43.652Z</time><hdop>3.0</hdop><vdop>2.5</vdop><extensions><gom:speed>0.02</gom:speed></extensions></trkpt>
   <trkpt lat="59.3257906589" lon="34.7128297702"><ele>164.009</ele><time>2026-08-17T01:51:44.652Z</time><hdop>3.0</hdop><vdop>2.5</vdop><extensions><gom:speed>0.018</gom:speed></extensions></trkpt>
   <trkpt lat="59.3257909941" lon="34.712828932"><ele>164.023</ele><time>2026-08-17T01:51:45.126Z</time><hdop>3.0</hdop><vdop>2.5</vdop><extensions><gom:speed>0.019</gom:speed></extensions></trkpt>
   <trkpt lat="59.3257908684" lon="34.7128284291"><ele>164.108</ele><time>2026-08-17T01:51:45.652Z</time><hdop>3.0</hdop><vdop>2.5</vdop><extensions><gom:speed>0.028</gom:speed></extensions></trkpt>
   <trkpt lat="59.3257913713" lon="34.7128274232"><ele>164.158</ele><time>2026-08-17T01:51:46.249Z</time><hdop>3.0</hdop><vdop>2.5</vdop><extensions><gom:speed>0.074</gom:speed></extensions></trkpt>
   <trkpt lat="59.3257923771" lon="34.7128252439"><ele>164.447</ele><time>2026-08-17T01:51:47.291Z</time><hdop>3.0</hdop><vdop>2.5</vdop><extensions><gom:speed>0.13</gom:speed></extensions></trkpt>
   <trkpt lat="59.3257955623" lon="34.7128192928"><ele>164.968</ele><time>2026-08-17T01:51:48.070Z</time><hdop>3.0</hdop><vdop>2.5</vdop><extensions><gom:speed>0.215</gom:speed></extensions></trkpt>
   <trkpt lat="59.3257965681" lon="34.7128167782"><ele>165.132</ele><time>2026-08-17T01:51:48.652Z</time><hdop>3.0</hdop><vdop>2.5</vdop><extensions><gom:speed>0.222</gom:speed></extensions></trkpt>
   <trkpt lat="59.3258014715" lon="34.7128067199"><ele>165.154</ele><time>2026-08-17T01:51:49.650Z</time><hdop>3.0</hdop><vdop>2.5</vdop><extensions><gom:speed>0.285</gom:speed></extensions></trkpt>
   <trkpt lat="59.3258026869" lon="34.712803451"><ele>165.127</ele><time>2026-08-17T01:51:50.660Z</time><hdop>3.0</hdop><vdop>2.5</vdop><extensions><gom:speed>0.169</gom:speed></extensions></trkpt>
   <trkpt lat="59.3258041956" lon="34.7128009364"><ele>165.357</ele><time>2026-08-17T01:51:51.652Z</time><hdop>3.0</hdop><vdop>2.5</vdop><extensions><gom:speed>0.097</gom:speed></extensions></trkpt>
   <trkpt lat="59.3258057882" lon="34.7127966617"><ele>165.503</ele><time>2026-08-17T01:51:53.655Z</time><hdop>3.0</hdop><vdop>2.5</vdop><extensions><gom:speed>0.044</gom:speed></extensions></trkpt>
   <trkpt lat="59.3258079675" lon="34.7127896209"><ele>165.535</ele><time>2026-08-17T01:51:54.667Z</time><hdop>3.0</hdop><vdop>2.687</vdop><extensions><gom:speed>0.081</gom:speed></extensions></trkpt>
   <trkpt lat="59.3258094762" lon="34.7127843403"><ele>165.424</ele><time>2026-08-17T01:51:55.652Z</time><hdop>3.0</hdop><vdop>2.937</vdop><extensions><gom:speed>0.064</gom:speed></extensions></trkpt>
   <trkpt lat="59.3258102725" lon="34.7127787244"><ele>165.394</ele><time>2026-08-17T01:51:56.653Z</time><hdop>3.0</hdop><vdop>3.0</vdop><extensions><gom:speed>0.1</gom:speed></extensions></trkpt>
   <trkpt lat="59.3258101887" lon="34.7127722703"><ele>165.339</ele><time>2026-08-17T01:51:57.652Z</time><hdop>3.0</hdop><vdop>3.125</vdop><extensions><gom:speed>0.139</gom:speed></extensions></trkpt>
   <trkpt lat="59.3258094762" lon="34.7127663192"><ele>165.306</ele><time>2026-08-17T01:51:58.249Z</time><hdop>3.0</hdop><vdop>3.125</vdop><extensions><gom:speed>0.179</gom:speed></extensions></trkpt>
   <trkpt lat="59.325808177" lon="34.7127595298"><ele>165.329</ele><time>2026-08-17T01:51:59.270Z</time><hdop>3.0</hdop><vdop>2.812</vdop><extensions><gom:speed>0.188</gom:speed></extensions></trkpt>
   <trkpt lat="59.3258063749" lon="34.7127502259"><ele>165.473</ele><time>2026-08-17T01:52:00.657Z</time><hdop>3.0</hdop><vdop>2.687</vdop><extensions><gom:speed>0.186</gom:speed></extensions></trkpt>
   <trkpt lat="59.3258031898" lon="34.7127426822"><ele>165.535</ele><time>2026-08-17T01:52:01.648Z</time><hdop>3.0</hdop><vdop>2.562</vdop><extensions><gom:speed>0.102</gom:speed></extensions></trkpt>
   <trkpt lat="59.3258020582" lon="34.7127395809"><ele>165.572</ele><time>2026-08-17T01:52:02.306Z</time><hdop>3.0</hdop><vdop>2.562</vdop><extensions><gom:speed>0.143</gom:speed></extensions></trkpt>
   <trkpt lat="59.3258009686" lon="34.7127357252"><ele>165.592</ele><time>2026-08-17T01:52:03.105Z</time><hdop>3.0</hdop><vdop>2.5</vdop><extensions><gom:speed>0.125</gom:speed></extensions></trkpt>
   <trkpt lat="59.325800298" lon="34.7127331268"><ele>165.604</ele><time>2026-08-17T01:52:03.649Z</time><hdop>3.0</hdop><vdop>2.5</vdop><extensions><gom:speed>0.134</gom:speed></extensions></trkpt>
   <trkpt lat="59.3257998789" lon="34.7127313666"><ele>165.61</ele><time>2026-08-17T01:52:04.309Z</time><hdop>3.0</hdop><vdop>2.5</vdop><extensions><gom:speed>0.144</gom:speed></extensions></trkpt>
   <trkpt lat="59.3257992922" lon="34.7127264213"><ele>165.383</ele><time>2026-08-17T01:52:05.652Z</time><hdop>3.0</hdop><vdop>3.0</vdop><extensions><gom:speed>0.114</gom:speed></extensions></trkpt>
   <trkpt lat="59.3257987893" lon="34.7127217274"><ele>165.088</ele><time>2026-08-17T01:52:06.652Z</time><hdop>3.0</hdop><vdop>3.312</vdop><extensions><gom:speed>0.115</gom:speed></extensions></trkpt>
   <trkpt lat="59.3257986636" lon="34.7127184585"><ele>164.689</ele><time>2026-08-17T01:52:07.658Z</time><hdop>3.0</hdop><vdop>2.75</vdop><extensions><gom:speed>0.086</gom:speed></extensions></trkpt>
   <trkpt lat="59.3257989988" lon="34.7127098251"><ele>164.646</ele><time>2026-08-17T01:52:08.649Z</time><hdop>3.0</hdop><vdop>2.5</vdop><extensions><gom:speed>0.13</gom:speed></extensions></trkpt>
   <trkpt lat="59.325799376" lon="34.7127015271"><ele>164.404</ele><time>2026-08-17T01:52:09.649Z</time><hdop>3.0</hdop><vdop>2.5</vdop><extensions><gom:speed>0.127</gom:speed></extensions></trkpt>
   <trkpt lat="59.3257994599" lon="34.7126983419"><ele>164.259</ele><time>2026-08-17T01:52:10.531Z</time><hdop>3.0</hdop><vdop>2.5</vdop><extensions><gom:speed>0.131</gom:speed></extensions></trkpt>
   <trkpt lat="59.3257991665" lon="34.7126936481"><ele>164.263</ele><time>2026-08-17T01:52:11.652Z</time><hdop>3.0</hdop><vdop>2.5</vdop><extensions><gom:speed>0.07</gom:speed></extensions></trkpt>
   <trkpt lat="59.3257988731" lon="34.7126873616"><ele>164.186</ele><time>2026-08-17T01:52:12.652Z</time><hdop>3.0</hdop><vdop>2.5</vdop><extensions><gom:speed>0.046</gom:speed></extensions></trkpt>
   <trkpt lat="59.3257984959" lon="34.7126786445"><ele>164.14</ele><time>2026-08-17T01:52:13.628Z</time><hdop>3.0</hdop><vdop>2.5</vdop><extensions><gom:speed>0.08</gom:speed></extensions></trkpt>
   <trkpt lat="59.3257975739" lon="34.7126703464"><ele>164.075</ele><time>2026-08-17T01:52:14.487Z</time><hdop>3.0</hdop><vdop>2.5</vdop><extensions><gom:speed>0.095</gom:speed></extensions></trkpt>
   <trkpt lat="59.3257938859" lon="34.7126566839"><ele>164.394</ele><time>2026-08-17T01:52:15.648Z</time><hdop>3.0</hdop><vdop>2.5</vdop><extensions><gom:speed>0.137</gom:speed></extensions></trkpt>
   <trkpt lat="59.3257927962" lon="34.7126526606"><ele>164.586</ele><time>2026-08-17T01:52:16.652Z</time><hdop>3.0</hdop><vdop>2.5</vdop><extensions><gom:speed>0.071</gom:speed></extensions></trkpt>
   <trkpt lat="59.3257910779" lon="34.7126462903"><ele>164.7</ele><time>2026-08-17T01:52:17.614Z</time><hdop>3.0</hdop><vdop>2.5</vdop><extensions><gom:speed>0.129</gom:speed></extensions></trkpt>
   <trkpt lat="59.3257895692" lon="34.7126397524"><ele>164.846</ele><time>2026-08-17T01:52:18.666Z</time><hdop>3.0</hdop><vdop>2.5</vdop><extensions><gom:speed>0.092</gom:speed></extensions></trkpt>
   <trkpt lat="59.3257892758" lon="34.7126350586"><ele>164.942</ele><time>2026-08-17T01:52:19.652Z</time><hdop>3.0</hdop><vdop>2.5</vdop><extensions><gom:speed>0.096</gom:speed></extensions></trkpt>
   <trkpt lat="59.3257897788" lon="34.7126306162"><ele>164.999</ele><time>2026-08-17T01:52:20.406Z</time><hdop>3.0</hdop><vdop>2.5</vdop><extensions><gom:speed>0.121</gom:speed></extensions></trkpt>
   <trkpt lat="59.3257907846" lon="34.7126245812"><ele>165.056</ele><time>2026-08-17T01:52:21.448Z</time><hdop>3.0</hdop><vdop>2.5</vdop><extensions><gom:speed>0.157</gom:speed></extensions></trkpt>
   <trkpt lat="59.3257913713" lon="34.7126199711"><ele>165.104</ele><time>2026-08-17T01:52:21.965Z</time><hdop>3.0</hdop><vdop>2.5</vdop><extensions><gom:speed>0.156</gom:speed></extensions></trkpt>
   <trkpt lat="59.3257918742" lon="34.7126179595"><ele>165.21</ele><time>2026-08-17T01:52:22.652Z</time><hdop>3.0</hdop><vdop>2.5</vdop><extensions><gom:speed>0.141</gom:speed></extensions></trkpt>
   <trkpt lat="59.3257929639" lon="34.7126102481"><ele>165.273</ele><time>2026-08-17T01:52:23.684Z</time><hdop>3.0</hdop><vdop>2.5</vdop><extensions><gom:speed>0.19</gom:speed></extensions></trkpt>
   <trkpt lat="59.3257938859" lon="34.71260195"><ele>165.152</ele><time>2026-08-17T01:52:24.534Z</time><hdop>3.0</hdop><vdop>2.5</vdop><extensions><gom:speed>0.224</gom:speed></extensions></trkpt>
   <trkpt lat="59.3257949755" lon="34.7125915565"><ele>164.949</ele><time>2026-08-17T01:52:25.627Z</time><hdop>3.0</hdop><vdop>2.5</vdop><extensions><gom:speed>0.23</gom:speed></extensions></trkpt>
   <trkpt lat="59.3257951851" lon="34.7125835937"><ele>164.561</ele><time>2026-08-17T01:52:26.652Z</time><hdop>3.0</hdop><vdop>2.5</vdop><extensions><gom:speed>0.208</gom:speed></extensions></trkpt>
   <trkpt lat="59.3257944726" lon="34.7125795704"><ele>164.328</ele><time>2026-08-17T01:52:27.134Z</time><hdop>3.0</hdop><vdop>2.5</vdop><extensions><gom:speed>0.196</gom:speed></extensions></trkpt>
   <trkpt lat="59.3257932992" lon="34.712575128"><ele>164.162</ele><time>2026-08-17T01:52:27.648Z</time><hdop>3.0</hdop><vdop>2.5</vdop><extensions><gom:speed>0.214</gom:speed></extensions></trkpt>
   <trkpt lat="59.3257927962" lon="34.7125733678"><ele>164.0</ele><time>2026-08-17T01:52:28.652Z</time><hdop>3.0</hdop><vdop>2.5</vdop><extensions><gom:speed>0.109</gom:speed></extensions></trkpt>
   <trkpt lat="59.3257912875" lon="34.7125701826"><ele>163.895</ele><time>2026-08-17T01:52:29.654Z</time><hdop>3.0</hdop><vdop>2.5</vdop><extensions><gom:speed>0.092</gom:speed></extensions></trkpt>
   <trkpt lat="59.3257893597" lon="34.7125657402"><ele>163.832</ele><time>2026-08-17T01:52:30.412Z</time><hdop>3.0</hdop><vdop>2.5</vdop><extensions><gom:speed>0.146</gom:speed></extensions></trkpt>
   <trkpt lat="59.3257880605" lon="34.7125635609"><ele>164.001</ele><time>2026-08-17T01:52:31.652Z</time><hdop>3.0</hdop><vdop>2.5</vdop><extensions><gom:speed>0.069</gom:speed></extensions></trkpt>
   <trkpt lat="59.325786887" lon="34.7125619684"><ele>164.188</ele><time>2026-08-17T01:52:32.652Z</time><hdop>3.0</hdop><vdop>2.5</vdop><extensions><gom:speed>0.05</gom:speed></extensions></trkpt>
   <trkpt lat="59.3257851687" lon="34.7125605434"><ele>164.302</ele><time>2026-08-17T01:52:33.660Z</time><hdop>3.0</hdop><vdop>2.5</vdop><extensions><gom:speed>0.078</gom:speed></extensions></trkpt>
   <trkpt lat="59.3257829894" lon="34.7125588671"><ele>164.372</ele><time>2026-08-17T01:52:34.649Z</time><hdop>3.0</hdop><vdop>2.5</vdop><extensions><gom:speed>0.09</gom:speed></extensions></trkpt>
   <trkpt lat="59.3257823608" lon="34.7125588671"><ele>164.407</ele><time>2026-08-17T01:52:35.683Z</time><hdop>3.0</hdop><vdop>2.5</vdop><extensions><gom:speed>0.08</gom:speed></extensions></trkpt>
   <trkpt lat="59.3257811873" lon="34.7125592862"><ele>164.431</ele><time>2026-08-17T01:52:36.653Z</time><hdop>3.0</hdop><vdop>2.5</vdop><extensions><gom:speed>0.029</gom:speed></extensions></trkpt>
   <trkpt lat="59.3257808939" lon="34.7125592862"><ele>164.445</ele><time>2026-08-17T01:52:37.606Z</time><hdop>3.0</hdop><vdop>2.5</vdop><extensions><gom:speed>0.044</gom:speed></extensions></trkpt>
   <trkpt lat="59.3257802653" lon="34.7125589509"><ele>164.737</ele><time>2026-08-17T01:52:38.652Z</time><hdop>3.0</hdop><vdop>2.5</vdop><extensions><gom:speed>0.053</gom:speed></extensions></trkpt>
   <trkpt lat="59.3257808939" lon="34.7125580289"><ele>164.915</ele><time>2026-08-17T01:52:39.653Z</time><hdop>3.0</hdop><vdop>2.5</vdop><extensions><gom:speed>0.072</gom:speed></extensions></trkpt>
   <trkpt lat="59.3257821931" lon="34.7125571907"><ele>165.245</ele><time>2026-08-17T01:52:40.653Z</time><hdop>3.0</hdop><vdop>2.5</vdop><extensions><gom:speed>0.081</gom:speed></extensions></trkpt>
   <trkpt lat="59.3257844982" lon="34.7125554305"><ele>165.443</ele><time>2026-08-17T01:52:41.653Z</time><hdop>3.0</hdop><vdop>2.5</vdop><extensions><gom:speed>0.127</gom:speed></extensions></trkpt>
   <trkpt lat="59.3257863841" lon="34.7125518263"><ele>165.565</ele><time>2026-08-17T01:52:42.648Z</time><hdop>3.0</hdop><vdop>2.5</vdop><extensions><gom:speed>0.091</gom:speed></extensions></trkpt>
   <trkpt lat="59.3257873899" lon="34.7125504852"><ele>165.64</ele><time>2026-08-17T01:52:43.652Z</time><hdop>3.0</hdop><vdop>2.5</vdop><extensions><gom:speed>0.037</gom:speed></extensions></trkpt>
   <trkpt lat="59.3257871804" lon="34.712549647"><ele>165.688</ele><time>2026-08-17T01:52:44.668Z</time><hdop>3.0</hdop><vdop>2.5</vdop><extensions><gom:speed>0.032</gom:speed></extensions></trkpt>
   <trkpt lat="59.325786887" lon="34.7125474677"><ele>165.722</ele><time>2026-08-17T01:52:45.648Z</time><hdop>3.0</hdop><vdop>2.5</vdop><extensions><gom:speed>0.063</gom:speed></extensions></trkpt>
   <trkpt lat="59.3257869708" lon="34.7125465457"><ele>165.748</ele><time>2026-08-17T01:52:46.652Z</time><hdop>3.0</hdop><vdop>2.5</vdop><extensions><gom:speed>0.02</gom:speed></extensions></trkpt>
   <trkpt lat="59.3257869708" lon="34.7125460427"><ele>165.768</ele><time>2026-08-17T01:52:47.649Z</time><hdop>3.0</hdop><vdop>2.5</vdop><extensions><gom:speed>0.038</gom:speed></extensions></trkpt>
   <trkpt lat="59.3257871804" lon="34.7125451207"><ele>165.784</ele><time>2026-08-17T01:52:48.649Z</time><hdop>3.0</hdop><vdop>2.5</vdop><extensions><gom:speed>0.041</gom:speed></extensions></trkpt>
   <trkpt lat="59.3257870965" lon="34.7125446178"><ele>165.792</ele><time>2026-08-17T01:52:49.648Z</time><hdop>3.0</hdop><vdop>2.5</vdop><extensions><gom:speed>0.112</gom:speed></extensions></trkpt>
   <trkpt lat="59.3257875995" lon="34.7125431929"><ele>165.8</ele><time>2026-08-17T01:52:50.652Z</time><hdop>3.0</hdop><vdop>2.5</vdop><extensions><gom:speed>0.115</gom:speed></extensions></trkpt>
   <trkpt lat="59.3257878928" lon="34.7125423547"><ele>165.809</ele><time>2026-08-17T01:52:51.652Z</time><hdop>3.0</hdop><vdop>2.5</vdop><extensions><gom:speed>0.097</gom:speed></extensions></trkpt>
   <trkpt lat="59.3257880605" lon="34.7125418518"><ele>165.815</ele><time>2026-08-17T01:52:52.661Z</time><hdop>3.0</hdop><vdop>2.5</vdop><extensions><gom:speed>0.088</gom:speed></extensions></trkpt>
   <trkpt lat="59.32578827" lon="34.7125414327"><ele>165.819</ele><time>2026-08-17T01:52:53.652Z</time><hdop>3.0</hdop><vdop>2.5</vdop><extensions><gom:speed>0.081</gom:speed></extensions></trkpt>
   <trkpt lat="59.3257883957" lon="34.7125409298"><ele>165.826</ele><time>2026-08-17T01:52:54.652Z</time><hdop>3.0</hdop><vdop>2.5</vdop><extensions><gom:speed>0.078</gom:speed></extensions></trkpt>
   <trkpt lat="59.3257884796" lon="34.7125405945"><ele>165.831</ele><time>2026-08-17T01:52:55.652Z</time><hdop>3.0</hdop><vdop>2.5</vdop><extensions><gom:speed>0.075</gom:speed></extensions></trkpt>
   <trkpt lat="59.3257883957" lon="34.7125405945"><ele>165.835</ele><time>2026-08-17T01:52:56.649Z</time><hdop>3.0</hdop><vdop>2.5</vdop><extensions><gom:speed>0.072</gom:speed></extensions></trkpt>
   <trkpt lat="59.3257885634" lon="34.712539924"><ele>165.838</ele><time>2026-08-17T01:52:57.652Z</time><hdop>3.0</hdop><vdop>2.5</vdop><extensions><gom:speed>0.072</gom:speed></extensions></trkpt>
   <trkpt lat="59.3257886891" lon="34.7125396725"><ele>165.841</ele><time>2026-08-17T01:52:58.652Z</time><hdop>3.0</hdop><vdop>2.5</vdop><extensions><gom:speed>0.071</gom:speed></extensions></trkpt>
   <trkpt lat="59.3257887729" lon="34.712539421"><ele>165.845</ele><time>2026-08-17T01:52:59.652Z</time><hdop>3.0</hdop><vdop>2.5</vdop><extensions><gom:speed>0.072</gom:speed></extensions></trkpt>
   <trkpt lat="59.3257887729" lon="34.7125393372"><ele>165.847</ele><time>2026-08-17T01:53:00.650Z</time><hdop>3.0</hdop><vdop>2.5</vdop><extensions><gom:speed>0.072</gom:speed></extensions></trkpt>
   <trkpt lat="59.3257888987" lon="34.7125387505"><ele>165.853</ele><time>2026-08-17T01:53:01.665Z</time><hdop>3.0</hdop><vdop>2.5</vdop><extensions><gom:speed>0.072</gom:speed></extensions></trkpt>
   <trkpt lat="59.3257889825" lon="34.7125385829"><ele>165.862</ele><time>2026-08-17T01:53:02.657Z</time><hdop>3.0</hdop><vdop>2.5</vdop><extensions><gom:speed>0.073</gom:speed></extensions></trkpt>
   <trkpt lat="59.3257890663" lon="34.7125383314"><ele>165.873</ele><time>2026-08-17T01:53:03.652Z</time><hdop>3.0</hdop><vdop>2.5</vdop><extensions><gom:speed>0.073</gom:speed></extensions></trkpt>
   <trkpt lat="59.325789192" lon="34.7125381638"><ele>165.883</ele><time>2026-08-17T01:53:04.652Z</time><hdop>3.0</hdop><vdop>2.5</vdop><extensions><gom:speed>0.072</gom:speed></extensions></trkpt>
   <trkpt lat="59.3257892758" lon="34.7125380799"><ele>165.892</ele><time>2026-08-17T01:53:05.652Z</time><hdop>3.0</hdop><vdop>2.5</vdop><extensions><gom:speed>0.071</gom:speed></extensions></trkpt>
   <trkpt lat="59.3257893597" lon="34.7125376608"><ele>165.902</ele><time>2026-08-17T01:53:06.652Z</time><hdop>3.0</hdop><vdop>2.5</vdop><extensions><gom:speed>0.076</gom:speed></extensions></trkpt>
   <trkpt lat="59.3257895692" lon="34.7125371579"><ele>165.912</ele><time>2026-08-17T01:53:07.652Z</time><hdop>3.0</hdop><vdop>2.5</vdop><extensions><gom:speed>0.079</gom:speed></extensions></trkpt>
   <trkpt lat="59.3257897788" lon="34.712536655"><ele>165.919</ele><time>2026-08-17T01:53:08.652Z</time><hdop>3.0</hdop><vdop>2.5</vdop><extensions><gom:speed>0.081</gom:speed></extensions></trkpt>
   <trkpt lat="59.3257899883" lon="34.7125371579"><ele>165.925</ele><time>2026-08-17T01:53:09.649Z</time><hdop>3.0</hdop><vdop>2.5</vdop><extensions><gom:speed>0.074</gom:speed></extensions></trkpt>
   <trkpt lat="59.3257900721" lon="34.712537577"><ele>165.933</ele><time>2026-08-17T01:53:10.649Z</time><hdop>3.0</hdop><vdop>2.5</vdop><extensions><gom:speed>0.071</gom:speed></extensions></trkpt>
   <trkpt lat="59.3257901978" lon="34.712537577"><ele>165.939</ele><time>2026-08-17T01:53:11.652Z</time><hdop>3.0</hdop><vdop>2.5</vdop><extensions><gom:speed>0.071</gom:speed></extensions></trkpt>
   <trkpt lat="59.3257903655" lon="34.7125378285"><ele>165.943</ele><time>2026-08-17T01:53:12.653Z</time><hdop>3.0</hdop><vdop>2.5</vdop><extensions><gom:speed>0.071</gom:speed></extensions></trkpt>
   <trkpt lat="59.3257904912" lon="34.7125382476"><ele>165.947</ele><time>2026-08-17T01:53:13.652Z</time><hdop>3.0</hdop><vdop>2.5</vdop><extensions><gom:speed>0.07</gom:speed></extensions></trkpt>
   <trkpt lat="59.325790575" lon="34.7125385829"><ele>165.951</ele><time>2026-08-17T01:53:14.656Z</time><hdop>3.0</hdop><vdop>2.5</vdop><extensions><gom:speed>0.072</gom:speed></extensions></trkpt>
   <trkpt lat="59.325790575" lon="34.7125395887"><ele>165.954</ele><time>2026-08-17T01:53:15.649Z</time><hdop>3.0</hdop><vdop>2.5</vdop><extensions><gom:speed>0.069</gom:speed></extensions></trkpt>
   <trkpt lat="59.3257907846" lon="34.7125395887"><ele>165.957</ele><time>2026-08-17T01:53:16.652Z</time><hdop>3.0</hdop><vdop>2.5</vdop><extensions><gom:speed>0.069</gom:speed></extensions></trkpt>
   <trkpt lat="59.3257908684" lon="34.7125396725"><ele>165.96</ele><time>2026-08-17T01:53:17.652Z</time><hdop>3.0</hdop><vdop>2.5</vdop><extensions><gom:speed>0.069</gom:speed></extensions></trkpt>
   <trkpt lat="59.3257907846" lon="34.712539924"><ele>165.962</ele><time>2026-08-17T01:53:18.649Z</time><hdop>3.0</hdop><vdop>2.5</vdop><extensions><gom:speed>0.07</gom:speed></extensions></trkpt>
   <trkpt lat="59.3257909941" lon="34.7125398401"><ele>165.965</ele><time>2026-08-17T01:53:19.652Z</time><hdop>3.0</hdop><vdop>2.5</vdop><extensions><gom:speed>0.071</gom:speed></extensions></trkpt>
   <trkpt lat="59.3257910779" lon="34.7125400916"><ele>165.97</ele><time>2026-08-17T01:53:20.652Z</time><hdop>3.0</hdop><vdop>2.5</vdop><extensions><gom:speed>0.071</gom:speed></extensions></trkpt>
   <trkpt lat="59.3257911618" lon="34.7125402592"><ele>165.976</ele><time>2026-08-17T01:53:21.652Z</time><hdop>3.0</hdop><vdop>2.5</vdop><extensions><gom:speed>0.071</gom:speed></extensions></trkpt>
   <trkpt lat="59.3257913713" lon="34.7125405945"><ele>165.982</ele><time>2026-08-17T01:53:22.653Z</time><hdop>3.0</hdop><vdop>2.5</vdop><extensions><gom:speed>0.073</gom:speed></extensions></trkpt>
   <trkpt lat="59.325791497" lon="34.7125406783"><ele>165.987</ele><time>2026-08-17T01:53:23.652Z</time><hdop>3.0</hdop><vdop>2.5</vdop><extensions><gom:speed>0.074</gom:speed></extensions></trkpt>
   <trkpt lat="59.325791497" lon="34.712540846"><ele>165.99</ele><time>2026-08-17T01:53:24.652Z</time><hdop>3.0</hdop><vdop>2.5</vdop><extensions><gom:speed>0.074</gom:speed></extensions></trkpt>
   <trkpt lat="59.3257913713" lon="34.7125410974"><ele>165.992</ele><time>2026-08-17T01:53:25.648Z</time><hdop>3.0</hdop><vdop>2.5</vdop><extensions><gom:speed>0.075</gom:speed></extensions></trkpt>
   <trkpt lat="59.325791497" lon="34.7125411812"><ele>165.993</ele><time>2026-08-17T01:53:26.652Z</time><hdop>3.0</hdop><vdop>2.5</vdop><extensions><gom:speed>0.076</gom:speed></extensions></trkpt>
   <trkpt lat="59.3257915809" lon="34.7125412651"><ele>165.995</ele><time>2026-08-17T01:53:27.652Z</time><hdop>3.0</hdop><vdop>2.5</vdop><extensions><gom:speed>0.075</gom:speed></extensions></trkpt>
   <trkpt lat="59.3257915809" lon="34.7125415165"><ele>166.358</ele><time>2026-08-17T01:53:28.652Z</time><hdop>3.0</hdop><vdop>2.5</vdop><extensions><gom:speed>0.071</gom:speed></extensions></trkpt>
   <trkpt lat="59.3257918742" lon="34.712541768"><ele>166.577</ele><time>2026-08-17T01:53:29.650Z</time><hdop>3.0</hdop><vdop>2.5</vdop><extensions><gom:speed>0.198</gom:speed></extensions></trkpt>
   <trkpt lat="59.3257922933" lon="34.7125415165"><ele>166.71</ele><time>2026-08-17T01:53:30.652Z</time><hdop>3.0</hdop><vdop>2.5</vdop><extensions><gom:speed>0.091</gom:speed></extensions></trkpt>
   <trkpt lat="59.3257920838" lon="34.712541768"><ele>166.791</ele><time>2026-08-17T01:53:31.653Z</time><hdop>3.0</hdop><vdop>2.5</vdop><extensions><gom:speed>0.076</gom:speed></extensions></trkpt>
   <trkpt lat="59.3257921676" lon="34.7125419356"><ele>166.84</ele><time>2026-08-17T01:53:32.652Z</time><hdop>3.0</hdop><vdop>2.5</vdop><extensions><gom:speed>0.069</gom:speed></extensions></trkpt>
   <trkpt lat="59.3257920838" lon="34.7125420194"><ele>166.87</ele><time>2026-08-17T01:53:33.652Z</time><hdop>3.0</hdop><vdop>2.5</vdop><extensions><gom:speed>0.065</gom:speed></extensions></trkpt>
   <trkpt lat="59.3257921676" lon="34.7125423547"><ele>166.887</ele><time>2026-08-17T01:53:34.649Z</time><hdop>3.0</hdop><vdop>2.5</vdop><extensions><gom:speed>0.062</gom:speed></extensions></trkpt>
   <trkpt lat="59.3257922933" lon="34.7125424385"><ele>166.897</ele><time>2026-08-17T01:53:35.649Z</time><hdop>3.0</hdop><vdop>2.5</vdop><extensions><gom:speed>0.061</gom:speed></extensions></trkpt>
   <trkpt lat="59.3257923771" lon="34.71254269"><ele>166.904</ele><time>2026-08-17T01:53:36.649Z</time><hdop>3.0</hdop><vdop>2.5</vdop><extensions><gom:speed>0.059</gom:speed></extensions></trkpt>
   <trkpt lat="59.3257926705" lon="34.7125424385"><ele>166.992</ele><time>2026-08-17T01:53:37.649Z</time><hdop>3.0</hdop><vdop>2.5</vdop><extensions><gom:speed>0.11</gom:speed></extensions></trkpt>
   <trkpt lat="59.3257930896" lon="34.71254269"><ele>167.044</ele><time>2026-08-17T01:53:38.655Z</time><hdop>3.0</hdop><vdop>2.5</vdop><extensions><gom:speed>0.113</gom:speed></extensions></trkpt>
   <trkpt lat="59.325793383" lon="34.7125433605"><ele>167.074</ele><time>2026-08-17T01:53:39.650Z</time><hdop>3.0</hdop><vdop>2.5</vdop><extensions><gom:speed>0.084</gom:speed></extensions></trkpt>
   <trkpt lat="59.3257935925" lon="34.7125437796"><ele>167.092</ele><time>2026-08-17T01:53:40.652Z</time><hdop>3.0</hdop><vdop>2.5</vdop><extensions><gom:speed>0.084</gom:speed></extensions></trkpt>
   <trkpt lat="59.3257936763" lon="34.7125443664"><ele>167.104</ele><time>2026-08-17T01:53:41.649Z</time><hdop>3.0</hdop><vdop>2.5</vdop><extensions><gom:speed>0.071</gom:speed></extensions></trkpt>
   <trkpt lat="59.3257938859" lon="34.7125446178"><ele>167.111</ele><time>2026-08-17T01:53:42.652Z</time><hdop>3.0</hdop><vdop>2.5</vdop><extensions><gom:speed>0.072</gom:speed></extensions></trkpt>
   <trkpt lat="59.3257937602" lon="34.7125449531"><ele>167.115</ele><time>2026-08-17T01:53:43.147Z</time><hdop>3.0</hdop><vdop>2.5</vdop><extensions><gom:speed>0.069</gom:speed></extensions></trkpt>
   <trkpt lat="59.3257939697" lon="34.712545456"><ele>167.118</ele><time>2026-08-17T01:53:43.653Z</time><hdop>3.0</hdop><vdop>2.5</vdop><extensions><gom:speed>0.068</gom:speed></extensions></trkpt>
   <trkpt lat="59.3257940954" lon="34.7125457913"><ele>167.121</ele><time>2026-08-17T01:53:44.648Z</time><hdop>3.0</hdop><vdop>2.5</vdop><extensions><gom:speed>0.062</gom:speed></extensions></trkpt>
   <trkpt lat="59.3257941793" lon="34.7125459589"><ele>167.124</ele><time>2026-08-17T01:53:45.652Z</time><hdop>3.0</hdop><vdop>2.5</vdop><extensions><gom:speed>0.062</gom:speed></extensions></trkpt>
   <trkpt lat="59.3257942631" lon="34.712546378"><ele>167.126</ele><time>2026-08-17T01:53:46.648Z</time><hdop>3.0</hdop><vdop>2.5</vdop><extensions><gom:speed>0.059</gom:speed></extensions></trkpt>
   <trkpt lat="59.3257943888" lon="34.7125464618"><ele>167.13</ele><time>2026-08-17T01:53:47.652Z</time><hdop>3.0</hdop><vdop>2.5</vdop><extensions><gom:speed>0.059</gom:speed></extensions></trkpt>
   <trkpt lat="59.3257944726" lon="34.7125468809"><ele>167.133</ele><time>2026-08-17T01:53:48.649Z</time><hdop>3.0</hdop><vdop>2.5</vdop><extensions><gom:speed>0.059</gom:speed></extensions></trkpt>
   <trkpt lat="59.3257945983" lon="34.7125470486"><ele>167.135</ele><time>2026-08-17T01:53:49.652Z</time><hdop>3.0</hdop><vdop>2.5</vdop><extensions><gom:speed>0.059</gom:speed></extensions></trkpt>
   <trkpt lat="59.3257946822" lon="34.7125477191"><ele>167.137</ele><time>2026-08-17T01:53:50.654Z</time><hdop>3.0</hdop><vdop>2.5</vdop><extensions><gom:speed>0.059</gom:speed></extensions></trkpt>
   <trkpt lat="59.3257946822" lon="34.7125480544"><ele>167.14</ele><time>2026-08-17T01:53:51.649Z</time><hdop>3.0</hdop><vdop>2.5</vdop><extensions><gom:speed>0.059</gom:speed></extensions></trkpt>
   <trkpt lat="59.325794766" lon="34.712548222"><ele>167.141</ele><time>2026-08-17T01:53:52.652Z</time><hdop>3.0</hdop><vdop>2.5</vdop><extensions><gom:speed>0.059</gom:speed></extensions></trkpt>
   <trkpt lat="59.3257948917" lon="34.7125485573"><ele>167.143</ele><time>2026-08-17T01:53:53.652Z</time><hdop>3.0</hdop><vdop>2.5</vdop><extensions><gom:speed>0.06</gom:speed></extensions></trkpt>
   <trkpt lat="59.3257949755" lon="34.712548725"><ele>167.145</ele><time>2026-08-17T01:53:54.652Z</time><hdop>3.0</hdop><vdop>2.5</vdop><extensions><gom:speed>0.064</gom:speed></extensions></trkpt>
   <trkpt lat="59.3257950594" lon="34.7125490602"><ele>167.146</ele><time>2026-08-17T01:53:55.652Z</time><hdop>3.0</hdop><vdop>2.5</vdop><extensions><gom:speed>0.064</gom:speed></extensions></trkpt>
   <trkpt lat="59.3257952689" lon="34.7125492279"><ele>167.147</ele><time>2026-08-17T01:53:56.652Z</time><hdop>3.0</hdop><vdop>2.5</vdop><extensions><gom:speed>0.065</gom:speed></extensions></trkpt>
   <trkpt lat="59.3257953946" lon="34.7125494793"><ele>167.148</ele><time>2026-08-17T01:53:57.652Z</time><hdop>3.0</hdop><vdop>2.5</vdop><extensions><gom:speed>0.064</gom:speed></extensions></trkpt>
   <trkpt lat="59.3257953946" lon="34.7125491441"><ele>167.15</ele><time>2026-08-17T01:53:58.649Z</time><hdop>3.0</hdop><vdop>2.5</vdop><extensions><gom:speed>0.066</gom:speed></extensions></trkpt>
   <trkpt lat="59.3257954784" lon="34.7125492279"><ele>167.152</ele><time>2026-08-17T01:53:59.659Z</time><hdop>3.0</hdop><vdop>2.5</vdop><extensions><gom:speed>0.067</gom:speed></extensions></trkpt>
   <trkpt lat="59.3257955623" lon="34.7125494793"><ele>167.154</ele><time>2026-08-17T01:54:00.670Z</time><hdop>3.0</hdop><vdop>2.5</vdop><extensions><gom:speed>0.066</gom:speed></extensions></trkpt>
   <trkpt lat="59.3257955623" lon="34.712549647"><ele>167.155</ele><time>2026-08-17T01:54:01.662Z</time><hdop>3.0</hdop><vdop>2.5</vdop><extensions><gom:speed>0.065</gom:speed></extensions></trkpt>
   <trkpt lat="59.3257955623" lon="34.7125497308"><ele>167.157</ele><time>2026-08-17T01:54:02.674Z</time><hdop>3.0</hdop><vdop>2.5</vdop><extensions><gom:speed>0.068</gom:speed></extensions></trkpt>
   <trkpt lat="59.325795688" lon="34.7125498984"><ele>167.159</ele><time>2026-08-17T01:54:03.652Z</time><hdop>3.0</hdop><vdop>2.5</vdop><extensions><gom:speed>0.07</gom:speed></extensions></trkpt>
   <trkpt lat="59.325795688" lon="34.7125500661"><ele>167.162</ele><time>2026-08-17T01:54:04.652Z</time><hdop>3.0</hdop><vdop>2.5</vdop><extensions><gom:speed>0.071</gom:speed></extensions></trkpt>
   <trkpt lat="59.3257957718" lon="34.7125501499"><ele>167.164</ele><time>2026-08-17T01:54:05.649Z</time><hdop>3.0</hdop><vdop>2.5</vdop><extensions><gom:speed>0.07</gom:speed></extensions></trkpt>
   <trkpt lat="59.3257959814" lon="34.7125502337"><ele>167.167</ele><time>2026-08-17T01:54:06.652Z</time><hdop>3.0</hdop><vdop>2.5</vdop><extensions><gom:speed>0.071</gom:speed></extensions></trkpt>
   <trkpt lat="59.3257960652" lon="34.7125502337"><ele>167.17</ele><time>2026-08-17T01:54:07.651Z</time><hdop>3.0</hdop><vdop>2.5</vdop><extensions><gom:speed>0.073</gom:speed></extensions></trkpt>
   <trkpt lat="59.3257960652" lon="34.7125502337"><ele>167.173</ele><time>2026-08-17T01:54:08.652Z</time><hdop>3.0</hdop><vdop>2.5</vdop><extensions><gom:speed>0.074</gom:speed></extensions></trkpt>
   <trkpt lat="59.3257961909" lon="34.7125503175"><ele>167.175</ele><time>2026-08-17T01:54:09.652Z</time><hdop>3.0</hdop><vdop>2.5</vdop><extensions><gom:speed>0.075</gom:speed></extensions></trkpt>
   <trkpt lat="59.3257961909" lon="34.712550569"><ele>167.176</ele><time>2026-08-17T01:54:10.649Z</time><hdop>3.0</hdop><vdop>2.5</vdop><extensions><gom:speed>0.078</gom:speed></extensions></trkpt>
   <trkpt lat="59.3257962747" lon="34.7125507366"><ele>167.178</ele><time>2026-08-17T01:54:11.652Z</time><hdop>3.0</hdop><vdop>2.5</vdop><extensions><gom:speed>0.078</gom:speed></extensions></trkpt>
   <trkpt lat="59.3257963585" lon="34.7125511557"><ele>167.18</ele><time>2026-08-17T01:54:12.649Z</time><hdop>3.0</hdop><vdop>2.5</vdop><extensions><gom:speed>0.084</gom:speed></extensions></trkpt>
   <trkpt lat="59.3257964843" lon="34.7125513233"><ele>167.181</ele><time>2026-08-17T01:54:13.652Z</time><hdop>3.0</hdop><vdop>2.5</vdop><extensions><gom:speed>0.084</gom:speed></extensions></trkpt>
   <trkpt lat="59.3257966938" lon="34.7125515748"><ele>167.163</ele><time>2026-08-17T01:54:14.652Z</time><hdop>3.0</hdop><vdop>2.5</vdop><extensions><gom:speed>0.085</gom:speed></extensions></trkpt>
   <trkpt lat="59.3257968615" lon="34.7125521615"><ele>167.154</ele><time>2026-08-17T01:54:15.652Z</time><hdop>3.0</hdop><vdop>2.5</vdop><extensions><gom:speed>0.175</gom:speed></extensions></trkpt>
   <trkpt lat="59.3257968615" lon="34.7125535865"><ele>167.152</ele><time>2026-08-17T01:54:16.652Z</time><hdop>3.0</hdop><vdop>2.5</vdop><extensions><gom:speed>0.176</gom:speed></extensions></trkpt>
   <trkpt lat="59.3257969872" lon="34.7125543408"><ele>167.152</ele><time>2026-08-17T01:54:17.652Z</time><hdop>3.062</hdop><vdop>2.5</vdop><extensions><gom:speed>0.167</gom:speed></extensions></trkpt>
   <trkpt lat="59.3257972806" lon="34.7125548437"><ele>167.153</ele><time>2026-08-17T01:54:18.659Z</time><hdop>3.187</hdop><vdop>2.5</vdop><extensions><gom:speed>0.158</gom:speed></extensions></trkpt>
   <trkpt lat="59.3257972806" lon="34.7125547599"><ele>167.154</ele><time>2026-08-17T01:54:19.649Z</time><hdop>3.312</hdop><vdop>2.5</vdop><extensions><gom:speed>0.143</gom:speed></extensions></trkpt>
   <trkpt lat="59.3257973644" lon="34.7125550952"><ele>167.156</ele><time>2026-08-17T01:54:20.652Z</time><hdop>3.562</hdop><vdop>2.5</vdop><extensions><gom:speed>0.143</gom:speed></extensions></trkpt>
   <trkpt lat="59.3257974901" lon="34.712555179"><ele>167.159</ele><time>2026-08-17T01:54:21.653Z</time><hdop>3.625</hdop><vdop>2.5</vdop><extensions><gom:speed>0.136</gom:speed></extensions></trkpt>
   <trkpt lat="59.3257974901" lon="34.712555179"><ele>167.234</ele><time>2026-08-17T01:54:22.652Z</time><hdop>3.75</hdop><vdop>2.5</vdop><extensions><gom:speed>0.131</gom:speed></extensions></trkpt>
   <trkpt lat="59.3257974901" lon="34.712555179"><ele>167.319</ele><time>2026-08-17T01:54:23.652Z</time><hdop>3.937</hdop><vdop>2.5</vdop><extensions><gom:speed>0.126</gom:speed></extensions></trkpt>
   <trkpt lat="59.3257974901" lon="34.712555179"><ele>167.37</ele><time>2026-08-17T01:54:24.652Z</time><hdop>4.062</hdop><vdop>2.5</vdop><extensions><gom:speed>0.119</gom:speed></extensions></trkpt>
   <trkpt lat="59.3257974901" lon="34.7125544247"><ele>167.402</ele><time>2026-08-17T01:54:25.649Z</time><hdop>4.062</hdop><vdop>2.5</vdop><extensions><gom:speed>0.111</gom:speed></extensions></trkpt>
   <trkpt lat="59.3257975739" lon="34.7125543408"><ele>167.42</ele><time>2026-08-17T01:54:26.652Z</time><hdop>4.125</hdop><vdop>2.5</vdop><extensions><gom:speed>0.111</gom:speed></extensions></trkpt>
   <trkpt lat="59.3257974901" lon="34.7125544247"><ele>167.434</ele><time>2026-08-17T01:54:27.664Z</time><hdop>4.125</hdop><vdop>2.5</vdop><extensions><gom:speed>0.107</gom:speed></extensions></trkpt>
   <trkpt lat="59.3257973644" lon="34.7125544247"><ele>167.442</ele><time>2026-08-17T01:54:28.652Z</time><hdop>4.187</hdop><vdop>2.5</vdop><extensions><gom:speed>0.104</gom:speed></extensions></trkpt>
   <trkpt lat="59.3257972806" lon="34.7125544247"><ele>167.449</ele><time>2026-08-17T01:54:29.649Z</time><hdop>4.125</hdop><vdop>2.5</vdop><extensions><gom:speed>0.098</gom:speed></extensions></trkpt>
   <trkpt lat="59.3257972806" lon="34.7125546761"><ele>167.5</ele><time>2026-08-17T01:54:30.658Z</time><hdop>4.125</hdop><vdop>2.5</vdop><extensions><gom:speed>0.098</gom:speed></extensions></trkpt>
   <trkpt lat="59.3257973644" lon="34.7125546761"><ele>167.509</ele><time>2026-08-17T01:54:31.652Z</time><hdop>4.187</hdop><vdop>2.5</vdop><extensions><gom:speed>0.096</gom:speed></extensions></trkpt>
   <trkpt lat="59.3257972806" lon="34.7125546761"><ele>167.515</ele><time>2026-08-17T01:54:32.652Z</time><hdop>4.125</hdop><vdop>2.5</vdop><extensions><gom:speed>0.097</gom:speed></extensions></trkpt>
   <trkpt lat="59.3257972806" lon="34.7125546761"><ele>167.52</ele><time>2026-08-17T01:54:33.652Z</time><hdop>4.187</hdop><vdop>2.5</vdop><extensions><gom:speed>0.098</gom:speed></extensions></trkpt>
   <trkpt lat="59.3257972806" lon="34.7125544247"><ele>167.523</ele><time>2026-08-17T01:54:34.652Z</time><hdop>4.187</hdop><vdop>2.5</vdop><extensions><gom:speed>0.097</gom:speed></extensions></trkpt>
   <trkpt lat="59.3257973644" lon="34.7125543408"><ele>167.524</ele><time>2026-08-17T01:54:35.652Z</time><hdop>4.187</hdop><vdop>2.5</vdop><extensions><gom:speed>0.098</gom:speed></extensions></trkpt>
   <trkpt lat="59.3257971967" lon="34.7125539217"><ele>167.525</ele><time>2026-08-17T01:54:36.649Z</time><hdop>4.187</hdop><vdop>2.5</vdop><extensions><gom:speed>0.095</gom:speed></extensions></trkpt>
   <trkpt lat="59.3257971967" lon="34.7125537541"><ele>167.526</ele><time>2026-08-17T01:54:37.653Z</time><hdop>4.187</hdop><vdop>2.5</vdop><extensions><gom:speed>0.095</gom:speed></extensions></trkpt>
   <trkpt lat="59.325797071" lon="34.712553335"><ele>167.47</ele><time>2026-08-17T01:54:38.649Z</time><hdop>4.187</hdop><vdop>2.5</vdop><extensions><gom:speed>0.094</gom:speed></extensions></trkpt>
   <trkpt lat="59.3257969872" lon="34.7125530835"><ele>167.423</ele><time>2026-08-17T01:54:39.648Z</time><hdop>4.125</hdop><vdop>2.5</vdop><extensions><gom:speed>0.096</gom:speed></extensions></trkpt>
   <trkpt lat="59.3257967776" lon="34.7125532512"><ele>167.327</ele><time>2026-08-17T01:54:40.654Z</time><hdop>4.187</hdop><vdop>2.5</vdop><extensions><gom:speed>0.096</gom:speed></extensions></trkpt>
   <trkpt lat="59.3257965681" lon="34.7125530835"><ele>167.27</ele><time>2026-08-17T01:54:41.251Z</time><hdop>4.187</hdop><vdop>2.5</vdop><extensions><gom:speed>0.164</gom:speed></extensions></trkpt>
   <trkpt lat="59.3257962747" lon="34.7125536703"><ele>167.248</ele><time>2026-08-17T01:54:42.132Z</time><hdop>4.25</hdop><vdop>2.5</vdop><extensions><gom:speed>0.476</gom:speed></extensions></trkpt>
   <trkpt lat="59.3257963585" lon="34.712554257"><ele>167.162</ele><time>2026-08-17T01:54:42.652Z</time><hdop>4.375</hdop><vdop>2.5</vdop><extensions><gom:speed>0.498</gom:speed></extensions></trkpt>
   <trkpt lat="59.3257960652" lon="34.7125538379"><ele>167.11</ele><time>2026-08-17T01:54:43.244Z</time><hdop>4.437</hdop><vdop>2.5</vdop><extensions><gom:speed>0.472</gom:speed></extensions></trkpt>
   <trkpt lat="59.3257958975" lon="34.7125502337"><ele>167.084</ele><time>2026-08-17T01:54:44.165Z</time><hdop>4.687</hdop><vdop>2.5</vdop><extensions><gom:speed>0.237</gom:speed></extensions></trkpt>
   <trkpt lat="59.3257957718" lon="34.7125494793"><ele>167.153</ele><time>2026-08-17T01:54:44.652Z</time><hdop>4.812</hdop><vdop>2.5</vdop><extensions><gom:speed>0.231</gom:speed></extensions></trkpt>
   <trkpt lat="59.3257952689" lon="34.7125480544"><ele>167.194</ele><time>2026-08-17T01:54:45.126Z</time><hdop>4.937</hdop><vdop>2.5</vdop><extensions><gom:speed>0.515</gom:speed></extensions></trkpt>
   <trkpt lat="59.3257938859" lon="34.7125427738"><ele>167.22</ele><time>2026-08-17T01:54:45.649Z</time><hdop>5.0</hdop><vdop>2.5</vdop><extensions><gom:speed>0.234</gom:speed></extensions></trkpt>
   <trkpt lat="59.3257954784" lon="34.712537577"><ele>167.064</ele><time>2026-08-17T01:54:46.652Z</time><hdop>5.187</hdop><vdop>2.5</vdop><extensions><gom:speed>0.177</gom:speed></extensions></trkpt>
   <trkpt lat="59.3257950594" lon="34.7125302848"><ele>166.877</ele><time>2026-08-17T01:54:47.652Z</time><hdop>5.312</hdop><vdop>2.5</vdop><extensions><gom:speed>0.092</gom:speed></extensions></trkpt>
   <trkpt lat="59.325791958" lon="34.7125207294"><ele>166.783</ele><time>2026-08-17T01:54:48.650Z</time><hdop>5.312</hdop><vdop>2.5</vdop><extensions><gom:speed>0.123</gom:speed></extensions></trkpt>
   <trkpt lat="59.3257915809" lon="34.7125189692"><ele>166.727</ele><time>2026-08-17T01:54:49.173Z</time><hdop>5.187</hdop><vdop>2.5</vdop><extensions><gom:speed>0.111</gom:speed></extensions></trkpt>
   <trkpt lat="59.3257915809" lon="34.7125186339"><ele>166.221</ele><time>2026-08-17T01:54:49.659Z</time><hdop>5.125</hdop><vdop>2.5</vdop><extensions><gom:speed>0.072</gom:speed></extensions></trkpt>
   <trkpt lat="59.3257875995" lon="34.712512599"><ele>165.881</ele><time>2026-08-17T01:54:50.649Z</time><hdop>4.75</hdop><vdop>2.5</vdop><extensions><gom:speed>0.148</gom:speed></extensions></trkpt>
   <trkpt lat="59.3257864679" lon="34.7125103358"><ele>165.796</ele><time>2026-08-17T01:54:51.653Z</time><hdop>4.687</hdop><vdop>2.5</vdop><extensions><gom:speed>0.112</gom:speed></extensions></trkpt>
   <trkpt lat="59.3257842886" lon="34.7125076536"><ele>165.754</ele><time>2026-08-17T01:54:52.652Z</time><hdop>4.375</hdop><vdop>2.5</vdop><extensions><gom:speed>0.076</gom:speed></extensions></trkpt>
   <trkpt lat="59.3257823608" lon="34.7125053905"><ele>165.729</ele><time>2026-08-17T01:54:53.652Z</time><hdop>4.312</hdop><vdop>2.5</vdop><extensions><gom:speed>0.063</gom:speed></extensions></trkpt>
   <trkpt lat="59.3257802653" lon="34.7125034627"><ele>165.788</ele><time>2026-08-17T01:54:54.657Z</time><hdop>4.187</hdop><vdop>2.5</vdop><extensions><gom:speed>0.055</gom:speed></extensions></trkpt>
   <trkpt lat="59.3257763677" lon="34.7124990203"><ele>165.929</ele><time>2026-08-17T01:54:55.648Z</time><hdop>4.125</hdop><vdop>2.5</vdop><extensions><gom:speed>0.121</gom:speed></extensions></trkpt>
   <trkpt lat="59.3257762839" lon="34.7124976792"><ele>166.034</ele><time>2026-08-17T01:54:56.652Z</time><hdop>4.0</hdop><vdop>3.0</vdop><extensions><gom:speed>0.056</gom:speed></extensions></trkpt>
   <trkpt lat="59.3257754876" lon="34.712495919"><ele>166.097</ele><time>2026-08-17T01:54:57.692Z</time><hdop>4.0</hdop><vdop>3.0</vdop><extensions><gom:speed>0.044</gom:speed></extensions></trkpt>
   <trkpt lat="59.3257742722" lon="34.7124938235"><ele>166.22</ele><time>2026-08-17T01:54:58.653Z</time><hdop>4.062</hdop><vdop>3.125</vdop><extensions><gom:speed>0.037</gom:speed></extensions></trkpt>
   <trkpt lat="59.3257724701" lon="34.7124907222"><ele>166.289</ele><time>2026-08-17T01:54:59.655Z</time><hdop>4.062</hdop><vdop>2.937</vdop><extensions><gom:speed>0.118</gom:speed></extensions></trkpt>
   <trkpt lat="59.3257633758" lon="34.7124749642"><ele>166.329</ele><time>2026-08-17T01:55:00.649Z</time><hdop>3.875</hdop><vdop>3.0</vdop><extensions><gom:speed>0.088</gom:speed></extensions></trkpt>
   <trkpt lat="59.3257613641" lon="34.7124717791"><ele>166.886</ele><time>2026-08-17T01:55:01.652Z</time><hdop>3.687</hdop><vdop>2.75</vdop><extensions><gom:speed>0.038</gom:speed></extensions></trkpt>
   <trkpt lat="59.3257585981" lon="34.712466247"><ele>167.221</ele><time>2026-08-17T01:55:02.652Z</time><hdop>3.437</hdop><vdop>2.687</vdop><extensions><gom:speed>0.053</gom:speed></extensions></trkpt>
   <trkpt lat="59.3257574665" lon="34.7124622237"><ele>167.421</ele><time>2026-08-17T01:55:03.287Z</time><hdop>3.312</hdop><vdop>2.687</vdop><extensions><gom:speed>0.086</gom:speed></extensions></trkpt>
   <trkpt lat="59.3257561673" lon="34.7124547638"><ele>167.424</ele><time>2026-08-17T01:55:04.654Z</time><hdop>3.0</hdop><vdop>2.687</vdop><extensions><gom:speed>0.14</gom:speed></extensions></trkpt>
   <trkpt lat="59.3257555806" lon="34.7124480583"><ele>167.37</ele><time>2026-08-17T01:55:05.652Z</time><hdop>3.0</hdop><vdop>2.75</vdop><extensions><gom:speed>0.158</gom:speed></extensions></trkpt>
   <trkpt lat="59.3257550777" lon="34.7124414366"><ele>167.338</ele><time>2026-08-17T01:55:06.332Z</time><hdop>3.0</hdop><vdop>2.75</vdop><extensions><gom:speed>0.206</gom:speed></extensions></trkpt>
   <trkpt lat="59.3257542814" lon="34.7124349825"><ele>167.151</ele><time>2026-08-17T01:55:07.091Z</time><hdop>3.0</hdop><vdop>3.0</vdop><extensions><gom:speed>0.21</gom:speed></extensions></trkpt>
   <trkpt lat="59.3257536947" lon="34.7124269359"><ele>167.346</ele><time>2026-08-17T01:55:07.649Z</time><hdop>3.0</hdop><vdop>3.0</vdop><extensions><gom:speed>0.183</gom:speed></extensions></trkpt>
   <trkpt lat="59.3257533594" lon="34.7124223259"><ele>167.462</ele><time>2026-08-17T01:55:08.346Z</time><hdop>3.0</hdop><vdop>3.0</vdop><extensions><gom:speed>0.172</gom:speed></extensions></trkpt>
   <trkpt lat="59.3257535689" lon="34.7124110941"><ele>167.69</ele><time>2026-08-17T01:55:09.651Z</time><hdop>3.0</hdop><vdop>3.687</vdop><extensions><gom:speed>0.212</gom:speed></extensions></trkpt>
   <trkpt lat="59.3257543652" lon="34.7124050591"><ele>168.383</ele><time>2026-08-17T01:55:10.652Z</time><hdop>3.0</hdop><vdop>3.875</vdop><extensions><gom:speed>0.102</gom:speed></extensions></trkpt>
   <trkpt lat="59.325755371" lon="34.7123944979"><ele>168.797</ele><time>2026-08-17T01:55:11.615Z</time><hdop>3.0</hdop><vdop>3.875</vdop><extensions><gom:speed>0.182</gom:speed></extensions></trkpt>
   <trkpt lat="59.3257568798" lon="34.7123854455"><ele>168.824</ele><time>2026-08-17T01:55:12.652Z</time><hdop>3.0</hdop><vdop>3.937</vdop><extensions><gom:speed>0.067</gom:speed></extensions></trkpt>
   <trkpt lat="59.3257576761" lon="34.7123753872"><ele>168.84</ele><time>2026-08-17T01:55:13.253Z</time><hdop>3.0</hdop><vdop>3.937</vdop><extensions><gom:speed>0.105</gom:speed></extensions></trkpt>
   <trkpt lat="59.3257590591" lon="34.7123670891"><ele>168.839</ele><time>2026-08-17T01:55:14.052Z</time><hdop>3.0</hdop><vdop>4.062</vdop><extensions><gom:speed>0.104</gom:speed></extensions></trkpt>
   <trkpt lat="59.3257596877" lon="34.7123643231"><ele>168.836</ele><time>2026-08-17T01:55:14.652Z</time><hdop>3.0</hdop><vdop>4.25</vdop><extensions><gom:speed>0.106</gom:speed></extensions></trkpt>
   <trkpt lat="59.3257609869" lon="34.7123573661"><ele>168.744</ele><time>2026-08-17T01:55:15.652Z</time><hdop>3.0</hdop><vdop>4.562</vdop><extensions><gom:speed>0.1</gom:speed></extensions></trkpt>
   <trkpt lat="59.3257625795" lon="34.7123529237"><ele>168.614</ele><time>2026-08-17T01:55:16.652Z</time><hdop>3.0</hdop><vdop>5.062</vdop><extensions><gom:speed>0.1</gom:speed></extensions></trkpt>
   <trkpt lat="59.3257637949" lon="34.7123503253"><ele>168.344</ele><time>2026-08-17T01:55:17.652Z</time><hdop>3.0</hdop><vdop>5.25</vdop><extensions><gom:speed>0.06</gom:speed></extensions></trkpt>
   <trkpt lat="59.3257657646" lon="34.7123471402"><ele>168.182</ele><time>2026-08-17T01:55:18.544Z</time><hdop>3.0</hdop><vdop>5.25</vdop><extensions><gom:speed>0.104</gom:speed></extensions></trkpt>
   <trkpt lat="59.3257677763" lon="34.7123439551"><ele>168.095</ele><time>2026-08-17T01:55:19.354Z</time><hdop>3.0</hdop><vdop>5.687</vdop><extensions><gom:speed>0.103</gom:speed></extensions></trkpt>
   <trkpt lat="59.3257708776" lon="34.7123410214"><ele>168.091</ele><time>2026-08-17T01:55:20.659Z</time><hdop>3.0</hdop><vdop>5.875</vdop><extensions><gom:speed>0.051</gom:speed></extensions></trkpt>
   <trkpt lat="59.3257767868" lon="34.7123299573"><ele>168.102</ele><time>2026-08-17T01:55:21.649Z</time><hdop>3.062</hdop><vdop>5.187</vdop><extensions><gom:speed>0.112</gom:speed></extensions></trkpt>
   <trkpt lat="59.3257821931" lon="34.7123188932"><ele>168.11</ele><time>2026-08-17T01:55:22.649Z</time><hdop>3.062</hdop><vdop>4.25</vdop><extensions><gom:speed>0.094</gom:speed></extensions></trkpt>
   <trkpt lat="59.3257825703" lon="34.7123190608"><ele>168.116</ele><time>2026-08-17T01:55:23.652Z</time><hdop>3.062</hdop><vdop>4.562</vdop><extensions><gom:speed>0.026</gom:speed></extensions></trkpt>
   <trkpt lat="59.3257838695" lon="34.7123165462"><ele>168.121</ele><time>2026-08-17T01:55:24.652Z</time><hdop>3.125</hdop><vdop>4.25</vdop><extensions><gom:speed>0.022</gom:speed></extensions></trkpt>
   <trkpt lat="59.3257862584" lon="34.712311098"><ele>168.124</ele><time>2026-08-17T01:55:25.567Z</time><hdop>3.062</hdop><vdop>4.25</vdop><extensions><gom:speed>0.074</gom:speed></extensions></trkpt>
   <trkpt lat="59.3257872642" lon="34.7123072423"><ele>168.247</ele><time>2026-08-17T01:55:26.153Z</time><hdop>3.062</hdop><vdop>3.812</vdop><extensions><gom:speed>0.082</gom:speed></extensions></trkpt>
   <trkpt lat="59.3257878928" lon="34.7123052307"><ele>168.266</ele><time>2026-08-17T01:55:26.652Z</time><hdop>3.0</hdop><vdop>3.312</vdop><extensions><gom:speed>0.036</gom:speed></extensions></trkpt>
   <trkpt lat="59.3257898626" lon="34.7122781571"><ele>168.364</ele><time>2026-08-17T01:55:27.648Z</time><hdop>3.0</hdop><vdop>3.187</vdop><extensions><gom:speed>0.214</gom:speed></extensions></trkpt>
   <trkpt lat="59.325790575" lon="34.712271284"><ele>168.422</ele><time>2026-08-17T01:55:28.651Z</time><hdop>3.0</hdop><vdop>3.187</vdop><extensions><gom:speed>0.202</gom:speed></extensions></trkpt>
   <trkpt lat="59.3257903655" lon="34.7122481499"><ele>168.426</ele><time>2026-08-17T01:55:29.663Z</time><hdop>3.0</hdop><vdop>3.25</vdop><extensions><gom:speed>0.214</gom:speed></extensions></trkpt>
   <trkpt lat="59.3257885634" lon="34.7122298774"><ele>168.12</ele><time>2026-08-17T01:55:30.652Z</time><hdop>3.0</hdop><vdop>3.25</vdop><extensions><gom:speed>0.216</gom:speed></extensions></trkpt>
   <trkpt lat="59.3257873899" lon="34.7122149576"><ele>167.92</ele><time>2026-08-17T01:55:31.649Z</time><hdop>3.0</hdop><vdop>3.25</vdop><extensions><gom:speed>0.192</gom:speed></extensions></trkpt>
   <trkpt lat="59.3257875995" lon="34.7122111857"><ele>167.787</ele><time>2026-08-17T01:55:32.658Z</time><hdop>3.0</hdop><vdop>3.062</vdop><extensions><gom:speed>0.112</gom:speed></extensions></trkpt>
   <trkpt lat="59.3257876833" lon="34.7122079168"><ele>167.698</ele><time>2026-08-17T01:55:33.670Z</time><hdop>3.0</hdop><vdop>3.187</vdop><extensions><gom:speed>0.095</gom:speed></extensions></trkpt>
   <trkpt lat="59.3257880605" lon="34.7122046478"><ele>167.633</ele><time>2026-08-17T01:55:34.652Z</time><hdop>3.0</hdop><vdop>2.812</vdop><extensions><gom:speed>0.05</gom:speed></extensions></trkpt>
   <trkpt lat="59.3257880605" lon="34.7122003731"><ele>167.594</ele><time>2026-08-17T01:55:35.653Z</time><hdop>3.0</hdop><vdop>2.812</vdop><extensions><gom:speed>0.105</gom:speed></extensions></trkpt>
   <trkpt lat="59.3257877671" lon="34.7121969365"><ele>167.659</ele><time>2026-08-17T01:55:36.452Z</time><hdop>3.0</hdop><vdop>2.5</vdop><extensions><gom:speed>0.084</gom:speed></extensions></trkpt>
   <trkpt lat="59.3257870965" lon="34.7121894766"><ele>167.685</ele><time>2026-08-17T01:55:37.454Z</time><hdop>3.0</hdop><vdop>2.5</vdop><extensions><gom:speed>0.146</gom:speed></extensions></trkpt>
   <trkpt lat="59.3257874737" lon="34.712184196"><ele>167.528</ele><time>2026-08-17T01:55:38.233Z</time><hdop>3.0</hdop><vdop>2.625</vdop><extensions><gom:speed>0.169</gom:speed></extensions></trkpt>
   <trkpt lat="59.3257884796" lon="34.7121770714"><ele>167.478</ele><time>2026-08-17T01:55:39.528Z</time><hdop>3.0</hdop><vdop>2.562</vdop><extensions><gom:speed>0.178</gom:speed></extensions></trkpt>
   <trkpt lat="59.3257907846" lon="34.7121720422"><ele>167.299</ele><time>2026-08-17T01:55:40.652Z</time><hdop>3.0</hdop><vdop>2.937</vdop><extensions><gom:speed>0.184</gom:speed></extensions></trkpt>
   <trkpt lat="59.3257930896" lon="34.7121691924"><ele>167.053</ele><time>2026-08-17T01:55:41.652Z</time><hdop>3.0</hdop><vdop>2.75</vdop><extensions><gom:speed>0.152</gom:speed></extensions></trkpt>
   <trkpt lat="59.325795688" lon="34.7121675998"><ele>166.906</ele><time>2026-08-17T01:55:42.593Z</time><hdop>3.0</hdop><vdop>2.75</vdop><extensions><gom:speed>0.192</gom:speed></extensions></trkpt>
   <trkpt lat="59.3257977835" lon="34.7121696953"><ele>166.717</ele><time>2026-08-17T01:55:43.649Z</time><hdop>3.0</hdop><vdop>2.812</vdop><extensions><gom:speed>0.147</gom:speed></extensions></trkpt>
   <trkpt lat="59.3257981607" lon="34.7121710364"><ele>166.231</ele><time>2026-08-17T01:55:44.653Z</time><hdop>3.0</hdop><vdop>2.875</vdop><extensions><gom:speed>0.101</gom:speed></extensions></trkpt>
   <trkpt lat="59.325799376" lon="34.712170282"><ele>165.916</ele><time>2026-08-17T01:55:45.649Z</time><hdop>3.0</hdop><vdop>3.0</vdop><extensions><gom:speed>0.164</gom:speed></extensions></trkpt>
   <trkpt lat="59.325800759" lon="34.7121686895"><ele>165.762</ele><time>2026-08-17T01:55:46.660Z</time><hdop>3.0</hdop><vdop>3.375</vdop><extensions><gom:speed>0.214</gom:speed></extensions></trkpt>
   <trkpt lat="59.325802184" lon="34.7121660911"><ele>165.67</ele><time>2026-08-17T01:55:47.648Z</time><hdop>3.0</hdop><vdop>3.937</vdop><extensions><gom:speed>0.247</gom:speed></extensions></trkpt>
   <trkpt lat="59.3258036927" lon="34.7121648338"><ele>165.524</ele><time>2026-08-17T01:55:48.652Z</time><hdop>3.0</hdop><vdop>4.062</vdop><extensions><gom:speed>0.223</gom:speed></extensions></trkpt>
   <trkpt lat="59.3258045728" lon="34.7121619839"><ele>165.187</ele><time>2026-08-17T01:55:49.652Z</time><hdop>3.0</hdop><vdop>3.937</vdop><extensions><gom:speed>0.176</gom:speed></extensions></trkpt>
   <trkpt lat="59.3258055786" lon="34.7121579606"><ele>164.985</ele><time>2026-08-17T01:55:50.526Z</time><hdop>3.0</hdop><vdop>3.937</vdop><extensions><gom:speed>0.175</gom:speed></extensions></trkpt>
   <trkpt lat="59.3258065845" lon="34.7121519257"><ele>165.034</ele><time>2026-08-17T01:55:51.547Z</time><hdop>3.0</hdop><vdop>3.375</vdop><extensions><gom:speed>0.169</gom:speed></extensions></trkpt>
   <trkpt lat="59.3258066683" lon="34.7121431247"><ele>165.069</ele><time>2026-08-17T01:55:52.652Z</time><hdop>3.0</hdop><vdop>2.75</vdop><extensions><gom:speed>0.104</gom:speed></extensions></trkpt>
   <trkpt lat="59.325806794" lon="34.7121331502"><ele>165.087</ele><time>2026-08-17T01:55:53.652Z</time><hdop>3.0</hdop><vdop>2.5</vdop><extensions><gom:speed>0.084</gom:speed></extensions></trkpt>
   <trkpt lat="59.3258066683" lon="34.7121255227"><ele>165.099</ele><time>2026-08-17T01:55:54.652Z</time><hdop>3.0</hdop><vdop>2.5</vdop><extensions><gom:speed>0.065</gom:speed></extensions></trkpt>
   <trkpt lat="59.3258065845" lon="34.712117476"><ele>165.106</ele><time>2026-08-17T01:55:55.652Z</time><hdop>3.0</hdop><vdop>2.5</vdop><extensions><gom:speed>0.027</gom:speed></extensions></trkpt>
   <trkpt lat="59.3258063749" lon="34.7121131174"><ele>165.333</ele><time>2026-08-17T01:55:56.657Z</time><hdop>3.0</hdop><vdop>2.5</vdop><extensions><gom:speed>0.028</gom:speed></extensions></trkpt>
   <trkpt lat="59.3258057882" lon="34.7121092618"><ele>165.214</ele><time>2026-08-17T01:55:57.652Z</time><hdop>3.0</hdop><vdop>2.5</vdop><extensions><gom:speed>0.021</gom:speed></extensions></trkpt>
   <trkpt lat="59.3258047824" lon="34.7121063281"><ele>165.147</ele><time>2026-08-17T01:55:58.652Z</time><hdop>3.0</hdop><vdop>2.5</vdop><extensions><gom:speed>0.019</gom:speed></extensions></trkpt>
   <trkpt lat="59.3258025612" lon="34.7121010475"><ele>165.107</ele><time>2026-08-17T01:55:59.649Z</time><hdop>3.0</hdop><vdop>2.5</vdop><extensions><gom:speed>0.064</gom:speed></extensions></trkpt>
   <trkpt lat="59.3258011781" lon="34.71209803"><ele>165.086</ele><time>2026-08-17T01:56:00.649Z</time><hdop>3.0</hdop><vdop>2.5</vdop><extensions><gom:speed>0.058</gom:speed></extensions></trkpt>
   <trkpt lat="59.3258009686" lon="34.7120968566"><ele>165.073</ele><time>2026-08-17T01:56:01.654Z</time><hdop>3.0</hdop><vdop>2.5</vdop><extensions><gom:speed>0.09</gom:speed></extensions></trkpt>
   <trkpt lat="59.3257997951" lon="34.7120950964"><ele>165.065</ele><time>2026-08-17T01:56:02.393Z</time><hdop>3.0</hdop><vdop>2.5</vdop><extensions><gom:speed>0.081</gom:speed></extensions></trkpt>
   <trkpt lat="59.3257989988" lon="34.7120950964"><ele>165.649</ele><time>2026-08-17T01:56:03.652Z</time><hdop>3.0</hdop><vdop>2.5</vdop><extensions><gom:speed>0.038</gom:speed></extensions></trkpt>
   <trkpt lat="59.3257985798" lon="34.7120942582"><ele>166.011</ele><time>2026-08-17T01:56:04.648Z</time><hdop>3.0</hdop><vdop>2.5</vdop><extensions><gom:speed>0.099</gom:speed></extensions></trkpt>
   <trkpt lat="59.3257987893" lon="34.7120925818"><ele>166.201</ele><time>2026-08-17T01:56:05.649Z</time><hdop>3.0</hdop><vdop>2.5</vdop><extensions><gom:speed>0.124</gom:speed></extensions></trkpt>
   <trkpt lat="59.3257992922" lon="34.7120908216"><ele>166.422</ele><time>2026-08-17T01:56:06.654Z</time><hdop>3.0</hdop><vdop>2.5</vdop><extensions><gom:speed>0.105</gom:speed></extensions></trkpt>
   <trkpt lat="59.3257995856" lon="34.7120875526"><ele>166.554</ele><time>2026-08-17T01:56:07.593Z</time><hdop>3.0</hdop><vdop>2.5</vdop><extensions><gom:speed>0.139</gom:speed></extensions></trkpt>
   <trkpt lat="59.325799376" lon="34.7120840322"><ele>166.506</ele><time>2026-08-17T01:56:08.291Z</time><hdop>3.0</hdop><vdop>2.5</vdop><extensions><gom:speed>0.162</gom:speed></extensions></trkpt>
   <trkpt lat="59.3257986636" lon="34.7120789193"><ele>166.654</ele><time>2026-08-17T01:56:09.445Z</time><hdop>3.0</hdop><vdop>2.5</vdop><extensions><gom:speed>0.165</gom:speed></extensions></trkpt>
   <trkpt lat="59.3257975739" lon="34.7120744769"><ele>166.873</ele><time>2026-08-17T01:56:10.072Z</time><hdop>3.0</hdop><vdop>2.5</vdop><extensions><gom:speed>0.218</gom:speed></extensions></trkpt>
   <trkpt lat="59.3257986636" lon="34.7120718785"><ele>167.249</ele><time>2026-08-17T01:56:10.652Z</time><hdop>3.0</hdop><vdop>2.5</vdop><extensions><gom:speed>0.257</gom:speed></extensions></trkpt>
   <trkpt lat="59.325799376" lon="34.7120672684"><ele>167.262</ele><time>2026-08-17T01:56:11.652Z</time><hdop>3.0</hdop><vdop>2.5</vdop><extensions><gom:speed>0.212</gom:speed></extensions></trkpt>
   <trkpt lat="59.3257996694" lon="34.71206006"><ele>167.576</ele><time>2026-08-17T01:56:12.649Z</time><hdop>3.0</hdop><vdop>2.5</vdop><extensions><gom:speed>0.216</gom:speed></extensions></trkpt>
   <trkpt lat="59.3258001723" lon="34.7120569587"><ele>167.764</ele><time>2026-08-17T01:56:13.633Z</time><hdop>3.0</hdop><vdop>2.5</vdop><extensions><gom:speed>0.21</gom:speed></extensions></trkpt>
   <trkpt lat="59.325799376" lon="34.7120535221"><ele>167.547</ele><time>2026-08-17T01:56:14.652Z</time><hdop>3.0</hdop><vdop>2.5</vdop><extensions><gom:speed>0.116</gom:speed></extensions></trkpt>
   <trkpt lat="59.3257980768" lon="34.7120505885"><ele>167.01</ele><time>2026-08-17T01:56:15.657Z</time><hdop>3.0</hdop><vdop>2.5</vdop><extensions><gom:speed>0.127</gom:speed></extensions></trkpt>
   <trkpt lat="59.3257968615" lon="34.7120465651"><ele>166.69</ele><time>2026-08-17T01:56:16.648Z</time><hdop>3.0</hdop><vdop>2.5</vdop><extensions><gom:speed>0.131</gom:speed></extensions></trkpt>
   <trkpt lat="59.3257942631" lon="34.7120438829"><ele>166.496</ele><time>2026-08-17T01:56:17.652Z</time><hdop>3.0</hdop><vdop>2.5</vdop><extensions><gom:speed>0.092</gom:speed></extensions></trkpt>
   <trkpt lat="59.325793383" lon="34.7120420389"><ele>166.204</ele><time>2026-08-17T01:56:18.652Z</time><hdop>3.0</hdop><vdop>2.5</vdop><extensions><gom:speed>0.08</gom:speed></extensions></trkpt>
   <trkpt lat="59.3257926705" lon="34.7120400273"><ele>165.971</ele><time>2026-08-17T01:56:19.652Z</time><hdop>3.0</hdop><vdop>2.5</vdop><extensions><gom:speed>0.063</gom:speed></extensions></trkpt>
   <trkpt lat="59.3257923771" lon="34.7120365907"><ele>165.832</ele><time>2026-08-17T01:56:20.665Z</time><hdop>3.0</hdop><vdop>2.5</vdop><extensions><gom:speed>0.117</gom:speed></extensions></trkpt>
   <trkpt lat="59.3257917904" lon="34.7120341599"><ele>165.67</ele><time>2026-08-17T01:56:21.652Z</time><hdop>3.0</hdop><vdop>2.5</vdop><extensions><gom:speed>0.062</gom:speed></extensions></trkpt>
   <trkpt lat="59.325794766" lon="34.7120260295"><ele>165.585</ele><time>2026-08-17T01:56:22.647Z</time><hdop>3.0</hdop><vdop>2.5</vdop><extensions><gom:speed>0.093</gom:speed></extensions></trkpt>
   <trkpt lat="59.3257955623" lon="34.7120231796"><ele>165.181</ele><time>2026-08-17T01:56:23.652Z</time><hdop>3.0</hdop><vdop>2.5</vdop><extensions><gom:speed>0.066</gom:speed></extensions></trkpt>
   <trkpt lat="59.3257992922" lon="34.7120117802"><ele>164.993</ele><time>2026-08-17T01:56:24.648Z</time><hdop>3.0</hdop><vdop>2.5</vdop><extensions><gom:speed>0.092</gom:speed></extensions></trkpt>
   <trkpt lat="59.325800759" lon="34.7120086789"><ele>164.711</ele><time>2026-08-17T01:56:25.652Z</time><hdop>3.0</hdop><vdop>2.5</vdop><extensions><gom:speed>0.091</gom:speed></extensions></trkpt>
   <trkpt lat="59.3258028964" lon="34.7119989559"><ele>164.877</ele><time>2026-08-17T01:56:26.647Z</time><hdop>3.0</hdop><vdop>2.5</vdop><extensions><gom:speed>0.111</gom:speed></extensions></trkpt>
   <trkpt lat="59.3258039861" lon="34.7119951841"><ele>164.962</ele><time>2026-08-17T01:56:27.652Z</time><hdop>3.0</hdop><vdop>2.5</vdop><extensions><gom:speed>0.14</gom:speed></extensions></trkpt>
   <trkpt lat="59.3258054948" lon="34.7119907417"><ele>164.993</ele><time>2026-08-17T01:56:28.652Z</time><hdop>3.0</hdop><vdop>2.5</vdop><extensions><gom:speed>0.113</gom:speed></extensions></trkpt>
   <trkpt lat="59.3258071712" lon="34.7119865507"><ele>165.011</ele><time>2026-08-17T01:56:29.326Z</time><hdop>3.0</hdop><vdop>2.5</vdop><extensions><gom:speed>0.142</gom:speed></extensions></trkpt>
   <trkpt lat="59.3258098953" lon="34.7119798452"><ele>164.822</ele><time>2026-08-17T01:56:30.648Z</time><hdop>3.0</hdop><vdop>2.5</vdop><extensions><gom:speed>0.119</gom:speed></extensions></trkpt>
   <trkpt lat="59.3258108592" lon="34.7119783364"><ele>164.587</ele><time>2026-08-17T01:56:31.652Z</time><hdop>3.0</hdop><vdop>2.5</vdop><extensions><gom:speed>0.068</gom:speed></extensions></trkpt>
   <trkpt lat="59.3258118651" lon="34.7119757381"><ele>164.446</ele><time>2026-08-17T01:56:32.311Z</time><hdop>3.0</hdop><vdop>2.5</vdop><extensions><gom:speed>0.098</gom:speed></extensions></trkpt>
   <trkpt lat="59.3258122842" lon="34.7119728882"><ele>164.329</ele><time>2026-08-17T01:56:33.652Z</time><hdop>3.0</hdop><vdop>2.5</vdop><extensions><gom:speed>0.072</gom:speed></extensions></trkpt>
   <trkpt lat="59.3258127871" lon="34.7119703736"><ele>164.258</ele><time>2026-08-17T01:56:34.652Z</time><hdop>3.0</hdop><vdop>2.5</vdop><extensions><gom:speed>0.043</gom:speed></extensions></trkpt>
   <trkpt lat="59.3258131643" lon="34.7119686973"><ele>164.218</ele><time>2026-08-17T01:56:35.652Z</time><hdop>3.0</hdop><vdop>2.5</vdop><extensions><gom:speed>0.049</gom:speed></extensions></trkpt>
   <trkpt lat="59.3258134995" lon="34.7119677752"><ele>164.194</ele><time>2026-08-17T01:56:36.620Z</time><hdop>3.0</hdop><vdop>2.5</vdop><extensions><gom:speed>0.08</gom:speed></extensions></trkpt>
   <trkpt lat="59.32581329" lon="34.7119663503"><ele>164.419</ele><time>2026-08-17T01:56:37.248Z</time><hdop>3.0</hdop><vdop>2.5</vdop><extensions><gom:speed>0.079</gom:speed></extensions></trkpt>
   <trkpt lat="59.3258129966" lon="34.7119657636"><ele>164.248</ele><time>2026-08-17T01:56:38.652Z</time><hdop>3.0</hdop><vdop>2.5</vdop><extensions><gom:speed>0.085</gom:speed></extensions></trkpt>
   <trkpt lat="59.3258124937" lon="34.7119645901"><ele>163.941</ele><time>2026-08-17T01:56:39.652Z</time><hdop>3.0</hdop><vdop>2.5</vdop><extensions><gom:speed>0.105</gom:speed></extensions></trkpt>
   <trkpt lat="59.3258126613" lon="34.7119628299"><ele>163.757</ele><time>2026-08-17T01:56:40.647Z</time><hdop>3.0</hdop><vdop>2.5</vdop><extensions><gom:speed>0.121</gom:speed></extensions></trkpt>
   <trkpt lat="59.325812368" lon="34.7119563759"><ele>163.612</ele><time>2026-08-17T01:56:41.648Z</time><hdop>3.0</hdop><vdop>2.5</vdop><extensions><gom:speed>0.172</gom:speed></extensions></trkpt>
   <trkpt lat="59.3258133738" lon="34.7119530231"><ele>163.525</ele><time>2026-08-17T01:56:42.569Z</time><hdop>3.0</hdop><vdop>2.5</vdop><extensions><gom:speed>0.189</gom:speed></extensions></trkpt>
   <trkpt lat="59.3258128709" lon="34.7119472396"><ele>163.29</ele><time>2026-08-17T01:56:43.551Z</time><hdop>3.0</hdop><vdop>2.5</vdop><extensions><gom:speed>0.174</gom:speed></extensions></trkpt>
   <trkpt lat="59.3258112783" lon="34.7119427972"><ele>163.309</ele><time>2026-08-17T01:56:44.652Z</time><hdop>3.0</hdop><vdop>2.5</vdop><extensions><gom:speed>0.114</gom:speed></extensions></trkpt>
   <trkpt lat="59.3258070874" lon="34.7119293861"><ele>163.273</ele><time>2026-08-17T01:56:45.648Z</time><hdop>3.0</hdop><vdop>2.5</vdop><extensions><gom:speed>0.093</gom:speed></extensions></trkpt>
   <trkpt lat="59.3258056625" lon="34.7119251952"><ele>163.128</ele><time>2026-08-17T01:56:46.652Z</time><hdop>3.0</hdop><vdop>2.5</vdop><extensions><gom:speed>0.061</gom:speed></extensions></trkpt>
   <trkpt lat="59.3258022678" lon="34.711915556"><ele>162.944</ele><time>2026-08-17T01:56:47.647Z</time><hdop>3.0</hdop><vdop>2.5</vdop><extensions><gom:speed>0.157</gom:speed></extensions></trkpt>
   <trkpt lat="59.3258017649" lon="34.7119129576"><ele>162.834</ele><time>2026-08-17T01:56:48.549Z</time><hdop>3.0</hdop><vdop>2.5</vdop><extensions><gom:speed>0.122</gom:speed></extensions></trkpt>
   <trkpt lat="59.3257972806" lon="34.7119033184"><ele>162.739</ele><time>2026-08-17T01:56:49.648Z</time><hdop>3.0</hdop><vdop>2.5</vdop><extensions><gom:speed>0.093</gom:speed></extensions></trkpt>
   <trkpt lat="59.3257958975" lon="34.7118967805"><ele>162.996</ele><time>2026-08-17T01:56:50.648Z</time><hdop>3.0</hdop><vdop>2.5</vdop><extensions><gom:speed>0.124</gom:speed></extensions></trkpt>
   <trkpt lat="59.3257960652" lon="34.7118952718"><ele>163.158</ele><time>2026-08-17T01:56:51.655Z</time><hdop>3.0</hdop><vdop>2.562</vdop><extensions><gom:speed>0.138</gom:speed></extensions></trkpt>
   <trkpt lat="59.3257971967" lon="34.7118889854"><ele>163.538</ele><time>2026-08-17T01:56:52.652Z</time><hdop>3.0</hdop><vdop>2.562</vdop><extensions><gom:speed>0.092</gom:speed></extensions></trkpt>
   <trkpt lat="59.3257996694" lon="34.7118828666"><ele>163.631</ele><time>2026-08-17T01:56:53.652Z</time><hdop>3.0</hdop><vdop>2.625</vdop><extensions><gom:speed>0.08</gom:speed></extensions></trkpt>
   <trkpt lat="59.3258016811" lon="34.711877586"><ele>163.679</ele><time>2026-08-17T01:56:54.652Z</time><hdop>3.0</hdop><vdop>2.687</vdop><extensions><gom:speed>0.059</gom:speed></extensions></trkpt>
   <trkpt lat="59.3258038603" lon="34.7118730597"><ele>163.71</ele><time>2026-08-17T01:56:55.661Z</time><hdop>3.0</hdop><vdop>2.687</vdop><extensions><gom:speed>0.1</gom:speed></extensions></trkpt>
   <trkpt lat="59.3258059977" lon="34.7118685335"><ele>163.744</ele><time>2026-08-17T01:56:56.652Z</time><hdop>3.0</hdop><vdop>2.562</vdop><extensions><gom:speed>0.073</gom:speed></extensions></trkpt>
   <trkpt lat="59.3258078837" lon="34.7118643426"><ele>163.764</ele><time>2026-08-17T01:56:57.513Z</time><hdop>3.0</hdop><vdop>2.562</vdop><extensions><gom:speed>0.105</gom:speed></extensions></trkpt>
   <trkpt lat="59.3258104821" lon="34.7118603192"><ele>163.745</ele><time>2026-08-17T01:56:58.352Z</time><hdop>3.0</hdop><vdop>2.75</vdop><extensions><gom:speed>0.151</gom:speed></extensions></trkpt>
   <trkpt lat="59.3258142958" lon="34.7118560445"><ele>163.742</ele><time>2026-08-17T01:56:59.212Z</time><hdop>3.0</hdop><vdop>2.875</vdop><extensions><gom:speed>0.205</gom:speed></extensions></trkpt>
   <trkpt lat="59.3258182772" lon="34.7118519373"><ele>163.78</ele><time>2026-08-17T01:56:59.870Z</time><hdop>3.0</hdop><vdop>2.75</vdop><extensions><gom:speed>0.244</gom:speed></extensions></trkpt>
   <trkpt lat="59.3258208756" lon="34.7118498419"><ele>163.839</ele><time>2026-08-17T01:57:00.652Z</time><hdop>3.0</hdop><vdop>3.0</vdop><extensions><gom:speed>0.188</gom:speed></extensions></trkpt>
   <trkpt lat="59.3258281679" lon="34.7118437231"><ele>163.875</ele><time>2026-08-17T01:57:01.671Z</time><hdop>3.0</hdop><vdop>3.0</vdop><extensions><gom:speed>0.276</gom:speed></extensions></trkpt>
   <trkpt lat="59.3258335742" lon="34.7118391969"><ele>163.832</ele><time>2026-08-17T01:57:02.622Z</time><hdop>3.0</hdop><vdop>2.937</vdop><extensions><gom:speed>0.227</gom:speed></extensions></trkpt>
   <trkpt lat="59.3258381842" lon="34.7118347544"><ele>163.574</ele><time>2026-08-17T01:57:03.432Z</time><hdop>3.0</hdop><vdop>2.812</vdop><extensions><gom:speed>0.174</gom:speed></extensions></trkpt>
   <trkpt lat="59.3258434648" lon="34.7118307311"><ele>163.374</ele><time>2026-08-17T01:57:04.190Z</time><hdop>3.0</hdop><vdop>2.875</vdop><extensions><gom:speed>0.185</gom:speed></extensions></trkpt>
   <trkpt lat="59.3258455603" lon="34.7118292224"><ele>163.482</ele><time>2026-08-17T01:57:04.666Z</time><hdop>3.0</hdop><vdop>3.062</vdop><extensions><gom:speed>0.171</gom:speed></extensions></trkpt>
   <trkpt lat="59.3258515953" lon="34.7118239418"><ele>163.546</ele><time>2026-08-17T01:57:05.131Z</time><hdop>3.0</hdop><vdop>3.062</vdop><extensions><gom:speed>0.299</gom:speed></extensions></trkpt>
   <trkpt lat="59.3258543613" lon="34.7118217625"><ele>163.915</ele><time>2026-08-17T01:57:05.652Z</time><hdop>3.0</hdop><vdop>3.25</vdop><extensions><gom:speed>0.235</gom:speed></extensions></trkpt>
   <trkpt lat="59.3258605639" lon="34.7118163981"><ele>164.135</ele><time>2026-08-17T01:57:06.214Z</time><hdop>3.0</hdop><vdop>3.25</vdop><extensions><gom:speed>0.286</gom:speed></extensions></trkpt>
   <trkpt lat="59.3258706641" lon="34.7118051663"><ele>164.303</ele><time>2026-08-17T01:57:06.891Z</time><hdop>3.0</hdop><vdop>3.375</vdop><extensions><gom:speed>0.407</gom:speed></extensions></trkpt>
   <trkpt lat="59.3258745617" lon="34.7118005563"><ele>164.527</ele><time>2026-08-17T01:57:07.652Z</time><hdop>3.0</hdop><vdop>3.437</vdop><extensions><gom:speed>0.392</gom:speed></extensions></trkpt>
   <trkpt lat="59.325882776" lon="34.7117872291"><ele>164.661</ele><time>2026-08-17T01:57:08.672Z</time><hdop>3.0</hdop><vdop>3.437</vdop><extensions><gom:speed>0.482</gom:speed></extensions></trkpt>
   <trkpt lat="59.3258878889" lon="34.7117762488"><ele>164.881</ele><time>2026-08-17T01:57:09.512Z</time><hdop>3.0</hdop><vdop>3.437</vdop><extensions><gom:speed>0.464</gom:speed></extensions></trkpt>
   <trkpt lat="59.3258911998" lon="34.711766861"><ele>165.503</ele><time>2026-08-17T01:57:10.230Z</time><hdop>3.0</hdop><vdop>3.125</vdop><extensions><gom:speed>0.413</gom:speed></extensions></trkpt>
   <trkpt lat="59.3258976958" lon="34.711749259"><ele>166.605</ele><time>2026-08-17T01:57:11.647Z</time><hdop>3.0</hdop><vdop>2.75</vdop><extensions><gom:speed>0.443</gom:speed></extensions></trkpt>
   <trkpt lat="59.3259002941" lon="34.7117420506"><ele>167.263</ele><time>2026-08-17T01:57:12.628Z</time><hdop>3.0</hdop><vdop>2.75</vdop><extensions><gom:speed>0.353</gom:speed></extensions></trkpt>
   <trkpt lat="59.3259014676" lon="34.7117373567"><ele>167.575</ele><time>2026-08-17T01:57:13.652Z</time><hdop>3.0</hdop><vdop>2.5</vdop><extensions><gom:speed>0.17</gom:speed></extensions></trkpt>
   <trkpt lat="59.3259038984" lon="34.7117295616"><ele>167.591</ele><time>2026-08-17T01:57:14.648Z</time><hdop>3.0</hdop><vdop>2.5</vdop><extensions><gom:speed>0.166</gom:speed></extensions></trkpt>
   <trkpt lat="59.3259041917" lon="34.7117280528"><ele>167.606</ele><time>2026-08-17T01:57:15.652Z</time><hdop>3.0</hdop><vdop>2.5</vdop><extensions><gom:speed>0.1</gom:speed></extensions></trkpt>
   <trkpt lat="59.3259050718" lon="34.7117241971"><ele>167.621</ele><time>2026-08-17T01:57:16.652Z</time><hdop>3.0</hdop><vdop>2.5</vdop><extensions><gom:speed>0.115</gom:speed></extensions></trkpt>
   <trkpt lat="59.3259065806" lon="34.7117186651"><ele>167.63</ele><time>2026-08-17T01:57:17.565Z</time><hdop>3.0</hdop><vdop>2.5</vdop><extensions><gom:speed>0.139</gom:speed></extensions></trkpt>
   <trkpt lat="59.3259081731" lon="34.7117127978"><ele>167.541</ele><time>2026-08-17T01:57:18.649Z</time><hdop>3.0</hdop><vdop>2.5</vdop><extensions><gom:speed>0.122</gom:speed></extensions></trkpt>
   <trkpt lat="59.3259089694" lon="34.7117110376"><ele>167.53</ele><time>2026-08-17T01:57:19.660Z</time><hdop>3.0</hdop><vdop>2.5</vdop><extensions><gom:speed>0.09</gom:speed></extensions></trkpt>
   <trkpt lat="59.3259093885" lon="34.7117096964"><ele>167.523</ele><time>2026-08-17T01:57:20.327Z</time><hdop>3.0</hdop><vdop>2.5</vdop><extensions><gom:speed>0.117</gom:speed></extensions></trkpt>
   <trkpt lat="59.3259095981" lon="34.7117079362"><ele>167.52</ele><time>2026-08-17T01:57:21.127Z</time><hdop>3.0</hdop><vdop>2.5</vdop><extensions><gom:speed>0.114</gom:speed></extensions></trkpt>
   <trkpt lat="59.3259097657" lon="34.7117063437"><ele>167.519</ele><time>2026-08-17T01:57:21.673Z</time><hdop>3.0</hdop><vdop>2.5</vdop><extensions><gom:speed>0.14</gom:speed></extensions></trkpt>
   <trkpt lat="59.3259095981" lon="34.7117058408"><ele>167.519</ele><time>2026-08-17T01:57:22.513Z</time><hdop>3.0</hdop><vdop>2.5</vdop><extensions><gom:speed>0.123</gom:speed></extensions></trkpt>
   <trkpt lat="59.3259097657" lon="34.7117049188"><ele>167.203</ele><time>2026-08-17T01:57:23.413Z</time><hdop>3.0</hdop><vdop>2.5</vdop><extensions><gom:speed>0.152</gom:speed></extensions></trkpt>
   <trkpt lat="59.3259108973" lon="34.711702488"><ele>167.219</ele><time>2026-08-17T01:57:24.234Z</time><hdop>3.0</hdop><vdop>2.5</vdop><extensions><gom:speed>0.173</gom:speed></extensions></trkpt>
   <trkpt lat="59.3259132861" lon="34.7116972912"><ele>167.012</ele><time>2026-08-17T01:57:25.649Z</time><hdop>3.0</hdop><vdop>2.5</vdop><extensions><gom:speed>0.244</gom:speed></extensions></trkpt>
   <trkpt lat="59.3259164712" lon="34.7116925974"><ele>167.015</ele><time>2026-08-17T01:57:26.652Z</time><hdop>3.0</hdop><vdop>2.562</vdop><extensions><gom:speed>0.127</gom:speed></extensions></trkpt>
   <trkpt lat="59.3259188601" lon="34.7116895799"><ele>167.016</ele><time>2026-08-17T01:57:27.693Z</time><hdop>3.0</hdop><vdop>2.562</vdop><extensions><gom:speed>0.098</gom:speed></extensions></trkpt>
   <trkpt lat="59.3259195725" lon="34.7116865624"><ele>166.973</ele><time>2026-08-17T01:57:28.652Z</time><hdop>3.0</hdop><vdop>2.5</vdop><extensions><gom:speed>0.12</gom:speed></extensions></trkpt>
   <trkpt lat="59.3259192792" lon="34.7116840478"><ele>166.947</ele><time>2026-08-17T01:57:29.655Z</time><hdop>3.0</hdop><vdop>2.5</vdop><extensions><gom:speed>0.083</gom:speed></extensions></trkpt>
   <trkpt lat="59.3259166808" lon="34.7116686251"><ele>166.524</ele><time>2026-08-17T01:57:30.649Z</time><hdop>3.0</hdop><vdop>2.5</vdop><extensions><gom:speed>0.314</gom:speed></extensions></trkpt>
   <trkpt lat="59.3259157588" lon="34.7116675355"><ele>166.267</ele><time>2026-08-17T01:57:31.652Z</time><hdop>3.0</hdop><vdop>2.5</vdop><extensions><gom:speed>0.133</gom:speed></extensions></trkpt>
   <trkpt lat="59.3259138728" lon="34.7116622549"><ele>166.114</ele><time>2026-08-17T01:57:32.652Z</time><hdop>3.0</hdop><vdop>2.5</vdop><extensions><gom:speed>0.091</gom:speed></extensions></trkpt>
   <trkpt lat="59.3259118612" lon="34.7116554655"><ele>166.026</ele><time>2026-08-17T01:57:33.662Z</time><hdop>3.0</hdop><vdop>2.5</vdop><extensions><gom:speed>0.103</gom:speed></extensions></trkpt>
   <trkpt lat="59.3259097657" lon="34.7116466645"><ele>165.973</ele><time>2026-08-17T01:57:34.652Z</time><hdop>3.0</hdop><vdop>2.5</vdop><extensions><gom:speed>0.058</gom:speed></extensions></trkpt>
   <trkpt lat="59.3259070835" lon="34.7116368577"><ele>165.943</ele><time>2026-08-17T01:57:35.647Z</time><hdop>3.0</hdop><vdop>2.5</vdop><extensions><gom:speed>0.1</gom:speed></extensions></trkpt>
   <trkpt lat="59.325906371" lon="34.7116347622"><ele>165.927</ele><time>2026-08-17T01:57:36.652Z</time><hdop>3.0</hdop><vdop>2.5</vdop><extensions><gom:speed>0.02</gom:speed></extensions></trkpt>
   <trkpt lat="59.3259052814" lon="34.7116328344"><ele>165.919</ele><time>2026-08-17T01:57:37.652Z</time><hdop>3.0</hdop><vdop>2.5</vdop><extensions><gom:speed>0.025</gom:speed></extensions></trkpt>
   <trkpt lat="59.3259045689" lon="34.7116308227"><ele>165.889</ele><time>2026-08-17T01:57:38.652Z</time><hdop>3.0</hdop><vdop>2.5</vdop><extensions><gom:speed>0.02</gom:speed></extensions></trkpt>
   <trkpt lat="59.3259033954" lon="34.7116280567"><ele>165.872</ele><time>2026-08-17T01:57:39.651Z</time><hdop>3.0</hdop><vdop>2.5</vdop><extensions><gom:speed>0.092</gom:speed></extensions></trkpt>
   <trkpt lat="59.3259021801" lon="34.7116247878"><ele>165.806</ele><time>2026-08-17T01:57:40.350Z</time><hdop>3.0</hdop><vdop>2.5</vdop><extensions><gom:speed>0.09</gom:speed></extensions></trkpt>
   <trkpt lat="59.3259012581" lon="34.7116211836"><ele>165.748</ele><time>2026-08-17T01:57:41.210Z</time><hdop>3.0</hdop><vdop>2.5</vdop><extensions><gom:speed>0.103</gom:speed></extensions></trkpt>
   <trkpt lat="59.3259011742" lon="34.7116173279"><ele>165.633</ele><time>2026-08-17T01:57:42.171Z</time><hdop>3.0</hdop><vdop>2.5</vdop><extensions><gom:speed>0.15</gom:speed></extensions></trkpt>
   <trkpt lat="59.3259009647" lon="34.7116116282"><ele>165.465</ele><time>2026-08-17T01:57:42.648Z</time><hdop>3.0</hdop><vdop>2.687</vdop><extensions><gom:speed>0.235</gom:speed></extensions></trkpt>
   <trkpt lat="59.3259010904" lon="34.7116085269"><ele>165.087</ele><time>2026-08-17T01:57:43.652Z</time><hdop>3.0</hdop><vdop>2.875</vdop><extensions><gom:speed>0.191</gom:speed></extensions></trkpt>
   <trkpt lat="59.3258991626" lon="34.7116025757"><ele>164.426</ele><time>2026-08-17T01:57:44.647Z</time><hdop>3.0</hdop><vdop>3.25</vdop><extensions><gom:speed>0.318</gom:speed></extensions></trkpt>
   <trkpt lat="59.325898995" lon="34.7116000612"><ele>164.376</ele><time>2026-08-17T01:57:45.652Z</time><hdop>3.0</hdop><vdop>2.875</vdop><extensions><gom:speed>0.182</gom:speed></extensions></trkpt>
   <trkpt lat="59.3258993721" lon="34.7116011508"><ele>164.359</ele><time>2026-08-17T01:57:46.652Z</time><hdop>3.0</hdop><vdop>2.5</vdop><extensions><gom:speed>0.101</gom:speed></extensions></trkpt>
   <trkpt lat="59.3259009647" lon="34.7116007317"><ele>164.341</ele><time>2026-08-17T01:57:47.648Z</time><hdop>3.0</hdop><vdop>2.5</vdop><extensions><gom:speed>0.116</gom:speed></extensions></trkpt>
   <trkpt lat="59.3259011742" lon="34.7115990553"><ele>164.33</ele><time>2026-08-17T01:57:48.475Z</time><hdop>3.0</hdop><vdop>2.5</vdop><extensions><gom:speed>0.111</gom:speed></extensions></trkpt>
   <trkpt lat="59.3259023896" lon="34.7115993906"><ele>164.249</ele><time>2026-08-17T01:57:49.334Z</time><hdop>3.0</hdop><vdop>2.5</vdop><extensions><gom:speed>0.092</gom:speed></extensions></trkpt>
   <trkpt lat="59.3259034793" lon="34.7115983848"><ele>164.071</ele><time>2026-08-17T01:57:49.910Z</time><hdop>3.0</hdop><vdop>2.5</vdop><extensions><gom:speed>0.105</gom:speed></extensions></trkpt>
   <trkpt lat="59.3259039822" lon="34.7115960378"><ele>164.058</ele><time>2026-08-17T01:57:50.660Z</time><hdop>3.0</hdop><vdop>2.5</vdop><extensions><gom:speed>0.092</gom:speed></extensions></trkpt>
   <trkpt lat="59.3259061615" lon="34.7115920983"><ele>164.041</ele><time>2026-08-17T01:57:51.648Z</time><hdop>3.0</hdop><vdop>2.5</vdop><extensions><gom:speed>0.105</gom:speed></extensions></trkpt>
   <trkpt lat="59.3259076702" lon="34.7115896676"><ele>164.037</ele><time>2026-08-17T01:57:52.648Z</time><hdop>3.0</hdop><vdop>2.5</vdop><extensions><gom:speed>0.086</gom:speed></extensions></trkpt>
   <trkpt lat="59.3259077959" lon="34.7115883265"><ele>164.044</ele><time>2026-08-17T01:57:53.652Z</time><hdop>3.0</hdop><vdop>2.5</vdop><extensions><gom:speed>0.06</gom:speed></extensions></trkpt>
   <trkpt lat="59.3259084665" lon="34.7115875721"><ele>164.05</ele><time>2026-08-17T01:57:54.652Z</time><hdop>3.0</hdop><vdop>2.5</vdop><extensions><gom:speed>0.056</gom:speed></extensions></trkpt>
   <trkpt lat="59.3259103943" lon="34.7115861472"><ele>163.986</ele><time>2026-08-17T01:57:55.648Z</time><hdop>3.0</hdop><vdop>2.5</vdop><extensions><gom:speed>0.074</gom:speed></extensions></trkpt>
   <trkpt lat="59.3259116935" lon="34.7115836326"><ele>163.952</ele><time>2026-08-17T01:57:56.648Z</time><hdop>3.0</hdop><vdop>2.5</vdop><extensions><gom:speed>0.087</gom:speed></extensions></trkpt>
   <trkpt lat="59.3259121964" lon="34.711581621"><ele>163.932</ele><time>2026-08-17T01:57:57.652Z</time><hdop>3.0</hdop><vdop>2.5</vdop><extensions><gom:speed>0.089</gom:speed></extensions></trkpt>
   <trkpt lat="59.3259127832" lon="34.7115811181"><ele>163.92</ele><time>2026-08-17T01:57:58.653Z</time><hdop>3.0</hdop><vdop>2.5</vdop><extensions><gom:speed>0.064</gom:speed></extensions></trkpt>
   <trkpt lat="59.3259147948" lon="34.7115799446"><ele>163.911</ele><time>2026-08-17T01:57:59.648Z</time><hdop>3.0</hdop><vdop>2.5</vdop><extensions><gom:speed>0.081</gom:speed></extensions></trkpt>
   <trkpt lat="59.3259154654" lon="34.7115794417"><ele>163.905</ele><time>2026-08-17T01:58:00.652Z</time><hdop>3.0</hdop><vdop>2.5</vdop><extensions><gom:speed>0.029</gom:speed></extensions></trkpt>
   <trkpt lat="59.3259165969" lon="34.7115787711"><ele>163.904</ele><time>2026-08-17T01:58:01.648Z</time><hdop>3.0</hdop><vdop>2.5</vdop><extensions><gom:speed>0.092</gom:speed></extensions></trkpt>
   <trkpt lat="59.3259166808" lon="34.7115788549"><ele>163.903</ele><time>2026-08-17T01:58:02.653Z</time><hdop>3.0</hdop><vdop>2.5</vdop><extensions><gom:speed>0.017</gom:speed></extensions></trkpt>
   <trkpt lat="59.3259166808" lon="34.711579274"><ele>163.905</ele><time>2026-08-17T01:58:03.652Z</time><hdop>3.0</hdop><vdop>2.5</vdop><extensions><gom:speed>0.029</gom:speed></extensions></trkpt>
   <trkpt lat="59.3259172675" lon="34.7115789388"><ele>163.906</ele><time>2026-08-17T01:58:04.653Z</time><hdop>3.0</hdop><vdop>2.5</vdop><extensions><gom:speed>0.027</gom:speed></extensions></trkpt>
   <trkpt lat="59.325917477" lon="34.7115788549"><ele>163.906</ele><time>2026-08-17T01:58:05.633Z</time><hdop>3.0</hdop><vdop>2.5</vdop><extensions><gom:speed>0.001</gom:speed></extensions></trkpt>
   <trkpt lat="59.3259194887" lon="34.7115732391"><ele>163.554</ele><time>2026-08-17T01:58:06.652Z</time><hdop>3.0</hdop><vdop>2.5</vdop><extensions><gom:speed>0.511</gom:speed></extensions></trkpt>
   <trkpt lat="59.3259205784" lon="34.7115703892"><ele>163.333</ele><time>2026-08-17T01:58:07.652Z</time><hdop>3.0</hdop><vdop>2.5</vdop><extensions><gom:speed>0.091</gom:speed></extensions></trkpt>
   <trkpt lat="59.3259194887" lon="34.7115730714"><ele>163.203</ele><time>2026-08-17T01:58:08.648Z</time><hdop>3.0</hdop><vdop>2.5</vdop><extensions><gom:speed>0.07</gom:speed></extensions></trkpt>
   <trkpt lat="59.3259192792" lon="34.7115732391"><ele>163.126</ele><time>2026-08-17T01:58:09.660Z</time><hdop>3.0</hdop><vdop>2.5</vdop><extensions><gom:speed>0.07</gom:speed></extensions></trkpt>
   <trkpt lat="59.3259189858" lon="34.7115740773"><ele>163.081</ele><time>2026-08-17T01:58:10.308Z</time><hdop>3.0</hdop><vdop>2.5</vdop><extensions><gom:speed>0.094</gom:speed></extensions></trkpt>
   <trkpt lat="59.3259198659" lon="34.71157282"><ele>162.874</ele><time>2026-08-17T01:58:11.652Z</time><hdop>3.0</hdop><vdop>2.5</vdop><extensions><gom:speed>0.283</gom:speed></extensions></trkpt>
   <trkpt lat="59.3259200754" lon="34.7115734905"><ele>162.75</ele><time>2026-08-17T01:58:12.654Z</time><hdop>3.0</hdop><vdop>2.5</vdop><extensions><gom:speed>0.089</gom:speed></extensions></trkpt>
   <trkpt lat="59.3259194887" lon="34.7115773462"><ele>162.675</ele><time>2026-08-17T01:58:13.648Z</time><hdop>3.0</hdop><vdop>2.5</vdop><extensions><gom:speed>0.06</gom:speed></extensions></trkpt>
   <trkpt lat="59.3259194887" lon="34.7115780168"><ele>162.63</ele><time>2026-08-17T01:58:14.652Z</time><hdop>3.0</hdop><vdop>2.5</vdop><extensions><gom:speed>0.06</gom:speed></extensions></trkpt>
   <trkpt lat="59.3259194887" lon="34.7115791902"><ele>162.602</ele><time>2026-08-17T01:58:15.652Z</time><hdop>3.0</hdop><vdop>2.5</vdop><extensions><gom:speed>0.057</gom:speed></extensions></trkpt>
   <trkpt lat="59.3259194887" lon="34.7115802799"><ele>162.518</ele><time>2026-08-17T01:58:16.653Z</time><hdop>3.0</hdop><vdop>2.5</vdop><extensions><gom:speed>0.056</gom:speed></extensions></trkpt>
   <trkpt lat="59.3259203688" lon="34.7115789388"><ele>162.469</ele><time>2026-08-17T01:58:17.632Z</time><hdop>3.0</hdop><vdop>2.5</vdop><extensions><gom:speed>0.369</gom:speed></extensions></trkpt>
   <trkpt lat="59.3259203688" lon="34.7115788549"><ele>162.311</ele><time>2026-08-17T01:58:18.648Z</time><hdop>3.0</hdop><vdop>2.5</vdop><extensions><gom:speed>0.245</gom:speed></extensions></trkpt>
   <trkpt lat="59.3259203688" lon="34.7115782682"><ele>162.7</ele><time>2026-08-17T01:58:19.652Z</time><hdop>3.0</hdop><vdop>2.5</vdop><extensions><gom:speed>0.231</gom:speed></extensions></trkpt>
   <trkpt lat="59.3259201593" lon="34.7115813695"><ele>162.93</ele><time>2026-08-17T01:58:20.648Z</time><hdop>3.0</hdop><vdop>2.5</vdop><extensions><gom:speed>0.083</gom:speed></extensions></trkpt>
   <trkpt lat="59.3259201593" lon="34.7115840517"><ele>163.065</ele><time>2026-08-17T01:58:21.647Z</time><hdop>3.0</hdop><vdop>2.5</vdop><extensions><gom:speed>0.069</gom:speed></extensions></trkpt>
   <trkpt lat="59.325920285" lon="34.7115844708"><ele>163.145</ele><time>2026-08-17T01:58:22.653Z</time><hdop>3.0</hdop><vdop>2.5</vdop><extensions><gom:speed>0.07</gom:speed></extensions></trkpt>
   <trkpt lat="59.3259205784" lon="34.7115857281"><ele>163.193</ele><time>2026-08-17T01:58:23.653Z</time><hdop>3.0</hdop><vdop>2.5</vdop><extensions><gom:speed>0.072</gom:speed></extensions></trkpt>
   <trkpt lat="59.3259207879" lon="34.711587153"><ele>163.219</ele><time>2026-08-17T01:58:24.653Z</time><hdop>3.0</hdop><vdop>2.5</vdop><extensions><gom:speed>0.067</gom:speed></extensions></trkpt>
   <trkpt lat="59.3259210813" lon="34.7115896676"><ele>163.236</ele><time>2026-08-17T01:58:25.648Z</time><hdop>3.0</hdop><vdop>2.5</vdop><extensions><gom:speed>0.061</gom:speed></extensions></trkpt>
   <trkpt lat="59.3259213746" lon="34.7115903381"><ele>163.249</ele><time>2026-08-17T01:58:26.652Z</time><hdop>3.0</hdop><vdop>2.5</vdop><extensions><gom:speed>0.061</gom:speed></extensions></trkpt>
   <trkpt lat="59.3259215842" lon="34.7115914278"><ele>163.259</ele><time>2026-08-17T01:58:27.652Z</time><hdop>3.0</hdop><vdop>2.5</vdop><extensions><gom:speed>0.061</gom:speed></extensions></trkpt>
   <trkpt lat="59.3259218775" lon="34.7115926851"><ele>163.249</ele><time>2026-08-17T01:58:28.653Z</time><hdop>3.0</hdop><vdop>2.5</vdop><extensions><gom:speed>0.062</gom:speed></extensions></trkpt>
   <trkpt lat="59.3259224643" lon="34.7115933556"><ele>163.248</ele><time>2026-08-17T01:58:29.652Z</time><hdop>3.0</hdop><vdop>2.5</vdop><extensions><gom:speed>0.237</gom:speed></extensions></trkpt>
   <trkpt lat="59.3259228834" lon="34.7115937747"><ele>163.248</ele><time>2026-08-17T01:58:30.652Z</time><hdop>3.0</hdop><vdop>2.5</vdop><extensions><gom:speed>0.087</gom:speed></extensions></trkpt>
   <trkpt lat="59.3259226738" lon="34.7115946967"><ele>163.249</ele><time>2026-08-17T01:58:31.652Z</time><hdop>3.0</hdop><vdop>2.5</vdop><extensions><gom:speed>0.074</gom:speed></extensions></trkpt>
   <trkpt lat="59.3259224643" lon="34.7115960378"><ele>163.249</ele><time>2026-08-17T01:58:32.648Z</time><hdop>3.0</hdop><vdop>2.5</vdop><extensions><gom:speed>0.061</gom:speed></extensions></trkpt>
   <trkpt lat="59.32592259" lon="34.7115964569"><ele>163.249</ele><time>2026-08-17T01:58:33.652Z</time><hdop>3.0</hdop><vdop>2.5</vdop><extensions><gom:speed>0.061</gom:speed></extensions></trkpt>
   <trkpt lat="59.3259223805" lon="34.7115972951"><ele>163.508</ele><time>2026-08-17T01:58:34.648Z</time><hdop>3.0</hdop><vdop>2.5</vdop><extensions><gom:speed>0.106</gom:speed></extensions></trkpt>
   <trkpt lat="59.32592259" lon="34.7115976304"><ele>163.668</ele><time>2026-08-17T01:58:35.661Z</time><hdop>3.0</hdop><vdop>2.5</vdop><extensions><gom:speed>0.109</gom:speed></extensions></trkpt>
   <trkpt lat="59.32592259" lon="34.7115981333"><ele>163.767</ele><time>2026-08-17T01:58:36.652Z</time><hdop>3.0</hdop><vdop>2.5</vdop><extensions><gom:speed>0.088</gom:speed></extensions></trkpt>
   <trkpt lat="59.3259222966" lon="34.7115988877"><ele>163.829</ele><time>2026-08-17T01:58:37.652Z</time><hdop>3.0</hdop><vdop>2.5</vdop><extensions><gom:speed>0.069</gom:speed></extensions></trkpt>
   <trkpt lat="59.3259221709" lon="34.7115993906"><ele>163.867</ele><time>2026-08-17T01:58:38.652Z</time><hdop>3.0</hdop><vdop>2.5</vdop><extensions><gom:speed>0.066</gom:speed></extensions></trkpt>
   <trkpt lat="59.3259220871" lon="34.7116000612"><ele>163.891</ele><time>2026-08-17T01:58:39.648Z</time><hdop>3.0</hdop><vdop>2.5</vdop><extensions><gom:speed>0.066</gom:speed></extensions></trkpt>
   <trkpt lat="59.3259221709" lon="34.7116003964"><ele>163.907</ele><time>2026-08-17T01:58:40.652Z</time><hdop>3.0</hdop><vdop>2.5</vdop><extensions><gom:speed>0.066</gom:speed></extensions></trkpt>
   <trkpt lat="59.3259221709" lon="34.7116006479"><ele>163.917</ele><time>2026-08-17T01:58:41.651Z</time><hdop>3.0</hdop><vdop>2.5</vdop><extensions><gom:speed>0.067</gom:speed></extensions></trkpt>
   <trkpt lat="59.3259220871" lon="34.7116007317"><ele>163.924</ele><time>2026-08-17T01:58:42.460Z</time><hdop>3.0</hdop><vdop>2.5</vdop><extensions><gom:speed>0.068</gom:speed></extensions></trkpt>
   <trkpt lat="59.3259221709" lon="34.7116016537"><ele>163.928</ele><time>2026-08-17T01:58:43.652Z</time><hdop>3.0</hdop><vdop>2.5</vdop><extensions><gom:speed>0.07</gom:speed></extensions></trkpt>
   <trkpt lat="59.3259221709" lon="34.7116020728"><ele>163.932</ele><time>2026-08-17T01:58:44.652Z</time><hdop>3.0</hdop><vdop>2.5</vdop><extensions><gom:speed>0.069</gom:speed></extensions></trkpt>
   <trkpt lat="59.3259221709" lon="34.7116024919"><ele>163.935</ele><time>2026-08-17T01:58:45.657Z</time><hdop>3.0</hdop><vdop>2.5</vdop><extensions><gom:speed>0.07</gom:speed></extensions></trkpt>
   <trkpt lat="59.3259220871" lon="34.7116030786"><ele>163.939</ele><time>2026-08-17T01:58:46.648Z</time><hdop>3.0</hdop><vdop>2.5</vdop><extensions><gom:speed>0.07</gom:speed></extensions></trkpt>
   <trkpt lat="59.3259218775" lon="34.7116035816"><ele>163.944</ele><time>2026-08-17T01:58:47.647Z</time><hdop>3.0</hdop><vdop>2.5</vdop><extensions><gom:speed>0.071</gom:speed></extensions></trkpt>
   <trkpt lat="59.3259218775" lon="34.711603833"><ele>163.949</ele><time>2026-08-17T01:58:48.652Z</time><hdop>3.0</hdop><vdop>2.5</vdop><extensions><gom:speed>0.072</gom:speed></extensions></trkpt>
   <trkpt lat="59.3259217937" lon="34.7116042521"><ele>163.954</ele><time>2026-08-17T01:58:49.647Z</time><hdop>3.0</hdop><vdop>2.5</vdop><extensions><gom:speed>0.073</gom:speed></extensions></trkpt>
   <trkpt lat="59.325921668" lon="34.7116046712"><ele>163.958</ele><time>2026-08-17T01:58:50.655Z</time><hdop>3.0</hdop><vdop>2.5</vdop><extensions><gom:speed>0.073</gom:speed></extensions></trkpt>
   <trkpt lat="59.3259214585" lon="34.7116050903"><ele>164.075</ele><time>2026-08-17T01:58:51.648Z</time><hdop>3.0</hdop><vdop>2.5</vdop><extensions><gom:speed>0.116</gom:speed></extensions></trkpt>
   <trkpt lat="59.3259213746" lon="34.7116050903"><ele>164.144</ele><time>2026-08-17T01:58:52.173Z</time><hdop>3.0</hdop><vdop>2.5</vdop><extensions><gom:speed>0.118</gom:speed></extensions></trkpt>
   <trkpt lat="59.3259214585" lon="34.7116059285"><ele>164.186</ele><time>2026-08-17T01:58:52.658Z</time><hdop>3.0</hdop><vdop>2.5</vdop><extensions><gom:speed>0.119</gom:speed></extensions></trkpt>
   <trkpt lat="59.3259213746" lon="34.7116062638"><ele>164.216</ele><time>2026-08-17T01:58:53.652Z</time><hdop>3.0</hdop><vdop>2.5</vdop><extensions><gom:speed>0.1</gom:speed></extensions></trkpt>
   <trkpt lat="59.3259211651" lon="34.7116066829"><ele>164.234</ele><time>2026-08-17T01:58:54.648Z</time><hdop>3.0</hdop><vdop>2.5</vdop><extensions><gom:speed>0.101</gom:speed></extensions></trkpt>
   <trkpt lat="59.3259210813" lon="34.7116069343"><ele>164.247</ele><time>2026-08-17T01:58:55.673Z</time><hdop>3.0</hdop><vdop>2.5</vdop><extensions><gom:speed>0.102</gom:speed></extensions></trkpt>
   <trkpt lat="59.3259207879" lon="34.7116074372"><ele>164.254</ele><time>2026-08-17T01:58:56.648Z</time><hdop>3.0</hdop><vdop>2.5</vdop><extensions><gom:speed>0.077</gom:speed></extensions></trkpt>
   <trkpt lat="59.3259205784" lon="34.7116076887"><ele>164.259</ele><time>2026-08-17T01:58:57.652Z</time><hdop>3.0</hdop><vdop>2.5</vdop><extensions><gom:speed>0.077</gom:speed></extensions></trkpt>
   <trkpt lat="59.325920285" lon="34.711608024"><ele>164.263</ele><time>2026-08-17T01:58:58.647Z</time><hdop>3.0</hdop><vdop>2.5</vdop><extensions><gom:speed>0.066</gom:speed></extensions></trkpt>
   <trkpt lat="59.3259201593" lon="34.7116081916"><ele>164.266</ele><time>2026-08-17T01:58:59.652Z</time><hdop>3.0</hdop><vdop>2.5</vdop><extensions><gom:speed>0.067</gom:speed></extensions></trkpt>
   <trkpt lat="59.3259199916" lon="34.7116083592"><ele>164.27</ele><time>2026-08-17T01:59:00.648Z</time><hdop>3.0</hdop><vdop>2.5</vdop><extensions><gom:speed>0.063</gom:speed></extensions></trkpt>
   <trkpt lat="59.3259197821" lon="34.7116083592"><ele>164.274</ele><time>2026-08-17T01:59:01.648Z</time><hdop>3.0</hdop><vdop>2.5</vdop><extensions><gom:speed>0.063</gom:speed></extensions></trkpt>
   <trkpt lat="59.3259195725" lon="34.7116084431"><ele>164.279</ele><time>2026-08-17T01:59:02.648Z</time><hdop>3.0</hdop><vdop>2.5</vdop><extensions><gom:speed>0.065</gom:speed></extensions></trkpt>
   <trkpt lat="59.325919363" lon="34.7116085269"><ele>164.282</ele><time>2026-08-17T01:59:03.648Z</time><hdop>3.0</hdop><vdop>2.5</vdop><extensions><gom:speed>0.066</gom:speed></extensions></trkpt>
   <trkpt lat="59.325919363" lon="34.7116087783"><ele>164.287</ele><time>2026-08-17T01:59:04.652Z</time><hdop>3.0</hdop><vdop>2.5</vdop><extensions><gom:speed>0.067</gom:speed></extensions></trkpt>
   <trkpt lat="59.3259191953" lon="34.711608946"><ele>164.172</ele><time>2026-08-17T01:59:05.648Z</time><hdop>3.0</hdop><vdop>2.5</vdop><extensions><gom:speed>0.288</gom:speed></extensions></trkpt>
   <trkpt lat="59.3259185667" lon="34.7116111253"><ele>164.107</ele><time>2026-08-17T01:59:06.652Z</time><hdop>3.0</hdop><vdop>2.5</vdop><extensions><gom:speed>0.335</gom:speed></extensions></trkpt>
   <trkpt lat="59.3259181895" lon="34.7116121311"><ele>164.073</ele><time>2026-08-17T01:59:07.652Z</time><hdop>3.0</hdop><vdop>2.5</vdop><extensions><gom:speed>0.102</gom:speed></extensions></trkpt>
   <trkpt lat="59.3259180638" lon="34.7116112929"><ele>164.137</ele><time>2026-08-17T01:59:08.649Z</time><hdop>3.0</hdop><vdop>2.5</vdop><extensions><gom:speed>0.099</gom:speed></extensions></trkpt>
   <trkpt lat="59.3259180638" lon="34.7116109576"><ele>164.175</ele><time>2026-08-17T01:59:09.473Z</time><hdop>3.0</hdop><vdop>2.5</vdop><extensions><gom:speed>0.1</gom:speed></extensions></trkpt>
   <trkpt lat="59.3259175609" lon="34.7116106224"><ele>164.35</ele><time>2026-08-17T01:59:10.648Z</time><hdop>3.0</hdop><vdop>2.5</vdop><extensions><gom:speed>0.253</gom:speed></extensions></trkpt>
   <trkpt lat="59.3259169741" lon="34.7116116282"><ele>164.459</ele><time>2026-08-17T01:59:11.652Z</time><hdop>3.0</hdop><vdop>2.5</vdop><extensions><gom:speed>0.278</gom:speed></extensions></trkpt>
   <trkpt lat="59.3259165969" lon="34.7116117958"><ele>164.525</ele><time>2026-08-17T01:59:12.648Z</time><hdop>3.0</hdop><vdop>2.5</vdop><extensions><gom:speed>0.077</gom:speed></extensions></trkpt>
   <trkpt lat="59.3259164712" lon="34.7116111253"><ele>164.566</ele><time>2026-08-17T01:59:13.652Z</time><hdop>3.0</hdop><vdop>2.5</vdop><extensions><gom:speed>0.074</gom:speed></extensions></trkpt>
   <trkpt lat="59.3259162617" lon="34.7116109576"><ele>164.593</ele><time>2026-08-17T01:59:14.654Z</time><hdop>3.0</hdop><vdop>2.5</vdop><extensions><gom:speed>0.066</gom:speed></extensions></trkpt>
   <trkpt lat="59.3259161779" lon="34.7116108738"><ele>164.61</ele><time>2026-08-17T01:59:15.648Z</time><hdop>3.0</hdop><vdop>2.5</vdop><extensions><gom:speed>0.061</gom:speed></extensions></trkpt>
   <trkpt lat="59.325916094" lon="34.71161079"><ele>164.62</ele><time>2026-08-17T01:59:16.647Z</time><hdop>3.0</hdop><vdop>2.5</vdop><extensions><gom:speed>0.061</gom:speed></extensions></trkpt>
   <trkpt lat="59.3259158845" lon="34.71161079"><ele>164.629</ele><time>2026-08-17T01:59:17.648Z</time><hdop>3.0</hdop><vdop>2.5</vdop><extensions><gom:speed>0.062</gom:speed></extensions></trkpt>
   <trkpt lat="59.3259157588" lon="34.7116108738"><ele>164.637</ele><time>2026-08-17T01:59:18.653Z</time><hdop>3.0</hdop><vdop>2.5</vdop><extensions><gom:speed>0.062</gom:speed></extensions></trkpt>
   <trkpt lat="59.3259155911" lon="34.71161079"><ele>164.643</ele><time>2026-08-17T01:59:19.648Z</time><hdop>3.0</hdop><vdop>2.5</vdop><extensions><gom:speed>0.063</gom:speed></extensions></trkpt>
   <trkpt lat="59.3259153816" lon="34.7116108738"><ele>164.647</ele><time>2026-08-17T01:59:20.653Z</time><hdop>3.0</hdop><vdop>2.5</vdop><extensions><gom:speed>0.064</gom:speed></extensions></trkpt>
   <trkpt lat="59.325915172" lon="34.71161079"><ele>164.651</ele><time>2026-08-17T01:59:21.652Z</time><hdop>3.0</hdop><vdop>2.5</vdop><extensions><gom:speed>0.064</gom:speed></extensions></trkpt>
   <trkpt lat="59.3259149625" lon="34.7116104547"><ele>164.655</ele><time>2026-08-17T01:59:22.647Z</time><hdop>3.0</hdop><vdop>2.5</vdop><extensions><gom:speed>0.061</gom:speed></extensions></trkpt>
   <trkpt lat="59.3259148787" lon="34.7116104547"><ele>164.658</ele><time>2026-08-17T01:59:23.658Z</time><hdop>3.0</hdop><vdop>2.5</vdop><extensions><gom:speed>0.061</gom:speed></extensions></trkpt>
   <trkpt lat="59.3259146691" lon="34.7116104547"><ele>164.659</ele><time>2026-08-17T01:59:24.652Z</time><hdop>3.0</hdop><vdop>2.5</vdop><extensions><gom:speed>0.063</gom:speed></extensions></trkpt>
   <trkpt lat="59.3259144596" lon="34.7116103709"><ele>164.661</ele><time>2026-08-17T01:59:25.662Z</time><hdop>3.0</hdop><vdop>2.5</vdop><extensions><gom:speed>0.066</gom:speed></extensions></trkpt>
   <trkpt lat="59.3259142919" lon="34.7116102871"><ele>164.663</ele><time>2026-08-17T01:59:26.652Z</time><hdop>3.0</hdop><vdop>2.5</vdop><extensions><gom:speed>0.066</gom:speed></extensions></trkpt>
   <trkpt lat="59.3259135795" lon="34.7116100356"><ele>164.666</ele><time>2026-08-17T01:59:27.649Z</time><hdop>3.0</hdop><vdop>2.5</vdop><extensions><gom:speed>0.334</gom:speed></extensions></trkpt>
   <trkpt lat="59.3259121964" lon="34.7116117958"><ele>164.582</ele><time>2026-08-17T01:59:28.652Z</time><hdop>3.0</hdop><vdop>2.5</vdop><extensions><gom:speed>0.413</gom:speed></extensions></trkpt>
   <trkpt lat="59.3259110649" lon="34.7116113767"><ele>164.555</ele><time>2026-08-17T01:59:29.652Z</time><hdop>3.0</hdop><vdop>2.5</vdop><extensions><gom:speed>0.329</gom:speed></extensions></trkpt>
   <trkpt lat="59.3259109811" lon="34.7116094489"><ele>164.54</ele><time>2026-08-17T01:59:30.659Z</time><hdop>3.0</hdop><vdop>2.5</vdop><extensions><gom:speed>0.08</gom:speed></extensions></trkpt>
   <trkpt lat="59.325911484" lon="34.711607521"><ele>164.531</ele><time>2026-08-17T01:59:31.347Z</time><hdop>3.0</hdop><vdop>2.5</vdop><extensions><gom:speed>0.053</gom:speed></extensions></trkpt>
   <trkpt lat="59.3259118612" lon="34.711605677"><ele>164.525</ele><time>2026-08-17T01:59:32.248Z</time><hdop>3.0</hdop><vdop>2.5</vdop><extensions><gom:speed>0.043</gom:speed></extensions></trkpt>
   <trkpt lat="59.3259118612" lon="34.7116050903"><ele>164.316</ele><time>2026-08-17T01:59:33.654Z</time><hdop>3.0</hdop><vdop>2.5</vdop><extensions><gom:speed>0.1</gom:speed></extensions></trkpt>
   <trkpt lat="59.3259113583" lon="34.7116030786"><ele>164.191</ele><time>2026-08-17T01:59:34.648Z</time><hdop>3.0</hdop><vdop>2.5</vdop><extensions><gom:speed>0.112</gom:speed></extensions></trkpt>
   <trkpt lat="59.3259112744" lon="34.7116023243"><ele>164.021</ele><time>2026-08-17T01:59:35.652Z</time><hdop>3.0</hdop><vdop>2.5</vdop><extensions><gom:speed>0.107</gom:speed></extensions></trkpt>
   <trkpt lat="59.3259101848" lon="34.7115989715"><ele>163.723</ele><time>2026-08-17T01:59:36.649Z</time><hdop>3.062</hdop><vdop>2.5</vdop><extensions><gom:speed>0.481</gom:speed></extensions></trkpt>
   <trkpt lat="59.3259100591" lon="34.7115953673"><ele>163.545</ele><time>2026-08-17T01:59:37.286Z</time><hdop>3.125</hdop><vdop>2.5</vdop><extensions><gom:speed>0.121</gom:speed></extensions></trkpt>
   <trkpt lat="59.3259110649" lon="34.7115895838"><ele>163.446</ele><time>2026-08-17T01:59:38.025Z</time><hdop>3.125</hdop><vdop>2.5</vdop><extensions><gom:speed>0.065</gom:speed></extensions></trkpt>
   <trkpt lat="59.3259111906" lon="34.7115868177"><ele>163.386</ele><time>2026-08-17T01:59:38.672Z</time><hdop>3.125</hdop><vdop>2.5</vdop><extensions><gom:speed>0.109</gom:speed></extensions></trkpt>
   <trkpt lat="59.3259110649" lon="34.7115807828"><ele>163.348</ele><time>2026-08-17T01:59:39.652Z</time><hdop>3.062</hdop><vdop>2.5</vdop><extensions><gom:speed>0.112</gom:speed></extensions></trkpt>
   <trkpt lat="59.3259117774" lon="34.7115767595"><ele>163.32</ele><time>2026-08-17T01:59:40.652Z</time><hdop>3.062</hdop><vdop>2.5</vdop><extensions><gom:speed>0.144</gom:speed></extensions></trkpt>
   <trkpt lat="59.3259123641" lon="34.7115739934"><ele>163.244</ele><time>2026-08-17T01:59:41.652Z</time><hdop>3.062</hdop><vdop>2.5</vdop><extensions><gom:speed>0.135</gom:speed></extensions></trkpt>
   <trkpt lat="59.325912867" lon="34.711568629"><ele>163.301</ele><time>2026-08-17T01:59:42.652Z</time><hdop>3.0</hdop><vdop>2.5</vdop><extensions><gom:speed>0.143</gom:speed></extensions></trkpt>
   <trkpt lat="59.3259129927" lon="34.7115622588"><ele>162.995</ele><time>2026-08-17T01:59:43.653Z</time><hdop>3.0</hdop><vdop>2.5</vdop><extensions><gom:speed>0.12</gom:speed></extensions></trkpt>
   <trkpt lat="59.3259127832" lon="34.7115573973"><ele>162.69</ele><time>2026-08-17T01:59:44.662Z</time><hdop>3.0</hdop><vdop>2.5</vdop><extensions><gom:speed>0.108</gom:speed></extensions></trkpt>
   <trkpt lat="59.3259116935" lon="34.7115487639"><ele>162.472</ele><time>2026-08-17T01:59:45.653Z</time><hdop>3.0</hdop><vdop>2.5</vdop><extensions><gom:speed>0.111</gom:speed></extensions></trkpt>
   <trkpt lat="59.3259115678" lon="34.7115309943"><ele>162.647</ele><time>2026-08-17T01:59:46.648Z</time><hdop>3.0</hdop><vdop>2.5</vdop><extensions><gom:speed>0.234</gom:speed></extensions></trkpt>
   <trkpt lat="59.3259119869" lon="34.7115244564"><ele>162.752</ele><time>2026-08-17T01:59:47.565Z</time><hdop>3.0</hdop><vdop>2.5</vdop><extensions><gom:speed>0.211</gom:speed></extensions></trkpt>
   <trkpt lat="59.3259102686" lon="34.7115107939"><ele>163.185</ele><time>2026-08-17T01:59:48.648Z</time><hdop>3.0</hdop><vdop>2.5</vdop><extensions><gom:speed>0.137</gom:speed></extensions></trkpt>
   <trkpt lat="59.3259094723" lon="34.711507022"><ele>163.482</ele><time>2026-08-17T01:59:49.652Z</time><hdop>3.0</hdop><vdop>2.5</vdop><extensions><gom:speed>0.053</gom:speed></extensions></trkpt>
   <trkpt lat="59.3259078798" lon="34.7114973828"><ele>163.512</ele><time>2026-08-17T01:59:50.653Z</time><hdop>3.0</hdop><vdop>2.5</vdop><extensions><gom:speed>0.092</gom:speed></extensions></trkpt>
   <trkpt lat="59.3259058681" lon="34.7114886657"><ele>163.529</ele><time>2026-08-17T01:59:51.208Z</time><hdop>3.0</hdop><vdop>2.5</vdop><extensions><gom:speed>0.135</gom:speed></extensions></trkpt>
   <trkpt lat="59.3259051976" lon="34.7114855644"><ele>163.38</ele><time>2026-08-17T01:59:51.663Z</time><hdop>3.0</hdop><vdop>2.5</vdop><extensions><gom:speed>0.091</gom:speed></extensions></trkpt>
   <trkpt lat="59.3259032697" lon="34.7114785236"><ele>163.156</ele><time>2026-08-17T01:59:52.654Z</time><hdop>3.0</hdop><vdop>2.5</vdop><extensions><gom:speed>0.098</gom:speed></extensions></trkpt>
   <trkpt lat="59.3259011742" lon="34.7114717342"><ele>163.022</ele><time>2026-08-17T01:59:53.271Z</time><hdop>3.0</hdop><vdop>2.5</vdop><extensions><gom:speed>0.124</gom:speed></extensions></trkpt>
   <trkpt lat="59.3258979891" lon="34.7114628494"><ele>162.925</ele><time>2026-08-17T01:59:54.653Z</time><hdop>3.0</hdop><vdop>2.75</vdop><extensions><gom:speed>0.107</gom:speed></extensions></trkpt>
   <trkpt lat="59.3258963966" lon="34.7114577364"><ele>162.867</ele><time>2026-08-17T01:59:55.175Z</time><hdop>3.0</hdop><vdop>2.75</vdop><extensions><gom:speed>0.137</gom:speed></extensions></trkpt>
   <trkpt lat="59.3258948878" lon="34.7114535455"><ele>162.823</ele><time>2026-08-17T01:59:55.648Z</time><hdop>3.0</hdop><vdop>2.625</vdop><extensions><gom:speed>0.123</gom:speed></extensions></trkpt>
   <trkpt lat="59.3258940915" lon="34.7114509471"><ele>162.806</ele><time>2026-08-17T01:59:56.652Z</time><hdop>3.0</hdop><vdop>2.5</vdop><extensions><gom:speed>0.103</gom:speed></extensions></trkpt>
   <trkpt lat="59.3258931695" lon="34.7114473429"><ele>162.803</ele><time>2026-08-17T01:59:57.652Z</time><hdop>3.0</hdop><vdop>2.5</vdop><extensions><gom:speed>0.113</gom:speed></extensions></trkpt>
   <trkpt lat="59.3258911998" lon="34.7114430681"><ele>162.966</ele><time>2026-08-17T01:59:58.652Z</time><hdop>3.0</hdop><vdop>2.5</vdop><extensions><gom:speed>0.092</gom:speed></extensions></trkpt>
   <trkpt lat="59.3258877632" lon="34.7114367817"><ele>163.112</ele><time>2026-08-17T01:59:59.653Z</time><hdop>3.0</hdop><vdop>2.5</vdop><extensions><gom:speed>0.087</gom:speed></extensions></trkpt>
   <trkpt lat="59.3258845781" lon="34.7114315849"><ele>162.895</ele><time>2026-08-17T02:00:00.653Z</time><hdop>3.0</hdop><vdop>2.5</vdop><extensions><gom:speed>0.085</gom:speed></extensions></trkpt>
   <trkpt lat="59.3258804709" lon="34.7114229515"><ele>162.749</ele><time>2026-08-17T02:00:01.652Z</time><hdop>3.0</hdop><vdop>2.812</vdop><extensions><gom:speed>0.103</gom:speed></extensions></trkpt>
   <trkpt lat="59.3258775792" lon="34.7114144858"><ele>162.983</ele><time>2026-08-17T02:00:02.652Z</time><hdop>3.0</hdop><vdop>2.687</vdop><extensions><gom:speed>0.13</gom:speed></extensions></trkpt>
   <trkpt lat="59.3258724662" lon="34.7113975544"><ele>163.154</ele><time>2026-08-17T02:00:03.648Z</time><hdop>3.0</hdop><vdop>2.75</vdop><extensions><gom:speed>0.146</gom:speed></extensions></trkpt>
   <trkpt lat="59.3258715861" lon="34.7113944531"><ele>163.482</ele><time>2026-08-17T02:00:04.652Z</time><hdop>3.0</hdop><vdop>2.75</vdop><extensions><gom:speed>0.083</gom:speed></extensions></trkpt>
   <trkpt lat="59.3258679819" lon="34.7113805391"><ele>163.659</ele><time>2026-08-17T02:00:05.648Z</time><hdop>3.0</hdop><vdop>2.812</vdop><extensions><gom:speed>0.101</gom:speed></extensions></trkpt>
   <trkpt lat="59.3258668923" lon="34.7113772702"><ele>163.806</ele><time>2026-08-17T02:00:06.657Z</time><hdop>3.0</hdop><vdop>2.625</vdop><extensions><gom:speed>0.074</gom:speed></extensions></trkpt>
   <trkpt lat="59.3258636652" lon="34.7113672957"><ele>163.894</ele><time>2026-08-17T02:00:07.648Z</time><hdop>3.0</hdop><vdop>2.625</vdop><extensions><gom:speed>0.109</gom:speed></extensions></trkpt>
   <trkpt lat="59.3258624918" lon="34.7113644459"><ele>163.945</ele><time>2026-08-17T02:00:08.660Z</time><hdop>3.0</hdop><vdop>2.625</vdop><extensions><gom:speed>0.07</gom:speed></extensions></trkpt>
   <trkpt lat="59.3258598934" lon="34.7113586623"><ele>163.974</ele><time>2026-08-17T02:00:09.647Z</time><hdop>3.0</hdop><vdop>2.625</vdop><extensions><gom:speed>0.085</gom:speed></extensions></trkpt>
   <trkpt lat="59.3258591809" lon="34.7113567345"><ele>163.991</ele><time>2026-08-17T02:00:10.695Z</time><hdop>3.0</hdop><vdop>2.625</vdop><extensions><gom:speed>0.067</gom:speed></extensions></trkpt>
   <trkpt lat="59.3258578817" lon="34.7113525436"><ele>164.005</ele><time>2026-08-17T02:00:11.473Z</time><hdop>3.0</hdop><vdop>2.5</vdop><extensions><gom:speed>0.117</gom:speed></extensions></trkpt>
   <trkpt lat="59.32585499" lon="34.7113445807"><ele>164.163</ele><time>2026-08-17T02:00:12.648Z</time><hdop>3.0</hdop><vdop>2.687</vdop><extensions><gom:speed>0.116</gom:speed></extensions></trkpt>
   <trkpt lat="59.3258543613" lon="34.7113424853"><ele>164.223</ele><time>2026-08-17T02:00:13.652Z</time><hdop>3.0</hdop><vdop>3.062</vdop><extensions><gom:speed>0.11</gom:speed></extensions></trkpt>
   <trkpt lat="59.325853565" lon="34.7113406413"><ele>164.259</ele><time>2026-08-17T02:00:14.103Z</time><hdop>3.0</hdop><vdop>3.062</vdop><extensions><gom:speed>0.118</gom:speed></extensions></trkpt>
   <trkpt lat="59.3258529783" lon="34.7113380429"><ele>164.375</ele><time>2026-08-17T02:00:14.652Z</time><hdop>3.0</hdop><vdop>3.062</vdop><extensions><gom:speed>0.116</gom:speed></extensions></trkpt>
   <trkpt lat="59.3258537746" lon="34.7113300801"><ele>164.444</ele><time>2026-08-17T02:00:15.570Z</time><hdop>3.0</hdop><vdop>3.062</vdop><extensions><gom:speed>0.197</gom:speed></extensions></trkpt>
   <trkpt lat="59.3258551995" lon="34.7113219496"><ele>164.684</ele><time>2026-08-17T02:00:16.652Z</time><hdop>3.0</hdop><vdop>2.687</vdop><extensions><gom:speed>0.117</gom:speed></extensions></trkpt>
   <trkpt lat="59.3258574626" lon="34.7113125619"><ele>164.827</ele><time>2026-08-17T02:00:17.452Z</time><hdop>3.0</hdop><vdop>2.687</vdop><extensions><gom:speed>0.151</gom:speed></extensions></trkpt>
   <trkpt lat="59.3258591809" lon="34.711306024"><ele>165.053</ele><time>2026-08-17T02:00:18.652Z</time><hdop>3.0</hdop><vdop>2.812</vdop><extensions><gom:speed>0.115</gom:speed></extensions></trkpt>
   <trkpt lat="59.3258622822" lon="34.7112957981"><ele>165.258</ele><time>2026-08-17T02:00:19.653Z</time><hdop>3.0</hdop><vdop>2.937</vdop><extensions><gom:speed>0.128</gom:speed></extensions></trkpt>
   <trkpt lat="59.3258662636" lon="34.7112862427"><ele>165.308</ele><time>2026-08-17T02:00:20.659Z</time><hdop>3.0</hdop><vdop>2.937</vdop><extensions><gom:speed>0.147</gom:speed></extensions></trkpt>
   <trkpt lat="59.3258706641" lon="34.7112750948"><ele>165.179</ele><time>2026-08-17T02:00:21.647Z</time><hdop>3.0</hdop><vdop>3.0</vdop><extensions><gom:speed>0.175</gom:speed></extensions></trkpt>
   <trkpt lat="59.325872089" lon="34.711271742"><ele>165.598</ele><time>2026-08-17T02:00:22.652Z</time><hdop>3.0</hdop><vdop>2.75</vdop><extensions><gom:speed>0.096</gom:speed></extensions></trkpt>
   <trkpt lat="59.3258730949" lon="34.7112640307"><ele>165.849</ele><time>2026-08-17T02:00:23.664Z</time><hdop>3.0</hdop><vdop>2.75</vdop><extensions><gom:speed>0.109</gom:speed></extensions></trkpt>
   <trkpt lat="59.3258736816" lon="34.7112470992"><ele>165.861</ele><time>2026-08-17T02:00:24.648Z</time><hdop>3.0</hdop><vdop>3.0</vdop><extensions><gom:speed>0.166</gom:speed></extensions></trkpt>
   <trkpt lat="59.3258741845" lon="34.7112397231"><ele>165.938</ele><time>2026-08-17T02:00:25.652Z</time><hdop>3.0</hdop><vdop>3.0</vdop><extensions><gom:speed>0.169</gom:speed></extensions></trkpt>
   <trkpt lat="59.325873975" lon="34.7112187684"><ele>166.049</ele><time>2026-08-17T02:00:26.649Z</time><hdop>3.0</hdop><vdop>3.187</vdop><extensions><gom:speed>0.317</gom:speed></extensions></trkpt>
   <trkpt lat="59.3258746874" lon="34.7112138231"><ele>166.167</ele><time>2026-08-17T02:00:27.652Z</time><hdop>3.0</hdop><vdop>3.562</vdop><extensions><gom:speed>0.173</gom:speed></extensions></trkpt>
   <trkpt lat="59.3258721729" lon="34.7111918625"><ele>166.328</ele><time>2026-08-17T02:00:28.647Z</time><hdop>3.0</hdop><vdop>3.75</vdop><extensions><gom:speed>0.356</gom:speed></extensions></trkpt>
   <trkpt lat="59.3258714604" lon="34.7111862466"><ele>166.555</ele><time>2026-08-17T02:00:29.652Z</time><hdop>3.0</hdop><vdop>4.125</vdop><extensions><gom:speed>0.177</gom:speed></extensions></trkpt>
   <trkpt lat="59.3258705803" lon="34.7111782838"><ele>166.453</ele><time>2026-08-17T02:00:30.652Z</time><hdop>3.0</hdop><vdop>3.375</vdop><extensions><gom:speed>0.159</gom:speed></extensions></trkpt>
   <trkpt lat="59.3258683591" lon="34.7111674711"><ele>166.413</ele><time>2026-08-17T02:00:31.648Z</time><hdop>3.0</hdop><vdop>3.312</vdop><extensions><gom:speed>0.141</gom:speed></extensions></trkpt>
   <trkpt lat="59.3258678981" lon="34.7111646213"><ele>166.389</ele><time>2026-08-17T02:00:32.255Z</time><hdop>3.0</hdop><vdop>3.312</vdop><extensions><gom:speed>0.134</gom:speed></extensions></trkpt>
   <trkpt lat="59.3258667665" lon="34.7111613523"><ele>166.153</ele><time>2026-08-17T02:00:33.652Z</time><hdop>3.0</hdop><vdop>3.375</vdop><extensions><gom:speed>0.07</gom:speed></extensions></trkpt>
   <trkpt lat="59.325866096" lon="34.7111598436"><ele>166.149</ele><time>2026-08-17T02:00:34.662Z</time><hdop>3.0</hdop><vdop>2.937</vdop><extensions><gom:speed>0.07</gom:speed></extensions></trkpt>
   <trkpt lat="59.3258648806" lon="34.7111595921"><ele>166.041</ele><time>2026-08-17T02:00:35.652Z</time><hdop>3.0</hdop><vdop>2.937</vdop><extensions><gom:speed>0.071</gom:speed></extensions></trkpt>
   <trkpt lat="59.3258629947" lon="34.7111607656"><ele>165.9</ele><time>2026-08-17T02:00:36.652Z</time><hdop>3.0</hdop><vdop>2.812</vdop><extensions><gom:speed>0.077</gom:speed></extensions></trkpt>
   <trkpt lat="59.3258593905" lon="34.7111613523"><ele>165.816</ele><time>2026-08-17T02:00:37.484Z</time><hdop>3.0</hdop><vdop>2.812</vdop><extensions><gom:speed>0.105</gom:speed></extensions></trkpt>
   <trkpt lat="59.3258558701" lon="34.7111612685"><ele>165.479</ele><time>2026-08-17T02:00:38.253Z</time><hdop>3.0</hdop><vdop>2.875</vdop><extensions><gom:speed>0.122</gom:speed></extensions></trkpt>
   <trkpt lat="59.3258513857" lon="34.7111600951"><ele>165.253</ele><time>2026-08-17T02:00:39.548Z</time><hdop>3.0</hdop><vdop>2.875</vdop><extensions><gom:speed>0.143</gom:speed></extensions></trkpt>
   <trkpt lat="59.3258448898" lon="34.7111604303"><ele>164.797</ele><time>2026-08-17T02:00:40.647Z</time><hdop>3.0</hdop><vdop>2.875</vdop><extensions><gom:speed>0.149</gom:speed></extensions></trkpt>
   <trkpt lat="59.3258428781" lon="34.7111579996"><ele>164.525</ele><time>2026-08-17T02:00:41.622Z</time><hdop>3.0</hdop><vdop>2.875</vdop><extensions><gom:speed>0.192</gom:speed></extensions></trkpt>
   <trkpt lat="59.325838771" lon="34.7111584187"><ele>163.985</ele><time>2026-08-17T02:00:42.655Z</time><hdop>3.0</hdop><vdop>2.812</vdop><extensions><gom:speed>0.15</gom:speed></extensions></trkpt>
   <trkpt lat="59.3258340771" lon="34.7111599274"><ele>163.739</ele><time>2026-08-17T02:00:43.652Z</time><hdop>3.0</hdop><vdop>2.75</vdop><extensions><gom:speed>0.124</gom:speed></extensions></trkpt>
   <trkpt lat="59.32582997" lon="34.7111626934"><ele>163.606</ele><time>2026-08-17T02:00:44.652Z</time><hdop>3.0</hdop><vdop>2.812</vdop><extensions><gom:speed>0.114</gom:speed></extensions></trkpt>
   <trkpt lat="59.3258258628" lon="34.7111659624"><ele>163.556</ele><time>2026-08-17T02:00:45.652Z</time><hdop>3.0</hdop><vdop>3.062</vdop><extensions><gom:speed>0.113</gom:speed></extensions></trkpt>
   <trkpt lat="59.3258226777" lon="34.7111687284"><ele>163.526</ele><time>2026-08-17T02:00:46.449Z</time><hdop>3.0</hdop><vdop>3.062</vdop><extensions><gom:speed>0.125</gom:speed></extensions></trkpt>
   <trkpt lat="59.3258204984" lon="34.711168477"><ele>163.491</ele><time>2026-08-17T02:00:47.389Z</time><hdop>3.0</hdop><vdop>3.0</vdop><extensions><gom:speed>0.164</gom:speed></extensions></trkpt>
   <trkpt lat="59.3258193669" lon="34.7111678902"><ele>163.457</ele><time>2026-08-17T02:00:47.875Z</time><hdop>3.0</hdop><vdop>3.062</vdop><extensions><gom:speed>0.198</gom:speed></extensions></trkpt>
   <trkpt lat="59.3258181934" lon="34.7111649566"><ele>163.403</ele><time>2026-08-17T02:00:48.664Z</time><hdop>3.0</hdop><vdop>3.125</vdop><extensions><gom:speed>0.167</gom:speed></extensions></trkpt>
   <trkpt lat="59.3258171876" lon="34.7111636993"><ele>163.37</ele><time>2026-08-17T02:00:49.652Z</time><hdop>3.0</hdop><vdop>3.0</vdop><extensions><gom:speed>0.119</gom:speed></extensions></trkpt>
   <trkpt lat="59.3258162656" lon="34.711162442"><ele>163.349</ele><time>2026-08-17T02:00:50.648Z</time><hdop>3.0</hdop><vdop>2.875</vdop><extensions><gom:speed>0.117</gom:speed></extensions></trkpt>
   <trkpt lat="59.3258157627" lon="34.7111623582"><ele>163.337</ele><time>2026-08-17T02:00:51.653Z</time><hdop>3.0</hdop><vdop>2.75</vdop><extensions><gom:speed>0.045</gom:speed></extensions></trkpt>
   <trkpt lat="59.3258151759" lon="34.7111614362"><ele>163.329</ele><time>2026-08-17T02:00:52.648Z</time><hdop>3.0</hdop><vdop>2.687</vdop><extensions><gom:speed>0.099</gom:speed></extensions></trkpt>
   <trkpt lat="59.3258149664" lon="34.7111594245"><ele>163.324</ele><time>2026-08-17T02:00:53.652Z</time><hdop>3.0</hdop><vdop>2.625</vdop><extensions><gom:speed>0.029</gom:speed></extensions></trkpt>
   <trkpt lat="59.3258147987" lon="34.7111603465"><ele>163.322</ele><time>2026-08-17T02:00:54.652Z</time><hdop>3.0</hdop><vdop>2.562</vdop><extensions><gom:speed>0.022</gom:speed></extensions></trkpt>
   <trkpt lat="59.3258149664" lon="34.7111602627"><ele>163.329</ele><time>2026-08-17T02:00:55.652Z</time><hdop>3.0</hdop><vdop>2.5</vdop><extensions><gom:speed>0.02</gom:speed></extensions></trkpt>
   <trkpt lat="59.3258151759" lon="34.7111610171"><ele>163.341</ele><time>2026-08-17T02:00:56.652Z</time><hdop>3.0</hdop><vdop>2.5</vdop><extensions><gom:speed>0.016</gom:speed></extensions></trkpt>
   <trkpt lat="59.3258148826" lon="34.7111608494"><ele>163.351</ele><time>2026-08-17T02:00:57.647Z</time><hdop>3.0</hdop><vdop>2.5</vdop><extensions><gom:speed>0.088</gom:speed></extensions></trkpt>
   <trkpt lat="59.3258144635" lon="34.7111617714"><ele>163.362</ele><time>2026-08-17T02:00:58.652Z</time><hdop>3.0</hdop><vdop>2.5</vdop><extensions><gom:speed>0.013</gom:speed></extensions></trkpt>
   <trkpt lat="59.3258142958" lon="34.7111617714"><ele>163.369</ele><time>2026-08-17T02:00:59.647Z</time><hdop>3.0</hdop><vdop>2.5</vdop><extensions><gom:speed>0.057</gom:speed></extensions></trkpt>
   <trkpt lat="59.3258135834" lon="34.7111619391"><ele>163.373</ele><time>2026-08-17T02:01:00.652Z</time><hdop>3.0</hdop><vdop>2.5</vdop><extensions><gom:speed>0.014</gom:speed></extensions></trkpt>
   <trkpt lat="59.3258133738" lon="34.7111613523"><ele>163.375</ele><time>2026-08-17T02:01:01.648Z</time><hdop>3.0</hdop><vdop>2.5</vdop><extensions><gom:speed>0.061</gom:speed></extensions></trkpt>
   <trkpt lat="59.32581329" lon="34.7111609332"><ele>163.377</ele><time>2026-08-17T02:01:02.652Z</time><hdop>3.0</hdop><vdop>2.5</vdop><extensions><gom:speed>0.011</gom:speed></extensions></trkpt>
   <trkpt lat="59.32581329" lon="34.7111607656"><ele>163.378</ele><time>2026-08-17T02:01:03.658Z</time><hdop>3.0</hdop><vdop>2.5</vdop><extensions><gom:speed>0.011</gom:speed></extensions></trkpt>
   <trkpt lat="59.3258131643" lon="34.7111604303"><ele>163.38</ele><time>2026-08-17T02:01:04.652Z</time><hdop>3.0</hdop><vdop>2.5</vdop><extensions><gom:speed>0.022</gom:speed></extensions></trkpt>
   <trkpt lat="59.32581329" lon="34.7111600951"><ele>163.38</ele><time>2026-08-17T02:01:05.648Z</time><hdop>3.0</hdop><vdop>2.5</vdop><extensions><gom:speed>0.034</gom:speed></extensions></trkpt>
   <trkpt lat="59.32581329" lon="34.7111594245"><ele>163.381</ele><time>2026-08-17T02:01:06.653Z</time><hdop>3.0</hdop><vdop>2.5</vdop><extensions><gom:speed>0.035</gom:speed></extensions></trkpt>
   <trkpt lat="59.32581329" lon="34.7111589216"><ele>163.381</ele><time>2026-08-17T02:01:07.652Z</time><hdop>3.0</hdop><vdop>2.5</vdop><extensions><gom:speed>0.04</gom:speed></extensions></trkpt>
   <trkpt lat="59.32581329" lon="34.7111583349"><ele>163.382</ele><time>2026-08-17T02:01:08.652Z</time><hdop>3.0</hdop><vdop>2.5</vdop><extensions><gom:speed>0.045</gom:speed></extensions></trkpt>
   <trkpt lat="59.3258133738" lon="34.7111580834"><ele>163.389</ele><time>2026-08-17T02:01:09.648Z</time><hdop>3.0</hdop><vdop>2.5</vdop><extensions><gom:speed>0.047</gom:speed></extensions></trkpt>
   <trkpt lat="59.3258133738" lon="34.711157329"><ele>163.115</ele><time>2026-08-17T02:01:10.659Z</time><hdop>3.0</hdop><vdop>2.5</vdop><extensions><gom:speed>0.047</gom:speed></extensions></trkpt>
   <trkpt lat="59.3258137929" lon="34.7111565747"><ele>163.388</ele><time>2026-08-17T02:01:11.648Z</time><hdop>3.0</hdop><vdop>2.5</vdop><extensions><gom:speed>0.395</gom:speed></extensions></trkpt>
   <trkpt lat="59.3258160979" lon="34.7111513779"><ele>163.548</ele><time>2026-08-17T02:01:12.652Z</time><hdop>3.0</hdop><vdop>2.5</vdop><extensions><gom:speed>0.446</gom:speed></extensions></trkpt>
   <trkpt lat="59.325818361" lon="34.7111475222"><ele>163.383</ele><time>2026-08-17T02:01:13.652Z</time><hdop>3.0</hdop><vdop>2.625</vdop><extensions><gom:speed>0.407</gom:speed></extensions></trkpt>
   <trkpt lat="59.3258201632" lon="34.7111450915"><ele>163.295</ele><time>2026-08-17T02:01:14.652Z</time><hdop>3.0</hdop><vdop>2.5</vdop><extensions><gom:speed>0.27</gom:speed></extensions></trkpt>
   <trkpt lat="59.3258210852" lon="34.7111444209"><ele>163.354</ele><time>2026-08-17T02:01:15.652Z</time><hdop>3.0</hdop><vdop>2.5</vdop><extensions><gom:speed>0.082</gom:speed></extensions></trkpt>
   <trkpt lat="59.3258213785" lon="34.7111437503"><ele>163.459</ele><time>2026-08-17T02:01:16.652Z</time><hdop>3.0</hdop><vdop>2.5</vdop><extensions><gom:speed>0.074</gom:speed></extensions></trkpt>
   <trkpt lat="59.3258217976" lon="34.7111400623"><ele>163.524</ele><time>2026-08-17T02:01:17.649Z</time><hdop>3.0</hdop><vdop>2.5</vdop><extensions><gom:speed>0.086</gom:speed></extensions></trkpt>
   <trkpt lat="59.325822091" lon="34.7111384697"><ele>163.563</ele><time>2026-08-17T02:01:18.429Z</time><hdop>3.0</hdop><vdop>2.5</vdop><extensions><gom:speed>0.087</gom:speed></extensions></trkpt>
   <trkpt lat="59.3258230968" lon="34.7111340273"><ele>163.349</ele><time>2026-08-17T02:01:19.390Z</time><hdop>3.0</hdop><vdop>2.5</vdop><extensions><gom:speed>0.257</gom:speed></extensions></trkpt>
   <trkpt lat="59.3258235997" lon="34.7111310937"><ele>163.36</ele><time>2026-08-17T02:01:19.846Z</time><hdop>3.0</hdop><vdop>2.5</vdop><extensions><gom:speed>0.299</gom:speed></extensions></trkpt>
   <trkpt lat="59.3258249827" lon="34.7111259807"><ele>163.367</ele><time>2026-08-17T02:01:20.625Z</time><hdop>3.0</hdop><vdop>2.5</vdop><extensions><gom:speed>0.306</gom:speed></extensions></trkpt>
   <trkpt lat="59.3258247732" lon="34.7111206163"><ele>163.378</ele><time>2026-08-17T02:01:21.566Z</time><hdop>3.0</hdop><vdop>2.5</vdop><extensions><gom:speed>0.207</gom:speed></extensions></trkpt>
   <trkpt lat="59.3258240607" lon="34.7111088816"><ele>163.144</ele><time>2026-08-17T02:01:22.527Z</time><hdop>3.0</hdop><vdop>2.5</vdop><extensions><gom:speed>0.23</gom:speed></extensions></trkpt>
   <trkpt lat="59.3258227615" lon="34.7111011703"><ele>162.881</ele><time>2026-08-17T02:01:23.326Z</time><hdop>3.0</hdop><vdop>2.5</vdop><extensions><gom:speed>0.205</gom:speed></extensions></trkpt>
   <trkpt lat="59.3258216719" lon="34.7110940457"><ele>162.818</ele><time>2026-08-17T02:01:24.186Z</time><hdop>3.0</hdop><vdop>2.5</vdop><extensions><gom:speed>0.167</gom:speed></extensions></trkpt>
   <trkpt lat="59.3258209594" lon="34.711088346"><ele>162.851</ele><time>2026-08-17T02:01:24.648Z</time><hdop>3.0</hdop><vdop>2.5</vdop><extensions><gom:speed>0.147</gom:speed></extensions></trkpt>
   <trkpt lat="59.3258199955" lon="34.7110837359"><ele>162.983</ele><time>2026-08-17T02:01:25.653Z</time><hdop>3.0</hdop><vdop>2.5</vdop><extensions><gom:speed>0.168</gom:speed></extensions></trkpt>
   <trkpt lat="59.3258189897" lon="34.7110765275"><ele>162.892</ele><time>2026-08-17T02:01:26.652Z</time><hdop>3.0</hdop><vdop>2.5</vdop><extensions><gom:speed>0.081</gom:speed></extensions></trkpt>
   <trkpt lat="59.3258176905" lon="34.7110695705"><ele>163.016</ele><time>2026-08-17T02:01:27.652Z</time><hdop>3.0</hdop><vdop>2.5</vdop><extensions><gom:speed>0.058</gom:speed></extensions></trkpt>
   <trkpt lat="59.3258164751" lon="34.7110575844"><ele>163.273</ele><time>2026-08-17T02:01:28.648Z</time><hdop>3.0</hdop><vdop>2.687</vdop><extensions><gom:speed>0.144</gom:speed></extensions></trkpt>
   <trkpt lat="59.3258160979" lon="34.7110541478"><ele>163.494</ele><time>2026-08-17T02:01:29.652Z</time><hdop>3.0</hdop><vdop>2.562</vdop><extensions><gom:speed>0.069</gom:speed></extensions></trkpt>
   <trkpt lat="59.3258161817" lon="34.7110456821"><ele>163.626</ele><time>2026-08-17T02:01:30.550Z</time><hdop>3.0</hdop><vdop>2.562</vdop><extensions><gom:speed>0.107</gom:speed></extensions></trkpt>
   <trkpt lat="59.3258168942" lon="34.7110339474"><ele>163.352</ele><time>2026-08-17T02:01:31.652Z</time><hdop>3.0</hdop><vdop>2.812</vdop><extensions><gom:speed>0.106</gom:speed></extensions></trkpt>
   <trkpt lat="59.3258335742" lon="34.7109925408"><ele>162.805</ele><time>2026-08-17T02:01:32.648Z</time><hdop>3.062</hdop><vdop>2.875</vdop><extensions><gom:speed>0.0</gom:speed></extensions></trkpt>
   <trkpt lat="59.3258354601" lon="34.7109866735"><ele>162.562</ele><time>2026-08-17T02:01:33.648Z</time><hdop>3.25</hdop><vdop>3.062</vdop><extensions><gom:speed>0.249</gom:speed></extensions></trkpt>
   <trkpt lat="59.3258342867" lon="34.7109709993"><ele>162.541</ele><time>2026-08-17T02:01:34.648Z</time><hdop>3.375</hdop><vdop>3.0</vdop><extensions><gom:speed>0.729</gom:speed></extensions></trkpt>
   <trkpt lat="59.3258338676" lon="34.7109504637"><ele>162.809</ele><time>2026-08-17T02:01:35.648Z</time><hdop>3.625</hdop><vdop>2.937</vdop><extensions><gom:speed>0.689</gom:speed></extensions></trkpt>
   <trkpt lat="59.32583458" lon="34.7109336999"><ele>162.999</ele><time>2026-08-17T02:01:36.648Z</time><hdop>3.75</hdop><vdop>3.0</vdop><extensions><gom:speed>0.459</gom:speed></extensions></trkpt>
   <trkpt lat="59.3258358792" lon="34.710921127"><ele>163.175</ele><time>2026-08-17T02:01:37.647Z</time><hdop>3.75</hdop><vdop>3.312</vdop><extensions><gom:speed>0.419</gom:speed></extensions></trkpt>
   <trkpt lat="59.3258381842" lon="34.7109047823"><ele>163.356</ele><time>2026-08-17T02:01:38.647Z</time><hdop>3.75</hdop><vdop>3.375</vdop><extensions><gom:speed>0.489</gom:speed></extensions></trkpt>
   <trkpt lat="59.3258401959" lon="34.7108973224"><ele>163.523</ele><time>2026-08-17T02:01:39.649Z</time><hdop>3.75</hdop><vdop>3.812</vdop><extensions><gom:speed>0.229</gom:speed></extensions></trkpt>
   <trkpt lat="59.3258445964" lon="34.7108895272"><ele>163.851</ele><time>2026-08-17T02:01:40.648Z</time><hdop>3.75</hdop><vdop>3.687</vdop><extensions><gom:speed>0.429</gom:speed></extensions></trkpt>
   <trkpt lat="59.3258445964" lon="34.7108796366"><ele>164.081</ele><time>2026-08-17T02:01:41.648Z</time><hdop>3.75</hdop><vdop>4.0</vdop><extensions><gom:speed>0.539</gom:speed></extensions></trkpt>
   <trkpt lat="59.3258517629" lon="34.7108863421"><ele>163.778</ele><time>2026-08-17T02:01:42.647Z</time><hdop>3.75</hdop><vdop>3.625</vdop><extensions><gom:speed>0.0</gom:speed></extensions></trkpt>
   <trkpt lat="59.3258557862" lon="34.710891958"><ele>163.694</ele><time>2026-08-17T02:01:43.648Z</time><hdop>3.75</hdop><vdop>3.437</vdop><extensions><gom:speed>0.479</gom:speed></extensions></trkpt>
   <trkpt lat="59.3258601867" lon="34.7108971548"><ele>163.772</ele><time>2026-08-17T02:01:44.649Z</time><hdop>3.75</hdop><vdop>3.312</vdop><extensions><gom:speed>0.299</gom:speed></extensions></trkpt>
   <trkpt lat="59.3258666827" lon="34.710896568"><ele>164.053</ele><time>2026-08-17T02:01:45.648Z</time><hdop>3.75</hdop><vdop>3.187</vdop><extensions><gom:speed>0.399</gom:speed></extensions></trkpt>
   <trkpt lat="59.325873975" lon="34.7108909521"><ele>164.084</ele><time>2026-08-17T02:01:46.647Z</time><hdop>3.75</hdop><vdop>3.187</vdop><extensions><gom:speed>0.539</gom:speed></extensions></trkpt>
   <trkpt lat="59.3258831951" lon="34.7108879347"><ele>163.992</ele><time>2026-08-17T02:01:47.648Z</time><hdop>3.75</hdop><vdop>3.187</vdop><extensions><gom:speed>0.159</gom:speed></extensions></trkpt>
   <trkpt lat="59.3258855839" lon="34.7108872641"><ele>163.962</ele><time>2026-08-17T02:01:48.648Z</time><hdop>3.75</hdop><vdop>3.0</vdop><extensions><gom:speed>0.0</gom:speed></extensions></trkpt>
   <trkpt lat="59.3258877632" lon="34.7108873479"><ele>163.951</ele><time>2026-08-17T02:01:49.648Z</time><hdop>3.75</hdop><vdop>2.812</vdop><extensions><gom:speed>0.0</gom:speed></extensions></trkpt>
   <trkpt lat="59.3258883918" lon="34.7108873479"><ele>163.945</ele><time>2026-08-17T02:01:50.648Z</time><hdop>3.75</hdop><vdop>2.562</vdop><extensions><gom:speed>0.0</gom:speed></extensions></trkpt>
   <trkpt lat="59.3258885595" lon="34.7108872641"><ele>163.943</ele><time>2026-08-17T02:01:51.647Z</time><hdop>3.75</hdop><vdop>2.5</vdop><extensions><gom:speed>0.0</gom:speed></extensions></trkpt>
   <trkpt lat="59.3258886852" lon="34.7108873479"><ele>163.943</ele><time>2026-08-17T02:01:52.647Z</time><hdop>3.75</hdop><vdop>2.5</vdop><extensions><gom:speed>0.0</gom:speed></extensions></trkpt>
   <trkpt lat="59.3258891881" lon="34.7108843304"><ele>164.174</ele><time>2026-08-17T02:01:53.648Z</time><hdop>3.75</hdop><vdop>2.5</vdop><extensions><gom:speed>0.0</gom:speed></extensions></trkpt>
   <trkpt lat="59.3258890624" lon="34.7108827379"><ele>164.312</ele><time>2026-08-17T02:01:54.648Z</time><hdop>3.75</hdop><vdop>2.687</vdop><extensions><gom:speed>0.0</gom:speed></extensions></trkpt>
   <trkpt lat="59.3258890624" lon="34.7108821511"><ele>164.396</ele><time>2026-08-17T02:01:55.648Z</time><hdop>3.75</hdop><vdop>2.75</vdop><extensions><gom:speed>0.0</gom:speed></extensions></trkpt>
   <trkpt lat="59.3258890624" lon="34.7108819835"><ele>164.446</ele><time>2026-08-17T02:01:56.648Z</time><hdop>3.75</hdop><vdop>2.875</vdop><extensions><gom:speed>0.0</gom:speed></extensions></trkpt>
   <trkpt lat="59.3258890624" lon="34.7108818997"><ele>164.476</ele><time>2026-08-17T02:01:57.648Z</time><hdop>3.75</hdop><vdop>2.875</vdop><extensions><gom:speed>0.0</gom:speed></extensions></trkpt>
   <trkpt lat="59.3258890624" lon="34.7108817321"><ele>164.493</ele><time>2026-08-17T02:01:58.649Z</time><hdop>3.75</hdop><vdop>2.812</vdop><extensions><gom:speed>0.0</gom:speed></extensions></trkpt>
   <trkpt lat="59.3258890624" lon="34.7108816482"><ele>164.504</ele><time>2026-08-17T02:01:59.647Z</time><hdop>3.75</hdop><vdop>2.687</vdop><extensions><gom:speed>0.0</gom:speed></extensions></trkpt>
   <trkpt lat="59.3258890624" lon="34.7108816482"><ele>164.511</ele><time>2026-08-17T02:02:00.648Z</time><hdop>3.75</hdop><vdop>2.562</vdop><extensions><gom:speed>0.0</gom:speed></extensions></trkpt>
   <trkpt lat="59.3258889786" lon="34.7108814806"><ele>164.519</ele><time>2026-08-17T02:02:01.647Z</time><hdop>3.75</hdop><vdop>2.562</vdop><extensions><gom:speed>0.0</gom:speed></extensions></trkpt>
   <trkpt lat="59.3258888948" lon="34.7108814806"><ele>164.525</ele><time>2026-08-17T02:02:02.649Z</time><hdop>3.75</hdop><vdop>2.5</vdop><extensions><gom:speed>0.0</gom:speed></extensions></trkpt>
   <trkpt lat="59.3258888948" lon="34.7108813968"><ele>164.528</ele><time>2026-08-17T02:02:03.649Z</time><hdop>3.75</hdop><vdop>2.5</vdop><extensions><gom:speed>0.0</gom:speed></extensions></trkpt>
   <trkpt lat="59.3258888948" lon="34.7108813968"><ele>164.533</ele><time>2026-08-17T02:02:04.648Z</time><hdop>3.75</hdop><vdop>2.5</vdop><extensions><gom:speed>0.0</gom:speed></extensions></trkpt>
   <trkpt lat="59.3258889786" lon="34.7108813968"><ele>164.534</ele><time>2026-08-17T02:02:05.648Z</time><hdop>3.75</hdop><vdop>2.5</vdop><extensions><gom:speed>0.0</gom:speed></extensions></trkpt>
   <trkpt lat="59.3258889786" lon="34.7108813968"><ele>164.533</ele><time>2026-08-17T02:02:06.647Z</time><hdop>3.75</hdop><vdop>2.5</vdop><extensions><gom:speed>0.0</gom:speed></extensions></trkpt>
   <trkpt lat="59.3258889786" lon="34.7108812291"><ele>164.532</ele><time>2026-08-17T02:02:07.648Z</time><hdop>3.75</hdop><vdop>2.5</vdop><extensions><gom:speed>0.0</gom:speed></extensions></trkpt>
   <trkpt lat="59.3258889786" lon="34.7108812291"><ele>164.533</ele><time>2026-08-17T02:02:08.647Z</time><hdop>3.75</hdop><vdop>2.5</vdop><extensions><gom:speed>0.0</gom:speed></extensions></trkpt>
   <trkpt lat="59.3258889786" lon="34.7108812291"><ele>164.532</ele><time>2026-08-17T02:02:09.648Z</time><hdop>3.75</hdop><vdop>2.5</vdop><extensions><gom:speed>0.0</gom:speed></extensions></trkpt>
   <trkpt lat="59.325890194" lon="34.7108814806"><ele>164.408</ele><time>2026-08-17T02:02:10.648Z</time><hdop>3.75</hdop><vdop>2.5</vdop><extensions><gom:speed>0.0</gom:speed></extensions></trkpt>
   <trkpt lat="59.3258908645" lon="34.7108804748"><ele>164.334</ele><time>2026-08-17T02:02:11.648Z</time><hdop>3.75</hdop><vdop>2.5</vdop><extensions><gom:speed>0.0</gom:speed></extensions></trkpt>
   <trkpt lat="59.3258910741" lon="34.7108802233"><ele>164.29</ele><time>2026-08-17T02:02:12.648Z</time><hdop>3.75</hdop><vdop>2.5</vdop><extensions><gom:speed>0.0</gom:speed></extensions></trkpt>
   <trkpt lat="59.3258910741" lon="34.7108803909"><ele>164.263</ele><time>2026-08-17T02:02:13.648Z</time><hdop>3.75</hdop><vdop>2.5</vdop><extensions><gom:speed>0.0</gom:speed></extensions></trkpt>
   <trkpt lat="59.3258910741" lon="34.7108805586"><ele>164.248</ele><time>2026-08-17T02:02:14.648Z</time><hdop>3.75</hdop><vdop>2.5</vdop><extensions><gom:speed>0.0</gom:speed></extensions></trkpt>
   <trkpt lat="59.3258910741" lon="34.7108807262"><ele>164.237</ele><time>2026-08-17T02:02:15.648Z</time><hdop>3.75</hdop><vdop>2.5</vdop><extensions><gom:speed>0.0</gom:speed></extensions></trkpt>
   <trkpt lat="59.3258911998" lon="34.7108809777"><ele>164.225</ele><time>2026-08-17T02:02:16.648Z</time><hdop>3.75</hdop><vdop>2.5</vdop><extensions><gom:speed>0.0</gom:speed></extensions></trkpt>
   <trkpt lat="59.3258911998" lon="34.7108811453"><ele>164.216</ele><time>2026-08-17T02:02:17.648Z</time><hdop>3.75</hdop><vdop>2.5</vdop><extensions><gom:speed>0.0</gom:speed></extensions></trkpt>
   <trkpt lat="59.3258911998" lon="34.7108812291"><ele>164.21</ele><time>2026-08-17T02:02:18.647Z</time><hdop>3.75</hdop><vdop>2.5</vdop><extensions><gom:speed>0.0</gom:speed></extensions></trkpt>
   <trkpt lat="59.3258911998" lon="34.7108814806"><ele>164.205</ele><time>2026-08-17T02:02:19.649Z</time><hdop>3.75</hdop><vdop>2.625</vdop><extensions><gom:speed>0.0</gom:speed></extensions></trkpt>
   <trkpt lat="59.3258911998" lon="34.7108815644"><ele>164.203</ele><time>2026-08-17T02:02:20.648Z</time><hdop>3.75</hdop><vdop>2.75</vdop><extensions><gom:speed>0.0</gom:speed></extensions></trkpt>
   <trkpt lat="59.3258911998" lon="34.7108816482"><ele>164.201</ele><time>2026-08-17T02:02:21.647Z</time><hdop>3.75</hdop><vdop>2.687</vdop><extensions><gom:speed>0.0</gom:speed></extensions></trkpt>
   <trkpt lat="59.3258912836" lon="34.7108817321"><ele>164.198</ele><time>2026-08-17T02:02:22.648Z</time><hdop>3.75</hdop><vdop>2.812</vdop><extensions><gom:speed>0.0</gom:speed></extensions></trkpt>
   <trkpt lat="59.3258912836" lon="34.7108818997"><ele>164.195</ele><time>2026-08-17T02:02:23.648Z</time><hdop>3.75</hdop><vdop>2.875</vdop><extensions><gom:speed>0.0</gom:speed></extensions></trkpt>
   <trkpt lat="59.3258912836" lon="34.7108819835"><ele>164.195</ele><time>2026-08-17T02:02:24.648Z</time><hdop>3.75</hdop><vdop>3.0</vdop><extensions><gom:speed>0.0</gom:speed></extensions></trkpt>
   <trkpt lat="59.3258913674" lon="34.7108819835"><ele>164.197</ele><time>2026-08-17T02:02:25.648Z</time><hdop>3.75</hdop><vdop>3.125</vdop><extensions><gom:speed>0.0</gom:speed></extensions></trkpt>
   <trkpt lat="59.3258913674" lon="34.7108819835"><ele>164.199</ele><time>2026-08-17T02:02:26.648Z</time><hdop>3.75</hdop><vdop>3.187</vdop><extensions><gom:speed>0.0</gom:speed></extensions></trkpt>
   <trkpt lat="59.3258913674" lon="34.7108820673"><ele>164.198</ele><time>2026-08-17T02:02:27.648Z</time><hdop>3.75</hdop><vdop>3.125</vdop><extensions><gom:speed>0.0</gom:speed></extensions></trkpt>
   <trkpt lat="59.3258914931" lon="34.7108820673"><ele>164.198</ele><time>2026-08-17T02:02:28.648Z</time><hdop>3.75</hdop><vdop>3.25</vdop><extensions><gom:speed>0.0</gom:speed></extensions></trkpt>
   <trkpt lat="59.325891577" lon="34.7108821511"><ele>164.2</ele><time>2026-08-17T02:02:29.648Z</time><hdop>3.75</hdop><vdop>3.312</vdop><extensions><gom:speed>0.0</gom:speed></extensions></trkpt>
   <trkpt lat="59.325891577" lon="34.710882235"><ele>164.199</ele><time>2026-08-17T02:02:30.648Z</time><hdop>3.75</hdop><vdop>3.187</vdop><extensions><gom:speed>0.0</gom:speed></extensions></trkpt>
   <trkpt lat="59.325891577" lon="34.710882235"><ele>164.196</ele><time>2026-08-17T02:02:31.649Z</time><hdop>3.75</hdop><vdop>3.125</vdop><extensions><gom:speed>0.0</gom:speed></extensions></trkpt>
   <trkpt lat="59.3258916608" lon="34.7108823188"><ele>164.195</ele><time>2026-08-17T02:02:32.648Z</time><hdop>3.75</hdop><vdop>3.25</vdop><extensions><gom:speed>0.0</gom:speed></extensions></trkpt>
   <trkpt lat="59.3258916608" lon="34.7108823188"><ele>164.192</ele><time>2026-08-17T02:02:33.648Z</time><hdop>3.75</hdop><vdop>3.187</vdop><extensions><gom:speed>0.0</gom:speed></extensions></trkpt>
   <trkpt lat="59.3258916608" lon="34.7108824864"><ele>164.189</ele><time>2026-08-17T02:02:34.648Z</time><hdop>3.75</hdop><vdop>3.125</vdop><extensions><gom:speed>0.0</gom:speed></extensions></trkpt>
   <trkpt lat="59.3258916608" lon="34.7108824864"><ele>164.186</ele><time>2026-08-17T02:02:35.648Z</time><hdop>3.75</hdop><vdop>3.187</vdop><extensions><gom:speed>0.0</gom:speed></extensions></trkpt>
   <trkpt lat="59.3258917865" lon="34.7108824864"><ele>164.184</ele><time>2026-08-17T02:02:36.649Z</time><hdop>3.75</hdop><vdop>3.312</vdop><extensions><gom:speed>0.0</gom:speed></extensions></trkpt>
   <trkpt lat="59.3258917865" lon="34.7108825702"><ele>164.183</ele><time>2026-08-17T02:02:37.649Z</time><hdop>3.75</hdop><vdop>3.312</vdop><extensions><gom:speed>0.0</gom:speed></extensions></trkpt>
   <trkpt lat="59.3258917865" lon="34.7108825702"><ele>164.18</ele><time>2026-08-17T02:02:38.648Z</time><hdop>3.75</hdop><vdop>3.125</vdop><extensions><gom:speed>0.0</gom:speed></extensions></trkpt>
   <trkpt lat="59.3258917865" lon="34.7108825702"><ele>164.178</ele><time>2026-08-17T02:02:39.648Z</time><hdop>3.75</hdop><vdop>3.0</vdop><extensions><gom:speed>0.0</gom:speed></extensions></trkpt>
   <trkpt lat="59.3258917865" lon="34.7108826541"><ele>164.177</ele><time>2026-08-17T02:02:40.648Z</time><hdop>3.75</hdop><vdop>2.937</vdop><extensions><gom:speed>0.0</gom:speed></extensions></trkpt>
   <trkpt lat="59.3258917865" lon="34.7108826541"><ele>164.175</ele><time>2026-08-17T02:02:41.648Z</time><hdop>3.75</hdop><vdop>2.875</vdop><extensions><gom:speed>0.0</gom:speed></extensions></trkpt>
   <trkpt lat="59.3258917865" lon="34.7108826541"><ele>164.173</ele><time>2026-08-17T02:02:42.647Z</time><hdop>3.75</hdop><vdop>2.875</vdop><extensions><gom:speed>0.0</gom:speed></extensions></trkpt>
   <trkpt lat="59.3258917865" lon="34.7108826541"><ele>164.17</ele><time>2026-08-17T02:02:43.648Z</time><hdop>3.75</hdop><vdop>2.937</vdop><extensions><gom:speed>0.0</gom:speed></extensions></trkpt>
   <trkpt lat="59.3258917865" lon="34.7108827379"><ele>164.169</ele><time>2026-08-17T02:02:44.647Z</time><hdop>3.75</hdop><vdop>2.875</vdop><extensions><gom:speed>0.0</gom:speed></extensions></trkpt>
   <trkpt lat="59.3258917865" lon="34.7108827379"><ele>164.168</ele><time>2026-08-17T02:02:45.648Z</time><hdop>3.75</hdop><vdop>2.812</vdop><extensions><gom:speed>0.0</gom:speed></extensions></trkpt>
   <trkpt lat="59.3258917865" lon="34.7108827379"><ele>164.168</ele><time>2026-08-17T02:02:46.649Z</time><hdop>3.75</hdop><vdop>2.875</vdop><extensions><gom:speed>0.0</gom:speed></extensions></trkpt>
   <trkpt lat="59.3258917865" lon="34.7108828217"><ele>164.167</ele><time>2026-08-17T02:02:47.648Z</time><hdop>3.75</hdop><vdop>2.875</vdop><extensions><gom:speed>0.0</gom:speed></extensions></trkpt>
   <trkpt lat="59.3258917865" lon="34.7108829893"><ele>164.168</ele><time>2026-08-17T02:02:48.648Z</time><hdop>3.75</hdop><vdop>2.812</vdop><extensions><gom:speed>0.0</gom:speed></extensions></trkpt>
   <trkpt lat="59.3258917865" lon="34.7108830732"><ele>164.168</ele><time>2026-08-17T02:02:49.647Z</time><hdop>3.75</hdop><vdop>2.687</vdop><extensions><gom:speed>0.0</gom:speed></extensions></trkpt>
   <trkpt lat="59.3258918703" lon="34.710883157"><ele>164.167</ele><time>2026-08-17T02:02:50.648Z</time><hdop>3.75</hdop><vdop>2.875</vdop><extensions><gom:speed>0.0</gom:speed></extensions></trkpt>
   <trkpt lat="59.3258918703" lon="34.710883157"><ele>164.168</ele><time>2026-08-17T02:02:51.648Z</time><hdop>3.75</hdop><vdop>2.687</vdop><extensions><gom:speed>0.0</gom:speed></extensions></trkpt>
   <trkpt lat="59.3258918703" lon="34.710883157"><ele>164.169</ele><time>2026-08-17T02:02:52.648Z</time><hdop>3.75</hdop><vdop>2.562</vdop><extensions><gom:speed>0.0</gom:speed></extensions></trkpt>
   <trkpt lat="59.3258918703" lon="34.710883157"><ele>164.17</ele><time>2026-08-17T02:02:53.648Z</time><hdop>3.75</hdop><vdop>2.5</vdop><extensions><gom:speed>0.0</gom:speed></extensions></trkpt>
   <trkpt lat="59.3258917865" lon="34.710883157"><ele>164.171</ele><time>2026-08-17T02:02:54.648Z</time><hdop>3.75</hdop><vdop>2.812</vdop><extensions><gom:speed>0.0</gom:speed></extensions></trkpt>
   <trkpt lat="59.3258917865" lon="34.710883157"><ele>164.173</ele><time>2026-08-17T02:02:55.648Z</time><hdop>3.75</hdop><vdop>2.562</vdop><extensions><gom:speed>0.0</gom:speed></extensions></trkpt>
   <trkpt lat="59.3258917865" lon="34.710883157"><ele>164.175</ele><time>2026-08-17T02:02:56.647Z</time><hdop>3.75</hdop><vdop>2.875</vdop><extensions><gom:speed>0.0</gom:speed></extensions></trkpt>
   <trkpt lat="59.3258917865" lon="34.710883157"><ele>164.174</ele><time>2026-08-17T02:02:57.648Z</time><hdop>3.75</hdop><vdop>2.562</vdop><extensions><gom:speed>0.0</gom:speed></extensions></trkpt>
   <trkpt lat="59.3258918703" lon="34.7108832408"><ele>164.169</ele><time>2026-08-17T02:02:58.648Z</time><hdop>3.75</hdop><vdop>2.5</vdop><extensions><gom:speed>0.0</gom:speed></extensions></trkpt>
   <trkpt lat="59.3258918703" lon="34.710883157"><ele>164.164</ele><time>2026-08-17T02:02:59.648Z</time><hdop>3.75</hdop><vdop>2.5</vdop><extensions><gom:speed>0.0</gom:speed></extensions></trkpt>
   <trkpt lat="59.3258919961" lon="34.710883157"><ele>164.161</ele><time>2026-08-17T02:03:00.648Z</time><hdop>3.75</hdop><vdop>2.5</vdop><extensions><gom:speed>0.0</gom:speed></extensions></trkpt>
   <trkpt lat="59.3258919961" lon="34.710883157"><ele>164.16</ele><time>2026-08-17T02:03:01.648Z</time><hdop>3.75</hdop><vdop>2.5</vdop><extensions><gom:speed>0.0</gom:speed></extensions></trkpt>
   <trkpt lat="59.3258919961" lon="34.710883157"><ele>164.16</ele><time>2026-08-17T02:03:02.647Z</time><hdop>3.75</hdop><vdop>2.5</vdop><extensions><gom:speed>0.0</gom:speed></extensions></trkpt>
   <trkpt lat="59.3258919961" lon="34.710883157"><ele>164.161</ele><time>2026-08-17T02:03:03.649Z</time><hdop>3.75</hdop><vdop>2.5</vdop><extensions><gom:speed>0.0</gom:speed></extensions></trkpt>
   <trkpt lat="59.3258920799" lon="34.710883157"><ele>164.161</ele><time>2026-08-17T02:03:04.648Z</time><hdop>3.75</hdop><vdop>2.5</vdop><extensions><gom:speed>0.0</gom:speed></extensions></trkpt>
   <trkpt lat="59.3258919961" lon="34.7108832408"><ele>164.162</ele><time>2026-08-17T02:03:05.648Z</time><hdop>3.75</hdop><vdop>2.5</vdop><extensions><gom:speed>0.0</gom:speed></extensions></trkpt>
   <trkpt lat="59.3258920799" lon="34.7108832408"><ele>164.162</ele><time>2026-08-17T02:03:06.648Z</time><hdop>3.75</hdop><vdop>2.5</vdop><extensions><gom:speed>0.0</gom:speed></extensions></trkpt>
   <trkpt lat="59.3258920799" lon="34.7108832408"><ele>164.164</ele><time>2026-08-17T02:03:07.648Z</time><hdop>3.75</hdop><vdop>2.5</vdop><extensions><gom:speed>0.0</gom:speed></extensions></trkpt>
   <trkpt lat="59.3258921637" lon="34.7108832408"><ele>164.169</ele><time>2026-08-17T02:03:08.648Z</time><hdop>3.75</hdop><vdop>2.5</vdop><extensions><gom:speed>0.0</gom:speed></extensions></trkpt>
   <trkpt lat="59.3258921637" lon="34.710883157"><ele>164.174</ele><time>2026-08-17T02:03:09.648Z</time><hdop>3.75</hdop><vdop>2.5</vdop><extensions><gom:speed>0.0</gom:speed></extensions></trkpt>
   <trkpt lat="59.3258922894" lon="34.710883157"><ele>164.176</ele><time>2026-08-17T02:03:10.648Z</time><hdop>3.75</hdop><vdop>2.5</vdop><extensions><gom:speed>0.0</gom:speed></extensions></trkpt>
   <trkpt lat="59.3258923732" lon="34.710883157"><ele>164.175</ele><time>2026-08-17T02:03:11.649Z</time><hdop>3.75</hdop><vdop>2.5</vdop><extensions><gom:speed>0.0</gom:speed></extensions></trkpt>
   <trkpt lat="59.3258923732" lon="34.7108832408"><ele>164.173</ele><time>2026-08-17T02:03:12.648Z</time><hdop>3.75</hdop><vdop>2.5</vdop><extensions><gom:speed>0.0</gom:speed></extensions></trkpt>
   <trkpt lat="59.3258923732" lon="34.7108832408"><ele>164.171</ele><time>2026-08-17T02:03:13.648Z</time><hdop>3.75</hdop><vdop>2.5</vdop><extensions><gom:speed>0.0</gom:speed></extensions></trkpt>
   <trkpt lat="59.325892499" lon="34.7108832408"><ele>164.17</ele><time>2026-08-17T02:03:14.648Z</time><hdop>3.75</hdop><vdop>2.5</vdop><extensions><gom:speed>0.0</gom:speed></extensions></trkpt>
   <trkpt lat="59.3258925828" lon="34.7108832408"><ele>164.168</ele><time>2026-08-17T02:03:15.647Z</time><hdop>3.75</hdop><vdop>2.5</vdop><extensions><gom:speed>0.0</gom:speed></extensions></trkpt>
   <trkpt lat="59.3258925828" lon="34.7108833246"><ele>164.162</ele><time>2026-08-17T02:03:16.648Z</time><hdop>3.75</hdop><vdop>2.625</vdop><extensions><gom:speed>0.0</gom:speed></extensions></trkpt>
   <trkpt lat="59.3258926666" lon="34.7108833246"><ele>164.155</ele><time>2026-08-17T02:03:17.648Z</time><hdop>3.75</hdop><vdop>2.75</vdop><extensions><gom:speed>0.0</gom:speed></extensions></trkpt>
   <trkpt lat="59.3258927923" lon="34.7108834923"><ele>164.146</ele><time>2026-08-17T02:03:18.648Z</time><hdop>3.75</hdop><vdop>2.875</vdop><extensions><gom:speed>0.0</gom:speed></extensions></trkpt>
   <trkpt lat="59.3258927923" lon="34.7108834923"><ele>164.138</ele><time>2026-08-17T02:03:19.648Z</time><hdop>3.75</hdop><vdop>2.937</vdop><extensions><gom:speed>0.0</gom:speed></extensions></trkpt>
   <trkpt lat="59.3258928762" lon="34.7108834923"><ele>164.131</ele><time>2026-08-17T02:03:20.648Z</time><hdop>3.75</hdop><vdop>3.062</vdop><extensions><gom:speed>0.0</gom:speed></extensions></trkpt>
   <trkpt lat="59.3258928762" lon="34.7108834923"><ele>164.123</ele><time>2026-08-17T02:03:21.648Z</time><hdop>3.75</hdop><vdop>3.125</vdop><extensions><gom:speed>0.0</gom:speed></extensions></trkpt>
   <trkpt lat="59.3258928762" lon="34.7108835761"><ele>164.116</ele><time>2026-08-17T02:03:22.649Z</time><hdop>3.75</hdop><vdop>3.187</vdop><extensions><gom:speed>0.0</gom:speed></extensions></trkpt>
   <trkpt lat="59.3258928762" lon="34.7108835761"><ele>164.108</ele><time>2026-08-17T02:03:23.648Z</time><hdop>3.75</hdop><vdop>3.187</vdop><extensions><gom:speed>0.0</gom:speed></extensions></trkpt>
   <trkpt lat="59.32589296" lon="34.7108835761"><ele>164.102</ele><time>2026-08-17T02:03:24.647Z</time><hdop>3.75</hdop><vdop>3.187</vdop><extensions><gom:speed>0.0</gom:speed></extensions></trkpt>
   <trkpt lat="59.32589296" lon="34.7108835761"><ele>164.097</ele><time>2026-08-17T02:03:25.649Z</time><hdop>3.75</hdop><vdop>3.187</vdop><extensions><gom:speed>0.0</gom:speed></extensions></trkpt>
   <trkpt lat="59.32589296" lon="34.7108835761"><ele>164.094</ele><time>2026-08-17T02:03:26.648Z</time><hdop>3.75</hdop><vdop>3.125</vdop><extensions><gom:speed>0.0</gom:speed></extensions></trkpt>
   <trkpt lat="59.32589296" lon="34.7108835761"><ele>164.091</ele><time>2026-08-17T02:03:27.648Z</time><hdop>3.75</hdop><vdop>3.125</vdop><extensions><gom:speed>0.0</gom:speed></extensions></trkpt>
   <trkpt lat="59.3258930857" lon="34.7108835761"><ele>164.088</ele><time>2026-08-17T02:03:28.647Z</time><hdop>3.75</hdop><vdop>3.25</vdop><extensions><gom:speed>0.0</gom:speed></extensions></trkpt>
   <trkpt lat="59.3258930857" lon="34.7108836599"><ele>164.086</ele><time>2026-08-17T02:03:29.648Z</time><hdop>3.75</hdop><vdop>3.312</vdop><extensions><gom:speed>0.0</gom:speed></extensions></trkpt>
   <trkpt lat="59.3258930857" lon="34.7108836599"><ele>164.085</ele><time>2026-08-17T02:03:30.648Z</time><hdop>3.75</hdop><vdop>3.25</vdop><extensions><gom:speed>0.0</gom:speed></extensions></trkpt>
   <trkpt lat="59.3258930857" lon="34.7108836599"><ele>164.085</ele><time>2026-08-17T02:03:31.648Z</time><hdop>3.75</hdop><vdop>3.187</vdop><extensions><gom:speed>0.0</gom:speed></extensions></trkpt>
   <trkpt lat="59.3258930857" lon="34.7108836599"><ele>164.086</ele><time>2026-08-17T02:03:32.648Z</time><hdop>3.75</hdop><vdop>3.187</vdop><extensions><gom:speed>0.0</gom:speed></extensions></trkpt>
   <trkpt lat="59.3258930857" lon="34.7108836599"><ele>164.088</ele><time>2026-08-17T02:03:33.649Z</time><hdop>3.75</hdop><vdop>3.437</vdop><extensions><gom:speed>0.0</gom:speed></extensions></trkpt>
   <trkpt lat="59.3258930857" lon="34.7108836599"><ele>164.092</ele><time>2026-08-17T02:03:34.648Z</time><hdop>3.75</hdop><vdop>3.562</vdop><extensions><gom:speed>0.0</gom:speed></extensions></trkpt>
   <trkpt lat="59.3258930857" lon="34.7108835761"><ele>164.096</ele><time>2026-08-17T02:03:35.648Z</time><hdop>3.75</hdop><vdop>3.5</vdop><extensions><gom:speed>0.0</gom:speed></extensions></trkpt>
   <trkpt lat="59.3258930857" lon="34.7108835761"><ele>164.101</ele><time>2026-08-17T02:03:36.648Z</time><hdop>3.75</hdop><vdop>3.5</vdop><extensions><gom:speed>0.0</gom:speed></extensions></trkpt>
   <trkpt lat="59.3258930857" lon="34.7108835761"><ele>164.106</ele><time>2026-08-17T02:03:37.648Z</time><hdop>3.75</hdop><vdop>3.437</vdop><extensions><gom:speed>0.0</gom:speed></extensions></trkpt>
   <trkpt lat="59.3258930857" lon="34.7108834923"><ele>164.11</ele><time>2026-08-17T02:03:38.648Z</time><hdop>3.75</hdop><vdop>3.375</vdop><extensions><gom:speed>0.0</gom:speed></extensions></trkpt>
   <trkpt lat="59.3258930857" lon="34.7108834923"><ele>164.115</ele><time>2026-08-17T02:03:39.647Z</time><hdop>3.75</hdop><vdop>3.375</vdop><extensions><gom:speed>0.0</gom:speed></extensions></trkpt>
   <trkpt lat="59.3258930857" lon="34.7108833246"><ele>164.12</ele><time>2026-08-17T02:03:40.648Z</time><hdop>3.75</hdop><vdop>3.562</vdop><extensions><gom:speed>0.0</gom:speed></extensions></trkpt>
   <trkpt lat="59.3258930857" lon="34.7108833246"><ele>164.126</ele><time>2026-08-17T02:03:41.648Z</time><hdop>3.75</hdop><vdop>3.437</vdop><extensions><gom:speed>0.0</gom:speed></extensions></trkpt>
   <trkpt lat="59.3258930857" lon="34.7108832408"><ele>164.13</ele><time>2026-08-17T02:03:42.647Z</time><hdop>3.75</hdop><vdop>3.25</vdop><extensions><gom:speed>0.0</gom:speed></extensions></trkpt>
   <trkpt lat="59.3258930857" lon="34.7108832408"><ele>164.133</ele><time>2026-08-17T02:03:43.648Z</time><hdop>3.75</hdop><vdop>3.312</vdop><extensions><gom:speed>0.0</gom:speed></extensions></trkpt>
   <trkpt lat="59.3258930857" lon="34.7108832408"><ele>164.135</ele><time>2026-08-17T02:03:44.647Z</time><hdop>3.75</hdop><vdop>3.562</vdop><extensions><gom:speed>0.0</gom:speed></extensions></trkpt>
   <trkpt lat="59.3258930857" lon="34.710883157"><ele>164.137</ele><time>2026-08-17T02:03:45.648Z</time><hdop>3.75</hdop><vdop>3.562</vdop><extensions><gom:speed>0.0</gom:speed></extensions></trkpt>
   <trkpt lat="59.3258930857" lon="34.710883157"><ele>164.138</ele><time>2026-08-17T02:03:46.648Z</time><hdop>3.75</hdop><vdop>3.375</vdop><extensions><gom:speed>0.0</gom:speed></extensions></trkpt>
   <trkpt lat="59.3258930857" lon="34.710883157"><ele>164.14</ele><time>2026-08-17T02:03:47.648Z</time><hdop>3.75</hdop><vdop>2.875</vdop><extensions><gom:speed>0.0</gom:speed></extensions></trkpt>
   <trkpt lat="59.3258931695" lon="34.7108830732"><ele>164.149</ele><time>2026-08-17T02:03:48.648Z</time><hdop>3.75</hdop><vdop>2.625</vdop><extensions><gom:speed>0.0</gom:speed></extensions></trkpt>
   <trkpt lat="59.3258930857" lon="34.7108830732"><ele>164.16</ele><time>2026-08-17T02:03:49.648Z</time><hdop>3.75</hdop><vdop>2.5</vdop><extensions><gom:speed>0.0</gom:speed></extensions></trkpt>
   <trkpt lat="59.3258930857" lon="34.7108829893"><ele>164.174</ele><time>2026-08-17T02:03:50.648Z</time><hdop>3.75</hdop><vdop>2.5</vdop><extensions><gom:speed>0.0</gom:speed></extensions></trkpt>
   <trkpt lat="59.3258930857" lon="34.7108828217"><ele>164.189</ele><time>2026-08-17T02:03:51.648Z</time><hdop>3.75</hdop><vdop>2.5</vdop><extensions><gom:speed>0.0</gom:speed></extensions></trkpt>
   <trkpt lat="59.3258930857" lon="34.7108827379"><ele>164.202</ele><time>2026-08-17T02:03:52.648Z</time><hdop>3.75</hdop><vdop>2.5</vdop><extensions><gom:speed>0.0</gom:speed></extensions></trkpt>
   <trkpt lat="59.32589296" lon="34.7108827379"><ele>164.217</ele><time>2026-08-17T02:03:53.648Z</time><hdop>3.75</hdop><vdop>2.5</vdop><extensions><gom:speed>0.0</gom:speed></extensions></trkpt>
   <trkpt lat="59.3258928762" lon="34.7108825702"><ele>164.233</ele><time>2026-08-17T02:03:54.648Z</time><hdop>3.75</hdop><vdop>2.5</vdop><extensions><gom:speed>0.0</gom:speed></extensions></trkpt>
   <trkpt lat="59.3258928762" lon="34.7108824864"><ele>164.247</ele><time>2026-08-17T02:03:55.649Z</time><hdop>3.75</hdop><vdop>2.5</vdop><extensions><gom:speed>0.0</gom:speed></extensions></trkpt>
   <trkpt lat="59.3258928762" lon="34.7108823188"><ele>164.262</ele><time>2026-08-17T02:03:56.647Z</time><hdop>3.75</hdop><vdop>2.5</vdop><extensions><gom:speed>0.0</gom:speed></extensions></trkpt>
   <trkpt lat="59.3258927923" lon="34.7108823188"><ele>164.276</ele><time>2026-08-17T02:03:57.648Z</time><hdop>3.75</hdop><vdop>2.5</vdop><extensions><gom:speed>0.0</gom:speed></extensions></trkpt>
   <trkpt lat="59.3258927923" lon="34.710882235"><ele>164.291</ele><time>2026-08-17T02:03:58.647Z</time><hdop>3.75</hdop><vdop>2.5</vdop><extensions><gom:speed>0.0</gom:speed></extensions></trkpt>
   <trkpt lat="59.3258926666" lon="34.7108820673"><ele>164.307</ele><time>2026-08-17T02:03:59.648Z</time><hdop>3.75</hdop><vdop>2.5</vdop><extensions><gom:speed>0.0</gom:speed></extensions></trkpt>
   <trkpt lat="59.3258926666" lon="34.7108819835"><ele>164.32</ele><time>2026-08-17T02:04:00.648Z</time><hdop>3.75</hdop><vdop>2.5</vdop><extensions><gom:speed>0.0</gom:speed></extensions></trkpt>
   <trkpt lat="59.3258925828" lon="34.7108817321"><ele>164.331</ele><time>2026-08-17T02:04:01.648Z</time><hdop>3.75</hdop><vdop>2.5</vdop><extensions><gom:speed>0.0</gom:speed></extensions></trkpt>
   <trkpt lat="59.3258923732" lon="34.7108810615"><ele>164.361</ele><time>2026-08-17T02:04:02.649Z</time><hdop>3.75</hdop><vdop>2.5</vdop><extensions><gom:speed>0.179</gom:speed></extensions></trkpt>
   <trkpt lat="59.3258922894" lon="34.7108804748"><ele>164.076</ele><time>2026-08-17T02:04:03.649Z</time><hdop>3.75</hdop><vdop>2.5</vdop><extensions><gom:speed>0.309</gom:speed></extensions></trkpt>
   <trkpt lat="59.3258893977" lon="34.7108778764"><ele>163.904</ele><time>2026-08-17T02:04:04.648Z</time><hdop>3.75</hdop><vdop>2.5</vdop><extensions><gom:speed>0.0</gom:speed></extensions></trkpt>
   <trkpt lat="59.3258885595" lon="34.710877122"><ele>163.8</ele><time>2026-08-17T02:04:05.648Z</time><hdop>3.75</hdop><vdop>2.5</vdop><extensions><gom:speed>0.0</gom:speed></extensions></trkpt>
   <trkpt lat="59.3258882661" lon="34.7108769544"><ele>163.736</ele><time>2026-08-17T02:04:06.648Z</time><hdop>3.75</hdop><vdop>2.5</vdop><extensions><gom:speed>0.0</gom:speed></extensions></trkpt>
   <trkpt lat="59.3258881823" lon="34.7108769544"><ele>163.698</ele><time>2026-08-17T02:04:07.648Z</time><hdop>3.75</hdop><vdop>2.5</vdop><extensions><gom:speed>0.0</gom:speed></extensions></trkpt>
   <trkpt lat="59.3258880985" lon="34.7108767867"><ele>163.675</ele><time>2026-08-17T02:04:08.647Z</time><hdop>3.75</hdop><vdop>2.5</vdop><extensions><gom:speed>0.0</gom:speed></extensions></trkpt>
   <trkpt lat="59.3258879727" lon="34.7108765353"><ele>163.665</ele><time>2026-08-17T02:04:09.648Z</time><hdop>3.75</hdop><vdop>2.5</vdop><extensions><gom:speed>0.0</gom:speed></extensions></trkpt>
   <trkpt lat="59.3258878889" lon="34.7108763676"><ele>163.663</ele><time>2026-08-17T02:04:10.648Z</time><hdop>3.75</hdop><vdop>2.5</vdop><extensions><gom:speed>0.0</gom:speed></extensions></trkpt>
   <trkpt lat="59.3258878889" lon="34.7108761162"><ele>163.663</ele><time>2026-08-17T02:04:11.648Z</time><hdop>3.75</hdop><vdop>2.5</vdop><extensions><gom:speed>0.0</gom:speed></extensions></trkpt>
   <trkpt lat="59.3258877632" lon="34.7108759485"><ele>163.667</ele><time>2026-08-17T02:04:12.648Z</time><hdop>3.75</hdop><vdop>2.5</vdop><extensions><gom:speed>0.0</gom:speed></extensions></trkpt>
   <trkpt lat="59.3258876794" lon="34.7108756971"><ele>163.677</ele><time>2026-08-17T02:04:13.647Z</time><hdop>3.75</hdop><vdop>2.5</vdop><extensions><gom:speed>0.0</gom:speed></extensions></trkpt>
   <trkpt lat="59.3258875956" lon="34.7108754456"><ele>163.687</ele><time>2026-08-17T02:04:14.648Z</time><hdop>3.75</hdop><vdop>2.5</vdop><extensions><gom:speed>0.0</gom:speed></extensions></trkpt>
   <trkpt lat="59.3258875956" lon="34.710875278"><ele>163.696</ele><time>2026-08-17T02:04:15.647Z</time><hdop>3.75</hdop><vdop>2.5</vdop><extensions><gom:speed>0.0</gom:speed></extensions></trkpt>
   <trkpt lat="59.3258874698" lon="34.7108750265"><ele>163.704</ele><time>2026-08-17T02:04:16.648Z</time><hdop>3.75</hdop><vdop>2.5</vdop><extensions><gom:speed>0.0</gom:speed></extensions></trkpt>
   <trkpt lat="59.3258872603" lon="34.7108748589"><ele>163.712</ele><time>2026-08-17T02:04:17.647Z</time><hdop>3.75</hdop><vdop>2.5</vdop><extensions><gom:speed>0.0</gom:speed></extensions></trkpt>
   <trkpt lat="59.3258872603" lon="34.7108747751"><ele>163.718</ele><time>2026-08-17T02:04:18.648Z</time><hdop>3.75</hdop><vdop>2.5</vdop><extensions><gom:speed>0.0</gom:speed></extensions></trkpt>
   <trkpt lat="59.3258872603" lon="34.7108746913"><ele>163.723</ele><time>2026-08-17T02:04:19.647Z</time><hdop>3.75</hdop><vdop>2.5</vdop><extensions><gom:speed>0.0</gom:speed></extensions></trkpt>
   <trkpt lat="59.3258872603" lon="34.7108744398"><ele>163.726</ele><time>2026-08-17T02:04:20.649Z</time><hdop>3.75</hdop><vdop>2.5</vdop><extensions><gom:speed>0.0</gom:speed></extensions></trkpt>
   <trkpt lat="59.3258872603" lon="34.710874356"><ele>163.73</ele><time>2026-08-17T02:04:21.648Z</time><hdop>3.75</hdop><vdop>2.5</vdop><extensions><gom:speed>0.0</gom:speed></extensions></trkpt>
   <trkpt lat="59.3258871765" lon="34.7108742722"><ele>163.733</ele><time>2026-08-17T02:04:22.648Z</time><hdop>3.75</hdop><vdop>2.5</vdop><extensions><gom:speed>0.0</gom:speed></extensions></trkpt>
   <trkpt lat="59.3258870926" lon="34.7108741883"><ele>163.739</ele><time>2026-08-17T02:04:23.648Z</time><hdop>3.75</hdop><vdop>2.5</vdop><extensions><gom:speed>0.0</gom:speed></extensions></trkpt>
   <trkpt lat="59.3258870926" lon="34.7108739369"><ele>163.744</ele><time>2026-08-17T02:04:24.647Z</time><hdop>3.75</hdop><vdop>2.5</vdop><extensions><gom:speed>0.0</gom:speed></extensions></trkpt>
   <trkpt lat="59.3258869669" lon="34.7108738531"><ele>163.751</ele><time>2026-08-17T02:04:25.648Z</time><hdop>3.75</hdop><vdop>2.5</vdop><extensions><gom:speed>0.0</gom:speed></extensions></trkpt>
   <trkpt lat="59.3258869669" lon="34.7108736854"><ele>163.759</ele><time>2026-08-17T02:04:26.648Z</time><hdop>3.75</hdop><vdop>2.5</vdop><extensions><gom:speed>0.0</gom:speed></extensions></trkpt>
   <trkpt lat="59.3258869669" lon="34.7108735178"><ele>163.764</ele><time>2026-08-17T02:04:27.648Z</time><hdop>3.75</hdop><vdop>2.5</vdop><extensions><gom:speed>0.0</gom:speed></extensions></trkpt>
   <trkpt lat="59.3258868831" lon="34.710873434"><ele>163.766</ele><time>2026-08-17T02:04:28.647Z</time><hdop>3.75</hdop><vdop>2.5</vdop><extensions><gom:speed>0.0</gom:speed></extensions></trkpt>
   <trkpt lat="59.3258868831" lon="34.710873434"><ele>163.767</ele><time>2026-08-17T02:04:29.648Z</time><hdop>3.75</hdop><vdop>2.5</vdop><extensions><gom:speed>0.0</gom:speed></extensions></trkpt>
   <trkpt lat="59.3258868831" lon="34.7108733502"><ele>163.767</ele><time>2026-08-17T02:04:30.647Z</time><hdop>3.75</hdop><vdop>2.5</vdop><extensions><gom:speed>0.0</gom:speed></extensions></trkpt>
   <trkpt lat="59.3258869669" lon="34.7108732663"><ele>163.766</ele><time>2026-08-17T02:04:31.648Z</time><hdop>3.75</hdop><vdop>2.5</vdop><extensions><gom:speed>0.0</gom:speed></extensions></trkpt>
   <trkpt lat="59.3258869669" lon="34.7108731825"><ele>163.765</ele><time>2026-08-17T02:04:32.648Z</time><hdop>3.75</hdop><vdop>2.5</vdop><extensions><gom:speed>0.0</gom:speed></extensions></trkpt>
   <trkpt lat="59.3258869669" lon="34.7108730987"><ele>163.766</ele><time>2026-08-17T02:04:33.648Z</time><hdop>3.75</hdop><vdop>2.5</vdop><extensions><gom:speed>0.0</gom:speed></extensions></trkpt>
   <trkpt lat="59.3258869669" lon="34.7108729311"><ele>163.767</ele><time>2026-08-17T02:04:34.648Z</time><hdop>3.75</hdop><vdop>2.5</vdop><extensions><gom:speed>0.0</gom:speed></extensions></trkpt>
   <trkpt lat="59.3258869669" lon="34.7108729311"><ele>163.766</ele><time>2026-08-17T02:04:35.648Z</time><hdop>3.75</hdop><vdop>2.5</vdop><extensions><gom:speed>0.0</gom:speed></extensions></trkpt>
   <trkpt lat="59.3258878889" lon="34.7108676505"><ele>163.694</ele><time>2026-08-17T02:04:36.648Z</time><hdop>3.75</hdop><vdop>2.5</vdop><extensions><gom:speed>0.359</gom:speed></extensions></trkpt>
   <trkpt lat="59.3258876794" lon="34.7108625375"><ele>163.594</ele><time>2026-08-17T02:04:37.647Z</time><hdop>3.75</hdop><vdop>2.812</vdop><extensions><gom:speed>0.319</gom:speed></extensions></trkpt>
   <trkpt lat="59.3258874698" lon="34.7108574245"><ele>163.504</ele><time>2026-08-17T02:04:38.648Z</time><hdop>3.812</hdop><vdop>3.187</vdop><extensions><gom:speed>0.209</gom:speed></extensions></trkpt>
   <trkpt lat="59.3258883918" lon="34.7108493779"><ele>163.37</ele><time>2026-08-17T02:04:39.648Z</time><hdop>4.0</hdop><vdop>3.625</vdop><extensions><gom:speed>0.399</gom:speed></extensions></trkpt>
   <trkpt lat="59.3258940915" lon="34.7107992541"><ele>163.62</ele><time>2026-08-17T02:04:40.647Z</time><hdop>4.0</hdop><vdop>3.375</vdop><extensions><gom:speed>0.799</gom:speed></extensions></trkpt>
   <trkpt lat="59.3259002941" lon="34.7107800596"><ele>163.906</ele><time>2026-08-17T02:04:41.648Z</time><hdop>4.0</hdop><vdop>3.625</vdop><extensions><gom:speed>0.579</gom:speed></extensions></trkpt>
   <trkpt lat="59.3259067901" lon="34.7107663971"><ele>163.597</ele><time>2026-08-17T02:04:42.648Z</time><hdop>4.0</hdop><vdop>3.375</vdop><extensions><gom:speed>0.489</gom:speed></extensions></trkpt>
   <trkpt lat="59.3259126994" lon="34.7107521478"><ele>163.395</ele><time>2026-08-17T02:04:43.648Z</time><hdop>4.0</hdop><vdop>3.375</vdop><extensions><gom:speed>0.489</gom:speed></extensions></trkpt>
   <trkpt lat="59.3259156749" lon="34.7107391559"><ele>163.269</ele><time>2026-08-17T02:04:44.648Z</time><hdop>3.937</hdop><vdop>3.312</vdop><extensions><gom:speed>0.0</gom:speed></extensions></trkpt>
   <trkpt lat="59.3259199916" lon="34.710724739"><ele>163.142</ele><time>2026-08-17T02:04:45.648Z</time><hdop>3.75</hdop><vdop>3.437</vdop><extensions><gom:speed>0.899</gom:speed></extensions></trkpt>
   <trkpt lat="59.3259205784" lon="34.710721973"><ele>163.059</ele><time>2026-08-17T02:04:46.648Z</time><hdop>3.75</hdop><vdop>3.187</vdop><extensions><gom:speed>0.0</gom:speed></extensions></trkpt>
   <trkpt lat="59.3259241826" lon="34.7107137587"><ele>163.06</ele><time>2026-08-17T02:04:47.648Z</time><hdop>3.75</hdop><vdop>3.187</vdop><extensions><gom:speed>0.829</gom:speed></extensions></trkpt>
   <trkpt lat="59.3259339894" lon="34.7107110765"><ele>163.545</ele><time>2026-08-17T02:04:48.648Z</time><hdop>3.75</hdop><vdop>3.0</vdop><extensions><gom:speed>0.669</gom:speed></extensions></trkpt>
   <trkpt lat="59.325944383" lon="34.7107164409"><ele>164.487</ele><time>2026-08-17T02:04:49.648Z</time><hdop>3.75</hdop><vdop>3.25</vdop><extensions><gom:speed>0.669</gom:speed></extensions></trkpt>
   <trkpt lat="59.3259502922" lon="34.7107370604"><ele>164.555</ele><time>2026-08-17T02:04:50.647Z</time><hdop>3.75</hdop><vdop>3.187</vdop><extensions><gom:speed>0.389</gom:speed></extensions></trkpt>
   <trkpt lat="59.3259516752" lon="34.7107382339"><ele>164.64</ele><time>2026-08-17T02:04:51.647Z</time><hdop>3.75</hdop><vdop>3.125</vdop><extensions><gom:speed>0.0</gom:speed></extensions></trkpt>
   <trkpt lat="59.325955489" lon="34.7107281756"><ele>165.084</ele><time>2026-08-17T02:04:52.648Z</time><hdop>3.75</hdop><vdop>3.062</vdop><extensions><gom:speed>0.509</gom:speed></extensions></trkpt>
   <trkpt lat="59.3259578778" lon="34.7107114956"><ele>165.408</ele><time>2026-08-17T02:04:53.648Z</time><hdop>3.75</hdop><vdop>3.062</vdop><extensions><gom:speed>0.789</gom:speed></extensions></trkpt>
   <trkpt lat="59.3259571654" lon="34.7107040357"><ele>165.58</ele><time>2026-08-17T02:04:54.648Z</time><hdop>3.75</hdop><vdop>3.0</vdop><extensions><gom:speed>0.0</gom:speed></extensions></trkpt>
   <trkpt lat="59.325956872" lon="34.7106881939"><ele>165.674</ele><time>2026-08-17T02:04:55.648Z</time><hdop>3.75</hdop><vdop>2.875</vdop><extensions><gom:speed>0.669</gom:speed></extensions></trkpt>
   <trkpt lat="59.3259567882" lon="34.7106758725"><ele>166.205</ele><time>2026-08-17T02:04:56.647Z</time><hdop>3.75</hdop><vdop>3.062</vdop><extensions><gom:speed>0.539</gom:speed></extensions></trkpt>
   <trkpt lat="59.3259615659" lon="34.7106652275"><ele>166.719</ele><time>2026-08-17T02:04:57.648Z</time><hdop>3.75</hdop><vdop>3.25</vdop><extensions><gom:speed>0.869</gom:speed></extensions></trkpt>
   <trkpt lat="59.3259669722" lon="34.7106530737"><ele>167.071</ele><time>2026-08-17T02:04:58.648Z</time><hdop>3.75</hdop><vdop>3.5</vdop><extensions><gom:speed>0.829</gom:speed></extensions></trkpt>
   <trkpt lat="59.325967978" lon="34.7106510621"><ele>167.385</ele><time>2026-08-17T02:04:59.648Z</time><hdop>3.75</hdop><vdop>3.437</vdop><extensions><gom:speed>0.279</gom:speed></extensions></trkpt>
   <trkpt lat="59.3259688581" lon="34.7106388245"><ele>167.905</ele><time>2026-08-17T02:05:00.648Z</time><hdop>3.75</hdop><vdop>3.5</vdop><extensions><gom:speed>0.899</gom:speed></extensions></trkpt>
   <trkpt lat="59.325967978" lon="34.7106289339"><ele>168.34</ele><time>2026-08-17T02:05:01.648Z</time><hdop>3.812</hdop><vdop>3.5</vdop><extensions><gom:speed>0.579</gom:speed></extensions></trkpt>
   <trkpt lat="59.3259653796" lon="34.7106337954"><ele>168.469</ele><time>2026-08-17T02:05:02.648Z</time><hdop>3.812</hdop><vdop>3.437</vdop><extensions><gom:speed>0.0</gom:speed></extensions></trkpt>
   <trkpt lat="59.3259639966" lon="34.7106176183"><ele>168.932</ele><time>2026-08-17T02:05:03.648Z</time><hdop>3.75</hdop><vdop>3.25</vdop><extensions><gom:speed>0.429</gom:speed></extensions></trkpt>
   <trkpt lat="59.3259593866" lon="34.7106081467"><ele>169.226</ele><time>2026-08-17T02:05:04.648Z</time><hdop>3.75</hdop><vdop>3.125</vdop><extensions><gom:speed>0.229</gom:speed></extensions></trkpt>
   <trkpt lat="59.3259578778" lon="34.7105994296"><ele>169.484</ele><time>2026-08-17T02:05:05.648Z</time><hdop>3.75</hdop><vdop>3.375</vdop><extensions><gom:speed>0.229</gom:speed></extensions></trkpt>
   <trkpt lat="59.3259631584" lon="34.7105883654"><ele>169.908</ele><time>2026-08-17T02:05:06.648Z</time><hdop>3.75</hdop><vdop>3.25</vdop><extensions><gom:speed>0.219</gom:speed></extensions></trkpt>
   <trkpt lat="59.325972169" lon="34.7105795644"><ele>170.767</ele><time>2026-08-17T02:05:07.648Z</time><hdop>3.75</hdop><vdop>2.875</vdop><extensions><gom:speed>0.309</gom:speed></extensions></trkpt>
   <trkpt lat="59.325978162" lon="34.7105763793"><ele>171.221</ele><time>2026-08-17T02:05:08.648Z</time><hdop>3.75</hdop><vdop>2.75</vdop><extensions><gom:speed>0.0</gom:speed></extensions></trkpt>
   <trkpt lat="59.3259840713" lon="34.7105710987"><ele>171.758</ele><time>2026-08-17T02:05:09.648Z</time><hdop>3.75</hdop><vdop>2.687</vdop><extensions><gom:speed>0.259</gom:speed></extensions></trkpt>
   <trkpt lat="59.3259896871" lon="34.7105666563"><ele>172.342</ele><time>2026-08-17T02:05:10.648Z</time><hdop>3.75</hdop><vdop>2.937</vdop><extensions><gom:speed>0.289</gom:speed></extensions></trkpt>
   <trkpt lat="59.3259972728" lon="34.7105675783"><ele>172.68</ele><time>2026-08-17T02:05:11.648Z</time><hdop>3.75</hdop><vdop>2.687</vdop><extensions><gom:speed>0.0</gom:speed></extensions></trkpt>
   <trkpt lat="59.3259991587" lon="34.7105680812"><ele>172.88</ele><time>2026-08-17T02:05:12.647Z</time><hdop>3.75</hdop><vdop>2.75</vdop><extensions><gom:speed>0.0</gom:speed></extensions></trkpt>
   <trkpt lat="59.3259996616" lon="34.7105681651"><ele>173.0</ele><time>2026-08-17T02:05:13.648Z</time><hdop>3.75</hdop><vdop>2.687</vdop><extensions><gom:speed>0.0</gom:speed></extensions></trkpt>
   <trkpt lat="59.3259997873" lon="34.7105682489"><ele>173.07</ele><time>2026-08-17T02:05:14.648Z</time><hdop>3.75</hdop><vdop>2.687</vdop><extensions><gom:speed>0.0</gom:speed></extensions></trkpt>
   <trkpt lat="59.3259997873" lon="34.7105682489"><ele>173.111</ele><time>2026-08-17T02:05:15.648Z</time><hdop>3.75</hdop><vdop>2.625</vdop><extensions><gom:speed>0.0</gom:speed></extensions></trkpt>
   <trkpt lat="59.3259956802" lon="34.7105666563"><ele>172.711</ele><time>2026-08-17T02:05:16.648Z</time><hdop>3.75</hdop><vdop>2.5</vdop><extensions><gom:speed>0.0</gom:speed></extensions></trkpt>
   <trkpt lat="59.3259922855" lon="34.7105658181"><ele>172.473</ele><time>2026-08-17T02:05:17.648Z</time><hdop>3.75</hdop><vdop>2.5</vdop><extensions><gom:speed>0.0</gom:speed></extensions></trkpt>
   <trkpt lat="59.3259913635" lon="34.7105656505"><ele>172.327</ele><time>2026-08-17T02:05:18.648Z</time><hdop>3.75</hdop><vdop>2.5</vdop><extensions><gom:speed>0.0</gom:speed></extensions></trkpt>
   <trkpt lat="59.3259910702" lon="34.7105655667"><ele>172.239</ele><time>2026-08-17T02:05:19.648Z</time><hdop>3.75</hdop><vdop>2.5</vdop><extensions><gom:speed>0.0</gom:speed></extensions></trkpt>
   <trkpt lat="59.3259907768" lon="34.710564477"><ele>172.201</ele><time>2026-08-17T02:05:20.648Z</time><hdop>3.75</hdop><vdop>2.5</vdop><extensions><gom:speed>0.0</gom:speed></extensions></trkpt>
   <trkpt lat="59.3259917826" lon="34.7105570171"><ele>171.972</ele><time>2026-08-17T02:05:21.648Z</time><hdop>3.75</hdop><vdop>2.5</vdop><extensions><gom:speed>0.289</gom:speed></extensions></trkpt>
   <trkpt lat="59.3259916988" lon="34.7105453663"><ele>172.006</ele><time>2026-08-17T02:05:22.648Z</time><hdop>3.75</hdop><vdop>2.5</vdop><extensions><gom:speed>0.219</gom:speed></extensions></trkpt>
   <trkpt lat="59.3259886813" lon="34.7105338831"><ele>172.052</ele><time>2026-08-17T02:05:23.648Z</time><hdop>3.75</hdop><vdop>2.5</vdop><extensions><gom:speed>0.0</gom:speed></extensions></trkpt>
   <trkpt lat="59.3259848675" lon="34.7105257526"><ele>171.837</ele><time>2026-08-17T02:05:24.648Z</time><hdop>3.75</hdop><vdop>2.5</vdop><extensions><gom:speed>0.379</gom:speed></extensions></trkpt>
   <trkpt lat="59.3259812633" lon="34.7105063904"><ele>171.67</ele><time>2026-08-17T02:05:25.648Z</time><hdop>3.75</hdop><vdop>2.562</vdop><extensions><gom:speed>0.269</gom:speed></extensions></trkpt>
   <trkpt lat="59.3259780782" lon="34.7104828373"><ele>171.584</ele><time>2026-08-17T02:05:26.648Z</time><hdop>3.75</hdop><vdop>2.625</vdop><extensions><gom:speed>0.849</gom:speed></extensions></trkpt>
   <trkpt lat="59.3259757732" lon="34.7104611282"><ele>171.481</ele><time>2026-08-17T02:05:27.647Z</time><hdop>3.812</hdop><vdop>2.812</vdop><extensions><gom:speed>0.799</gom:speed></extensions></trkpt>
   <trkpt lat="59.3259738873" lon="34.7104555961"><ele>171.314</ele><time>2026-08-17T02:05:28.648Z</time><hdop>3.812</hdop><vdop>2.687</vdop><extensions><gom:speed>0.0</gom:speed></extensions></trkpt>
   <trkpt lat="59.3259732586" lon="34.7104541712"><ele>171.228</ele><time>2026-08-17T02:05:29.647Z</time><hdop>3.812</hdop><vdop>2.5</vdop><extensions><gom:speed>0.0</gom:speed></extensions></trkpt>
   <trkpt lat="59.3259731748" lon="34.7104495611"><ele>171.367</ele><time>2026-08-17T02:05:30.648Z</time><hdop>3.812</hdop><vdop>2.5</vdop><extensions><gom:speed>0.0</gom:speed></extensions></trkpt>
   <trkpt lat="59.3259745997" lon="34.7104450349"><ele>171.518</ele><time>2026-08-17T02:05:31.648Z</time><hdop>3.812</hdop><vdop>2.5</vdop><extensions><gom:speed>0.179</gom:speed></extensions></trkpt>
   <trkpt lat="59.3259797965" lon="34.7104418498"><ele>171.618</ele><time>2026-08-17T02:05:32.648Z</time><hdop>3.75</hdop><vdop>2.75</vdop><extensions><gom:speed>0.229</gom:speed></extensions></trkpt>
   <trkpt lat="59.3259857896" lon="34.7104376588"><ele>171.761</ele><time>2026-08-17T02:05:33.647Z</time><hdop>3.75</hdop><vdop>2.812</vdop><extensions><gom:speed>0.399</gom:speed></extensions></trkpt>
   <trkpt lat="59.325990693" lon="34.7104323782"><ele>172.474</ele><time>2026-08-17T02:05:34.649Z</time><hdop>3.75</hdop><vdop>2.812</vdop><extensions><gom:speed>0.529</gom:speed></extensions></trkpt>
   <trkpt lat="59.3259940876" lon="34.7104273491"><ele>172.775</ele><time>2026-08-17T02:05:35.647Z</time><hdop>3.75</hdop><vdop>2.812</vdop><extensions><gom:speed>0.319</gom:speed></extensions></trkpt>
   <trkpt lat="59.3259947582" lon="34.7104168717"><ele>172.989</ele><time>2026-08-17T02:05:36.648Z</time><hdop>3.75</hdop><vdop>2.937</vdop><extensions><gom:speed>0.389</gom:speed></extensions></trkpt>
   <trkpt lat="59.3259948839" lon="34.7104134351"><ele>173.096</ele><time>2026-08-17T02:05:37.647Z</time><hdop>3.75</hdop><vdop>2.75</vdop><extensions><gom:speed>0.0</gom:speed></extensions></trkpt>
   <trkpt lat="59.3259946744" lon="34.7104129322"><ele>173.16</ele><time>2026-08-17T02:05:38.648Z</time><hdop>3.75</hdop><vdop>2.687</vdop><extensions><gom:speed>0.0</gom:speed></extensions></trkpt>
   <trkpt lat="59.3259945906" lon="34.7104128484"><ele>173.196</ele><time>2026-08-17T02:05:39.648Z</time><hdop>3.75</hdop><vdop>2.625</vdop><extensions><gom:speed>0.0</gom:speed></extensions></trkpt>
   <trkpt lat="59.3259946744" lon="34.7104126808"><ele>173.223</ele><time>2026-08-17T02:05:40.648Z</time><hdop>3.75</hdop><vdop>2.562</vdop><extensions><gom:speed>0.0</gom:speed></extensions></trkpt>
   <trkpt lat="59.3259946744" lon="34.7104125969"><ele>173.237</ele><time>2026-08-17T02:05:41.649Z</time><hdop>3.75</hdop><vdop>2.5</vdop><extensions><gom:speed>0.0</gom:speed></extensions></trkpt>
   <trkpt lat="59.3259946744" lon="34.7104125969"><ele>173.244</ele><time>2026-08-17T02:05:42.648Z</time><hdop>3.75</hdop><vdop>2.5</vdop><extensions><gom:speed>0.0</gom:speed></extensions></trkpt>
   <trkpt lat="59.3259946744" lon="34.7104125969"><ele>173.246</ele><time>2026-08-17T02:05:43.648Z</time><hdop>3.75</hdop><vdop>2.5</vdop><extensions><gom:speed>0.0</gom:speed></extensions></trkpt>
   <trkpt lat="59.3259945906" lon="34.7104123455"><ele>173.25</ele><time>2026-08-17T02:05:44.648Z</time><hdop>3.75</hdop><vdop>2.5</vdop><extensions><gom:speed>0.0</gom:speed></extensions></trkpt>
   <trkpt lat="59.3259944648" lon="34.7104122617"><ele>173.251</ele><time>2026-08-17T02:05:45.648Z</time><hdop>3.75</hdop><vdop>2.5</vdop><extensions><gom:speed>0.0</gom:speed></extensions></trkpt>
   <trkpt lat="59.325994381" lon="34.7104121778"><ele>173.249</ele><time>2026-08-17T02:05:46.647Z</time><hdop>3.75</hdop><vdop>2.5</vdop><extensions><gom:speed>0.0</gom:speed></extensions></trkpt>
   <trkpt lat="59.325994381" lon="34.7104121778"><ele>173.247</ele><time>2026-08-17T02:05:47.648Z</time><hdop>3.75</hdop><vdop>2.5</vdop><extensions><gom:speed>0.0</gom:speed></extensions></trkpt>
   <trkpt lat="59.325994381" lon="34.710412094"><ele>173.245</ele><time>2026-08-17T02:05:48.647Z</time><hdop>3.75</hdop><vdop>2.5</vdop><extensions><gom:speed>0.0</gom:speed></extensions></trkpt>
   <trkpt lat="59.325994381" lon="34.710412094"><ele>173.242</ele><time>2026-08-17T02:05:49.648Z</time><hdop>3.75</hdop><vdop>2.5</vdop><extensions><gom:speed>0.0</gom:speed></extensions></trkpt>
   <trkpt lat="59.3259942972" lon="34.7104118426"><ele>173.242</ele><time>2026-08-17T02:05:50.647Z</time><hdop>3.75</hdop><vdop>2.5</vdop><extensions><gom:speed>0.0</gom:speed></extensions></trkpt>
   <trkpt lat="59.3259941715" lon="34.7104116749"><ele>173.239</ele><time>2026-08-17T02:05:51.648Z</time><hdop>3.75</hdop><vdop>2.5</vdop><extensions><gom:speed>0.0</gom:speed></extensions></trkpt>
   <trkpt lat="59.3259941715" lon="34.7104115911"><ele>173.233</ele><time>2026-08-17T02:05:52.647Z</time><hdop>3.75</hdop><vdop>2.5</vdop><extensions><gom:speed>0.0</gom:speed></extensions></trkpt>
   <trkpt lat="59.3259940876" lon="34.7104113396"><ele>173.229</ele><time>2026-08-17T02:05:53.648Z</time><hdop>3.75</hdop><vdop>2.5</vdop><extensions><gom:speed>0.0</gom:speed></extensions></trkpt>
   <trkpt lat="59.3259939619" lon="34.7104112558"><ele>173.229</ele><time>2026-08-17T02:05:54.648Z</time><hdop>4.812</hdop><vdop>2.5</vdop><extensions><gom:speed>0.0</gom:speed></extensions></trkpt>
   <trkpt lat="59.3259936685" lon="34.710412094"><ele>173.179</ele><time>2026-08-17T02:05:55.648Z</time><hdop>6.187</hdop><vdop>2.5</vdop><extensions><gom:speed>0.229</gom:speed></extensions></trkpt>
   <trkpt lat="59.3259843646" lon="34.7104085736"><ele>172.943</ele><time>2026-08-17T02:05:56.648Z</time><hdop>6.812</hdop><vdop>2.5</vdop><extensions><gom:speed>0.0</gom:speed></extensions></trkpt>
   <trkpt lat="59.325972169" lon="34.7104089927"><ele>172.263</ele><time>2026-08-17T02:05:57.648Z</time><hdop>8.687</hdop><vdop>2.5</vdop><extensions><gom:speed>0.239</gom:speed></extensions></trkpt>
   <trkpt lat="59.3259634937" lon="34.7104067296"><ele>171.533</ele><time>2026-08-17T02:05:58.648Z</time><hdop>9.875</hdop><vdop>2.5</vdop><extensions><gom:speed>0.459</gom:speed></extensions></trkpt>
   <trkpt lat="59.3259524715" lon="34.7104022872"><ele>170.681</ele><time>2026-08-17T02:05:59.647Z</time><hdop>9.875</hdop><vdop>2.5</vdop><extensions><gom:speed>0.339</gom:speed></extensions></trkpt>
   <trkpt lat="59.3259423713" lon="34.710392648"><ele>169.999</ele><time>2026-08-17T02:06:00.648Z</time><hdop>9.875</hdop><vdop>2.5</vdop><extensions><gom:speed>0.339</gom:speed></extensions></trkpt>
   <trkpt lat="59.3259337798" lon="34.7103808295"><ele>169.753</ele><time>2026-08-17T02:06:01.648Z</time><hdop>9.875</hdop><vdop>2.5</vdop><extensions><gom:speed>0.349</gom:speed></extensions></trkpt>
   <trkpt lat="59.3259253979" lon="34.7103635628"><ele>169.474</ele><time>2026-08-17T02:06:02.648Z</time><hdop>9.875</hdop><vdop>2.5</vdop><extensions><gom:speed>0.879</gom:speed></extensions></trkpt>
   <trkpt lat="59.3259162617" lon="34.7103530854"><ele>169.286</ele><time>2026-08-17T02:06:03.649Z</time><hdop>9.875</hdop><vdop>2.5</vdop><extensions><gom:speed>0.539</gom:speed></extensions></trkpt>
   <trkpt lat="59.3259076702" lon="34.7103468828"><ele>169.349</ele><time>2026-08-17T02:06:04.647Z</time><hdop>9.875</hdop><vdop>2.5</vdop><extensions><gom:speed>0.599</gom:speed></extensions></trkpt>
   <trkpt lat="59.3259054909" lon="34.710340764"><ele>169.368</ele><time>2026-08-17T02:06:05.647Z</time><hdop>9.875</hdop><vdop>2.5</vdop><extensions><gom:speed>0.0</gom:speed></extensions></trkpt>
   <trkpt lat="59.3259041917" lon="34.7103366569"><ele>169.396</ele><time>2026-08-17T02:06:06.648Z</time><hdop>9.875</hdop><vdop>2.5</vdop><extensions><gom:speed>0.0</gom:speed></extensions></trkpt>
   <trkpt lat="59.3259031859" lon="34.7103302866"><ele>169.179</ele><time>2026-08-17T02:06:07.647Z</time><hdop>9.875</hdop><vdop>2.5</vdop><extensions><gom:speed>0.289</gom:speed></extensions></trkpt>
   <trkpt lat="59.3258931695" lon="34.7103267662"><ele>169.09</ele><time>2026-08-17T02:06:08.648Z</time><hdop>9.875</hdop><vdop>2.562</vdop><extensions><gom:speed>0.969</gom:speed></extensions></trkpt>
   <trkpt lat="59.3258903616" lon="34.7103073202"><ele>169.129</ele><time>2026-08-17T02:06:09.648Z</time><hdop>9.875</hdop><vdop>2.5</vdop><extensions><gom:speed>0.349</gom:speed></extensions></trkpt>
   <trkpt lat="59.3258919961" lon="34.7102885448"><ele>169.162</ele><time>2026-08-17T02:06:10.648Z</time><hdop>9.875</hdop><vdop>2.5</vdop><extensions><gom:speed>0.0</gom:speed></extensions></trkpt>
   <trkpt lat="59.3258922894" lon="34.7102841862"><ele>169.188</ele><time>2026-08-17T02:06:11.647Z</time><hdop>9.875</hdop><vdop>2.5</vdop><extensions><gom:speed>0.0</gom:speed></extensions></trkpt>
   <trkpt lat="59.3258921637" lon="34.7102831803"><ele>169.208</ele><time>2026-08-17T02:06:12.648Z</time><hdop>9.875</hdop><vdop>2.5</vdop><extensions><gom:speed>0.0</gom:speed></extensions></trkpt>
   <trkpt lat="59.3258919961" lon="34.7102830965"><ele>169.225</ele><time>2026-08-17T02:06:13.648Z</time><hdop>9.875</hdop><vdop>2.5</vdop><extensions><gom:speed>0.0</gom:speed></extensions></trkpt>
   <trkpt lat="59.3258917865" lon="34.7102830965"><ele>169.242</ele><time>2026-08-17T02:06:14.647Z</time><hdop>9.875</hdop><vdop>2.5</vdop><extensions><gom:speed>0.0</gom:speed></extensions></trkpt>
   <trkpt lat="59.3258854582" lon="34.7102768939"><ele>169.208</ele><time>2026-08-17T02:06:15.649Z</time><hdop>9.875</hdop><vdop>2.5</vdop><extensions><gom:speed>0.289</gom:speed></extensions></trkpt>
   <trkpt lat="59.3258824826" lon="34.710271278"><ele>169.271</ele><time>2026-08-17T02:06:16.648Z</time><hdop>9.875</hdop><vdop>2.5</vdop><extensions><gom:speed>0.249</gom:speed></extensions></trkpt>
   <trkpt lat="59.3258800938" lon="34.7102662489"><ele>169.191</ele><time>2026-08-17T02:06:17.648Z</time><hdop>9.875</hdop><vdop>2.5</vdop><extensions><gom:speed>0.199</gom:speed></extensions></trkpt>
   <trkpt lat="59.3258806805" lon="34.7102580346"><ele>169.098</ele><time>2026-08-17T02:06:18.648Z</time><hdop>9.875</hdop><vdop>2.5</vdop><extensions><gom:speed>0.269</gom:speed></extensions></trkpt>
   <trkpt lat="59.3258803871" lon="34.7102476411"><ele>169.248</ele><time>2026-08-17T02:06:19.648Z</time><hdop>9.875</hdop><vdop>2.5</vdop><extensions><gom:speed>0.199</gom:speed></extensions></trkpt>
   <trkpt lat="59.3258805967" lon="34.7102379181"><ele>169.277</ele><time>2026-08-17T02:06:20.648Z</time><hdop>9.875</hdop><vdop>2.5</vdop><extensions><gom:speed>0.319</gom:speed></extensions></trkpt>
   <trkpt lat="59.325879968" lon="34.7102339786"><ele>169.272</ele><time>2026-08-17T02:06:21.648Z</time><hdop>9.875</hdop><vdop>2.5</vdop><extensions><gom:speed>0.249</gom:speed></extensions></trkpt>
   <trkpt lat="59.3258758609" lon="34.7102434501"><ele>168.824</ele><time>2026-08-17T02:06:22.648Z</time><hdop>9.875</hdop><vdop>2.5</vdop><extensions><gom:speed>1.029</gom:speed></extensions></trkpt>
   <trkpt lat="59.3258616955" lon="34.7102524188"><ele>168.715</ele><time>2026-08-17T02:06:23.647Z</time><hdop>9.875</hdop><vdop>2.5</vdop><extensions><gom:speed>0.979</gom:speed></extensions></trkpt>
   <trkpt lat="59.3258513857" lon="34.7102574479"><ele>168.315</ele><time>2026-08-17T02:06:24.648Z</time><hdop>9.875</hdop><vdop>2.5</vdop><extensions><gom:speed>0.519</gom:speed></extensions></trkpt>
   <trkpt lat="59.3258479911" lon="34.7102566935"><ele>168.113</ele><time>2026-08-17T02:06:25.648Z</time><hdop>9.875</hdop><vdop>2.5</vdop><extensions><gom:speed>0.269</gom:speed></extensions></trkpt>
   <trkpt lat="59.3258407826" lon="34.7102556877"><ele>168.003</ele><time>2026-08-17T02:06:26.647Z</time><hdop>9.875</hdop><vdop>2.5</vdop><extensions><gom:speed>0.799</gom:speed></extensions></trkpt>
   <trkpt lat="59.3258392739" lon="34.7102530893"><ele>167.946</ele><time>2026-08-17T02:06:27.649Z</time><hdop>9.875</hdop><vdop>2.5</vdop><extensions><gom:speed>0.0</gom:speed></extensions></trkpt>
   <trkpt lat="59.3258392739" lon="34.7102521673"><ele>167.912</ele><time>2026-08-17T02:06:28.648Z</time><hdop>9.875</hdop><vdop>2.5</vdop><extensions><gom:speed>0.0</gom:speed></extensions></trkpt>
   <trkpt lat="59.3258393996" lon="34.7102517482"><ele>167.893</ele><time>2026-08-17T02:06:29.648Z</time><hdop>9.875</hdop><vdop>2.5</vdop><extensions><gom:speed>0.0</gom:speed></extensions></trkpt>
   <trkpt lat="59.3258394834" lon="34.7102516644"><ele>167.88</ele><time>2026-08-17T02:06:30.648Z</time><hdop>9.875</hdop><vdop>2.5</vdop><extensions><gom:speed>0.0</gom:speed></extensions></trkpt>
   <trkpt lat="59.3258394834" lon="34.7102515806"><ele>167.873</ele><time>2026-08-17T02:06:31.648Z</time><hdop>9.875</hdop><vdop>2.5</vdop><extensions><gom:speed>0.0</gom:speed></extensions></trkpt>
   <trkpt lat="59.3258393996" lon="34.7102514968"><ele>167.863</ele><time>2026-08-17T02:06:32.648Z</time><hdop>9.875</hdop><vdop>2.5</vdop><extensions><gom:speed>0.0</gom:speed></extensions></trkpt>
   <trkpt lat="59.3258408665" lon="34.7102476411"><ele>167.516</ele><time>2026-08-17T02:06:33.648Z</time><hdop>9.875</hdop><vdop>2.5</vdop><extensions><gom:speed>0.239</gom:speed></extensions></trkpt>
   <trkpt lat="59.3258414951" lon="34.7102452941"><ele>167.136</ele><time>2026-08-17T02:06:34.649Z</time><hdop>9.875</hdop><vdop>2.5</vdop><extensions><gom:speed>0.0</gom:speed></extensions></trkpt>
   <trkpt lat="59.3258434648" lon="34.7102429472"><ele>166.916</ele><time>2026-08-17T02:06:35.649Z</time><hdop>9.875</hdop><vdop>2.5</vdop><extensions><gom:speed>0.0</gom:speed></extensions></trkpt>
   <trkpt lat="59.3258423752" lon="34.710241187"><ele>166.895</ele><time>2026-08-17T02:06:36.648Z</time><hdop>9.875</hdop><vdop>2.5</vdop><extensions><gom:speed>0.319</gom:speed></extensions></trkpt>
   <trkpt lat="59.3258389805" lon="34.7102366608"><ele>166.765</ele><time>2026-08-17T02:06:37.648Z</time><hdop>9.875</hdop><vdop>2.5</vdop><extensions><gom:speed>0.379</gom:speed></extensions></trkpt>
   <trkpt lat="59.3258354601" lon="34.7102334757"><ele>166.641</ele><time>2026-08-17T02:06:38.648Z</time><hdop>9.875</hdop><vdop>2.5</vdop><extensions><gom:speed>0.299</gom:speed></extensions></trkpt>
   <trkpt lat="59.3258357954" lon="34.710228698"><ele>166.62</ele><time>2026-08-17T02:06:39.648Z</time><hdop>9.875</hdop><vdop>2.5</vdop><extensions><gom:speed>0.0</gom:speed></extensions></trkpt>
   <trkpt lat="59.325835963" lon="34.7102253452"><ele>166.903</ele><time>2026-08-17T02:06:40.648Z</time><hdop>9.875</hdop><vdop>2.5</vdop><extensions><gom:speed>0.0</gom:speed></extensions></trkpt>
   <trkpt lat="59.3258369689" lon="34.7102212381"><ele>167.074</ele><time>2026-08-17T02:06:41.648Z</time><hdop>9.875</hdop><vdop>2.5</vdop><extensions><gom:speed>0.0</gom:speed></extensions></trkpt>
   <trkpt lat="59.3258398606" lon="34.7102133591"><ele>167.263</ele><time>2026-08-17T02:06:42.648Z</time><hdop>9.875</hdop><vdop>2.5</vdop><extensions><gom:speed>0.319</gom:speed></extensions></trkpt>
   <trkpt lat="59.3258405731" lon="34.7102029655"><ele>167.474</ele><time>2026-08-17T02:06:43.647Z</time><hdop>9.875</hdop><vdop>2.5</vdop><extensions><gom:speed>0.259</gom:speed></extensions></trkpt>
   <trkpt lat="59.3258403635" lon="34.7101922367"><ele>167.597</ele><time>2026-08-17T02:06:44.648Z</time><hdop>9.875</hdop><vdop>2.5</vdop><extensions><gom:speed>0.309</gom:speed></extensions></trkpt>
   <trkpt lat="59.3258392739" lon="34.7101796638"><ele>167.632</ele><time>2026-08-17T02:06:45.648Z</time><hdop>9.875</hdop><vdop>2.5</vdop><extensions><gom:speed>0.279</gom:speed></extensions></trkpt>
   <trkpt lat="59.3258375975" lon="34.7101636544"><ele>167.701</ele><time>2026-08-17T02:06:46.649Z</time><hdop>9.875</hdop><vdop>2.5</vdop><extensions><gom:speed>0.319</gom:speed></extensions></trkpt>
   <trkpt lat="59.3258388967" lon="34.7101524227"><ele>167.926</ele><time>2026-08-17T02:06:47.648Z</time><hdop>9.875</hdop><vdop>2.5</vdop><extensions><gom:speed>0.0</gom:speed></extensions></trkpt>
   <trkpt lat="59.3258406988" lon="34.7101394307"><ele>168.053</ele><time>2026-08-17T02:06:48.648Z</time><hdop>9.875</hdop><vdop>2.5</vdop><extensions><gom:speed>0.0</gom:speed></extensions></trkpt>
   <trkpt lat="59.3258438839" lon="34.7101299592"><ele>167.801</ele><time>2026-08-17T02:06:49.648Z</time><hdop>9.875</hdop><vdop>2.5</vdop><extensions><gom:speed>0.209</gom:speed></extensions></trkpt>
   <trkpt lat="59.3258459794" lon="34.7101248462"><ele>167.642</ele><time>2026-08-17T02:06:50.648Z</time><hdop>8.875</hdop><vdop>2.5</vdop><extensions><gom:speed>0.0</gom:speed></extensions></trkpt>
   <trkpt lat="59.3258421656" lon="34.7101025503"><ele>167.709</ele><time>2026-08-17T02:06:51.647Z</time><hdop>7.875</hdop><vdop>2.5</vdop><extensions><gom:speed>0.989</gom:speed></extensions></trkpt>
   <trkpt lat="59.3258403635" lon="34.7100914862"><ele>167.813</ele><time>2026-08-17T02:06:52.648Z</time><hdop>6.187</hdop><vdop>2.5</vdop><extensions><gom:speed>0.379</gom:speed></extensions></trkpt>
   <trkpt lat="59.3258357954" lon="34.7100757282"><ele>168.031</ele><time>2026-08-17T02:06:53.648Z</time><hdop>5.812</hdop><vdop>2.5</vdop><extensions><gom:speed>0.929</gom:speed></extensions></trkpt>
   <trkpt lat="59.3258294671" lon="34.7100671787"><ele>168.006</ele><time>2026-08-17T02:06:54.647Z</time><hdop>4.812</hdop><vdop>2.5</vdop><extensions><gom:speed>0.339</gom:speed></extensions></trkpt>
   <trkpt lat="59.3258247732" lon="34.7100649994"><ele>168.04</ele><time>2026-08-17T02:06:55.648Z</time><hdop>3.75</hdop><vdop>2.5</vdop><extensions><gom:speed>0.0</gom:speed></extensions></trkpt>
   <trkpt lat="59.3258232645" lon="34.7100588806"><ele>167.909</ele><time>2026-08-17T02:06:56.648Z</time><hdop>3.75</hdop><vdop>2.5</vdop><extensions><gom:speed>0.319</gom:speed></extensions></trkpt>
   <trkpt lat="59.3258254857" lon="34.7100519236"><ele>167.693</ele><time>2026-08-17T02:06:57.647Z</time><hdop>3.75</hdop><vdop>2.5</vdop><extensions><gom:speed>0.249</gom:speed></extensions></trkpt>
   <trkpt lat="59.3258273716" lon="34.7100490738"><ele>167.564</ele><time>2026-08-17T02:06:58.648Z</time><hdop>3.75</hdop><vdop>2.5</vdop><extensions><gom:speed>0.0</gom:speed></extensions></trkpt>
   <trkpt lat="59.3258277907" lon="34.7100485709"><ele>167.486</ele><time>2026-08-17T02:06:59.648Z</time><hdop>3.75</hdop><vdop>2.5</vdop><extensions><gom:speed>0.0</gom:speed></extensions></trkpt>
   <trkpt lat="59.3258275811" lon="34.7100477327"><ele>167.456</ele><time>2026-08-17T02:07:00.648Z</time><hdop>3.75</hdop><vdop>2.5</vdop><extensions><gom:speed>0.0</gom:speed></extensions></trkpt>
   <trkpt lat="59.3258275811" lon="34.7100474812"><ele>167.44</ele><time>2026-08-17T02:07:01.648Z</time><hdop>3.75</hdop><vdop>2.5</vdop><extensions><gom:speed>0.0</gom:speed></extensions></trkpt>
   <trkpt lat="59.3258275811" lon="34.7100472298"><ele>167.432</ele><time>2026-08-17T02:07:02.649Z</time><hdop>3.75</hdop><vdop>2.5</vdop><extensions><gom:speed>0.0</gom:speed></extensions></trkpt>
   <trkpt lat="59.3258274973" lon="34.710047146"><ele>167.429</ele><time>2026-08-17T02:07:03.648Z</time><hdop>3.75</hdop><vdop>2.5</vdop><extensions><gom:speed>0.0</gom:speed></extensions></trkpt>
   <trkpt lat="59.3258274973" lon="34.7100470621"><ele>167.428</ele><time>2026-08-17T02:07:04.649Z</time><hdop>3.75</hdop><vdop>2.5</vdop><extensions><gom:speed>0.0</gom:speed></extensions></trkpt>
   <trkpt lat="59.3258275811" lon="34.7100469783"><ele>167.428</ele><time>2026-08-17T02:07:05.649Z</time><hdop>3.75</hdop><vdop>2.5</vdop><extensions><gom:speed>0.0</gom:speed></extensions></trkpt>
   <trkpt lat="59.3258275811" lon="34.7100469783"><ele>167.429</ele><time>2026-08-17T02:07:06.648Z</time><hdop>3.75</hdop><vdop>2.5</vdop><extensions><gom:speed>0.0</gom:speed></extensions></trkpt>
   <trkpt lat="59.3258204984" lon="34.7100427874"><ele>167.469</ele><time>2026-08-17T02:07:07.648Z</time><hdop>3.75</hdop><vdop>2.5</vdop><extensions><gom:speed>0.409</gom:speed></extensions></trkpt>
   <trkpt lat="59.3258149664" lon="34.7100377582"><ele>167.589</ele><time>2026-08-17T02:07:08.648Z</time><hdop>3.75</hdop><vdop>2.5</vdop><extensions><gom:speed>0.0</gom:speed></extensions></trkpt>
   <trkpt lat="59.3258093924" lon="34.7100308851"><ele>168.063</ele><time>2026-08-17T02:07:09.648Z</time><hdop>3.75</hdop><vdop>2.5</vdop><extensions><gom:speed>0.449</gom:speed></extensions></trkpt>
   <trkpt lat="59.3258017649" lon="34.7100223355"><ele>168.366</ele><time>2026-08-17T02:07:10.648Z</time><hdop>3.75</hdop><vdop>2.5</vdop><extensions><gom:speed>0.689</gom:speed></extensions></trkpt>
   <trkpt lat="59.3257959814" lon="34.7100199886"><ele>168.458</ele><time>2026-08-17T02:07:11.649Z</time><hdop>3.75</hdop><vdop>2.5</vdop><extensions><gom:speed>0.179</gom:speed></extensions></trkpt>
   <trkpt lat="59.325786887" lon="34.7100210782"><ele>168.448</ele><time>2026-08-17T02:07:12.647Z</time><hdop>3.75</hdop><vdop>2.5</vdop><extensions><gom:speed>0.389</gom:speed></extensions></trkpt>
   <trkpt lat="59.3257804748" lon="34.7100265265"><ele>168.306</ele><time>2026-08-17T02:07:13.648Z</time><hdop>3.75</hdop><vdop>2.5</vdop><extensions><gom:speed>0.0</gom:speed></extensions></trkpt>
   <trkpt lat="59.3257721768" lon="34.7100312203"><ele>168.581</ele><time>2026-08-17T02:07:14.647Z</time><hdop>3.75</hdop><vdop>2.5</vdop><extensions><gom:speed>0.239</gom:speed></extensions></trkpt>
   <trkpt lat="59.3257619927" lon="34.7100410272"><ele>168.731</ele><time>2026-08-17T02:07:15.649Z</time><hdop>3.75</hdop><vdop>2.5</vdop><extensions><gom:speed>0.599</gom:speed></extensions></trkpt>
   <trkpt lat="59.3257544909" lon="34.7100511693"><ele>168.616</ele><time>2026-08-17T02:07:16.648Z</time><hdop>3.75</hdop><vdop>2.5</vdop><extensions><gom:speed>0.369</gom:speed></extensions></trkpt>
   <trkpt lat="59.3257514735" lon="34.7100521751"><ele>168.272</ele><time>2026-08-17T02:07:17.648Z</time><hdop>3.75</hdop><vdop>2.5</vdop><extensions><gom:speed>0.0</gom:speed></extensions></trkpt>
   <trkpt lat="59.3257392778" lon="34.7100465592"><ele>168.339</ele><time>2026-08-17T02:07:18.648Z</time><hdop>3.75</hdop><vdop>2.5</vdop><extensions><gom:speed>1.039</gom:speed></extensions></trkpt>
   <trkpt lat="59.3257304768" lon="34.710035998"><ele>168.41</ele><time>2026-08-17T02:07:19.648Z</time><hdop>3.75</hdop><vdop>2.5</vdop><extensions><gom:speed>0.899</gom:speed></extensions></trkpt>
   <trkpt lat="59.3257242742" lon="34.7100264427"><ele>168.445</ele><time>2026-08-17T02:07:20.648Z</time><hdop>3.75</hdop><vdop>2.625</vdop><extensions><gom:speed>0.789</gom:speed></extensions></trkpt>
   <trkpt lat="59.3257128748" lon="34.7100127802"><ele>168.927</ele><time>2026-08-17T02:07:21.648Z</time><hdop>3.75</hdop><vdop>2.812</vdop><extensions><gom:speed>0.929</gom:speed></extensions></trkpt>
   <trkpt lat="59.3257052892" lon="34.7100158815"><ele>169.051</ele><time>2026-08-17T02:07:22.648Z</time><hdop>3.75</hdop><vdop>2.937</vdop><extensions><gom:speed>0.939</gom:speed></extensions></trkpt>
   <trkpt lat="59.3257087677" lon="34.7100177255"><ele>169.02</ele><time>2026-08-17T02:07:23.649Z</time><hdop>3.75</hdop><vdop>2.875</vdop><extensions><gom:speed>0.309</gom:speed></extensions></trkpt>
   <trkpt lat="59.3257135873" lon="34.7100223355"><ele>168.561</ele><time>2026-08-17T02:07:24.648Z</time><hdop>3.75</hdop><vdop>2.625</vdop><extensions><gom:speed>0.159</gom:speed></extensions></trkpt>
   <trkpt lat="59.3257165628" lon="34.7100363333"><ele>168.117</ele><time>2026-08-17T02:07:25.648Z</time><hdop>3.75</hdop><vdop>2.562</vdop><extensions><gom:speed>0.279</gom:speed></extensions></trkpt>
   <trkpt lat="59.3257151798" lon="34.710057791"><ele>167.571</ele><time>2026-08-17T02:07:26.648Z</time><hdop>3.75</hdop><vdop>2.875</vdop><extensions><gom:speed>0.549</gom:speed></extensions></trkpt>
   <trkpt lat="59.325714174" lon="34.7100673463"><ele>167.712</ele><time>2026-08-17T02:07:27.648Z</time><hdop>3.75</hdop><vdop>2.75</vdop><extensions><gom:speed>0.0</gom:speed></extensions></trkpt>
   <trkpt lat="59.3257137968" lon="34.7100774884"><ele>167.819</ele><time>2026-08-17T02:07:28.648Z</time><hdop>3.75</hdop><vdop>2.875</vdop><extensions><gom:speed>0.0</gom:speed></extensions></trkpt>
   <trkpt lat="59.3257136711" lon="34.7100799192"><ele>167.882</ele><time>2026-08-17T02:07:29.648Z</time><hdop>3.75</hdop><vdop>2.875</vdop><extensions><gom:speed>0.0</gom:speed></extensions></trkpt>
   <trkpt lat="59.3257135873" lon="34.7100803383"><ele>167.928</ele><time>2026-08-17T02:07:30.648Z</time><hdop>3.75</hdop><vdop>2.937</vdop><extensions><gom:speed>0.0</gom:speed></extensions></trkpt>
   <trkpt lat="59.3257134615" lon="34.7100802545"><ele>167.959</ele><time>2026-08-17T02:07:31.648Z</time><hdop>3.75</hdop><vdop>2.937</vdop><extensions><gom:speed>0.0</gom:speed></extensions></trkpt>
   <trkpt lat="59.3257133777" lon="34.7100800868"><ele>167.979</ele><time>2026-08-17T02:07:32.649Z</time><hdop>3.75</hdop><vdop>2.875</vdop><extensions><gom:speed>0.0</gom:speed></extensions></trkpt>
   <trkpt lat="59.3257163952" lon="34.7100712858"><ele>167.739</ele><time>2026-08-17T02:07:33.648Z</time><hdop>3.75</hdop><vdop>3.0</vdop><extensions><gom:speed>0.169</gom:speed></extensions></trkpt>
   <trkpt lat="59.3257202928" lon="34.7100548573"><ele>167.303</ele><time>2026-08-17T02:07:34.648Z</time><hdop>3.75</hdop><vdop>3.0</vdop><extensions><gom:speed>0.0</gom:speed></extensions></trkpt>
   <trkpt lat="59.3257228912" lon="34.7100338187"><ele>166.649</ele><time>2026-08-17T02:07:35.648Z</time><hdop>3.75</hdop><vdop>3.125</vdop><extensions><gom:speed>0.409</gom:speed></extensions></trkpt>
   <trkpt lat="59.3257265792" lon="34.7100159653"><ele>166.24</ele><time>2026-08-17T02:07:36.648Z</time><hdop>3.75</hdop><vdop>2.937</vdop><extensions><gom:speed>0.0</gom:speed></extensions></trkpt>
   <trkpt lat="59.3257274593" lon="34.7100101818"><ele>165.961</ele><time>2026-08-17T02:07:37.649Z</time><hdop>3.75</hdop><vdop>2.812</vdop><extensions><gom:speed>0.179</gom:speed></extensions></trkpt>
   <trkpt lat="59.3257282975" lon="34.7100075834"><ele>165.802</ele><time>2026-08-17T02:07:38.648Z</time><hdop>3.75</hdop><vdop>2.75</vdop><extensions><gom:speed>0.0</gom:speed></extensions></trkpt>
   <trkpt lat="59.3257284651" lon="34.7100069966"><ele>165.707</ele><time>2026-08-17T02:07:39.648Z</time><hdop>3.75</hdop><vdop>2.687</vdop><extensions><gom:speed>0.0</gom:speed></extensions></trkpt>
   <trkpt lat="59.3257284651" lon="34.7100014646"><ele>165.623</ele><time>2026-08-17T02:07:40.648Z</time><hdop>3.75</hdop><vdop>2.5</vdop><extensions><gom:speed>0.0</gom:speed></extensions></trkpt>
   <trkpt lat="59.3257285909" lon="34.7099995367"><ele>165.583</ele><time>2026-08-17T02:07:41.648Z</time><hdop>3.75</hdop><vdop>2.5</vdop><extensions><gom:speed>0.0</gom:speed></extensions></trkpt>
   <trkpt lat="59.3257285909" lon="34.7099988662"><ele>165.559</ele><time>2026-08-17T02:07:42.648Z</time><hdop>3.75</hdop><vdop>2.5</vdop><extensions><gom:speed>0.0</gom:speed></extensions></trkpt>
   <trkpt lat="59.3257286747" lon="34.7099984471"><ele>165.544</ele><time>2026-08-17T02:07:43.649Z</time><hdop>3.75</hdop><vdop>2.5</vdop><extensions><gom:speed>0.0</gom:speed></extensions></trkpt>
   <trkpt lat="59.325729471" lon="34.7099912387"><ele>165.202</ele><time>2026-08-17T02:07:44.648Z</time><hdop>3.75</hdop><vdop>2.5</vdop><extensions><gom:speed>0.0</gom:speed></extensions></trkpt>
   <trkpt lat="59.3257322789" lon="34.7099720441"><ele>164.997</ele><time>2026-08-17T02:07:45.649Z</time><hdop>3.75</hdop><vdop>2.5</vdop><extensions><gom:speed>0.209</gom:speed></extensions></trkpt>
   <trkpt lat="59.3257393616" lon="34.709957292"><ele>164.808</ele><time>2026-08-17T02:07:46.648Z</time><hdop>3.75</hdop><vdop>2.5</vdop><extensions><gom:speed>0.319</gom:speed></extensions></trkpt>
   <trkpt lat="59.3257502581" lon="34.7099522628"><ele>164.65</ele><time>2026-08-17T02:07:47.648Z</time><hdop>3.75</hdop><vdop>2.625</vdop><extensions><gom:speed>0.849</gom:speed></extensions></trkpt>
   <trkpt lat="59.3257616994" lon="34.7099453897"><ele>164.801</ele><time>2026-08-17T02:07:48.648Z</time><hdop>3.75</hdop><vdop>2.75</vdop><extensions><gom:speed>0.819</gom:speed></extensions></trkpt>
   <trkpt lat="59.3257633758" lon="34.7099341579"><ele>164.782</ele><time>2026-08-17T02:07:49.648Z</time><hdop>3.75</hdop><vdop>2.75</vdop><extensions><gom:speed>0.0</gom:speed></extensions></trkpt>
   <trkpt lat="59.3257599811" lon="34.7099210821"><ele>164.708</ele><time>2026-08-17T02:07:50.648Z</time><hdop>3.75</hdop><vdop>2.687</vdop><extensions><gom:speed>0.259</gom:speed></extensions></trkpt>
   <trkpt lat="59.3257584723" lon="34.7099140413"><ele>164.631</ele><time>2026-08-17T02:07:51.647Z</time><hdop>3.75</hdop><vdop>2.687</vdop><extensions><gom:speed>0.0</gom:speed></extensions></trkpt>
   <trkpt lat="59.3257606935" lon="34.7098974452"><ele>164.536</ele><time>2026-08-17T02:07:52.649Z</time><hdop>3.75</hdop><vdop>2.687</vdop><extensions><gom:speed>0.0</gom:speed></extensions></trkpt>
   <trkpt lat="59.3257642978" lon="34.7098908235"><ele>164.509</ele><time>2026-08-17T02:07:53.648Z</time><hdop>3.75</hdop><vdop>2.75</vdop><extensions><gom:speed>0.219</gom:speed></extensions></trkpt>
   <trkpt lat="59.3257700813" lon="34.7098803461"><ele>164.609</ele><time>2026-08-17T02:07:54.648Z</time><hdop>3.75</hdop><vdop>2.687</vdop><extensions><gom:speed>0.179</gom:speed></extensions></trkpt>
   <trkpt lat="59.3257718834" lon="34.7098759875"><ele>164.677</ele><time>2026-08-17T02:07:55.648Z</time><hdop>3.75</hdop><vdop>2.687</vdop><extensions><gom:speed>0.0</gom:speed></extensions></trkpt>
   <trkpt lat="59.3257722606" lon="34.7098747302"><ele>164.731</ele><time>2026-08-17T02:07:56.648Z</time><hdop>3.75</hdop><vdop>2.687</vdop><extensions><gom:speed>0.0</gom:speed></extensions></trkpt>
   <trkpt lat="59.3257750685" lon="34.7098676894"><ele>165.026</ele><time>2026-08-17T02:07:57.648Z</time><hdop>3.75</hdop><vdop>2.75</vdop><extensions><gom:speed>0.0</gom:speed></extensions></trkpt>
   <trkpt lat="59.3257777926" lon="34.7098642528"><ele>165.244</ele><time>2026-08-17T02:07:58.648Z</time><hdop>3.75</hdop><vdop>2.812</vdop><extensions><gom:speed>0.229</gom:speed></extensions></trkpt>
   <trkpt lat="59.3257797624" lon="34.7098534402"><ele>165.402</ele><time>2026-08-17T02:07:59.649Z</time><hdop>3.75</hdop><vdop>2.875</vdop><extensions><gom:speed>0.299</gom:speed></extensions></trkpt>
   <trkpt lat="59.3257806844" lon="34.7098363411"><ele>165.575</ele><time>2026-08-17T02:08:00.647Z</time><hdop>3.75</hdop><vdop>2.75</vdop><extensions><gom:speed>0.319</gom:speed></extensions></trkpt>
   <trkpt lat="59.3257799719" lon="34.7098205831"><ele>165.633</ele><time>2026-08-17T02:08:01.648Z</time><hdop>3.75</hdop><vdop>2.75</vdop><extensions><gom:speed>0.0</gom:speed></extensions></trkpt>
   <trkpt lat="59.3257797624" lon="34.7098167274"><ele>165.674</ele><time>2026-08-17T02:08:02.648Z</time><hdop>3.75</hdop><vdop>2.75</vdop><extensions><gom:speed>0.0</gom:speed></extensions></trkpt>
   <trkpt lat="59.3257797624" lon="34.709807675"><ele>165.708</ele><time>2026-08-17T02:08:03.648Z</time><hdop>3.75</hdop><vdop>2.812</vdop><extensions><gom:speed>0.269</gom:speed></extensions></trkpt>
   <trkpt lat="59.3257776669" lon="34.70980164"><ele>165.894</ele><time>2026-08-17T02:08:04.648Z</time><hdop>3.75</hdop><vdop>2.75</vdop><extensions><gom:speed>0.0</gom:speed></extensions></trkpt>
   <trkpt lat="59.3257752781" lon="34.7097929228"><ele>166.286</ele><time>2026-08-17T02:08:05.648Z</time><hdop>3.75</hdop><vdop>2.625</vdop><extensions><gom:speed>0.0</gom:speed></extensions></trkpt>
   <trkpt lat="59.3257719672" lon="34.7097862173"><ele>166.546</ele><time>2026-08-17T02:08:06.647Z</time><hdop>3.75</hdop><vdop>2.687</vdop><extensions><gom:speed>0.249</gom:speed></extensions></trkpt>
   <trkpt lat="59.325770668" lon="34.7097817749"><ele>166.412</ele><time>2026-08-17T02:08:07.648Z</time><hdop>3.75</hdop><vdop>2.625</vdop><extensions><gom:speed>0.0</gom:speed></extensions></trkpt>
   <trkpt lat="59.3257670638" lon="34.7097710461"><ele>166.331</ele><time>2026-08-17T02:08:08.647Z</time><hdop>3.75</hdop><vdop>2.562</vdop><extensions><gom:speed>0.0</gom:speed></extensions></trkpt>
   <trkpt lat="59.3257642978" lon="34.7097656816"><ele>166.233</ele><time>2026-08-17T02:08:09.648Z</time><hdop>3.75</hdop><vdop>3.0</vdop><extensions><gom:speed>0.169</gom:speed></extensions></trkpt>
   <trkpt lat="59.3257600649" lon="34.7097544499"><ele>166.234</ele><time>2026-08-17T02:08:10.648Z</time><hdop>3.75</hdop><vdop>2.687</vdop><extensions><gom:speed>0.379</gom:speed></extensions></trkpt>
   <trkpt lat="59.3257548681" lon="34.7097422961"><ele>166.363</ele><time>2026-08-17T02:08:11.648Z</time><hdop>3.75</hdop><vdop>2.75</vdop><extensions><gom:speed>0.229</gom:speed></extensions></trkpt>
   <trkpt lat="59.3257515992" lon="34.7097336628"><ele>166.804</ele><time>2026-08-17T02:08:12.648Z</time><hdop>3.75</hdop><vdop>2.687</vdop><extensions><gom:speed>0.199</gom:speed></extensions></trkpt>
   <trkpt lat="59.3257480788" lon="34.7097267896"><ele>167.067</ele><time>2026-08-17T02:08:13.648Z</time><hdop>3.75</hdop><vdop>2.625</vdop><extensions><gom:speed>0.0</gom:speed></extensions></trkpt>
   <trkpt lat="59.3257494618" lon="34.7097270411"><ele>167.318</ele><time>2026-08-17T02:08:14.647Z</time><hdop>3.75</hdop><vdop>2.75</vdop><extensions><gom:speed>0.279</gom:speed></extensions></trkpt>
   <trkpt lat="59.3257489589" lon="34.7097271249"><ele>167.475</ele><time>2026-08-17T02:08:15.648Z</time><hdop>3.75</hdop><vdop>2.5</vdop><extensions><gom:speed>0.0</gom:speed></extensions></trkpt>
   <trkpt lat="59.3257486655" lon="34.7097270411"><ele>167.569</ele><time>2026-08-17T02:08:16.648Z</time><hdop>3.75</hdop><vdop>2.5</vdop><extensions><gom:speed>0.0</gom:speed></extensions></trkpt>
   <trkpt lat="59.3257486655" lon="34.7097270411"><ele>167.629</ele><time>2026-08-17T02:08:17.649Z</time><hdop>3.75</hdop><vdop>2.5</vdop><extensions><gom:speed>0.0</gom:speed></extensions></trkpt>
   <trkpt lat="59.3257486655" lon="34.7097270411"><ele>167.667</ele><time>2026-08-17T02:08:18.648Z</time><hdop>3.75</hdop><vdop>2.5</vdop><extensions><gom:speed>0.0</gom:speed></extensions></trkpt>
   <trkpt lat="59.3257486655" lon="34.7097270411"><ele>167.69</ele><time>2026-08-17T02:08:19.647Z</time><hdop>3.75</hdop><vdop>2.5</vdop><extensions><gom:speed>0.0</gom:speed></extensions></trkpt>
   <trkpt lat="59.3257485817" lon="34.7097269573"><ele>167.707</ele><time>2026-08-17T02:08:20.648Z</time><hdop>3.75</hdop><vdop>2.5</vdop><extensions><gom:speed>0.0</gom:speed></extensions></trkpt>
   <trkpt lat="59.3257485817" lon="34.7097268734"><ele>167.717</ele><time>2026-08-17T02:08:21.648Z</time><hdop>3.75</hdop><vdop>2.5</vdop><extensions><gom:speed>0.0</gom:speed></extensions></trkpt>
   <trkpt lat="59.3257485817" lon="34.7097267896"><ele>167.728</ele><time>2026-08-17T02:08:22.648Z</time><hdop>3.75</hdop><vdop>2.5</vdop><extensions><gom:speed>0.0</gom:speed></extensions></trkpt>
   <trkpt lat="59.3257485817" lon="34.709726622"><ele>167.737</ele><time>2026-08-17T02:08:23.648Z</time><hdop>3.75</hdop><vdop>2.5</vdop><extensions><gom:speed>0.0</gom:speed></extensions></trkpt>
   <trkpt lat="59.3257485817" lon="34.7097265382"><ele>167.745</ele><time>2026-08-17T02:08:24.648Z</time><hdop>3.75</hdop><vdop>2.5</vdop><extensions><gom:speed>0.0</gom:speed></extensions></trkpt>
   <trkpt lat="59.3257485817" lon="34.7097265382"><ele>167.754</ele><time>2026-08-17T02:08:25.647Z</time><hdop>3.75</hdop><vdop>2.5</vdop><extensions><gom:speed>0.0</gom:speed></extensions></trkpt>
   <trkpt lat="59.3257485817" lon="34.709726622"><ele>167.763</ele><time>2026-08-17T02:08:26.647Z</time><hdop>3.75</hdop><vdop>2.5</vdop><extensions><gom:speed>0.0</gom:speed></extensions></trkpt>
   <trkpt lat="59.3257485817" lon="34.7097265382"><ele>167.771</ele><time>2026-08-17T02:08:27.647Z</time><hdop>3.75</hdop><vdop>2.5</vdop><extensions><gom:speed>0.0</gom:speed></extensions></trkpt>
   <trkpt lat="59.3257502581" lon="34.7097235207"><ele>167.741</ele><time>2026-08-17T02:08:28.648Z</time><hdop>3.75</hdop><vdop>2.5</vdop><extensions><gom:speed>0.339</gom:speed></extensions></trkpt>
   <trkpt lat="59.3257440974" lon="34.7097198326"><ele>167.756</ele><time>2026-08-17T02:08:29.648Z</time><hdop>3.75</hdop><vdop>2.5</vdop><extensions><gom:speed>0.0</gom:speed></extensions></trkpt>
   <trkpt lat="59.325741499" lon="34.7097179886"><ele>167.844</ele><time>2026-08-17T02:08:30.648Z</time><hdop>3.75</hdop><vdop>2.5</vdop><extensions><gom:speed>0.0</gom:speed></extensions></trkpt>
   <trkpt lat="59.3257437621" lon="34.7097186592"><ele>167.947</ele><time>2026-08-17T02:08:31.648Z</time><hdop>3.75</hdop><vdop>2.5</vdop><extensions><gom:speed>0.0</gom:speed></extensions></trkpt>
   <trkpt lat="59.3257476597" lon="34.709717821"><ele>167.969</ele><time>2026-08-17T02:08:32.649Z</time><hdop>3.75</hdop><vdop>2.5</vdop><extensions><gom:speed>0.159</gom:speed></extensions></trkpt>
   <trkpt lat="59.3257520602" lon="34.7097199165"><ele>167.979</ele><time>2026-08-17T02:08:33.648Z</time><hdop>3.75</hdop><vdop>2.5</vdop><extensions><gom:speed>0.0</gom:speed></extensions></trkpt>
   <trkpt lat="59.3257531917" lon="34.7097206708"><ele>167.985</ele><time>2026-08-17T02:08:34.647Z</time><hdop>3.75</hdop><vdop>2.5</vdop><extensions><gom:speed>0.0</gom:speed></extensions></trkpt>
   <trkpt lat="59.3257534851" lon="34.7097208385"><ele>167.992</ele><time>2026-08-17T02:08:35.648Z</time><hdop>3.75</hdop><vdop>2.5</vdop><extensions><gom:speed>0.0</gom:speed></extensions></trkpt>
   <trkpt lat="59.3257555806" lon="34.7097202517"><ele>167.827</ele><time>2026-08-17T02:08:36.648Z</time><hdop>3.75</hdop><vdop>2.5</vdop><extensions><gom:speed>0.239</gom:speed></extensions></trkpt>
   <trkpt lat="59.3257578856" lon="34.7097172342"><ele>168.019</ele><time>2026-08-17T02:08:37.648Z</time><hdop>3.75</hdop><vdop>2.5</vdop><extensions><gom:speed>0.189</gom:speed></extensions></trkpt>
   <trkpt lat="59.3257593944" lon="34.7097103611"><ele>168.401</ele><time>2026-08-17T02:08:38.648Z</time><hdop>3.75</hdop><vdop>2.5</vdop><extensions><gom:speed>0.289</gom:speed></extensions></trkpt>
   <trkpt lat="59.3257585981" lon="34.7097093553"><ele>168.694</ele><time>2026-08-17T02:08:39.647Z</time><hdop>3.75</hdop><vdop>2.562</vdop><extensions><gom:speed>0.209</gom:speed></extensions></trkpt>
   <trkpt lat="59.3257628728" lon="34.7097077627"><ele>168.787</ele><time>2026-08-17T02:08:40.648Z</time><hdop>3.75</hdop><vdop>2.562</vdop><extensions><gom:speed>0.209</gom:speed></extensions></trkpt>
   <trkpt lat="59.3257694945" lon="34.7097042423"><ele>168.896</ele><time>2026-08-17T02:08:41.649Z</time><hdop>3.75</hdop><vdop>2.562</vdop><extensions><gom:speed>0.0</gom:speed></extensions></trkpt>
   <trkpt lat="59.3257709614" lon="34.7097031526"><ele>168.97</ele><time>2026-08-17T02:08:42.648Z</time><hdop>3.75</hdop><vdop>2.562</vdop><extensions><gom:speed>0.0</gom:speed></extensions></trkpt>
   <trkpt lat="59.3257728892" lon="34.7097030688"><ele>169.102</ele><time>2026-08-17T02:08:43.648Z</time><hdop>3.75</hdop><vdop>2.625</vdop><extensions><gom:speed>0.0</gom:speed></extensions></trkpt>
   <trkpt lat="59.3257805587" lon="34.7097087685"><ele>169.448</ele><time>2026-08-17T02:08:44.647Z</time><hdop>3.75</hdop><vdop>2.5</vdop><extensions><gom:speed>0.189</gom:speed></extensions></trkpt>
   <trkpt lat="59.32578366" lon="34.7097113669"><ele>169.66</ele><time>2026-08-17T02:08:45.648Z</time><hdop>3.75</hdop><vdop>2.5</vdop><extensions><gom:speed>0.0</gom:speed></extensions></trkpt>
   <trkpt lat="59.3257844982" lon="34.7097122889"><ele>169.788</ele><time>2026-08-17T02:08:46.647Z</time><hdop>3.75</hdop><vdop>2.562</vdop><extensions><gom:speed>0.0</gom:speed></extensions></trkpt>
   <trkpt lat="59.3257846658" lon="34.7097125404"><ele>169.864</ele><time>2026-08-17T02:08:47.648Z</time><hdop>3.75</hdop><vdop>2.562</vdop><extensions><gom:speed>0.0</gom:speed></extensions></trkpt>
   <trkpt lat="59.3257847915" lon="34.7097126242"><ele>169.909</ele><time>2026-08-17T02:08:48.648Z</time><hdop>3.75</hdop><vdop>2.562</vdop><extensions><gom:speed>0.0</gom:speed></extensions></trkpt>
   <trkpt lat="59.3257847915" lon="34.7097128757"><ele>169.939</ele><time>2026-08-17T02:08:49.648Z</time><hdop>3.75</hdop><vdop>2.562</vdop><extensions><gom:speed>0.0</gom:speed></extensions></trkpt>
   <trkpt lat="59.3257848753" lon="34.7097128757"><ele>169.957</ele><time>2026-08-17T02:08:50.648Z</time><hdop>3.75</hdop><vdop>2.562</vdop><extensions><gom:speed>0.0</gom:speed></extensions></trkpt>
   <trkpt lat="59.325789192" lon="34.7097137977"><ele>170.016</ele><time>2026-08-17T02:08:51.648Z</time><hdop>3.75</hdop><vdop>2.5</vdop><extensions><gom:speed>0.0</gom:speed></extensions></trkpt>
   <trkpt lat="59.3257929639" lon="34.7097164799"><ele>170.075</ele><time>2026-08-17T02:08:52.647Z</time><hdop>3.75</hdop><vdop>2.812</vdop><extensions><gom:speed>0.0</gom:speed></extensions></trkpt>
   <trkpt lat="59.3258019744" lon="34.7097126242"><ele>170.587</ele><time>2026-08-17T02:08:53.648Z</time><hdop>3.75</hdop><vdop>2.937</vdop><extensions><gom:speed>0.589</gom:speed></extensions></trkpt>
   <trkpt lat="59.3258063749" lon="34.7097047452"><ele>171.02</ele><time>2026-08-17T02:08:54.648Z</time><hdop>3.75</hdop><vdop>2.75</vdop><extensions><gom:speed>0.209</gom:speed></extensions></trkpt>
   <trkpt lat="59.3258082608" lon="34.7096993808"><ele>171.024</ele><time>2026-08-17T02:08:55.647Z</time><hdop>3.75</hdop><vdop>2.687</vdop><extensions><gom:speed>0.239</gom:speed></extensions></trkpt>
   <trkpt lat="59.3258098953" lon="34.7096966986"><ele>171.566</ele><time>2026-08-17T02:08:56.647Z</time><hdop>3.75</hdop><vdop>2.687</vdop><extensions><gom:speed>0.189</gom:speed></extensions></trkpt>
   <trkpt lat="59.3258151759" lon="34.7096869756"><ele>172.355</ele><time>2026-08-17T02:08:57.649Z</time><hdop>3.75</hdop><vdop>2.687</vdop><extensions><gom:speed>0.559</gom:speed></extensions></trkpt>
   <trkpt lat="59.3258122842" lon="34.7096707985"><ele>172.617</ele><time>2026-08-17T02:08:58.649Z</time><hdop>3.75</hdop><vdop>2.75</vdop><extensions><gom:speed>0.0</gom:speed></extensions></trkpt>
   <trkpt lat="59.3258143796" lon="34.7096577227"><ele>172.246</ele><time>2026-08-17T02:08:59.648Z</time><hdop>3.75</hdop><vdop>2.625</vdop><extensions><gom:speed>0.189</gom:speed></extensions></trkpt>
   <trkpt lat="59.3258174809" lon="34.7096481674"><ele>172.072</ele><time>2026-08-17T02:09:00.648Z</time><hdop>3.75</hdop><vdop>2.625</vdop><extensions><gom:speed>0.0</gom:speed></extensions></trkpt>
   <trkpt lat="59.3258225939" lon="34.7096383605"><ele>171.799</ele><time>2026-08-17T02:09:01.648Z</time><hdop>3.75</hdop><vdop>2.562</vdop><extensions><gom:speed>0.199</gom:speed></extensions></trkpt>
   <trkpt lat="59.3258254857" lon="34.7096275479"><ele>171.829</ele><time>2026-08-17T02:09:02.648Z</time><hdop>3.75</hdop><vdop>2.562</vdop><extensions><gom:speed>0.209</gom:speed></extensions></trkpt>
   <trkpt lat="59.3258181934" lon="34.7096116223"><ele>171.673</ele><time>2026-08-17T02:09:03.647Z</time><hdop>3.75</hdop><vdop>2.625</vdop><extensions><gom:speed>0.979</gom:speed></extensions></trkpt>
   <trkpt lat="59.3258161817" lon="34.7096007258"><ele>171.378</ele><time>2026-08-17T02:09:04.648Z</time><hdop>3.75</hdop><vdop>2.625</vdop><extensions><gom:speed>0.0</gom:speed></extensions></trkpt>
   <trkpt lat="59.3258194926" lon="34.7095947746"><ele>170.961</ele><time>2026-08-17T02:09:05.648Z</time><hdop>3.75</hdop><vdop>2.687</vdop><extensions><gom:speed>0.0</gom:speed></extensions></trkpt>
   <trkpt lat="59.3258204984" lon="34.7095881529"><ele>170.619</ele><time>2026-08-17T02:09:06.648Z</time><hdop>3.75</hdop><vdop>2.625</vdop><extensions><gom:speed>0.209</gom:speed></extensions></trkpt>
   <trkpt lat="59.3258259886" lon="34.7095831238"><ele>170.202</ele><time>2026-08-17T02:09:07.648Z</time><hdop>3.75</hdop><vdop>2.687</vdop><extensions><gom:speed>0.319</gom:speed></extensions></trkpt>
   <trkpt lat="59.3258272878" lon="34.7095771726"><ele>170.088</ele><time>2026-08-17T02:09:08.648Z</time><hdop>3.75</hdop><vdop>2.875</vdop><extensions><gom:speed>0.0</gom:speed></extensions></trkpt>
   <trkpt lat="59.3258296766" lon="34.7095681202"><ele>169.734</ele><time>2026-08-17T02:09:09.648Z</time><hdop>3.75</hdop><vdop>2.75</vdop><extensions><gom:speed>0.259</gom:speed></extensions></trkpt>
   <trkpt lat="59.3258286708" lon="34.7095543739"><ele>169.606</ele><time>2026-08-17T02:09:10.648Z</time><hdop>3.75</hdop><vdop>2.687</vdop><extensions><gom:speed>0.559</gom:speed></extensions></trkpt>
   <trkpt lat="59.3258261981" lon="34.7095352631"><ele>169.598</ele><time>2026-08-17T02:09:11.648Z</time><hdop>3.75</hdop><vdop>2.625</vdop><extensions><gom:speed>0.809</gom:speed></extensions></trkpt>
   <trkpt lat="59.325821169" lon="34.7095201757"><ele>169.677</ele><time>2026-08-17T02:09:12.648Z</time><hdop>3.75</hdop><vdop>2.687</vdop><extensions><gom:speed>0.719</gom:speed></extensions></trkpt>
   <trkpt lat="59.3258230968" lon="34.7095156495"><ele>169.696</ele><time>2026-08-17T02:09:13.648Z</time><hdop>3.75</hdop><vdop>2.625</vdop><extensions><gom:speed>0.0</gom:speed></extensions></trkpt>
   <trkpt lat="59.3258237674" lon="34.7095147275"><ele>169.706</ele><time>2026-08-17T02:09:14.647Z</time><hdop>3.75</hdop><vdop>2.562</vdop><extensions><gom:speed>0.0</gom:speed></extensions></trkpt>
   <trkpt lat="59.3258239769" lon="34.709514476"><ele>169.714</ele><time>2026-08-17T02:09:15.647Z</time><hdop>3.75</hdop><vdop>2.562</vdop><extensions><gom:speed>0.0</gom:speed></extensions></trkpt>
   <trkpt lat="59.3258239769" lon="34.7095143922"><ele>169.72</ele><time>2026-08-17T02:09:16.648Z</time><hdop>3.75</hdop><vdop>2.562</vdop><extensions><gom:speed>0.0</gom:speed></extensions></trkpt>
   <trkpt lat="59.3258237674" lon="34.7095141407"><ele>169.732</ele><time>2026-08-17T02:09:17.648Z</time><hdop>3.75</hdop><vdop>2.5</vdop><extensions><gom:speed>0.0</gom:speed></extensions></trkpt>
   <trkpt lat="59.3258237674" lon="34.7095140569"><ele>169.741</ele><time>2026-08-17T02:09:18.648Z</time><hdop>3.75</hdop><vdop>2.5</vdop><extensions><gom:speed>0.0</gom:speed></extensions></trkpt>
   <trkpt lat="59.3258236836" lon="34.7095139731"><ele>169.751</ele><time>2026-08-17T02:09:19.647Z</time><hdop>3.75</hdop><vdop>2.5</vdop><extensions><gom:speed>0.0</gom:speed></extensions></trkpt>
   <trkpt lat="59.3258228873" lon="34.7095114585"><ele>169.76</ele><time>2026-08-17T02:09:20.648Z</time><hdop>3.75</hdop><vdop>2.5</vdop><extensions><gom:speed>0.0</gom:speed></extensions></trkpt>
   <trkpt lat="59.3258225939" lon="34.7095105365"><ele>169.74</ele><time>2026-08-17T02:09:21.648Z</time><hdop>3.75</hdop><vdop>2.5</vdop><extensions><gom:speed>0.0</gom:speed></extensions></trkpt>
   <trkpt lat="59.3258222586" lon="34.7095101174"><ele>169.737</ele><time>2026-08-17T02:09:22.648Z</time><hdop>3.75</hdop><vdop>2.5</vdop><extensions><gom:speed>0.0</gom:speed></extensions></trkpt>
   <trkpt lat="59.3258222586" lon="34.7095099498"><ele>169.736</ele><time>2026-08-17T02:09:23.648Z</time><hdop>3.75</hdop><vdop>2.5</vdop><extensions><gom:speed>0.0</gom:speed></extensions></trkpt>
   <trkpt lat="59.325822091" lon="34.709509866"><ele>169.735</ele><time>2026-08-17T02:09:24.648Z</time><hdop>3.75</hdop><vdop>2.5</vdop><extensions><gom:speed>0.0</gom:speed></extensions></trkpt>
   <trkpt lat="59.3258219653" lon="34.7095096983"><ele>169.733</ele><time>2026-08-17T02:09:25.648Z</time><hdop>3.75</hdop><vdop>2.5</vdop><extensions><gom:speed>0.0</gom:speed></extensions></trkpt>
   <trkpt lat="59.3258217976" lon="34.7095094469"><ele>169.731</ele><time>2026-08-17T02:09:26.648Z</time><hdop>3.75</hdop><vdop>2.5</vdop><extensions><gom:speed>0.0</gom:speed></extensions></trkpt>
   <trkpt lat="59.3258216719" lon="34.7095094469"><ele>169.727</ele><time>2026-08-17T02:09:27.648Z</time><hdop>3.75</hdop><vdop>2.5</vdop><extensions><gom:speed>0.0</gom:speed></extensions></trkpt>
   <trkpt lat="59.3258214623" lon="34.709509363"><ele>169.726</ele><time>2026-08-17T02:09:28.648Z</time><hdop>3.75</hdop><vdop>2.5</vdop><extensions><gom:speed>0.0</gom:speed></extensions></trkpt>
   <trkpt lat="59.3258213785" lon="34.709509363"><ele>169.727</ele><time>2026-08-17T02:09:29.648Z</time><hdop>3.75</hdop><vdop>2.5</vdop><extensions><gom:speed>0.0</gom:speed></extensions></trkpt>
   <trkpt lat="59.325821169" lon="34.7095092792"><ele>169.734</ele><time>2026-08-17T02:09:30.648Z</time><hdop>3.75</hdop><vdop>2.5</vdop><extensions><gom:speed>0.0</gom:speed></extensions></trkpt>
   <trkpt lat="59.3258209594" lon="34.7095091954"><ele>169.74</ele><time>2026-08-17T02:09:31.649Z</time><hdop>3.75</hdop><vdop>2.5</vdop><extensions><gom:speed>0.0</gom:speed></extensions></trkpt>
   <trkpt lat="59.3258208756" lon="34.7095090278"><ele>169.745</ele><time>2026-08-17T02:09:32.647Z</time><hdop>3.75</hdop><vdop>2.5</vdop><extensions><gom:speed>0.0</gom:speed></extensions></trkpt>
   <trkpt lat="59.3258208756" lon="34.709508944"><ele>169.744</ele><time>2026-08-17T02:09:33.648Z</time><hdop>3.75</hdop><vdop>2.5</vdop><extensions><gom:speed>0.0</gom:speed></extensions></trkpt>
   <trkpt lat="59.3258208756" lon="34.709508944"><ele>169.743</ele><time>2026-08-17T02:09:34.648Z</time><hdop>3.75</hdop><vdop>2.562</vdop><extensions><gom:speed>0.0</gom:speed></extensions></trkpt>
   <trkpt lat="59.3258208756" lon="34.7095088601"><ele>169.747</ele><time>2026-08-17T02:09:35.647Z</time><hdop>3.75</hdop><vdop>2.562</vdop><extensions><gom:speed>0.0</gom:speed></extensions></trkpt>
   <trkpt lat="59.3258209594" lon="34.7095088601"><ele>169.756</ele><time>2026-08-17T02:09:36.648Z</time><hdop>3.75</hdop><vdop>2.625</vdop><extensions><gom:speed>0.0</gom:speed></extensions></trkpt>
   <trkpt lat="59.3258210852" lon="34.7095088601"><ele>169.766</ele><time>2026-08-17T02:09:37.648Z</time><hdop>3.75</hdop><vdop>2.75</vdop><extensions><gom:speed>0.0</gom:speed></extensions></trkpt>
   <trkpt lat="59.325821169" lon="34.7095088601"><ele>169.778</ele><time>2026-08-17T02:09:38.648Z</time><hdop>3.75</hdop><vdop>2.875</vdop><extensions><gom:speed>0.0</gom:speed></extensions></trkpt>
   <trkpt lat="59.325821169" lon="34.7095087763"><ele>169.79</ele><time>2026-08-17T02:09:39.648Z</time><hdop>3.75</hdop><vdop>2.875</vdop><extensions><gom:speed>0.0</gom:speed></extensions></trkpt>
   <trkpt lat="59.325821169" lon="34.7095087763"><ele>169.802</ele><time>2026-08-17T02:09:40.647Z</time><hdop>3.75</hdop><vdop>2.812</vdop><extensions><gom:speed>0.0</gom:speed></extensions></trkpt>
   <trkpt lat="59.325821169" lon="34.7095087763"><ele>169.812</ele><time>2026-08-17T02:09:41.648Z</time><hdop>3.75</hdop><vdop>2.75</vdop><extensions><gom:speed>0.0</gom:speed></extensions></trkpt>
   <trkpt lat="59.325821169" lon="34.7095086925"><ele>169.823</ele><time>2026-08-17T02:09:42.648Z</time><hdop>3.75</hdop><vdop>2.687</vdop><extensions><gom:speed>0.0</gom:speed></extensions></trkpt>
   <trkpt lat="59.325821169" lon="34.7095085249"><ele>169.835</ele><time>2026-08-17T02:09:43.648Z</time><hdop>3.75</hdop><vdop>2.687</vdop><extensions><gom:speed>0.0</gom:speed></extensions></trkpt>
   <trkpt lat="59.325821169" lon="34.7095085249"><ele>169.845</ele><time>2026-08-17T02:09:44.648Z</time><hdop>3.75</hdop><vdop>2.625</vdop><extensions><gom:speed>0.0</gom:speed></extensions></trkpt>
   <trkpt lat="59.325821169" lon="34.7095085249"><ele>169.856</ele><time>2026-08-17T02:09:45.649Z</time><hdop>3.75</hdop><vdop>2.625</vdop><extensions><gom:speed>0.0</gom:speed></extensions></trkpt>
   <trkpt lat="59.3258212947" lon="34.709508441"><ele>169.871</ele><time>2026-08-17T02:09:46.648Z</time><hdop>3.75</hdop><vdop>2.625</vdop><extensions><gom:speed>0.0</gom:speed></extensions></trkpt>
   <trkpt lat="59.3258212947" lon="34.709508441"><ele>169.884</ele><time>2026-08-17T02:09:47.648Z</time><hdop>3.75</hdop><vdop>2.687</vdop><extensions><gom:speed>0.0</gom:speed></extensions></trkpt>
   <trkpt lat="59.3258212947" lon="34.709508441"><ele>169.898</ele><time>2026-08-17T02:09:48.648Z</time><hdop>3.75</hdop><vdop>2.625</vdop><extensions><gom:speed>0.0</gom:speed></extensions></trkpt>
   <trkpt lat="59.325821169" lon="34.7095083572"><ele>169.915</ele><time>2026-08-17T02:09:49.648Z</time><hdop>3.75</hdop><vdop>2.687</vdop><extensions><gom:speed>0.0</gom:speed></extensions></trkpt>
   <trkpt lat="59.325821169" lon="34.709508441"><ele>169.93</ele><time>2026-08-17T02:09:50.647Z</time><hdop>3.75</hdop><vdop>2.687</vdop><extensions><gom:speed>0.0</gom:speed></extensions></trkpt>
   <trkpt lat="59.325821169" lon="34.709508441"><ele>169.946</ele><time>2026-08-17T02:09:51.648Z</time><hdop>3.75</hdop><vdop>2.687</vdop><extensions><gom:speed>0.0</gom:speed></extensions></trkpt>
   <trkpt lat="59.325821169" lon="34.7095083572"><ele>169.964</ele><time>2026-08-17T02:09:52.648Z</time><hdop>3.75</hdop><vdop>2.75</vdop><extensions><gom:speed>0.0</gom:speed></extensions></trkpt>
   <trkpt lat="59.3258210852" lon="34.7095083572"><ele>169.98</ele><time>2026-08-17T02:09:53.648Z</time><hdop>3.75</hdop><vdop>2.75</vdop><extensions><gom:speed>0.0</gom:speed></extensions></trkpt>
   <trkpt lat="59.3258210852" lon="34.7095083572"><ele>169.996</ele><time>2026-08-17T02:09:54.648Z</time><hdop>3.75</hdop><vdop>2.75</vdop><extensions><gom:speed>0.0</gom:speed></extensions></trkpt>
   <trkpt lat="59.3258209594" lon="34.7095081896"><ele>170.013</ele><time>2026-08-17T02:09:55.647Z</time><hdop>3.75</hdop><vdop>2.75</vdop><extensions><gom:speed>0.0</gom:speed></extensions></trkpt>
   <trkpt lat="59.3258208756" lon="34.7095080219"><ele>170.032</ele><time>2026-08-17T02:09:56.649Z</time><hdop>3.75</hdop><vdop>2.812</vdop><extensions><gom:speed>0.0</gom:speed></extensions></trkpt>
   <trkpt lat="59.3258207918" lon="34.7095079381"><ele>170.045</ele><time>2026-08-17T02:09:57.647Z</time><hdop>3.75</hdop><vdop>2.75</vdop><extensions><gom:speed>0.0</gom:speed></extensions></trkpt>
   <trkpt lat="59.3258207918" lon="34.7095079381"><ele>170.054</ele><time>2026-08-17T02:09:58.648Z</time><hdop>3.75</hdop><vdop>2.687</vdop><extensions><gom:speed>0.0</gom:speed></extensions></trkpt>
   <trkpt lat="59.3258207918" lon="34.7095077705"><ele>170.068</ele><time>2026-08-17T02:09:59.648Z</time><hdop>3.75</hdop><vdop>2.687</vdop><extensions><gom:speed>0.0</gom:speed></extensions></trkpt>
   <trkpt lat="59.3258206661" lon="34.7095076867"><ele>170.086</ele><time>2026-08-17T02:10:00.648Z</time><hdop>3.75</hdop><vdop>2.687</vdop><extensions><gom:speed>0.0</gom:speed></extensions></trkpt>
   <trkpt lat="59.3258205822" lon="34.7095076867"><ele>170.102</ele><time>2026-08-17T02:10:01.648Z</time><hdop>3.75</hdop><vdop>2.625</vdop><extensions><gom:speed>0.0</gom:speed></extensions></trkpt>
   <trkpt lat="59.3258205822" lon="34.709507519"><ele>170.116</ele><time>2026-08-17T02:10:02.649Z</time><hdop>3.75</hdop><vdop>2.625</vdop><extensions><gom:speed>0.0</gom:speed></extensions></trkpt>
   <trkpt lat="59.3258205822" lon="34.7095074352"><ele>170.129</ele><time>2026-08-17T02:10:03.648Z</time><hdop>3.75</hdop><vdop>2.562</vdop><extensions><gom:speed>0.0</gom:speed></extensions></trkpt>
   <trkpt lat="59.3258205822" lon="34.7095074352"><ele>170.138</ele><time>2026-08-17T02:10:04.647Z</time><hdop>3.75</hdop><vdop>2.562</vdop><extensions><gom:speed>0.0</gom:speed></extensions></trkpt>
   <trkpt lat="59.3258205822" lon="34.7095073514"><ele>170.143</ele><time>2026-08-17T02:10:05.648Z</time><hdop>3.75</hdop><vdop>2.562</vdop><extensions><gom:speed>0.0</gom:speed></extensions></trkpt>
   <trkpt lat="59.3258205822" lon="34.7095073514"><ele>170.146</ele><time>2026-08-17T02:10:06.648Z</time><hdop>3.75</hdop><vdop>2.5</vdop><extensions><gom:speed>0.0</gom:speed></extensions></trkpt>
   <trkpt lat="59.3258205822" lon="34.7095073514"><ele>170.148</ele><time>2026-08-17T02:10:07.648Z</time><hdop>3.75</hdop><vdop>2.5</vdop><extensions><gom:speed>0.0</gom:speed></extensions></trkpt>
   <trkpt lat="59.3258205822" lon="34.7095073514"><ele>170.149</ele><time>2026-08-17T02:10:08.648Z</time><hdop>3.75</hdop><vdop>2.5</vdop><extensions><gom:speed>0.0</gom:speed></extensions></trkpt>
   <trkpt lat="59.3258214623" lon="34.7095036634"><ele>170.279</ele><time>2026-08-17T02:10:09.648Z</time><hdop>3.75</hdop><vdop>2.5</vdop><extensions><gom:speed>0.0</gom:speed></extensions></trkpt>
   <trkpt lat="59.3258225939" lon="34.709501065"><ele>170.365</ele><time>2026-08-17T02:10:10.649Z</time><hdop>3.75</hdop><vdop>2.812</vdop><extensions><gom:speed>0.0</gom:speed></extensions></trkpt>
   <trkpt lat="59.3258228873" lon="34.7095004782"><ele>170.415</ele><time>2026-08-17T02:10:11.648Z</time><hdop>4.812</hdop><vdop>2.812</vdop><extensions><gom:speed>0.0</gom:speed></extensions></trkpt>
   <trkpt lat="59.3258228873" lon="34.7095002268"><ele>170.445</ele><time>2026-08-17T02:10:12.648Z</time><hdop>5.812</hdop><vdop>2.812</vdop><extensions><gom:speed>0.0</gom:speed></extensions></trkpt>
   <trkpt lat="59.3258227615" lon="34.709500143"><ele>170.466</ele><time>2026-08-17T02:10:13.648Z</time><hdop>6.187</hdop><vdop>2.937</vdop><extensions><gom:speed>0.0</gom:speed></extensions></trkpt>
   <trkpt lat="59.3258217976" lon="34.7094976284"><ele>170.688</ele><time>2026-08-17T02:10:14.647Z</time><hdop>5.812</hdop><vdop>2.75</vdop><extensions><gom:speed>0.0</gom:speed></extensions></trkpt>
   <trkpt lat="59.3258236836" lon="34.7094993886"><ele>170.745</ele><time>2026-08-17T02:10:15.648Z</time><hdop>5.812</hdop><vdop>2.687</vdop><extensions><gom:speed>0.0</gom:speed></extensions></trkpt>
   <trkpt lat="59.3258265753" lon="34.709500143"><ele>170.785</ele><time>2026-08-17T02:10:16.648Z</time><hdop>5.0</hdop><vdop>2.687</vdop><extensions><gom:speed>0.0</gom:speed></extensions></trkpt>
   <trkpt lat="59.325827162" lon="34.7095000591"><ele>170.812</ele><time>2026-08-17T02:10:17.648Z</time><hdop>3.75</hdop><vdop>2.687</vdop><extensions><gom:speed>0.0</gom:speed></extensions></trkpt>
   <trkpt lat="59.3258272878" lon="34.7094999753"><ele>170.831</ele><time>2026-08-17T02:10:18.647Z</time><hdop>3.75</hdop><vdop>2.562</vdop><extensions><gom:speed>0.0</gom:speed></extensions></trkpt>
   <trkpt lat="59.3258272878" lon="34.7094999753"><ele>170.843</ele><time>2026-08-17T02:10:19.648Z</time><hdop>3.75</hdop><vdop>2.625</vdop><extensions><gom:speed>0.0</gom:speed></extensions></trkpt>
   <trkpt lat="59.3258273716" lon="34.7094998915"><ele>170.851</ele><time>2026-08-17T02:10:20.647Z</time><hdop>3.75</hdop><vdop>2.687</vdop><extensions><gom:speed>0.0</gom:speed></extensions></trkpt>
   <trkpt lat="59.3258273716" lon="34.7094998915"><ele>170.856</ele><time>2026-08-17T02:10:21.648Z</time><hdop>3.75</hdop><vdop>2.812</vdop><extensions><gom:speed>0.0</gom:speed></extensions></trkpt>
   <trkpt lat="59.3258274973" lon="34.7094999753"><ele>170.858</ele><time>2026-08-17T02:10:22.648Z</time><hdop>3.75</hdop><vdop>2.812</vdop><extensions><gom:speed>0.0</gom:speed></extensions></trkpt>
   <trkpt lat="59.3258274973" lon="34.7094998915"><ele>170.864</ele><time>2026-08-17T02:10:23.648Z</time><hdop>3.75</hdop><vdop>2.562</vdop><extensions><gom:speed>0.0</gom:speed></extensions></trkpt>
   <trkpt lat="59.3258273716" lon="34.7094997239"><ele>170.875</ele><time>2026-08-17T02:10:24.647Z</time><hdop>3.75</hdop><vdop>2.687</vdop><extensions><gom:speed>0.0</gom:speed></extensions></trkpt>
   <trkpt lat="59.3258272878" lon="34.70949964"><ele>170.891</ele><time>2026-08-17T02:10:25.648Z</time><hdop>3.75</hdop><vdop>2.75</vdop><extensions><gom:speed>0.0</gom:speed></extensions></trkpt>
   <trkpt lat="59.3258272878" lon="34.7094995562"><ele>170.902</ele><time>2026-08-17T02:10:26.648Z</time><hdop>3.75</hdop><vdop>2.75</vdop><extensions><gom:speed>0.0</gom:speed></extensions></trkpt>
   <trkpt lat="59.325827162" lon="34.7094994724"><ele>170.917</ele><time>2026-08-17T02:10:27.648Z</time><hdop>3.75</hdop><vdop>2.75</vdop><extensions><gom:speed>0.0</gom:speed></extensions></trkpt>
   <trkpt lat="59.325827162" lon="34.7094994724"><ele>170.926</ele><time>2026-08-17T02:10:28.648Z</time><hdop>3.75</hdop><vdop>2.875</vdop><extensions><gom:speed>0.0</gom:speed></extensions></trkpt>
   <trkpt lat="59.325827162" lon="34.7094993886"><ele>170.94</ele><time>2026-08-17T02:10:29.648Z</time><hdop>3.75</hdop><vdop>2.875</vdop><extensions><gom:speed>0.0</gom:speed></extensions></trkpt>
   <trkpt lat="59.325827162" lon="34.7094993886"><ele>170.949</ele><time>2026-08-17T02:10:30.648Z</time><hdop>3.75</hdop><vdop>2.875</vdop><extensions><gom:speed>0.0</gom:speed></extensions></trkpt>
   <trkpt lat="59.3258272878" lon="34.7094992209"><ele>170.96</ele><time>2026-08-17T02:10:31.648Z</time><hdop>3.75</hdop><vdop>2.937</vdop><extensions><gom:speed>0.0</gom:speed></extensions></trkpt>
   <trkpt lat="59.3258273716" lon="34.7094991371"><ele>170.97</ele><time>2026-08-17T02:10:32.648Z</time><hdop>3.75</hdop><vdop>2.937</vdop><extensions><gom:speed>0.0</gom:speed></extensions></trkpt>
   <trkpt lat="59.3258273716" lon="34.7094991371"><ele>170.976</ele><time>2026-08-17T02:10:33.647Z</time><hdop>3.75</hdop><vdop>2.937</vdop><extensions><gom:speed>0.0</gom:speed></extensions></trkpt>
   <trkpt lat="59.3258273716" lon="34.7094991371"><ele>170.979</ele><time>2026-08-17T02:10:34.648Z</time><hdop>3.75</hdop><vdop>3.0</vdop><extensions><gom:speed>0.0</gom:speed></extensions></trkpt>
   <trkpt lat="59.3258273716" lon="34.7094991371"><ele>170.981</ele><time>2026-08-17T02:10:35.648Z</time><hdop>3.75</hdop><vdop>3.062</vdop><extensions><gom:speed>0.0</gom:speed></extensions></trkpt>
   <trkpt lat="59.3258273716" lon="34.7094991371"><ele>170.981</ele><time>2026-08-17T02:10:36.648Z</time><hdop>3.75</hdop><vdop>3.062</vdop><extensions><gom:speed>0.0</gom:speed></extensions></trkpt>
   <trkpt lat="59.3258273716" lon="34.7094991371"><ele>170.98</ele><time>2026-08-17T02:10:37.648Z</time><hdop>3.75</hdop><vdop>3.0</vdop><extensions><gom:speed>0.0</gom:speed></extensions></trkpt>
   <trkpt lat="59.3258273716" lon="34.7094992209"><ele>170.98</ele><time>2026-08-17T02:10:38.647Z</time><hdop>3.75</hdop><vdop>3.0</vdop><extensions><gom:speed>0.0</gom:speed></extensions></trkpt>
   <trkpt lat="59.3258273716" lon="34.7094992209"><ele>170.979</ele><time>2026-08-17T02:10:39.648Z</time><hdop>3.75</hdop><vdop>2.875</vdop><extensions><gom:speed>0.0</gom:speed></extensions></trkpt>
   <trkpt lat="59.3258272878" lon="34.7094990533"><ele>170.98</ele><time>2026-08-17T02:10:40.648Z</time><hdop>3.75</hdop><vdop>2.937</vdop><extensions><gom:speed>0.0</gom:speed></extensions></trkpt>
   <trkpt lat="59.3258272878" lon="34.7094989695"><ele>170.981</ele><time>2026-08-17T02:10:41.648Z</time><hdop>3.75</hdop><vdop>2.875</vdop><extensions><gom:speed>0.0</gom:speed></extensions></trkpt>
   <trkpt lat="59.3258272878" lon="34.7094988857"><ele>170.981</ele><time>2026-08-17T02:10:42.648Z</time><hdop>3.75</hdop><vdop>2.875</vdop><extensions><gom:speed>0.0</gom:speed></extensions></trkpt>
   <trkpt lat="59.3258272878" lon="34.7094988857"><ele>170.981</ele><time>2026-08-17T02:10:43.648Z</time><hdop>3.75</hdop><vdop>2.875</vdop><extensions><gom:speed>0.0</gom:speed></extensions></trkpt>
   <trkpt lat="59.3258272878" lon="34.7094989695"><ele>170.98</ele><time>2026-08-17T02:10:44.648Z</time><hdop>3.75</hdop><vdop>2.937</vdop><extensions><gom:speed>0.0</gom:speed></extensions></trkpt>
   <trkpt lat="59.3258272878" lon="34.7094989695"><ele>170.979</ele><time>2026-08-17T02:10:45.647Z</time><hdop>3.75</hdop><vdop>2.812</vdop><extensions><gom:speed>0.0</gom:speed></extensions></trkpt>
   <trkpt lat="59.3258272878" lon="34.7094989695"><ele>170.978</ele><time>2026-08-17T02:10:46.649Z</time><hdop>3.75</hdop><vdop>2.875</vdop><extensions><gom:speed>0.0</gom:speed></extensions></trkpt>
   <trkpt lat="59.3258272878" lon="34.7094989695"><ele>170.977</ele><time>2026-08-17T02:10:47.649Z</time><hdop>3.75</hdop><vdop>2.687</vdop><extensions><gom:speed>0.0</gom:speed></extensions></trkpt>
   <trkpt lat="59.3258272878" lon="34.7094988857"><ele>170.976</ele><time>2026-08-17T02:10:48.648Z</time><hdop>3.75</hdop><vdop>2.687</vdop><extensions><gom:speed>0.0</gom:speed></extensions></trkpt>
   <trkpt lat="59.3258272878" lon="34.7094988857"><ele>170.975</ele><time>2026-08-17T02:10:49.648Z</time><hdop>3.75</hdop><vdop>2.687</vdop><extensions><gom:speed>0.0</gom:speed></extensions></trkpt>
   <trkpt lat="59.3258272878" lon="34.7094988857"><ele>170.974</ele><time>2026-08-17T02:10:50.648Z</time><hdop>3.75</hdop><vdop>2.812</vdop><extensions><gom:speed>0.0</gom:speed></extensions></trkpt>
   <trkpt lat="59.3258272878" lon="34.7094988857"><ele>170.973</ele><time>2026-08-17T02:10:51.648Z</time><hdop>3.75</hdop><vdop>2.75</vdop><extensions><gom:speed>0.0</gom:speed></extensions></trkpt>
   <trkpt lat="59.3258272878" lon="34.7094988857"><ele>170.973</ele><time>2026-08-17T02:10:52.647Z</time><hdop>3.75</hdop><vdop>2.875</vdop><extensions><gom:speed>0.0</gom:speed></extensions></trkpt>
   <trkpt lat="59.3258272878" lon="34.7094989695"><ele>170.972</ele><time>2026-08-17T02:10:53.648Z</time><hdop>3.75</hdop><vdop>3.0</vdop><extensions><gom:speed>0.0</gom:speed></extensions></trkpt>
   <trkpt lat="59.3258272878" lon="34.7094989695"><ele>170.971</ele><time>2026-08-17T02:10:54.648Z</time><hdop>3.75</hdop><vdop>2.812</vdop><extensions><gom:speed>0.0</gom:speed></extensions></trkpt>
   <trkpt lat="59.325827162" lon="34.7094989695"><ele>170.97</ele><time>2026-08-17T02:10:55.648Z</time><hdop>3.75</hdop><vdop>2.625</vdop><extensions><gom:speed>0.0</gom:speed></extensions></trkpt>
   <trkpt lat="59.325827162" lon="34.7094990533"><ele>170.968</ele><time>2026-08-17T02:10:56.649Z</time><hdop>3.75</hdop><vdop>2.625</vdop><extensions><gom:speed>0.0</gom:speed></extensions></trkpt>
   <trkpt lat="59.325827162" lon="34.7094990533"><ele>170.967</ele><time>2026-08-17T02:10:57.648Z</time><hdop>3.75</hdop><vdop>2.625</vdop><extensions><gom:speed>0.0</gom:speed></extensions></trkpt>
   <trkpt lat="59.325827162" lon="34.7094990533"><ele>170.966</ele><time>2026-08-17T02:10:58.648Z</time><hdop>3.75</hdop><vdop>2.625</vdop><extensions><gom:speed>0.0</gom:speed></extensions></trkpt>
   <trkpt lat="59.325827162" lon="34.7094990533"><ele>170.964</ele><time>2026-08-17T02:10:59.648Z</time><hdop>3.75</hdop><vdop>2.687</vdop><extensions><gom:speed>0.0</gom:speed></extensions></trkpt>
   <trkpt lat="59.3258272878" lon="34.7094990533"><ele>170.964</ele><time>2026-08-17T02:11:00.648Z</time><hdop>3.75</hdop><vdop>2.562</vdop><extensions><gom:speed>0.0</gom:speed></extensions></trkpt>
   <trkpt lat="59.3258272878" lon="34.7094989695"><ele>170.964</ele><time>2026-08-17T02:11:01.648Z</time><hdop>3.75</hdop><vdop>2.562</vdop><extensions><gom:speed>0.0</gom:speed></extensions></trkpt>
   <trkpt lat="59.3258272878" lon="34.7094989695"><ele>170.965</ele><time>2026-08-17T02:11:02.648Z</time><hdop>3.75</hdop><vdop>2.625</vdop><extensions><gom:speed>0.0</gom:speed></extensions></trkpt>
   <trkpt lat="59.3258272878" lon="34.7094988857"><ele>170.965</ele><time>2026-08-17T02:11:03.648Z</time><hdop>3.75</hdop><vdop>2.562</vdop><extensions><gom:speed>0.0</gom:speed></extensions></trkpt>
   <trkpt lat="59.3258272878" lon="34.7094988857"><ele>170.965</ele><time>2026-08-17T02:11:04.648Z</time><hdop>3.75</hdop><vdop>2.625</vdop><extensions><gom:speed>0.0</gom:speed></extensions></trkpt>
   <trkpt lat="59.3258273716" lon="34.709498718"><ele>170.966</ele><time>2026-08-17T02:11:05.648Z</time><hdop>3.75</hdop><vdop>2.812</vdop><extensions><gom:speed>0.0</gom:speed></extensions></trkpt>
   <trkpt lat="59.3258273716" lon="34.709498718"><ele>170.966</ele><time>2026-08-17T02:11:06.648Z</time><hdop>3.75</hdop><vdop>2.625</vdop><extensions><gom:speed>0.0</gom:speed></extensions></trkpt>
   <trkpt lat="59.3258273716" lon="34.709498718"><ele>170.966</ele><time>2026-08-17T02:11:07.649Z</time><hdop>3.75</hdop><vdop>2.5</vdop><extensions><gom:speed>0.0</gom:speed></extensions></trkpt>
   <trkpt lat="59.3258273716" lon="34.7094986342"><ele>170.967</ele><time>2026-08-17T02:11:08.648Z</time><hdop>3.75</hdop><vdop>2.5</vdop><extensions><gom:speed>0.0</gom:speed></extensions></trkpt>
   <trkpt lat="59.3258273716" lon="34.7094986342"><ele>170.967</ele><time>2026-08-17T02:11:09.648Z</time><hdop>3.75</hdop><vdop>2.5</vdop><extensions><gom:speed>0.0</gom:speed></extensions></trkpt>
   <trkpt lat="59.3258272878" lon="34.7094984666"><ele>170.975</ele><time>2026-08-17T02:11:10.648Z</time><hdop>3.75</hdop><vdop>2.5</vdop><extensions><gom:speed>0.0</gom:speed></extensions></trkpt>
   <trkpt lat="59.3258289641" lon="34.7095020708"><ele>171.085</ele><time>2026-08-17T02:11:11.648Z</time><hdop>3.75</hdop><vdop>2.5</vdop><extensions><gom:speed>0.259</gom:speed></extensions></trkpt>
   <trkpt lat="59.3258278745" lon="34.7095057588"><ele>171.391</ele><time>2026-08-17T02:11:12.648Z</time><hdop>3.75</hdop><vdop>2.5</vdop><extensions><gom:speed>0.0</gom:speed></extensions></trkpt>
   <trkpt lat="59.325827665" lon="34.7095067647"><ele>171.574</ele><time>2026-08-17T02:11:13.648Z</time><hdop>3.75</hdop><vdop>2.5</vdop><extensions><gom:speed>0.0</gom:speed></extensions></trkpt>
   <trkpt lat="59.3258275811" lon="34.7095071838"><ele>171.686</ele><time>2026-08-17T02:11:14.648Z</time><hdop>3.75</hdop><vdop>2.5</vdop><extensions><gom:speed>0.0</gom:speed></extensions></trkpt>
   <trkpt lat="59.3258274973" lon="34.7095072676"><ele>171.756</ele><time>2026-08-17T02:11:15.648Z</time><hdop>3.75</hdop><vdop>2.5</vdop><extensions><gom:speed>0.0</gom:speed></extensions></trkpt>
   <trkpt lat="59.3258274973" lon="34.7095073514"><ele>171.802</ele><time>2026-08-17T02:11:16.648Z</time><hdop>3.75</hdop><vdop>2.5</vdop><extensions><gom:speed>0.0</gom:speed></extensions></trkpt>
   <trkpt lat="59.3258274973" lon="34.7095073514"><ele>171.835</ele><time>2026-08-17T02:11:17.648Z</time><hdop>3.75</hdop><vdop>2.5</vdop><extensions><gom:speed>0.0</gom:speed></extensions></trkpt>
   <trkpt lat="59.3258274973" lon="34.7095074352"><ele>171.859</ele><time>2026-08-17T02:11:18.648Z</time><hdop>3.75</hdop><vdop>2.5</vdop><extensions><gom:speed>0.0</gom:speed></extensions></trkpt>
   <trkpt lat="59.3258274973" lon="34.7095074352"><ele>171.883</ele><time>2026-08-17T02:11:19.648Z</time><hdop>3.75</hdop><vdop>2.5</vdop><extensions><gom:speed>0.0</gom:speed></extensions></trkpt>
   <trkpt lat="59.3258274973" lon="34.7095074352"><ele>171.905</ele><time>2026-08-17T02:11:20.648Z</time><hdop>3.75</hdop><vdop>2.5</vdop><extensions><gom:speed>0.0</gom:speed></extensions></trkpt>
   <trkpt lat="59.3258275811" lon="34.7095073514"><ele>171.924</ele><time>2026-08-17T02:11:21.648Z</time><hdop>3.75</hdop><vdop>2.5</vdop><extensions><gom:speed>0.0</gom:speed></extensions></trkpt>
   <trkpt lat="59.3258275811" lon="34.7095074352"><ele>171.942</ele><time>2026-08-17T02:11:22.648Z</time><hdop>3.75</hdop><vdop>2.5</vdop><extensions><gom:speed>0.0</gom:speed></extensions></trkpt>
   <trkpt lat="59.3258275811" lon="34.7095074352"><ele>171.956</ele><time>2026-08-17T02:11:23.647Z</time><hdop>3.75</hdop><vdop>2.5</vdop><extensions><gom:speed>0.0</gom:speed></extensions></trkpt>
   <trkpt lat="59.3258287965" lon="34.7095070999"><ele>172.204</ele><time>2026-08-17T02:11:24.648Z</time><hdop>3.75</hdop><vdop>2.5</vdop><extensions><gom:speed>0.0</gom:speed></extensions></trkpt>
   <trkpt lat="59.3258287965" lon="34.7095070999"><ele>172.304</ele><time>2026-08-17T02:11:25.648Z</time><hdop>3.75</hdop><vdop>2.5</vdop><extensions><gom:speed>0.0</gom:speed></extensions></trkpt>
   <trkpt lat="59.3258287965" lon="34.7095070999"><ele>172.368</ele><time>2026-08-17T02:11:26.649Z</time><hdop>3.75</hdop><vdop>2.5</vdop><extensions><gom:speed>0.0</gom:speed></extensions></trkpt>
   <trkpt lat="59.3258287965" lon="34.7095070999"><ele>172.407</ele><time>2026-08-17T02:11:27.648Z</time><hdop>3.75</hdop><vdop>2.5</vdop><extensions><gom:speed>0.0</gom:speed></extensions></trkpt>
   <trkpt lat="59.3258287965" lon="34.7095069323"><ele>172.433</ele><time>2026-08-17T02:11:28.648Z</time><hdop>3.75</hdop><vdop>2.5</vdop><extensions><gom:speed>0.0</gom:speed></extensions></trkpt>
   <trkpt lat="59.3258279583" lon="34.7095122967"><ele>172.238</ele><time>2026-08-17T02:11:29.648Z</time><hdop>3.75</hdop><vdop>2.5</vdop><extensions><gom:speed>0.0</gom:speed></extensions></trkpt>
   <trkpt lat="59.325827665" lon="34.7095129673"><ele>172.143</ele><time>2026-08-17T02:11:30.648Z</time><hdop>3.75</hdop><vdop>2.5</vdop><extensions><gom:speed>0.0</gom:speed></extensions></trkpt>
   <trkpt lat="59.325827665" lon="34.7095130511"><ele>172.085</ele><time>2026-08-17T02:11:31.649Z</time><hdop>3.75</hdop><vdop>2.5</vdop><extensions><gom:speed>0.0</gom:speed></extensions></trkpt>
   <trkpt lat="59.325827665" lon="34.7095131349"><ele>172.055</ele><time>2026-08-17T02:11:32.647Z</time><hdop>3.75</hdop><vdop>2.5</vdop><extensions><gom:speed>0.0</gom:speed></extensions></trkpt>
   <trkpt lat="59.3258275811" lon="34.7095132187"><ele>172.037</ele><time>2026-08-17T02:11:33.648Z</time><hdop>3.75</hdop><vdop>2.5</vdop><extensions><gom:speed>0.0</gom:speed></extensions></trkpt>
   <trkpt lat="59.3258275811" lon="34.7095132187"><ele>172.029</ele><time>2026-08-17T02:11:34.648Z</time><hdop>3.75</hdop><vdop>2.5</vdop><extensions><gom:speed>0.0</gom:speed></extensions></trkpt>
   <trkpt lat="59.3258274973" lon="34.7095133864"><ele>172.029</ele><time>2026-08-17T02:11:35.648Z</time><hdop>3.75</hdop><vdop>2.5</vdop><extensions><gom:speed>0.0</gom:speed></extensions></trkpt>
   <trkpt lat="59.325827162" lon="34.7095168229"><ele>171.896</ele><time>2026-08-17T02:11:36.648Z</time><hdop>3.75</hdop><vdop>2.5</vdop><extensions><gom:speed>0.159</gom:speed></extensions></trkpt>
   <trkpt lat="59.3258264915" lon="34.709518164"><ele>171.82</ele><time>2026-08-17T02:11:37.648Z</time><hdop>3.75</hdop><vdop>2.5</vdop><extensions><gom:speed>0.0</gom:speed></extensions></trkpt>
   <trkpt lat="59.3258261981" lon="34.7095183317"><ele>171.782</ele><time>2026-08-17T02:11:38.648Z</time><hdop>3.75</hdop><vdop>2.5</vdop><extensions><gom:speed>0.0</gom:speed></extensions></trkpt>
   <trkpt lat="59.3258259886" lon="34.7095185831"><ele>171.764</ele><time>2026-08-17T02:11:39.648Z</time><hdop>3.75</hdop><vdop>2.5</vdop><extensions><gom:speed>0.0</gom:speed></extensions></trkpt>
   <trkpt lat="59.3258259886" lon="34.709518667"><ele>171.756</ele><time>2026-08-17T02:11:40.648Z</time><hdop>3.75</hdop><vdop>2.5</vdop><extensions><gom:speed>0.0</gom:speed></extensions></trkpt>
   <trkpt lat="59.3258259886" lon="34.709518667"><ele>171.75</ele><time>2026-08-17T02:11:41.648Z</time><hdop>3.75</hdop><vdop>2.5</vdop><extensions><gom:speed>0.0</gom:speed></extensions></trkpt>
   <trkpt lat="59.3258259886" lon="34.709518667"><ele>171.746</ele><time>2026-08-17T02:11:42.649Z</time><hdop>3.75</hdop><vdop>2.5</vdop><extensions><gom:speed>0.0</gom:speed></extensions></trkpt>
   <trkpt lat="59.3258259886" lon="34.709518667"><ele>171.744</ele><time>2026-08-17T02:11:43.649Z</time><hdop>3.75</hdop><vdop>2.5</vdop><extensions><gom:speed>0.0</gom:speed></extensions></trkpt>
   <trkpt lat="59.3258259886" lon="34.7095185831"><ele>171.746</ele><time>2026-08-17T02:11:44.647Z</time><hdop>3.75</hdop><vdop>2.5</vdop><extensions><gom:speed>0.0</gom:speed></extensions></trkpt>
   <trkpt lat="59.3258258628" lon="34.7095185831"><ele>171.746</ele><time>2026-08-17T02:11:45.649Z</time><hdop>3.75</hdop><vdop>2.5</vdop><extensions><gom:speed>0.0</gom:speed></extensions></trkpt>
   <trkpt lat="59.3258236836" lon="34.7095155657"><ele>171.712</ele><time>2026-08-17T02:11:46.647Z</time><hdop>3.75</hdop><vdop>2.5</vdop><extensions><gom:speed>0.0</gom:speed></extensions></trkpt>
   <trkpt lat="59.3258252761" lon="34.7095146436"><ele>171.927</ele><time>2026-08-17T02:11:47.648Z</time><hdop>3.75</hdop><vdop>2.5</vdop><extensions><gom:speed>0.159</gom:speed></extensions></trkpt>
   <trkpt lat="59.3258237674" lon="34.7095100336"><ele>171.908</ele><time>2026-08-17T02:11:48.648Z</time><hdop>3.75</hdop><vdop>2.5</vdop><extensions><gom:speed>0.229</gom:speed></extensions></trkpt>
   <trkpt lat="59.3258226777" lon="34.7095059265"><ele>171.992</ele><time>2026-08-17T02:11:49.648Z</time><hdop>3.75</hdop><vdop>2.5</vdop><extensions><gom:speed>0.169</gom:speed></extensions></trkpt>
   <trkpt lat="59.3258213785" lon="34.7095027413"><ele>172.286</ele><time>2026-08-17T02:11:50.647Z</time><hdop>3.75</hdop><vdop>2.5</vdop><extensions><gom:speed>0.0</gom:speed></extensions></trkpt>
   <trkpt lat="59.3258208756" lon="34.7095018193"><ele>172.468</ele><time>2026-08-17T02:11:51.647Z</time><hdop>3.75</hdop><vdop>2.5</vdop><extensions><gom:speed>0.0</gom:speed></extensions></trkpt>
   <trkpt lat="59.3258207918" lon="34.7095016517"><ele>172.58</ele><time>2026-08-17T02:11:52.648Z</time><hdop>3.75</hdop><vdop>2.5</vdop><extensions><gom:speed>0.0</gom:speed></extensions></trkpt>
   <trkpt lat="59.3258207918" lon="34.7094955329"><ele>172.422</ele><time>2026-08-17T02:11:53.648Z</time><hdop>3.75</hdop><vdop>2.5</vdop><extensions><gom:speed>0.189</gom:speed></extensions></trkpt>
   <trkpt lat="59.325824396" lon="34.7094884921"><ele>172.47</ele><time>2026-08-17T02:11:54.648Z</time><hdop>3.75</hdop><vdop>2.5</vdop><extensions><gom:speed>0.169</gom:speed></extensions></trkpt>
   <trkpt lat="59.3258269944" lon="34.7094808646"><ele>172.472</ele><time>2026-08-17T02:11:55.648Z</time><hdop>3.75</hdop><vdop>2.5</vdop><extensions><gom:speed>0.289</gom:speed></extensions></trkpt>
   <trkpt lat="59.325827665" lon="34.7094722312"><ele>172.687</ele><time>2026-08-17T02:11:56.648Z</time><hdop>3.75</hdop><vdop>2.5</vdop><extensions><gom:speed>0.189</gom:speed></extensions></trkpt>
   <trkpt lat="59.32582997" lon="34.7094619215"><ele>172.791</ele><time>2026-08-17T02:11:57.647Z</time><hdop>3.75</hdop><vdop>2.5</vdop><extensions><gom:speed>0.479</gom:speed></extensions></trkpt>
   <trkpt lat="59.3258252761" lon="34.7094548807"><ele>172.479</ele><time>2026-08-17T02:11:58.648Z</time><hdop>3.75</hdop><vdop>2.5</vdop><extensions><gom:speed>0.0</gom:speed></extensions></trkpt>
   <trkpt lat="59.325825779" lon="34.7094785176"><ele>172.094</ele><time>2026-08-17T02:11:59.657Z</time><hdop>3.625</hdop><vdop>2.5</vdop><extensions><gom:speed>0.131</gom:speed></extensions></trkpt>
   <trkpt lat="59.3258248989" lon="34.7094688785"><ele>171.865</ele><time>2026-08-17T02:12:00.668Z</time><hdop>3.375</hdop><vdop>2.5</vdop><extensions><gom:speed>0.159</gom:speed></extensions></trkpt>
   <trkpt lat="59.325823474" lon="34.709459826"><ele>171.511</ele><time>2026-08-17T02:12:01.652Z</time><hdop>3.25</hdop><vdop>2.687</vdop><extensions><gom:speed>0.082</gom:speed></extensions></trkpt>
   <trkpt lat="59.3258227615" lon="34.7094502706"><ele>171.299</ele><time>2026-08-17T02:12:02.591Z</time><hdop>3.187</hdop><vdop>2.687</vdop><extensions><gom:speed>0.154</gom:speed></extensions></trkpt>
   <trkpt lat="59.3258216719" lon="34.7094354347"><ele>170.678</ele><time>2026-08-17T02:12:03.648Z</time><hdop>3.0</hdop><vdop>2.812</vdop><extensions><gom:speed>0.14</gom:speed></extensions></trkpt>
   <trkpt lat="59.3258222586" lon="34.709433423"><ele>170.081</ele><time>2026-08-17T02:12:04.655Z</time><hdop>3.0</hdop><vdop>2.812</vdop><extensions><gom:speed>0.148</gom:speed></extensions></trkpt>
   <trkpt lat="59.3258225939" lon="34.7094263822"><ele>169.725</ele><time>2026-08-17T02:12:05.211Z</time><hdop>3.0</hdop><vdop>2.812</vdop><extensions><gom:speed>0.141</gom:speed></extensions></trkpt>
   <trkpt lat="59.3258223844" lon="34.7094259631"><ele>169.824</ele><time>2026-08-17T02:12:05.666Z</time><hdop>3.0</hdop><vdop>2.875</vdop><extensions><gom:speed>0.126</gom:speed></extensions></trkpt>
   <trkpt lat="59.325823474" lon="34.709420934"><ele>170.321</ele><time>2026-08-17T02:12:06.652Z</time><hdop>3.0</hdop><vdop>2.75</vdop><extensions><gom:speed>0.11</gom:speed></extensions></trkpt>
   <trkpt lat="59.3258250666" lon="34.7094128873"><ele>170.493</ele><time>2026-08-17T02:12:07.652Z</time><hdop>3.0</hdop><vdop>2.625</vdop><extensions><gom:speed>0.132</gom:speed></extensions></trkpt>
   <trkpt lat="59.325828587" lon="34.7094021585"><ele>170.596</ele><time>2026-08-17T02:12:08.641Z</time><hdop>3.0</hdop><vdop>2.625</vdop><extensions><gom:speed>0.173</gom:speed></extensions></trkpt>
   <trkpt lat="59.3258312692" lon="34.7093910944"><ele>170.9</ele><time>2026-08-17T02:12:09.430Z</time><hdop>3.0</hdop><vdop>2.75</vdop><extensions><gom:speed>0.148</gom:speed></extensions></trkpt>
   <trkpt lat="59.32583458" lon="34.7093788568"><ele>171.206</ele><time>2026-08-17T02:12:10.513Z</time><hdop>3.0</hdop><vdop>2.687</vdop><extensions><gom:speed>0.172</gom:speed></extensions></trkpt>
   <trkpt lat="59.3258370946" lon="34.7093695529"><ele>171.238</ele><time>2026-08-17T02:12:11.656Z</time><hdop>3.0</hdop><vdop>2.687</vdop><extensions><gom:speed>0.178</gom:speed></extensions></trkpt>
   <trkpt lat="59.3258384776" lon="34.7093650267"><ele>171.324</ele><time>2026-08-17T02:12:12.652Z</time><hdop>3.0</hdop><vdop>2.875</vdop><extensions><gom:speed>0.071</gom:speed></extensions></trkpt>
   <trkpt lat="59.3258403635" lon="34.7093567286"><ele>171.384</ele><time>2026-08-17T02:12:13.652Z</time><hdop>3.0</hdop><vdop>2.75</vdop><extensions><gom:speed>0.07</gom:speed></extensions></trkpt>
   <trkpt lat="59.3258414951" lon="34.7093519509"><ele>171.535</ele><time>2026-08-17T02:12:14.652Z</time><hdop>3.0</hdop><vdop>2.687</vdop><extensions><gom:speed>0.042</gom:speed></extensions></trkpt>
   <trkpt lat="59.3258416627" lon="34.709346335"><ele>171.325</ele><time>2026-08-17T02:12:15.652Z</time><hdop>3.0</hdop><vdop>2.75</vdop><extensions><gom:speed>0.042</gom:speed></extensions></trkpt>
   <trkpt lat="59.3258411598" lon="34.7093406353"><ele>171.2</ele><time>2026-08-17T02:12:16.704Z</time><hdop>3.0</hdop><vdop>2.75</vdop><extensions><gom:speed>0.07</gom:speed></extensions></trkpt>
   <trkpt lat="59.3258398606" lon="34.7093350195"><ele>170.738</ele><time>2026-08-17T02:12:17.652Z</time><hdop>3.0</hdop><vdop>2.75</vdop><extensions><gom:speed>0.082</gom:speed></extensions></trkpt>
   <trkpt lat="59.3258389805" lon="34.7093281463"><ele>170.67</ele><time>2026-08-17T02:12:18.657Z</time><hdop>3.0</hdop><vdop>2.562</vdop><extensions><gom:speed>0.099</gom:speed></extensions></trkpt>
   <trkpt lat="59.3258383938" lon="34.7093191777"><ele>170.629</ele><time>2026-08-17T02:12:19.274Z</time><hdop>3.0</hdop><vdop>2.562</vdop><extensions><gom:speed>0.163</gom:speed></extensions></trkpt>
   <trkpt lat="59.3258379747" lon="34.7093103767"><ele>170.432</ele><time>2026-08-17T02:12:20.033Z</time><hdop>3.0</hdop><vdop>2.5</vdop><extensions><gom:speed>0.129</gom:speed></extensions></trkpt>
   <trkpt lat="59.3258380585" lon="34.7093098738"><ele>170.44</ele><time>2026-08-17T02:12:20.652Z</time><hdop>3.0</hdop><vdop>2.5</vdop><extensions><gom:speed>0.095</gom:speed></extensions></trkpt>
   <trkpt lat="59.3258377651" lon="34.7093021624"><ele>170.445</ele><time>2026-08-17T02:12:21.105Z</time><hdop>3.0</hdop><vdop>2.5</vdop><extensions><gom:speed>0.087</gom:speed></extensions></trkpt>
   <trkpt lat="59.3258380585" lon="34.7092947863"><ele>170.32</ele><time>2026-08-17T02:12:21.648Z</time><hdop>3.0</hdop><vdop>2.5</vdop><extensions><gom:speed>0.115</gom:speed></extensions></trkpt>
   <trkpt lat="59.3258382681" lon="34.7092936967"><ele>170.245</ele><time>2026-08-17T02:12:22.127Z</time><hdop>3.0</hdop><vdop>2.5</vdop><extensions><gom:speed>0.121</gom:speed></extensions></trkpt>
   <trkpt lat="59.3258384776" lon="34.7092924394"><ele>170.079</ele><time>2026-08-17T02:12:22.652Z</time><hdop>3.0</hdop><vdop>2.5</vdop><extensions><gom:speed>0.126</gom:speed></extensions></trkpt>
   <trkpt lat="59.325839693" lon="34.7092843928"><ele>169.98</ele><time>2026-08-17T02:12:23.250Z</time><hdop>3.0</hdop><vdop>2.5</vdop><extensions><gom:speed>0.171</gom:speed></extensions></trkpt>
   <trkpt lat="59.3258420818" lon="34.7092774358"><ele>169.753</ele><time>2026-08-17T02:12:24.373Z</time><hdop>3.0</hdop><vdop>2.562</vdop><extensions><gom:speed>0.204</gom:speed></extensions></trkpt>
   <trkpt lat="59.3258460632" lon="34.7092686348"><ele>169.471</ele><time>2026-08-17T02:12:25.648Z</time><hdop>3.0</hdop><vdop>2.5</vdop><extensions><gom:speed>0.199</gom:speed></extensions></trkpt>
   <trkpt lat="59.3258503799" lon="34.7092607558"><ele>169.493</ele><time>2026-08-17T02:12:26.648Z</time><hdop>3.0</hdop><vdop>2.687</vdop><extensions><gom:speed>0.337</gom:speed></extensions></trkpt>
   <trkpt lat="59.3258500865" lon="34.7092609234"><ele>169.612</ele><time>2026-08-17T02:12:27.652Z</time><hdop>3.0</hdop><vdop>3.0</vdop><extensions><gom:speed>0.157</gom:speed></extensions></trkpt>
   <trkpt lat="59.3258534812" lon="34.7092586603"><ele>169.601</ele><time>2026-08-17T02:12:28.652Z</time><hdop>3.0</hdop><vdop>3.125</vdop><extensions><gom:speed>0.131</gom:speed></extensions></trkpt>
   <trkpt lat="59.3258587618" lon="34.709254637"><ele>169.595</ele><time>2026-08-17T02:12:29.493Z</time><hdop>3.0</hdop><vdop>3.125</vdop><extensions><gom:speed>0.212</gom:speed></extensions></trkpt>
   <trkpt lat="59.3258617793" lon="34.7092532959"><ele>169.94</ele><time>2026-08-17T02:12:30.130Z</time><hdop>3.0</hdop><vdop>3.312</vdop><extensions><gom:speed>0.183</gom:speed></extensions></trkpt>
   <trkpt lat="59.3258618631" lon="34.7092542179"><ele>170.592</ele><time>2026-08-17T02:12:30.656Z</time><hdop>3.0</hdop><vdop>3.125</vdop><extensions><gom:speed>0.116</gom:speed></extensions></trkpt>
   <trkpt lat="59.3258669761" lon="34.7092493564"><ele>171.022</ele><time>2026-08-17T02:12:31.652Z</time><hdop>3.0</hdop><vdop>2.875</vdop><extensions><gom:speed>0.115</gom:speed></extensions></trkpt>
   <trkpt lat="59.3258707898" lon="34.7092454169"><ele>171.107</ele><time>2026-08-17T02:12:32.652Z</time><hdop>3.0</hdop><vdop>2.625</vdop><extensions><gom:speed>0.059</gom:speed></extensions></trkpt>
   <trkpt lat="59.3258756933" lon="34.7092233725"><ele>170.916</ele><time>2026-08-17T02:12:33.648Z</time><hdop>3.0</hdop><vdop>2.625</vdop><extensions><gom:speed>0.162</gom:speed></extensions></trkpt>
   <trkpt lat="59.3258756933" lon="34.7092228696"><ele>170.802</ele><time>2026-08-17T02:12:34.592Z</time><hdop>3.0</hdop><vdop>2.625</vdop><extensions><gom:speed>0.107</gom:speed></extensions></trkpt>
   <trkpt lat="59.3258767829" lon="34.7092104644"><ele>170.258</ele><time>2026-08-17T02:12:35.654Z</time><hdop>3.0</hdop><vdop>2.75</vdop><extensions><gom:speed>0.122</gom:speed></extensions></trkpt>
   <trkpt lat="59.3258767829" lon="34.7091889229"><ele>169.931</ele><time>2026-08-17T02:12:36.648Z</time><hdop>3.0</hdop><vdop>2.75</vdop><extensions><gom:speed>0.185</gom:speed></extensions></trkpt>
   <trkpt lat="59.3258775792" lon="34.7091904316"><ele>169.762</ele><time>2026-08-17T02:12:37.652Z</time><hdop>3.0</hdop><vdop>2.687</vdop><extensions><gom:speed>0.069</gom:speed></extensions></trkpt>
   <trkpt lat="59.3258770763" lon="34.7091825526"><ele>169.565</ele><time>2026-08-17T02:12:38.649Z</time><hdop>3.0</hdop><vdop>2.562</vdop><extensions><gom:speed>0.127</gom:speed></extensions></trkpt>
   <trkpt lat="59.3258755675" lon="34.7091758471"><ele>169.442</ele><time>2026-08-17T02:12:39.660Z</time><hdop>3.0</hdop><vdop>2.5</vdop><extensions><gom:speed>0.085</gom:speed></extensions></trkpt>
   <trkpt lat="59.3258709994" lon="34.7091670461"><ele>168.932</ele><time>2026-08-17T02:12:40.648Z</time><hdop>3.0</hdop><vdop>2.625</vdop><extensions><gom:speed>0.093</gom:speed></extensions></trkpt>
   <trkpt lat="59.3258673952" lon="34.709168052"><ele>168.184</ele><time>2026-08-17T02:12:41.648Z</time><hdop>3.0</hdop><vdop>2.562</vdop><extensions><gom:speed>0.117</gom:speed></extensions></trkpt>
   <trkpt lat="59.3258676885" lon="34.709168974"><ele>167.52</ele><time>2026-08-17T02:12:42.652Z</time><hdop>3.0</hdop><vdop>2.5</vdop><extensions><gom:speed>0.1</gom:speed></extensions></trkpt>
   <trkpt lat="59.325863791" lon="34.7091742546"><ele>167.124</ele><time>2026-08-17T02:12:43.485Z</time><hdop>3.0</hdop><vdop>2.5</vdop><extensions><gom:speed>0.165</gom:speed></extensions></trkpt>
   <trkpt lat="59.3258608992" lon="34.7091768529"><ele>166.86</ele><time>2026-08-17T02:12:44.113Z</time><hdop>3.0</hdop><vdop>2.5</vdop><extensions><gom:speed>0.109</gom:speed></extensions></trkpt>
   <trkpt lat="59.3258605639" lon="34.7091762662"><ele>166.669</ele><time>2026-08-17T02:12:44.652Z</time><hdop>3.0</hdop><vdop>2.5</vdop><extensions><gom:speed>0.114</gom:speed></extensions></trkpt>
   <trkpt lat="59.3258561634" lon="34.7091808763"><ele>166.397</ele><time>2026-08-17T02:12:45.650Z</time><hdop>3.0</hdop><vdop>2.5</vdop><extensions><gom:speed>0.16</gom:speed></extensions></trkpt>
   <trkpt lat="59.3258555767" lon="34.7091802895"><ele>166.305</ele><time>2026-08-17T02:12:46.662Z</time><hdop>3.0</hdop><vdop>2.5</vdop><extensions><gom:speed>0.125</gom:speed></extensions></trkpt>
   <trkpt lat="59.3258545709" lon="34.7091801219"><ele>166.178</ele><time>2026-08-17T02:12:47.652Z</time><hdop>3.0</hdop><vdop>2.562</vdop><extensions><gom:speed>0.087</gom:speed></extensions></trkpt>
   <trkpt lat="59.3258519725" lon="34.7091795352"><ele>166.108</ele><time>2026-08-17T02:12:48.649Z</time><hdop>3.0</hdop><vdop>2.562</vdop><extensions><gom:speed>0.152</gom:speed></extensions></trkpt>
   <trkpt lat="59.3258522658" lon="34.7091801219"><ele>166.065</ele><time>2026-08-17T02:12:49.171Z</time><hdop>3.0</hdop><vdop>2.562</vdop><extensions><gom:speed>0.108</gom:speed></extensions></trkpt>
   <trkpt lat="59.3258522658" lon="34.7091801219"><ele>166.076</ele><time>2026-08-17T02:12:49.652Z</time><hdop>3.0</hdop><vdop>2.562</vdop><extensions><gom:speed>0.083</gom:speed></extensions></trkpt>
   <trkpt lat="59.3258505895" lon="34.7091780264"><ele>166.083</ele><time>2026-08-17T02:12:50.294Z</time><hdop>3.062</hdop><vdop>2.562</vdop><extensions><gom:speed>0.158</gom:speed></extensions></trkpt>
   <trkpt lat="59.3258504637" lon="34.709177272"><ele>166.084</ele><time>2026-08-17T02:12:50.769Z</time><hdop>3.125</hdop><vdop>2.687</vdop><extensions><gom:speed>0.139</gom:speed></extensions></trkpt>
   <trkpt lat="59.3258503799" lon="34.7091775235"><ele>166.407</ele><time>2026-08-17T02:12:51.652Z</time><hdop>3.187</hdop><vdop>2.5</vdop><extensions><gom:speed>0.111</gom:speed></extensions></trkpt>
   <trkpt lat="59.3258485778" lon="34.7091743384"><ele>166.601</ele><time>2026-08-17T02:12:52.648Z</time><hdop>3.25</hdop><vdop>2.562</vdop><extensions><gom:speed>0.173</gom:speed></extensions></trkpt>
   <trkpt lat="59.325847572" lon="34.7091743384"><ele>166.412</ele><time>2026-08-17T02:12:53.663Z</time><hdop>3.375</hdop><vdop>2.5</vdop><extensions><gom:speed>0.169</gom:speed></extensions></trkpt>
   <trkpt lat="59.3258467757" lon="34.7091724944"><ele>166.333</ele><time>2026-08-17T02:12:54.653Z</time><hdop>3.562</hdop><vdop>2.625</vdop><extensions><gom:speed>0.147</gom:speed></extensions></trkpt>
   <trkpt lat="59.3258463985" lon="34.7091707342"><ele>166.304</ele><time>2026-08-17T02:12:55.652Z</time><hdop>3.562</hdop><vdop>2.937</vdop><extensions><gom:speed>0.111</gom:speed></extensions></trkpt>
   <trkpt lat="59.3258458956" lon="34.709168974"><ele>166.124</ele><time>2026-08-17T02:12:56.653Z</time><hdop>3.687</hdop><vdop>2.937</vdop><extensions><gom:speed>0.118</gom:speed></extensions></trkpt>
   <trkpt lat="59.3258462728" lon="34.7091658727"><ele>166.052</ele><time>2026-08-17T02:12:57.652Z</time><hdop>3.75</hdop><vdop>2.812</vdop><extensions><gom:speed>0.096</gom:speed></extensions></trkpt>
   <trkpt lat="59.3258469852" lon="34.7091631904"><ele>166.028</ele><time>2026-08-17T02:12:58.653Z</time><hdop>3.75</hdop><vdop>2.937</vdop><extensions><gom:speed>0.044</gom:speed></extensions></trkpt>
   <trkpt lat="59.3258470691" lon="34.7091609273"><ele>166.033</ele><time>2026-08-17T02:12:59.652Z</time><hdop>3.812</hdop><vdop>3.062</vdop><extensions><gom:speed>0.036</gom:speed></extensions></trkpt>
   <trkpt lat="59.3258482844" lon="34.7091553953"><ele>165.63</ele><time>2026-08-17T02:13:00.647Z</time><hdop>3.875</hdop><vdop>3.062</vdop><extensions><gom:speed>0.109</gom:speed></extensions></trkpt>
   <trkpt lat="59.3258481587" lon="34.7091546409"><ele>165.475</ele><time>2026-08-17T02:13:01.652Z</time><hdop>3.875</hdop><vdop>2.937</vdop><extensions><gom:speed>0.049</gom:speed></extensions></trkpt>
   <trkpt lat="59.3258494998" lon="34.7091520425"><ele>165.382</ele><time>2026-08-17T02:13:02.333Z</time><hdop>3.875</hdop><vdop>2.937</vdop><extensions><gom:speed>0.085</gom:speed></extensions></trkpt>
   <trkpt lat="59.3258506733" lon="34.7091514558"><ele>165.315</ele><time>2026-08-17T02:13:03.659Z</time><hdop>3.812</hdop><vdop>2.812</vdop><extensions><gom:speed>0.047</gom:speed></extensions></trkpt>
   <trkpt lat="59.3258517629" lon="34.7091489412"><ele>165.242</ele><time>2026-08-17T02:13:04.671Z</time><hdop>3.812</hdop><vdop>2.562</vdop><extensions><gom:speed>0.076</gom:speed></extensions></trkpt>
   <trkpt lat="59.3258523916" lon="34.7091463428"><ele>165.198</ele><time>2026-08-17T02:13:05.490Z</time><hdop>3.812</hdop><vdop>2.562</vdop><extensions><gom:speed>0.142</gom:speed></extensions></trkpt>
   <trkpt lat="59.3258530621" lon="34.7091438283"><ele>165.566</ele><time>2026-08-17T02:13:05.986Z</time><hdop>3.812</hdop><vdop>2.75</vdop><extensions><gom:speed>0.123</gom:speed></extensions></trkpt>
   <trkpt lat="59.3258518887" lon="34.7091435768"><ele>165.928</ele><time>2026-08-17T02:13:06.652Z</time><hdop>3.875</hdop><vdop>2.875</vdop><extensions><gom:speed>0.088</gom:speed></extensions></trkpt>
   <trkpt lat="59.3258514696" lon="34.7091423195"><ele>166.145</ele><time>2026-08-17T02:13:07.625Z</time><hdop>3.875</hdop><vdop>2.875</vdop><extensions><gom:speed>0.132</gom:speed></extensions></trkpt>
   <trkpt lat="59.325850799" lon="34.7091395535"><ele>166.193</ele><time>2026-08-17T02:13:08.272Z</time><hdop>3.937</hdop><vdop>2.937</vdop><extensions><gom:speed>0.113</gom:speed></extensions></trkpt>
   <trkpt lat="59.325849877" lon="34.7091353625"><ele>165.568</ele><time>2026-08-17T02:13:08.950Z</time><hdop>3.937</hdop><vdop>2.937</vdop><extensions><gom:speed>0.122</gom:speed></extensions></trkpt>
   <trkpt lat="59.3258493741" lon="34.7091343567"><ele>164.879</ele><time>2026-08-17T02:13:09.652Z</time><hdop>3.937</hdop><vdop>2.875</vdop><extensions><gom:speed>0.137</gom:speed></extensions></trkpt>
   <trkpt lat="59.3258471948" lon="34.7091281541"><ele>164.481</ele><time>2026-08-17T02:13:10.652Z</time><hdop>3.937</hdop><vdop>2.687</vdop><extensions><gom:speed>0.134</gom:speed></extensions></trkpt>
   <trkpt lat="59.3258446802" lon="34.7091180958"><ele>164.243</ele><time>2026-08-17T02:13:11.648Z</time><hdop>3.937</hdop><vdop>2.687</vdop><extensions><gom:speed>0.156</gom:speed></extensions></trkpt>
   <trkpt lat="59.325845267" lon="34.7091190178"><ele>164.102</ele><time>2026-08-17T02:13:12.652Z</time><hdop>3.937</hdop><vdop>2.687</vdop><extensions><gom:speed>0.063</gom:speed></extensions></trkpt>
   <trkpt lat="59.3258444707" lon="34.709114743"><ele>164.02</ele><time>2026-08-17T02:13:13.652Z</time><hdop>3.937</hdop><vdop>2.562</vdop><extensions><gom:speed>0.046</gom:speed></extensions></trkpt>
   <trkpt lat="59.3258430877" lon="34.7091075346"><ele>163.974</ele><time>2026-08-17T02:13:14.648Z</time><hdop>3.812</hdop><vdop>2.5</vdop><extensions><gom:speed>0.086</gom:speed></extensions></trkpt>
   <trkpt lat="59.3258439678" lon="34.7091089595"><ele>163.951</ele><time>2026-08-17T02:13:15.652Z</time><hdop>3.812</hdop><vdop>2.5</vdop><extensions><gom:speed>0.015</gom:speed></extensions></trkpt>
   <trkpt lat="59.325843381" lon="34.709107367"><ele>163.94</ele><time>2026-08-17T02:13:16.652Z</time><hdop>3.812</hdop><vdop>2.5</vdop><extensions><gom:speed>0.023</gom:speed></extensions></trkpt>
   <trkpt lat="59.3258434648" lon="34.7091039304"><ele>164.283</ele><time>2026-08-17T02:13:17.652Z</time><hdop>3.75</hdop><vdop>2.5</vdop><extensions><gom:speed>0.021</gom:speed></extensions></trkpt>
   <trkpt lat="59.3258430877" lon="34.7091008291"><ele>164.511</ele><time>2026-08-17T02:13:18.652Z</time><hdop>3.687</hdop><vdop>2.5</vdop><extensions><gom:speed>0.017</gom:speed></extensions></trkpt>
   <trkpt lat="59.3258420818" lon="34.7090988174"><ele>164.644</ele><time>2026-08-17T02:13:19.664Z</time><hdop>3.687</hdop><vdop>2.5</vdop><extensions><gom:speed>0.015</gom:speed></extensions></trkpt>
   <trkpt lat="59.3258418723" lon="34.7090968896"><ele>164.725</ele><time>2026-08-17T02:13:20.652Z</time><hdop>3.625</hdop><vdop>2.5</vdop><extensions><gom:speed>0.04</gom:speed></extensions></trkpt>
   <trkpt lat="59.3258407826" lon="34.7090936207"><ele>164.777</ele><time>2026-08-17T02:13:21.668Z</time><hdop>3.625</hdop><vdop>2.5</vdop><extensions><gom:speed>0.032</gom:speed></extensions></trkpt>
   <trkpt lat="59.3258402797" lon="34.7090895973"><ele>164.81</ele><time>2026-08-17T02:13:22.649Z</time><hdop>3.5</hdop><vdop>2.5</vdop><extensions><gom:speed>0.073</gom:speed></extensions></trkpt>
   <trkpt lat="59.3258399864" lon="34.7090869989"><ele>164.832</ele><time>2026-08-17T02:13:23.648Z</time><hdop>3.437</hdop><vdop>2.5</vdop><extensions><gom:speed>0.099</gom:speed></extensions></trkpt>
   <trkpt lat="59.3258389805" lon="34.7090830595"><ele>164.849</ele><time>2026-08-17T02:13:24.648Z</time><hdop>3.437</hdop><vdop>2.5</vdop><extensions><gom:speed>0.104</gom:speed></extensions></trkpt>
   <trkpt lat="59.3258399864" lon="34.7090830595"><ele>164.867</ele><time>2026-08-17T02:13:25.654Z</time><hdop>3.437</hdop><vdop>2.5</vdop><extensions><gom:speed>0.096</gom:speed></extensions></trkpt>
   <trkpt lat="59.3258402797" lon="34.7090794552"><ele>164.877</ele><time>2026-08-17T02:13:26.231Z</time><hdop>3.375</hdop><vdop>2.5</vdop><extensions><gom:speed>0.066</gom:speed></extensions></trkpt>
   <trkpt lat="59.325839693" lon="34.7090760187"><ele>164.93</ele><time>2026-08-17T02:13:27.657Z</time><hdop>3.187</hdop><vdop>2.5</vdop><extensions><gom:speed>0.043</gom:speed></extensions></trkpt>
   <trkpt lat="59.3258375975" lon="34.7090723306"><ele>165.13</ele><time>2026-08-17T02:13:28.588Z</time><hdop>3.125</hdop><vdop>2.5</vdop><extensions><gom:speed>0.095</gom:speed></extensions></trkpt>
   <trkpt lat="59.3258362983" lon="34.7090708219"><ele>165.237</ele><time>2026-08-17T02:13:29.610Z</time><hdop>3.062</hdop><vdop>2.5</vdop><extensions><gom:speed>0.118</gom:speed></extensions></trkpt>
   <trkpt lat="59.3258323588" lon="34.7090669662"><ele>165.537</ele><time>2026-08-17T02:13:30.652Z</time><hdop>3.0</hdop><vdop>2.5</vdop><extensions><gom:speed>0.149</gom:speed></extensions></trkpt>
   <trkpt lat="59.325830892" lon="34.7090652898"><ele>165.676</ele><time>2026-08-17T02:13:31.652Z</time><hdop>3.0</hdop><vdop>2.5</vdop><extensions><gom:speed>0.117</gom:speed></extensions></trkpt>
   <trkpt lat="59.3258287965" lon="34.7090619371"><ele>165.759</ele><time>2026-08-17T02:13:32.645Z</time><hdop>3.0</hdop><vdop>2.5</vdop><extensions><gom:speed>0.155</gom:speed></extensions></trkpt>
   <trkpt lat="59.3258237674" lon="34.7090552315"><ele>165.658</ele><time>2026-08-17T02:13:33.647Z</time><hdop>3.0</hdop><vdop>2.5</vdop><extensions><gom:speed>0.231</gom:speed></extensions></trkpt>
   <trkpt lat="59.3258227615" lon="34.7090500348"><ele>165.359</ele><time>2026-08-17T02:13:34.274Z</time><hdop>3.0</hdop><vdop>2.5</vdop><extensions><gom:speed>0.16</gom:speed></extensions></trkpt>
   <trkpt lat="59.3258214623" lon="34.7090411499"><ele>165.365</ele><time>2026-08-17T02:13:35.093Z</time><hdop>3.0</hdop><vdop>2.687</vdop><extensions><gom:speed>0.189</gom:speed></extensions></trkpt>
   <trkpt lat="59.3258201632" lon="34.7090270683"><ele>165.121</ele><time>2026-08-17T02:13:35.648Z</time><hdop>3.0</hdop><vdop>2.75</vdop><extensions><gom:speed>0.308</gom:speed></extensions></trkpt>
   <trkpt lat="59.3258199955" lon="34.7090255596"><ele>164.956</ele><time>2026-08-17T02:13:36.662Z</time><hdop>3.0</hdop><vdop>2.5</vdop><extensions><gom:speed>0.216</gom:speed></extensions></trkpt>
   <trkpt lat="59.3258203727" lon="34.709013322"><ele>164.858</ele><time>2026-08-17T02:13:37.633Z</time><hdop>3.0</hdop><vdop>2.5</vdop><extensions><gom:speed>0.191</gom:speed></extensions></trkpt>
   <trkpt lat="59.3258198698" lon="34.7089970611"><ele>164.649</ele><time>2026-08-17T02:13:38.493Z</time><hdop>3.0</hdop><vdop>2.5</vdop><extensions><gom:speed>0.316</gom:speed></extensions></trkpt>
   <trkpt lat="59.3258204984" lon="34.7089844883"><ele>164.353</ele><time>2026-08-17T02:13:39.333Z</time><hdop>3.0</hdop><vdop>2.687</vdop><extensions><gom:speed>0.333</gom:speed></extensions></trkpt>
   <trkpt lat="59.3258237674" lon="34.7089658804"><ele>164.579</ele><time>2026-08-17T02:13:40.192Z</time><hdop>3.0</hdop><vdop>2.937</vdop><extensions><gom:speed>0.421</gom:speed></extensions></trkpt>
   <trkpt lat="59.3258286708" lon="34.7089524694"><ele>164.672</ele><time>2026-08-17T02:13:40.648Z</time><hdop>3.0</hdop><vdop>3.312</vdop><extensions><gom:speed>0.48</gom:speed></extensions></trkpt>
   <trkpt lat="59.3258293832" lon="34.7089511283"><ele>164.893</ele><time>2026-08-17T02:13:41.652Z</time><hdop>3.0</hdop><vdop>3.0</vdop><extensions><gom:speed>0.28</gom:speed></extensions></trkpt>
   <trkpt lat="59.3258358792" lon="34.7089378849"><ele>165.025</ele><time>2026-08-17T02:13:42.408Z</time><hdop>3.0</hdop><vdop>3.0</vdop><extensions><gom:speed>0.307</gom:speed></extensions></trkpt>
   <trkpt lat="59.3258440935" lon="34.7089257311"><ele>165.194</ele><time>2026-08-17T02:13:43.288Z</time><hdop>3.0</hdop><vdop>2.812</vdop><extensions><gom:speed>0.309</gom:speed></extensions></trkpt>
   <trkpt lat="59.3258541937" lon="34.7089106437"><ele>165.182</ele><time>2026-08-17T02:13:44.209Z</time><hdop>3.0</hdop><vdop>2.75</vdop><extensions><gom:speed>0.365</gom:speed></extensions></trkpt>
   <trkpt lat="59.3258634976" lon="34.7088963945"><ele>165.704</ele><time>2026-08-17T02:13:45.110Z</time><hdop>3.0</hdop><vdop>2.75</vdop><extensions><gom:speed>0.364</gom:speed></extensions></trkpt>
   <trkpt lat="59.3258642939" lon="34.7088944666"><ele>166.148</ele><time>2026-08-17T02:13:45.652Z</time><hdop>3.0</hdop><vdop>2.812</vdop><extensions><gom:speed>0.286</gom:speed></extensions></trkpt>
   <trkpt lat="59.3258694907" lon="34.7088871744"><ele>166.413</ele><time>2026-08-17T02:13:46.131Z</time><hdop>3.0</hdop><vdop>2.812</vdop><extensions><gom:speed>0.302</gom:speed></extensions></trkpt>
   <trkpt lat="59.3258700774" lon="34.7088859171"><ele>166.638</ele><time>2026-08-17T02:13:46.653Z</time><hdop>3.0</hdop><vdop>3.0</vdop><extensions><gom:speed>0.216</gom:speed></extensions></trkpt>
   <trkpt lat="59.3258772858" lon="34.7088711649"><ele>166.825</ele><time>2026-08-17T02:13:47.648Z</time><hdop>3.0</hdop><vdop>3.062</vdop><extensions><gom:speed>0.286</gom:speed></extensions></trkpt>
   <trkpt lat="59.3258760704" lon="34.7088722546"><ele>166.922</ele><time>2026-08-17T02:13:48.661Z</time><hdop>3.0</hdop><vdop>3.187</vdop><extensions><gom:speed>0.098</gom:speed></extensions></trkpt>
   <trkpt lat="59.3258777887" lon="34.7088698238"><ele>166.971</ele><time>2026-08-17T02:13:49.652Z</time><hdop>3.0</hdop><vdop>3.125</vdop><extensions><gom:speed>0.053</gom:speed></extensions></trkpt>
   <trkpt lat="59.3258793813" lon="34.7088665549"><ele>167.0</ele><time>2026-08-17T02:13:50.652Z</time><hdop>3.0</hdop><vdop>3.0</vdop><extensions><gom:speed>0.043</gom:speed></extensions></trkpt>
   <trkpt lat="59.3258812672" lon="34.708863286"><ele>167.029</ele><time>2026-08-17T02:13:51.655Z</time><hdop>3.0</hdop><vdop>3.0</vdop><extensions><gom:speed>0.104</gom:speed></extensions></trkpt>
   <trkpt lat="59.3258837818" lon="34.7088620287"><ele>167.056</ele><time>2026-08-17T02:13:52.648Z</time><hdop>3.0</hdop><vdop>3.0</vdop><extensions><gom:speed>0.071</gom:speed></extensions></trkpt>
   <trkpt lat="59.3258834884" lon="34.7088621963"><ele>167.086</ele><time>2026-08-17T02:13:53.652Z</time><hdop>3.0</hdop><vdop>3.0</vdop><extensions><gom:speed>0.026</gom:speed></extensions></trkpt>
   <trkpt lat="59.3258845781" lon="34.7088624478"><ele>167.112</ele><time>2026-08-17T02:13:54.671Z</time><hdop>3.0</hdop><vdop>3.0</vdop><extensions><gom:speed>0.013</gom:speed></extensions></trkpt>
   <trkpt lat="59.325885081" lon="34.708861861"><ele>167.126</ele><time>2026-08-17T02:13:55.662Z</time><hdop>3.0</hdop><vdop>3.0</vdop><extensions><gom:speed>0.015</gom:speed></extensions></trkpt>
   <trkpt lat="59.3258858773" lon="34.7088617772"><ele>167.143</ele><time>2026-08-17T02:13:56.653Z</time><hdop>3.0</hdop><vdop>3.0</vdop><extensions><gom:speed>0.059</gom:speed></extensions></trkpt>
   <trkpt lat="59.3258868831" lon="34.7088612743"><ele>167.16</ele><time>2026-08-17T02:13:57.665Z</time><hdop>3.0</hdop><vdop>3.0</vdop><extensions><gom:speed>0.019</gom:speed></extensions></trkpt>
   <trkpt lat="59.325887386" lon="34.7088597656"><ele>167.171</ele><time>2026-08-17T02:13:58.652Z</time><hdop>3.0</hdop><vdop>3.062</vdop><extensions><gom:speed>0.016</gom:speed></extensions></trkpt>
   <trkpt lat="59.3258872603" lon="34.7088616934"><ele>167.186</ele><time>2026-08-17T02:13:59.653Z</time><hdop>3.0</hdop><vdop>3.062</vdop><extensions><gom:speed>0.02</gom:speed></extensions></trkpt>
   <trkpt lat="59.3258879727" lon="34.7088628669"><ele>167.197</ele><time>2026-08-17T02:14:00.652Z</time><hdop>3.0</hdop><vdop>3.187</vdop><extensions><gom:speed>0.016</gom:speed></extensions></trkpt>
   <trkpt lat="59.3258881823" lon="34.7088629507"><ele>167.201</ele><time>2026-08-17T02:14:01.647Z</time><hdop>3.0</hdop><vdop>3.25</vdop><extensions><gom:speed>0.058</gom:speed></extensions></trkpt>
   <trkpt lat="59.3258885595" lon="34.7088655491"><ele>167.202</ele><time>2026-08-17T02:14:02.653Z</time><hdop>3.0</hdop><vdop>3.187</vdop><extensions><gom:speed>0.01</gom:speed></extensions></trkpt>
   <trkpt lat="59.3258889786" lon="34.7088643756"><ele>167.201</ele><time>2026-08-17T02:14:03.652Z</time><hdop>3.0</hdop><vdop>3.125</vdop><extensions><gom:speed>0.016</gom:speed></extensions></trkpt>
   <trkpt lat="59.3258883918" lon="34.7088633698"><ele>167.198</ele><time>2026-08-17T02:14:04.652Z</time><hdop>3.0</hdop><vdop>3.062</vdop><extensions><gom:speed>0.014</gom:speed></extensions></trkpt>
   <trkpt lat="59.3258883918" lon="34.7088625316"><ele>167.195</ele><time>2026-08-17T02:14:05.652Z</time><hdop>3.0</hdop><vdop>3.0</vdop><extensions><gom:speed>0.013</gom:speed></extensions></trkpt>
   <trkpt lat="59.3258883918" lon="34.7088622801"><ele>167.192</ele><time>2026-08-17T02:14:06.648Z</time><hdop>3.0</hdop><vdop>2.937</vdop><extensions><gom:speed>0.014</gom:speed></extensions></trkpt>
   <trkpt lat="59.3258883918" lon="34.7088619448"><ele>167.188</ele><time>2026-08-17T02:14:07.652Z</time><hdop>3.0</hdop><vdop>2.937</vdop><extensions><gom:speed>0.015</gom:speed></extensions></trkpt>
   <trkpt lat="59.3258884757" lon="34.7088615258"><ele>167.185</ele><time>2026-08-17T02:14:08.652Z</time><hdop>3.0</hdop><vdop>2.812</vdop><extensions><gom:speed>0.026</gom:speed></extensions></trkpt>
   <trkpt lat="59.325888769" lon="34.7088601846"><ele>167.183</ele><time>2026-08-17T02:14:09.371Z</time><hdop>3.0</hdop><vdop>2.812</vdop><extensions><gom:speed>0.109</gom:speed></extensions></trkpt>
   <trkpt lat="59.3258894815" lon="34.7088584244"><ele>167.246</ele><time>2026-08-17T02:14:10.352Z</time><hdop>3.0</hdop><vdop>2.687</vdop><extensions><gom:speed>0.125</gom:speed></extensions></trkpt>
   <trkpt lat="59.3258897749" lon="34.7088556584"><ele>167.288</ele><time>2026-08-17T02:14:11.647Z</time><hdop>3.0</hdop><vdop>2.812</vdop><extensions><gom:speed>0.26</gom:speed></extensions></trkpt>
   <trkpt lat="59.3258912836" lon="34.7088525571"><ele>167.552</ele><time>2026-08-17T02:14:12.652Z</time><hdop>3.0</hdop><vdop>2.687</vdop><extensions><gom:speed>0.261</gom:speed></extensions></trkpt>
   <trkpt lat="59.3258902778" lon="34.708852138"><ele>167.71</ele><time>2026-08-17T02:14:13.652Z</time><hdop>3.0</hdop><vdop>2.75</vdop><extensions><gom:speed>0.08</gom:speed></extensions></trkpt>
   <trkpt lat="59.3258892719" lon="34.7088519704"><ele>167.886</ele><time>2026-08-17T02:14:14.662Z</time><hdop>3.0</hdop><vdop>2.937</vdop><extensions><gom:speed>0.064</gom:speed></extensions></trkpt>
   <trkpt lat="59.3258882661" lon="34.7088512998"><ele>167.99</ele><time>2026-08-17T02:14:15.652Z</time><hdop>3.0</hdop><vdop>2.937</vdop><extensions><gom:speed>0.113</gom:speed></extensions></trkpt>
   <trkpt lat="59.3258862964" lon="34.7088510484"><ele>168.053</ele><time>2026-08-17T02:14:16.648Z</time><hdop>3.0</hdop><vdop>3.0</vdop><extensions><gom:speed>0.079</gom:speed></extensions></trkpt>
   <trkpt lat="59.3258865897" lon="34.7088501264"><ele>168.092</ele><time>2026-08-17T02:14:17.652Z</time><hdop>3.0</hdop><vdop>3.062</vdop><extensions><gom:speed>0.08</gom:speed></extensions></trkpt>
   <trkpt lat="59.3258858773" lon="34.7088499587"><ele>168.106</ele><time>2026-08-17T02:14:18.652Z</time><hdop>3.0</hdop><vdop>3.25</vdop><extensions><gom:speed>0.07</gom:speed></extensions></trkpt>
   <trkpt lat="59.325885081" lon="34.7088492882"><ele>168.113</ele><time>2026-08-17T02:14:19.652Z</time><hdop>3.0</hdop><vdop>3.375</vdop><extensions><gom:speed>0.067</gom:speed></extensions></trkpt>
   <trkpt lat="59.3258835722" lon="34.7088485338"><ele>168.118</ele><time>2026-08-17T02:14:20.648Z</time><hdop>3.0</hdop><vdop>3.437</vdop><extensions><gom:speed>0.064</gom:speed></extensions></trkpt>
   <trkpt lat="59.3258831951" lon="34.7088479471"><ele>168.122</ele><time>2026-08-17T02:14:21.648Z</time><hdop>3.0</hdop><vdop>3.375</vdop><extensions><gom:speed>0.069</gom:speed></extensions></trkpt>
   <trkpt lat="59.3258832789" lon="34.7088472765"><ele>168.126</ele><time>2026-08-17T02:14:22.655Z</time><hdop>3.0</hdop><vdop>3.312</vdop><extensions><gom:speed>0.069</gom:speed></extensions></trkpt>
   <trkpt lat="59.3258825664" lon="34.7088459354"><ele>168.127</ele><time>2026-08-17T02:14:23.454Z</time><hdop>3.0</hdop><vdop>3.312</vdop><extensions><gom:speed>0.114</gom:speed></extensions></trkpt>
   <trkpt lat="59.3258818959" lon="34.7088449296"><ele>168.144</ele><time>2026-08-17T02:14:24.652Z</time><hdop>3.0</hdop><vdop>2.875</vdop><extensions><gom:speed>0.09</gom:speed></extensions></trkpt>
   <trkpt lat="59.3258812672" lon="34.708844259"><ele>168.154</ele><time>2026-08-17T02:14:25.609Z</time><hdop>3.0</hdop><vdop>2.875</vdop><extensions><gom:speed>0.083</gom:speed></extensions></trkpt>
   <trkpt lat="59.3258810996" lon="34.7088409901"><ele>168.201</ele><time>2026-08-17T02:14:26.408Z</time><hdop>3.0</hdop><vdop>3.0</vdop><extensions><gom:speed>0.415</gom:speed></extensions></trkpt>
   <trkpt lat="59.3258798842" lon="34.7088357933"><ele>168.438</ele><time>2026-08-17T02:14:27.653Z</time><hdop>3.0</hdop><vdop>3.0</vdop><extensions><gom:speed>0.287</gom:speed></extensions></trkpt>
   <trkpt lat="59.3258779983" lon="34.7088349551"><ele>168.491</ele><time>2026-08-17T02:14:28.665Z</time><hdop>3.0</hdop><vdop>2.875</vdop><extensions><gom:speed>0.093</gom:speed></extensions></trkpt>
   <trkpt lat="59.3258766991" lon="34.7088325244"><ele>168.526</ele><time>2026-08-17T02:14:29.652Z</time><hdop>3.0</hdop><vdop>2.75</vdop><extensions><gom:speed>0.045</gom:speed></extensions></trkpt>
   <trkpt lat="59.3258759866" lon="34.708828082"><ele>168.547</ele><time>2026-08-17T02:14:30.526Z</time><hdop>3.0</hdop><vdop>2.75</vdop><extensions><gom:speed>0.084</gom:speed></extensions></trkpt>
   <trkpt lat="59.3258753999" lon="34.7088242263"><ele>168.579</ele><time>2026-08-17T02:14:31.153Z</time><hdop>3.0</hdop><vdop>2.5</vdop><extensions><gom:speed>0.08</gom:speed></extensions></trkpt>
   <trkpt lat="59.3258754837" lon="34.7088247292"><ele>168.685</ele><time>2026-08-17T02:14:31.659Z</time><hdop>3.0</hdop><vdop>2.562</vdop><extensions><gom:speed>0.083</gom:speed></extensions></trkpt>
   <trkpt lat="59.3258761962" lon="34.7088133298"><ele>168.705</ele><time>2026-08-17T02:14:32.648Z</time><hdop>3.0</hdop><vdop>2.625</vdop><extensions><gom:speed>0.166</gom:speed></extensions></trkpt>
   <trkpt lat="59.3258767829" lon="34.7088127431"><ele>168.717</ele><time>2026-08-17T02:14:33.674Z</time><hdop>3.0</hdop><vdop>2.625</vdop><extensions><gom:speed>0.132</gom:speed></extensions></trkpt>
   <trkpt lat="59.3258773696" lon="34.7088070434"><ele>168.772</ele><time>2026-08-17T02:14:34.351Z</time><hdop>3.0</hdop><vdop>2.75</vdop><extensions><gom:speed>0.131</gom:speed></extensions></trkpt>
   <trkpt lat="59.3258777887" lon="34.7088029362"><ele>168.755</ele><time>2026-08-17T02:14:35.210Z</time><hdop>3.0</hdop><vdop>2.5</vdop><extensions><gom:speed>0.106</gom:speed></extensions></trkpt>
   <trkpt lat="59.3258787946" lon="34.7087991644"><ele>168.683</ele><time>2026-08-17T02:14:35.848Z</time><hdop>3.0</hdop><vdop>2.625</vdop><extensions><gom:speed>0.111</gom:speed></extensions></trkpt>
   <trkpt lat="59.3258784593" lon="34.7087976556"><ele>168.639</ele><time>2026-08-17T02:14:36.546Z</time><hdop>3.0</hdop><vdop>2.625</vdop><extensions><gom:speed>0.145</gom:speed></extensions></trkpt>
   <trkpt lat="59.3258774954" lon="34.7087917883"><ele>168.575</ele><time>2026-08-17T02:14:37.649Z</time><hdop>3.0</hdop><vdop>2.812</vdop><extensions><gom:speed>0.199</gom:speed></extensions></trkpt>
   <trkpt lat="59.3258755675" lon="34.7087860886"><ele>169.071</ele><time>2026-08-17T02:14:38.650Z</time><hdop>3.0</hdop><vdop>3.187</vdop><extensions><gom:speed>0.167</gom:speed></extensions></trkpt>
   <trkpt lat="59.325871167" lon="34.7087721747"><ele>169.216</ele><time>2026-08-17T02:14:39.389Z</time><hdop>3.0</hdop><vdop>3.375</vdop><extensions><gom:speed>0.342</gom:speed></extensions></trkpt>
   <trkpt lat="59.3258668923" lon="34.7087541536"><ele>169.31</ele><time>2026-08-17T02:14:40.107Z</time><hdop>3.0</hdop><vdop>3.375</vdop><extensions><gom:speed>0.4</gom:speed></extensions></trkpt>
   <trkpt lat="59.325865174" lon="34.7087311872"><ele>169.271</ele><time>2026-08-17T02:14:40.648Z</time><hdop>3.0</hdop><vdop>3.062</vdop><extensions><gom:speed>0.464</gom:speed></extensions></trkpt>
   <trkpt lat="59.3258647968" lon="34.7087247331"><ele>169.248</ele><time>2026-08-17T02:14:41.635Z</time><hdop>3.0</hdop><vdop>3.062</vdop><extensions><gom:speed>0.354</gom:speed></extensions></trkpt>
   <trkpt lat="59.3258668923" lon="34.7086859249"><ele>169.871</ele><time>2026-08-17T02:14:42.648Z</time><hdop>3.062</hdop><vdop>2.875</vdop><extensions><gom:speed>0.415</gom:speed></extensions></trkpt>
   <trkpt lat="59.3258663893" lon="34.7086857572"><ele>170.363</ele><time>2026-08-17T02:14:43.658Z</time><hdop>3.062</hdop><vdop>2.812</vdop><extensions><gom:speed>0.166</gom:speed></extensions></trkpt>
   <trkpt lat="59.3258726758" lon="34.7086598572"><ele>171.128</ele><time>2026-08-17T02:14:44.648Z</time><hdop>3.062</hdop><vdop>2.687</vdop><extensions><gom:speed>0.311</gom:speed></extensions></trkpt>
   <trkpt lat="59.3258734721" lon="34.7086647187"><ele>171.447</ele><time>2026-08-17T02:14:45.653Z</time><hdop>3.062</hdop><vdop>2.875</vdop><extensions><gom:speed>0.082</gom:speed></extensions></trkpt>
   <trkpt lat="59.3258792975" lon="34.7086539898"><ele>171.637</ele><time>2026-08-17T02:14:46.107Z</time><hdop>3.062</hdop><vdop>2.875</vdop><extensions><gom:speed>0.129</gom:speed></extensions></trkpt>
   <trkpt lat="59.3258795908" lon="34.7086540736"><ele>171.751</ele><time>2026-08-17T02:14:46.673Z</time><hdop>3.0</hdop><vdop>2.875</vdop><extensions><gom:speed>0.094</gom:speed></extensions></trkpt>
   <trkpt lat="59.3258851648" lon="34.7086392377"><ele>171.862</ele><time>2026-08-17T02:14:47.473Z</time><hdop>3.0</hdop><vdop>3.062</vdop><extensions><gom:speed>0.196</gom:speed></extensions></trkpt>
   <trkpt lat="59.3258886852" lon="34.7086290956"><ele>171.918</ele><time>2026-08-17T02:14:48.252Z</time><hdop>3.0</hdop><vdop>3.0</vdop><extensions><gom:speed>0.191</gom:speed></extensions></trkpt>
   <trkpt lat="59.3258912836" lon="34.7086195402"><ele>171.713</ele><time>2026-08-17T02:14:48.848Z</time><hdop>3.0</hdop><vdop>3.187</vdop><extensions><gom:speed>0.196</gom:speed></extensions></trkpt>
   <trkpt lat="59.3258911998" lon="34.7086163551"><ele>171.591</ele><time>2026-08-17T02:14:49.547Z</time><hdop>3.0</hdop><vdop>3.187</vdop><extensions><gom:speed>0.213</gom:speed></extensions></trkpt>
   <trkpt lat="59.3258936724" lon="34.7086007647"><ele>170.99</ele><time>2026-08-17T02:14:50.652Z</time><hdop>3.0</hdop><vdop>3.187</vdop><extensions><gom:speed>0.216</gom:speed></extensions></trkpt>
   <trkpt lat="59.3258966899" lon="34.7085942269"><ele>170.627</ele><time>2026-08-17T02:14:51.651Z</time><hdop>3.0</hdop><vdop>3.0</vdop><extensions><gom:speed>0.224</gom:speed></extensions></trkpt>
   <trkpt lat="59.3258995817" lon="34.7085906226"><ele>170.221</ele><time>2026-08-17T02:14:52.652Z</time><hdop>3.0</hdop><vdop>2.875</vdop><extensions><gom:speed>0.113</gom:speed></extensions></trkpt>
   <trkpt lat="59.3259031859" lon="34.7085828275"><ele>169.978</ele><time>2026-08-17T02:14:53.210Z</time><hdop>3.0</hdop><vdop>2.875</vdop><extensions><gom:speed>0.23</gom:speed></extensions></trkpt>
   <trkpt lat="59.3259075864" lon="34.7085706737"><ele>170.002</ele><time>2026-08-17T02:14:54.251Z</time><hdop>3.0</hdop><vdop>3.0</vdop><extensions><gom:speed>0.319</gom:speed></extensions></trkpt>
   <trkpt lat="59.3259111906" lon="34.7085666504"><ele>170.213</ele><time>2026-08-17T02:14:54.848Z</time><hdop>3.0</hdop><vdop>2.875</vdop><extensions><gom:speed>0.256</gom:speed></extensions></trkpt>
   <trkpt lat="59.3259112744" lon="34.7085618727"><ele>170.339</ele><time>2026-08-17T02:14:55.669Z</time><hdop>3.0</hdop><vdop>2.875</vdop><extensions><gom:speed>0.269</gom:speed></extensions></trkpt>
   <trkpt lat="59.3259153816" lon="34.7085517306"><ele>170.31</ele><time>2026-08-17T02:14:56.133Z</time><hdop>3.0</hdop><vdop>2.75</vdop><extensions><gom:speed>0.354</gom:speed></extensions></trkpt>
   <trkpt lat="59.3259155911" lon="34.7085519821"><ele>170.399</ele><time>2026-08-17T02:14:56.652Z</time><hdop>3.0</hdop><vdop>2.812</vdop><extensions><gom:speed>0.267</gom:speed></extensions></trkpt>
   <trkpt lat="59.3259194887" lon="34.7085432649"><ele>170.626</ele><time>2026-08-17T02:14:57.652Z</time><hdop>3.0</hdop><vdop>2.75</vdop><extensions><gom:speed>0.222</gom:speed></extensions></trkpt>
   <trkpt lat="59.3259229672" lon="34.7085422591"><ele>170.768</ele><time>2026-08-17T02:14:58.653Z</time><hdop>3.0</hdop><vdop>2.875</vdop><extensions><gom:speed>0.094</gom:speed></extensions></trkpt>
   <trkpt lat="59.325925859" lon="34.7085398283"><ele>170.853</ele><time>2026-08-17T02:14:59.664Z</time><hdop>3.0</hdop><vdop>2.937</vdop><extensions><gom:speed>0.035</gom:speed></extensions></trkpt>
   <trkpt lat="59.3259292955" lon="34.7085331228"><ele>170.904</ele><time>2026-08-17T02:15:00.655Z</time><hdop>3.0</hdop><vdop>3.0</vdop><extensions><gom:speed>0.102</gom:speed></extensions></trkpt>
   <trkpt lat="59.3259329836" lon="34.7085312788"><ele>170.935</ele><time>2026-08-17T02:15:01.652Z</time><hdop>3.0</hdop><vdop>3.062</vdop><extensions><gom:speed>0.02</gom:speed></extensions></trkpt>
   <trkpt lat="59.3259388928" lon="34.7085265849"><ele>170.957</ele><time>2026-08-17T02:15:02.648Z</time><hdop>3.0</hdop><vdop>2.812</vdop><extensions><gom:speed>0.057</gom:speed></extensions></trkpt>
   <trkpt lat="59.3259414912" lon="34.708524238"><ele>170.974</ele><time>2026-08-17T02:15:03.649Z</time><hdop>3.0</hdop><vdop>2.875</vdop><extensions><gom:speed>0.072</gom:speed></extensions></trkpt>
   <trkpt lat="59.3259410721" lon="34.7085248247"><ele>171.275</ele><time>2026-08-17T02:15:04.652Z</time><hdop>3.0</hdop><vdop>2.75</vdop><extensions><gom:speed>0.031</gom:speed></extensions></trkpt>
   <trkpt lat="59.3259430838" lon="34.7085198794"><ele>171.162</ele><time>2026-08-17T02:15:05.652Z</time><hdop>3.0</hdop><vdop>2.687</vdop><extensions><gom:speed>0.044</gom:speed></extensions></trkpt>
   <trkpt lat="59.3259475681" lon="34.7085056301"><ele>170.764</ele><time>2026-08-17T02:15:06.648Z</time><hdop>3.0</hdop><vdop>2.562</vdop><extensions><gom:speed>0.138</gom:speed></extensions></trkpt>
   <trkpt lat="59.3259474843" lon="34.7085037861"><ele>170.526</ele><time>2026-08-17T02:15:07.606Z</time><hdop>3.0</hdop><vdop>2.562</vdop><extensions><gom:speed>0.126</gom:speed></extensions></trkpt>
   <trkpt lat="59.3259479872" lon="34.7084948175"><ele>170.314</ele><time>2026-08-17T02:15:08.466Z</time><hdop>3.0</hdop><vdop>2.625</vdop><extensions><gom:speed>0.207</gom:speed></extensions></trkpt>
   <trkpt lat="59.3259479872" lon="34.7084861841"><ele>169.74</ele><time>2026-08-17T02:15:09.225Z</time><hdop>3.0</hdop><vdop>2.687</vdop><extensions><gom:speed>0.245</gom:speed></extensions></trkpt>
   <trkpt lat="59.3259473585" lon="34.708477886"><ele>169.474</ele><time>2026-08-17T02:15:10.145Z</time><hdop>3.0</hdop><vdop>2.687</vdop><extensions><gom:speed>0.23</gom:speed></extensions></trkpt>
   <trkpt lat="59.3259473585" lon="34.7084758744"><ele>169.66</ele><time>2026-08-17T02:15:10.651Z</time><hdop>3.0</hdop><vdop>2.625</vdop><extensions><gom:speed>0.247</gom:speed></extensions></trkpt>
   <trkpt lat="59.3259463946" lon="34.7084631339"><ele>169.815</ele><time>2026-08-17T02:15:11.663Z</time><hdop>3.0</hdop><vdop>2.687</vdop><extensions><gom:speed>0.262</gom:speed></extensions></trkpt>
   <trkpt lat="59.3259453888" lon="34.7084530756"><ele>169.908</ele><time>2026-08-17T02:15:12.664Z</time><hdop>3.0</hdop><vdop>2.687</vdop><extensions><gom:speed>0.312</gom:speed></extensions></trkpt>
   <trkpt lat="59.3259444668" lon="34.7084476274"><ele>170.284</ele><time>2026-08-17T02:15:13.454Z</time><hdop>3.0</hdop><vdop>2.625</vdop><extensions><gom:speed>0.289</gom:speed></extensions></trkpt>
   <trkpt lat="59.3259465623" lon="34.7084354736"><ele>170.831</ele><time>2026-08-17T02:15:14.172Z</time><hdop>3.0</hdop><vdop>2.75</vdop><extensions><gom:speed>0.449</gom:speed></extensions></trkpt>
   <trkpt lat="59.3259470652" lon="34.7084327914"><ele>171.111</ele><time>2026-08-17T02:15:14.652Z</time><hdop>3.0</hdop><vdop>2.625</vdop><extensions><gom:speed>0.424</gom:speed></extensions></trkpt>
   <trkpt lat="59.3259523877" lon="34.7084188774"><ele>171.309</ele><time>2026-08-17T02:15:15.648Z</time><hdop>3.0</hdop><vdop>2.937</vdop><extensions><gom:speed>0.327</gom:speed></extensions></trkpt>
   <trkpt lat="59.3259530582" lon="34.7084113337"><ele>171.409</ele><time>2026-08-17T02:15:16.652Z</time><hdop>3.0</hdop><vdop>3.312</vdop><extensions><gom:speed>0.339</gom:speed></extensions></trkpt>
   <trkpt lat="59.3259565786" lon="34.7084053826"><ele>171.468</ele><time>2026-08-17T02:15:17.187Z</time><hdop>3.0</hdop><vdop>3.312</vdop><extensions><gom:speed>0.34</gom:speed></extensions></trkpt>
   <trkpt lat="59.3259574587" lon="34.7084022813"><ele>171.498</ele><time>2026-08-17T02:15:17.652Z</time><hdop>3.0</hdop><vdop>3.625</vdop><extensions><gom:speed>0.34</gom:speed></extensions></trkpt>
   <trkpt lat="59.325961482" lon="34.7083993476"><ele>171.516</ele><time>2026-08-17T02:15:18.229Z</time><hdop>3.0</hdop><vdop>3.625</vdop><extensions><gom:speed>0.325</gom:speed></extensions></trkpt>
   <trkpt lat="59.3259647929" lon="34.7083945699"><ele>171.45</ele><time>2026-08-17T02:15:18.947Z</time><hdop>3.0</hdop><vdop>3.625</vdop><extensions><gom:speed>0.323</gom:speed></extensions></trkpt>
   <trkpt lat="59.3259684809" lon="34.7083878644"><ele>171.055</ele><time>2026-08-17T02:15:19.648Z</time><hdop>3.0</hdop><vdop>3.375</vdop><extensions><gom:speed>0.303</gom:speed></extensions></trkpt>
   <trkpt lat="59.3259722947" lon="34.708376465"><ele>170.754</ele><time>2026-08-17T02:15:20.647Z</time><hdop>3.0</hdop><vdop>3.25</vdop><extensions><gom:speed>0.296</gom:speed></extensions></trkpt>
   <trkpt lat="59.3259752703" lon="34.7083662391"><ele>170.645</ele><time>2026-08-17T02:15:21.648Z</time><hdop>3.0</hdop><vdop>3.375</vdop><extensions><gom:speed>0.299</gom:speed></extensions></trkpt>
   <trkpt lat="59.3259749769" lon="34.7083596174"><ele>170.58</ele><time>2026-08-17T02:15:22.590Z</time><hdop>3.0</hdop><vdop>3.375</vdop><extensions><gom:speed>0.333</gom:speed></extensions></trkpt>
   <trkpt lat="59.325979084" lon="34.708353331"><ele>170.582</ele><time>2026-08-17T02:15:23.288Z</time><hdop>3.0</hdop><vdop>3.437</vdop><extensions><gom:speed>0.293</gom:speed></extensions></trkpt>
   <trkpt lat="59.3259802994" lon="34.7083493915"><ele>170.592</ele><time>2026-08-17T02:15:23.885Z</time><hdop>3.0</hdop><vdop>3.625</vdop><extensions><gom:speed>0.303</gom:speed></extensions></trkpt>
   <trkpt lat="59.3259813891" lon="34.7083450329"><ele>170.747</ele><time>2026-08-17T02:15:24.653Z</time><hdop>3.0</hdop><vdop>3.625</vdop><extensions><gom:speed>0.323</gom:speed></extensions></trkpt>
   <trkpt lat="59.3259839874" lon="34.7083355613"><ele>170.839</ele><time>2026-08-17T02:15:25.564Z</time><hdop>3.062</hdop><vdop>3.625</vdop><extensions><gom:speed>0.385</gom:speed></extensions></trkpt>
   <trkpt lat="59.3259859991" lon="34.7083314542"><ele>171.13</ele><time>2026-08-17T02:15:26.677Z</time><hdop>3.125</hdop><vdop>3.5</vdop><extensions><gom:speed>0.286</gom:speed></extensions></trkpt>
   <trkpt lat="59.3259888909" lon="34.7083230723"><ele>171.219</ele><time>2026-08-17T02:15:27.587Z</time><hdop>3.25</hdop><vdop>3.687</vdop><extensions><gom:speed>0.298</gom:speed></extensions></trkpt>
   <trkpt lat="59.3259889747" lon="34.7083203901"><ele>171.326</ele><time>2026-08-17T02:15:28.652Z</time><hdop>3.5</hdop><vdop>3.5</vdop><extensions><gom:speed>0.247</gom:speed></extensions></trkpt>
   <trkpt lat="59.3259921598" lon="34.7083114214"><ele>171.386</ele><time>2026-08-17T02:15:29.631Z</time><hdop>3.75</hdop><vdop>3.75</vdop><extensions><gom:speed>0.279</gom:speed></extensions></trkpt>
   <trkpt lat="59.3259925789" lon="34.7083094936"><ele>171.533</ele><time>2026-08-17T02:15:30.663Z</time><hdop>4.125</hdop><vdop>3.5</vdop><extensions><gom:speed>0.239</gom:speed></extensions></trkpt>
   <trkpt lat="59.3259956802" lon="34.7082977589"><ele>171.751</ele><time>2026-08-17T02:15:31.652Z</time><hdop>4.25</hdop><vdop>3.5</vdop><extensions><gom:speed>0.285</gom:speed></extensions></trkpt>
   <trkpt lat="59.3260015894" lon="34.7082840964"><ele>172.168</ele><time>2026-08-17T02:15:32.648Z</time><hdop>4.312</hdop><vdop>3.437</vdop><extensions><gom:speed>0.289</gom:speed></extensions></trkpt>
   <trkpt lat="59.3260024695" lon="34.7082853537"><ele>172.641</ele><time>2026-08-17T02:15:33.652Z</time><hdop>4.437</hdop><vdop>3.687</vdop><extensions><gom:speed>0.183</gom:speed></extensions></trkpt>
   <trkpt lat="59.3260084626" lon="34.7082789835"><ele>173.218</ele><time>2026-08-17T02:15:34.648Z</time><hdop>4.5</hdop><vdop>3.312</vdop><extensions><gom:speed>0.216</gom:speed></extensions></trkpt>
   <trkpt lat="59.3260070796" lon="34.7082802408"><ele>173.561</ele><time>2026-08-17T02:15:35.652Z</time><hdop>4.5</hdop><vdop>3.312</vdop><extensions><gom:speed>0.065</gom:speed></extensions></trkpt>
   <trkpt lat="59.326009678" lon="34.7082786482"><ele>173.768</ele><time>2026-08-17T02:15:36.652Z</time><hdop>4.5</hdop><vdop>3.125</vdop><extensions><gom:speed>0.028</gom:speed></extensions></trkpt>
   <trkpt lat="59.3260112705" lon="34.708275044"><ele>173.895</ele><time>2026-08-17T02:15:37.652Z</time><hdop>4.437</hdop><vdop>3.062</vdop><extensions><gom:speed>0.018</gom:speed></extensions></trkpt>
   <trkpt lat="59.3260136594" lon="34.708275044"><ele>173.915</ele><time>2026-08-17T02:15:38.652Z</time><hdop>4.437</hdop><vdop>3.187</vdop><extensions><gom:speed>0.018</gom:speed></extensions></trkpt>
   <trkpt lat="59.326014288" lon="34.7082737867"><ele>173.766</ele><time>2026-08-17T02:15:39.668Z</time><hdop>4.375</hdop><vdop>3.25</vdop><extensions><gom:speed>0.017</gom:speed></extensions></trkpt>
   <trkpt lat="59.3260148748" lon="34.7082728647"><ele>173.715</ele><time>2026-08-17T02:15:40.652Z</time><hdop>4.312</hdop><vdop>3.125</vdop><extensions><gom:speed>0.025</gom:speed></extensions></trkpt>
   <trkpt lat="59.3260162997" lon="34.7082726971"><ele>173.934</ele><time>2026-08-17T02:15:41.652Z</time><hdop>4.25</hdop><vdop>3.0</vdop><extensions><gom:speed>0.061</gom:speed></extensions></trkpt>
   <trkpt lat="59.3260179761" lon="34.7082706854"><ele>174.139</ele><time>2026-08-17T02:15:42.662Z</time><hdop>4.187</hdop><vdop>3.25</vdop><extensions><gom:speed>0.054</gom:speed></extensions></trkpt>
   <trkpt lat="59.3260191914" lon="34.7082697634"><ele>174.263</ele><time>2026-08-17T02:15:43.652Z</time><hdop>4.187</hdop><vdop>3.125</vdop><extensions><gom:speed>0.049</gom:speed></extensions></trkpt>
   <trkpt lat="59.3260223766" lon="34.7082689252"><ele>174.335</ele><time>2026-08-17T02:15:44.648Z</time><hdop>4.062</hdop><vdop>3.125</vdop><extensions><gom:speed>0.122</gom:speed></extensions></trkpt>
   <trkpt lat="59.3260217898" lon="34.7082711883"><ele>174.38</ele><time>2026-08-17T02:15:45.738Z</time><hdop>4.062</hdop><vdop>2.812</vdop><extensions><gom:speed>0.068</gom:speed></extensions></trkpt>
   <trkpt lat="59.326023089" lon="34.7082709369"><ele>174.408</ele><time>2026-08-17T02:15:46.386Z</time><hdop>4.062</hdop><vdop>2.812</vdop><extensions><gom:speed>0.107</gom:speed></extensions></trkpt>
   <trkpt lat="59.3260237596" lon="34.708269931"><ele>173.957</ele><time>2026-08-17T02:15:47.286Z</time><hdop>4.062</hdop><vdop>2.625</vdop><extensions><gom:speed>0.106</gom:speed></extensions></trkpt>
   <trkpt lat="59.3260247654" lon="34.7082677517"><ele>173.689</ele><time>2026-08-17T02:15:48.648Z</time><hdop>4.062</hdop><vdop>2.625</vdop><extensions><gom:speed>0.117</gom:speed></extensions></trkpt>
   <trkpt lat="59.3260257712" lon="34.7082719427"><ele>173.528</ele><time>2026-08-17T02:15:49.652Z</time><hdop>4.062</hdop><vdop>2.625</vdop><extensions><gom:speed>0.043</gom:speed></extensions></trkpt>
   <trkpt lat="59.3260259808" lon="34.7082689252"><ele>173.431</ele><time>2026-08-17T02:15:50.652Z</time><hdop>4.062</hdop><vdop>2.625</vdop><extensions><gom:speed>0.058</gom:speed></extensions></trkpt>
   <trkpt lat="59.3260269866" lon="34.7082659915"><ele>173.375</ele><time>2026-08-17T02:15:51.647Z</time><hdop>4.0</hdop><vdop>2.687</vdop><extensions><gom:speed>0.002</gom:speed></extensions></trkpt>
   <trkpt lat="59.3260278667" lon="34.7082656563"><ele>173.34</ele><time>2026-08-17T02:15:52.648Z</time><hdop>3.875</hdop><vdop>2.687</vdop><extensions><gom:speed>0.018</gom:speed></extensions></trkpt>
   <trkpt lat="59.3260280763" lon="34.7082654886"><ele>173.317</ele><time>2026-08-17T02:15:53.652Z</time><hdop>3.812</hdop><vdop>2.75</vdop><extensions><gom:speed>0.019</gom:speed></extensions></trkpt>
   <trkpt lat="59.3260290821" lon="34.7082650695"><ele>173.304</ele><time>2026-08-17T02:15:54.648Z</time><hdop>3.562</hdop><vdop>2.562</vdop><extensions><gom:speed>0.037</gom:speed></extensions></trkpt>
   <trkpt lat="59.3260293755" lon="34.7082646504"><ele>173.295</ele><time>2026-08-17T02:15:55.652Z</time><hdop>3.437</hdop><vdop>2.687</vdop><extensions><gom:speed>0.037</gom:speed></extensions></trkpt>
   <trkpt lat="59.3260300879" lon="34.7082641475"><ele>173.291</ele><time>2026-08-17T02:15:56.648Z</time><hdop>3.187</hdop><vdop>2.687</vdop><extensions><gom:speed>0.046</gom:speed></extensions></trkpt>
   <trkpt lat="59.3260303813" lon="34.7082639799"><ele>173.289</ele><time>2026-08-17T02:15:57.252Z</time><hdop>3.125</hdop><vdop>2.687</vdop><extensions><gom:speed>0.047</gom:speed></extensions></trkpt>
   <trkpt lat="59.3260307585" lon="34.7082635608"><ele>173.288</ele><time>2026-08-17T02:15:58.627Z</time><hdop>3.125</hdop><vdop>2.687</vdop><extensions><gom:speed>0.047</gom:speed></extensions></trkpt>
   <trkpt lat="59.3260313871" lon="34.7082631417"><ele>173.287</ele><time>2026-08-17T02:15:59.652Z</time><hdop>3.0</hdop><vdop>2.687</vdop><extensions><gom:speed>0.055</gom:speed></extensions></trkpt>
   <trkpt lat="59.3260317643" lon="34.708262974"><ele>173.286</ele><time>2026-08-17T02:16:00.648Z</time><hdop>3.0</hdop><vdop>2.687</vdop><extensions><gom:speed>0.062</gom:speed></extensions></trkpt>
   <trkpt lat="59.3260321834" lon="34.708262555"><ele>173.285</ele><time>2026-08-17T02:16:01.652Z</time><hdop>3.0</hdop><vdop>2.687</vdop><extensions><gom:speed>0.062</gom:speed></extensions></trkpt>
   <trkpt lat="59.3260326863" lon="34.7082621359"><ele>173.282</ele><time>2026-08-17T02:16:02.654Z</time><hdop>3.0</hdop><vdop>2.687</vdop><extensions><gom:speed>0.066</gom:speed></extensions></trkpt>
   <trkpt lat="59.3260329797" lon="34.708262052"><ele>173.279</ele><time>2026-08-17T02:16:03.648Z</time><hdop>3.0</hdop><vdop>2.625</vdop><extensions><gom:speed>0.066</gom:speed></extensions></trkpt>
   <trkpt lat="59.3260333988" lon="34.7082616329"><ele>173.278</ele><time>2026-08-17T02:16:04.657Z</time><hdop>3.0</hdop><vdop>2.5</vdop><extensions><gom:speed>0.066</gom:speed></extensions></trkpt>
   <trkpt lat="59.3260336921" lon="34.7082615491"><ele>173.278</ele><time>2026-08-17T02:16:05.648Z</time><hdop>3.0</hdop><vdop>2.5</vdop><extensions><gom:speed>0.07</gom:speed></extensions></trkpt>
   <trkpt lat="59.3260340693" lon="34.7082610462"><ele>173.277</ele><time>2026-08-17T02:16:06.661Z</time><hdop>3.0</hdop><vdop>2.5</vdop><extensions><gom:speed>0.071</gom:speed></extensions></trkpt>
   <trkpt lat="59.3260342789" lon="34.7082607948"><ele>173.276</ele><time>2026-08-17T02:16:07.652Z</time><hdop>3.0</hdop><vdop>2.5</vdop><extensions><gom:speed>0.075</gom:speed></extensions></trkpt>
   <trkpt lat="59.3260342789" lon="34.7082607948"><ele>173.275</ele><time>2026-08-17T02:16:08.648Z</time><hdop>3.0</hdop><vdop>2.5</vdop><extensions><gom:speed>0.076</gom:speed></extensions></trkpt>
   <trkpt lat="59.326034698" lon="34.7082602918"><ele>173.276</ele><time>2026-08-17T02:16:09.652Z</time><hdop>3.0</hdop><vdop>2.5</vdop><extensions><gom:speed>0.076</gom:speed></extensions></trkpt>
   <trkpt lat="59.3260347818" lon="34.7082603757"><ele>173.277</ele><time>2026-08-17T02:16:10.648Z</time><hdop>3.0</hdop><vdop>2.5</vdop><extensions><gom:speed>0.076</gom:speed></extensions></trkpt>
   <trkpt lat="59.3260350751" lon="34.7082601242"><ele>173.278</ele><time>2026-08-17T02:16:11.648Z</time><hdop>3.0</hdop><vdop>2.5</vdop><extensions><gom:speed>0.072</gom:speed></extensions></trkpt>
   <trkpt lat="59.3260354942" lon="34.7082598727"><ele>173.278</ele><time>2026-08-17T02:16:12.652Z</time><hdop>3.0</hdop><vdop>2.5</vdop><extensions><gom:speed>0.072</gom:speed></extensions></trkpt>
   <trkpt lat="59.3260356619" lon="34.7082597889"><ele>173.277</ele><time>2026-08-17T02:16:13.652Z</time><hdop>3.0</hdop><vdop>2.5</vdop><extensions><gom:speed>0.072</gom:speed></extensions></trkpt>
   <trkpt lat="59.3260359972" lon="34.7082597889"><ele>173.278</ele><time>2026-08-17T02:16:14.653Z</time><hdop>3.0</hdop><vdop>2.5</vdop><extensions><gom:speed>0.072</gom:speed></extensions></trkpt>
   <trkpt lat="59.3260359972" lon="34.7082599566"><ele>173.278</ele><time>2026-08-17T02:16:15.648Z</time><hdop>3.0</hdop><vdop>2.5</vdop><extensions><gom:speed>0.072</gom:speed></extensions></trkpt>
   <trkpt lat="59.3260362905" lon="34.7082596213"><ele>173.278</ele><time>2026-08-17T02:16:16.657Z</time><hdop>3.0</hdop><vdop>2.5</vdop><extensions><gom:speed>0.072</gom:speed></extensions></trkpt>
   <trkpt lat="59.3260362905" lon="34.7082594536"><ele>173.278</ele><time>2026-08-17T02:16:17.648Z</time><hdop>3.0</hdop><vdop>2.687</vdop><extensions><gom:speed>0.07</gom:speed></extensions></trkpt>
   <trkpt lat="59.3260366677" lon="34.7082591184"><ele>173.277</ele><time>2026-08-17T02:16:18.652Z</time><hdop>3.0</hdop><vdop>2.562</vdop><extensions><gom:speed>0.07</gom:speed></extensions></trkpt>
   <trkpt lat="59.3260366677" lon="34.7082589507"><ele>173.275</ele><time>2026-08-17T02:16:19.652Z</time><hdop>3.0</hdop><vdop>2.562</vdop><extensions><gom:speed>0.073</gom:speed></extensions></trkpt>
   <trkpt lat="59.3260365839" lon="34.7082588669"><ele>173.272</ele><time>2026-08-17T02:16:20.647Z</time><hdop>3.0</hdop><vdop>2.875</vdop><extensions><gom:speed>0.071</gom:speed></extensions></trkpt>
   <trkpt lat="59.3260367934" lon="34.7082584478"><ele>173.269</ele><time>2026-08-17T02:16:21.652Z</time><hdop>3.0</hdop><vdop>2.875</vdop><extensions><gom:speed>0.071</gom:speed></extensions></trkpt>
   <trkpt lat="59.3260365839" lon="34.7082586993"><ele>173.268</ele><time>2026-08-17T02:16:22.652Z</time><hdop>3.0</hdop><vdop>3.0</vdop><extensions><gom:speed>0.069</gom:speed></extensions></trkpt>
   <trkpt lat="59.3260365839" lon="34.7082586993"><ele>173.267</ele><time>2026-08-17T02:16:23.653Z</time><hdop>3.0</hdop><vdop>3.062</vdop><extensions><gom:speed>0.069</gom:speed></extensions></trkpt>
   <trkpt lat="59.3260365839" lon="34.7082585316"><ele>173.268</ele><time>2026-08-17T02:16:24.652Z</time><hdop>3.0</hdop><vdop>3.125</vdop><extensions><gom:speed>0.071</gom:speed></extensions></trkpt>
   <trkpt lat="59.3260365839" lon="34.7082585316"><ele>173.272</ele><time>2026-08-17T02:16:25.652Z</time><hdop>3.0</hdop><vdop>3.375</vdop><extensions><gom:speed>0.068</gom:speed></extensions></trkpt>
   <trkpt lat="59.3260366677" lon="34.7082585316"><ele>173.275</ele><time>2026-08-17T02:16:26.652Z</time><hdop>3.0</hdop><vdop>3.312</vdop><extensions><gom:speed>0.069</gom:speed></extensions></trkpt>
   <trkpt lat="59.3260366677" lon="34.7082587831"><ele>173.277</ele><time>2026-08-17T02:16:27.652Z</time><hdop>3.0</hdop><vdop>3.187</vdop><extensions><gom:speed>0.068</gom:speed></extensions></trkpt>
   <trkpt lat="59.3260366677" lon="34.7082588669"><ele>173.28</ele><time>2026-08-17T02:16:28.652Z</time><hdop>3.0</hdop><vdop>3.062</vdop><extensions><gom:speed>0.069</gom:speed></extensions></trkpt>
   <trkpt lat="59.3260366677" lon="34.708258364"><ele>173.282</ele><time>2026-08-17T02:16:29.652Z</time><hdop>3.0</hdop><vdop>2.812</vdop><extensions><gom:speed>0.068</gom:speed></extensions></trkpt>
   <trkpt lat="59.3260363743" lon="34.7082590346"><ele>173.284</ele><time>2026-08-17T02:16:30.648Z</time><hdop>3.0</hdop><vdop>2.812</vdop><extensions><gom:speed>0.068</gom:speed></extensions></trkpt>
   <trkpt lat="59.3260366677" lon="34.7082588669"><ele>173.287</ele><time>2026-08-17T02:16:31.652Z</time><hdop>3.0</hdop><vdop>2.812</vdop><extensions><gom:speed>0.069</gom:speed></extensions></trkpt>
   <trkpt lat="59.3260366677" lon="34.7082590346"><ele>173.289</ele><time>2026-08-17T02:16:32.653Z</time><hdop>3.0</hdop><vdop>2.5</vdop><extensions><gom:speed>0.071</gom:speed></extensions></trkpt>
   <trkpt lat="59.3260366677" lon="34.708259286"><ele>173.293</ele><time>2026-08-17T02:16:33.654Z</time><hdop>3.0</hdop><vdop>2.5</vdop><extensions><gom:speed>0.069</gom:speed></extensions></trkpt>
   <trkpt lat="59.3260363743" lon="34.7082596213"><ele>173.296</ele><time>2026-08-17T02:16:34.649Z</time><hdop>3.0</hdop><vdop>2.562</vdop><extensions><gom:speed>0.069</gom:speed></extensions></trkpt>
   <trkpt lat="59.3260365839" lon="34.7082594536"><ele>173.3</ele><time>2026-08-17T02:16:35.653Z</time><hdop>3.0</hdop><vdop>2.75</vdop><extensions><gom:speed>0.069</gom:speed></extensions></trkpt>
   <trkpt lat="59.3260364582" lon="34.7082594536"><ele>173.302</ele><time>2026-08-17T02:16:36.689Z</time><hdop>3.0</hdop><vdop>2.937</vdop><extensions><gom:speed>0.068</gom:speed></extensions></trkpt>
   <trkpt lat="59.3260362905" lon="34.7082599566"><ele>173.304</ele><time>2026-08-17T02:16:37.648Z</time><hdop>3.0</hdop><vdop>3.25</vdop><extensions><gom:speed>0.064</gom:speed></extensions></trkpt>
   <trkpt lat="59.326036081" lon="34.7082599566"><ele>173.194</ele><time>2026-08-17T02:16:38.647Z</time><hdop>3.0</hdop><vdop>3.25</vdop><extensions><gom:speed>0.331</gom:speed></extensions></trkpt>
   <trkpt lat="59.326036081" lon="34.7082595375"><ele>173.003</ele><time>2026-08-17T02:16:39.649Z</time><hdop>3.0</hdop><vdop>3.0</vdop><extensions><gom:speed>0.098</gom:speed></extensions></trkpt>
   <trkpt lat="59.326035159" lon="34.7082595375"><ele>172.917</ele><time>2026-08-17T02:16:40.647Z</time><hdop>3.0</hdop><vdop>2.75</vdop><extensions><gom:speed>0.079</gom:speed></extensions></trkpt>
   <trkpt lat="59.3260343627" lon="34.7082596213"><ele>172.872</ele><time>2026-08-17T02:16:41.648Z</time><hdop>3.0</hdop><vdop>2.5</vdop><extensions><gom:speed>0.068</gom:speed></extensions></trkpt>
   <trkpt lat="59.3260336921" lon="34.7082601242"><ele>172.846</ele><time>2026-08-17T02:16:42.649Z</time><hdop>3.0</hdop><vdop>2.5</vdop><extensions><gom:speed>0.063</gom:speed></extensions></trkpt>
   <trkpt lat="59.3260329797" lon="34.7082603757"><ele>172.831</ele><time>2026-08-17T02:16:43.648Z</time><hdop>3.0</hdop><vdop>2.5</vdop><extensions><gom:speed>0.06</gom:speed></extensions></trkpt>
   <trkpt lat="59.3260322672" lon="34.7082604595"><ele>172.823</ele><time>2026-08-17T02:16:44.648Z</time><hdop>3.0</hdop><vdop>2.5</vdop><extensions><gom:speed>0.06</gom:speed></extensions></trkpt>
   <trkpt lat="59.3260316805" lon="34.7082603757"><ele>172.818</ele><time>2026-08-17T02:16:45.649Z</time><hdop>3.0</hdop><vdop>2.5</vdop><extensions><gom:speed>0.059</gom:speed></extensions></trkpt>
   <trkpt lat="59.3260310937" lon="34.7082604595"><ele>172.815</ele><time>2026-08-17T02:16:46.648Z</time><hdop>3.0</hdop><vdop>2.5</vdop><extensions><gom:speed>0.059</gom:speed></extensions></trkpt>
   <trkpt lat="59.3260307585" lon="34.7082601242"><ele>172.813</ele><time>2026-08-17T02:16:47.647Z</time><hdop>3.0</hdop><vdop>2.5</vdop><extensions><gom:speed>0.061</gom:speed></extensions></trkpt>
   <trkpt lat="59.3260302975" lon="34.7082602918"><ele>172.811</ele><time>2026-08-17T02:16:48.648Z</time><hdop>3.0</hdop><vdop>2.5</vdop><extensions><gom:speed>0.064</gom:speed></extensions></trkpt>
   <trkpt lat="59.3260301717" lon="34.7082600404"><ele>172.81</ele><time>2026-08-17T02:16:49.692Z</time><hdop>3.0</hdop><vdop>2.5</vdop><extensions><gom:speed>0.064</gom:speed></extensions></trkpt>
   <trkpt lat="59.3260296688" lon="34.7082602918"><ele>172.811</ele><time>2026-08-17T02:16:50.651Z</time><hdop>3.0</hdop><vdop>2.5</vdop><extensions><gom:speed>0.066</gom:speed></extensions></trkpt>
   <trkpt lat="59.3260289983" lon="34.7082604595"><ele>172.813</ele><time>2026-08-17T02:16:51.648Z</time><hdop>3.0</hdop><vdop>2.5</vdop><extensions><gom:speed>0.07</gom:speed></extensions></trkpt>
   <trkpt lat="59.326028663" lon="34.7082603757"><ele>172.815</ele><time>2026-08-17T02:16:52.692Z</time><hdop>3.0</hdop><vdop>2.5</vdop><extensions><gom:speed>0.07</gom:speed></extensions></trkpt>
   <trkpt lat="59.3260280763" lon="34.7082606271"><ele>172.817</ele><time>2026-08-17T02:16:53.648Z</time><hdop>3.0</hdop><vdop>2.5</vdop><extensions><gom:speed>0.067</gom:speed></extensions></trkpt>
   <trkpt lat="59.3260279924" lon="34.7082606271"><ele>172.819</ele><time>2026-08-17T02:16:54.692Z</time><hdop>3.0</hdop><vdop>2.5</vdop><extensions><gom:speed>0.067</gom:speed></extensions></trkpt>
   <trkpt lat="59.3260273638" lon="34.7082610462"><ele>172.82</ele><time>2026-08-17T02:16:55.648Z</time><hdop>3.0</hdop><vdop>2.5</vdop><extensions><gom:speed>0.069</gom:speed></extensions></trkpt>
   <trkpt lat="59.3260269866" lon="34.70826113"><ele>172.823</ele><time>2026-08-17T02:16:56.648Z</time><hdop>3.0</hdop><vdop>2.5</vdop><extensions><gom:speed>0.068</gom:speed></extensions></trkpt>
   <trkpt lat="59.3260267771" lon="34.7082610462"><ele>172.824</ele><time>2026-08-17T02:16:57.692Z</time><hdop>3.0</hdop><vdop>2.5</vdop><extensions><gom:speed>0.068</gom:speed></extensions></trkpt>
   <trkpt lat="59.3260261903" lon="34.7082612977"><ele>172.826</ele><time>2026-08-17T02:16:58.648Z</time><hdop>3.0</hdop><vdop>2.5</vdop><extensions><gom:speed>0.067</gom:speed></extensions></trkpt>
   <trkpt lat="59.3260259808" lon="34.7082612977"><ele>172.827</ele><time>2026-08-17T02:16:59.692Z</time><hdop>3.0</hdop><vdop>2.5</vdop><extensions><gom:speed>0.067</gom:speed></extensions></trkpt>
   <trkpt lat="59.3260254779" lon="34.7082615491"><ele>172.829</ele><time>2026-08-17T02:17:00.647Z</time><hdop>3.0</hdop><vdop>2.5</vdop><extensions><gom:speed>0.068</gom:speed></extensions></trkpt>
   <trkpt lat="59.3260251845" lon="34.7082614653"><ele>172.829</ele><time>2026-08-17T02:17:01.648Z</time><hdop>3.0</hdop><vdop>2.5</vdop><extensions><gom:speed>0.069</gom:speed></extensions></trkpt>
   <trkpt lat="59.3260248911" lon="34.7082613815"><ele>172.828</ele><time>2026-08-17T02:17:02.651Z</time><hdop>3.0</hdop><vdop>2.5</vdop><extensions><gom:speed>0.069</gom:speed></extensions></trkpt>
   <trkpt lat="59.3260245978" lon="34.70826113"><ele>172.827</ele><time>2026-08-17T02:17:03.648Z</time><hdop>3.0</hdop><vdop>2.5</vdop><extensions><gom:speed>0.071</gom:speed></extensions></trkpt>
   <trkpt lat="59.3260242625" lon="34.7082609624"><ele>172.827</ele><time>2026-08-17T02:17:04.647Z</time><hdop>3.0</hdop><vdop>2.625</vdop><extensions><gom:speed>0.07</gom:speed></extensions></trkpt>
   <trkpt lat="59.3260239691" lon="34.7082608786"><ele>172.826</ele><time>2026-08-17T02:17:05.666Z</time><hdop>3.0</hdop><vdop>2.687</vdop><extensions><gom:speed>0.07</gom:speed></extensions></trkpt>
   <trkpt lat="59.3260238853" lon="34.7082604595"><ele>172.826</ele><time>2026-08-17T02:17:06.648Z</time><hdop>3.0</hdop><vdop>2.625</vdop><extensions><gom:speed>0.072</gom:speed></extensions></trkpt>
   <trkpt lat="59.3260236758" lon="34.7082602918"><ele>172.826</ele><time>2026-08-17T02:17:07.692Z</time><hdop>3.0</hdop><vdop>2.562</vdop><extensions><gom:speed>0.072</gom:speed></extensions></trkpt>
   <trkpt lat="59.3260233824" lon="34.7082602918"><ele>172.827</ele><time>2026-08-17T02:17:08.692Z</time><hdop>3.0</hdop><vdop>2.687</vdop><extensions><gom:speed>0.073</gom:speed></extensions></trkpt>
   <trkpt lat="59.326023089" lon="34.7082601242"><ele>172.827</ele><time>2026-08-17T02:17:09.649Z</time><hdop>3.0</hdop><vdop>2.687</vdop><extensions><gom:speed>0.073</gom:speed></extensions></trkpt>
   <trkpt lat="59.3260229633" lon="34.7082601242"><ele>172.828</ele><time>2026-08-17T02:17:10.648Z</time><hdop>3.0</hdop><vdop>2.687</vdop><extensions><gom:speed>0.073</gom:speed></extensions></trkpt>
   <trkpt lat="59.3260226699" lon="34.7082600404"><ele>172.829</ele><time>2026-08-17T02:17:11.692Z</time><hdop>3.0</hdop><vdop>2.562</vdop><extensions><gom:speed>0.073</gom:speed></extensions></trkpt>
   <trkpt lat="59.3260225861" lon="34.7082596213"><ele>172.829</ele><time>2026-08-17T02:17:12.648Z</time><hdop>3.0</hdop><vdop>2.5</vdop><extensions><gom:speed>0.077</gom:speed></extensions></trkpt>
   <trkpt lat="59.3260223766" lon="34.7082596213"><ele>172.829</ele><time>2026-08-17T02:17:13.648Z</time><hdop>3.0</hdop><vdop>2.5</vdop><extensions><gom:speed>0.075</gom:speed></extensions></trkpt>
   <trkpt lat="59.3260222927" lon="34.7082596213"><ele>172.829</ele><time>2026-08-17T02:17:14.649Z</time><hdop>3.0</hdop><vdop>2.5</vdop><extensions><gom:speed>0.075</gom:speed></extensions></trkpt>
   <trkpt lat="59.3260219994" lon="34.7082594536"><ele>172.83</ele><time>2026-08-17T02:17:15.692Z</time><hdop>3.0</hdop><vdop>2.5</vdop><extensions><gom:speed>0.075</gom:speed></extensions></trkpt>
   <trkpt lat="59.3260219994" lon="34.7082595375"><ele>172.83</ele><time>2026-08-17T02:17:16.648Z</time><hdop>3.0</hdop><vdop>2.5</vdop><extensions><gom:speed>0.073</gom:speed></extensions></trkpt>
   <trkpt lat="59.3260217898" lon="34.7082593698"><ele>172.83</ele><time>2026-08-17T02:17:17.695Z</time><hdop>3.0</hdop><vdop>2.5</vdop><extensions><gom:speed>0.074</gom:speed></extensions></trkpt>
   <trkpt lat="59.3260216641" lon="34.708259286"><ele>172.83</ele><time>2026-08-17T02:17:18.692Z</time><hdop>3.0</hdop><vdop>2.5</vdop><extensions><gom:speed>0.072</gom:speed></extensions></trkpt>
   <trkpt lat="59.3260217898" lon="34.708259286"><ele>172.83</ele><time>2026-08-17T02:17:19.692Z</time><hdop>3.0</hdop><vdop>2.5</vdop><extensions><gom:speed>0.073</gom:speed></extensions></trkpt>
   <trkpt lat="59.3260216641" lon="34.7082591184"><ele>172.831</ele><time>2026-08-17T02:17:20.648Z</time><hdop>3.0</hdop><vdop>2.5</vdop><extensions><gom:speed>0.072</gom:speed></extensions></trkpt>
   <trkpt lat="59.3260214965" lon="34.7082590346"><ele>172.832</ele><time>2026-08-17T02:17:21.692Z</time><hdop>3.0</hdop><vdop>2.5</vdop><extensions><gom:speed>0.072</gom:speed></extensions></trkpt>
   <trkpt lat="59.3260215803" lon="34.7082591184"><ele>172.834</ele><time>2026-08-17T02:17:22.648Z</time><hdop>3.0</hdop><vdop>2.5</vdop><extensions><gom:speed>0.071</gom:speed></extensions></trkpt>
   <trkpt lat="59.3260215803" lon="34.7082590346"><ele>172.834</ele><time>2026-08-17T02:17:23.648Z</time><hdop>3.0</hdop><vdop>2.5</vdop><extensions><gom:speed>0.072</gom:speed></extensions></trkpt>
   <trkpt lat="59.3260215803" lon="34.7082596213"><ele>172.835</ele><time>2026-08-17T02:17:24.648Z</time><hdop>3.0</hdop><vdop>2.5</vdop><extensions><gom:speed>0.069</gom:speed></extensions></trkpt>
   <trkpt lat="59.3260215803" lon="34.7082596213"><ele>172.837</ele><time>2026-08-17T02:17:25.648Z</time><hdop>3.0</hdop><vdop>2.5</vdop><extensions><gom:speed>0.069</gom:speed></extensions></trkpt>
   <trkpt lat="59.3260215803" lon="34.7082596213"><ele>172.837</ele><time>2026-08-17T02:17:26.648Z</time><hdop>3.0</hdop><vdop>2.5</vdop><extensions><gom:speed>0.069</gom:speed></extensions></trkpt>
   <trkpt lat="59.3260215803" lon="34.7082596213"><ele>172.837</ele><time>2026-08-17T02:17:27.648Z</time><hdop>3.0</hdop><vdop>2.5</vdop><extensions><gom:speed>0.07</gom:speed></extensions></trkpt>
   <trkpt lat="59.3260216641" lon="34.7082596213"><ele>172.836</ele><time>2026-08-17T02:17:28.647Z</time><hdop>3.0</hdop><vdop>2.5</vdop><extensions><gom:speed>0.07</gom:speed></extensions></trkpt>
   <trkpt lat="59.3260214965" lon="34.7082595375"><ele>172.835</ele><time>2026-08-17T02:17:29.692Z</time><hdop>3.0</hdop><vdop>2.5</vdop><extensions><gom:speed>0.07</gom:speed></extensions></trkpt>
   <trkpt lat="59.3260218737" lon="34.7082596213"><ele>172.835</ele><time>2026-08-17T02:17:30.647Z</time><hdop>3.0</hdop><vdop>2.5</vdop><extensions><gom:speed>0.065</gom:speed></extensions></trkpt>
   <trkpt lat="59.3260219994" lon="34.7082596213"><ele>172.837</ele><time>2026-08-17T02:17:31.647Z</time><hdop>3.0</hdop><vdop>2.5</vdop><extensions><gom:speed>0.066</gom:speed></extensions></trkpt>
   <trkpt lat="59.3260218737" lon="34.7082595375"><ele>172.841</ele><time>2026-08-17T02:17:32.678Z</time><hdop>3.0</hdop><vdop>2.5</vdop><extensions><gom:speed>0.066</gom:speed></extensions></trkpt>
   <trkpt lat="59.3260218737" lon="34.7082595375"><ele>172.847</ele><time>2026-08-17T02:17:33.649Z</time><hdop>3.0</hdop><vdop>2.5</vdop><extensions><gom:speed>0.068</gom:speed></extensions></trkpt>
   <trkpt lat="59.3260219994" lon="34.7082595375"><ele>172.856</ele><time>2026-08-17T02:17:34.649Z</time><hdop>3.0</hdop><vdop>2.625</vdop><extensions><gom:speed>0.065</gom:speed></extensions></trkpt>
   <trkpt lat="59.3260219994" lon="34.7082595375"><ele>172.865</ele><time>2026-08-17T02:17:35.692Z</time><hdop>3.0</hdop><vdop>2.75</vdop><extensions><gom:speed>0.066</gom:speed></extensions></trkpt>
   <trkpt lat="59.3260220832" lon="34.7082597889"><ele>172.873</ele><time>2026-08-17T02:17:36.648Z</time><hdop>3.0</hdop><vdop>2.875</vdop><extensions><gom:speed>0.067</gom:speed></extensions></trkpt>
   <trkpt lat="59.3260219994" lon="34.7082596213"><ele>172.879</ele><time>2026-08-17T02:17:37.692Z</time><hdop>3.0</hdop><vdop>2.875</vdop><extensions><gom:speed>0.067</gom:speed></extensions></trkpt>
   <trkpt lat="59.3260219994" lon="34.7082597889"><ele>172.883</ele><time>2026-08-17T02:17:38.648Z</time><hdop>3.0</hdop><vdop>2.875</vdop><extensions><gom:speed>0.067</gom:speed></extensions></trkpt>
   <trkpt lat="59.3260218737" lon="34.7082597889"><ele>172.887</ele><time>2026-08-17T02:17:39.648Z</time><hdop>3.0</hdop><vdop>2.812</vdop><extensions><gom:speed>0.123</gom:speed></extensions></trkpt>
   <trkpt lat="59.3260215803" lon="34.7082582802"><ele>173.011</ele><time>2026-08-17T02:17:40.648Z</time><hdop>3.0</hdop><vdop>2.625</vdop><extensions><gom:speed>0.099</gom:speed></extensions></trkpt>
   <trkpt lat="59.3260209936" lon="34.7082573582"><ele>173.1</ele><time>2026-08-17T02:17:41.649Z</time><hdop>3.0</hdop><vdop>2.687</vdop><extensions><gom:speed>0.087</gom:speed></extensions></trkpt>
   <trkpt lat="59.326020784" lon="34.7082571905"><ele>173.155</ele><time>2026-08-17T02:17:42.692Z</time><hdop>3.0</hdop><vdop>2.5</vdop><extensions><gom:speed>0.088</gom:speed></extensions></trkpt>
   <trkpt lat="59.3260201973" lon="34.7082561847"><ele>173.193</ele><time>2026-08-17T02:17:43.665Z</time><hdop>3.0</hdop><vdop>2.5</vdop><extensions><gom:speed>0.079</gom:speed></extensions></trkpt>
   <trkpt lat="59.3260194848" lon="34.708254173"><ele>173.22</ele><time>2026-08-17T02:17:44.648Z</time><hdop>3.0</hdop><vdop>2.5</vdop><extensions><gom:speed>0.071</gom:speed></extensions></trkpt>
   <trkpt lat="59.3260191914" lon="34.7082538378"><ele>173.24</ele><time>2026-08-17T02:17:45.648Z</time><hdop>3.0</hdop><vdop>2.5</vdop><extensions><gom:speed>0.072</gom:speed></extensions></trkpt>
   <trkpt lat="59.3260188981" lon="34.7082530834"><ele>173.256</ele><time>2026-08-17T02:17:46.649Z</time><hdop>3.0</hdop><vdop>2.5</vdop><extensions><gom:speed>0.071</gom:speed></extensions></trkpt>
   <trkpt lat="59.3260185628" lon="34.7082526643"><ele>173.126</ele><time>2026-08-17T02:17:47.647Z</time><hdop>3.0</hdop><vdop>2.5</vdop><extensions><gom:speed>0.593</gom:speed></extensions></trkpt>
   <trkpt lat="59.3260175989" lon="34.7082511556"><ele>172.98</ele><time>2026-08-17T02:17:48.649Z</time><hdop>3.0</hdop><vdop>2.5</vdop><extensions><gom:speed>0.093</gom:speed></extensions></trkpt>
   <trkpt lat="59.3260180599" lon="34.7082512394"><ele>172.864</ele><time>2026-08-17T02:17:49.648Z</time><hdop>3.0</hdop><vdop>2.5</vdop><extensions><gom:speed>0.079</gom:speed></extensions></trkpt>
   <trkpt lat="59.3260185628" lon="34.7082511556"><ele>172.797</ele><time>2026-08-17T02:17:50.648Z</time><hdop>3.0</hdop><vdop>2.5</vdop><extensions><gom:speed>0.07</gom:speed></extensions></trkpt>
   <trkpt lat="59.326018479" lon="34.7082509879"><ele>172.758</ele><time>2026-08-17T02:17:51.692Z</time><hdop>3.0</hdop><vdop>2.5</vdop><extensions><gom:speed>0.071</gom:speed></extensions></trkpt>
   <trkpt lat="59.3260195686" lon="34.708250485"><ele>172.736</ele><time>2026-08-17T02:17:52.648Z</time><hdop>3.0</hdop><vdop>2.562</vdop><extensions><gom:speed>0.058</gom:speed></extensions></trkpt>
   <trkpt lat="59.3260200715" lon="34.708250485"><ele>172.721</ele><time>2026-08-17T02:17:53.648Z</time><hdop>3.0</hdop><vdop>2.625</vdop><extensions><gom:speed>0.057</gom:speed></extensions></trkpt>
   <trkpt lat="59.3260203649" lon="34.7082503174"><ele>172.716</ele><time>2026-08-17T02:17:54.649Z</time><hdop>3.0</hdop><vdop>2.625</vdop><extensions><gom:speed>0.055</gom:speed></extensions></trkpt>
   <trkpt lat="59.3260203649" lon="34.7082502336"><ele>172.721</ele><time>2026-08-17T02:17:55.692Z</time><hdop>3.0</hdop><vdop>2.687</vdop><extensions><gom:speed>0.056</gom:speed></extensions></trkpt>
   <trkpt lat="59.3260210774" lon="34.7082502336"><ele>172.727</ele><time>2026-08-17T02:17:56.647Z</time><hdop>3.0</hdop><vdop>2.687</vdop><extensions><gom:speed>0.058</gom:speed></extensions></trkpt>
   <trkpt lat="59.3260214965" lon="34.7082499821"><ele>172.98</ele><time>2026-08-17T02:17:57.649Z</time><hdop>3.0</hdop><vdop>2.562</vdop><extensions><gom:speed>0.128</gom:speed></extensions></trkpt>
   <trkpt lat="59.3260214965" lon="34.7082494792"><ele>173.131</ele><time>2026-08-17T02:17:58.669Z</time><hdop>3.0</hdop><vdop>2.562</vdop><extensions><gom:speed>0.128</gom:speed></extensions></trkpt>
   <trkpt lat="59.3260216641" lon="34.7082471322"><ele>173.004</ele><time>2026-08-17T02:17:59.549Z</time><hdop>3.0</hdop><vdop>2.687</vdop><extensions><gom:speed>0.389</gom:speed></extensions></trkpt>
   <trkpt lat="59.3260219994" lon="34.7082412649"><ele>173.236</ele><time>2026-08-17T02:18:00.648Z</time><hdop>3.0</hdop><vdop>2.937</vdop><extensions><gom:speed>0.374</gom:speed></extensions></trkpt>
   <trkpt lat="59.3260218737" lon="34.7082385827"><ele>173.144</ele><time>2026-08-17T02:18:01.654Z</time><hdop>3.062</hdop><vdop>3.187</vdop><extensions><gom:speed>0.375</gom:speed></extensions></trkpt>
   <trkpt lat="59.3260209936" lon="34.7082325477"><ele>173.089</ele><time>2026-08-17T02:18:02.473Z</time><hdop>3.125</hdop><vdop>3.187</vdop><extensions><gom:speed>0.327</gom:speed></extensions></trkpt>
   <trkpt lat="59.3260204906" lon="34.7082294464"><ele>173.37</ele><time>2026-08-17T02:18:03.404Z</time><hdop>3.187</hdop><vdop>3.25</vdop><extensions><gom:speed>0.085</gom:speed></extensions></trkpt>
   <trkpt lat="59.3260218737" lon="34.708225926"><ele>173.556</ele><time>2026-08-17T02:18:04.365Z</time><hdop>3.187</hdop><vdop>2.937</vdop><extensions><gom:speed>0.13</gom:speed></extensions></trkpt>
   <trkpt lat="59.3260228795" lon="34.7082221542"><ele>173.762</ele><time>2026-08-17T02:18:05.387Z</time><hdop>3.187</hdop><vdop>2.687</vdop><extensions><gom:speed>0.16</gom:speed></extensions></trkpt>
   <trkpt lat="59.3260241787" lon="34.7082177956"><ele>173.441</ele><time>2026-08-17T02:18:06.167Z</time><hdop>3.187</hdop><vdop>2.625</vdop><extensions><gom:speed>0.177</gom:speed></extensions></trkpt>
   <trkpt lat="59.3260257712" lon="34.7082159516"><ele>173.311</ele><time>2026-08-17T02:18:06.649Z</time><hdop>3.125</hdop><vdop>2.687</vdop><extensions><gom:speed>0.157</gom:speed></extensions></trkpt>
   <trkpt lat="59.326025897" lon="34.7082135208"><ele>173.233</ele><time>2026-08-17T02:18:07.653Z</time><hdop>3.0</hdop><vdop>2.687</vdop><extensions><gom:speed>0.157</gom:speed></extensions></trkpt>
   <trkpt lat="59.3260273638" lon="34.7082069829"><ele>172.79</ele><time>2026-08-17T02:18:08.692Z</time><hdop>3.0</hdop><vdop>3.062</vdop><extensions><gom:speed>0.171</gom:speed></extensions></trkpt>
   <trkpt lat="59.3260342789" lon="34.7082005289"><ele>172.601</ele><time>2026-08-17T02:18:09.648Z</time><hdop>3.0</hdop><vdop>3.062</vdop><extensions><gom:speed>0.212</gom:speed></extensions></trkpt>
   <trkpt lat="59.3260344884" lon="34.708200026"><ele>172.488</ele><time>2026-08-17T02:18:10.405Z</time><hdop>3.0</hdop><vdop>3.062</vdop><extensions><gom:speed>0.194</gom:speed></extensions></trkpt>
   <trkpt lat="59.3260419902" lon="34.7081978467"><ele>172.43</ele><time>2026-08-17T02:18:11.648Z</time><hdop>3.0</hdop><vdop>2.937</vdop><extensions><gom:speed>0.169</gom:speed></extensions></trkpt>
   <trkpt lat="59.326042074" lon="34.7081988525"><ele>172.324</ele><time>2026-08-17T02:18:12.692Z</time><hdop>3.0</hdop><vdop>3.0</vdop><extensions><gom:speed>0.079</gom:speed></extensions></trkpt>
   <trkpt lat="59.3260463907" lon="34.7081948292"><ele>172.26</ele><time>2026-08-17T02:18:13.653Z</time><hdop>3.0</hdop><vdop>3.0</vdop><extensions><gom:speed>0.111</gom:speed></extensions></trkpt>
   <trkpt lat="59.3260495758" lon="34.7081927337"><ele>172.346</ele><time>2026-08-17T02:18:14.149Z</time><hdop>3.0</hdop><vdop>2.937</vdop><extensions><gom:speed>0.059</gom:speed></extensions></trkpt>
   <trkpt lat="59.3260503721" lon="34.7081932366"><ele>172.493</ele><time>2026-08-17T02:18:14.692Z</time><hdop>3.0</hdop><vdop>3.062</vdop><extensions><gom:speed>0.089</gom:speed></extensions></trkpt>
   <trkpt lat="59.3260543954" lon="34.7081863635"><ele>172.581</ele><time>2026-08-17T02:18:15.616Z</time><hdop>3.0</hdop><vdop>3.062</vdop><extensions><gom:speed>0.115</gom:speed></extensions></trkpt>
   <trkpt lat="59.3260576644" lon="34.7081788197"><ele>172.966</ele><time>2026-08-17T02:18:16.526Z</time><hdop>3.0</hdop><vdop>2.875</vdop><extensions><gom:speed>0.12</gom:speed></extensions></trkpt>
   <trkpt lat="59.3260617715" lon="34.7081584517"><ele>172.487</ele><time>2026-08-17T02:18:17.648Z</time><hdop>3.0</hdop><vdop>2.687</vdop><extensions><gom:speed>0.263</gom:speed></extensions></trkpt>
   <trkpt lat="59.3260618972" lon="34.7081588708"><ele>172.201</ele><time>2026-08-17T02:18:18.469Z</time><hdop>3.0</hdop><vdop>2.687</vdop><extensions><gom:speed>0.199</gom:speed></extensions></trkpt>
   <trkpt lat="59.3260621906" lon="34.708145795"><ele>171.878</ele><time>2026-08-17T02:18:19.430Z</time><hdop>3.0</hdop><vdop>2.687</vdop><extensions><gom:speed>0.25</gom:speed></extensions></trkpt>
   <trkpt lat="59.3260597599" lon="34.7081375808"><ele>171.639</ele><time>2026-08-17T02:18:20.692Z</time><hdop>3.0</hdop><vdop>2.687</vdop><extensions><gom:speed>0.134</gom:speed></extensions></trkpt>
   <trkpt lat="59.3260557784" lon="34.7081247565"><ele>171.211</ele><time>2026-08-17T02:18:21.693Z</time><hdop>3.0</hdop><vdop>2.562</vdop><extensions><gom:speed>0.156</gom:speed></extensions></trkpt>
   <trkpt lat="59.3260505817" lon="34.7081143629"><ele>170.955</ele><time>2026-08-17T02:18:22.567Z</time><hdop>3.0</hdop><vdop>2.562</vdop><extensions><gom:speed>0.196</gom:speed></extensions></trkpt>
   <trkpt lat="59.326046265" lon="34.7081083279"><ele>170.763</ele><time>2026-08-17T02:18:23.568Z</time><hdop>3.0</hdop><vdop>2.562</vdop><extensions><gom:speed>0.177</gom:speed></extensions></trkpt>
   <trkpt lat="59.3260405653" lon="34.7081029635"><ele>170.775</ele><time>2026-08-17T02:18:24.448Z</time><hdop>3.0</hdop><vdop>2.812</vdop><extensions><gom:speed>0.204</gom:speed></extensions></trkpt>
   <trkpt lat="59.3260336921" lon="34.7080954198"><ele>170.541</ele><time>2026-08-17T02:18:25.530Z</time><hdop>3.0</hdop><vdop>3.0</vdop><extensions><gom:speed>0.244</gom:speed></extensions></trkpt>
   <trkpt lat="59.3260270704" lon="34.7080893848"><ele>170.196</ele><time>2026-08-17T02:18:26.451Z</time><hdop>3.0</hdop><vdop>3.187</vdop><extensions><gom:speed>0.247</gom:speed></extensions></trkpt>
   <trkpt lat="59.3260172636" lon="34.7080800809"><ele>169.36</ele><time>2026-08-17T02:18:27.648Z</time><hdop>3.0</hdop><vdop>3.312</vdop><extensions><gom:speed>0.239</gom:speed></extensions></trkpt>
   <trkpt lat="59.3260171798" lon="34.7080772311"><ele>168.86</ele><time>2026-08-17T02:18:28.606Z</time><hdop>3.0</hdop><vdop>3.312</vdop><extensions><gom:speed>0.227</gom:speed></extensions></trkpt>
   <trkpt lat="59.3260147909" lon="34.7080734592"><ele>168.646</ele><time>2026-08-17T02:18:29.589Z</time><hdop>3.0</hdop><vdop>3.25</vdop><extensions><gom:speed>0.19</gom:speed></extensions></trkpt>
   <trkpt lat="59.3260103904" lon="34.70806382"><ele>168.073</ele><time>2026-08-17T02:18:30.609Z</time><hdop>3.0</hdop><vdop>3.312</vdop><extensions><gom:speed>0.234</gom:speed></extensions></trkpt>
   <trkpt lat="59.3260028886" lon="34.708055941"><ele>167.596</ele><time>2026-08-17T02:18:31.648Z</time><hdop>3.0</hdop><vdop>3.25</vdop><extensions><gom:speed>0.173</gom:speed></extensions></trkpt>
   <trkpt lat="59.3259993682" lon="34.7080524206"><ele>167.416</ele><time>2026-08-17T02:18:32.649Z</time><hdop>3.0</hdop><vdop>3.125</vdop><extensions><gom:speed>0.165</gom:speed></extensions></trkpt>
   <trkpt lat="59.3259991587" lon="34.7080510795"><ele>167.308</ele><time>2026-08-17T02:18:33.392Z</time><hdop>3.0</hdop><vdop>3.125</vdop><extensions><gom:speed>0.16</gom:speed></extensions></trkpt>
   <trkpt lat="59.3259953868" lon="34.7080472239"><ele>167.086</ele><time>2026-08-17T02:18:34.211Z</time><hdop>3.0</hdop><vdop>3.0</vdop><extensions><gom:speed>0.161</gom:speed></extensions></trkpt>
   <trkpt lat="59.3259952611" lon="34.7080468886"><ele>167.025</ele><time>2026-08-17T02:18:34.692Z</time><hdop>3.0</hdop><vdop>3.0</vdop><extensions><gom:speed>0.127</gom:speed></extensions></trkpt>
   <trkpt lat="59.3259854962" lon="34.7080412727"><ele>167.403</ele><time>2026-08-17T02:18:35.648Z</time><hdop>3.0</hdop><vdop>2.875</vdop><extensions><gom:speed>0.147</gom:speed></extensions></trkpt>
   <trkpt lat="59.3259849933" lon="34.7080381714"><ele>167.593</ele><time>2026-08-17T02:18:36.659Z</time><hdop>3.0</hdop><vdop>2.875</vdop><extensions><gom:speed>0.178</gom:speed></extensions></trkpt>
   <trkpt lat="59.3259794612" lon="34.7080268558"><ele>167.54</ele><time>2026-08-17T02:18:37.647Z</time><hdop>3.0</hdop><vdop>3.0</vdop><extensions><gom:speed>0.19</gom:speed></extensions></trkpt>
   <trkpt lat="59.3259791679" lon="34.7080222458"><ele>167.171</ele><time>2026-08-17T02:18:38.647Z</time><hdop>3.0</hdop><vdop>3.062</vdop><extensions><gom:speed>0.175</gom:speed></extensions></trkpt>
   <trkpt lat="59.3259784973" lon="34.7080181387"><ele>166.951</ele><time>2026-08-17T02:18:39.634Z</time><hdop>3.0</hdop><vdop>3.062</vdop><extensions><gom:speed>0.217</gom:speed></extensions></trkpt>
   <trkpt lat="59.3259773657" lon="34.7080101758"><ele>167.132</ele><time>2026-08-17T02:18:40.524Z</time><hdop>3.062</hdop><vdop>3.25</vdop><extensions><gom:speed>0.255</gom:speed></extensions></trkpt>
   <trkpt lat="59.3259762761" lon="34.7080015425"><ele>167.271</ele><time>2026-08-17T02:18:41.445Z</time><hdop>3.187</hdop><vdop>3.687</vdop><extensions><gom:speed>0.263</gom:speed></extensions></trkpt>
   <trkpt lat="59.3259742644" lon="34.707986958"><ele>167.371</ele><time>2026-08-17T02:18:42.467Z</time><hdop>3.312</hdop><vdop>4.25</vdop><extensions><gom:speed>0.331</gom:speed></extensions></trkpt>
   <trkpt lat="59.3259718756" lon="34.7079736307"><ele>167.666</ele><time>2026-08-17T02:18:43.408Z</time><hdop>3.562</hdop><vdop>4.25</vdop><extensions><gom:speed>0.381</gom:speed></extensions></trkpt>
   <trkpt lat="59.3259701992" lon="34.7079701942"><ele>167.644</ele><time>2026-08-17T02:18:44.268Z</time><hdop>3.812</hdop><vdop>3.875</vdop><extensions><gom:speed>0.361</gom:speed></extensions></trkpt>
   <trkpt lat="59.3259686905" lon="34.7079568669"><ele>167.548</ele><time>2026-08-17T02:18:45.269Z</time><hdop>3.937</hdop><vdop>4.187</vdop><extensions><gom:speed>0.336</gom:speed></extensions></trkpt>
   <trkpt lat="59.325966595" lon="34.7079416957"><ele>167.685</ele><time>2026-08-17T02:18:46.251Z</time><hdop>4.062</hdop><vdop>4.0</vdop><extensions><gom:speed>0.369</gom:speed></extensions></trkpt>
   <trkpt lat="59.3259646672" lon="34.7079264406"><ele>167.967</ele><time>2026-08-17T02:18:47.070Z</time><hdop>4.187</hdop><vdop>3.562</vdop><extensions><gom:speed>0.408</gom:speed></extensions></trkpt>
   <trkpt lat="59.3259629908" lon="34.7079120238"><ele>168.567</ele><time>2026-08-17T02:18:47.648Z</time><hdop>4.187</hdop><vdop>3.187</vdop><extensions><gom:speed>0.445</gom:speed></extensions></trkpt>
   <trkpt lat="59.3259626974" lon="34.7079088386"><ele>168.925</ele><time>2026-08-17T02:18:48.274Z</time><hdop>4.187</hdop><vdop>3.187</vdop><extensions><gom:speed>0.391</gom:speed></extensions></trkpt>
   <trkpt lat="59.325961985" lon="34.7078950923"><ele>169.243</ele><time>2026-08-17T02:18:49.508Z</time><hdop>4.187</hdop><vdop>3.187</vdop><extensions><gom:speed>0.355</gom:speed></extensions></trkpt>
   <trkpt lat="59.3259630746" lon="34.7078784961"><ele>169.65</ele><time>2026-08-17T02:18:50.648Z</time><hdop>4.125</hdop><vdop>3.0</vdop><extensions><gom:speed>0.275</gom:speed></extensions></trkpt>
   <trkpt lat="59.3259626974" lon="34.7078780771"><ele>169.893</ele><time>2026-08-17T02:18:51.329Z</time><hdop>4.125</hdop><vdop>3.0</vdop><extensions><gom:speed>0.212</gom:speed></extensions></trkpt>
   <trkpt lat="59.3259623621" lon="34.7078694437"><ele>169.946</ele><time>2026-08-17T02:18:52.068Z</time><hdop>4.125</hdop><vdop>3.0</vdop><extensions><gom:speed>0.171</gom:speed></extensions></trkpt>
   <trkpt lat="59.3259631584" lon="34.7078584634"><ele>170.143</ele><time>2026-08-17T02:18:52.648Z</time><hdop>4.125</hdop><vdop>3.25</vdop><extensions><gom:speed>0.197</gom:speed></extensions></trkpt>
   <trkpt lat="59.3259641642" lon="34.7078464773"><ele>170.178</ele><time>2026-08-17T02:18:53.649Z</time><hdop>4.062</hdop><vdop>3.125</vdop><extensions><gom:speed>0.167</gom:speed></extensions></trkpt>
   <trkpt lat="59.3259666788" lon="34.707835497"><ele>170.499</ele><time>2026-08-17T02:18:54.648Z</time><hdop>4.125</hdop><vdop>3.125</vdop><extensions><gom:speed>0.161</gom:speed></extensions></trkpt>
   <trkpt lat="59.3259700735" lon="34.7078218345"><ele>170.81</ele><time>2026-08-17T02:18:55.649Z</time><hdop>4.125</hdop><vdop>3.25</vdop><extensions><gom:speed>0.173</gom:speed></extensions></trkpt>
   <trkpt lat="59.325970283" lon="34.707821583"><ele>171.054</ele><time>2026-08-17T02:18:56.651Z</time><hdop>4.187</hdop><vdop>3.0</vdop><extensions><gom:speed>0.17</gom:speed></extensions></trkpt>
   <trkpt lat="59.3259743902" lon="34.7078106866"><ele>171.225</ele><time>2026-08-17T02:18:57.663Z</time><hdop>4.25</hdop><vdop>2.937</vdop><extensions><gom:speed>0.142</gom:speed></extensions></trkpt>
   <trkpt lat="59.3259822692" lon="34.7077915758"><ele>171.327</ele><time>2026-08-17T02:18:58.648Z</time><hdop>4.312</hdop><vdop>2.875</vdop><extensions><gom:speed>0.077</gom:speed></extensions></trkpt>
   <trkpt lat="59.3259853705" lon="34.7077833615"><ele>171.39</ele><time>2026-08-17T02:18:59.647Z</time><hdop>4.25</hdop><vdop>2.687</vdop><extensions><gom:speed>0.071</gom:speed></extensions></trkpt>
   <trkpt lat="59.3259872983" lon="34.7077765722"><ele>171.405</ele><time>2026-08-17T02:19:00.648Z</time><hdop>4.187</hdop><vdop>2.625</vdop><extensions><gom:speed>0.081</gom:speed></extensions></trkpt>
   <trkpt lat="59.3259864601" lon="34.7077758178"><ele>171.414</ele><time>2026-08-17T02:19:01.204Z</time><hdop>4.187</hdop><vdop>2.625</vdop><extensions><gom:speed>0.117</gom:speed></extensions></trkpt>
   <trkpt lat="59.3259872983" lon="34.7077701181"><ele>171.287</ele><time>2026-08-17T02:19:02.246Z</time><hdop>4.0</hdop><vdop>2.625</vdop><extensions><gom:speed>0.134</gom:speed></extensions></trkpt>
   <trkpt lat="59.3259881784" lon="34.7077626582"><ele>171.347</ele><time>2026-08-17T02:19:03.648Z</time><hdop>3.875</hdop><vdop>2.5</vdop><extensions><gom:speed>0.137</gom:speed></extensions></trkpt>
   <trkpt lat="59.3259870888" lon="34.7077594731"><ele>171.259</ele><time>2026-08-17T02:19:04.648Z</time><hdop>3.812</hdop><vdop>2.5</vdop><extensions><gom:speed>0.162</gom:speed></extensions></trkpt>
   <trkpt lat="59.3259861667" lon="34.7077587188"><ele>171.207</ele><time>2026-08-17T02:19:05.655Z</time><hdop>3.875</hdop><vdop>2.5</vdop><extensions><gom:speed>0.19</gom:speed></extensions></trkpt>
   <trkpt lat="59.3259844904" lon="34.7077546954"><ele>171.129</ele><time>2026-08-17T02:19:06.667Z</time><hdop>3.875</hdop><vdop>2.5</vdop><extensions><gom:speed>0.207</gom:speed></extensions></trkpt>
   <trkpt lat="59.3259833588" lon="34.707746565"><ele>171.033</ele><time>2026-08-17T02:19:07.647Z</time><hdop>3.937</hdop><vdop>2.687</vdop><extensions><gom:speed>0.2</gom:speed></extensions></trkpt>
   <trkpt lat="59.3259821853" lon="34.7077389375"><ele>171.303</ele><time>2026-08-17T02:19:08.647Z</time><hdop>3.937</hdop><vdop>3.0</vdop><extensions><gom:speed>0.246</gom:speed></extensions></trkpt>
   <trkpt lat="59.3259812633" lon="34.7077288792"><ele>171.323</ele><time>2026-08-17T02:19:09.648Z</time><hdop>4.0</hdop><vdop>2.812</vdop><extensions><gom:speed>0.311</gom:speed></extensions></trkpt>
   <trkpt lat="59.3259815986" lon="34.7077184856"><ele>171.331</ele><time>2026-08-17T02:19:10.648Z</time><hdop>3.937</hdop><vdop>2.937</vdop><extensions><gom:speed>0.336</gom:speed></extensions></trkpt>
   <trkpt lat="59.3259824787" lon="34.7077115286"><ele>171.205</ele><time>2026-08-17T02:19:11.648Z</time><hdop>3.937</hdop><vdop>3.062</vdop><extensions><gom:speed>0.278</gom:speed></extensions></trkpt>
   <trkpt lat="59.3259837779" lon="34.7077160549"><ele>171.13</ele><time>2026-08-17T02:19:12.707Z</time><hdop>3.937</hdop><vdop>3.062</vdop><extensions><gom:speed>0.121</gom:speed></extensions></trkpt>
   <trkpt lat="59.3259844904" lon="34.707709517"><ele>170.957</ele><time>2026-08-17T02:19:13.405Z</time><hdop>3.937</hdop><vdop>2.937</vdop><extensions><gom:speed>0.156</gom:speed></extensions></trkpt>
   <trkpt lat="59.3259852866" lon="34.707705326"><ele>170.677</ele><time>2026-08-17T02:19:14.154Z</time><hdop>4.0</hdop><vdop>2.812</vdop><extensions><gom:speed>0.138</gom:speed></extensions></trkpt>
   <trkpt lat="59.3259862925" lon="34.7076987881"><ele>170.245</ele><time>2026-08-17T02:19:14.648Z</time><hdop>4.0</hdop><vdop>2.687</vdop><extensions><gom:speed>0.14</gom:speed></extensions></trkpt>
   <trkpt lat="59.32598558" lon="34.7076981176"><ele>169.861</ele><time>2026-08-17T02:19:15.651Z</time><hdop>4.0</hdop><vdop>2.625</vdop><extensions><gom:speed>0.119</gom:speed></extensions></trkpt>
   <trkpt lat="59.3259864601" lon="34.707689568"><ele>169.63</ele><time>2026-08-17T02:19:16.647Z</time><hdop>4.0</hdop><vdop>2.5</vdop><extensions><gom:speed>0.104</gom:speed></extensions></trkpt>
   <trkpt lat="59.3259862925" lon="34.7076878917"><ele>169.491</ele><time>2026-08-17T02:19:17.655Z</time><hdop>4.062</hdop><vdop>2.5</vdop><extensions><gom:speed>0.094</gom:speed></extensions></trkpt>
   <trkpt lat="59.3259872983" lon="34.7076786716"><ele>169.409</ele><time>2026-08-17T02:19:18.648Z</time><hdop>4.0</hdop><vdop>2.5</vdop><extensions><gom:speed>0.071</gom:speed></extensions></trkpt>
   <trkpt lat="59.325987885" lon="34.7076734748"><ele>169.36</ele><time>2026-08-17T02:19:19.648Z</time><hdop>4.0</hdop><vdop>2.5</vdop><extensions><gom:speed>0.084</gom:speed></extensions></trkpt>
   <trkpt lat="59.3259882622" lon="34.7076704573"><ele>169.331</ele><time>2026-08-17T02:19:20.648Z</time><hdop>3.937</hdop><vdop>2.5</vdop><extensions><gom:speed>0.07</gom:speed></extensions></trkpt>
   <trkpt lat="59.325987885" lon="34.7076687809"><ele>169.315</ele><time>2026-08-17T02:19:21.661Z</time><hdop>4.062</hdop><vdop>2.5</vdop><extensions><gom:speed>0.093</gom:speed></extensions></trkpt>
   <trkpt lat="59.325989268" lon="34.7076628298"><ele>169.306</ele><time>2026-08-17T02:19:22.648Z</time><hdop>4.0</hdop><vdop>2.5</vdop><extensions><gom:speed>0.063</gom:speed></extensions></trkpt>
   <trkpt lat="59.325989268" lon="34.7076605667"><ele>169.302</ele><time>2026-08-17T02:19:23.648Z</time><hdop>3.937</hdop><vdop>2.5</vdop><extensions><gom:speed>0.059</gom:speed></extensions></trkpt>
   <trkpt lat="59.3259895614" lon="34.7076586388"><ele>169.303</ele><time>2026-08-17T02:19:24.648Z</time><hdop>3.937</hdop><vdop>2.5</vdop><extensions><gom:speed>0.064</gom:speed></extensions></trkpt>
   <trkpt lat="59.325989268" lon="34.7076541964"><ele>169.302</ele><time>2026-08-17T02:19:25.648Z</time><hdop>3.875</hdop><vdop>2.5</vdop><extensions><gom:speed>0.083</gom:speed></extensions></trkpt>
   <trkpt lat="59.3259889747" lon="34.7076544479"><ele>169.302</ele><time>2026-08-17T02:19:26.113Z</time><hdop>3.812</hdop><vdop>2.5</vdop><extensions><gom:speed>0.018</gom:speed></extensions></trkpt>
   <trkpt lat="59.3259896871" lon="34.7076508437"><ele>169.272</ele><time>2026-08-17T02:19:26.648Z</time><hdop>3.75</hdop><vdop>2.5</vdop><extensions><gom:speed>0.091</gom:speed></extensions></trkpt>
   <trkpt lat="59.3259901901" lon="34.707645144"><ele>169.23</ele><time>2026-08-17T02:19:27.648Z</time><hdop>3.75</hdop><vdop>2.5</vdop><extensions><gom:speed>0.099</gom:speed></extensions></trkpt>
   <trkpt lat="59.3259904834" lon="34.7076454792"><ele>169.216</ele><time>2026-08-17T02:19:28.692Z</time><hdop>3.75</hdop><vdop>2.5</vdop><extensions><gom:speed>0.069</gom:speed></extensions></trkpt>
   <trkpt lat="59.3259909863" lon="34.7076361753"><ele>169.274</ele><time>2026-08-17T02:19:29.648Z</time><hdop>3.687</hdop><vdop>2.5</vdop><extensions><gom:speed>0.105</gom:speed></extensions></trkpt>
   <trkpt lat="59.325990693" lon="34.7076338284"><ele>169.308</ele><time>2026-08-17T02:19:30.564Z</time><hdop>3.687</hdop><vdop>2.5</vdop><extensions><gom:speed>0.117</gom:speed></extensions></trkpt>
   <trkpt lat="59.3259908606" lon="34.7076252789"><ele>170.099</ele><time>2026-08-17T02:19:31.566Z</time><hdop>3.687</hdop><vdop>2.5</vdop><extensions><gom:speed>0.143</gom:speed></extensions></trkpt>
   <trkpt lat="59.3259904834" lon="34.7076158911"><ele>170.728</ele><time>2026-08-17T02:19:32.446Z</time><hdop>3.687</hdop><vdop>2.5</vdop><extensions><gom:speed>0.166</gom:speed></extensions></trkpt>
   <trkpt lat="59.3259902739" lon="34.7076076769"><ele>170.906</ele><time>2026-08-17T02:19:33.265Z</time><hdop>3.687</hdop><vdop>2.5</vdop><extensions><gom:speed>0.181</gom:speed></extensions></trkpt>
   <trkpt lat="59.3259902739" lon="34.7075989597"><ele>171.529</ele><time>2026-08-17T02:19:34.014Z</time><hdop>3.687</hdop><vdop>2.625</vdop><extensions><gom:speed>0.206</gom:speed></extensions></trkpt>
   <trkpt lat="59.3259900643" lon="34.7075956907"><ele>171.761</ele><time>2026-08-17T02:19:34.652Z</time><hdop>3.687</hdop><vdop>2.687</vdop><extensions><gom:speed>0.222</gom:speed></extensions></trkpt>
   <trkpt lat="59.3259913635" lon="34.7075537812"><ele>171.877</ele><time>2026-08-17T02:19:35.692Z</time><hdop>3.625</hdop><vdop>2.75</vdop><extensions><gom:speed>0.231</gom:speed></extensions></trkpt>
   <trkpt lat="59.3259945906" lon="34.7075345867"><ele>172.271</ele><time>2026-08-17T02:19:36.692Z</time><hdop>3.562</hdop><vdop>2.625</vdop><extensions><gom:speed>0.158</gom:speed></extensions></trkpt>
   <trkpt lat="59.3259968956" lon="34.7075119555"><ele>172.602</ele><time>2026-08-17T02:19:37.647Z</time><hdop>3.437</hdop><vdop>2.5</vdop><extensions><gom:speed>0.189</gom:speed></extensions></trkpt>
   <trkpt lat="59.3259972728" lon="34.7075124584"><ele>172.8</ele><time>2026-08-17T02:19:38.273Z</time><hdop>3.375</hdop><vdop>2.5</vdop><extensions><gom:speed>0.154</gom:speed></extensions></trkpt>
   <trkpt lat="59.3259974823" lon="34.7074994665"><ele>172.861</ele><time>2026-08-17T02:19:39.447Z</time><hdop>3.25</hdop><vdop>2.687</vdop><extensions><gom:speed>0.179</gom:speed></extensions></trkpt>
   <trkpt lat="59.3259991587" lon="34.707487648"><ele>172.933</ele><time>2026-08-17T02:19:40.692Z</time><hdop>3.187</hdop><vdop>3.062</vdop><extensions><gom:speed>0.102</gom:speed></extensions></trkpt>
   <trkpt lat="59.3259976919" lon="34.7074631728"><ele>172.786</ele><time>2026-08-17T02:19:41.648Z</time><hdop>3.125</hdop><vdop>3.25</vdop><extensions><gom:speed>0.242</gom:speed></extensions></trkpt>
   <trkpt lat="59.325989771" lon="34.7074564673"><ele>172.469</ele><time>2026-08-17T02:19:42.649Z</time><hdop>3.062</hdop><vdop>3.375</vdop><extensions><gom:speed>0.287</gom:speed></extensions></trkpt>
   <trkpt lat="59.3259820596" lon="34.7074502647"><ele>171.603</ele><time>2026-08-17T02:19:43.648Z</time><hdop>3.062</hdop><vdop>3.125</vdop><extensions><gom:speed>0.227</gom:speed></extensions></trkpt>
   <trkpt lat="59.3259817662" lon="34.7074493427"><ele>171.085</ele><time>2026-08-17T02:19:44.607Z</time><hdop>3.0</hdop><vdop>3.125</vdop><extensions><gom:speed>0.166</gom:speed></extensions></trkpt>
   <trkpt lat="59.3259756894" lon="34.7074429725"><ele>171.198</ele><time>2026-08-17T02:19:45.588Z</time><hdop>3.0</hdop><vdop>3.062</vdop><extensions><gom:speed>0.143</gom:speed></extensions></trkpt>
   <trkpt lat="59.3259697801" lon="34.707431154"><ele>171.552</ele><time>2026-08-17T02:19:46.347Z</time><hdop>3.0</hdop><vdop>3.0</vdop><extensions><gom:speed>0.187</gom:speed></extensions></trkpt>
   <trkpt lat="59.3259649605" lon="34.7074198384"><ele>171.52</ele><time>2026-08-17T02:19:47.146Z</time><hdop>3.0</hdop><vdop>2.875</vdop><extensions><gom:speed>0.202</gom:speed></extensions></trkpt>
   <trkpt lat="59.3259602667" lon="34.707404751"><ele>171.61</ele><time>2026-08-17T02:19:47.648Z</time><hdop>3.0</hdop><vdop>2.937</vdop><extensions><gom:speed>0.431</gom:speed></extensions></trkpt>
   <trkpt lat="59.325960099" lon="34.7074018173"><ele>171.663</ele><time>2026-08-17T02:19:48.148Z</time><hdop>3.0</hdop><vdop>2.937</vdop><extensions><gom:speed>0.375</gom:speed></extensions></trkpt>
   <trkpt lat="59.3259596799" lon="34.7074012306"><ele>171.889</ele><time>2026-08-17T02:19:48.692Z</time><hdop>3.0</hdop><vdop>2.875</vdop><extensions><gom:speed>0.293</gom:speed></extensions></trkpt>
   <trkpt lat="59.3259561595" lon="34.7073891606"><ele>172.023</ele><time>2026-08-17T02:19:49.473Z</time><hdop>3.0</hdop><vdop>2.875</vdop><extensions><gom:speed>0.31</gom:speed></extensions></trkpt>
   <trkpt lat="59.3259536869" lon="34.7073764201"><ele>172.185</ele><time>2026-08-17T02:19:50.171Z</time><hdop>3.0</hdop><vdop>2.875</vdop><extensions><gom:speed>0.392</gom:speed></extensions></trkpt>
   <trkpt lat="59.3259523877" lon="34.7073719777"><ele>172.329</ele><time>2026-08-17T02:19:50.692Z</time><hdop>3.0</hdop><vdop>2.75</vdop><extensions><gom:speed>0.433</gom:speed></extensions></trkpt>
   <trkpt lat="59.3259509628" lon="34.707357058"><ele>172.414</ele><time>2026-08-17T02:19:51.628Z</time><hdop>3.0</hdop><vdop>2.75</vdop><extensions><gom:speed>0.427</gom:speed></extensions></trkpt>
   <trkpt lat="59.3259498731" lon="34.7073369414"><ele>172.118</ele><time>2026-08-17T02:19:52.549Z</time><hdop>3.0</hdop><vdop>2.687</vdop><extensions><gom:speed>0.559</gom:speed></extensions></trkpt>
   <trkpt lat="59.3259477776" lon="34.7073188365"><ele>172.07</ele><time>2026-08-17T02:19:53.429Z</time><hdop>3.0</hdop><vdop>2.75</vdop><extensions><gom:speed>0.613</gom:speed></extensions></trkpt>
   <trkpt lat="59.3259450954" lon="34.707305174"><ele>172.246</ele><time>2026-08-17T02:19:54.330Z</time><hdop>3.0</hdop><vdop>2.75</vdop><extensions><gom:speed>0.604</gom:speed></extensions></trkpt>
   <trkpt lat="59.3259399825" lon="34.7072886616"><ele>172.035</ele><time>2026-08-17T02:19:55.655Z</time><hdop>3.0</hdop><vdop>2.875</vdop><extensions><gom:speed>0.558</gom:speed></extensions></trkpt>
   <trkpt lat="59.3259367973" lon="34.7072840516"><ele>171.933</ele><time>2026-08-17T02:19:56.110Z</time><hdop>3.0</hdop><vdop>2.687</vdop><extensions><gom:speed>0.479</gom:speed></extensions></trkpt>
   <trkpt lat="59.325932774" lon="34.7072759211"><ele>172.146</ele><time>2026-08-17T02:19:56.648Z</time><hdop>3.0</hdop><vdop>2.562</vdop><extensions><gom:speed>0.55</gom:speed></extensions></trkpt>
   <trkpt lat="59.3259285831" lon="34.7072646894"><ele>172.377</ele><time>2026-08-17T02:19:57.648Z</time><hdop>3.0</hdop><vdop>2.5</vdop><extensions><gom:speed>0.526</gom:speed></extensions></trkpt>
   <trkpt lat="59.3259252722" lon="34.7072543796"><ele>172.603</ele><time>2026-08-17T02:19:58.647Z</time><hdop>3.0</hdop><vdop>2.625</vdop><extensions><gom:speed>0.466</gom:speed></extensions></trkpt>
   <trkpt lat="59.3259229672" lon="34.7072482608"><ele>172.097</ele><time>2026-08-17T02:19:59.648Z</time><hdop>3.0</hdop><vdop>2.625</vdop><extensions><gom:speed>0.359</gom:speed></extensions></trkpt>
   <trkpt lat="59.3259222966" lon="34.7072469197"><ele>171.795</ele><time>2026-08-17T02:20:00.208Z</time><hdop>3.0</hdop><vdop>2.625</vdop><extensions><gom:speed>0.301</gom:speed></extensions></trkpt>
   <trkpt lat="59.3259194887" lon="34.7072404657"><ele>171.486</ele><time>2026-08-17T02:20:01.644Z</time><hdop>3.0</hdop><vdop>2.75</vdop><extensions><gom:speed>0.312</gom:speed></extensions></trkpt>
   <trkpt lat="59.3259189858" lon="34.707246333"><ele>170.943</ele><time>2026-08-17T02:20:02.656Z</time><hdop>3.0</hdop><vdop>2.5</vdop><extensions><gom:speed>0.174</gom:speed></extensions></trkpt>
   <trkpt lat="59.3259152978" lon="34.7072479256"><ele>170.328</ele><time>2026-08-17T02:20:03.668Z</time><hdop>3.0</hdop><vdop>2.5</vdop><extensions><gom:speed>0.198</gom:speed></extensions></trkpt>
   <trkpt lat="59.3259122803" lon="34.7072527871"><ele>169.889</ele><time>2026-08-17T02:20:04.659Z</time><hdop>3.0</hdop><vdop>2.687</vdop><extensions><gom:speed>0.113</gom:speed></extensions></trkpt>
   <trkpt lat="59.3259098914" lon="34.7072579839"><ele>169.627</ele><time>2026-08-17T02:20:05.307Z</time><hdop>3.0</hdop><vdop>2.687</vdop><extensions><gom:speed>0.1</gom:speed></extensions></trkpt>
   <trkpt lat="59.3259071673" lon="34.7072617557"><ele>169.346</ele><time>2026-08-17T02:20:06.147Z</time><hdop>3.0</hdop><vdop>3.062</vdop><extensions><gom:speed>0.106</gom:speed></extensions></trkpt>
   <trkpt lat="59.3259068739" lon="34.7072608337"><ele>169.19</ele><time>2026-08-17T02:20:06.693Z</time><hdop>3.0</hdop><vdop>2.812</vdop><extensions><gom:speed>0.128</gom:speed></extensions></trkpt>
   <trkpt lat="59.325904066" lon="34.7072666172"><ele>168.949</ele><time>2026-08-17T02:20:07.648Z</time><hdop>3.0</hdop><vdop>3.0</vdop><extensions><gom:speed>0.149</gom:speed></extensions></trkpt>
   <trkpt lat="59.3259037726" lon="34.7072644379"><ele>168.842</ele><time>2026-08-17T02:20:08.692Z</time><hdop>3.0</hdop><vdop>2.812</vdop><extensions><gom:speed>0.145</gom:speed></extensions></trkpt>
   <trkpt lat="59.325898492" lon="34.7072592411"><ele>168.936</ele><time>2026-08-17T02:20:09.648Z</time><hdop>3.0</hdop><vdop>2.75</vdop><extensions><gom:speed>0.165</gom:speed></extensions></trkpt>
   <trkpt lat="59.3258978634" lon="34.7072582353"><ele>168.993</ele><time>2026-08-17T02:20:10.487Z</time><hdop>3.0</hdop><vdop>2.75</vdop><extensions><gom:speed>0.164</gom:speed></extensions></trkpt>
   <trkpt lat="59.3258953907" lon="34.7072526194"><ele>168.889</ele><time>2026-08-17T02:20:11.306Z</time><hdop>3.0</hdop><vdop>2.937</vdop><extensions><gom:speed>0.22</gom:speed></extensions></trkpt>
   <trkpt lat="59.325893882" lon="34.7072474227"><ele>168.78</ele><time>2026-08-17T02:20:12.045Z</time><hdop>3.0</hdop><vdop>3.25</vdop><extensions><gom:speed>0.244</gom:speed></extensions></trkpt>
   <trkpt lat="59.3258930857" lon="34.7072407171"><ele>168.478</ele><time>2026-08-17T02:20:12.647Z</time><hdop>3.0</hdop><vdop>3.312</vdop><extensions><gom:speed>0.323</gom:speed></extensions></trkpt>
   <trkpt lat="59.3258912836" lon="34.7072325867"><ele>168.162</ele><time>2026-08-17T02:20:13.648Z</time><hdop>3.0</hdop><vdop>3.5</vdop><extensions><gom:speed>0.287</gom:speed></extensions></trkpt>
   <trkpt lat="59.3258904873" lon="34.7072311618"><ele>167.973</ele><time>2026-08-17T02:20:14.564Z</time><hdop>3.0</hdop><vdop>3.5</vdop><extensions><gom:speed>0.233</gom:speed></extensions></trkpt>
   <trkpt lat="59.3258895653" lon="34.7072269708"><ele>167.593</ele><time>2026-08-17T02:20:15.394Z</time><hdop>3.0</hdop><vdop>3.312</vdop><extensions><gom:speed>0.173</gom:speed></extensions></trkpt>
   <trkpt lat="59.3258872603" lon="34.7072176669"><ele>167.417</ele><time>2026-08-17T02:20:16.173Z</time><hdop>3.0</hdop><vdop>3.437</vdop><extensions><gom:speed>0.235</gom:speed></extensions></trkpt>
   <trkpt lat="59.3258862964" lon="34.7072163258"><ele>167.362</ele><time>2026-08-17T02:20:16.658Z</time><hdop>3.0</hdop><vdop>3.375</vdop><extensions><gom:speed>0.235</gom:speed></extensions></trkpt>
   <trkpt lat="59.3258846619" lon="34.7072047588"><ele>167.421</ele><time>2026-08-17T02:20:17.692Z</time><hdop>3.0</hdop><vdop>3.5</vdop><extensions><gom:speed>0.196</gom:speed></extensions></trkpt>
   <trkpt lat="59.3258829855" lon="34.7071739972"><ele>167.581</ele><time>2026-08-17T02:20:18.649Z</time><hdop>3.0</hdop><vdop>3.75</vdop><extensions><gom:speed>0.458</gom:speed></extensions></trkpt>
   <trkpt lat="59.3258828598" lon="34.7071774338"><ele>168.088</ele><time>2026-08-17T02:20:19.693Z</time><hdop>3.0</hdop><vdop>3.375</vdop><extensions><gom:speed>0.167</gom:speed></extensions></trkpt>
   <trkpt lat="59.3258854582" lon="34.7071408887"><ele>168.009</ele><time>2026-08-17T02:20:20.648Z</time><hdop>3.0</hdop><vdop>3.062</vdop><extensions><gom:speed>0.374</gom:speed></extensions></trkpt>
   <trkpt lat="59.3258853744" lon="34.7071408887"><ele>167.962</ele><time>2026-08-17T02:20:21.606Z</time><hdop>3.0</hdop><vdop>3.062</vdop><extensions><gom:speed>0.233</gom:speed></extensions></trkpt>
   <trkpt lat="59.325884159" lon="34.707120353"><ele>168.026</ele><time>2026-08-17T02:20:22.486Z</time><hdop>3.0</hdop><vdop>3.187</vdop><extensions><gom:speed>0.33</gom:speed></extensions></trkpt>
   <trkpt lat="59.3258819797" lon="34.7071025834"><ele>167.98</ele><time>2026-08-17T02:20:23.113Z</time><hdop>3.0</hdop><vdop>3.5</vdop><extensions><gom:speed>0.413</gom:speed></extensions></trkpt>
   <trkpt lat="59.3258812672" lon="34.7070858196"><ele>168.021</ele><time>2026-08-17T02:20:23.648Z</time><hdop>3.0</hdop><vdop>3.687</vdop><extensions><gom:speed>0.554</gom:speed></extensions></trkpt>
   <trkpt lat="59.3258816863" lon="34.7070824668"><ele>168.484</ele><time>2026-08-17T02:20:24.651Z</time><hdop>3.0</hdop><vdop>3.75</vdop><extensions><gom:speed>0.382</gom:speed></extensions></trkpt>
   <trkpt lat="59.3258920799" lon="34.7070617635"><ele>168.164</ele><time>2026-08-17T02:20:25.648Z</time><hdop>3.0</hdop><vdop>3.437</vdop><extensions><gom:speed>0.294</gom:speed></extensions></trkpt>
   <trkpt lat="59.3258920799" lon="34.707063859"><ele>167.975</ele><time>2026-08-17T02:20:26.692Z</time><hdop>3.0</hdop><vdop>3.25</vdop><extensions><gom:speed>0.121</gom:speed></extensions></trkpt>
   <trkpt lat="59.3258981987" lon="34.7070551418"><ele>167.867</ele><time>2026-08-17T02:20:27.648Z</time><hdop>3.0</hdop><vdop>2.937</vdop><extensions><gom:speed>0.113</gom:speed></extensions></trkpt>
   <trkpt lat="59.325898492" lon="34.7070536331"><ele>167.802</ele><time>2026-08-17T02:20:28.657Z</time><hdop>3.0</hdop><vdop>2.875</vdop><extensions><gom:speed>0.128</gom:speed></extensions></trkpt>
   <trkpt lat="59.3259006713" lon="34.7070501965"><ele>167.762</ele><time>2026-08-17T02:20:29.650Z</time><hdop>3.0</hdop><vdop>2.812</vdop><extensions><gom:speed>0.09</gom:speed></extensions></trkpt>
   <trkpt lat="59.3259016772" lon="34.7070480172"><ele>167.742</ele><time>2026-08-17T02:20:30.661Z</time><hdop>3.0</hdop><vdop>2.687</vdop><extensions><gom:speed>0.086</gom:speed></extensions></trkpt>
   <trkpt lat="59.3259032697" lon="34.7070461732"><ele>167.731</ele><time>2026-08-17T02:20:31.648Z</time><hdop>3.0</hdop><vdop>2.625</vdop><extensions><gom:speed>0.059</gom:speed></extensions></trkpt>
   <trkpt lat="59.3259033954" lon="34.7070456702"><ele>167.725</ele><time>2026-08-17T02:20:32.649Z</time><hdop>3.0</hdop><vdop>2.625</vdop><extensions><gom:speed>0.084</gom:speed></extensions></trkpt>
   <trkpt lat="59.3259037726" lon="34.7070458379"><ele>167.722</ele><time>2026-08-17T02:20:33.149Z</time><hdop>3.0</hdop><vdop>2.625</vdop><extensions><gom:speed>0.061</gom:speed></extensions></trkpt>
   <trkpt lat="59.3259038984" lon="34.7070454188"><ele>167.719</ele><time>2026-08-17T02:20:33.655Z</time><hdop>3.0</hdop><vdop>2.5</vdop><extensions><gom:speed>0.102</gom:speed></extensions></trkpt>
   <trkpt lat="59.3259039822" lon="34.7070452512"><ele>167.727</ele><time>2026-08-17T02:20:34.648Z</time><hdop>3.0</hdop><vdop>2.812</vdop><extensions><gom:speed>0.056</gom:speed></extensions></trkpt>
   <trkpt lat="59.3259048623" lon="34.7070456702"><ele>167.748</ele><time>2026-08-17T02:20:35.648Z</time><hdop>3.0</hdop><vdop>2.625</vdop><extensions><gom:speed>0.07</gom:speed></extensions></trkpt>
   <trkpt lat="59.3259056586" lon="34.7070446644"><ele>168.279</ele><time>2026-08-17T02:20:36.648Z</time><hdop>3.0</hdop><vdop>2.687</vdop><extensions><gom:speed>0.065</gom:speed></extensions></trkpt>
   <trkpt lat="59.3259059938" lon="34.7070441615"><ele>168.596</ele><time>2026-08-17T02:20:37.166Z</time><hdop>3.0</hdop><vdop>2.687</vdop><extensions><gom:speed>0.075</gom:speed></extensions></trkpt>
   <trkpt lat="59.3259073769" lon="34.7070428204"><ele>168.984</ele><time>2026-08-17T02:20:37.649Z</time><hdop>3.0</hdop><vdop>2.687</vdop><extensions><gom:speed>0.082</gom:speed></extensions></trkpt>
   <trkpt lat="59.3259068739" lon="34.7070413955"><ele>169.216</ele><time>2026-08-17T02:20:38.451Z</time><hdop>3.0</hdop><vdop>2.687</vdop><extensions><gom:speed>0.113</gom:speed></extensions></trkpt>
   <trkpt lat="59.3259084665" lon="34.7070403896"><ele>169.35</ele><time>2026-08-17T02:20:39.230Z</time><hdop>3.0</hdop><vdop>2.625</vdop><extensions><gom:speed>0.11</gom:speed></extensions></trkpt>
   <trkpt lat="59.3259110649" lon="34.7070393838"><ele>169.512</ele><time>2026-08-17T02:20:40.130Z</time><hdop>3.0</hdop><vdop>2.625</vdop><extensions><gom:speed>0.18</gom:speed></extensions></trkpt>
   <trkpt lat="59.3259143757" lon="34.7070388809"><ele>169.695</ele><time>2026-08-17T02:20:40.648Z</time><hdop>3.0</hdop><vdop>2.812</vdop><extensions><gom:speed>0.199</gom:speed></extensions></trkpt>
   <trkpt lat="59.3259142919" lon="34.7070353605"><ele>170.31</ele><time>2026-08-17T02:20:41.648Z</time><hdop>3.0</hdop><vdop>2.687</vdop><extensions><gom:speed>0.225</gom:speed></extensions></trkpt>
   <trkpt lat="59.3259221709" lon="34.7070210275"><ele>170.567</ele><time>2026-08-17T02:20:42.648Z</time><hdop>3.0</hdop><vdop>2.812</vdop><extensions><gom:speed>0.302</gom:speed></extensions></trkpt>
   <trkpt lat="59.3259221709" lon="34.7070180938"><ele>170.72</ele><time>2026-08-17T02:20:43.611Z</time><hdop>3.0</hdop><vdop>2.812</vdop><extensions><gom:speed>0.227</gom:speed></extensions></trkpt>
   <trkpt lat="59.3259272839" lon="34.7070071973"><ele>170.662</ele><time>2026-08-17T02:20:44.471Z</time><hdop>3.0</hdop><vdop>2.812</vdop><extensions><gom:speed>0.237</gom:speed></extensions></trkpt>
   <trkpt lat="59.3259339894" lon="34.7069932834"><ele>170.327</ele><time>2026-08-17T02:20:45.693Z</time><hdop>3.0</hdop><vdop>2.937</vdop><extensions><gom:speed>0.198</gom:speed></extensions></trkpt>
   <trkpt lat="59.3259468975" lon="34.7069847338"><ele>170.768</ele><time>2026-08-17T02:20:46.648Z</time><hdop>3.0</hdop><vdop>2.812</vdop><extensions><gom:speed>0.231</gom:speed></extensions></trkpt>
   <trkpt lat="59.325951759" lon="34.7069831413"><ele>171.01</ele><time>2026-08-17T02:20:47.648Z</time><hdop>3.0</hdop><vdop>2.937</vdop><extensions><gom:speed>0.184</gom:speed></extensions></trkpt>
   <trkpt lat="59.3259566624" lon="34.7069812972"><ele>171.154</ele><time>2026-08-17T02:20:48.647Z</time><hdop>3.0</hdop><vdop>2.875</vdop><extensions><gom:speed>0.196</gom:speed></extensions></trkpt>
   <trkpt lat="59.3259608953" lon="34.706980962"><ele>170.82</ele><time>2026-08-17T02:20:49.648Z</time><hdop>3.0</hdop><vdop>2.812</vdop><extensions><gom:speed>0.189</gom:speed></extensions></trkpt>
   <trkpt lat="59.3259643738" lon="34.7069806267"><ele>170.209</ele><time>2026-08-17T02:20:50.648Z</time><hdop>3.0</hdop><vdop>2.75</vdop><extensions><gom:speed>0.206</gom:speed></extensions></trkpt>
   <trkpt lat="59.3259674751" lon="34.7069797885"><ele>169.908</ele><time>2026-08-17T02:20:51.649Z</time><hdop>3.0</hdop><vdop>2.812</vdop><extensions><gom:speed>0.222</gom:speed></extensions></trkpt>
   <trkpt lat="59.3259675589" lon="34.7069794532"><ele>169.962</ele><time>2026-08-17T02:20:52.692Z</time><hdop>3.0</hdop><vdop>2.687</vdop><extensions><gom:speed>0.169</gom:speed></extensions></trkpt>
   <trkpt lat="59.3259710793" lon="34.7069780283"><ele>169.994</ele><time>2026-08-17T02:20:53.212Z</time><hdop>3.0</hdop><vdop>2.687</vdop><extensions><gom:speed>0.187</gom:speed></extensions></trkpt>
   <trkpt lat="59.3259745997" lon="34.7069764357"><ele>169.946</ele><time>2026-08-17T02:20:53.728Z</time><hdop>3.0</hdop><vdop>2.875</vdop><extensions><gom:speed>0.21</gom:speed></extensions></trkpt>
   <trkpt lat="59.3259755636" lon="34.7069745917"><ele>169.917</ele><time>2026-08-17T02:20:54.365Z</time><hdop>3.0</hdop><vdop>2.875</vdop><extensions><gom:speed>0.226</gom:speed></extensions></trkpt>
   <trkpt lat="59.3259788745" lon="34.706973083"><ele>169.862</ele><time>2026-08-17T02:20:55.185Z</time><hdop>3.0</hdop><vdop>2.625</vdop><extensions><gom:speed>0.183</gom:speed></extensions></trkpt>
   <trkpt lat="59.3259794612" lon="34.7069718257"><ele>169.661</ele><time>2026-08-17T02:20:55.650Z</time><hdop>3.0</hdop><vdop>2.687</vdop><extensions><gom:speed>0.183</gom:speed></extensions></trkpt>
   <trkpt lat="59.3259850771" lon="34.7069648687"><ele>169.54</ele><time>2026-08-17T02:20:56.621Z</time><hdop>3.0</hdop><vdop>2.687</vdop><extensions><gom:speed>0.278</gom:speed></extensions></trkpt>
   <trkpt lat="59.3259867954" lon="34.7069634438"><ele>169.476</ele><time>2026-08-17T02:20:57.330Z</time><hdop>3.0</hdop><vdop>2.687</vdop><extensions><gom:speed>0.238</gom:speed></extensions></trkpt>
   <trkpt lat="59.3259921598" lon="34.7069520444"><ele>169.634</ele><time>2026-08-17T02:20:58.626Z</time><hdop>3.0</hdop><vdop>2.875</vdop><extensions><gom:speed>0.351</gom:speed></extensions></trkpt>
   <trkpt lat="59.3259937943" lon="34.706942489"><ele>170.064</ele><time>2026-08-17T02:20:59.567Z</time><hdop>3.0</hdop><vdop>3.0</vdop><extensions><gom:speed>0.308</gom:speed></extensions></trkpt>
   <trkpt lat="59.3259946744" lon="34.7069366217"><ele>170.303</ele><time>2026-08-17T02:21:00.385Z</time><hdop>3.0</hdop><vdop>2.625</vdop><extensions><gom:speed>0.202</gom:speed></extensions></trkpt>
   <trkpt lat="59.3259962669" lon="34.7069234621"><ele>170.44</ele><time>2026-08-17T02:21:01.205Z</time><hdop>3.0</hdop><vdop>2.812</vdop><extensions><gom:speed>0.297</gom:speed></extensions></trkpt>
   <trkpt lat="59.325996686" lon="34.7069155831"><ele>170.526</ele><time>2026-08-17T02:21:02.145Z</time><hdop>3.0</hdop><vdop>2.625</vdop><extensions><gom:speed>0.225</gom:speed></extensions></trkpt>
   <trkpt lat="59.3259973985" lon="34.7069128171"><ele>170.739</ele><time>2026-08-17T02:21:02.732Z</time><hdop>3.0</hdop><vdop>2.5</vdop><extensions><gom:speed>0.259</gom:speed></extensions></trkpt>
   <trkpt lat="59.3259971889" lon="34.7068905212"><ele>170.861</ele><time>2026-08-17T02:21:03.648Z</time><hdop>3.0</hdop><vdop>2.562</vdop><extensions><gom:speed>0.431</gom:speed></extensions></trkpt>
   <trkpt lat="59.3259972728" lon="34.7068883419"><ele>170.933</ele><time>2026-08-17T02:21:04.169Z</time><hdop>3.0</hdop><vdop>2.562</vdop><extensions><gom:speed>0.354</gom:speed></extensions></trkpt>
   <trkpt lat="59.3259948839" lon="34.7068801277"><ele>171.127</ele><time>2026-08-17T02:21:04.648Z</time><hdop>3.0</hdop><vdop>2.5</vdop><extensions><gom:speed>0.373</gom:speed></extensions></trkpt>
   <trkpt lat="59.3259938781" lon="34.7068780322"><ele>171.243</ele><time>2026-08-17T02:21:05.586Z</time><hdop>3.0</hdop><vdop>2.5</vdop><extensions><gom:speed>0.278</gom:speed></extensions></trkpt>
   <trkpt lat="59.3259895614" lon="34.706871159"><ele>171.096</ele><time>2026-08-17T02:21:06.692Z</time><hdop>3.0</hdop><vdop>2.562</vdop><extensions><gom:speed>0.169</gom:speed></extensions></trkpt>
   <trkpt lat="59.3259865858" lon="34.7068611846"><ele>171.008</ele><time>2026-08-17T02:21:07.487Z</time><hdop>3.0</hdop><vdop>2.562</vdop><extensions><gom:speed>0.197</gom:speed></extensions></trkpt>
   <trkpt lat="59.3259826883" lon="34.7068478573"><ele>170.944</ele><time>2026-08-17T02:21:08.648Z</time><hdop>3.0</hdop><vdop>2.5</vdop><extensions><gom:speed>0.132</gom:speed></extensions></trkpt>
   <trkpt lat="59.3259814729" lon="34.7068440855"><ele>170.904</ele><time>2026-08-17T02:21:09.648Z</time><hdop>3.0</hdop><vdop>2.5</vdop><extensions><gom:speed>0.113</gom:speed></extensions></trkpt>
   <trkpt lat="59.325980467" lon="34.7068449237"><ele>170.585</ele><time>2026-08-17T02:21:10.692Z</time><hdop>3.0</hdop><vdop>2.5</vdop><extensions><gom:speed>0.052</gom:speed></extensions></trkpt>
   <trkpt lat="59.3259772819" lon="34.7068367932"><ele>170.046</ele><time>2026-08-17T02:21:11.648Z</time><hdop>3.0</hdop><vdop>2.5</vdop><extensions><gom:speed>0.08</gom:speed></extensions></trkpt>
   <trkpt lat="59.3259756894" lon="34.7068324346"><ele>169.721</ele><time>2026-08-17T02:21:12.648Z</time><hdop>3.0</hdop><vdop>2.5</vdop><extensions><gom:speed>0.069</gom:speed></extensions></trkpt>
   <trkpt lat="59.3259752703" lon="34.7068315964"><ele>169.357</ele><time>2026-08-17T02:21:13.692Z</time><hdop>3.0</hdop><vdop>2.5</vdop><extensions><gom:speed>0.05</gom:speed></extensions></trkpt>
   <trkpt lat="59.3259731748" lon="34.7068266511"><ele>169.139</ele><time>2026-08-17T02:21:14.347Z</time><hdop>3.0</hdop><vdop>2.5</vdop><extensions><gom:speed>0.103</gom:speed></extensions></trkpt>
   <trkpt lat="59.325970283" lon="34.7068229631"><ele>168.802</ele><time>2026-08-17T02:21:15.328Z</time><hdop>3.0</hdop><vdop>2.5</vdop><extensions><gom:speed>0.125</gom:speed></extensions></trkpt>
   <trkpt lat="59.325966595" lon="34.7068198618"><ele>168.289</ele><time>2026-08-17T02:21:16.208Z</time><hdop>3.0</hdop><vdop>2.5</vdop><extensions><gom:speed>0.129</gom:speed></extensions></trkpt>
   <trkpt lat="59.3259662597" lon="34.7068185207"><ele>167.747</ele><time>2026-08-17T02:21:16.692Z</time><hdop>3.0</hdop><vdop>2.5</vdop><extensions><gom:speed>0.129</gom:speed></extensions></trkpt>
   <trkpt lat="59.3259562853" lon="34.706814665"><ele>167.364</ele><time>2026-08-17T02:21:17.647Z</time><hdop>3.0</hdop><vdop>2.5</vdop><extensions><gom:speed>0.152</gom:speed></extensions></trkpt>
   <trkpt lat="59.3259558662" lon="34.7068135753"><ele>167.135</ele><time>2026-08-17T02:21:18.273Z</time><hdop>3.0</hdop><vdop>2.5</vdop><extensions><gom:speed>0.159</gom:speed></extensions></trkpt>
   <trkpt lat="59.3259499988" lon="34.7068082947"><ele>166.883</ele><time>2026-08-17T02:21:19.648Z</time><hdop>3.0</hdop><vdop>2.5</vdop><extensions><gom:speed>0.176</gom:speed></extensions></trkpt>
   <trkpt lat="59.3259463946" lon="34.7068111446"><ele>166.738</ele><time>2026-08-17T02:21:20.692Z</time><hdop>3.0</hdop><vdop>2.5</vdop><extensions><gom:speed>0.041</gom:speed></extensions></trkpt>
   <trkpt lat="59.3259431676" lon="34.706810977"><ele>166.656</ele><time>2026-08-17T02:21:21.651Z</time><hdop>3.0</hdop><vdop>2.5</vdop><extensions><gom:speed>0.12</gom:speed></extensions></trkpt>
   <trkpt lat="59.3259394795" lon="34.7068131563"><ele>166.612</ele><time>2026-08-17T02:21:22.648Z</time><hdop>3.0</hdop><vdop>2.5</vdop><extensions><gom:speed>0.066</gom:speed></extensions></trkpt>
   <trkpt lat="59.325937887" lon="34.7068142459"><ele>166.592</ele><time>2026-08-17T02:21:23.649Z</time><hdop>3.0</hdop><vdop>2.5</vdop><extensions><gom:speed>0.066</gom:speed></extensions></trkpt>
   <trkpt lat="59.3259359591" lon="34.7068129886"><ele>166.509</ele><time>2026-08-17T02:21:24.648Z</time><hdop>3.0</hdop><vdop>2.5</vdop><extensions><gom:speed>0.08</gom:speed></extensions></trkpt>
   <trkpt lat="59.3259339894" lon="34.7068110608"><ele>166.51</ele><time>2026-08-17T02:21:25.648Z</time><hdop>3.0</hdop><vdop>2.5</vdop><extensions><gom:speed>0.09</gom:speed></extensions></trkpt>
   <trkpt lat="59.3259324807" lon="34.7068077918"><ele>166.605</ele><time>2026-08-17T02:21:26.648Z</time><hdop>3.0</hdop><vdop>2.5</vdop><extensions><gom:speed>0.074</gom:speed></extensions></trkpt>
   <trkpt lat="59.3259307624" lon="34.7068043553"><ele>166.665</ele><time>2026-08-17T02:21:27.648Z</time><hdop>3.0</hdop><vdop>2.5</vdop><extensions><gom:speed>0.088</gom:speed></extensions></trkpt>
   <trkpt lat="59.3259303852" lon="34.706801673"><ele>166.689</ele><time>2026-08-17T02:21:28.647Z</time><hdop>3.0</hdop><vdop>2.5</vdop><extensions><gom:speed>0.109</gom:speed></extensions></trkpt>
   <trkpt lat="59.3259310976" lon="34.7068027627"><ele>166.686</ele><time>2026-08-17T02:21:29.692Z</time><hdop>3.0</hdop><vdop>2.5</vdop><extensions><gom:speed>0.042</gom:speed></extensions></trkpt>
   <trkpt lat="59.3259308881" lon="34.7067988232"><ele>166.683</ele><time>2026-08-17T02:21:30.292Z</time><hdop>3.0</hdop><vdop>2.5</vdop><extensions><gom:speed>0.086</gom:speed></extensions></trkpt>
   <trkpt lat="59.3259308881" lon="34.7067959734"><ele>166.7</ele><time>2026-08-17T02:21:31.692Z</time><hdop>3.0</hdop><vdop>2.5</vdop><extensions><gom:speed>0.046</gom:speed></extensions></trkpt>
   <trkpt lat="59.325930469" lon="34.7067884296"><ele>166.67</ele><time>2026-08-17T02:21:32.648Z</time><hdop>3.0</hdop><vdop>2.562</vdop><extensions><gom:speed>0.107</gom:speed></extensions></trkpt>
   <trkpt lat="59.3259303852" lon="34.7067880944"><ele>166.651</ele><time>2026-08-17T02:21:33.286Z</time><hdop>3.0</hdop><vdop>2.562</vdop><extensions><gom:speed>0.098</gom:speed></extensions></trkpt>
   <trkpt lat="59.3259305947" lon="34.7067843225"><ele>166.638</ele><time>2026-08-17T02:21:33.934Z</time><hdop>3.0</hdop><vdop>2.5</vdop><extensions><gom:speed>0.106</gom:speed></extensions></trkpt>
   <trkpt lat="59.3259309719" lon="34.7067797963"><ele>166.492</ele><time>2026-08-17T02:21:34.648Z</time><hdop>3.0</hdop><vdop>2.75</vdop><extensions><gom:speed>0.113</gom:speed></extensions></trkpt>
   <trkpt lat="59.3259309719" lon="34.7067791257"><ele>166.249</ele><time>2026-08-17T02:21:35.692Z</time><hdop>3.0</hdop><vdop>3.0</vdop><extensions><gom:speed>0.083</gom:speed></extensions></trkpt>
   <trkpt lat="59.3259315586" lon="34.7067730908"><ele>166.103</ele><time>2026-08-17T02:21:36.646Z</time><hdop>3.0</hdop><vdop>3.0</vdop><extensions><gom:speed>0.108</gom:speed></extensions></trkpt>
   <trkpt lat="59.3259318939" lon="34.7067687322"><ele>165.908</ele><time>2026-08-17T02:21:37.586Z</time><hdop>3.0</hdop><vdop>3.437</vdop><extensions><gom:speed>0.119</gom:speed></extensions></trkpt>
   <trkpt lat="59.3259323968" lon="34.7067614399"><ele>166.494</ele><time>2026-08-17T02:21:38.692Z</time><hdop>3.0</hdop><vdop>3.0</vdop><extensions><gom:speed>0.092</gom:speed></extensions></trkpt>
   <trkpt lat="59.3259341989" lon="34.706738725"><ele>166.914</ele><time>2026-08-17T02:21:39.648Z</time><hdop>3.0</hdop><vdop>3.0</vdop><extensions><gom:speed>0.148</gom:speed></extensions></trkpt>
   <trkpt lat="59.3259361687" lon="34.7067312651"><ele>167.167</ele><time>2026-08-17T02:21:40.648Z</time><hdop>3.0</hdop><vdop>2.875</vdop><extensions><gom:speed>0.092</gom:speed></extensions></trkpt>
   <trkpt lat="59.3259379708" lon="34.7067235537"><ele>167.319</ele><time>2026-08-17T02:21:41.649Z</time><hdop>3.0</hdop><vdop>2.812</vdop><extensions><gom:speed>0.099</gom:speed></extensions></trkpt>
   <trkpt lat="59.3259383899" lon="34.7067228832"><ele>167.409</ele><time>2026-08-17T02:21:42.655Z</time><hdop>3.0</hdop><vdop>2.687</vdop><extensions><gom:speed>0.109</gom:speed></extensions></trkpt>
   <trkpt lat="59.3259398986" lon="34.7067114838"><ele>167.462</ele><time>2026-08-17T02:21:43.648Z</time><hdop>3.0</hdop><vdop>2.625</vdop><extensions><gom:speed>0.066</gom:speed></extensions></trkpt>
   <trkpt lat="59.3259405692" lon="34.7067088854"><ele>167.493</ele><time>2026-08-17T02:21:44.648Z</time><hdop>3.0</hdop><vdop>2.5</vdop><extensions><gom:speed>0.063</gom:speed></extensions></trkpt>
   <trkpt lat="59.3259407787" lon="34.7067063708"><ele>167.512</ele><time>2026-08-17T02:21:45.647Z</time><hdop>3.0</hdop><vdop>2.5</vdop><extensions><gom:speed>0.063</gom:speed></extensions></trkpt>
   <trkpt lat="59.3259409883" lon="34.7067042753"><ele>167.531</ele><time>2026-08-17T02:21:46.648Z</time><hdop>3.0</hdop><vdop>2.5</vdop><extensions><gom:speed>0.086</gom:speed></extensions></trkpt>
   <trkpt lat="59.3259410721" lon="34.706703521"><ele>167.545</ele><time>2026-08-17T02:21:47.648Z</time><hdop>3.0</hdop><vdop>2.5</vdop><extensions><gom:speed>0.061</gom:speed></extensions></trkpt>
   <trkpt lat="59.3259413655" lon="34.7067028504"><ele>167.561</ele><time>2026-08-17T02:21:48.648Z</time><hdop>3.0</hdop><vdop>2.5</vdop><extensions><gom:speed>0.056</gom:speed></extensions></trkpt>
   <trkpt lat="59.3259416588" lon="34.7067040239"><ele>167.579</ele><time>2026-08-17T02:21:49.692Z</time><hdop>3.0</hdop><vdop>2.5</vdop><extensions><gom:speed>0.032</gom:speed></extensions></trkpt>
   <trkpt lat="59.3259418684" lon="34.7067022637"><ele>167.589</ele><time>2026-08-17T02:21:50.649Z</time><hdop>3.0</hdop><vdop>2.5</vdop><extensions><gom:speed>0.081</gom:speed></extensions></trkpt>
   <trkpt lat="59.3259416588" lon="34.706702599"><ele>167.595</ele><time>2026-08-17T02:21:51.648Z</time><hdop>3.0</hdop><vdop>2.5</vdop><extensions><gom:speed>0.097</gom:speed></extensions></trkpt>
   <trkpt lat="59.3259413655" lon="34.7067012578"><ele>167.6</ele><time>2026-08-17T02:21:52.648Z</time><hdop>3.0</hdop><vdop>2.5</vdop><extensions><gom:speed>0.08</gom:speed></extensions></trkpt>
   <trkpt lat="59.3259410721" lon="34.7067016769"><ele>167.609</ele><time>2026-08-17T02:21:53.648Z</time><hdop>3.0</hdop><vdop>2.5</vdop><extensions><gom:speed>0.075</gom:speed></extensions></trkpt>
   <trkpt lat="59.3259416588" lon="34.7067022637"><ele>167.564</ele><time>2026-08-17T02:21:54.692Z</time><hdop>3.0</hdop><vdop>2.5</vdop><extensions><gom:speed>0.046</gom:speed></extensions></trkpt>
   <trkpt lat="59.3259418684" lon="34.7067012578"><ele>167.54</ele><time>2026-08-17T02:21:55.648Z</time><hdop>3.0</hdop><vdop>2.5</vdop><extensions><gom:speed>0.092</gom:speed></extensions></trkpt>
   <trkpt lat="59.3259419941" lon="34.7067003358"><ele>167.527</ele><time>2026-08-17T02:21:56.647Z</time><hdop>3.0</hdop><vdop>2.5</vdop><extensions><gom:speed>0.065</gom:speed></extensions></trkpt>
   <trkpt lat="59.3259417846" lon="34.7066992462"><ele>167.522</ele><time>2026-08-17T02:21:57.649Z</time><hdop>3.0</hdop><vdop>2.5</vdop><extensions><gom:speed>0.066</gom:speed></extensions></trkpt>
   <trkpt lat="59.3259417846" lon="34.7066984918"><ele>167.614</ele><time>2026-08-17T02:21:58.648Z</time><hdop>3.0</hdop><vdop>2.5</vdop><extensions><gom:speed>0.329</gom:speed></extensions></trkpt>
   <trkpt lat="59.3259420779" lon="34.7066962287"><ele>167.67</ele><time>2026-08-17T02:21:59.648Z</time><hdop>3.0</hdop><vdop>2.5</vdop><extensions><gom:speed>0.113</gom:speed></extensions></trkpt>
   <trkpt lat="59.3259426647" lon="34.7066963963"><ele>167.702</ele><time>2026-08-17T02:22:00.648Z</time><hdop>3.0</hdop><vdop>2.5</vdop><extensions><gom:speed>0.091</gom:speed></extensions></trkpt>
   <trkpt lat="59.3259430838" lon="34.7066969831"><ele>167.72</ele><time>2026-08-17T02:22:01.648Z</time><hdop>3.0</hdop><vdop>2.5</vdop><extensions><gom:speed>0.081</gom:speed></extensions></trkpt>
   <trkpt lat="59.3259434609" lon="34.7066973184"><ele>167.728</ele><time>2026-08-17T02:22:02.648Z</time><hdop>3.0</hdop><vdop>2.5</vdop><extensions><gom:speed>0.075</gom:speed></extensions></trkpt>
   <trkpt lat="59.3259434609" lon="34.7066962287"><ele>167.732</ele><time>2026-08-17T02:22:03.658Z</time><hdop>3.0</hdop><vdop>2.5</vdop><extensions><gom:speed>0.075</gom:speed></extensions></trkpt>
   <trkpt lat="59.3259436705" lon="34.706696564"><ele>167.742</ele><time>2026-08-17T02:22:04.650Z</time><hdop>3.0</hdop><vdop>2.5</vdop><extensions><gom:speed>0.072</gom:speed></extensions></trkpt>
   <trkpt lat="59.3259441734" lon="34.706697486"><ele>167.748</ele><time>2026-08-17T02:22:05.648Z</time><hdop>3.0</hdop><vdop>2.5</vdop><extensions><gom:speed>0.067</gom:speed></extensions></trkpt>
   <trkpt lat="59.3259442991" lon="34.706697486"><ele>167.758</ele><time>2026-08-17T02:22:06.648Z</time><hdop>3.0</hdop><vdop>2.5</vdop><extensions><gom:speed>0.068</gom:speed></extensions></trkpt>
   <trkpt lat="59.325944383" lon="34.7066973184"><ele>167.769</ele><time>2026-08-17T02:22:07.648Z</time><hdop>3.0</hdop><vdop>2.5</vdop><extensions><gom:speed>0.068</gom:speed></extensions></trkpt>
   <trkpt lat="59.325944383" lon="34.7066973184"><ele>167.782</ele><time>2026-08-17T02:22:08.648Z</time><hdop>3.0</hdop><vdop>2.562</vdop><extensions><gom:speed>0.069</gom:speed></extensions></trkpt>
   <trkpt lat="59.3259444668" lon="34.7066972345"><ele>167.79</ele><time>2026-08-17T02:22:09.647Z</time><hdop>3.0</hdop><vdop>2.562</vdop><extensions><gom:speed>0.068</gom:speed></extensions></trkpt>
   <trkpt lat="59.3259442991" lon="34.7066963963"><ele>167.795</ele><time>2026-08-17T02:22:10.692Z</time><hdop>3.0</hdop><vdop>2.562</vdop><extensions><gom:speed>0.069</gom:speed></extensions></trkpt>
   <trkpt lat="59.325944383" lon="34.7066973184"><ele>167.798</ele><time>2026-08-17T02:22:11.648Z</time><hdop>3.0</hdop><vdop>2.625</vdop><extensions><gom:speed>0.071</gom:speed></extensions></trkpt>
   <trkpt lat="59.325944383" lon="34.7066973184"><ele>167.809</ele><time>2026-08-17T02:22:12.648Z</time><hdop>3.0</hdop><vdop>2.5</vdop><extensions><gom:speed>0.068</gom:speed></extensions></trkpt>
   <trkpt lat="59.3259441734" lon="34.706696564"><ele>167.816</ele><time>2026-08-17T02:22:13.692Z</time><hdop>3.0</hdop><vdop>2.5</vdop><extensions><gom:speed>0.068</gom:speed></extensions></trkpt>
   <trkpt lat="59.325944383" lon="34.7066972345"><ele>167.819</ele><time>2026-08-17T02:22:14.648Z</time><hdop>3.0</hdop><vdop>2.5</vdop><extensions><gom:speed>0.068</gom:speed></extensions></trkpt>
   <trkpt lat="59.3259444668" lon="34.7066971507"><ele>167.821</ele><time>2026-08-17T02:22:15.648Z</time><hdop>3.0</hdop><vdop>2.5</vdop><extensions><gom:speed>0.069</gom:speed></extensions></trkpt>
   <trkpt lat="59.3259448859" lon="34.7066969831"><ele>167.821</ele><time>2026-08-17T02:22:16.648Z</time><hdop>3.0</hdop><vdop>2.5</vdop><extensions><gom:speed>0.069</gom:speed></extensions></trkpt>
   <trkpt lat="59.3259449697" lon="34.7066960611"><ele>167.821</ele><time>2026-08-17T02:22:17.693Z</time><hdop>3.0</hdop><vdop>2.5</vdop><extensions><gom:speed>0.069</gom:speed></extensions></trkpt>
   <trkpt lat="59.3259451792" lon="34.7066968993"><ele>167.821</ele><time>2026-08-17T02:22:18.648Z</time><hdop>3.0</hdop><vdop>2.5</vdop><extensions><gom:speed>0.074</gom:speed></extensions></trkpt>
   <trkpt lat="59.3259453888" lon="34.7066966478"><ele>167.82</ele><time>2026-08-17T02:22:19.647Z</time><hdop>3.0</hdop><vdop>2.5</vdop><extensions><gom:speed>0.077</gom:speed></extensions></trkpt>
   <trkpt lat="59.3259455983" lon="34.7066959772"><ele>167.819</ele><time>2026-08-17T02:22:20.655Z</time><hdop>3.0</hdop><vdop>2.5</vdop><extensions><gom:speed>0.078</gom:speed></extensions></trkpt>
   <trkpt lat="59.3259456822" lon="34.7066962287"><ele>167.819</ele><time>2026-08-17T02:22:21.648Z</time><hdop>3.0</hdop><vdop>2.5</vdop><extensions><gom:speed>0.075</gom:speed></extensions></trkpt>
   <trkpt lat="59.3259455983" lon="34.7066960611"><ele>167.822</ele><time>2026-08-17T02:22:22.649Z</time><hdop>3.0</hdop><vdop>2.5</vdop><extensions><gom:speed>0.075</gom:speed></extensions></trkpt>
   <trkpt lat="59.3259454726" lon="34.7066955582"><ele>167.823</ele><time>2026-08-17T02:22:23.650Z</time><hdop>3.0</hdop><vdop>2.5</vdop><extensions><gom:speed>0.075</gom:speed></extensions></trkpt>
   <trkpt lat="59.3259453888" lon="34.706695642"><ele>167.823</ele><time>2026-08-17T02:22:24.692Z</time><hdop>3.0</hdop><vdop>2.5</vdop><extensions><gom:speed>0.075</gom:speed></extensions></trkpt>
   <trkpt lat="59.3259452631" lon="34.7066958934"><ele>167.823</ele><time>2026-08-17T02:22:25.648Z</time><hdop>3.0</hdop><vdop>2.5</vdop><extensions><gom:speed>0.071</gom:speed></extensions></trkpt>
   <trkpt lat="59.3259452631" lon="34.7066958934"><ele>167.823</ele><time>2026-08-17T02:22:26.648Z</time><hdop>3.0</hdop><vdop>2.5</vdop><extensions><gom:speed>0.07</gom:speed></extensions></trkpt>
   <trkpt lat="59.3259451792" lon="34.7066958934"><ele>167.824</ele><time>2026-08-17T02:22:27.648Z</time><hdop>3.0</hdop><vdop>2.5</vdop><extensions><gom:speed>0.069</gom:speed></extensions></trkpt>
   <trkpt lat="59.3259451792" lon="34.7066958934"><ele>167.824</ele><time>2026-08-17T02:22:28.648Z</time><hdop>3.0</hdop><vdop>2.5</vdop><extensions><gom:speed>0.07</gom:speed></extensions></trkpt>
   <trkpt lat="59.3259451792" lon="34.7066958934"><ele>167.823</ele><time>2026-08-17T02:22:29.648Z</time><hdop>3.0</hdop><vdop>2.5</vdop><extensions><gom:speed>0.068</gom:speed></extensions></trkpt>
   <trkpt lat="59.3259456822" lon="34.706695642"><ele>167.821</ele><time>2026-08-17T02:22:30.648Z</time><hdop>3.0</hdop><vdop>2.5</vdop><extensions><gom:speed>0.067</gom:speed></extensions></trkpt>
   <trkpt lat="59.3259455983" lon="34.7066957258"><ele>167.82</ele><time>2026-08-17T02:22:31.647Z</time><hdop>3.0</hdop><vdop>2.5</vdop><extensions><gom:speed>0.066</gom:speed></extensions></trkpt>
   <trkpt lat="59.3259455983" lon="34.7066953905"><ele>167.818</ele><time>2026-08-17T02:22:32.654Z</time><hdop>3.0</hdop><vdop>2.5</vdop><extensions><gom:speed>0.067</gom:speed></extensions></trkpt>
   <trkpt lat="59.3259455983" lon="34.7066955582"><ele>167.816</ele><time>2026-08-17T02:22:33.692Z</time><hdop>3.0</hdop><vdop>2.5</vdop><extensions><gom:speed>0.067</gom:speed></extensions></trkpt>
   <trkpt lat="59.3259456822" lon="34.7066961449"><ele>167.814</ele><time>2026-08-17T02:22:34.648Z</time><hdop>3.0</hdop><vdop>2.5</vdop><extensions><gom:speed>0.068</gom:speed></extensions></trkpt>
   <trkpt lat="59.3259456822" lon="34.7066963963"><ele>167.811</ele><time>2026-08-17T02:22:35.648Z</time><hdop>3.0</hdop><vdop>2.5</vdop><extensions><gom:speed>0.07</gom:speed></extensions></trkpt>
   <trkpt lat="59.3259455983" lon="34.7066959772"><ele>167.808</ele><time>2026-08-17T02:22:36.692Z</time><hdop>3.0</hdop><vdop>2.5</vdop><extensions><gom:speed>0.07</gom:speed></extensions></trkpt>
   <trkpt lat="59.325945766" lon="34.7066963963"><ele>167.805</ele><time>2026-08-17T02:22:37.649Z</time><hdop>3.0</hdop><vdop>2.5</vdop><extensions><gom:speed>0.069</gom:speed></extensions></trkpt>
   <trkpt lat="59.325945766" lon="34.706696564"><ele>167.804</ele><time>2026-08-17T02:22:38.648Z</time><hdop>3.0</hdop><vdop>2.5</vdop><extensions><gom:speed>0.07</gom:speed></extensions></trkpt>
   <trkpt lat="59.3259458917" lon="34.7066966478"><ele>167.803</ele><time>2026-08-17T02:22:39.648Z</time><hdop>3.0</hdop><vdop>2.5</vdop><extensions><gom:speed>0.071</gom:speed></extensions></trkpt>
   <trkpt lat="59.3259459755" lon="34.7066968993"><ele>167.802</ele><time>2026-08-17T02:22:40.648Z</time><hdop>3.0</hdop><vdop>2.5</vdop><extensions><gom:speed>0.072</gom:speed></extensions></trkpt>
   <trkpt lat="59.3259458917" lon="34.706696564"><ele>167.802</ele><time>2026-08-17T02:22:41.649Z</time><hdop>3.0</hdop><vdop>2.5</vdop><extensions><gom:speed>0.073</gom:speed></extensions></trkpt>
   <trkpt lat="59.3259461851" lon="34.7066971507"><ele>167.803</ele><time>2026-08-17T02:22:42.648Z</time><hdop>3.0</hdop><vdop>2.5</vdop><extensions><gom:speed>0.074</gom:speed></extensions></trkpt>
   <trkpt lat="59.3259462689" lon="34.7066973184"><ele>167.803</ele><time>2026-08-17T02:22:43.648Z</time><hdop>3.0</hdop><vdop>2.5</vdop><extensions><gom:speed>0.076</gom:speed></extensions></trkpt>
   <trkpt lat="59.3259461851" lon="34.7066976536"><ele>167.803</ele><time>2026-08-17T02:22:44.648Z</time><hdop>3.0</hdop><vdop>2.5</vdop><extensions><gom:speed>0.076</gom:speed></extensions></trkpt>
   <trkpt lat="59.3259462689" lon="34.7066978213"><ele>167.802</ele><time>2026-08-17T02:22:45.648Z</time><hdop>3.0</hdop><vdop>2.5</vdop><extensions><gom:speed>0.075</gom:speed></extensions></trkpt>
   <trkpt lat="59.3259462689" lon="34.7066980727"><ele>167.802</ele><time>2026-08-17T02:22:46.648Z</time><hdop>3.0</hdop><vdop>2.5</vdop><extensions><gom:speed>0.074</gom:speed></extensions></trkpt>
   <trkpt lat="59.3259463946" lon="34.7066982404"><ele>167.802</ele><time>2026-08-17T02:22:47.648Z</time><hdop>3.0</hdop><vdop>2.5</vdop><extensions><gom:speed>0.072</gom:speed></extensions></trkpt>
   <trkpt lat="59.3259463946" lon="34.7066982404"><ele>167.801</ele><time>2026-08-17T02:22:48.649Z</time><hdop>3.0</hdop><vdop>2.5</vdop><extensions><gom:speed>0.072</gom:speed></extensions></trkpt>
   <trkpt lat="59.3259464784" lon="34.7066984918"><ele>167.801</ele><time>2026-08-17T02:22:49.662Z</time><hdop>3.0</hdop><vdop>2.5</vdop><extensions><gom:speed>0.072</gom:speed></extensions></trkpt>
   <trkpt lat="59.3259465623" lon="34.7066987433"><ele>167.8</ele><time>2026-08-17T02:22:50.647Z</time><hdop>3.0</hdop><vdop>2.5</vdop><extensions><gom:speed>0.069</gom:speed></extensions></trkpt>
   <trkpt lat="59.3259465623" lon="34.7066987433"><ele>167.799</ele><time>2026-08-17T02:22:51.664Z</time><hdop>3.0</hdop><vdop>2.5</vdop><extensions><gom:speed>0.069</gom:speed></extensions></trkpt>
   <trkpt lat="59.325946688" lon="34.70669933"><ele>167.798</ele><time>2026-08-17T02:22:52.648Z</time><hdop>3.0</hdop><vdop>2.5</vdop><extensions><gom:speed>0.071</gom:speed></extensions></trkpt>
   <trkpt lat="59.325946688" lon="34.7066995815"><ele>167.796</ele><time>2026-08-17T02:22:53.649Z</time><hdop>3.0</hdop><vdop>2.5</vdop><extensions><gom:speed>0.071</gom:speed></extensions></trkpt>
   <trkpt lat="59.325946688" lon="34.7066995815"><ele>167.795</ele><time>2026-08-17T02:22:54.693Z</time><hdop>3.0</hdop><vdop>2.5</vdop><extensions><gom:speed>0.072</gom:speed></extensions></trkpt>
   <trkpt lat="59.3259467718" lon="34.7066998329"><ele>167.794</ele><time>2026-08-17T02:22:55.650Z</time><hdop>3.0</hdop><vdop>2.5</vdop><extensions><gom:speed>0.074</gom:speed></extensions></trkpt>
   <trkpt lat="59.3259471909" lon="34.7067003358"><ele>167.793</ele><time>2026-08-17T02:22:56.648Z</time><hdop>3.0</hdop><vdop>2.5</vdop><extensions><gom:speed>0.077</gom:speed></extensions></trkpt>
   <trkpt lat="59.3259472747" lon="34.7067005873"><ele>167.792</ele><time>2026-08-17T02:22:57.648Z</time><hdop>3.0</hdop><vdop>2.5</vdop><extensions><gom:speed>0.075</gom:speed></extensions></trkpt>
   <trkpt lat="59.3259473585" lon="34.7067008388"><ele>167.792</ele><time>2026-08-17T02:22:58.648Z</time><hdop>3.0</hdop><vdop>2.5</vdop><extensions><gom:speed>0.075</gom:speed></extensions></trkpt>
   <trkpt lat="59.3259473585" lon="34.706701174"><ele>167.791</ele><time>2026-08-17T02:22:59.692Z</time><hdop>3.0</hdop><vdop>2.5</vdop><extensions><gom:speed>0.076</gom:speed></extensions></trkpt>
   <trkpt lat="59.3259475681" lon="34.7067015931"><ele>167.79</ele><time>2026-08-17T02:23:00.648Z</time><hdop>3.0</hdop><vdop>2.5</vdop><extensions><gom:speed>0.077</gom:speed></extensions></trkpt>
   <trkpt lat="59.3259476938" lon="34.7067017608"><ele>167.789</ele><time>2026-08-17T02:23:01.648Z</time><hdop>3.0</hdop><vdop>2.5</vdop><extensions><gom:speed>0.074</gom:speed></extensions></trkpt>
   <trkpt lat="59.3259478614" lon="34.706702096"><ele>167.794</ele><time>2026-08-17T02:23:02.647Z</time><hdop>3.0</hdop><vdop>2.5</vdop><extensions><gom:speed>0.077</gom:speed></extensions></trkpt>
   <trkpt lat="59.3259478614" lon="34.7067021799"><ele>167.798</ele><time>2026-08-17T02:23:03.648Z</time><hdop>3.0</hdop><vdop>2.5</vdop><extensions><gom:speed>0.075</gom:speed></extensions></trkpt>
   <trkpt lat="59.3259479872" lon="34.7067023475"><ele>167.803</ele><time>2026-08-17T02:23:04.692Z</time><hdop>3.0</hdop><vdop>2.5</vdop><extensions><gom:speed>0.075</gom:speed></extensions></trkpt>
   <trkpt lat="59.3259479872" lon="34.7067023475"><ele>167.806</ele><time>2026-08-17T02:23:05.647Z</time><hdop>3.0</hdop><vdop>2.5</vdop><extensions><gom:speed>0.116</gom:speed></extensions></trkpt>
   <trkpt lat="59.3259478614" lon="34.7067032695"><ele>167.739</ele><time>2026-08-17T02:23:06.649Z</time><hdop>3.0</hdop><vdop>2.5</vdop><extensions><gom:speed>0.098</gom:speed></extensions></trkpt>
   <trkpt lat="59.3259478614" lon="34.706703521"><ele>167.736</ele><time>2026-08-17T02:23:07.692Z</time><hdop>3.0</hdop><vdop>2.5</vdop><extensions><gom:speed>0.099</gom:speed></extensions></trkpt>
   <trkpt lat="59.3259482805" lon="34.7067043592"><ele>167.732</ele><time>2026-08-17T02:23:08.648Z</time><hdop>3.0</hdop><vdop>2.5</vdop><extensions><gom:speed>0.07</gom:speed></extensions></trkpt>
   <trkpt lat="59.3259483644" lon="34.7067046944"><ele>167.727</ele><time>2026-08-17T02:23:09.692Z</time><hdop>3.0</hdop><vdop>2.5</vdop><extensions><gom:speed>0.071</gom:speed></extensions></trkpt>
   <trkpt lat="59.3259485739" lon="34.7067055326"><ele>167.729</ele><time>2026-08-17T02:23:10.648Z</time><hdop>3.0</hdop><vdop>2.5</vdop><extensions><gom:speed>0.065</gom:speed></extensions></trkpt>
   <trkpt lat="59.3259484901" lon="34.7067057841"><ele>167.729</ele><time>2026-08-17T02:23:11.648Z</time><hdop>3.0</hdop><vdop>2.5</vdop><extensions><gom:speed>0.069</gom:speed></extensions></trkpt>
   <trkpt lat="59.3259485739" lon="34.7067063708"><ele>167.734</ele><time>2026-08-17T02:23:12.647Z</time><hdop>3.0</hdop><vdop>2.5</vdop><extensions><gom:speed>0.07</gom:speed></extensions></trkpt>
   <trkpt lat="59.3259487835" lon="34.7067070414"><ele>167.736</ele><time>2026-08-17T02:23:13.648Z</time><hdop>3.0</hdop><vdop>2.5</vdop><extensions><gom:speed>0.069</gom:speed></extensions></trkpt>
   <trkpt lat="59.3259487835" lon="34.7067073766"><ele>167.741</ele><time>2026-08-17T02:23:14.650Z</time><hdop>3.0</hdop><vdop>2.5</vdop><extensions><gom:speed>0.069</gom:speed></extensions></trkpt>
   <trkpt lat="59.3259488673" lon="34.706708131"><ele>167.743</ele><time>2026-08-17T02:23:15.648Z</time><hdop>3.0</hdop><vdop>2.5</vdop><extensions><gom:speed>0.068</gom:speed></extensions></trkpt>
   <trkpt lat="59.3259488673" lon="34.7067085501"><ele>167.745</ele><time>2026-08-17T02:23:16.647Z</time><hdop>3.0</hdop><vdop>2.5</vdop><extensions><gom:speed>0.065</gom:speed></extensions></trkpt>
   <trkpt lat="59.3259485739" lon="34.7067088854"><ele>167.746</ele><time>2026-08-17T02:23:17.647Z</time><hdop>3.0</hdop><vdop>2.5</vdop><extensions><gom:speed>0.063</gom:speed></extensions></trkpt>
   <trkpt lat="59.3259486996" lon="34.7067092207"><ele>167.751</ele><time>2026-08-17T02:23:18.648Z</time><hdop>3.0</hdop><vdop>2.5</vdop><extensions><gom:speed>0.065</gom:speed></extensions></trkpt>
   <trkpt lat="59.3259486996" lon="34.7067097236"><ele>167.757</ele><time>2026-08-17T02:23:19.648Z</time><hdop>3.0</hdop><vdop>2.5</vdop><extensions><gom:speed>0.064</gom:speed></extensions></trkpt>
   <trkpt lat="59.3259487835" lon="34.7067101427"><ele>167.761</ele><time>2026-08-17T02:23:20.648Z</time><hdop>3.0</hdop><vdop>2.5</vdop><extensions><gom:speed>0.066</gom:speed></extensions></trkpt>
   <trkpt lat="59.3259487835" lon="34.7067105618"><ele>167.765</ele><time>2026-08-17T02:23:21.649Z</time><hdop>3.0</hdop><vdop>2.5</vdop><extensions><gom:speed>0.067</gom:speed></extensions></trkpt>
   <trkpt lat="59.3259486996" lon="34.706710897"><ele>167.765</ele><time>2026-08-17T02:23:22.647Z</time><hdop>3.0</hdop><vdop>2.5</vdop><extensions><gom:speed>0.069</gom:speed></extensions></trkpt>
   <trkpt lat="59.3259486996" lon="34.7067111485"><ele>167.764</ele><time>2026-08-17T02:23:23.692Z</time><hdop>3.0</hdop><vdop>2.5</vdop><extensions><gom:speed>0.069</gom:speed></extensions></trkpt>
   <trkpt lat="59.3259487835" lon="34.7067114838"><ele>167.767</ele><time>2026-08-17T02:23:24.647Z</time><hdop>3.0</hdop><vdop>2.5</vdop><extensions><gom:speed>0.069</gom:speed></extensions></trkpt>
   <trkpt lat="59.3259486996" lon="34.706711819"><ele>167.769</ele><time>2026-08-17T02:23:25.648Z</time><hdop>3.0</hdop><vdop>2.5</vdop><extensions><gom:speed>0.069</gom:speed></extensions></trkpt>
   <trkpt lat="59.3259486996" lon="34.7067122381"><ele>167.773</ele><time>2026-08-17T02:23:26.650Z</time><hdop>3.0</hdop><vdop>2.5</vdop><extensions><gom:speed>0.07</gom:speed></extensions></trkpt>
   <trkpt lat="59.3259486996" lon="34.7067126572"><ele>167.781</ele><time>2026-08-17T02:23:27.692Z</time><hdop>3.0</hdop><vdop>2.5</vdop><extensions><gom:speed>0.071</gom:speed></extensions></trkpt>
   <trkpt lat="59.3259485739" lon="34.7067129925"><ele>167.786</ele><time>2026-08-17T02:23:28.692Z</time><hdop>3.0</hdop><vdop>2.5</vdop><extensions><gom:speed>0.07</gom:speed></extensions></trkpt>
   <trkpt lat="59.3259485739" lon="34.7067130763"><ele>167.788</ele><time>2026-08-17T02:23:29.649Z</time><hdop>3.0</hdop><vdop>2.5</vdop><extensions><gom:speed>0.066</gom:speed></extensions></trkpt>
   <trkpt lat="59.3259484901" lon="34.7067131601"><ele>167.789</ele><time>2026-08-17T02:23:30.648Z</time><hdop>3.0</hdop><vdop>2.5</vdop><extensions><gom:speed>0.068</gom:speed></extensions></trkpt>
   <trkpt lat="59.3259482805" lon="34.706713244"><ele>167.79</ele><time>2026-08-17T02:23:31.648Z</time><hdop>3.0</hdop><vdop>2.5</vdop><extensions><gom:speed>0.066</gom:speed></extensions></trkpt>
   <trkpt lat="59.3259482805" lon="34.7067135792"><ele>167.79</ele><time>2026-08-17T02:23:32.659Z</time><hdop>3.0</hdop><vdop>2.5</vdop><extensions><gom:speed>0.066</gom:speed></extensions></trkpt>
   <trkpt lat="59.325948071" lon="34.7067131601"><ele>167.789</ele><time>2026-08-17T02:23:33.648Z</time><hdop>3.0</hdop><vdop>2.5</vdop><extensions><gom:speed>0.062</gom:speed></extensions></trkpt>
   <trkpt lat="59.3259479872" lon="34.7067130763"><ele>167.787</ele><time>2026-08-17T02:23:34.648Z</time><hdop>3.0</hdop><vdop>2.5</vdop><extensions><gom:speed>0.061</gom:speed></extensions></trkpt>
   <trkpt lat="59.3259479872" lon="34.7067129925"><ele>167.786</ele><time>2026-08-17T02:23:35.647Z</time><hdop>3.0</hdop><vdop>2.5</vdop><extensions><gom:speed>0.057</gom:speed></extensions></trkpt>
   <trkpt lat="59.3259478614" lon="34.7067131601"><ele>167.785</ele><time>2026-08-17T02:23:36.625Z</time><hdop>3.0</hdop><vdop>2.5</vdop><extensions><gom:speed>0.058</gom:speed></extensions></trkpt>
   <trkpt lat="59.3259474843" lon="34.7067129925"><ele>168.022</ele><time>2026-08-17T02:23:37.648Z</time><hdop>3.0</hdop><vdop>2.5</vdop><extensions><gom:speed>0.12</gom:speed></extensions></trkpt>
   <trkpt lat="59.3259472747" lon="34.7067129925"><ele>168.036</ele><time>2026-08-17T02:23:38.649Z</time><hdop>3.0</hdop><vdop>2.5</vdop><extensions><gom:speed>0.207</gom:speed></extensions></trkpt>
   <trkpt lat="59.3259469813" lon="34.7067133278"><ele>168.044</ele><time>2026-08-17T02:23:39.428Z</time><hdop>3.0</hdop><vdop>2.5</vdop><extensions><gom:speed>0.208</gom:speed></extensions></trkpt>
   <trkpt lat="59.3259462689" lon="34.7067140822"><ele>167.827</ele><time>2026-08-17T02:23:40.692Z</time><hdop>3.062</hdop><vdop>2.5</vdop><extensions><gom:speed>0.431</gom:speed></extensions></trkpt>
   <trkpt lat="59.3259460593" lon="34.7067130763"><ele>167.729</ele><time>2026-08-17T02:23:41.648Z</time><hdop>3.187</hdop><vdop>2.5</vdop><extensions><gom:speed>0.27</gom:speed></extensions></trkpt>
   <trkpt lat="59.3259459755" lon="34.7067125734"><ele>167.67</ele><time>2026-08-17T02:23:42.648Z</time><hdop>3.375</hdop><vdop>2.5</vdop><extensions><gom:speed>0.234</gom:speed></extensions></trkpt>
   <trkpt lat="59.3259465623" lon="34.7067128249"><ele>167.681</ele><time>2026-08-17T02:23:43.648Z</time><hdop>3.562</hdop><vdop>2.5</vdop><extensions><gom:speed>0.483</gom:speed></extensions></trkpt>
   <trkpt lat="59.3259462689" lon="34.7067137469"><ele>167.543</ele><time>2026-08-17T02:23:44.648Z</time><hdop>3.937</hdop><vdop>2.5</vdop><extensions><gom:speed>0.833</gom:speed></extensions></trkpt>
   <trkpt lat="59.3259460593" lon="34.7067152556"><ele>167.461</ele><time>2026-08-17T02:23:45.346Z</time><hdop>4.437</hdop><vdop>2.5</vdop><extensions><gom:speed>0.833</gom:speed></extensions></trkpt>
   <trkpt lat="59.3259447601" lon="34.7067202848"><ele>167.291</ele><time>2026-08-17T02:23:46.206Z</time><hdop>4.937</hdop><vdop>2.5</vdop><extensions><gom:speed>1.105</gom:speed></extensions></trkpt>
   <trkpt lat="59.3259454726" lon="34.7067143336"><ele>167.225</ele><time>2026-08-17T02:23:46.692Z</time><hdop>5.062</hdop><vdop>2.5</vdop><extensions><gom:speed>0.376</gom:speed></extensions></trkpt>
   <trkpt lat="59.3259366716" lon="34.7067302592"><ele>167.156</ele><time>2026-08-17T02:23:47.648Z</time><hdop>5.0</hdop><vdop>2.5</vdop><extensions><gom:speed>0.418</gom:speed></extensions></trkpt>
   <trkpt lat="59.325936965" lon="34.7067280799"><ele>167.114</ele><time>2026-08-17T02:23:48.624Z</time><hdop>5.062</hdop><vdop>2.5</vdop><extensions><gom:speed>0.316</gom:speed></extensions></trkpt>
   <trkpt lat="59.3259311815" lon="34.7067378868"><ele>167.29</ele><time>2026-08-17T02:23:49.454Z</time><hdop>5.125</hdop><vdop>2.812</vdop><extensions><gom:speed>0.284</gom:speed></extensions></trkpt>
   <trkpt lat="59.3259271581" lon="34.7067415748"><ele>167.445</ele><time>2026-08-17T02:23:50.192Z</time><hdop>5.125</hdop><vdop>3.062</vdop><extensions><gom:speed>0.231</gom:speed></extensions></trkpt>
   <trkpt lat="59.325920285" lon="34.7067477774"><ele>167.625</ele><time>2026-08-17T02:23:50.648Z</time><hdop>5.062</hdop><vdop>3.312</vdop><extensions><gom:speed>0.286</gom:speed></extensions></trkpt>
   <trkpt lat="59.3259172675" lon="34.7067514654"><ele>167.796</ele><time>2026-08-17T02:23:51.648Z</time><hdop>4.75</hdop><vdop>3.625</vdop><extensions><gom:speed>0.236</gom:speed></extensions></trkpt>
   <trkpt lat="59.3259185667" lon="34.7067519684"><ele>167.898</ele><time>2026-08-17T02:23:52.369Z</time><hdop>4.687</hdop><vdop>3.625</vdop><extensions><gom:speed>0.201</gom:speed></extensions></trkpt>
   <trkpt lat="59.3259116935" lon="34.7067525551"><ele>167.319</ele><time>2026-08-17T02:23:53.086Z</time><hdop>4.625</hdop><vdop>3.312</vdop><extensions><gom:speed>0.241</gom:speed></extensions></trkpt>
   <trkpt lat="59.3259041917" lon="34.7067524713"><ele>167.287</ele><time>2026-08-17T02:23:53.648Z</time><hdop>4.562</hdop><vdop>3.312</vdop><extensions><gom:speed>0.293</gom:speed></extensions></trkpt>
   <trkpt lat="59.3259036888" lon="34.7067523875"><ele>167.268</ele><time>2026-08-17T02:23:54.553Z</time><hdop>4.562</hdop><vdop>3.312</vdop><extensions><gom:speed>0.251</gom:speed></extensions></trkpt>
   <trkpt lat="59.3258963966" lon="34.7067499567"><ele>167.233</ele><time>2026-08-17T02:23:55.352Z</time><hdop>4.625</hdop><vdop>3.25</vdop><extensions><gom:speed>0.239</gom:speed></extensions></trkpt>
   <trkpt lat="59.3258892719" lon="34.7067460172"><ele>167.416</ele><time>2026-08-17T02:23:55.989Z</time><hdop>4.687</hdop><vdop>3.125</vdop><extensions><gom:speed>0.228</gom:speed></extensions></trkpt>
   <trkpt lat="59.3258812672" lon="34.7067416586"><ele>167.503</ele><time>2026-08-17T02:23:56.648Z</time><hdop>4.687</hdop><vdop>3.125</vdop><extensions><gom:speed>0.276</gom:speed></extensions></trkpt>
   <trkpt lat="59.3258829855" lon="34.7067423292"><ele>167.555</ele><time>2026-08-17T02:23:57.133Z</time><hdop>4.75</hdop><vdop>3.125</vdop><extensions><gom:speed>0.196</gom:speed></extensions></trkpt>
   <trkpt lat="59.32587628" lon="34.7067369648"><ele>167.986</ele><time>2026-08-17T02:23:57.648Z</time><hdop>4.812</hdop><vdop>3.062</vdop><extensions><gom:speed>0.211</gom:speed></extensions></trkpt>
   <trkpt lat="59.3258760704" lon="34.7067355398"><ele>168.243</ele><time>2026-08-17T02:23:58.144Z</time><hdop>4.812</hdop><vdop>3.062</vdop><extensions><gom:speed>0.206</gom:speed></extensions></trkpt>
   <trkpt lat="59.3258760704" lon="34.7067362942"><ele>168.024</ele><time>2026-08-17T02:23:58.692Z</time><hdop>4.812</hdop><vdop>3.187</vdop><extensions><gom:speed>0.152</gom:speed></extensions></trkpt>
   <trkpt lat="59.3258668923" lon="34.7067311812"><ele>167.626</ele><time>2026-08-17T02:23:59.648Z</time><hdop>4.687</hdop><vdop>2.937</vdop><extensions><gom:speed>0.205</gom:speed></extensions></trkpt>
   <trkpt lat="59.3258638748" lon="34.7067264874"><ele>167.475</ele><time>2026-08-17T02:24:00.647Z</time><hdop>4.562</hdop><vdop>3.0</vdop><extensions><gom:speed>0.163</gom:speed></extensions></trkpt>
   <trkpt lat="59.3258630785" lon="34.7067260683"><ele>167.385</ele><time>2026-08-17T02:24:01.665Z</time><hdop>4.437</hdop><vdop>3.0</vdop><extensions><gom:speed>0.158</gom:speed></extensions></trkpt>
   <trkpt lat="59.3258592647" lon="34.7067130763"><ele>167.33</ele><time>2026-08-17T02:24:02.648Z</time><hdop>4.312</hdop><vdop>3.0</vdop><extensions><gom:speed>0.155</gom:speed></extensions></trkpt>
   <trkpt lat="59.325858678" lon="34.7067083825"><ele>167.567</ele><time>2026-08-17T02:24:03.648Z</time><hdop>4.125</hdop><vdop>2.687</vdop><extensions><gom:speed>0.141</gom:speed></extensions></trkpt>
   <trkpt lat="59.3258574626" lon="34.7067077957"><ele>167.515</ele><time>2026-08-17T02:24:04.650Z</time><hdop>4.0</hdop><vdop>2.562</vdop><extensions><gom:speed>0.148</gom:speed></extensions></trkpt>
   <trkpt lat="59.325856373" lon="34.7067028504"><ele>167.484</ele><time>2026-08-17T02:24:05.348Z</time><hdop>3.937</hdop><vdop>2.562</vdop><extensions><gom:speed>0.167</gom:speed></extensions></trkpt>
   <trkpt lat="59.3258552833" lon="34.7066983242"><ele>167.531</ele><time>2026-08-17T02:24:06.592Z</time><hdop>3.875</hdop><vdop>2.5</vdop><extensions><gom:speed>0.191</gom:speed></extensions></trkpt>
   <trkpt lat="59.3258548642" lon="34.706695642"><ele>167.558</ele><time>2026-08-17T02:24:07.392Z</time><hdop>3.687</hdop><vdop>2.5</vdop><extensions><gom:speed>0.179</gom:speed></extensions></trkpt>
   <trkpt lat="59.3258541937" lon="34.7066926245"><ele>167.718</ele><time>2026-08-17T02:24:08.692Z</time><hdop>3.687</hdop><vdop>2.5</vdop><extensions><gom:speed>0.153</gom:speed></extensions></trkpt>
   <trkpt lat="59.3258538584" lon="34.7066872601"><ele>167.816</ele><time>2026-08-17T02:24:09.648Z</time><hdop>3.687</hdop><vdop>2.5</vdop><extensions><gom:speed>0.169</gom:speed></extensions></trkpt>
   <trkpt lat="59.3258540679" lon="34.7066851646"><ele>167.512</ele><time>2026-08-17T02:24:10.649Z</time><hdop>3.625</hdop><vdop>2.5</vdop><extensions><gom:speed>0.156</gom:speed></extensions></trkpt>
   <trkpt lat="59.3258539841" lon="34.7066822309"><ele>167.191</ele><time>2026-08-17T02:24:11.648Z</time><hdop>3.625</hdop><vdop>2.5</vdop><extensions><gom:speed>0.191</gom:speed></extensions></trkpt>
   <trkpt lat="59.3258530621" lon="34.7066812251"><ele>166.998</ele><time>2026-08-17T02:24:12.622Z</time><hdop>3.625</hdop><vdop>2.5</vdop><extensions><gom:speed>0.199</gom:speed></extensions></trkpt>
   <trkpt lat="59.3258547804" lon="34.7066809736"><ele>166.782</ele><time>2026-08-17T02:24:13.692Z</time><hdop>3.687</hdop><vdop>2.5</vdop><extensions><gom:speed>0.149</gom:speed></extensions></trkpt>
   <trkpt lat="59.325857295" lon="34.7066814766"><ele>166.655</ele><time>2026-08-17T02:24:14.692Z</time><hdop>3.687</hdop><vdop>2.5</vdop><extensions><gom:speed>0.102</gom:speed></extensions></trkpt>
   <trkpt lat="59.3258585942" lon="34.7066810575"><ele>166.582</ele><time>2026-08-17T02:24:15.658Z</time><hdop>3.812</hdop><vdop>2.5</vdop><extensions><gom:speed>0.127</gom:speed></extensions></trkpt>
   <trkpt lat="59.3258606897" lon="34.7066814766"><ele>166.538</ele><time>2026-08-17T02:24:16.629Z</time><hdop>3.875</hdop><vdop>2.5</vdop><extensions><gom:speed>0.092</gom:speed></extensions></trkpt>
   <trkpt lat="59.3258636652" lon="34.7066809736"><ele>166.562</ele><time>2026-08-17T02:24:17.185Z</time><hdop>3.937</hdop><vdop>2.5</vdop><extensions><gom:speed>0.089</gom:speed></extensions></trkpt>
   <trkpt lat="59.3258662636" lon="34.7066806384"><ele>166.384</ele><time>2026-08-17T02:24:17.649Z</time><hdop>3.937</hdop><vdop>2.5</vdop><extensions><gom:speed>0.084</gom:speed></extensions></trkpt>
   <trkpt lat="59.3258650902" lon="34.706679884"><ele>166.278</ele><time>2026-08-17T02:24:18.409Z</time><hdop>3.937</hdop><vdop>2.5</vdop><extensions><gom:speed>0.103</gom:speed></extensions></trkpt>
   <trkpt lat="59.3258677724" lon="34.7066781238"><ele>166.215</ele><time>2026-08-17T02:24:19.692Z</time><hdop>3.875</hdop><vdop>2.5</vdop><extensions><gom:speed>0.088</gom:speed></extensions></trkpt>
   <trkpt lat="59.3258736816" lon="34.7066774532"><ele>166.136</ele><time>2026-08-17T02:24:20.647Z</time><hdop>3.875</hdop><vdop>2.5</vdop><extensions><gom:speed>0.111</gom:speed></extensions></trkpt>
   <trkpt lat="59.3258726758" lon="34.706677118"><ele>166.089</ele><time>2026-08-17T02:24:21.424Z</time><hdop>3.812</hdop><vdop>2.5</vdop><extensions><gom:speed>0.148</gom:speed></extensions></trkpt>
   <trkpt lat="59.3258750646" lon="34.7066751901"><ele>166.102</ele><time>2026-08-17T02:24:22.692Z</time><hdop>3.812</hdop><vdop>2.5</vdop><extensions><gom:speed>0.187</gom:speed></extensions></trkpt>
   <trkpt lat="59.3258821892" lon="34.7066713345"><ele>165.905</ele><time>2026-08-17T02:24:23.647Z</time><hdop>3.75</hdop><vdop>2.5</vdop><extensions><gom:speed>0.191</gom:speed></extensions></trkpt>
   <trkpt lat="59.3258818959" lon="34.7066715859"><ele>165.787</ele><time>2026-08-17T02:24:24.662Z</time><hdop>3.812</hdop><vdop>2.5</vdop><extensions><gom:speed>0.188</gom:speed></extensions></trkpt>
   <trkpt lat="59.325887386" lon="34.7066665568"><ele>165.46</ele><time>2026-08-17T02:24:25.648Z</time><hdop>3.812</hdop><vdop>2.5</vdop><extensions><gom:speed>0.145</gom:speed></extensions></trkpt>
   <trkpt lat="59.3258883918" lon="34.7066665568"><ele>165.264</ele><time>2026-08-17T02:24:26.392Z</time><hdop>3.75</hdop><vdop>2.5</vdop><extensions><gom:speed>0.127</gom:speed></extensions></trkpt>
   <trkpt lat="59.3258902778" lon="34.7066636231"><ele>165.028</ele><time>2026-08-17T02:24:27.231Z</time><hdop>3.687</hdop><vdop>2.5</vdop><extensions><gom:speed>0.122</gom:speed></extensions></trkpt>
   <trkpt lat="59.3258907807" lon="34.7066606894"><ele>164.879</ele><time>2026-08-17T02:24:28.295Z</time><hdop>3.625</hdop><vdop>2.5</vdop><extensions><gom:speed>0.165</gom:speed></extensions></trkpt>
   <trkpt lat="59.3258914931" lon="34.7066532295"><ele>164.536</ele><time>2026-08-17T02:24:29.648Z</time><hdop>3.562</hdop><vdop>2.5</vdop><extensions><gom:speed>0.162</gom:speed></extensions></trkpt>
   <trkpt lat="59.325891577" lon="34.7066482842"><ele>164.334</ele><time>2026-08-17T02:24:30.648Z</time><hdop>3.562</hdop><vdop>2.5</vdop><extensions><gom:speed>0.158</gom:speed></extensions></trkpt>
   <trkpt lat="59.3258912836" lon="34.7066475298"><ele>164.214</ele><time>2026-08-17T02:24:31.228Z</time><hdop>3.562</hdop><vdop>2.5</vdop><extensions><gom:speed>0.141</gom:speed></extensions></trkpt>
   <trkpt lat="59.3258919961" lon="34.7066444285"><ele>164.169</ele><time>2026-08-17T02:24:31.926Z</time><hdop>3.562</hdop><vdop>2.5</vdop><extensions><gom:speed>0.133</gom:speed></extensions></trkpt>
   <trkpt lat="59.3258914931" lon="34.7066441771"><ele>164.093</ele><time>2026-08-17T02:24:32.692Z</time><hdop>3.562</hdop><vdop>2.5</vdop><extensions><gom:speed>0.094</gom:speed></extensions></trkpt>
   <trkpt lat="59.325892499" lon="34.706634035"><ele>164.083</ele><time>2026-08-17T02:24:33.648Z</time><hdop>3.562</hdop><vdop>2.5</vdop><extensions><gom:speed>0.128</gom:speed></extensions></trkpt>
   <trkpt lat="59.3258917865" lon="34.7066330292"><ele>164.076</ele><time>2026-08-17T02:24:34.334Z</time><hdop>3.562</hdop><vdop>2.5</vdop><extensions><gom:speed>0.165</gom:speed></extensions></trkpt>
   <trkpt lat="59.3258931695" lon="34.7066260722"><ele>164.013</ele><time>2026-08-17T02:24:35.264Z</time><hdop>3.625</hdop><vdop>2.625</vdop><extensions><gom:speed>0.178</gom:speed></extensions></trkpt>
   <trkpt lat="59.3258947621" lon="34.7066165168"><ele>164.204</ele><time>2026-08-17T02:24:36.266Z</time><hdop>3.625</hdop><vdop>2.687</vdop><extensions><gom:speed>0.225</gom:speed></extensions></trkpt>
   <trkpt lat="59.3258979891" lon="34.7066096436"><ele>164.432</ele><time>2026-08-17T02:24:36.914Z</time><hdop>3.625</hdop><vdop>2.812</vdop><extensions><gom:speed>0.22</gom:speed></extensions></trkpt>
   <trkpt lat="59.3258978634" lon="34.7066066262"><ele>164.568</ele><time>2026-08-17T02:24:37.612Z</time><hdop>3.687</hdop><vdop>2.812</vdop><extensions><gom:speed>0.238</gom:speed></extensions></trkpt>
   <trkpt lat="59.3259012581" lon="34.7066011779"><ele>165.067</ele><time>2026-08-17T02:24:38.692Z</time><hdop>3.75</hdop><vdop>2.687</vdop><extensions><gom:speed>0.123</gom:speed></extensions></trkpt>
   <trkpt lat="59.3259094723" lon="34.7065831568"><ele>165.362</ele><time>2026-08-17T02:24:39.648Z</time><hdop>3.75</hdop><vdop>2.687</vdop><extensions><gom:speed>0.17</gom:speed></extensions></trkpt>
   <trkpt lat="59.325912867" lon="34.7065771219"><ele>165.536</ele><time>2026-08-17T02:24:40.648Z</time><hdop>3.75</hdop><vdop>2.687</vdop><extensions><gom:speed>0.13</gom:speed></extensions></trkpt>
   <trkpt lat="59.3259269905" lon="34.7065530658"><ele>165.64</ele><time>2026-08-17T02:24:41.647Z</time><hdop>3.687</hdop><vdop>2.625</vdop><extensions><gom:speed>0.139</gom:speed></extensions></trkpt>
   <trkpt lat="59.3259310976" lon="34.7065484558"><ele>165.703</ele><time>2026-08-17T02:24:42.648Z</time><hdop>3.5</hdop><vdop>2.562</vdop><extensions><gom:speed>0.092</gom:speed></extensions></trkpt>
   <trkpt lat="59.3259332769" lon="34.7065451868"><ele>165.741</ele><time>2026-08-17T02:24:43.648Z</time><hdop>3.25</hdop><vdop>2.562</vdop><extensions><gom:speed>0.078</gom:speed></extensions></trkpt>
   <trkpt lat="59.3259328997" lon="34.7065456897"><ele>165.597</ele><time>2026-08-17T02:24:44.692Z</time><hdop>3.187</hdop><vdop>2.5</vdop><extensions><gom:speed>0.049</gom:speed></extensions></trkpt>
   <trkpt lat="59.325936965" lon="34.7065412473"><ele>165.511</ele><time>2026-08-17T02:24:45.412Z</time><hdop>3.062</hdop><vdop>2.5</vdop><extensions><gom:speed>0.091</gom:speed></extensions></trkpt>
   <trkpt lat="59.3259406949" lon="34.7065361344"><ele>165.502</ele><time>2026-08-17T02:24:46.692Z</time><hdop>3.0</hdop><vdop>2.5</vdop><extensions><gom:speed>0.112</gom:speed></extensions></trkpt>
   <trkpt lat="59.3259515914" lon="34.7065184485"><ele>165.503</ele><time>2026-08-17T02:24:47.648Z</time><hdop>3.0</hdop><vdop>2.5</vdop><extensions><gom:speed>0.154</gom:speed></extensions></trkpt>
   <trkpt lat="59.325951759" lon="34.7065164369"><ele>165.504</ele><time>2026-08-17T02:24:48.366Z</time><hdop>3.0</hdop><vdop>2.5</vdop><extensions><gom:speed>0.159</gom:speed></extensions></trkpt>
   <trkpt lat="59.3259575845" lon="34.7065096475"><ele>165.384</ele><time>2026-08-17T02:24:49.165Z</time><hdop>3.0</hdop><vdop>2.5</vdop><extensions><gom:speed>0.194</gom:speed></extensions></trkpt>
   <trkpt lat="59.3259627812" lon="34.7065068815"><ele>165.284</ele><time>2026-08-17T02:24:49.647Z</time><hdop>3.0</hdop><vdop>2.625</vdop><extensions><gom:speed>0.193</gom:speed></extensions></trkpt>
   <trkpt lat="59.3259632841" lon="34.7065046184"><ele>164.777</ele><time>2026-08-17T02:24:50.663Z</time><hdop>3.0</hdop><vdop>2.5</vdop><extensions><gom:speed>0.181</gom:speed></extensions></trkpt>
   <trkpt lat="59.3259675589" lon="34.7065009304"><ele>164.474</ele><time>2026-08-17T02:24:51.473Z</time><hdop>3.0</hdop><vdop>2.5</vdop><extensions><gom:speed>0.157</gom:speed></extensions></trkpt>
   <trkpt lat="59.3259733843" lon="34.7064931352"><ele>164.539</ele><time>2026-08-17T02:24:52.648Z</time><hdop>3.0</hdop><vdop>2.562</vdop><extensions><gom:speed>0.172</gom:speed></extensions></trkpt>
   <trkpt lat="59.3259746835" lon="34.7064888604"><ele>164.613</ele><time>2026-08-17T02:24:53.648Z</time><hdop>3.0</hdop><vdop>2.5</vdop><extensions><gom:speed>0.148</gom:speed></extensions></trkpt>
   <trkpt lat="59.3259754798" lon="34.7064845856"><ele>164.399</ele><time>2026-08-17T02:24:54.649Z</time><hdop>3.0</hdop><vdop>2.5</vdop><extensions><gom:speed>0.123</gom:speed></extensions></trkpt>
   <trkpt lat="59.325975396" lon="34.7064848371"><ele>164.271</ele><time>2026-08-17T02:24:55.145Z</time><hdop>3.0</hdop><vdop>2.5</vdop><extensions><gom:speed>0.105</gom:speed></extensions></trkpt>
   <trkpt lat="59.3259746835" lon="34.7064791374"><ele>164.311</ele><time>2026-08-17T02:24:55.648Z</time><hdop>3.0</hdop><vdop>2.5</vdop><extensions><gom:speed>0.11</gom:speed></extensions></trkpt>
   <trkpt lat="59.3259749769" lon="34.7064793889"><ele>164.334</ele><time>2026-08-17T02:24:56.106Z</time><hdop>3.0</hdop><vdop>2.5</vdop><extensions><gom:speed>0.07</gom:speed></extensions></trkpt>
   <trkpt lat="59.3259752703" lon="34.7064781316"><ele>164.35</ele><time>2026-08-17T02:24:56.692Z</time><hdop>3.0</hdop><vdop>2.5</vdop><extensions><gom:speed>0.05</gom:speed></extensions></trkpt>
   <trkpt lat="59.3259727976" lon="34.7064707555"><ele>164.356</ele><time>2026-08-17T02:24:57.648Z</time><hdop>3.0</hdop><vdop>2.5</vdop><extensions><gom:speed>0.083</gom:speed></extensions></trkpt>
   <trkpt lat="59.3259725881" lon="34.7064711746"><ele>164.359</ele><time>2026-08-17T02:24:58.311Z</time><hdop>3.0</hdop><vdop>2.5</vdop><extensions><gom:speed>0.079</gom:speed></extensions></trkpt>
   <trkpt lat="59.3259716661" lon="34.7064678218"><ele>164.622</ele><time>2026-08-17T02:24:59.051Z</time><hdop>3.0</hdop><vdop>2.5</vdop><extensions><gom:speed>0.09</gom:speed></extensions></trkpt>
   <trkpt lat="59.3259700735" lon="34.7064609487"><ele>164.742</ele><time>2026-08-17T02:24:59.648Z</time><hdop>3.0</hdop><vdop>2.5</vdop><extensions><gom:speed>0.144</gom:speed></extensions></trkpt>
   <trkpt lat="59.3259677685" lon="34.7064517286"><ele>164.549</ele><time>2026-08-17T02:25:00.648Z</time><hdop>3.0</hdop><vdop>2.5</vdop><extensions><gom:speed>0.136</gom:speed></extensions></trkpt>
   <trkpt lat="59.3259675589" lon="34.7064504713"><ele>164.435</ele><time>2026-08-17T02:25:01.569Z</time><hdop>3.0</hdop><vdop>2.5</vdop><extensions><gom:speed>0.123</gom:speed></extensions></trkpt>
   <trkpt lat="59.3259638709" lon="34.7064328693"><ele>164.348</ele><time>2026-08-17T02:25:02.648Z</time><hdop>3.0</hdop><vdop>2.5</vdop><extensions><gom:speed>0.145</gom:speed></extensions></trkpt>
   <trkpt lat="59.3259637871" lon="34.7064328693"><ele>164.302</ele><time>2026-08-17T02:25:03.692Z</time><hdop>3.0</hdop><vdop>2.5</vdop><extensions><gom:speed>0.058</gom:speed></extensions></trkpt>
   <trkpt lat="59.3259624879" lon="34.7064240683"><ele>164.275</ele><time>2026-08-17T02:25:04.665Z</time><hdop>3.0</hdop><vdop>2.5</vdop><extensions><gom:speed>0.1</gom:speed></extensions></trkpt>
   <trkpt lat="59.3259612725" lon="34.7064180333"><ele>164.171</ele><time>2026-08-17T02:25:05.505Z</time><hdop>3.0</hdop><vdop>2.5</vdop><extensions><gom:speed>0.105</gom:speed></extensions></trkpt>
   <trkpt lat="59.3259590932" lon="34.7064119984"><ele>163.834</ele><time>2026-08-17T02:25:06.466Z</time><hdop>3.0</hdop><vdop>2.5</vdop><extensions><gom:speed>0.109</gom:speed></extensions></trkpt>
   <trkpt lat="59.3259563691" lon="34.706407053"><ele>163.65</ele><time>2026-08-17T02:25:07.285Z</time><hdop>3.0</hdop><vdop>2.5</vdop><extensions><gom:speed>0.094</gom:speed></extensions></trkpt>
   <trkpt lat="59.3259534773" lon="34.7064019401"><ele>163.775</ele><time>2026-08-17T02:25:08.207Z</time><hdop>3.0</hdop><vdop>2.5</vdop><extensions><gom:speed>0.109</gom:speed></extensions></trkpt>
   <trkpt lat="59.325950376" lon="34.7063960728"><ele>163.796</ele><time>2026-08-17T02:25:09.663Z</time><hdop>3.0</hdop><vdop>2.5</vdop><extensions><gom:speed>0.139</gom:speed></extensions></trkpt>
   <trkpt lat="59.3259464784" lon="34.7063892834"><ele>163.808</ele><time>2026-08-17T02:25:10.634Z</time><hdop>3.0</hdop><vdop>2.5</vdop><extensions><gom:speed>0.148</gom:speed></extensions></trkpt>
   <trkpt lat="59.3259430838" lon="34.7063871879"><ele>163.677</ele><time>2026-08-17T02:25:11.212Z</time><hdop>3.0</hdop><vdop>2.5</vdop><extensions><gom:speed>0.155</gom:speed></extensions></trkpt>
   <trkpt lat="59.3259388928" lon="34.7063847572"><ele>163.757</ele><time>2026-08-17T02:25:12.692Z</time><hdop>3.0</hdop><vdop>2.5</vdop><extensions><gom:speed>0.078</gom:speed></extensions></trkpt>
   <trkpt lat="59.3259309719" lon="34.7063815721"><ele>163.79</ele><time>2026-08-17T02:25:13.648Z</time><hdop>3.0</hdop><vdop>2.5</vdop><extensions><gom:speed>0.125</gom:speed></extensions></trkpt>
   <trkpt lat="59.3259314748" lon="34.7063825779"><ele>163.81</ele><time>2026-08-17T02:25:14.266Z</time><hdop>3.0</hdop><vdop>2.5</vdop><extensions><gom:speed>0.102</gom:speed></extensions></trkpt>
   <trkpt lat="59.3259284992" lon="34.7063814882"><ele>163.827</ele><time>2026-08-17T02:25:14.752Z</time><hdop>3.0</hdop><vdop>2.5</vdop><extensions><gom:speed>0.04</gom:speed></extensions></trkpt>
   <trkpt lat="59.3259275772" lon="34.7063794766"><ele>163.838</ele><time>2026-08-17T02:25:15.431Z</time><hdop>3.0</hdop><vdop>2.5</vdop><extensions><gom:speed>0.12</gom:speed></extensions></trkpt>
   <trkpt lat="59.3259178961" lon="34.7063735254"><ele>163.782</ele><time>2026-08-17T02:25:16.648Z</time><hdop>3.0</hdop><vdop>2.5</vdop><extensions><gom:speed>0.225</gom:speed></extensions></trkpt>
   <trkpt lat="59.3259175609" lon="34.7063724358"><ele>163.75</ele><time>2026-08-17T02:25:17.271Z</time><hdop>3.0</hdop><vdop>2.5</vdop><extensions><gom:speed>0.162</gom:speed></extensions></trkpt>
   <trkpt lat="59.3259053652" lon="34.7063643892"><ele>163.985</ele><time>2026-08-17T02:25:18.647Z</time><hdop>3.0</hdop><vdop>2.5</vdop><extensions><gom:speed>0.198</gom:speed></extensions></trkpt>
   <trkpt lat="59.3259050718" lon="34.706366317"><ele>164.366</ele><time>2026-08-17T02:25:19.692Z</time><hdop>3.0</hdop><vdop>2.5</vdop><extensions><gom:speed>0.036</gom:speed></extensions></trkpt>
   <trkpt lat="59.3258968995" lon="34.706360282"><ele>165.179</ele><time>2026-08-17T02:25:20.648Z</time><hdop>3.0</hdop><vdop>2.5</vdop><extensions><gom:speed>0.099</gom:speed></extensions></trkpt>
   <trkpt lat="59.3258911998" lon="34.7063567616"><ele>166.005</ele><time>2026-08-17T02:25:21.647Z</time><hdop>3.0</hdop><vdop>2.5</vdop><extensions><gom:speed>0.191</gom:speed></extensions></trkpt>
   <trkpt lat="59.3258917865" lon="34.7063574322"><ele>166.393</ele><time>2026-08-17T02:25:22.693Z</time><hdop>3.0</hdop><vdop>2.562</vdop><extensions><gom:speed>0.091</gom:speed></extensions></trkpt>
   <trkpt lat="59.3258866736" lon="34.7063542471"><ele>166.855</ele><time>2026-08-17T02:25:23.692Z</time><hdop>3.0</hdop><vdop>2.5</vdop><extensions><gom:speed>0.098</gom:speed></extensions></trkpt>
   <trkpt lat="59.3258806805" lon="34.7063509781"><ele>167.131</ele><time>2026-08-17T02:25:24.505Z</time><hdop>3.0</hdop><vdop>2.5</vdop><extensions><gom:speed>0.143</gom:speed></extensions></trkpt>
   <trkpt lat="59.3258717957" lon="34.7063469548"><ele>167.361</ele><time>2026-08-17T02:25:25.648Z</time><hdop>3.0</hdop><vdop>2.5</vdop><extensions><gom:speed>0.158</gom:speed></extensions></trkpt>
   <trkpt lat="59.3258678981" lon="34.7063444402"><ele>167.51</ele><time>2026-08-17T02:25:26.649Z</time><hdop>3.0</hdop><vdop>2.5</vdop><extensions><gom:speed>0.149</gom:speed></extensions></trkpt>
   <trkpt lat="59.3258650902" lon="34.7063434344"><ele>167.599</ele><time>2026-08-17T02:25:27.648Z</time><hdop>3.0</hdop><vdop>2.5</vdop><extensions><gom:speed>0.149</gom:speed></extensions></trkpt>
   <trkpt lat="59.3258635814" lon="34.7063437697"><ele>167.652</ele><time>2026-08-17T02:25:28.649Z</time><hdop>3.0</hdop><vdop>2.5</vdop><extensions><gom:speed>0.122</gom:speed></extensions></trkpt>
   <trkpt lat="59.3258634976" lon="34.7063430991"><ele>167.686</ele><time>2026-08-17T02:25:29.654Z</time><hdop>3.0</hdop><vdop>2.5</vdop><extensions><gom:speed>0.124</gom:speed></extensions></trkpt>
   <trkpt lat="59.3258622822" lon="34.7063422609"><ele>167.705</ele><time>2026-08-17T02:25:30.170Z</time><hdop>3.0</hdop><vdop>2.5</vdop><extensions><gom:speed>0.093</gom:speed></extensions></trkpt>
   <trkpt lat="59.3258615698" lon="34.7063414227"><ele>167.763</ele><time>2026-08-17T02:25:30.648Z</time><hdop>3.0</hdop><vdop>2.5</vdop><extensions><gom:speed>0.11</gom:speed></extensions></trkpt>
   <trkpt lat="59.3258633719" lon="34.706341758"><ele>167.344</ele><time>2026-08-17T02:25:31.647Z</time><hdop>3.0</hdop><vdop>2.5</vdop><extensions><gom:speed>0.082</gom:speed></extensions></trkpt>
   <trkpt lat="59.3258634976" lon="34.7063411713"><ele>167.093</ele><time>2026-08-17T02:25:32.609Z</time><hdop>3.0</hdop><vdop>2.5</vdop><extensions><gom:speed>0.086</gom:speed></extensions></trkpt>
   <trkpt lat="59.3258646711" lon="34.7063386567"><ele>167.188</ele><time>2026-08-17T02:25:33.570Z</time><hdop>3.0</hdop><vdop>2.562</vdop><extensions><gom:speed>0.103</gom:speed></extensions></trkpt>
   <trkpt lat="59.3258654673" lon="34.7063326217"><ele>167.034</ele><time>2026-08-17T02:25:34.389Z</time><hdop>3.0</hdop><vdop>2.5</vdop><extensions><gom:speed>0.127</gom:speed></extensions></trkpt>
   <trkpt lat="59.3258666827" lon="34.7063268382"><ele>166.801</ele><time>2026-08-17T02:25:35.692Z</time><hdop>3.0</hdop><vdop>2.5</vdop><extensions><gom:speed>0.065</gom:speed></extensions></trkpt>
   <trkpt lat="59.3258680657" lon="34.7063210547"><ele>166.662</ele><time>2026-08-17T02:25:36.170Z</time><hdop>3.0</hdop><vdop>2.5</vdop><extensions><gom:speed>0.104</gom:speed></extensions></trkpt>
   <trkpt lat="59.3258680657" lon="34.7063199651"><ele>166.666</ele><time>2026-08-17T02:25:36.692Z</time><hdop>3.0</hdop><vdop>2.5</vdop><extensions><gom:speed>0.095</gom:speed></extensions></trkpt>
   <trkpt lat="59.3258689877" lon="34.7063111641"><ele>166.363</ele><time>2026-08-17T02:25:37.667Z</time><hdop>3.0</hdop><vdop>2.562</vdop><extensions><gom:speed>0.12</gom:speed></extensions></trkpt>
   <trkpt lat="59.3258709994" lon="34.7063048776"><ele>166.182</ele><time>2026-08-17T02:25:38.629Z</time><hdop>3.0</hdop><vdop>2.562</vdop><extensions><gom:speed>0.116</gom:speed></extensions></trkpt>
   <trkpt lat="59.3258742683" lon="34.706299178"><ele>165.868</ele><time>2026-08-17T02:25:39.489Z</time><hdop>3.0</hdop><vdop>2.625</vdop><extensions><gom:speed>0.155</gom:speed></extensions></trkpt>
   <trkpt lat="59.3258783755" lon="34.7062930592"><ele>165.701</ele><time>2026-08-17T02:25:40.471Z</time><hdop>3.0</hdop><vdop>2.5</vdop><extensions><gom:speed>0.186</gom:speed></extensions></trkpt>
   <trkpt lat="59.3258835722" lon="34.7062878624"><ele>165.449</ele><time>2026-08-17T02:25:41.107Z</time><hdop>3.0</hdop><vdop>2.562</vdop><extensions><gom:speed>0.185</gom:speed></extensions></trkpt>
   <trkpt lat="59.3258889786" lon="34.7062814921"><ele>165.632</ele><time>2026-08-17T02:25:41.648Z</time><hdop>3.0</hdop><vdop>2.625</vdop><extensions><gom:speed>0.227</gom:speed></extensions></trkpt>
   <trkpt lat="59.3258949716" lon="34.7062697575"><ele>165.794</ele><time>2026-08-17T02:25:42.648Z</time><hdop>3.0</hdop><vdop>2.937</vdop><extensions><gom:speed>0.347</gom:speed></extensions></trkpt>
   <trkpt lat="59.3258954746" lon="34.7062666562"><ele>165.891</ele><time>2026-08-17T02:25:43.506Z</time><hdop>3.0</hdop><vdop>2.937</vdop><extensions><gom:speed>0.296</gom:speed></extensions></trkpt>
   <trkpt lat="59.3259041917" lon="34.7062518202"><ele>165.751</ele><time>2026-08-17T02:25:44.405Z</time><hdop>3.0</hdop><vdop>3.0</vdop><extensions><gom:speed>0.3</gom:speed></extensions></trkpt>
   <trkpt lat="59.325912867" lon="34.7062348888"><ele>165.358</ele><time>2026-08-17T02:25:45.407Z</time><hdop>3.0</hdop><vdop>3.187</vdop><extensions><gom:speed>0.34</gom:speed></extensions></trkpt>
   <trkpt lat="59.3259197821" lon="34.7062251657"><ele>165.266</ele><time>2026-08-17T02:25:46.307Z</time><hdop>3.0</hdop><vdop>3.0</vdop><extensions><gom:speed>0.246</gom:speed></extensions></trkpt>
   <trkpt lat="59.325924895" lon="34.7062193822"><ele>165.026</ele><time>2026-08-17T02:25:47.208Z</time><hdop>3.0</hdop><vdop>2.812</vdop><extensions><gom:speed>0.181</gom:speed></extensions></trkpt>
   <trkpt lat="59.3259303852" lon="34.706211168"><ele>165.184</ele><time>2026-08-17T02:25:47.906Z</time><hdop>3.0</hdop><vdop>3.062</vdop><extensions><gom:speed>0.218</gom:speed></extensions></trkpt>
   <trkpt lat="59.3259311815" lon="34.7062079828"><ele>165.278</ele><time>2026-08-17T02:25:48.624Z</time><hdop>3.0</hdop><vdop>3.062</vdop><extensions><gom:speed>0.232</gom:speed></extensions></trkpt>
   <trkpt lat="59.3259373841" lon="34.706203289"><ele>165.471</ele><time>2026-08-17T02:25:49.545Z</time><hdop>3.0</hdop><vdop>2.937</vdop><extensions><gom:speed>0.234</gom:speed></extensions></trkpt>
   <trkpt lat="59.3259455983" lon="34.7061986789"><ele>165.822</ele><time>2026-08-17T02:25:50.587Z</time><hdop>3.0</hdop><vdop>2.937</vdop><extensions><gom:speed>0.26</gom:speed></extensions></trkpt>
   <trkpt lat="59.3259578778" lon="34.7061933983"><ele>166.114</ele><time>2026-08-17T02:25:51.427Z</time><hdop>3.0</hdop><vdop>2.875</vdop><extensions><gom:speed>0.264</gom:speed></extensions></trkpt>
   <trkpt lat="59.3259657987" lon="34.7061863575"><ele>165.991</ele><time>2026-08-17T02:25:52.246Z</time><hdop>3.0</hdop><vdop>2.937</vdop><extensions><gom:speed>0.259</gom:speed></extensions></trkpt>
   <trkpt lat="59.3259713727" lon="34.7061798196"><ele>165.826</ele><time>2026-08-17T02:25:53.045Z</time><hdop>3.0</hdop><vdop>3.312</vdop><extensions><gom:speed>0.3</gom:speed></extensions></trkpt>
   <trkpt lat="59.325972169" lon="34.7061780595"><ele>166.235</ele><time>2026-08-17T02:25:53.693Z</time><hdop>3.0</hdop><vdop>2.937</vdop><extensions><gom:speed>0.268</gom:speed></extensions></trkpt>
   <trkpt lat="59.3259826883" lon="34.7061706834"><ele>166.397</ele><time>2026-08-17T02:25:54.648Z</time><hdop>3.0</hdop><vdop>2.875</vdop><extensions><gom:speed>0.386</gom:speed></extensions></trkpt>
   <trkpt lat="59.3259837779" lon="34.7061676659"><ele>166.494</ele><time>2026-08-17T02:25:55.473Z</time><hdop>3.0</hdop><vdop>2.875</vdop><extensions><gom:speed>0.308</gom:speed></extensions></trkpt>
   <trkpt lat="59.325992998" lon="34.7061605413"><ele>166.491</ele><time>2026-08-17T02:25:56.648Z</time><hdop>3.0</hdop><vdop>2.625</vdop><extensions><gom:speed>0.276</gom:speed></extensions></trkpt>
   <trkpt lat="59.3259928723" lon="34.7061614633"><ele>165.934</ele><time>2026-08-17T02:25:57.692Z</time><hdop>3.0</hdop><vdop>2.562</vdop><extensions><gom:speed>0.155</gom:speed></extensions></trkpt>
   <trkpt lat="59.3259987815" lon="34.7061598707"><ele>165.446</ele><time>2026-08-17T02:25:58.650Z</time><hdop>3.0</hdop><vdop>2.875</vdop><extensions><gom:speed>0.189</gom:speed></extensions></trkpt>
   <trkpt lat="59.3260062833" lon="34.7061613795"><ele>164.963</ele><time>2026-08-17T02:25:59.648Z</time><hdop>3.0</hdop><vdop>2.625</vdop><extensions><gom:speed>0.127</gom:speed></extensions></trkpt>
   <trkpt lat="59.3260066605" lon="34.7061602898"><ele>164.674</ele><time>2026-08-17T02:26:00.633Z</time><hdop>3.0</hdop><vdop>2.625</vdop><extensions><gom:speed>0.119</gom:speed></extensions></trkpt>
   <trkpt lat="59.3260135756" lon="34.7061576914"><ele>164.535</ele><time>2026-08-17T02:26:01.648Z</time><hdop>3.0</hdop><vdop>2.5</vdop><extensions><gom:speed>0.157</gom:speed></extensions></trkpt>
   <trkpt lat="59.3260131984" lon="34.7061598707"><ele>164.476</ele><time>2026-08-17T02:26:02.692Z</time><hdop>3.0</hdop><vdop>2.5</vdop><extensions><gom:speed>0.042</gom:speed></extensions></trkpt>
   <trkpt lat="59.3260177665" lon="34.7061585296"><ele>164.411</ele><time>2026-08-17T02:26:03.649Z</time><hdop>3.0</hdop><vdop>2.5</vdop><extensions><gom:speed>0.085</gom:speed></extensions></trkpt>
   <trkpt lat="59.3260176827" lon="34.7061586973"><ele>164.373</ele><time>2026-08-17T02:26:04.135Z</time><hdop>3.0</hdop><vdop>2.5</vdop><extensions><gom:speed>0.088</gom:speed></extensions></trkpt>
   <trkpt lat="59.3260194848" lon="34.7061584458"><ele>164.413</ele><time>2026-08-17T02:26:04.648Z</time><hdop>3.0</hdop><vdop>2.5</vdop><extensions><gom:speed>0.102</gom:speed></extensions></trkpt>
   <trkpt lat="59.3260199877" lon="34.7061577752"><ele>164.437</ele><time>2026-08-17T02:26:05.671Z</time><hdop>3.0</hdop><vdop>2.5</vdop><extensions><gom:speed>0.097</gom:speed></extensions></trkpt>
   <trkpt lat="59.3260216641" lon="34.7061542548"><ele>163.864</ele><time>2026-08-17T02:26:06.663Z</time><hdop>3.0</hdop><vdop>2.625</vdop><extensions><gom:speed>0.083</gom:speed></extensions></trkpt>
   <trkpt lat="59.3260222927" lon="34.7061489742"><ele>163.473</ele><time>2026-08-17T02:26:07.692Z</time><hdop>3.0</hdop><vdop>2.937</vdop><extensions><gom:speed>0.09</gom:speed></extensions></trkpt>
   <trkpt lat="59.3260243882" lon="34.7061340545"><ele>163.168</ele><time>2026-08-17T02:26:08.648Z</time><hdop>3.0</hdop><vdop>3.312</vdop><extensions><gom:speed>0.166</gom:speed></extensions></trkpt>
   <trkpt lat="59.3260245978" lon="34.7061331324"><ele>162.819</ele><time>2026-08-17T02:26:09.659Z</time><hdop>3.0</hdop><vdop>3.5</vdop><extensions><gom:speed>0.133</gom:speed></extensions></trkpt>
   <trkpt lat="59.3260255617" lon="34.7061229903"><ele>162.61</ele><time>2026-08-17T02:26:10.426Z</time><hdop>3.0</hdop><vdop>3.5</vdop><extensions><gom:speed>0.156</gom:speed></extensions></trkpt>
   <trkpt lat="59.3260269866" lon="34.706111591"><ele>162.806</ele><time>2026-08-17T02:26:11.327Z</time><hdop>3.0</hdop><vdop>3.437</vdop><extensions><gom:speed>0.172</gom:speed></extensions></trkpt>
   <trkpt lat="59.3260300879" lon="34.7060876187"><ele>162.673</ele><time>2026-08-17T02:26:12.648Z</time><hdop>3.0</hdop><vdop>3.375</vdop><extensions><gom:speed>0.191</gom:speed></extensions></trkpt>
   <trkpt lat="59.326030968" lon="34.7060802426"><ele>162.592</ele><time>2026-08-17T02:26:13.648Z</time><hdop>3.0</hdop><vdop>3.312</vdop><extensions><gom:speed>0.154</gom:speed></extensions></trkpt>
   <trkpt lat="59.32603189" lon="34.7060797397"><ele>162.544</ele><time>2026-08-17T02:26:14.693Z</time><hdop>3.0</hdop><vdop>3.312</vdop><extensions><gom:speed>0.116</gom:speed></extensions></trkpt>
   <trkpt lat="59.3260327701" lon="34.7060724475"><ele>162.515</ele><time>2026-08-17T02:26:15.404Z</time><hdop>3.0</hdop><vdop>3.312</vdop><extensions><gom:speed>0.139</gom:speed></extensions></trkpt>
   <trkpt lat="59.326033776" lon="34.7060647361"><ele>162.425</ele><time>2026-08-17T02:26:16.426Z</time><hdop>3.0</hdop><vdop>3.625</vdop><extensions><gom:speed>0.168</gom:speed></extensions></trkpt>
   <trkpt lat="59.3260342789" lon="34.7060602937"><ele>162.362</ele><time>2026-08-17T02:26:17.185Z</time><hdop>3.0</hdop><vdop>3.375</vdop><extensions><gom:speed>0.121</gom:speed></extensions></trkpt>
   <trkpt lat="59.3260356619" lon="34.7060551807"><ele>162.298</ele><time>2026-08-17T02:26:17.647Z</time><hdop>3.0</hdop><vdop>3.437</vdop><extensions><gom:speed>0.148</gom:speed></extensions></trkpt>
   <trkpt lat="59.3260363743" lon="34.7060510736"><ele>162.255</ele><time>2026-08-17T02:26:18.648Z</time><hdop>3.0</hdop><vdop>3.187</vdop><extensions><gom:speed>0.127</gom:speed></extensions></trkpt>
   <trkpt lat="59.3260375897" lon="34.7060482238"><ele>162.232</ele><time>2026-08-17T02:26:19.648Z</time><hdop>3.0</hdop><vdop>2.937</vdop><extensions><gom:speed>0.113</gom:speed></extensions></trkpt>
   <trkpt lat="59.3260378831" lon="34.7060458768"><ele>162.218</ele><time>2026-08-17T02:26:20.648Z</time><hdop>3.0</hdop><vdop>2.562</vdop><extensions><gom:speed>0.1</gom:speed></extensions></trkpt>
   <trkpt lat="59.3260379669" lon="34.7060435299"><ele>162.211</ele><time>2026-08-17T02:26:21.648Z</time><hdop>3.0</hdop><vdop>2.5</vdop><extensions><gom:speed>0.07</gom:speed></extensions></trkpt>
   <trkpt lat="59.3260396852" lon="34.7060405962"><ele>162.21</ele><time>2026-08-17T02:26:22.648Z</time><hdop>3.0</hdop><vdop>2.5</vdop><extensions><gom:speed>0.126</gom:speed></extensions></trkpt>
   <trkpt lat="59.3260396852" lon="34.7060412668"><ele>162.209</ele><time>2026-08-17T02:26:23.113Z</time><hdop>3.0</hdop><vdop>2.5</vdop><extensions><gom:speed>0.069</gom:speed></extensions></trkpt>
   <trkpt lat="59.3260435828" lon="34.7060372435"><ele>162.193</ele><time>2026-08-17T02:26:23.647Z</time><hdop>3.0</hdop><vdop>2.5</vdop><extensions><gom:speed>0.167</gom:speed></extensions></trkpt>
   <trkpt lat="59.3260440857" lon="34.7060370758"><ele>162.184</ele><time>2026-08-17T02:26:24.530Z</time><hdop>3.0</hdop><vdop>2.5</vdop><extensions><gom:speed>0.122</gom:speed></extensions></trkpt>
   <trkpt lat="59.3260472708" lon="34.706030957"><ele>162.027</ele><time>2026-08-17T02:26:25.268Z</time><hdop>3.0</hdop><vdop>2.562</vdop><extensions><gom:speed>0.158</gom:speed></extensions></trkpt>
   <trkpt lat="59.3260502883" lon="34.7060219884"><ele>162.045</ele><time>2026-08-17T02:26:26.068Z</time><hdop>3.0</hdop><vdop>2.5</vdop><extensions><gom:speed>0.212</gom:speed></extensions></trkpt>
   <trkpt lat="59.3260533896" lon="34.7060106728"><ele>162.082</ele><time>2026-08-17T02:26:26.648Z</time><hdop>3.0</hdop><vdop>2.5</vdop><extensions><gom:speed>0.316</gom:speed></extensions></trkpt>
   <trkpt lat="59.3260555689" lon="34.7059987705"><ele>162.121</ele><time>2026-08-17T02:26:27.647Z</time><hdop>3.0</hdop><vdop>2.5</vdop><extensions><gom:speed>0.324</gom:speed></extensions></trkpt>
   <trkpt lat="59.3260554851" lon="34.7059983514"><ele>162.145</ele><time>2026-08-17T02:26:28.111Z</time><hdop>3.0</hdop><vdop>2.5</vdop><extensions><gom:speed>0.256</gom:speed></extensions></trkpt>
   <trkpt lat="59.326058293" lon="34.7059836831"><ele>162.218</ele><time>2026-08-17T02:26:28.649Z</time><hdop>3.0</hdop><vdop>2.5</vdop><extensions><gom:speed>0.374</gom:speed></extensions></trkpt>
   <trkpt lat="59.3260587959" lon="34.7059801627"><ele>162.262</ele><time>2026-08-17T02:26:29.629Z</time><hdop>3.0</hdop><vdop>2.5</vdop><extensions><gom:speed>0.324</gom:speed></extensions></trkpt>
   <trkpt lat="59.3260608914" lon="34.7059653267"><ele>162.546</ele><time>2026-08-17T02:26:30.428Z</time><hdop>3.0</hdop><vdop>2.5</vdop><extensions><gom:speed>0.332</gom:speed></extensions></trkpt>
   <trkpt lat="59.3260627773" lon="34.7059485629"><ele>162.733</ele><time>2026-08-17T02:26:31.288Z</time><hdop>3.0</hdop><vdop>2.5</vdop><extensions><gom:speed>0.366</gom:speed></extensions></trkpt>
   <trkpt lat="59.3260637832" lon="34.7059270215"><ele>162.766</ele><time>2026-08-17T02:26:32.512Z</time><hdop>3.0</hdop><vdop>2.5</vdop><extensions><gom:speed>0.388</gom:speed></extensions></trkpt>
   <trkpt lat="59.3260650824" lon="34.7059235849"><ele>161.907</ele><time>2026-08-17T02:26:33.692Z</time><hdop>3.0</hdop><vdop>2.5</vdop><extensions><gom:speed>0.19</gom:speed></extensions></trkpt>
   <trkpt lat="59.3260667587" lon="34.7059227467"><ele>161.392</ele><time>2026-08-17T02:26:34.693Z</time><hdop>3.0</hdop><vdop>2.5</vdop><extensions><gom:speed>0.155</gom:speed></extensions></trkpt>
   <trkpt lat="59.3260676808" lon="34.705923082"><ele>161.261</ele><time>2026-08-17T02:26:35.692Z</time><hdop>3.0</hdop><vdop>2.5</vdop><extensions><gom:speed>0.104</gom:speed></extensions></trkpt>
   <trkpt lat="59.3260689799" lon="34.7059195616"><ele>161.188</ele><time>2026-08-17T02:26:36.650Z</time><hdop>3.0</hdop><vdop>2.5</vdop><extensions><gom:speed>0.175</gom:speed></extensions></trkpt>
   <trkpt lat="59.3260701953" lon="34.7059172984"><ele>161.772</ele><time>2026-08-17T02:26:37.662Z</time><hdop>3.0</hdop><vdop>2.5</vdop><extensions><gom:speed>0.149</gom:speed></extensions></trkpt>
   <trkpt lat="59.326071285" lon="34.7059166279"><ele>162.117</ele><time>2026-08-17T02:26:38.692Z</time><hdop>3.0</hdop><vdop>2.5</vdop><extensions><gom:speed>0.064</gom:speed></extensions></trkpt>
   <trkpt lat="59.3260741767" lon="34.7059150353"><ele>162.321</ele><time>2026-08-17T02:26:39.647Z</time><hdop>3.0</hdop><vdop>2.5</vdop><extensions><gom:speed>0.085</gom:speed></extensions></trkpt>
   <trkpt lat="59.32607359" lon="34.7059157897"><ele>162.441</ele><time>2026-08-17T02:26:40.692Z</time><hdop>3.0</hdop><vdop>2.625</vdop><extensions><gom:speed>0.023</gom:speed></extensions></trkpt>
   <trkpt lat="59.3260762722" lon="34.7059136942"><ele>162.512</ele><time>2026-08-17T02:26:41.647Z</time><hdop>3.0</hdop><vdop>2.812</vdop><extensions><gom:speed>0.058</gom:speed></extensions></trkpt>
   <trkpt lat="59.3260763979" lon="34.7059141971"><ele>162.342</ele><time>2026-08-17T02:26:42.648Z</time><hdop>3.0</hdop><vdop>2.812</vdop><extensions><gom:speed>0.068</gom:speed></extensions></trkpt>
   <trkpt lat="59.3260763979" lon="34.7059176337"><ele>162.44</ele><time>2026-08-17T02:26:43.648Z</time><hdop>3.0</hdop><vdop>2.625</vdop><extensions><gom:speed>0.139</gom:speed></extensions></trkpt>
   <trkpt lat="59.3260764818" lon="34.7059163764"><ele>162.498</ele><time>2026-08-17T02:26:44.491Z</time><hdop>3.0</hdop><vdop>2.625</vdop><extensions><gom:speed>0.102</gom:speed></extensions></trkpt>
   <trkpt lat="59.3260769847" lon="34.7059211541"><ele>162.618</ele><time>2026-08-17T02:26:45.251Z</time><hdop>3.0</hdop><vdop>2.625</vdop><extensions><gom:speed>0.129</gom:speed></extensions></trkpt>
   <trkpt lat="59.3260779905" lon="34.7059255965"><ele>162.643</ele><time>2026-08-17T02:26:46.646Z</time><hdop>3.0</hdop><vdop>2.5</vdop><extensions><gom:speed>0.169</gom:speed></extensions></trkpt>
   <trkpt lat="59.3260778648" lon="34.7059320506"><ele>162.637</ele><time>2026-08-17T02:26:47.314Z</time><hdop>3.0</hdop><vdop>2.625</vdop><extensions><gom:speed>0.249</gom:speed></extensions></trkpt>
   <trkpt lat="59.3260770685" lon="34.7059409354"><ele>162.436</ele><time>2026-08-17T02:26:48.214Z</time><hdop>3.0</hdop><vdop>2.5</vdop><extensions><gom:speed>0.214</gom:speed></extensions></trkpt>
   <trkpt lat="59.3260759788" lon="34.7059508261"><ele>162.277</ele><time>2026-08-17T02:26:49.661Z</time><hdop>3.0</hdop><vdop>2.5</vdop><extensions><gom:speed>0.165</gom:speed></extensions></trkpt>
   <trkpt lat="59.3260736738" lon="34.7059576992"><ele>162.2</ele><time>2026-08-17T02:26:50.692Z</time><hdop>3.0</hdop><vdop>2.5</vdop><extensions><gom:speed>0.047</gom:speed></extensions></trkpt>
   <trkpt lat="59.3260727937" lon="34.7059685957"><ele>162.154</ele><time>2026-08-17T02:26:51.648Z</time><hdop>3.0</hdop><vdop>2.5</vdop><extensions><gom:speed>0.067</gom:speed></extensions></trkpt>
   <trkpt lat="59.3260722908" lon="34.7059731219"><ele>162.128</ele><time>2026-08-17T02:26:52.648Z</time><hdop>3.0</hdop><vdop>2.5</vdop><extensions><gom:speed>0.095</gom:speed></extensions></trkpt>
   <trkpt lat="59.3260720813" lon="34.7059779834"><ele>161.965</ele><time>2026-08-17T02:26:53.647Z</time><hdop>3.0</hdop><vdop>2.5</vdop><extensions><gom:speed>0.078</gom:speed></extensions></trkpt>
   <trkpt lat="59.326071285" lon="34.7059835993"><ele>161.731</ele><time>2026-08-17T02:26:54.648Z</time><hdop>3.0</hdop><vdop>2.5</vdop><extensions><gom:speed>0.079</gom:speed></extensions></trkpt>
   <trkpt lat="59.32606986" lon="34.7059889637"><ele>161.56</ele><time>2026-08-17T02:26:55.648Z</time><hdop>3.0</hdop><vdop>2.812</vdop><extensions><gom:speed>0.078</gom:speed></extensions></trkpt>
   <trkpt lat="59.3260695667" lon="34.705988377"><ele>161.42</ele><time>2026-08-17T02:26:56.693Z</time><hdop>3.0</hdop><vdop>3.187</vdop><extensions><gom:speed>0.041</gom:speed></extensions></trkpt>
   <trkpt lat="59.3260619811" lon="34.705999944"><ele>162.145</ele><time>2026-08-17T02:26:57.648Z</time><hdop>3.0</hdop><vdop>3.25</vdop><extensions><gom:speed>0.219</gom:speed></extensions></trkpt>
   <trkpt lat="59.3260625678" lon="34.7059986867"><ele>162.579</ele><time>2026-08-17T02:26:58.311Z</time><hdop>3.0</hdop><vdop>3.25</vdop><extensions><gom:speed>0.159</gom:speed></extensions></trkpt>
   <trkpt lat="59.3260578739" lon="34.7060054761"><ele>162.987</ele><time>2026-08-17T02:26:59.171Z</time><hdop>3.0</hdop><vdop>3.562</vdop><extensions><gom:speed>0.177</gom:speed></extensions></trkpt>
   <trkpt lat="59.3260577901" lon="34.7060052246"><ele>163.172</ele><time>2026-08-17T02:26:59.692Z</time><hdop>3.0</hdop><vdop>3.625</vdop><extensions><gom:speed>0.099</gom:speed></extensions></trkpt>
   <trkpt lat="59.3260476899" lon="34.7060142771"><ele>163.285</ele><time>2026-08-17T02:27:00.648Z</time><hdop>3.0</hdop><vdop>3.125</vdop><extensions><gom:speed>0.134</gom:speed></extensions></trkpt>
   <trkpt lat="59.3260423674" lon="34.7060140256"><ele>163.349</ele><time>2026-08-17T02:27:01.648Z</time><hdop>3.0</hdop><vdop>3.375</vdop><extensions><gom:speed>0.33</gom:speed></extensions></trkpt>
   <trkpt lat="59.32604396" lon="34.7060112596"><ele>163.486</ele><time>2026-08-17T02:27:02.651Z</time><hdop>3.0</hdop><vdop>3.75</vdop><extensions><gom:speed>0.268</gom:speed></extensions></trkpt>
   <trkpt lat="59.3260317643" lon="34.7060268499"><ele>163.405</ele><time>2026-08-17T02:27:03.648Z</time><hdop>3.0</hdop><vdop>3.687</vdop><extensions><gom:speed>0.229</gom:speed></extensions></trkpt>
   <trkpt lat="59.3260313871" lon="34.7060271852"><ele>163.357</ele><time>2026-08-17T02:27:04.229Z</time><hdop>3.0</hdop><vdop>3.687</vdop><extensions><gom:speed>0.181</gom:speed></extensions></trkpt>
   <trkpt lat="59.3260209936" lon="34.7060334716"><ele>163.573</ele><time>2026-08-17T02:27:05.648Z</time><hdop>3.0</hdop><vdop>4.125</vdop><extensions><gom:speed>0.151</gom:speed></extensions></trkpt>
   <trkpt lat="59.3260166769" lon="34.7060287778"><ele>163.699</ele><time>2026-08-17T02:27:06.648Z</time><hdop>3.0</hdop><vdop>3.812</vdop><extensions><gom:speed>0.151</gom:speed></extensions></trkpt>
   <trkpt lat="59.3260167607" lon="34.7060276881"><ele>163.772</ele><time>2026-08-17T02:27:07.649Z</time><hdop>3.0</hdop><vdop>3.562</vdop><extensions><gom:speed>0.119</gom:speed></extensions></trkpt>
   <trkpt lat="59.3260066605" lon="34.7060197253"><ele>163.814</ele><time>2026-08-17T02:27:08.648Z</time><hdop>3.0</hdop><vdop>3.375</vdop><extensions><gom:speed>0.053</gom:speed></extensions></trkpt>
   <trkpt lat="59.3260027629" lon="34.7060178813"><ele>163.839</ele><time>2026-08-17T02:27:09.648Z</time><hdop>3.0</hdop><vdop>3.312</vdop><extensions><gom:speed>0.069</gom:speed></extensions></trkpt>
   <trkpt lat="59.3259991587" lon="34.7060183842"><ele>163.855</ele><time>2026-08-17T02:27:10.648Z</time><hdop>3.0</hdop><vdop>3.187</vdop><extensions><gom:speed>0.05</gom:speed></extensions></trkpt>
   <trkpt lat="59.3259950935" lon="34.7060167916"><ele>163.889</ele><time>2026-08-17T02:27:11.649Z</time><hdop>3.0</hdop><vdop>3.125</vdop><extensions><gom:speed>0.073</gom:speed></extensions></trkpt>
   <trkpt lat="59.3259915731" lon="34.7060162887"><ele>163.956</ele><time>2026-08-17T02:27:12.649Z</time><hdop>3.0</hdop><vdop>3.187</vdop><extensions><gom:speed>0.058</gom:speed></extensions></trkpt>
   <trkpt lat="59.3259911959" lon="34.7060167916"><ele>163.997</ele><time>2026-08-17T02:27:13.693Z</time><hdop>3.0</hdop><vdop>3.375</vdop><extensions><gom:speed>0.021</gom:speed></extensions></trkpt>
   <trkpt lat="59.3259849933" lon="34.7060146962"><ele>164.022</ele><time>2026-08-17T02:27:14.648Z</time><hdop>3.0</hdop><vdop>3.562</vdop><extensions><gom:speed>0.059</gom:speed></extensions></trkpt>
   <trkpt lat="59.3259811795" lon="34.7060131874"><ele>164.038</ele><time>2026-08-17T02:27:15.648Z</time><hdop>3.0</hdop><vdop>3.687</vdop><extensions><gom:speed>0.064</gom:speed></extensions></trkpt>
   <trkpt lat="59.3259791679" lon="34.7060099185"><ele>164.049</ele><time>2026-08-17T02:27:16.648Z</time><hdop>3.0</hdop><vdop>3.812</vdop><extensions><gom:speed>0.1</gom:speed></extensions></trkpt>
   <trkpt lat="59.3259765695" lon="34.7060081583"><ele>164.058</ele><time>2026-08-17T02:27:17.648Z</time><hdop>3.0</hdop><vdop>3.937</vdop><extensions><gom:speed>0.088</gom:speed></extensions></trkpt>
   <trkpt lat="59.3259768628" lon="34.7060083259"><ele>164.067</ele><time>2026-08-17T02:27:18.656Z</time><hdop>3.0</hdop><vdop>3.812</vdop><extensions><gom:speed>0.101</gom:speed></extensions></trkpt>
   <trkpt lat="59.3259734682" lon="34.7060029615"><ele>164.077</ele><time>2026-08-17T02:27:19.648Z</time><hdop>3.0</hdop><vdop>3.5</vdop><extensions><gom:speed>0.062</gom:speed></extensions></trkpt>
   <trkpt lat="59.3259725881" lon="34.7060044702"><ele>164.086</ele><time>2026-08-17T02:27:20.692Z</time><hdop>3.0</hdop><vdop>3.187</vdop><extensions><gom:speed>0.012</gom:speed></extensions></trkpt>
   <trkpt lat="59.3259710793" lon="34.7060000278"><ele>164.095</ele><time>2026-08-17T02:27:21.649Z</time><hdop>3.0</hdop><vdop>2.937</vdop><extensions><gom:speed>0.0</gom:speed></extensions></trkpt>
   <trkpt lat="59.3259706602" lon="34.705999022"><ele>164.101</ele><time>2026-08-17T02:27:22.648Z</time><hdop>3.0</hdop><vdop>2.812</vdop><extensions><gom:speed>0.016</gom:speed></extensions></trkpt>
   <trkpt lat="59.325970786" lon="34.7059988544"><ele>164.106</ele><time>2026-08-17T02:27:23.692Z</time><hdop>3.0</hdop><vdop>2.687</vdop><extensions><gom:speed>0.017</gom:speed></extensions></trkpt>
   <trkpt lat="59.3259701992" lon="34.7059968427"><ele>164.111</ele><time>2026-08-17T02:27:24.648Z</time><hdop>3.0</hdop><vdop>2.5</vdop><extensions><gom:speed>0.035</gom:speed></extensions></trkpt>
   <trkpt lat="59.3259704926" lon="34.7059963398"><ele>164.115</ele><time>2026-08-17T02:27:25.693Z</time><hdop>3.0</hdop><vdop>2.5</vdop><extensions><gom:speed>0.035</gom:speed></extensions></trkpt>
   <trkpt lat="59.3259700735" lon="34.7059945796"><ele>164.121</ele><time>2026-08-17T02:27:26.649Z</time><hdop>3.0</hdop><vdop>2.5</vdop><extensions><gom:speed>0.049</gom:speed></extensions></trkpt>
   <trkpt lat="59.3259699897" lon="34.7059935738"><ele>164.127</ele><time>2026-08-17T02:27:27.647Z</time><hdop>3.0</hdop><vdop>2.5</vdop><extensions><gom:speed>0.057</gom:speed></extensions></trkpt>
   <trkpt lat="59.3259700735" lon="34.7059925679"><ele>164.133</ele><time>2026-08-17T02:27:28.648Z</time><hdop>3.0</hdop><vdop>2.5</vdop><extensions><gom:speed>0.059</gom:speed></extensions></trkpt>
   <trkpt lat="59.3259700735" lon="34.7059915621"><ele>164.139</ele><time>2026-08-17T02:27:29.648Z</time><hdop>3.0</hdop><vdop>2.5</vdop><extensions><gom:speed>0.062</gom:speed></extensions></trkpt>
   <trkpt lat="59.3259700735" lon="34.7059906401"><ele>164.146</ele><time>2026-08-17T02:27:30.648Z</time><hdop>3.0</hdop><vdop>2.5</vdop><extensions><gom:speed>0.065</gom:speed></extensions></trkpt>
   <trkpt lat="59.3259700735" lon="34.7059897181"><ele>164.152</ele><time>2026-08-17T02:27:31.648Z</time><hdop>3.0</hdop><vdop>2.5</vdop><extensions><gom:speed>0.069</gom:speed></extensions></trkpt>
   <trkpt lat="59.3259700735" lon="34.7059889637"><ele>164.158</ele><time>2026-08-17T02:27:32.648Z</time><hdop>3.0</hdop><vdop>2.5</vdop><extensions><gom:speed>0.071</gom:speed></extensions></trkpt>
   <trkpt lat="59.3259700735" lon="34.7059881255"><ele>164.163</ele><time>2026-08-17T02:27:33.648Z</time><hdop>3.0</hdop><vdop>2.5</vdop><extensions><gom:speed>0.072</gom:speed></extensions></trkpt>
   <trkpt lat="59.3259703669" lon="34.705987455"><ele>164.167</ele><time>2026-08-17T02:27:34.662Z</time><hdop>3.0</hdop><vdop>2.5</vdop><extensions><gom:speed>0.072</gom:speed></extensions></trkpt>
   <trkpt lat="59.325970283" lon="34.7059867844"><ele>164.171</ele><time>2026-08-17T02:27:35.692Z</time><hdop>3.0</hdop><vdop>2.5</vdop><extensions><gom:speed>0.07</gom:speed></extensions></trkpt>
   <trkpt lat="59.3259698639" lon="34.705986533"><ele>164.177</ele><time>2026-08-17T02:27:36.648Z</time><hdop>3.0</hdop><vdop>2.5</vdop><extensions><gom:speed>0.075</gom:speed></extensions></trkpt>
   <trkpt lat="59.3259697801" lon="34.7059859462"><ele>164.182</ele><time>2026-08-17T02:27:37.648Z</time><hdop>3.0</hdop><vdop>2.5</vdop><extensions><gom:speed>0.075</gom:speed></extensions></trkpt>
   <trkpt lat="59.3259696963" lon="34.7059854433"><ele>164.187</ele><time>2026-08-17T02:27:38.648Z</time><hdop>3.0</hdop><vdop>2.5</vdop><extensions><gom:speed>0.074</gom:speed></extensions></trkpt>
   <trkpt lat="59.3259695706" lon="34.7059850242"><ele>164.19</ele><time>2026-08-17T02:27:39.648Z</time><hdop>3.0</hdop><vdop>2.5</vdop><extensions><gom:speed>0.074</gom:speed></extensions></trkpt>
   <trkpt lat="59.3259698639" lon="34.7059843537"><ele>164.191</ele><time>2026-08-17T02:27:40.651Z</time><hdop>3.0</hdop><vdop>2.5</vdop><extensions><gom:speed>0.074</gom:speed></extensions></trkpt>
   <trkpt lat="59.3259697801" lon="34.7059838508"><ele>164.192</ele><time>2026-08-17T02:27:41.693Z</time><hdop>3.0</hdop><vdop>2.5</vdop><extensions><gom:speed>0.074</gom:speed></extensions></trkpt>
   <trkpt lat="59.3259692772" lon="34.7059838508"><ele>164.193</ele><time>2026-08-17T02:27:42.647Z</time><hdop>3.0</hdop><vdop>2.5</vdop><extensions><gom:speed>0.071</gom:speed></extensions></trkpt>
   <trkpt lat="59.3259690677" lon="34.7059837669"><ele>164.087</ele><time>2026-08-17T02:27:43.648Z</time><hdop>3.0</hdop><vdop>2.5</vdop><extensions><gom:speed>0.233</gom:speed></extensions></trkpt>
   <trkpt lat="59.3259696963" lon="34.7059815876"><ele>164.02</ele><time>2026-08-17T02:27:44.692Z</time><hdop>3.0</hdop><vdop>2.5</vdop><extensions><gom:speed>0.234</gom:speed></extensions></trkpt>
   <trkpt lat="59.3259687743" lon="34.7059830964"><ele>163.99</ele><time>2026-08-17T02:27:45.648Z</time><hdop>3.0</hdop><vdop>2.5</vdop><extensions><gom:speed>0.082</gom:speed></extensions></trkpt>
   <trkpt lat="59.3259684809" lon="34.7059834317"><ele>163.973</ele><time>2026-08-17T02:27:46.648Z</time><hdop>3.0</hdop><vdop>2.5</vdop><extensions><gom:speed>0.072</gom:speed></extensions></trkpt>
   <trkpt lat="59.3259681876" lon="34.7059840184"><ele>163.964</ele><time>2026-08-17T02:27:47.648Z</time><hdop>3.0</hdop><vdop>2.5</vdop><extensions><gom:speed>0.066</gom:speed></extensions></trkpt>
   <trkpt lat="59.325967978" lon="34.7059839346"><ele>163.963</ele><time>2026-08-17T02:27:48.648Z</time><hdop>3.0</hdop><vdop>2.5</vdop><extensions><gom:speed>0.066</gom:speed></extensions></trkpt>
   <trkpt lat="59.3259677685" lon="34.7059844375"><ele>163.964</ele><time>2026-08-17T02:27:49.648Z</time><hdop>3.0</hdop><vdop>2.5</vdop><extensions><gom:speed>0.063</gom:speed></extensions></trkpt>
   <trkpt lat="59.3259675589" lon="34.7059849404"><ele>163.967</ele><time>2026-08-17T02:27:50.647Z</time><hdop>3.0</hdop><vdop>2.5</vdop><extensions><gom:speed>0.063</gom:speed></extensions></trkpt>
   <trkpt lat="59.3259674751" lon="34.7059853595"><ele>163.97</ele><time>2026-08-17T02:27:51.648Z</time><hdop>3.0</hdop><vdop>2.5</vdop><extensions><gom:speed>0.065</gom:speed></extensions></trkpt>
   <trkpt lat="59.3259671817" lon="34.7059851919"><ele>164.175</ele><time>2026-08-17T02:27:52.648Z</time><hdop>3.0</hdop><vdop>2.5</vdop><extensions><gom:speed>0.319</gom:speed></extensions></trkpt>
   <trkpt lat="59.3259677685" lon="34.7059829287"><ele>164.295</ele><time>2026-08-17T02:27:53.692Z</time><hdop>3.0</hdop><vdop>2.5</vdop><extensions><gom:speed>0.319</gom:speed></extensions></trkpt>
   <trkpt lat="59.3259673913" lon="34.7059831802"><ele>164.366</ele><time>2026-08-17T02:27:54.692Z</time><hdop>3.0</hdop><vdop>2.5</vdop><extensions><gom:speed>0.084</gom:speed></extensions></trkpt>
   <trkpt lat="59.3259664693" lon="34.7059840184"><ele>164.411</ele><time>2026-08-17T02:27:55.648Z</time><hdop>3.0</hdop><vdop>2.5</vdop><extensions><gom:speed>0.062</gom:speed></extensions></trkpt>
   <trkpt lat="59.3259660921" lon="34.7059840184"><ele>164.44</ele><time>2026-08-17T02:27:56.648Z</time><hdop>3.0</hdop><vdop>2.5</vdop><extensions><gom:speed>0.059</gom:speed></extensions></trkpt>
   <trkpt lat="59.3259657987" lon="34.7059839346"><ele>164.456</ele><time>2026-08-17T02:27:57.648Z</time><hdop>3.0</hdop><vdop>2.5</vdop><extensions><gom:speed>0.056</gom:speed></extensions></trkpt>
   <trkpt lat="59.3259653796" lon="34.7059840184"><ele>164.47</ele><time>2026-08-17T02:27:58.648Z</time><hdop>3.0</hdop><vdop>2.5</vdop><extensions><gom:speed>0.057</gom:speed></extensions></trkpt>
   <trkpt lat="59.3259650863" lon="34.7059842698"><ele>164.477</ele><time>2026-08-17T02:27:59.647Z</time><hdop>3.0</hdop><vdop>2.5</vdop><extensions><gom:speed>0.06</gom:speed></extensions></trkpt>
   <trkpt lat="59.3259646672" lon="34.7059844375"><ele>164.482</ele><time>2026-08-17T02:28:00.648Z</time><hdop>3.0</hdop><vdop>2.5</vdop><extensions><gom:speed>0.058</gom:speed></extensions></trkpt>
   <trkpt lat="59.3259645833" lon="34.705984186"><ele>164.484</ele><time>2026-08-17T02:28:01.692Z</time><hdop>3.0</hdop><vdop>2.5</vdop><extensions><gom:speed>0.058</gom:speed></extensions></trkpt>
   <trkpt lat="59.32596429" lon="34.7059843537"><ele>164.486</ele><time>2026-08-17T02:28:02.692Z</time><hdop>3.0</hdop><vdop>2.5</vdop><extensions><gom:speed>0.061</gom:speed></extensions></trkpt>
   <trkpt lat="59.3259635775" lon="34.7059849404"><ele>164.487</ele><time>2026-08-17T02:28:03.647Z</time><hdop>3.0</hdop><vdop>2.5</vdop><extensions><gom:speed>0.064</gom:speed></extensions></trkpt>
   <trkpt lat="59.3259635775" lon="34.7059848566"><ele>164.488</ele><time>2026-08-17T02:28:04.649Z</time><hdop>3.0</hdop><vdop>2.5</vdop><extensions><gom:speed>0.064</gom:speed></extensions></trkpt>
   <trkpt lat="59.3259631584" lon="34.7059849404"><ele>164.487</ele><time>2026-08-17T02:28:05.692Z</time><hdop>3.0</hdop><vdop>2.5</vdop><extensions><gom:speed>0.063</gom:speed></extensions></trkpt>
   <trkpt lat="59.3259623621" lon="34.7059854433"><ele>164.489</ele><time>2026-08-17T02:28:06.648Z</time><hdop>3.0</hdop><vdop>2.5</vdop><extensions><gom:speed>0.062</gom:speed></extensions></trkpt>
   <trkpt lat="59.325961985" lon="34.7059859462"><ele>164.491</ele><time>2026-08-17T02:28:07.648Z</time><hdop>3.0</hdop><vdop>2.5</vdop><extensions><gom:speed>0.063</gom:speed></extensions></trkpt>
   <trkpt lat="59.325961482" lon="34.70598603"><ele>164.492</ele><time>2026-08-17T02:28:08.648Z</time><hdop>3.0</hdop><vdop>2.5</vdop><extensions><gom:speed>0.067</gom:speed></extensions></trkpt>
   <trkpt lat="59.3259612725" lon="34.7059858624"><ele>164.493</ele><time>2026-08-17T02:28:09.667Z</time><hdop>3.0</hdop><vdop>2.5</vdop><extensions><gom:speed>0.067</gom:speed></extensions></trkpt>
   <trkpt lat="59.3259604762" lon="34.7059861977"><ele>164.495</ele><time>2026-08-17T02:28:10.647Z</time><hdop>3.0</hdop><vdop>2.5</vdop><extensions><gom:speed>0.072</gom:speed></extensions></trkpt>
   <trkpt lat="59.3259599733" lon="34.7059861977"><ele>164.496</ele><time>2026-08-17T02:28:11.648Z</time><hdop>3.0</hdop><vdop>2.5</vdop><extensions><gom:speed>0.074</gom:speed></extensions></trkpt>
   <trkpt lat="59.3259594704" lon="34.7059863653"><ele>164.496</ele><time>2026-08-17T02:28:12.648Z</time><hdop>3.0</hdop><vdop>2.5</vdop><extensions><gom:speed>0.073</gom:speed></extensions></trkpt>
   <trkpt lat="59.3259588836" lon="34.7059866168"><ele>164.495</ele><time>2026-08-17T02:28:13.648Z</time><hdop>3.0</hdop><vdop>2.5</vdop><extensions><gom:speed>0.071</gom:speed></extensions></trkpt>
   <trkpt lat="59.3259584646" lon="34.7059868682"><ele>164.493</ele><time>2026-08-17T02:28:14.648Z</time><hdop>3.0</hdop><vdop>2.5</vdop><extensions><gom:speed>0.07</gom:speed></extensions></trkpt>
   <trkpt lat="59.3259579616" lon="34.7059870359"><ele>164.492</ele><time>2026-08-17T02:28:15.648Z</time><hdop>3.0</hdop><vdop>2.5</vdop><extensions><gom:speed>0.072</gom:speed></extensions></trkpt>
   <trkpt lat="59.3259575845" lon="34.7059872873"><ele>164.49</ele><time>2026-08-17T02:28:16.648Z</time><hdop>3.0</hdop><vdop>2.5</vdop><extensions><gom:speed>0.072</gom:speed></extensions></trkpt>
   <trkpt lat="59.3259571654" lon="34.7059875388"><ele>164.488</ele><time>2026-08-17T02:28:17.648Z</time><hdop>3.0</hdop><vdop>2.5</vdop><extensions><gom:speed>0.073</gom:speed></extensions></trkpt>
   <trkpt lat="59.3259567882" lon="34.7059877902"><ele>164.484</ele><time>2026-08-17T02:28:18.648Z</time><hdop>3.0</hdop><vdop>2.5</vdop><extensions><gom:speed>0.071</gom:speed></extensions></trkpt>
   <trkpt lat="59.3259562853" lon="34.7059878741"><ele>164.48</ele><time>2026-08-17T02:28:19.647Z</time><hdop>3.0</hdop><vdop>2.5</vdop><extensions><gom:speed>0.072</gom:speed></extensions></trkpt>
   <trkpt lat="59.3259559919" lon="34.7059879579"><ele>164.474</ele><time>2026-08-17T02:28:20.654Z</time><hdop>3.0</hdop><vdop>2.5</vdop><extensions><gom:speed>0.072</gom:speed></extensions></trkpt>
   <trkpt lat="59.3259556985" lon="34.7059884608"><ele>164.469</ele><time>2026-08-17T02:28:21.649Z</time><hdop>3.0</hdop><vdop>2.5</vdop><extensions><gom:speed>0.071</gom:speed></extensions></trkpt>
   <trkpt lat="59.325955489" lon="34.7059885446"><ele>164.463</ele><time>2026-08-17T02:28:22.647Z</time><hdop>3.0</hdop><vdop>2.5</vdop><extensions><gom:speed>0.072</gom:speed></extensions></trkpt>
   <trkpt lat="59.3259551956" lon="34.7059887961"><ele>164.457</ele><time>2026-08-17T02:28:23.648Z</time><hdop>3.0</hdop><vdop>2.5</vdop><extensions><gom:speed>0.071</gom:speed></extensions></trkpt>
   <trkpt lat="59.3259548603" lon="34.7059889637"><ele>164.451</ele><time>2026-08-17T02:28:24.648Z</time><hdop>3.0</hdop><vdop>2.5</vdop><extensions><gom:speed>0.07</gom:speed></extensions></trkpt>
   <trkpt lat="59.3259544831" lon="34.705989299"><ele>164.443</ele><time>2026-08-17T02:28:25.648Z</time><hdop>3.0</hdop><vdop>2.5</vdop><extensions><gom:speed>0.068</gom:speed></extensions></trkpt>
   <trkpt lat="59.3259542736" lon="34.705989299"><ele>164.438</ele><time>2026-08-17T02:28:26.648Z</time><hdop>3.0</hdop><vdop>2.5</vdop><extensions><gom:speed>0.069</gom:speed></extensions></trkpt>
   <trkpt lat="59.3259538964" lon="34.7059894666"><ele>164.432</ele><time>2026-08-17T02:28:27.692Z</time><hdop>3.0</hdop><vdop>2.5</vdop><extensions><gom:speed>0.069</gom:speed></extensions></trkpt>
   <trkpt lat="59.3259536869" lon="34.7059894666"><ele>164.429</ele><time>2026-08-17T02:28:28.692Z</time><hdop>3.0</hdop><vdop>2.5</vdop><extensions><gom:speed>0.067</gom:speed></extensions></trkpt>
   <trkpt lat="59.3259534773" lon="34.7059894666"><ele>164.425</ele><time>2026-08-17T02:28:29.658Z</time><hdop>3.0</hdop><vdop>2.5</vdop><extensions><gom:speed>0.069</gom:speed></extensions></trkpt>
   <trkpt lat="59.3259532678" lon="34.7059895504"><ele>164.423</ele><time>2026-08-17T02:28:30.650Z</time><hdop>3.0</hdop><vdop>2.5</vdop><extensions><gom:speed>0.068</gom:speed></extensions></trkpt>
   <trkpt lat="59.3259532678" lon="34.7059893828"><ele>164.42</ele><time>2026-08-17T02:28:31.648Z</time><hdop>3.0</hdop><vdop>2.5</vdop><extensions><gom:speed>0.067</gom:speed></extensions></trkpt>
   <trkpt lat="59.3259530582" lon="34.7059893828"><ele>164.417</ele><time>2026-08-17T02:28:32.692Z</time><hdop>3.0</hdop><vdop>2.5</vdop><extensions><gom:speed>0.067</gom:speed></extensions></trkpt>
   <trkpt lat="59.3259529744" lon="34.7059893828"><ele>164.413</ele><time>2026-08-17T02:28:33.649Z</time><hdop>3.0</hdop><vdop>2.5</vdop><extensions><gom:speed>0.068</gom:speed></extensions></trkpt>
   <trkpt lat="59.3259528906" lon="34.7059893828"><ele>164.409</ele><time>2026-08-17T02:28:34.649Z</time><hdop>3.0</hdop><vdop>2.5</vdop><extensions><gom:speed>0.068</gom:speed></extensions></trkpt>
   <trkpt lat="59.325952681" lon="34.7059893828"><ele>164.405</ele><time>2026-08-17T02:28:35.647Z</time><hdop>3.0</hdop><vdop>2.5</vdop><extensions><gom:speed>0.07</gom:speed></extensions></trkpt>
   <trkpt lat="59.3259524715" lon="34.7059893828"><ele>164.402</ele><time>2026-08-17T02:28:36.692Z</time><hdop>3.0</hdop><vdop>2.5</vdop><extensions><gom:speed>0.07</gom:speed></extensions></trkpt>
   <trkpt lat="59.3259524715" lon="34.7059893828"><ele>164.406</ele><time>2026-08-17T02:28:37.648Z</time><hdop>3.0</hdop><vdop>2.5</vdop><extensions><gom:speed>0.068</gom:speed></extensions></trkpt>
   <trkpt lat="59.3259522619" lon="34.7059899695"><ele>164.414</ele><time>2026-08-17T02:28:38.647Z</time><hdop>3.0</hdop><vdop>2.5</vdop><extensions><gom:speed>0.07</gom:speed></extensions></trkpt>
   <trkpt lat="59.3259519686" lon="34.7059900534"><ele>164.423</ele><time>2026-08-17T02:28:39.654Z</time><hdop>3.0</hdop><vdop>2.5</vdop><extensions><gom:speed>0.07</gom:speed></extensions></trkpt>
   <trkpt lat="59.3259518848" lon="34.7059901372"><ele>164.433</ele><time>2026-08-17T02:28:40.693Z</time><hdop>3.0</hdop><vdop>2.5</vdop><extensions><gom:speed>0.07</gom:speed></extensions></trkpt>
   <trkpt lat="59.3259518848" lon="34.7059901372"><ele>164.439</ele><time>2026-08-17T02:28:41.657Z</time><hdop>3.0</hdop><vdop>2.5</vdop><extensions><gom:speed>0.072</gom:speed></extensions></trkpt>
   <trkpt lat="59.3259520943" lon="34.7059899695"><ele>164.441</ele><time>2026-08-17T02:28:42.648Z</time><hdop>3.0</hdop><vdop>2.5</vdop><extensions><gom:speed>0.071</gom:speed></extensions></trkpt>
   <trkpt lat="59.3259519686" lon="34.7059899695"><ele>164.443</ele><time>2026-08-17T02:28:43.649Z</time><hdop>3.0</hdop><vdop>2.5</vdop><extensions><gom:speed>0.071</gom:speed></extensions></trkpt>
   <trkpt lat="59.3259519686" lon="34.7059899695"><ele>164.443</ele><time>2026-08-17T02:28:44.647Z</time><hdop>3.0</hdop><vdop>2.5</vdop><extensions><gom:speed>0.07</gom:speed></extensions></trkpt>
   <trkpt lat="59.3259519686" lon="34.7059898857"><ele>164.466</ele><time>2026-08-17T02:28:45.648Z</time><hdop>3.0</hdop><vdop>2.5</vdop><extensions><gom:speed>0.069</gom:speed></extensions></trkpt>
   <trkpt lat="59.3259519686" lon="34.7059898857"><ele>164.48</ele><time>2026-08-17T02:28:46.649Z</time><hdop>3.0</hdop><vdop>2.5</vdop><extensions><gom:speed>0.069</gom:speed></extensions></trkpt>
   <trkpt lat="59.3259519686" lon="34.7059897181"><ele>164.488</ele><time>2026-08-17T02:28:47.648Z</time><hdop>3.0</hdop><vdop>2.5</vdop><extensions><gom:speed>0.072</gom:speed></extensions></trkpt>
   <trkpt lat="59.3259519686" lon="34.7059898857"><ele>164.493</ele><time>2026-08-17T02:28:48.647Z</time><hdop>3.0</hdop><vdop>2.5</vdop><extensions><gom:speed>0.07</gom:speed></extensions></trkpt>
   <trkpt lat="59.325951759" lon="34.7059901372"><ele>164.496</ele><time>2026-08-17T02:28:49.650Z</time><hdop>3.0</hdop><vdop>2.5</vdop><extensions><gom:speed>0.071</gom:speed></extensions></trkpt>
   <trkpt lat="59.3259518848" lon="34.7059900534"><ele>164.501</ele><time>2026-08-17T02:28:50.648Z</time><hdop>3.0</hdop><vdop>2.5</vdop><extensions><gom:speed>0.07</gom:speed></extensions></trkpt>
   <trkpt lat="59.325951759" lon="34.705990221"><ele>164.504</ele><time>2026-08-17T02:28:51.370Z</time><hdop>3.0</hdop><vdop>2.5</vdop><extensions><gom:speed>0.07</gom:speed></extensions></trkpt>
   <trkpt lat="59.3259520943" lon="34.7059903886"><ele>164.509</ele><time>2026-08-17T02:28:52.647Z</time><hdop>3.0</hdop><vdop>2.5</vdop><extensions><gom:speed>0.07</gom:speed></extensions></trkpt>
   <trkpt lat="59.3259520943" lon="34.7059904725"><ele>164.513</ele><time>2026-08-17T02:28:53.649Z</time><hdop>3.0</hdop><vdop>2.5</vdop><extensions><gom:speed>0.069</gom:speed></extensions></trkpt>
   <trkpt lat="59.3259519686" lon="34.7059905563"><ele>164.518</ele><time>2026-08-17T02:28:54.648Z</time><hdop>3.0</hdop><vdop>2.5</vdop><extensions><gom:speed>0.071</gom:speed></extensions></trkpt>
   <trkpt lat="59.3259519686" lon="34.7059906401"><ele>164.52</ele><time>2026-08-17T02:28:55.648Z</time><hdop>3.0</hdop><vdop>2.5</vdop><extensions><gom:speed>0.07</gom:speed></extensions></trkpt>
   <trkpt lat="59.3259519686" lon="34.7059907239"><ele>164.52</ele><time>2026-08-17T02:28:56.648Z</time><hdop>3.0</hdop><vdop>2.5</vdop><extensions><gom:speed>0.069</gom:speed></extensions></trkpt>
   <trkpt lat="59.3259518848" lon="34.7059906401"><ele>164.519</ele><time>2026-08-17T02:28:57.648Z</time><hdop>3.0</hdop><vdop>2.5</vdop><extensions><gom:speed>0.069</gom:speed></extensions></trkpt>
   <trkpt lat="59.3259518848" lon="34.7059908916"><ele>164.518</ele><time>2026-08-17T02:28:58.654Z</time><hdop>3.0</hdop><vdop>2.5</vdop><extensions><gom:speed>0.07</gom:speed></extensions></trkpt>
   <trkpt lat="59.3259516752" lon="34.7059903886"><ele>164.519</ele><time>2026-08-17T02:28:59.649Z</time><hdop>3.0</hdop><vdop>2.5</vdop><extensions><gom:speed>0.071</gom:speed></extensions></trkpt>
   <trkpt lat="59.3259516752" lon="34.705990221"><ele>164.52</ele><time>2026-08-17T02:29:00.648Z</time><hdop>3.0</hdop><vdop>2.5</vdop><extensions><gom:speed>0.068</gom:speed></extensions></trkpt>
   <trkpt lat="59.3259516752" lon="34.7059901372"><ele>164.523</ele><time>2026-08-17T02:29:01.648Z</time><hdop>3.0</hdop><vdop>2.5</vdop><extensions><gom:speed>0.068</gom:speed></extensions></trkpt>
   <trkpt lat="59.3259515914" lon="34.705990221"><ele>164.524</ele><time>2026-08-17T02:29:02.499Z</time><hdop>3.0</hdop><vdop>2.5</vdop><extensions><gom:speed>0.068</gom:speed></extensions></trkpt>
   <trkpt lat="59.3259516752" lon="34.7059900534"><ele>164.525</ele><time>2026-08-17T02:29:03.648Z</time><hdop>3.0</hdop><vdop>3.125</vdop><extensions><gom:speed>0.067</gom:speed></extensions></trkpt>
   <trkpt lat="59.3259516752" lon="34.7059899695"><ele>164.53</ele><time>2026-08-17T02:29:04.648Z</time><hdop>3.0</hdop><vdop>3.062</vdop><extensions><gom:speed>0.067</gom:speed></extensions></trkpt>
   <trkpt lat="59.3259515914" lon="34.7059899695"><ele>164.536</ele><time>2026-08-17T02:29:05.649Z</time><hdop>3.0</hdop><vdop>3.437</vdop><extensions><gom:speed>0.068</gom:speed></extensions></trkpt>
   <trkpt lat="59.3259516752" lon="34.7059899695"><ele>164.539</ele><time>2026-08-17T02:29:06.648Z</time><hdop>3.0</hdop><vdop>3.5</vdop><extensions><gom:speed>0.07</gom:speed></extensions></trkpt>
   <trkpt lat="59.3259515914" lon="34.7059900534"><ele>164.619</ele><time>2026-08-17T02:29:07.658Z</time><hdop>3.0</hdop><vdop>3.375</vdop><extensions><gom:speed>0.071</gom:speed></extensions></trkpt>
   <trkpt lat="59.3259516752" lon="34.7059910592"><ele>164.659</ele><time>2026-08-17T02:29:08.648Z</time><hdop>3.0</hdop><vdop>3.75</vdop><extensions><gom:speed>0.094</gom:speed></extensions></trkpt>
   <trkpt lat="59.3259516752" lon="34.705991143"><ele>164.683</ele><time>2026-08-17T02:29:09.648Z</time><hdop>3.0</hdop><vdop>3.5</vdop><extensions><gom:speed>0.084</gom:speed></extensions></trkpt>
   <trkpt lat="59.3259518848" lon="34.7059913945"><ele>164.699</ele><time>2026-08-17T02:29:10.649Z</time><hdop>3.0</hdop><vdop>3.437</vdop><extensions><gom:speed>0.079</gom:speed></extensions></trkpt>
   <trkpt lat="59.3259519686" lon="34.7059915621"><ele>164.736</ele><time>2026-08-17T02:29:11.648Z</time><hdop>3.0</hdop><vdop>3.375</vdop><extensions><gom:speed>0.073</gom:speed></extensions></trkpt>
   <trkpt lat="59.3259520943" lon="34.7059917297"><ele>164.758</ele><time>2026-08-17T02:29:12.647Z</time><hdop>3.0</hdop><vdop>3.375</vdop><extensions><gom:speed>0.07</gom:speed></extensions></trkpt>
   <trkpt lat="59.3259519686" lon="34.7059919812"><ele>164.801</ele><time>2026-08-17T02:29:13.649Z</time><hdop>3.0</hdop><vdop>3.062</vdop><extensions><gom:speed>0.066</gom:speed></extensions></trkpt>
   <trkpt lat="59.3259515914" lon="34.7059928194"><ele>165.345</ele><time>2026-08-17T02:29:14.648Z</time><hdop>3.0</hdop><vdop>2.875</vdop><extensions><gom:speed>0.5</gom:speed></extensions></trkpt>
   <trkpt lat="59.325951298" lon="34.7059946634"><ele>165.514</ele><time>2026-08-17T02:29:15.651Z</time><hdop>3.0</hdop><vdop>3.062</vdop><extensions><gom:speed>0.5</gom:speed></extensions></trkpt>
   <trkpt lat="59.3259493702" lon="34.7059976809"><ele>165.604</ele><time>2026-08-17T02:29:16.662Z</time><hdop>3.0</hdop><vdop>3.125</vdop><extensions><gom:speed>0.376</gom:speed></extensions></trkpt>
   <trkpt lat="59.3259449697" lon="34.7060007822"><ele>165.658</ele><time>2026-08-17T02:29:17.593Z</time><hdop>3.062</hdop><vdop>3.125</vdop><extensions><gom:speed>0.595</gom:speed></extensions></trkpt>
   <trkpt lat="59.32593927" lon="34.7060031291"><ele>165.607</ele><time>2026-08-17T02:29:18.392Z</time><hdop>3.187</hdop><vdop>3.375</vdop><extensions><gom:speed>0.63</gom:speed></extensions></trkpt>
   <trkpt lat="59.3259314748" lon="34.7060070686"><ele>166.014</ele><time>2026-08-17T02:29:19.505Z</time><hdop>3.375</hdop><vdop>3.062</vdop><extensions><gom:speed>0.529</gom:speed></extensions></trkpt>
   <trkpt lat="59.3259222966" lon="34.7060106728"><ele>166.236</ele><time>2026-08-17T02:29:20.568Z</time><hdop>3.312</hdop><vdop>3.25</vdop><extensions><gom:speed>0.352</gom:speed></extensions></trkpt>
   <trkpt lat="59.3259146691" lon="34.7060114272"><ele>166.569</ele><time>2026-08-17T02:29:21.468Z</time><hdop>3.312</hdop><vdop>3.0</vdop><extensions><gom:speed>0.34</gom:speed></extensions></trkpt>
   <trkpt lat="59.3259073769" lon="34.7060132712"><ele>166.876</ele><time>2026-08-17T02:29:22.207Z</time><hdop>3.312</hdop><vdop>2.75</vdop><extensions><gom:speed>0.381</gom:speed></extensions></trkpt>
   <trkpt lat="59.3258991626" lon="34.7060179651"><ele>167.229</ele><time>2026-08-17T02:29:23.168Z</time><hdop>3.25</hdop><vdop>2.625</vdop><extensions><gom:speed>0.387</gom:speed></extensions></trkpt>
   <trkpt lat="59.3258914931" lon="34.7060207311"><ele>167.475</ele><time>2026-08-17T02:29:23.649Z</time><hdop>3.125</hdop><vdop>2.625</vdop><extensions><gom:speed>0.438</gom:speed></extensions></trkpt>
   <trkpt lat="59.3258863802" lon="34.7060204797"><ele>167.622</ele><time>2026-08-17T02:29:24.655Z</time><hdop>3.0</hdop><vdop>2.5</vdop><extensions><gom:speed>0.49</gom:speed></extensions></trkpt>
   <trkpt lat="59.3258787946" lon="34.7060229942"><ele>167.71</ele><time>2026-08-17T02:29:25.464Z</time><hdop>3.0</hdop><vdop>2.5</vdop><extensions><gom:speed>0.429</gom:speed></extensions></trkpt>
   <trkpt lat="59.325863288" lon="34.7060247544"><ele>167.971</ele><time>2026-08-17T02:29:26.648Z</time><hdop>3.0</hdop><vdop>2.5</vdop><extensions><gom:speed>0.464</gom:speed></extensions></trkpt>
   <trkpt lat="59.3258616955" lon="34.7060262632"><ele>168.126</ele><time>2026-08-17T02:29:27.225Z</time><hdop>3.0</hdop><vdop>2.5</vdop><extensions><gom:speed>0.427</gom:speed></extensions></trkpt>
   <trkpt lat="59.3258539841" lon="34.7060251735"><ele>167.969</ele><time>2026-08-17T02:29:28.287Z</time><hdop>3.0</hdop><vdop>2.5</vdop><extensions><gom:speed>0.382</gom:speed></extensions></trkpt>
   <trkpt lat="59.3258474882" lon="34.7060223237"><ele>167.91</ele><time>2026-08-17T02:29:29.410Z</time><hdop>3.0</hdop><vdop>2.5</vdop><extensions><gom:speed>0.353</gom:speed></extensions></trkpt>
   <trkpt lat="59.3258450993" lon="34.7060247544"><ele>167.519</ele><time>2026-08-17T02:29:30.648Z</time><hdop>3.0</hdop><vdop>2.625</vdop><extensions><gom:speed>0.186</gom:speed></extensions></trkpt>
   <trkpt lat="59.3258430877" lon="34.706026347"><ele>167.293</ele><time>2026-08-17T02:29:31.647Z</time><hdop>3.0</hdop><vdop>2.687</vdop><extensions><gom:speed>0.216</gom:speed></extensions></trkpt>
   <trkpt lat="59.3258416627" lon="34.7060273528"><ele>167.156</ele><time>2026-08-17T02:29:32.648Z</time><hdop>3.0</hdop><vdop>2.75</vdop><extensions><gom:speed>0.197</gom:speed></extensions></trkpt>
   <trkpt lat="59.3258409922" lon="34.7060278557"><ele>167.074</ele><time>2026-08-17T02:29:33.346Z</time><hdop>3.0</hdop><vdop>2.75</vdop><extensions><gom:speed>0.195</gom:speed></extensions></trkpt>
   <trkpt lat="59.3258391901" lon="34.7060297836"><ele>166.976</ele><time>2026-08-17T02:29:33.872Z</time><hdop>3.0</hdop><vdop>2.812</vdop><extensions><gom:speed>0.222</gom:speed></extensions></trkpt>
   <trkpt lat="59.3258374718" lon="34.7060302865"><ele>166.917</ele><time>2026-08-17T02:29:34.651Z</time><hdop>3.0</hdop><vdop>2.812</vdop><extensions><gom:speed>0.248</gom:speed></extensions></trkpt>
   <trkpt lat="59.3258340771" lon="34.7060322982"><ele>166.87</ele><time>2026-08-17T02:29:35.430Z</time><hdop>3.0</hdop><vdop>2.875</vdop><extensions><gom:speed>0.326</gom:speed></extensions></trkpt>
   <trkpt lat="59.3258318978" lon="34.7060332202"><ele>166.801</ele><time>2026-08-17T02:29:36.290Z</time><hdop>3.0</hdop><vdop>2.687</vdop><extensions><gom:speed>0.318</gom:speed></extensions></trkpt>
   <trkpt lat="59.3258340771" lon="34.7060377464"><ele>166.766</ele><time>2026-08-17T02:29:37.648Z</time><hdop>3.0</hdop><vdop>2.5</vdop><extensions><gom:speed>0.197</gom:speed></extensions></trkpt>
   <trkpt lat="59.32583458" lon="34.7060399257"><ele>166.745</ele><time>2026-08-17T02:29:38.648Z</time><hdop>3.0</hdop><vdop>2.5</vdop><extensions><gom:speed>0.151</gom:speed></extensions></trkpt>
   <trkpt lat="59.3258339933" lon="34.7060401771"><ele>166.733</ele><time>2026-08-17T02:29:39.406Z</time><hdop>3.0</hdop><vdop>2.5</vdop><extensions><gom:speed>0.156</gom:speed></extensions></trkpt>
   <trkpt lat="59.3258342867" lon="34.7060418535"><ele>166.641</ele><time>2026-08-17T02:29:40.144Z</time><hdop>3.0</hdop><vdop>2.5</vdop><extensions><gom:speed>0.137</gom:speed></extensions></trkpt>
   <trkpt lat="59.3258347896" lon="34.7060438652"><ele>166.613</ele><time>2026-08-17T02:29:40.648Z</time><hdop>3.0</hdop><vdop>2.5</vdop><extensions><gom:speed>0.162</gom:speed></extensions></trkpt>
   <trkpt lat="59.3258339933" lon="34.7060444519"><ele>166.863</ele><time>2026-08-17T02:29:41.652Z</time><hdop>3.0</hdop><vdop>2.5</vdop><extensions><gom:speed>0.18</gom:speed></extensions></trkpt>
   <trkpt lat="59.3258356697" lon="34.7060482238"><ele>167.013</ele><time>2026-08-17T02:29:42.158Z</time><hdop>3.0</hdop><vdop>2.5</vdop><extensions><gom:speed>0.212</gom:speed></extensions></trkpt>
   <trkpt lat="59.3258374718" lon="34.7060559351"><ele>167.263</ele><time>2026-08-17T02:29:42.647Z</time><hdop>3.0</hdop><vdop>2.5</vdop><extensions><gom:speed>0.26</gom:speed></extensions></trkpt>
   <trkpt lat="59.3258388967" lon="34.7060617186"><ele>167.42</ele><time>2026-08-17T02:29:43.648Z</time><hdop>3.0</hdop><vdop>2.5</vdop><extensions><gom:speed>0.23</gom:speed></extensions></trkpt>
   <trkpt lat="59.3258409922" lon="34.706062473"><ele>167.67</ele><time>2026-08-17T02:29:44.648Z</time><hdop>3.0</hdop><vdop>2.5</vdop><extensions><gom:speed>0.155</gom:speed></extensions></trkpt>
   <trkpt lat="59.3258421656" lon="34.7060649876"><ele>167.82</ele><time>2026-08-17T02:29:45.648Z</time><hdop>3.0</hdop><vdop>2.5</vdop><extensions><gom:speed>0.132</gom:speed></extensions></trkpt>
   <trkpt lat="59.3258427943" lon="34.7060680889"><ele>167.914</ele><time>2026-08-17T02:29:46.648Z</time><hdop>3.0</hdop><vdop>2.5</vdop><extensions><gom:speed>0.121</gom:speed></extensions></trkpt>
   <trkpt lat="59.3258425847" lon="34.7060707711"><ele>168.019</ele><time>2026-08-17T02:29:47.648Z</time><hdop>3.0</hdop><vdop>2.5</vdop><extensions><gom:speed>0.113</gom:speed></extensions></trkpt>
   <trkpt lat="59.3258432972" lon="34.7060705196"><ele>167.984</ele><time>2026-08-17T02:29:48.648Z</time><hdop>3.0</hdop><vdop>2.5</vdop><extensions><gom:speed>0.121</gom:speed></extensions></trkpt>
   <trkpt lat="59.3258439678" lon="34.7060691785"><ele>167.961</ele><time>2026-08-17T02:29:49.648Z</time><hdop>3.0</hdop><vdop>2.5</vdop><extensions><gom:speed>0.118</gom:speed></extensions></trkpt>
   <trkpt lat="59.3258443869" lon="34.7060681727"><ele>167.925</ele><time>2026-08-17T02:29:50.656Z</time><hdop>3.0</hdop><vdop>2.5</vdop><extensions><gom:speed>0.155</gom:speed></extensions></trkpt>
   <trkpt lat="59.3258469852" lon="34.7060619701"><ele>167.904</ele><time>2026-08-17T02:29:51.668Z</time><hdop>3.0</hdop><vdop>2.5</vdop><extensions><gom:speed>0.225</gom:speed></extensions></trkpt>
   <trkpt lat="59.3258502961" lon="34.7060512413"><ele>167.73</ele><time>2026-08-17T02:29:52.549Z</time><hdop>3.0</hdop><vdop>2.5</vdop><extensions><gom:speed>0.353</gom:speed></extensions></trkpt>
   <trkpt lat="59.3258515953" lon="34.7060350642"><ele>167.672</ele><time>2026-08-17T02:29:53.347Z</time><hdop>3.0</hdop><vdop>2.5</vdop><extensions><gom:speed>0.535</gom:speed></extensions></trkpt>
   <trkpt lat="59.3258531878" lon="34.7060178813"><ele>167.64</ele><time>2026-08-17T02:29:54.066Z</time><hdop>3.0</hdop><vdop>2.5</vdop><extensions><gom:speed>0.679</gom:speed></extensions></trkpt>
   <trkpt lat="59.3258543613" lon="34.7060062304"><ele>167.48</ele><time>2026-08-17T02:29:54.648Z</time><hdop>3.0</hdop><vdop>2.5</vdop><extensions><gom:speed>0.641</gom:speed></extensions></trkpt>
   <trkpt lat="59.3258538584" lon="34.7059934899"><ele>167.384</ele><time>2026-08-17T02:29:55.644Z</time><hdop>3.0</hdop><vdop>2.5</vdop><extensions><gom:speed>0.665</gom:speed></extensions></trkpt>
   <trkpt lat="59.3258543613" lon="34.7059693501"><ele>167.464</ele><time>2026-08-17T02:29:56.648Z</time><hdop>3.0</hdop><vdop>2.5</vdop><extensions><gom:speed>0.734</gom:speed></extensions></trkpt>
   <trkpt lat="59.3258532717" lon="34.7059611358"><ele>167.939</ele><time>2026-08-17T02:29:57.692Z</time><hdop>3.0</hdop><vdop>2.5</vdop><extensions><gom:speed>0.494</gom:speed></extensions></trkpt>
   <trkpt lat="59.3258460632" lon="34.7059444558"><ele>168.338</ele><time>2026-08-17T02:29:58.648Z</time><hdop>3.0</hdop><vdop>2.5</vdop><extensions><gom:speed>0.598</gom:speed></extensions></trkpt>
   <trkpt lat="59.3258449736" lon="34.7059416898"><ele>168.802</ele><time>2026-08-17T02:29:59.692Z</time><hdop>3.0</hdop><vdop>2.562</vdop><extensions><gom:speed>0.349</gom:speed></extensions></trkpt>
   <trkpt lat="59.3258379747" lon="34.7059323859"><ele>169.079</ele><time>2026-08-17T02:30:00.612Z</time><hdop>3.0</hdop><vdop>2.562</vdop><extensions><gom:speed>0.421</gom:speed></extensions></trkpt>
   <trkpt lat="59.3258309758" lon="34.7059298713"><ele>169.205</ele><time>2026-08-17T02:30:01.411Z</time><hdop>3.0</hdop><vdop>2.687</vdop><extensions><gom:speed>0.361</gom:speed></extensions></trkpt>
   <trkpt lat="59.3258237674" lon="34.7059284464"><ele>169.343</ele><time>2026-08-17T02:30:02.210Z</time><hdop>3.0</hdop><vdop>2.937</vdop><extensions><gom:speed>0.377</gom:speed></extensions></trkpt>
   <trkpt lat="59.325816978" lon="34.7059292846"><ele>169.636</ele><time>2026-08-17T02:30:03.151Z</time><hdop>3.0</hdop><vdop>2.875</vdop><extensions><gom:speed>0.384</gom:speed></extensions></trkpt>
   <trkpt lat="59.3258164751" lon="34.7059275244"><ele>169.73</ele><time>2026-08-17T02:30:03.692Z</time><hdop>3.0</hdop><vdop>2.937</vdop><extensions><gom:speed>0.323</gom:speed></extensions></trkpt>
   <trkpt lat="59.3258078837" lon="34.7059290331"><ele>169.786</ele><time>2026-08-17T02:30:04.689Z</time><hdop>3.0</hdop><vdop>2.937</vdop><extensions><gom:speed>0.391</gom:speed></extensions></trkpt>
   <trkpt lat="59.3258003819" lon="34.7059341461"><ele>169.69</ele><time>2026-08-17T02:30:05.610Z</time><hdop>3.0</hdop><vdop>3.0</vdop><extensions><gom:speed>0.378</gom:speed></extensions></trkpt>
   <trkpt lat="59.3257913713" lon="34.7059372474"><ele>170.34</ele><time>2026-08-17T02:30:06.571Z</time><hdop>3.0</hdop><vdop>2.75</vdop><extensions><gom:speed>0.407</gom:speed></extensions></trkpt>
   <trkpt lat="59.3257869708" lon="34.705942528"><ele>170.853</ele><time>2026-08-17T02:30:07.250Z</time><hdop>3.0</hdop><vdop>2.687</vdop><extensions><gom:speed>0.323</gom:speed></extensions></trkpt>
   <trkpt lat="59.3257735598" lon="34.7059445396"><ele>171.216</ele><time>2026-08-17T02:30:08.645Z</time><hdop>3.0</hdop><vdop>2.562</vdop><extensions><gom:speed>0.455</gom:speed></extensions></trkpt>
   <trkpt lat="59.3257752781" lon="34.7059509937"><ele>171.587</ele><time>2026-08-17T02:30:09.692Z</time><hdop>3.0</hdop><vdop>2.5</vdop><extensions><gom:speed>0.073</gom:speed></extensions></trkpt>
   <trkpt lat="59.3257623699" lon="34.7059564419"><ele>171.808</ele><time>2026-08-17T02:30:10.526Z</time><hdop>3.0</hdop><vdop>2.5</vdop><extensions><gom:speed>0.271</gom:speed></extensions></trkpt>
   <trkpt lat="59.3257579694" lon="34.7059588727"><ele>172.132</ele><time>2026-08-17T02:30:11.427Z</time><hdop>3.0</hdop><vdop>2.5</vdop><extensions><gom:speed>0.2</gom:speed></extensions></trkpt>
   <trkpt lat="59.325753066" lon="34.7059633989"><ele>172.185</ele><time>2026-08-17T02:30:12.651Z</time><hdop>3.062</hdop><vdop>2.5</vdop><extensions><gom:speed>0.153</gom:speed></extensions></trkpt>
   <trkpt lat="59.3257398645" lon="34.7059762232"><ele>172.055</ele><time>2026-08-17T02:30:13.663Z</time><hdop>3.125</hdop><vdop>2.5</vdop><extensions><gom:speed>0.296</gom:speed></extensions></trkpt>
   <trkpt lat="59.3257214662" lon="34.7059952501"><ele>171.736</ele><time>2026-08-17T02:30:14.649Z</time><hdop>3.125</hdop><vdop>2.5</vdop><extensions><gom:speed>0.335</gom:speed></extensions></trkpt>
   <trkpt lat="59.3257259925" lon="34.7059914783"><ele>171.546</ele><time>2026-08-17T02:30:15.111Z</time><hdop>3.125</hdop><vdop>2.5</vdop><extensions><gom:speed>0.184</gom:speed></extensions></trkpt>
   <trkpt lat="59.3257193708" lon="34.7059957531"><ele>171.659</ele><time>2026-08-17T02:30:15.649Z</time><hdop>3.125</hdop><vdop>2.5</vdop><extensions><gom:speed>0.21</gom:speed></extensions></trkpt>
   <trkpt lat="59.3257175687" lon="34.7059977647"><ele>171.739</ele><time>2026-08-17T02:30:16.648Z</time><hdop>3.062</hdop><vdop>2.5</vdop><extensions><gom:speed>0.107</gom:speed></extensions></trkpt>
   <trkpt lat="59.3257131682" lon="34.7060015366"><ele>171.94</ele><time>2026-08-17T02:30:17.647Z</time><hdop>3.062</hdop><vdop>2.5</vdop><extensions><gom:speed>0.097</gom:speed></extensions></trkpt>
   <trkpt lat="59.3257134615" lon="34.7060013689"><ele>172.061</ele><time>2026-08-17T02:30:18.530Z</time><hdop>3.062</hdop><vdop>2.5</vdop><extensions><gom:speed>0.08</gom:speed></extensions></trkpt>
   <trkpt lat="59.325709983" lon="34.7060054761"><ele>172.145</ele><time>2026-08-17T02:30:19.653Z</time><hdop>3.0</hdop><vdop>2.5</vdop><extensions><gom:speed>0.123</gom:speed></extensions></trkpt>
   <trkpt lat="59.3257064626" lon="34.7060149476"><ele>172.196</ele><time>2026-08-17T02:30:20.649Z</time><hdop>3.0</hdop><vdop>2.5</vdop><extensions><gom:speed>0.102</gom:speed></extensions></trkpt>
   <trkpt lat="59.325706295" lon="34.70601939"><ele>172.07</ele><time>2026-08-17T02:30:21.647Z</time><hdop>3.0</hdop><vdop>2.5</vdop><extensions><gom:speed>0.107</gom:speed></extensions></trkpt>
   <trkpt lat="59.3257071751" lon="34.7060214855"><ele>171.888</ele><time>2026-08-17T02:30:22.648Z</time><hdop>3.0</hdop><vdop>2.5</vdop><extensions><gom:speed>0.085</gom:speed></extensions></trkpt>
   <trkpt lat="59.3257069655" lon="34.7060213179"><ele>171.78</ele><time>2026-08-17T02:30:23.568Z</time><hdop>3.0</hdop><vdop>2.5</vdop><extensions><gom:speed>0.084</gom:speed></extensions></trkpt>
   <trkpt lat="59.3257097735" lon="34.7060231619"><ele>171.485</ele><time>2026-08-17T02:30:24.549Z</time><hdop>3.0</hdop><vdop>2.5</vdop><extensions><gom:speed>0.119</gom:speed></extensions></trkpt>
   <trkpt lat="59.3257128748" lon="34.706021737"><ele>171.186</ele><time>2026-08-17T02:30:25.348Z</time><hdop>3.0</hdop><vdop>2.75</vdop><extensions><gom:speed>0.167</gom:speed></extensions></trkpt>
   <trkpt lat="59.3257168981" lon="34.7060185518"><ele>170.473</ele><time>2026-08-17T02:30:26.228Z</time><hdop>3.0</hdop><vdop>2.875</vdop><extensions><gom:speed>0.186</gom:speed></extensions></trkpt>
   <trkpt lat="59.3257222625" lon="34.706013858"><ele>170.121</ele><time>2026-08-17T02:30:27.028Z</time><hdop>3.0</hdop><vdop>3.312</vdop><extensions><gom:speed>0.242</gom:speed></extensions></trkpt>
   <trkpt lat="59.3257306863" lon="34.7060053922"><ele>169.734</ele><time>2026-08-17T02:30:27.648Z</time><hdop>3.0</hdop><vdop>3.625</vdop><extensions><gom:speed>0.394</gom:speed></extensions></trkpt>
   <trkpt lat="59.3257287585" lon="34.7060092479"><ele>169.503</ele><time>2026-08-17T02:30:28.354Z</time><hdop>3.0</hdop><vdop>3.625</vdop><extensions><gom:speed>0.363</gom:speed></extensions></trkpt>
   <trkpt lat="59.3257365956" lon="34.7059996926"><ele>169.123</ele><time>2026-08-17T02:30:29.132Z</time><hdop>3.0</hdop><vdop>3.562</vdop><extensions><gom:speed>0.332</gom:speed></extensions></trkpt>
   <trkpt lat="59.3257432592" lon="34.7059908916"><ele>168.922</ele><time>2026-08-17T02:30:29.647Z</time><hdop>3.0</hdop><vdop>3.625</vdop><extensions><gom:speed>0.37</gom:speed></extensions></trkpt>
   <trkpt lat="59.3257457738" lon="34.705989299"><ele>168.918</ele><time>2026-08-17T02:30:30.649Z</time><hdop>3.0</hdop><vdop>3.75</vdop><extensions><gom:speed>0.357</gom:speed></extensions></trkpt>
   <trkpt lat="59.3257475759" lon="34.7059862815"><ele>168.915</ele><time>2026-08-17T02:30:31.327Z</time><hdop>3.0</hdop><vdop>3.75</vdop><extensions><gom:speed>0.271</gom:speed></extensions></trkpt>
   <trkpt lat="59.3257456899" lon="34.7059901372"><ele>169.315</ele><time>2026-08-17T02:30:32.127Z</time><hdop>3.125</hdop><vdop>3.5</vdop><extensions><gom:speed>0.331</gom:speed></extensions></trkpt>
   <trkpt lat="59.3257438878" lon="34.7059933223"><ele>169.091</ele><time>2026-08-17T02:30:32.648Z</time><hdop>3.187</hdop><vdop>3.312</vdop><extensions><gom:speed>0.374</gom:speed></extensions></trkpt>
   <trkpt lat="59.3257412894" lon="34.7059958369"><ele>168.887</ele><time>2026-08-17T02:30:33.648Z</time><hdop>3.5</hdop><vdop>3.312</vdop><extensions><gom:speed>0.36</gom:speed></extensions></trkpt>
   <trkpt lat="59.3257402836" lon="34.7059970942"><ele>168.683</ele><time>2026-08-17T02:30:34.648Z</time><hdop>3.75</hdop><vdop>3.25</vdop><extensions><gom:speed>0.364</gom:speed></extensions></trkpt>
   <trkpt lat="59.3257409961" lon="34.7059956692"><ele>167.702</ele><time>2026-08-17T02:30:35.648Z</time><hdop>4.062</hdop><vdop>3.0</vdop><extensions><gom:speed>0.229</gom:speed></extensions></trkpt>
   <trkpt lat="59.3257412894" lon="34.7059945796"><ele>167.116</ele><time>2026-08-17T02:30:36.649Z</time><hdop>4.437</hdop><vdop>3.0</vdop><extensions><gom:speed>0.18</gom:speed></extensions></trkpt>
   <trkpt lat="59.3257389844" lon="34.705997178"><ele>166.763</ele><time>2026-08-17T02:30:37.550Z</time><hdop>4.562</hdop><vdop>3.25</vdop><extensions><gom:speed>0.239</gom:speed></extensions></trkpt>
   <trkpt lat="59.3257359669" lon="34.7060015366"><ele>166.898</ele><time>2026-08-17T02:30:38.648Z</time><hdop>4.812</hdop><vdop>3.25</vdop><extensions><gom:speed>0.346</gom:speed></extensions></trkpt>
   <trkpt lat="59.3257355897" lon="34.7060020395"><ele>166.978</ele><time>2026-08-17T02:30:39.665Z</time><hdop>5.062</hdop><vdop>3.25</vdop><extensions><gom:speed>0.25</gom:speed></extensions></trkpt>
   <trkpt lat="59.3259087599" lon="34.7059159573"><ele>167.039</ele><time>2026-08-17T02:30:40.413Z</time><hdop>5.25</hdop><vdop>3.25</vdop><extensions><gom:speed>0.278</gom:speed></extensions></trkpt>
   <trkpt lat="59.3259107715" lon="34.7059135266"><ele>167.285</ele><time>2026-08-17T02:30:41.667Z</time><hdop>5.25</hdop><vdop>3.062</vdop><extensions><gom:speed>0.262</gom:speed></extensions></trkpt>
   <trkpt lat="59.3259092628" lon="34.7059152868"><ele>167.43</ele><time>2026-08-17T02:30:42.649Z</time><hdop>5.062</hdop><vdop>3.125</vdop><extensions><gom:speed>0.114</gom:speed></extensions></trkpt>
   <trkpt lat="59.3259089694" lon="34.7059155382"><ele>167.517</ele><time>2026-08-17T02:30:43.647Z</time><hdop>4.562</hdop><vdop>3.125</vdop><extensions><gom:speed>0.082</gom:speed></extensions></trkpt>
   <trkpt lat="59.325909179" lon="34.7059154544"><ele>167.569</ele><time>2026-08-17T02:30:44.648Z</time><hdop>4.187</hdop><vdop>3.187</vdop><extensions><gom:speed>0.08</gom:speed></extensions></trkpt>
   <trkpt lat="59.3259087599" lon="34.7059168793"><ele>167.599</ele><time>2026-08-17T02:30:45.647Z</time><hdop>3.5</hdop><vdop>3.187</vdop><extensions><gom:speed>0.055</gom:speed></extensions></trkpt>
   <trkpt lat="59.3259085922" lon="34.7059172984"><ele>167.617</ele><time>2026-08-17T02:30:46.648Z</time><hdop>3.062</hdop><vdop>3.25</vdop><extensions><gom:speed>0.055</gom:speed></extensions></trkpt>
   <trkpt lat="59.3259085922" lon="34.7059165441"><ele>167.628</ele><time>2026-08-17T02:30:47.692Z</time><hdop>3.0</hdop><vdop>3.25</vdop><extensions><gom:speed>0.01</gom:speed></extensions></trkpt>
   <trkpt lat="59.3259088856" lon="34.7059167955"><ele>167.637</ele><time>2026-08-17T02:30:48.648Z</time><hdop>3.0</hdop><vdop>3.187</vdop><extensions><gom:speed>0.089</gom:speed></extensions></trkpt>
   <trkpt lat="59.3259087599" lon="34.7059180528"><ele>167.644</ele><time>2026-08-17T02:30:49.647Z</time><hdop>3.0</hdop><vdop>2.937</vdop><extensions><gom:speed>0.059</gom:speed></extensions></trkpt>
   <trkpt lat="59.3259085922" lon="34.7059176337"><ele>167.649</ele><time>2026-08-17T02:30:50.648Z</time><hdop>3.0</hdop><vdop>2.75</vdop><extensions><gom:speed>0.067</gom:speed></extensions></trkpt>
   <trkpt lat="59.3259085922" lon="34.7059180528"><ele>167.654</ele><time>2026-08-17T02:30:51.648Z</time><hdop>3.0</hdop><vdop>2.562</vdop><extensions><gom:speed>0.084</gom:speed></extensions></trkpt>
   <trkpt lat="59.3259076702" lon="34.7059173823"><ele>167.656</ele><time>2026-08-17T02:30:52.692Z</time><hdop>3.0</hdop><vdop>2.5</vdop><extensions><gom:speed>0.009</gom:speed></extensions></trkpt>
   <trkpt lat="59.3259082989" lon="34.7059185557"><ele>167.658</ele><time>2026-08-17T02:30:53.648Z</time><hdop>3.0</hdop><vdop>2.5</vdop><extensions><gom:speed>0.049</gom:speed></extensions></trkpt>
   <trkpt lat="59.3259085922" lon="34.705917047"><ele>167.66</ele><time>2026-08-17T02:30:54.658Z</time><hdop>3.0</hdop><vdop>2.5</vdop><extensions><gom:speed>0.096</gom:speed></extensions></trkpt>
   <trkpt lat="59.3259082989" lon="34.7059148677"><ele>167.662</ele><time>2026-08-17T02:30:55.649Z</time><hdop>3.0</hdop><vdop>2.5</vdop><extensions><gom:speed>0.067</gom:speed></extensions></trkpt>
   <trkpt lat="59.3259083827" lon="34.7059153706"><ele>167.661</ele><time>2026-08-17T02:30:56.647Z</time><hdop>3.0</hdop><vdop>2.5</vdop><extensions><gom:speed>0.058</gom:speed></extensions></trkpt>
   <trkpt lat="59.3259081731" lon="34.7059151191"><ele>167.662</ele><time>2026-08-17T02:30:57.649Z</time><hdop>3.0</hdop><vdop>2.5</vdop><extensions><gom:speed>0.054</gom:speed></extensions></trkpt>
   <trkpt lat="59.3259089694" lon="34.7059149515"><ele>167.665</ele><time>2026-08-17T02:30:58.649Z</time><hdop>3.0</hdop><vdop>2.5</vdop><extensions><gom:speed>0.076</gom:speed></extensions></trkpt>
   <trkpt lat="59.3259092628" lon="34.7059152868"><ele>167.67</ele><time>2026-08-17T02:30:59.647Z</time><hdop>3.0</hdop><vdop>2.5</vdop><extensions><gom:speed>0.0</gom:speed></extensions></trkpt>
   <trkpt lat="59.3259092628" lon="34.7059153706"><ele>167.677</ele><time>2026-08-17T02:31:00.648Z</time><hdop>3.0</hdop><vdop>2.5</vdop><extensions><gom:speed>0.014</gom:speed></extensions></trkpt>
   <trkpt lat="59.3259092628" lon="34.7059155382"><ele>167.68</ele><time>2026-08-17T02:31:01.648Z</time><hdop>3.0</hdop><vdop>2.5</vdop><extensions><gom:speed>0.025</gom:speed></extensions></trkpt>
   <trkpt lat="59.3259093885" lon="34.7059155382"><ele>167.679</ele><time>2026-08-17T02:31:02.650Z</time><hdop>3.0</hdop><vdop>2.5</vdop><extensions><gom:speed>0.025</gom:speed></extensions></trkpt>
   <trkpt lat="59.3259093885" lon="34.7059159573"><ele>167.678</ele><time>2026-08-17T02:31:03.648Z</time><hdop>3.0</hdop><vdop>2.5</vdop><extensions><gom:speed>0.039</gom:speed></extensions></trkpt>
   <trkpt lat="59.3259092628" lon="34.7059160412"><ele>167.676</ele><time>2026-08-17T02:31:04.648Z</time><hdop>3.0</hdop><vdop>2.5</vdop><extensions><gom:speed>0.045</gom:speed></extensions></trkpt>
   <trkpt lat="59.3259092628" lon="34.7059162926"><ele>167.674</ele><time>2026-08-17T02:31:05.648Z</time><hdop>3.0</hdop><vdop>2.5</vdop><extensions><gom:speed>0.052</gom:speed></extensions></trkpt>
   <trkpt lat="59.3259093885" lon="34.7059163764"><ele>167.674</ele><time>2026-08-17T02:31:06.692Z</time><hdop>3.0</hdop><vdop>2.5</vdop><extensions><gom:speed>0.052</gom:speed></extensions></trkpt>
   <trkpt lat="59.3259094723" lon="34.7059166279"><ele>167.673</ele><time>2026-08-17T02:31:07.648Z</time><hdop>3.0</hdop><vdop>2.5</vdop><extensions><gom:speed>0.06</gom:speed></extensions></trkpt>
   <trkpt lat="59.3259095981" lon="34.7059169632"><ele>167.675</ele><time>2026-08-17T02:31:08.647Z</time><hdop>3.0</hdop><vdop>2.5</vdop><extensions><gom:speed>0.064</gom:speed></extensions></trkpt>
   <trkpt lat="59.3259095981" lon="34.7059171308"><ele>167.68</ele><time>2026-08-17T02:31:09.648Z</time><hdop>3.0</hdop><vdop>2.5</vdop><extensions><gom:speed>0.064</gom:speed></extensions></trkpt>
   <trkpt lat="59.3259096819" lon="34.7059172984"><ele>168.09</ele><time>2026-08-17T02:31:10.692Z</time><hdop>3.0</hdop><vdop>2.5</vdop><extensions><gom:speed>0.064</gom:speed></extensions></trkpt>
   <trkpt lat="59.3259098914" lon="34.7059171308"><ele>168.349</ele><time>2026-08-17T02:31:11.648Z</time><hdop>3.0</hdop><vdop>2.5</vdop><extensions><gom:speed>0.396</gom:speed></extensions></trkpt>
   <trkpt lat="59.3259104782" lon="34.7059169632"><ele>168.536</ele><time>2026-08-17T02:31:12.648Z</time><hdop>3.0</hdop><vdop>2.5</vdop><extensions><gom:speed>0.095</gom:speed></extensions></trkpt>
   <trkpt lat="59.325910562" lon="34.7059169632"><ele>168.655</ele><time>2026-08-17T02:31:13.648Z</time><hdop>3.0</hdop><vdop>2.5</vdop><extensions><gom:speed>0.098</gom:speed></extensions></trkpt>
   <trkpt lat="59.3259106877" lon="34.705917047"><ele>168.731</ele><time>2026-08-17T02:31:14.693Z</time><hdop>3.0</hdop><vdop>2.5</vdop><extensions><gom:speed>0.098</gom:speed></extensions></trkpt>
   <trkpt lat="59.3259108973" lon="34.7059168793"><ele>168.78</ele><time>2026-08-17T02:31:15.648Z</time><hdop>3.0</hdop><vdop>2.5</vdop><extensions><gom:speed>0.1</gom:speed></extensions></trkpt>
   <trkpt lat="59.3259108973" lon="34.7059168793"><ele>168.817</ele><time>2026-08-17T02:31:16.692Z</time><hdop>3.0</hdop><vdop>2.5</vdop><extensions><gom:speed>0.1</gom:speed></extensions></trkpt>
   <trkpt lat="59.3259110649" lon="34.7059166279"><ele>168.846</ele><time>2026-08-17T02:31:17.648Z</time><hdop>3.0</hdop><vdop>2.5</vdop><extensions><gom:speed>0.099</gom:speed></extensions></trkpt>
   <trkpt lat="59.3259112744" lon="34.7059165441"><ele>168.869</ele><time>2026-08-17T02:31:18.648Z</time><hdop>3.0</hdop><vdop>2.5</vdop><extensions><gom:speed>0.099</gom:speed></extensions></trkpt>
   <trkpt lat="59.325911484" lon="34.7059163764"><ele>168.889</ele><time>2026-08-17T02:31:19.647Z</time><hdop>3.0</hdop><vdop>2.5</vdop><extensions><gom:speed>0.101</gom:speed></extensions></trkpt>
   <trkpt lat="59.325911484" lon="34.7059167955"><ele>168.908</ele><time>2026-08-17T02:31:20.648Z</time><hdop>3.0</hdop><vdop>2.5</vdop><extensions><gom:speed>0.097</gom:speed></extensions></trkpt>
   <trkpt lat="59.3259116935" lon="34.7059163764"><ele>169.063</ele><time>2026-08-17T02:31:21.649Z</time><hdop>3.062</hdop><vdop>2.5</vdop><extensions><gom:speed>0.097</gom:speed></extensions></trkpt>
   <trkpt lat="59.3259118612" lon="34.7059159573"><ele>169.322</ele><time>2026-08-17T02:31:22.648Z</time><hdop>3.062</hdop><vdop>2.5</vdop><extensions><gom:speed>0.191</gom:speed></extensions></trkpt>
   <trkpt lat="59.3259121964" lon="34.7059152868"><ele>169.569</ele><time>2026-08-17T02:31:23.648Z</time><hdop>3.187</hdop><vdop>2.812</vdop><extensions><gom:speed>0.372</gom:speed></extensions></trkpt>
   <trkpt lat="59.3259125736" lon="34.7059152868"><ele>169.712</ele><time>2026-08-17T02:31:24.665Z</time><hdop>3.312</hdop><vdop>2.562</vdop><extensions><gom:speed>0.372</gom:speed></extensions></trkpt>
   <trkpt lat="59.3259130765" lon="34.7059143648"><ele>169.808</ele><time>2026-08-17T02:31:25.657Z</time><hdop>3.5</hdop><vdop>2.687</vdop><extensions><gom:speed>0.23</gom:speed></extensions></trkpt>
   <trkpt lat="59.3259141662" lon="34.7059111797"><ele>169.879</ele><time>2026-08-17T02:31:26.648Z</time><hdop>3.937</hdop><vdop>2.5</vdop><extensions><gom:speed>0.36</gom:speed></extensions></trkpt>
   <trkpt lat="59.3259146691" lon="34.7059105929"><ele>169.921</ele><time>2026-08-17T02:31:27.610Z</time><hdop>4.187</hdop><vdop>2.5</vdop><extensions><gom:speed>0.36</gom:speed></extensions></trkpt>
   <trkpt lat="59.3259164712" lon="34.7059079945"><ele>169.858</ele><time>2026-08-17T02:31:28.267Z</time><hdop>4.5</hdop><vdop>2.75</vdop><extensions><gom:speed>0.285</gom:speed></extensions></trkpt>
   <trkpt lat="59.3259183991" lon="34.7059041389"><ele>169.79</ele><time>2026-08-17T02:31:29.440Z</time><hdop>4.625</hdop><vdop>2.5</vdop><extensions><gom:speed>0.431</gom:speed></extensions></trkpt>
   <trkpt lat="59.3259210813" lon="34.7058989421"><ele>169.659</ele><time>2026-08-17T02:31:30.654Z</time><hdop>5.125</hdop><vdop>2.5</vdop><extensions><gom:speed>0.646</gom:speed></extensions></trkpt>
   <trkpt lat="59.3259218775" lon="34.7058944997"><ele>169.582</ele><time>2026-08-17T02:31:31.292Z</time><hdop>5.312</hdop><vdop>2.5</vdop><extensions><gom:speed>0.282</gom:speed></extensions></trkpt>
   <trkpt lat="59.32592259" lon="34.7058889676"><ele>169.591</ele><time>2026-08-17T02:31:31.869Z</time><hdop>5.375</hdop><vdop>2.5</vdop><extensions><gom:speed>0.194</gom:speed></extensions></trkpt>
   <trkpt lat="59.3259220871" lon="34.7058913984"><ele>169.449</ele><time>2026-08-17T02:31:32.652Z</time><hdop>5.5</hdop><vdop>2.625</vdop><extensions><gom:speed>0.122</gom:speed></extensions></trkpt>
   <trkpt lat="59.32592259" lon="34.7058834356"><ele>169.364</ele><time>2026-08-17T02:31:33.487Z</time><hdop>5.375</hdop><vdop>2.625</vdop><extensions><gom:speed>0.157</gom:speed></extensions></trkpt>
   <trkpt lat="59.3259231767" lon="34.7058783226"><ele>169.318</ele><time>2026-08-17T02:31:34.206Z</time><hdop>5.187</hdop><vdop>2.875</vdop><extensions><gom:speed>0.155</gom:speed></extensions></trkpt>
   <trkpt lat="59.3259224643" lon="34.7058717847"><ele>169.285</ele><time>2026-08-17T02:31:34.873Z</time><hdop>5.062</hdop><vdop>3.0</vdop><extensions><gom:speed>0.163</gom:speed></extensions></trkpt>
   <trkpt lat="59.3259227996" lon="34.7058710303"><ele>169.358</ele><time>2026-08-17T02:31:35.652Z</time><hdop>5.0</hdop><vdop>3.0</vdop><extensions><gom:speed>0.138</gom:speed></extensions></trkpt>
   <trkpt lat="59.32591798" lon="34.705833647"><ele>169.033</ele><time>2026-08-17T02:31:36.648Z</time><hdop>4.437</hdop><vdop>2.75</vdop><extensions><gom:speed>0.149</gom:speed></extensions></trkpt>
   <trkpt lat="59.3259190696" lon="34.7058310487"><ele>168.839</ele><time>2026-08-17T02:31:37.656Z</time><hdop>4.25</hdop><vdop>2.75</vdop><extensions><gom:speed>0.082</gom:speed></extensions></trkpt>
   <trkpt lat="59.3259155911" lon="34.7058128599"><ele>168.456</ele><time>2026-08-17T02:31:38.648Z</time><hdop>3.875</hdop><vdop>3.0</vdop><extensions><gom:speed>0.1</gom:speed></extensions></trkpt>
   <trkpt lat="59.3259162617" lon="34.7058109321"><ele>168.229</ele><time>2026-08-17T02:31:39.659Z</time><hdop>3.562</hdop><vdop>3.0</vdop><extensions><gom:speed>0.05</gom:speed></extensions></trkpt>
   <trkpt lat="59.3259135795" lon="34.7058033884"><ele>168.096</ele><time>2026-08-17T02:31:40.648Z</time><hdop>3.125</hdop><vdop>3.062</vdop><extensions><gom:speed>0.078</gom:speed></extensions></trkpt>
   <trkpt lat="59.325913789" lon="34.7058034722"><ele>168.022</ele><time>2026-08-17T02:31:41.652Z</time><hdop>3.062</hdop><vdop>3.125</vdop><extensions><gom:speed>0.026</gom:speed></extensions></trkpt>
   <trkpt lat="59.3259130765" lon="34.7058013767"><ele>167.778</ele><time>2026-08-17T02:31:42.652Z</time><hdop>3.0</hdop><vdop>3.312</vdop><extensions><gom:speed>0.03</gom:speed></extensions></trkpt>
   <trkpt lat="59.3259102686" lon="34.7057993651"><ele>167.653</ele><time>2026-08-17T02:31:43.649Z</time><hdop>3.0</hdop><vdop>3.25</vdop><extensions><gom:speed>0.082</gom:speed></extensions></trkpt>
   <trkpt lat="59.3259094723" lon="34.7057988622"><ele>167.576</ele><time>2026-08-17T02:31:44.648Z</time><hdop>3.0</hdop><vdop>3.25</vdop><extensions><gom:speed>0.077</gom:speed></extensions></trkpt>
   <trkpt lat="59.3259100591" lon="34.7057994489"><ele>167.528</ele><time>2026-08-17T02:31:45.652Z</time><hdop>3.0</hdop><vdop>3.187</vdop><extensions><gom:speed>0.033</gom:speed></extensions></trkpt>
   <trkpt lat="59.3259088856" lon="34.7057983592"><ele>167.499</ele><time>2026-08-17T02:31:46.660Z</time><hdop>3.0</hdop><vdop>3.187</vdop><extensions><gom:speed>0.077</gom:speed></extensions></trkpt>
   <trkpt lat="59.3259077959" lon="34.7057974372"><ele>167.483</ele><time>2026-08-17T02:31:47.648Z</time><hdop>3.0</hdop><vdop>3.125</vdop><extensions><gom:speed>0.091</gom:speed></extensions></trkpt>
   <trkpt lat="59.3259073769" lon="34.705797521"><ele>167.475</ele><time>2026-08-17T02:31:48.648Z</time><hdop>3.0</hdop><vdop>3.0</vdop><extensions><gom:speed>0.081</gom:speed></extensions></trkpt>
   <trkpt lat="59.3259070835" lon="34.705796599"><ele>167.47</ele><time>2026-08-17T02:31:49.653Z</time><hdop>3.0</hdop><vdop>2.937</vdop><extensions><gom:speed>0.007</gom:speed></extensions></trkpt>
   <trkpt lat="59.3259066644" lon="34.7057960961"><ele>167.468</ele><time>2026-08-17T02:31:50.652Z</time><hdop>3.0</hdop><vdop>2.875</vdop><extensions><gom:speed>0.011</gom:speed></extensions></trkpt>
   <trkpt lat="59.3259058681" lon="34.7057973534"><ele>167.465</ele><time>2026-08-17T02:31:51.652Z</time><hdop>3.0</hdop><vdop>2.75</vdop><extensions><gom:speed>0.019</gom:speed></extensions></trkpt>
   <trkpt lat="59.3259051976" lon="34.705796599"><ele>167.463</ele><time>2026-08-17T02:31:52.649Z</time><hdop>3.0</hdop><vdop>2.75</vdop><extensions><gom:speed>0.111</gom:speed></extensions></trkpt>
   <trkpt lat="59.3259039822" lon="34.7057967667"><ele>167.463</ele><time>2026-08-17T02:31:53.648Z</time><hdop>3.0</hdop><vdop>2.75</vdop><extensions><gom:speed>0.057</gom:speed></extensions></trkpt>
   <trkpt lat="59.3259042755" lon="34.7057977725"><ele>167.463</ele><time>2026-08-17T02:31:54.652Z</time><hdop>3.0</hdop><vdop>2.625</vdop><extensions><gom:speed>0.01</gom:speed></extensions></trkpt>
   <trkpt lat="59.3259043594" lon="34.7057984431"><ele>167.46</ele><time>2026-08-17T02:31:55.664Z</time><hdop>3.0</hdop><vdop>2.5</vdop><extensions><gom:speed>0.015</gom:speed></extensions></trkpt>
   <trkpt lat="59.3259041917" lon="34.7057982754"><ele>167.455</ele><time>2026-08-17T02:31:56.656Z</time><hdop>3.0</hdop><vdop>2.5</vdop><extensions><gom:speed>0.015</gom:speed></extensions></trkpt>
   <trkpt lat="59.3259039822" lon="34.705798024"><ele>167.451</ele><time>2026-08-17T02:31:57.648Z</time><hdop>3.0</hdop><vdop>2.5</vdop><extensions><gom:speed>0.031</gom:speed></extensions></trkpt>
   <trkpt lat="59.3259037726" lon="34.7057976887"><ele>167.448</ele><time>2026-08-17T02:31:58.652Z</time><hdop>3.0</hdop><vdop>2.5</vdop><extensions><gom:speed>0.032</gom:speed></extensions></trkpt>
   <trkpt lat="59.3259035631" lon="34.7057973534"><ele>167.444</ele><time>2026-08-17T02:31:59.652Z</time><hdop>3.0</hdop><vdop>2.5</vdop><extensions><gom:speed>0.039</gom:speed></extensions></trkpt>
   <trkpt lat="59.3259032697" lon="34.7057969343"><ele>167.44</ele><time>2026-08-17T02:32:00.662Z</time><hdop>3.0</hdop><vdop>2.5</vdop><extensions><gom:speed>0.045</gom:speed></extensions></trkpt>
   <trkpt lat="59.3259030602" lon="34.7057966829"><ele>167.438</ele><time>2026-08-17T02:32:01.652Z</time><hdop>3.0</hdop><vdop>2.5</vdop><extensions><gom:speed>0.049</gom:speed></extensions></trkpt>
   <trkpt lat="59.3259027668" lon="34.7057963476"><ele>167.435</ele><time>2026-08-17T02:32:02.649Z</time><hdop>3.0</hdop><vdop>2.5</vdop><extensions><gom:speed>0.055</gom:speed></extensions></trkpt>
   <trkpt lat="59.3259023896" lon="34.7057957608"><ele>167.432</ele><time>2026-08-17T02:32:03.657Z</time><hdop>3.0</hdop><vdop>2.5</vdop><extensions><gom:speed>0.055</gom:speed></extensions></trkpt>
   <trkpt lat="59.3259022639" lon="34.7057955932"><ele>167.43</ele><time>2026-08-17T02:32:04.652Z</time><hdop>3.0</hdop><vdop>2.5</vdop><extensions><gom:speed>0.057</gom:speed></extensions></trkpt>
   <trkpt lat="59.3259020963" lon="34.7057953418"><ele>167.427</ele><time>2026-08-17T02:32:05.652Z</time><hdop>3.0</hdop><vdop>2.5</vdop><extensions><gom:speed>0.06</gom:speed></extensions></trkpt>
   <trkpt lat="59.3259018867" lon="34.7057951741"><ele>167.435</ele><time>2026-08-17T02:32:06.652Z</time><hdop>3.0</hdop><vdop>2.5</vdop><extensions><gom:speed>0.06</gom:speed></extensions></trkpt>
   <trkpt lat="59.3259018867" lon="34.7057952579"><ele>167.44</ele><time>2026-08-17T02:32:07.648Z</time><hdop>3.0</hdop><vdop>2.5</vdop><extensions><gom:speed>0.061</gom:speed></extensions></trkpt>
   <trkpt lat="59.3259016772" lon="34.705794755"><ele>167.444</ele><time>2026-08-17T02:32:08.653Z</time><hdop>3.0</hdop><vdop>2.5</vdop><extensions><gom:speed>0.061</gom:speed></extensions></trkpt>
   <trkpt lat="59.3259016772" lon="34.7057949227"><ele>167.447</ele><time>2026-08-17T02:32:09.648Z</time><hdop>3.0</hdop><vdop>2.5</vdop><extensions><gom:speed>0.06</gom:speed></extensions></trkpt>
   <trkpt lat="59.3259013838" lon="34.7057945874"><ele>167.448</ele><time>2026-08-17T02:32:10.652Z</time><hdop>3.0</hdop><vdop>2.5</vdop><extensions><gom:speed>0.06</gom:speed></extensions></trkpt>
   <trkpt lat="59.3259010904" lon="34.7057940845"><ele>167.451</ele><time>2026-08-17T02:32:11.652Z</time><hdop>3.0</hdop><vdop>2.5</vdop><extensions><gom:speed>0.058</gom:speed></extensions></trkpt>
   <trkpt lat="59.3259010904" lon="34.7057940845"><ele>167.454</ele><time>2026-08-17T02:32:12.653Z</time><hdop>3.0</hdop><vdop>2.5</vdop><extensions><gom:speed>0.057</gom:speed></extensions></trkpt>
   <trkpt lat="59.3259009647" lon="34.7057940845"><ele>167.455</ele><time>2026-08-17T02:32:13.652Z</time><hdop>3.0</hdop><vdop>2.5</vdop><extensions><gom:speed>0.057</gom:speed></extensions></trkpt>
   <trkpt lat="59.3259010904" lon="34.7057943359"><ele>167.455</ele><time>2026-08-17T02:32:14.648Z</time><hdop>3.0</hdop><vdop>2.5</vdop><extensions><gom:speed>0.062</gom:speed></extensions></trkpt>
   <trkpt lat="59.3259008809" lon="34.7057939168"><ele>167.459</ele><time>2026-08-17T02:32:15.652Z</time><hdop>3.0</hdop><vdop>2.5</vdop><extensions><gom:speed>0.062</gom:speed></extensions></trkpt>
   <trkpt lat="59.3259007971" lon="34.705793833"><ele>167.461</ele><time>2026-08-17T02:32:16.652Z</time><hdop>3.0</hdop><vdop>2.5</vdop><extensions><gom:speed>0.064</gom:speed></extensions></trkpt>
   <trkpt lat="59.3259007971" lon="34.7057937492"><ele>167.463</ele><time>2026-08-17T02:32:17.652Z</time><hdop>3.0</hdop><vdop>2.5</vdop><extensions><gom:speed>0.063</gom:speed></extensions></trkpt>
   <trkpt lat="59.3259007971" lon="34.705793833"><ele>167.47</ele><time>2026-08-17T02:32:18.649Z</time><hdop>3.0</hdop><vdop>2.5</vdop><extensions><gom:speed>0.065</gom:speed></extensions></trkpt>
   <trkpt lat="59.3259007971" lon="34.7057939168"><ele>167.476</ele><time>2026-08-17T02:32:19.649Z</time><hdop>3.0</hdop><vdop>2.5</vdop><extensions><gom:speed>0.063</gom:speed></extensions></trkpt>
   <trkpt lat="59.3259007971" lon="34.7057940845"><ele>167.478</ele><time>2026-08-17T02:32:20.648Z</time><hdop>3.0</hdop><vdop>2.5</vdop><extensions><gom:speed>0.064</gom:speed></extensions></trkpt>
   <trkpt lat="59.3259007971" lon="34.7057941683"><ele>167.478</ele><time>2026-08-17T02:32:21.647Z</time><hdop>3.0</hdop><vdop>2.5</vdop><extensions><gom:speed>0.066</gom:speed></extensions></trkpt>
   <trkpt lat="59.3259007971" lon="34.7057943359"><ele>167.475</ele><time>2026-08-17T02:32:22.648Z</time><hdop>3.0</hdop><vdop>2.5</vdop><extensions><gom:speed>0.068</gom:speed></extensions></trkpt>
   <trkpt lat="59.3259007971" lon="34.7057944197"><ele>167.47</ele><time>2026-08-17T02:32:23.648Z</time><hdop>3.0</hdop><vdop>2.5</vdop><extensions><gom:speed>0.069</gom:speed></extensions></trkpt>
   <trkpt lat="59.3259006713" lon="34.7057945874"><ele>167.467</ele><time>2026-08-17T02:32:24.648Z</time><hdop>3.0</hdop><vdop>2.5</vdop><extensions><gom:speed>0.067</gom:speed></extensions></trkpt>
   <trkpt lat="59.3259007971" lon="34.7057942521"><ele>167.464</ele><time>2026-08-17T02:32:25.648Z</time><hdop>3.0</hdop><vdop>2.5</vdop><extensions><gom:speed>0.069</gom:speed></extensions></trkpt>
   <trkpt lat="59.3259007971" lon="34.7057943359"><ele>167.462</ele><time>2026-08-17T02:32:26.648Z</time><hdop>3.0</hdop><vdop>2.5</vdop><extensions><gom:speed>0.07</gom:speed></extensions></trkpt>
   <trkpt lat="59.3259006713" lon="34.7057945874"><ele>167.458</ele><time>2026-08-17T02:32:27.648Z</time><hdop>3.0</hdop><vdop>2.5</vdop><extensions><gom:speed>0.071</gom:speed></extensions></trkpt>
   <trkpt lat="59.3259005875" lon="34.7057946712"><ele>167.455</ele><time>2026-08-17T02:32:28.647Z</time><hdop>3.0</hdop><vdop>2.5</vdop><extensions><gom:speed>0.071</gom:speed></extensions></trkpt>
   <trkpt lat="59.3259005875" lon="34.7057948388"><ele>167.45</ele><time>2026-08-17T02:32:29.648Z</time><hdop>3.0</hdop><vdop>2.5</vdop><extensions><gom:speed>0.071</gom:speed></extensions></trkpt>
   <trkpt lat="59.3259005875" lon="34.7057950903"><ele>167.447</ele><time>2026-08-17T02:32:30.649Z</time><hdop>3.0</hdop><vdop>2.5</vdop><extensions><gom:speed>0.073</gom:speed></extensions></trkpt>
   <trkpt lat="59.3259004618" lon="34.7057951741"><ele>167.444</ele><time>2026-08-17T02:32:31.649Z</time><hdop>3.0</hdop><vdop>2.5</vdop><extensions><gom:speed>0.073</gom:speed></extensions></trkpt>
   <trkpt lat="59.3259002941" lon="34.7057950903"><ele>167.442</ele><time>2026-08-17T02:32:32.652Z</time><hdop>3.0</hdop><vdop>2.5</vdop><extensions><gom:speed>0.074</gom:speed></extensions></trkpt>
   <trkpt lat="59.3259004618" lon="34.7057951741"><ele>167.44</ele><time>2026-08-17T02:32:33.463Z</time><hdop>3.0</hdop><vdop>2.5</vdop><extensions><gom:speed>0.072</gom:speed></extensions></trkpt>
   <trkpt lat="59.3259002941" lon="34.7057952579"><ele>167.439</ele><time>2026-08-17T02:32:34.652Z</time><hdop>3.0</hdop><vdop>2.5</vdop><extensions><gom:speed>0.069</gom:speed></extensions></trkpt>
   <trkpt lat="59.325900378" lon="34.705795677"><ele>167.438</ele><time>2026-08-17T02:32:35.647Z</time><hdop>3.0</hdop><vdop>2.5</vdop><extensions><gom:speed>0.068</gom:speed></extensions></trkpt>
   <trkpt lat="59.325900378" lon="34.7057958447"><ele>167.436</ele><time>2026-08-17T02:32:36.647Z</time><hdop>3.0</hdop><vdop>2.5</vdop><extensions><gom:speed>0.067</gom:speed></extensions></trkpt>
   <trkpt lat="59.325900378" lon="34.7057959285"><ele>167.434</ele><time>2026-08-17T02:32:37.648Z</time><hdop>3.0</hdop><vdop>2.5</vdop><extensions><gom:speed>0.065</gom:speed></extensions></trkpt>
   <trkpt lat="59.325900378" lon="34.7057960961"><ele>167.433</ele><time>2026-08-17T02:32:38.648Z</time><hdop>3.0</hdop><vdop>2.5</vdop><extensions><gom:speed>0.065</gom:speed></extensions></trkpt>
   <trkpt lat="59.3259001684" lon="34.7057958447"><ele>167.432</ele><time>2026-08-17T02:32:39.652Z</time><hdop>3.0</hdop><vdop>2.5</vdop><extensions><gom:speed>0.066</gom:speed></extensions></trkpt>
   <trkpt lat="59.3259001684" lon="34.7057959285"><ele>167.432</ele><time>2026-08-17T02:32:40.648Z</time><hdop>3.0</hdop><vdop>2.5</vdop><extensions><gom:speed>0.067</gom:speed></extensions></trkpt>
   <trkpt lat="59.3259001684" lon="34.7057958447"><ele>167.431</ele><time>2026-08-17T02:32:41.648Z</time><hdop>3.0</hdop><vdop>2.5</vdop><extensions><gom:speed>0.068</gom:speed></extensions></trkpt>
   <trkpt lat="59.3259000846" lon="34.7057957608"><ele>167.431</ele><time>2026-08-17T02:32:42.675Z</time><hdop>3.0</hdop><vdop>2.5</vdop><extensions><gom:speed>0.069</gom:speed></extensions></trkpt>
   <trkpt lat="59.3259001684" lon="34.7057959285"><ele>167.431</ele><time>2026-08-17T02:32:43.171Z</time><hdop>3.0</hdop><vdop>2.5</vdop><extensions><gom:speed>0.068</gom:speed></extensions></trkpt>
   <trkpt lat="59.3259000846" lon="34.7057959285"><ele>167.431</ele><time>2026-08-17T02:32:43.646Z</time><hdop>3.0</hdop><vdop>2.5</vdop><extensions><gom:speed>0.068</gom:speed></extensions></trkpt>
   <trkpt lat="59.3258998751" lon="34.7057974372"><ele>167.507</ele><time>2026-08-17T02:32:44.648Z</time><hdop>3.0</hdop><vdop>2.5</vdop><extensions><gom:speed>0.201</gom:speed></extensions></trkpt>
   <trkpt lat="59.3258999589" lon="34.705798024"><ele>167.557</ele><time>2026-08-17T02:32:45.649Z</time><hdop>3.0</hdop><vdop>2.5</vdop><extensions><gom:speed>0.083</gom:speed></extensions></trkpt>
   <trkpt lat="59.3258999589" lon="34.7057982754"><ele>167.587</ele><time>2026-08-17T02:32:46.652Z</time><hdop>3.0</hdop><vdop>2.5</vdop><extensions><gom:speed>0.084</gom:speed></extensions></trkpt>
   <trkpt lat="59.325900378" lon="34.705798946"><ele>167.605</ele><time>2026-08-17T02:32:47.648Z</time><hdop>3.0</hdop><vdop>2.5</vdop><extensions><gom:speed>0.065</gom:speed></extensions></trkpt>
   <trkpt lat="59.3259005875" lon="34.7057992812"><ele>167.821</ele><time>2026-08-17T02:32:48.648Z</time><hdop>3.0</hdop><vdop>2.5</vdop><extensions><gom:speed>0.251</gom:speed></extensions></trkpt>
   <trkpt lat="59.3259001684" lon="34.7057993651"><ele>167.95</ele><time>2026-08-17T02:32:49.555Z</time><hdop>3.0</hdop><vdop>2.5</vdop><extensions><gom:speed>0.252</gom:speed></extensions></trkpt>
   <trkpt lat="59.3259008809" lon="34.7057997842"><ele>168.029</ele><time>2026-08-17T02:32:50.648Z</time><hdop>3.0</hdop><vdop>2.5</vdop><extensions><gom:speed>0.077</gom:speed></extensions></trkpt>
   <trkpt lat="59.3259011742" lon="34.705799868"><ele>168.078</ele><time>2026-08-17T02:32:51.647Z</time><hdop>3.0</hdop><vdop>2.5</vdop><extensions><gom:speed>0.065</gom:speed></extensions></trkpt>
   <trkpt lat="59.3259010904" lon="34.705799868"><ele>168.106</ele><time>2026-08-17T02:32:52.185Z</time><hdop>3.0</hdop><vdop>2.5</vdop><extensions><gom:speed>0.066</gom:speed></extensions></trkpt>
   <trkpt lat="59.3259013838" lon="34.7058001194"><ele>168.124</ele><time>2026-08-17T02:32:52.648Z</time><hdop>3.0</hdop><vdop>2.5</vdop><extensions><gom:speed>0.058</gom:speed></extensions></trkpt>
   <trkpt lat="59.3259012581" lon="34.7058002871"><ele>168.134</ele><time>2026-08-17T02:32:53.390Z</time><hdop>3.0</hdop><vdop>2.5</vdop><extensions><gom:speed>0.059</gom:speed></extensions></trkpt>
   <trkpt lat="59.3259016772" lon="34.705799868"><ele>168.197</ele><time>2026-08-17T02:32:54.020Z</time><hdop>3.0</hdop><vdop>2.5</vdop><extensions><gom:speed>0.043</gom:speed></extensions></trkpt>
   <trkpt lat="59.3259022639" lon="34.7058014605"><ele>168.216</ele><time>2026-08-17T02:32:54.647Z</time><hdop>3.0</hdop><vdop>2.5</vdop><extensions><gom:speed>0.126</gom:speed></extensions></trkpt>
   <trkpt lat="59.3259019705" lon="34.7058005385"><ele>168.227</ele><time>2026-08-17T02:32:55.427Z</time><hdop>3.0</hdop><vdop>2.5</vdop><extensions><gom:speed>0.083</gom:speed></extensions></trkpt>
   <trkpt lat="59.3259016772" lon="34.7058012929"><ele>168.378</ele><time>2026-08-17T02:32:56.651Z</time><hdop>3.0</hdop><vdop>2.5</vdop><extensions><gom:speed>0.118</gom:speed></extensions></trkpt>
   <trkpt lat="59.3258996655" lon="34.7057983592"><ele>168.483</ele><time>2026-08-17T02:32:57.648Z</time><hdop>3.0</hdop><vdop>2.5</vdop><extensions><gom:speed>0.087</gom:speed></extensions></trkpt>
   <trkpt lat="59.3258991626" lon="34.7057982754"><ele>168.605</ele><time>2026-08-17T02:32:58.652Z</time><hdop>3.0</hdop><vdop>2.5</vdop><extensions><gom:speed>0.075</gom:speed></extensions></trkpt>
   <trkpt lat="59.3258986597" lon="34.7057922404"><ele>168.678</ele><time>2026-08-17T02:32:59.648Z</time><hdop>3.0</hdop><vdop>2.5</vdop><extensions><gom:speed>0.105</gom:speed></extensions></trkpt>
   <trkpt lat="59.3258988692" lon="34.7057926595"><ele>168.721</ele><time>2026-08-17T02:33:00.293Z</time><hdop>3.0</hdop><vdop>2.5</vdop><extensions><gom:speed>0.123</gom:speed></extensions></trkpt>
   <trkpt lat="59.3258983663" lon="34.7057872951"><ele>168.746</ele><time>2026-08-17T02:33:01.648Z</time><hdop>3.0</hdop><vdop>2.5</vdop><extensions><gom:speed>0.089</gom:speed></extensions></trkpt>
   <trkpt lat="59.3258983663" lon="34.7057855349"><ele>168.767</ele><time>2026-08-17T02:33:02.647Z</time><hdop>3.0</hdop><vdop>2.5</vdop><extensions><gom:speed>0.085</gom:speed></extensions></trkpt>
   <trkpt lat="59.3258983663" lon="34.7057837747"><ele>168.778</ele><time>2026-08-17T02:33:03.649Z</time><hdop>3.0</hdop><vdop>2.5</vdop><extensions><gom:speed>0.097</gom:speed></extensions></trkpt>
   <trkpt lat="59.3258983663" lon="34.7057830204"><ele>168.784</ele><time>2026-08-17T02:33:04.648Z</time><hdop>3.0</hdop><vdop>2.5</vdop><extensions><gom:speed>0.09</gom:speed></extensions></trkpt>
   <trkpt lat="59.3258982825" lon="34.7057823498"><ele>168.698</ele><time>2026-08-17T02:33:05.648Z</time><hdop>3.0</hdop><vdop>2.625</vdop><extensions><gom:speed>0.11</gom:speed></extensions></trkpt>
   <trkpt lat="59.3258983663" lon="34.7057808411"><ele>168.646</ele><time>2026-08-17T02:33:06.648Z</time><hdop>3.0</hdop><vdop>2.75</vdop><extensions><gom:speed>0.1</gom:speed></extensions></trkpt>
   <trkpt lat="59.3258988692" lon="34.7057798352"><ele>168.615</ele><time>2026-08-17T02:33:07.647Z</time><hdop>3.0</hdop><vdop>2.5</vdop><extensions><gom:speed>0.103</gom:speed></extensions></trkpt>
   <trkpt lat="59.3258990788" lon="34.7057785779"><ele>168.596</ele><time>2026-08-17T02:33:08.648Z</time><hdop>3.0</hdop><vdop>2.5</vdop><extensions><gom:speed>0.087</gom:speed></extensions></trkpt>
   <trkpt lat="59.3258988692" lon="34.7057774883"><ele>168.583</ele><time>2026-08-17T02:33:09.648Z</time><hdop>3.0</hdop><vdop>2.5</vdop><extensions><gom:speed>0.096</gom:speed></extensions></trkpt>
   <trkpt lat="59.3258983663" lon="34.7057767339"><ele>168.575</ele><time>2026-08-17T02:33:10.648Z</time><hdop>3.0</hdop><vdop>2.5</vdop><extensions><gom:speed>0.091</gom:speed></extensions></trkpt>
   <trkpt lat="59.3258991626" lon="34.7057760634"><ele>168.571</ele><time>2026-08-17T02:33:11.423Z</time><hdop>3.0</hdop><vdop>2.5</vdop><extensions><gom:speed>0.092</gom:speed></extensions></trkpt>
   <trkpt lat="59.325898995" lon="34.7057766501"><ele>168.578</ele><time>2026-08-17T02:33:12.648Z</time><hdop>3.0</hdop><vdop>2.5</vdop><extensions><gom:speed>0.085</gom:speed></extensions></trkpt>
   <trkpt lat="59.3258987854" lon="34.705776231"><ele>168.582</ele><time>2026-08-17T02:33:13.507Z</time><hdop>3.0</hdop><vdop>2.5</vdop><extensions><gom:speed>0.114</gom:speed></extensions></trkpt>
   <trkpt lat="59.325898995" lon="34.7057749737"><ele>168.624</ele><time>2026-08-17T02:33:14.428Z</time><hdop>3.0</hdop><vdop>2.5</vdop><extensions><gom:speed>0.133</gom:speed></extensions></trkpt>
   <trkpt lat="59.325898995" lon="34.7057712857"><ele>168.787</ele><time>2026-08-17T02:33:15.025Z</time><hdop>3.0</hdop><vdop>2.5</vdop><extensions><gom:speed>0.121</gom:speed></extensions></trkpt>
   <trkpt lat="59.325898995" lon="34.705770196"><ele>169.018</ele><time>2026-08-17T02:33:15.652Z</time><hdop>3.0</hdop><vdop>2.5</vdop><extensions><gom:speed>0.085</gom:speed></extensions></trkpt>
   <trkpt lat="59.3259001684" lon="34.7057614789"><ele>169.16</ele><time>2026-08-17T02:33:16.647Z</time><hdop>3.0</hdop><vdop>2.5</vdop><extensions><gom:speed>0.12</gom:speed></extensions></trkpt>
   <trkpt lat="59.3259002941" lon="34.7057585452"><ele>169.539</ele><time>2026-08-17T02:33:17.649Z</time><hdop>3.0</hdop><vdop>2.5</vdop><extensions><gom:speed>0.123</gom:speed></extensions></trkpt>
   <trkpt lat="59.3259002941" lon="34.7057582937"><ele>169.765</ele><time>2026-08-17T02:33:18.607Z</time><hdop>3.0</hdop><vdop>2.5</vdop><extensions><gom:speed>0.124</gom:speed></extensions></trkpt>
   <trkpt lat="59.3259007971" lon="34.7057520911"><ele>169.821</ele><time>2026-08-17T02:33:19.652Z</time><hdop>3.0</hdop><vdop>2.5</vdop><extensions><gom:speed>0.127</gom:speed></extensions></trkpt>
   <trkpt lat="59.3259024734" lon="34.7057415299"><ele>169.854</ele><time>2026-08-17T02:33:20.649Z</time><hdop>3.0</hdop><vdop>2.5</vdop><extensions><gom:speed>0.133</gom:speed></extensions></trkpt>
   <trkpt lat="59.3259030602" lon="34.7057402726"><ele>169.873</ele><time>2026-08-17T02:33:21.480Z</time><hdop>3.0</hdop><vdop>2.5</vdop><extensions><gom:speed>0.203</gom:speed></extensions></trkpt>
   <trkpt lat="59.3259070835" lon="34.7057307173"><ele>170.022</ele><time>2026-08-17T02:33:22.229Z</time><hdop>3.0</hdop><vdop>2.5</vdop><extensions><gom:speed>0.356</gom:speed></extensions></trkpt>
   <trkpt lat="59.3259131604" lon="34.7057175577"><ele>170.089</ele><time>2026-08-17T02:33:23.069Z</time><hdop>3.0</hdop><vdop>2.562</vdop><extensions><gom:speed>0.554</gom:speed></extensions></trkpt>
   <trkpt lat="59.3259215842" lon="34.7057037275"><ele>170.051</ele><time>2026-08-17T02:33:23.648Z</time><hdop>3.0</hdop><vdop>2.625</vdop><extensions><gom:speed>0.706</gom:speed></extensions></trkpt>
   <trkpt lat="59.3259275772" lon="34.7056962677"><ele>170.028</ele><time>2026-08-17T02:33:24.485Z</time><hdop>3.0</hdop><vdop>2.625</vdop><extensions><gom:speed>0.749</gom:speed></extensions></trkpt>
   <trkpt lat="59.3259387671" lon="34.7056813479"><ele>170.435</ele><time>2026-08-17T02:33:25.124Z</time><hdop>3.062</hdop><vdop>2.687</vdop><extensions><gom:speed>0.851</gom:speed></extensions></trkpt>
   <trkpt lat="59.3259467718" lon="34.7056726307"><ele>170.75</ele><time>2026-08-17T02:33:25.649Z</time><hdop>3.062</hdop><vdop>2.625</vdop><extensions><gom:speed>0.76</gom:speed></extensions></trkpt>
   <trkpt lat="59.3259544831" lon="34.7056709543"><ele>170.491</ele><time>2026-08-17T02:33:26.652Z</time><hdop>3.062</hdop><vdop>2.625</vdop><extensions><gom:speed>0.739</gom:speed></extensions></trkpt>
   <trkpt lat="59.3259714984" lon="34.7056613989"><ele>170.449</ele><time>2026-08-17T02:33:27.648Z</time><hdop>3.062</hdop><vdop>2.687</vdop><extensions><gom:speed>0.754</gom:speed></extensions></trkpt>
   <trkpt lat="59.3259770724" lon="34.7056565374"><ele>170.424</ele><time>2026-08-17T02:33:28.502Z</time><hdop>3.062</hdop><vdop>2.687</vdop><extensions><gom:speed>0.724</gom:speed></extensions></trkpt>
   <trkpt lat="59.3259870888" lon="34.7056478203"><ele>170.748</ele><time>2026-08-17T02:33:29.362Z</time><hdop>3.062</hdop><vdop>2.75</vdop><extensions><gom:speed>0.691</gom:speed></extensions></trkpt>
   <trkpt lat="59.3259949677" lon="34.705640528"><ele>171.143</ele><time>2026-08-17T02:33:30.041Z</time><hdop>3.0</hdop><vdop>2.812</vdop><extensions><gom:speed>0.686</gom:speed></extensions></trkpt>
   <trkpt lat="59.3259977757" lon="34.7056357503"><ele>171.699</ele><time>2026-08-17T02:33:30.653Z</time><hdop>3.0</hdop><vdop>2.625</vdop><extensions><gom:speed>0.636</gom:speed></extensions></trkpt>
   <trkpt lat="59.3260047746" lon="34.7056258597"><ele>172.031</ele><time>2026-08-17T02:33:31.628Z</time><hdop>3.0</hdop><vdop>2.625</vdop><extensions><gom:speed>0.608</gom:speed></extensions></trkpt>
   <trkpt lat="59.3260140785" lon="34.7056147956"><ele>172.685</ele><time>2026-08-17T02:33:32.647Z</time><hdop>3.0</hdop><vdop>2.5</vdop><extensions><gom:speed>0.535</gom:speed></extensions></trkpt>
   <trkpt lat="59.326017096" lon="34.705611359"><ele>173.076</ele><time>2026-08-17T02:33:33.480Z</time><hdop>3.0</hdop><vdop>2.5</vdop><extensions><gom:speed>0.481</gom:speed></extensions></trkpt>
   <trkpt lat="59.3260214965" lon="34.7056045696"><ele>173.353</ele><time>2026-08-17T02:33:34.390Z</time><hdop>3.0</hdop><vdop>2.5</vdop><extensions><gom:speed>0.37</gom:speed></extensions></trkpt>
   <trkpt lat="59.3260279924" lon="34.705597445"><ele>173.662</ele><time>2026-08-17T02:33:35.422Z</time><hdop>3.0</hdop><vdop>2.5</vdop><extensions><gom:speed>0.238</gom:speed></extensions></trkpt>
   <trkpt lat="59.3260361648" lon="34.7055854589"><ele>173.921</ele><time>2026-08-17T02:33:36.323Z</time><hdop>3.0</hdop><vdop>2.625</vdop><extensions><gom:speed>0.279</gom:speed></extensions></trkpt>
   <trkpt lat="59.326046265" lon="34.7055666834"><ele>174.209</ele><time>2026-08-17T02:33:37.648Z</time><hdop>3.0</hdop><vdop>2.812</vdop><extensions><gom:speed>0.41</gom:speed></extensions></trkpt>
   <trkpt lat="59.3260486957" lon="34.7055554517"><ele>173.883</ele><time>2026-08-17T02:33:38.652Z</time><hdop>3.0</hdop><vdop>2.562</vdop><extensions><gom:speed>0.312</gom:speed></extensions></trkpt>
   <trkpt lat="59.3260496597" lon="34.7055442199"><ele>173.634</ele><time>2026-08-17T02:33:39.652Z</time><hdop>3.0</hdop><vdop>2.625</vdop><extensions><gom:speed>0.385</gom:speed></extensions></trkpt>
   <trkpt lat="59.3260486957" lon="34.705537263"><ele>173.485</ele><time>2026-08-17T02:33:40.623Z</time><hdop>3.0</hdop><vdop>2.625</vdop><extensions><gom:speed>0.352</gom:speed></extensions></trkpt>
   <trkpt lat="59.3260463907" lon="34.7055340778"><ele>173.159</ele><time>2026-08-17T02:33:41.301Z</time><hdop>3.0</hdop><vdop>2.75</vdop><extensions><gom:speed>0.286</gom:speed></extensions></trkpt>
   <trkpt lat="59.3260454687" lon="34.7055300545"><ele>172.857</ele><time>2026-08-17T02:33:42.201Z</time><hdop>3.0</hdop><vdop>2.75</vdop><extensions><gom:speed>0.26</gom:speed></extensions></trkpt>
   <trkpt lat="59.3260461812" lon="34.7055278752"><ele>172.71</ele><time>2026-08-17T02:33:42.652Z</time><hdop>3.0</hdop><vdop>2.75</vdop><extensions><gom:speed>0.265</gom:speed></extensions></trkpt>
   <trkpt lat="59.3260460974" lon="34.7055216726"><ele>172.622</ele><time>2026-08-17T02:33:43.346Z</time><hdop>3.0</hdop><vdop>2.75</vdop><extensions><gom:speed>0.301</gom:speed></extensions></trkpt>
   <trkpt lat="59.3260480671" lon="34.7055132907"><ele>172.642</ele><time>2026-08-17T02:33:44.346Z</time><hdop>3.0</hdop><vdop>2.625</vdop><extensions><gom:speed>0.353</gom:speed></extensions></trkpt>
   <trkpt lat="59.3260509589" lon="34.7055004664"><ele>172.844</ele><time>2026-08-17T02:33:45.520Z</time><hdop>3.0</hdop><vdop>2.562</vdop><extensions><gom:speed>0.411</gom:speed></extensions></trkpt>
   <trkpt lat="59.3260537668" lon="34.7054887317"><ele>173.099</ele><time>2026-08-17T02:33:46.652Z</time><hdop>3.0</hdop><vdop>2.5</vdop><extensions><gom:speed>0.375</gom:speed></extensions></trkpt>
   <trkpt lat="59.3260541859" lon="34.705483954"><ele>173.168</ele><time>2026-08-17T02:33:47.652Z</time><hdop>3.0</hdop><vdop>2.5</vdop><extensions><gom:speed>0.202</gom:speed></extensions></trkpt>
   <trkpt lat="59.3260544793" lon="34.7054800984"><ele>173.208</ele><time>2026-08-17T02:33:48.656Z</time><hdop>3.0</hdop><vdop>2.5</vdop><extensions><gom:speed>0.086</gom:speed></extensions></trkpt>
   <trkpt lat="59.3260546888" lon="34.7054778353"><ele>173.23</ele><time>2026-08-17T02:33:49.668Z</time><hdop>3.0</hdop><vdop>2.5</vdop><extensions><gom:speed>0.046</gom:speed></extensions></trkpt>
   <trkpt lat="59.3260542697" lon="34.7054710459"><ele>173.239</ele><time>2026-08-17T02:33:50.648Z</time><hdop>3.0</hdop><vdop>2.5</vdop><extensions><gom:speed>0.099</gom:speed></extensions></trkpt>
   <trkpt lat="59.3260543954" lon="34.7054689504"><ele>173.243</ele><time>2026-08-17T02:33:51.647Z</time><hdop>3.0</hdop><vdop>2.5</vdop><extensions><gom:speed>0.091</gom:speed></extensions></trkpt>
   <trkpt lat="59.3260540602" lon="34.7054674417"><ele>173.244</ele><time>2026-08-17T02:33:52.648Z</time><hdop>3.0</hdop><vdop>2.5</vdop><extensions><gom:speed>0.097</gom:speed></extensions></trkpt>
   <trkpt lat="59.3260541859" lon="34.7054681961"><ele>173.243</ele><time>2026-08-17T02:33:53.652Z</time><hdop>3.0</hdop><vdop>2.5</vdop><extensions><gom:speed>0.013</gom:speed></extensions></trkpt>
   <trkpt lat="59.3260537668" lon="34.7054680284"><ele>173.243</ele><time>2026-08-17T02:33:54.648Z</time><hdop>3.0</hdop><vdop>2.5</vdop><extensions><gom:speed>0.092</gom:speed></extensions></trkpt>
   <trkpt lat="59.326053683" lon="34.7054685313"><ele>173.241</ele><time>2026-08-17T02:33:55.652Z</time><hdop>3.0</hdop><vdop>2.5</vdop><extensions><gom:speed>0.017</gom:speed></extensions></trkpt>
   <trkpt lat="59.3260533896" lon="34.7054664359"><ele>173.239</ele><time>2026-08-17T02:33:56.649Z</time><hdop>3.0</hdop><vdop>2.5</vdop><extensions><gom:speed>0.101</gom:speed></extensions></trkpt>
   <trkpt lat="59.3260533896" lon="34.7054653462"><ele>173.238</ele><time>2026-08-17T02:33:57.662Z</time><hdop>3.0</hdop><vdop>2.5</vdop><extensions><gom:speed>0.015</gom:speed></extensions></trkpt>
   <trkpt lat="59.3260540602" lon="34.7054665197"><ele>173.241</ele><time>2026-08-17T02:33:58.673Z</time><hdop>3.0</hdop><vdop>2.5</vdop><extensions><gom:speed>0.015</gom:speed></extensions></trkpt>
   <trkpt lat="59.326053683" lon="34.7054662682"><ele>173.332</ele><time>2026-08-17T02:33:59.648Z</time><hdop>3.0</hdop><vdop>2.5</vdop><extensions><gom:speed>0.097</gom:speed></extensions></trkpt>
   <trkpt lat="59.3260539763" lon="34.7054678608"><ele>173.386</ele><time>2026-08-17T02:34:00.652Z</time><hdop>3.0</hdop><vdop>2.5</vdop><extensions><gom:speed>0.016</gom:speed></extensions></trkpt>
   <trkpt lat="59.3260538925" lon="34.7054679446"><ele>173.419</ele><time>2026-08-17T02:34:01.648Z</time><hdop>3.0</hdop><vdop>2.5</vdop><extensions><gom:speed>0.079</gom:speed></extensions></trkpt>
   <trkpt lat="59.3260544793" lon="34.7054685313"><ele>173.438</ele><time>2026-08-17T02:34:02.214Z</time><hdop>3.0</hdop><vdop>2.5</vdop><extensions><gom:speed>0.062</gom:speed></extensions></trkpt>
   <trkpt lat="59.3260540602" lon="34.7054670226"><ele>173.4</ele><time>2026-08-17T02:34:03.648Z</time><hdop>3.0</hdop><vdop>2.5</vdop><extensions><gom:speed>0.114</gom:speed></extensions></trkpt>
   <trkpt lat="59.3260541859" lon="34.7054671902"><ele>173.245</ele><time>2026-08-17T02:34:04.652Z</time><hdop>3.0</hdop><vdop>2.5</vdop><extensions><gom:speed>0.064</gom:speed></extensions></trkpt>
   <trkpt lat="59.3260544793" lon="34.7054649271"><ele>173.153</ele><time>2026-08-17T02:34:05.563Z</time><hdop>3.0</hdop><vdop>2.5</vdop><extensions><gom:speed>0.141</gom:speed></extensions></trkpt>
   <trkpt lat="59.3260551917" lon="34.7054647595"><ele>173.069</ele><time>2026-08-17T02:34:06.180Z</time><hdop>3.0</hdop><vdop>2.5</vdop><extensions><gom:speed>0.159</gom:speed></extensions></trkpt>
   <trkpt lat="59.3260558623" lon="34.7054636698"><ele>172.996</ele><time>2026-08-17T02:34:06.648Z</time><hdop>3.0</hdop><vdop>2.562</vdop><extensions><gom:speed>0.164</gom:speed></extensions></trkpt>
   <trkpt lat="59.3260569938" lon="34.705458976"><ele>172.787</ele><time>2026-08-17T02:34:07.652Z</time><hdop>3.062</hdop><vdop>2.75</vdop><extensions><gom:speed>0.212</gom:speed></extensions></trkpt>
   <trkpt lat="59.326058293" lon="34.7054552879"><ele>172.632</ele><time>2026-08-17T02:34:08.648Z</time><hdop>3.125</hdop><vdop>2.625</vdop><extensions><gom:speed>0.439</gom:speed></extensions></trkpt>
   <trkpt lat="59.3260598856" lon="34.7054477442"><ele>172.696</ele><time>2026-08-17T02:34:09.652Z</time><hdop>3.187</hdop><vdop>2.5</vdop><extensions><gom:speed>0.439</gom:speed></extensions></trkpt>
   <trkpt lat="59.3260606819" lon="34.7054449782"><ele>172.734</ele><time>2026-08-17T02:34:10.480Z</time><hdop>3.25</hdop><vdop>2.5</vdop><extensions><gom:speed>0.261</gom:speed></extensions></trkpt>
   <trkpt lat="59.3260623582" lon="34.7054388594"><ele>173.342</ele><time>2026-08-17T02:34:11.603Z</time><hdop>3.437</hdop><vdop>2.5</vdop><extensions><gom:speed>0.422</gom:speed></extensions></trkpt>
   <trkpt lat="59.3260622744" lon="34.705443218"><ele>173.483</ele><time>2026-08-17T02:34:12.652Z</time><hdop>3.625</hdop><vdop>2.5</vdop><extensions><gom:speed>0.22</gom:speed></extensions></trkpt>
   <trkpt lat="59.3260648728" lon="34.7054349199"><ele>173.565</ele><time>2026-08-17T02:34:13.648Z</time><hdop>3.625</hdop><vdop>2.5</vdop><extensions><gom:speed>0.256</gom:speed></extensions></trkpt>
   <trkpt lat="59.3260668845" lon="34.7054301422"><ele>173.61</ele><time>2026-08-17T02:34:14.648Z</time><hdop>3.687</hdop><vdop>2.5</vdop><extensions><gom:speed>0.24</gom:speed></extensions></trkpt>
   <trkpt lat="59.3260732966" lon="34.7054218441"><ele>173.415</ele><time>2026-08-17T02:34:15.648Z</time><hdop>3.625</hdop><vdop>2.5</vdop><extensions><gom:speed>0.152</gom:speed></extensions></trkpt>
   <trkpt lat="59.3260718717" lon="34.7054241911"><ele>173.639</ele><time>2026-08-17T02:34:16.652Z</time><hdop>3.437</hdop><vdop>2.5</vdop><extensions><gom:speed>0.038</gom:speed></extensions></trkpt>
   <trkpt lat="59.3260745958" lon="34.7054176532"><ele>173.714</ele><time>2026-08-17T02:34:17.654Z</time><hdop>3.375</hdop><vdop>2.5</vdop><extensions><gom:speed>0.037</gom:speed></extensions></trkpt>
   <trkpt lat="59.3260759788" lon="34.7054128755"><ele>173.76</ele><time>2026-08-17T02:34:18.220Z</time><hdop>3.25</hdop><vdop>2.5</vdop><extensions><gom:speed>0.092</gom:speed></extensions></trkpt>
   <trkpt lat="59.3260762722" lon="34.7054093551"><ele>173.339</ele><time>2026-08-17T02:34:18.746Z</time><hdop>3.125</hdop><vdop>2.5</vdop><extensions><gom:speed>0.101</gom:speed></extensions></trkpt>
   <trkpt lat="59.3260761884" lon="34.705408936"><ele>173.088</ele><time>2026-08-17T02:34:19.283Z</time><hdop>3.125</hdop><vdop>2.5</vdop><extensions><gom:speed>0.123</gom:speed></extensions></trkpt>
   <trkpt lat="59.3260756855" lon="34.7054035716"><ele>172.681</ele><time>2026-08-17T02:34:19.880Z</time><hdop>3.0</hdop><vdop>2.5</vdop><extensions><gom:speed>0.153</gom:speed></extensions></trkpt>
   <trkpt lat="59.3260738834" lon="34.7054006379"><ele>172.131</ele><time>2026-08-17T02:34:20.649Z</time><hdop>3.0</hdop><vdop>2.625</vdop><extensions><gom:speed>0.168</gom:speed></extensions></trkpt>
   <trkpt lat="59.3260725842" lon="34.7053998836"><ele>171.802</ele><time>2026-08-17T02:34:21.681Z</time><hdop>3.0</hdop><vdop>2.625</vdop><extensions><gom:speed>0.167</gom:speed></extensions></trkpt>
   <trkpt lat="59.3260676808" lon="34.7053975366"><ele>171.123</ele><time>2026-08-17T02:34:22.652Z</time><hdop>3.0</hdop><vdop>2.875</vdop><extensions><gom:speed>0.22</gom:speed></extensions></trkpt>
   <trkpt lat="59.3260534734" lon="34.7053945191"><ele>170.51</ele><time>2026-08-17T02:34:23.648Z</time><hdop>3.0</hdop><vdop>2.937</vdop><extensions><gom:speed>0.453</gom:speed></extensions></trkpt>
   <trkpt lat="59.3260506655" lon="34.7053912502"><ele>170.144</ele><time>2026-08-17T02:34:24.443Z</time><hdop>3.0</hdop><vdop>2.937</vdop><extensions><gom:speed>0.436</gom:speed></extensions></trkpt>
   <trkpt lat="59.3260478995" lon="34.7053921722"><ele>169.299</ele><time>2026-08-17T02:34:25.485Z</time><hdop>3.0</hdop><vdop>3.0</vdop><extensions><gom:speed>0.351</gom:speed></extensions></trkpt>
   <trkpt lat="59.3260455944" lon="34.7053917531"><ele>168.957</ele><time>2026-08-17T02:34:26.325Z</time><hdop>3.0</hdop><vdop>3.125</vdop><extensions><gom:speed>0.309</gom:speed></extensions></trkpt>
   <trkpt lat="59.3260399786" lon="34.7053878974"><ele>168.733</ele><time>2026-08-17T02:34:27.205Z</time><hdop>3.0</hdop><vdop>3.375</vdop><extensions><gom:speed>0.315</gom:speed></extensions></trkpt>
   <trkpt lat="59.3260310937" lon="34.7053781744"><ele>168.777</ele><time>2026-08-17T02:34:28.540Z</time><hdop>3.0</hdop><vdop>3.312</vdop><extensions><gom:speed>0.326</gom:speed></extensions></trkpt>
   <trkpt lat="59.326024472" lon="34.7053707984"><ele>169.167</ele><time>2026-08-17T02:34:29.189Z</time><hdop>3.0</hdop><vdop>3.125</vdop><extensions><gom:speed>0.34</gom:speed></extensions></trkpt>
   <trkpt lat="59.3260231728" lon="34.7053690382"><ele>169.357</ele><time>2026-08-17T02:34:29.653Z</time><hdop>3.0</hdop><vdop>3.125</vdop><extensions><gom:speed>0.34</gom:speed></extensions></trkpt>
   <trkpt lat="59.3260103904" lon="34.7053540345"><ele>169.466</ele><time>2026-08-17T02:34:30.648Z</time><hdop>3.0</hdop><vdop>3.062</vdop><extensions><gom:speed>0.37</gom:speed></extensions></trkpt>
   <trkpt lat="59.326011061" lon="34.7053538669"><ele>169.129</ele><time>2026-08-17T02:34:31.652Z</time><hdop>3.0</hdop><vdop>2.812</vdop><extensions><gom:speed>0.196</gom:speed></extensions></trkpt>
   <trkpt lat="59.3260051937" lon="34.7053478319"><ele>168.927</ele><time>2026-08-17T02:34:32.122Z</time><hdop>3.0</hdop><vdop>2.812</vdop><extensions><gom:speed>0.246</gom:speed></extensions></trkpt>
   <trkpt lat="59.3259999969" lon="34.7053430543"><ele>168.605</ele><time>2026-08-17T02:34:32.648Z</time><hdop>3.0</hdop><vdop>2.937</vdop><extensions><gom:speed>0.27</gom:speed></extensions></trkpt>
   <trkpt lat="59.3259991587" lon="34.7053439763"><ele>168.356</ele><time>2026-08-17T02:34:33.652Z</time><hdop>3.0</hdop><vdop>3.125</vdop><extensions><gom:speed>0.14</gom:speed></extensions></trkpt>
   <trkpt lat="59.325992998" lon="34.7053396177"><ele>168.411</ele><time>2026-08-17T02:34:34.652Z</time><hdop>3.0</hdop><vdop>3.062</vdop><extensions><gom:speed>0.224</gom:speed></extensions></trkpt>
   <trkpt lat="59.325987885" lon="34.7053362649"><ele>168.445</ele><time>2026-08-17T02:34:35.582Z</time><hdop>3.0</hdop><vdop>3.062</vdop><extensions><gom:speed>0.185</gom:speed></extensions></trkpt>
   <trkpt lat="59.3259696963" lon="34.7053292241"><ele>168.907</ele><time>2026-08-17T02:34:36.634Z</time><hdop>3.0</hdop><vdop>3.562</vdop><extensions><gom:speed>0.559</gom:speed></extensions></trkpt>
   <trkpt lat="59.3259608953" lon="34.7053227701"><ele>169.2</ele><time>2026-08-17T02:34:37.282Z</time><hdop>3.0</hdop><vdop>3.312</vdop><extensions><gom:speed>0.52</gom:speed></extensions></trkpt>
   <trkpt lat="59.3259488673" lon="34.7053129632"><ele>169.603</ele><time>2026-08-17T02:34:38.041Z</time><hdop>3.0</hdop><vdop>3.125</vdop><extensions><gom:speed>0.674</gom:speed></extensions></trkpt>
   <trkpt lat="59.3259477776" lon="34.7053108677"><ele>169.909</ele><time>2026-08-17T02:34:38.652Z</time><hdop>3.0</hdop><vdop>3.25</vdop><extensions><gom:speed>0.537</gom:speed></extensions></trkpt>
   <trkpt lat="59.3259321873" lon="34.705287147"><ele>170.296</ele><time>2026-08-17T02:34:39.648Z</time><hdop>3.0</hdop><vdop>3.687</vdop><extensions><gom:speed>0.732</gom:speed></extensions></trkpt>
   <trkpt lat="59.3259312653" lon="34.705279268"><ele>170.527</ele><time>2026-08-17T02:34:40.641Z</time><hdop>3.0</hdop><vdop>3.687</vdop><extensions><gom:speed>0.534</gom:speed></extensions></trkpt>
   <trkpt lat="59.3259275772" lon="34.7052753285"><ele>170.626</ele><time>2026-08-17T02:34:41.481Z</time><hdop>3.0</hdop><vdop>3.437</vdop><extensions><gom:speed>0.353</gom:speed></extensions></trkpt>
   <trkpt lat="59.3259243921" lon="34.7052756638"><ele>170.688</ele><time>2026-08-17T02:34:42.652Z</time><hdop>3.0</hdop><vdop>3.437</vdop><extensions><gom:speed>0.16</gom:speed></extensions></trkpt>
   <trkpt lat="59.3259213746" lon="34.7052751608"><ele>170.724</ele><time>2026-08-17T02:34:43.657Z</time><hdop>3.0</hdop><vdop>3.5</vdop><extensions><gom:speed>0.18</gom:speed></extensions></trkpt>
   <trkpt lat="59.3259199916" lon="34.7052740712"><ele>170.745</ele><time>2026-08-17T02:34:44.283Z</time><hdop>3.0</hdop><vdop>3.5</vdop><extensions><gom:speed>0.169</gom:speed></extensions></trkpt>
   <trkpt lat="59.325919363" lon="34.7052738197"><ele>170.722</ele><time>2026-08-17T02:34:44.961Z</time><hdop>3.0</hdop><vdop>3.687</vdop><extensions><gom:speed>0.154</gom:speed></extensions></trkpt>
   <trkpt lat="59.3259194887" lon="34.7052740712"><ele>170.7</ele><time>2026-08-17T02:34:45.652Z</time><hdop>3.0</hdop><vdop>4.125</vdop><extensions><gom:speed>0.086</gom:speed></extensions></trkpt>
   <trkpt lat="59.3259178961" lon="34.7052708861"><ele>170.686</ele><time>2026-08-17T02:34:46.641Z</time><hdop>3.0</hdop><vdop>4.125</vdop><extensions><gom:speed>0.161</gom:speed></extensions></trkpt>
   <trkpt lat="59.3259159683" lon="34.7052675333"><ele>170.458</ele><time>2026-08-17T02:34:47.652Z</time><hdop>3.0</hdop><vdop>4.937</vdop><extensions><gom:speed>0.168</gom:speed></extensions></trkpt>
   <trkpt lat="59.3259133699" lon="34.7052641805"><ele>170.679</ele><time>2026-08-17T02:34:48.654Z</time><hdop>3.0</hdop><vdop>4.25</vdop><extensions><gom:speed>0.156</gom:speed></extensions></trkpt>
   <trkpt lat="59.3259060777" lon="34.7052490931"><ele>170.825</ele><time>2026-08-17T02:34:49.648Z</time><hdop>3.0</hdop><vdop>4.062</vdop><extensions><gom:speed>0.297</gom:speed></extensions></trkpt>
   <trkpt lat="59.3259045689" lon="34.7052463271"><ele>170.912</ele><time>2026-08-17T02:34:50.526Z</time><hdop>3.0</hdop><vdop>4.062</vdop><extensions><gom:speed>0.284</gom:speed></extensions></trkpt>
   <trkpt lat="59.3259028925" lon="34.705238951"><ele>171.147</ele><time>2026-08-17T02:34:51.652Z</time><hdop>3.0</hdop><vdop>3.437</vdop><extensions><gom:speed>0.184</gom:speed></extensions></trkpt>
   <trkpt lat="59.3259005875" lon="34.7052210976"><ele>171.471</ele><time>2026-08-17T02:34:52.648Z</time><hdop>3.0</hdop><vdop>3.312</vdop><extensions><gom:speed>0.23</gom:speed></extensions></trkpt>
   <trkpt lat="59.3258992883" lon="34.7052194212"><ele>171.665</ele><time>2026-08-17T02:34:53.440Z</time><hdop>3.0</hdop><vdop>3.312</vdop><extensions><gom:speed>0.219</gom:speed></extensions></trkpt>
   <trkpt lat="59.325896187" lon="34.7052062616"><ele>172.422</ele><time>2026-08-17T02:34:54.361Z</time><hdop>3.0</hdop><vdop>3.187</vdop><extensions><gom:speed>0.308</gom:speed></extensions></trkpt>
   <trkpt lat="59.3258936724" lon="34.7051937726"><ele>172.536</ele><time>2026-08-17T02:34:55.180Z</time><hdop>3.0</hdop><vdop>3.312</vdop><extensions><gom:speed>0.293</gom:speed></extensions></trkpt>
   <trkpt lat="59.3258927923" lon="34.7051926829"><ele>172.649</ele><time>2026-08-17T02:34:55.656Z</time><hdop>3.0</hdop><vdop>3.312</vdop><extensions><gom:speed>0.278</gom:speed></extensions></trkpt>
   <trkpt lat="59.3258923732" lon="34.705178769"><ele>172.699</ele><time>2026-08-17T02:34:56.667Z</time><hdop>3.0</hdop><vdop>3.25</vdop><extensions><gom:speed>0.2</gom:speed></extensions></trkpt>
   <trkpt lat="59.3258921637" lon="34.7051712252"><ele>172.728</ele><time>2026-08-17T02:34:57.680Z</time><hdop>3.0</hdop><vdop>3.187</vdop><extensions><gom:speed>0.141</gom:speed></extensions></trkpt>
   <trkpt lat="59.3258923732" lon="34.705161167"><ele>172.747</ele><time>2026-08-17T02:34:58.647Z</time><hdop>3.0</hdop><vdop>3.062</vdop><extensions><gom:speed>0.118</gom:speed></extensions></trkpt>
   <trkpt lat="59.3258920799" lon="34.7051594906"><ele>172.76</ele><time>2026-08-17T02:34:59.652Z</time><hdop>3.0</hdop><vdop>3.062</vdop><extensions><gom:speed>0.026</gom:speed></extensions></trkpt>
   <trkpt lat="59.3258927923" lon="34.7051557187"><ele>172.769</ele><time>2026-08-17T02:35:00.652Z</time><hdop>3.0</hdop><vdop>2.937</vdop><extensions><gom:speed>0.018</gom:speed></extensions></trkpt>
   <trkpt lat="59.3258927923" lon="34.7051524498"><ele>172.774</ele><time>2026-08-17T02:35:01.423Z</time><hdop>3.0</hdop><vdop>2.937</vdop><extensions><gom:speed>0.109</gom:speed></extensions></trkpt>
   <trkpt lat="59.3258927923" lon="34.7051516954"><ele>172.675</ele><time>2026-08-17T02:35:02.652Z</time><hdop>3.0</hdop><vdop>2.812</vdop><extensions><gom:speed>0.042</gom:speed></extensions></trkpt>
   <trkpt lat="59.3258925828" lon="34.705150941"><ele>172.616</ele><time>2026-08-17T02:35:03.652Z</time><hdop>3.0</hdop><vdop>2.937</vdop><extensions><gom:speed>0.028</gom:speed></extensions></trkpt>
   <trkpt lat="59.3258921637" lon="34.7051506896"><ele>172.701</ele><time>2026-08-17T02:35:04.652Z</time><hdop>3.0</hdop><vdop>2.937</vdop><extensions><gom:speed>0.024</gom:speed></extensions></trkpt>
   <trkpt lat="59.3258902778" lon="34.7051516954"><ele>172.626</ele><time>2026-08-17T02:35:05.648Z</time><hdop>3.0</hdop><vdop>2.812</vdop><extensions><gom:speed>0.099</gom:speed></extensions></trkpt>
   <trkpt lat="59.3258905711" lon="34.705153288"><ele>172.397</ele><time>2026-08-17T02:35:06.652Z</time><hdop>3.0</hdop><vdop>3.312</vdop><extensions><gom:speed>0.042</gom:speed></extensions></trkpt>
   <trkpt lat="59.3258897749" lon="34.7051544614"><ele>172.107</ele><time>2026-08-17T02:35:07.655Z</time><hdop>3.0</hdop><vdop>3.062</vdop><extensions><gom:speed>0.026</gom:speed></extensions></trkpt>
   <trkpt lat="59.3258879727" lon="34.7051556349"><ele>171.939</ele><time>2026-08-17T02:35:08.652Z</time><hdop>3.0</hdop><vdop>3.062</vdop><extensions><gom:speed>0.017</gom:speed></extensions></trkpt>
   <trkpt lat="59.3258861706" lon="34.7051568922"><ele>171.839</ele><time>2026-08-17T02:35:09.658Z</time><hdop>3.0</hdop><vdop>2.937</vdop><extensions><gom:speed>0.017</gom:speed></extensions></trkpt>
   <trkpt lat="59.3258832789" lon="34.7051567245"><ele>171.785</ele><time>2026-08-17T02:35:10.648Z</time><hdop>3.0</hdop><vdop>2.75</vdop><extensions><gom:speed>0.059</gom:speed></extensions></trkpt>
   <trkpt lat="59.3258817701" lon="34.7051563893"><ele>171.758</ele><time>2026-08-17T02:35:11.648Z</time><hdop>3.0</hdop><vdop>2.562</vdop><extensions><gom:speed>0.074</gom:speed></extensions></trkpt>
   <trkpt lat="59.325881393" lon="34.7051577304"><ele>171.744</ele><time>2026-08-17T02:35:12.652Z</time><hdop>3.0</hdop><vdop>2.5</vdop><extensions><gom:speed>0.024</gom:speed></extensions></trkpt>
   <trkpt lat="59.3258796747" lon="34.7051582333"><ele>171.735</ele><time>2026-08-17T02:35:13.648Z</time><hdop>3.0</hdop><vdop>2.5</vdop><extensions><gom:speed>0.093</gom:speed></extensions></trkpt>
   <trkpt lat="59.3258796747" lon="34.7051586524"><ele>171.731</ele><time>2026-08-17T02:35:14.656Z</time><hdop>3.0</hdop><vdop>2.5</vdop><extensions><gom:speed>0.023</gom:speed></extensions></trkpt>
   <trkpt lat="59.3258788784" lon="34.70515882"><ele>171.727</ele><time>2026-08-17T02:35:15.652Z</time><hdop>3.0</hdop><vdop>2.5</vdop><extensions><gom:speed>0.022</gom:speed></extensions></trkpt>
   <trkpt lat="59.3258786688" lon="34.7051590715"><ele>171.725</ele><time>2026-08-17T02:35:16.652Z</time><hdop>3.0</hdop><vdop>2.5</vdop><extensions><gom:speed>0.003</gom:speed></extensions></trkpt>
   <trkpt lat="59.3258781659" lon="34.70515882"><ele>171.722</ele><time>2026-08-17T02:35:17.648Z</time><hdop>3.0</hdop><vdop>2.5</vdop><extensions><gom:speed>0.107</gom:speed></extensions></trkpt>
   <trkpt lat="59.325877663" lon="34.7051580657"><ele>171.724</ele><time>2026-08-17T02:35:18.648Z</time><hdop>3.0</hdop><vdop>2.5</vdop><extensions><gom:speed>0.09</gom:speed></extensions></trkpt>
   <trkpt lat="59.3258771601" lon="34.7051568922"><ele>171.73</ele><time>2026-08-17T02:35:19.652Z</time><hdop>3.0</hdop><vdop>2.5</vdop><extensions><gom:speed>0.091</gom:speed></extensions></trkpt>
   <trkpt lat="59.3258769925" lon="34.7051572275"><ele>171.736</ele><time>2026-08-17T02:35:20.648Z</time><hdop>3.0</hdop><vdop>2.5</vdop><extensions><gom:speed>0.079</gom:speed></extensions></trkpt>
   <trkpt lat="59.3258766991" lon="34.7051561378"><ele>171.738</ele><time>2026-08-17T02:35:21.658Z</time><hdop>3.0</hdop><vdop>2.5</vdop><extensions><gom:speed>0.079</gom:speed></extensions></trkpt>
   <trkpt lat="59.3258765734" lon="34.7051557187"><ele>171.739</ele><time>2026-08-17T02:35:22.652Z</time><hdop>3.0</hdop><vdop>2.5</vdop><extensions><gom:speed>0.076</gom:speed></extensions></trkpt>
   <trkpt lat="59.3258767829" lon="34.7051563893"><ele>171.739</ele><time>2026-08-17T02:35:23.648Z</time><hdop>3.0</hdop><vdop>2.5</vdop><extensions><gom:speed>0.073</gom:speed></extensions></trkpt>
   <trkpt lat="59.3258766991" lon="34.7051553834"><ele>171.739</ele><time>2026-08-17T02:35:24.652Z</time><hdop>3.0</hdop><vdop>2.5</vdop><extensions><gom:speed>0.073</gom:speed></extensions></trkpt>
   <trkpt lat="59.3258766991" lon="34.7051557187"><ele>171.739</ele><time>2026-08-17T02:35:25.648Z</time><hdop>3.0</hdop><vdop>2.5</vdop><extensions><gom:speed>0.069</gom:speed></extensions></trkpt>
   <trkpt lat="59.3258765734" lon="34.7051547967"><ele>171.739</ele><time>2026-08-17T02:35:26.652Z</time><hdop>3.0</hdop><vdop>2.5</vdop><extensions><gom:speed>0.069</gom:speed></extensions></trkpt>
   <trkpt lat="59.3258766991" lon="34.7051552996"><ele>171.74</ele><time>2026-08-17T02:35:27.649Z</time><hdop>3.0</hdop><vdop>2.5</vdop><extensions><gom:speed>0.067</gom:speed></extensions></trkpt>
   <trkpt lat="59.3258766991" lon="34.7051543776"><ele>171.743</ele><time>2026-08-17T02:35:28.659Z</time><hdop>3.0</hdop><vdop>2.5</vdop><extensions><gom:speed>0.068</gom:speed></extensions></trkpt>
   <trkpt lat="59.3258767829" lon="34.7051540423"><ele>171.746</ele><time>2026-08-17T02:35:29.652Z</time><hdop>3.0</hdop><vdop>2.5</vdop><extensions><gom:speed>0.071</gom:speed></extensions></trkpt>
   <trkpt lat="59.3258766991" lon="34.7051542938"><ele>171.746</ele><time>2026-08-17T02:35:30.647Z</time><hdop>3.0</hdop><vdop>2.5</vdop><extensions><gom:speed>0.074</gom:speed></extensions></trkpt>
   <trkpt lat="59.3258766991" lon="34.7051534556"><ele>171.744</ele><time>2026-08-17T02:35:31.652Z</time><hdop>3.0</hdop><vdop>2.562</vdop><extensions><gom:speed>0.074</gom:speed></extensions></trkpt>
   <trkpt lat="59.3258766991" lon="34.7051539585"><ele>171.741</ele><time>2026-08-17T02:35:32.648Z</time><hdop>3.0</hdop><vdop>2.625</vdop><extensions><gom:speed>0.074</gom:speed></extensions></trkpt>
   <trkpt lat="59.3258766991" lon="34.7051530365"><ele>171.74</ele><time>2026-08-17T02:35:33.652Z</time><hdop>3.0</hdop><vdop>2.687</vdop><extensions><gom:speed>0.074</gom:speed></extensions></trkpt>
   <trkpt lat="59.3258766991" lon="34.7051536232"><ele>171.737</ele><time>2026-08-17T02:35:34.648Z</time><hdop>3.0</hdop><vdop>2.687</vdop><extensions><gom:speed>0.071</gom:speed></extensions></trkpt>
   <trkpt lat="59.3258766991" lon="34.7051528689"><ele>171.737</ele><time>2026-08-17T02:35:35.652Z</time><hdop>3.0</hdop><vdop>2.75</vdop><extensions><gom:speed>0.072</gom:speed></extensions></trkpt>
   <trkpt lat="59.3258766991" lon="34.7051528689"><ele>171.736</ele><time>2026-08-17T02:35:36.652Z</time><hdop>3.0</hdop><vdop>2.875</vdop><extensions><gom:speed>0.071</gom:speed></extensions></trkpt>
   <trkpt lat="59.3258768667" lon="34.7051530365"><ele>171.734</ele><time>2026-08-17T02:35:37.652Z</time><hdop>3.0</hdop><vdop>2.937</vdop><extensions><gom:speed>0.07</gom:speed></extensions></trkpt>
   <trkpt lat="59.3258767829" lon="34.7051531203"><ele>171.732</ele><time>2026-08-17T02:35:38.653Z</time><hdop>3.0</hdop><vdop>2.812</vdop><extensions><gom:speed>0.069</gom:speed></extensions></trkpt>
   <trkpt lat="59.3258765734" lon="34.7051536232"><ele>171.729</ele><time>2026-08-17T02:35:39.648Z</time><hdop>3.0</hdop><vdop>2.687</vdop><extensions><gom:speed>0.068</gom:speed></extensions></trkpt>
   <trkpt lat="59.3258765734" lon="34.7051536232"><ele>171.728</ele><time>2026-08-17T02:35:40.647Z</time><hdop>3.0</hdop><vdop>2.562</vdop><extensions><gom:speed>0.067</gom:speed></extensions></trkpt>
   <trkpt lat="59.3258766991" lon="34.7051530365"><ele>171.726</ele><time>2026-08-17T02:35:41.650Z</time><hdop>3.0</hdop><vdop>2.5</vdop><extensions><gom:speed>0.068</gom:speed></extensions></trkpt>
   <trkpt lat="59.3258765734" lon="34.7051537909"><ele>171.725</ele><time>2026-08-17T02:35:42.648Z</time><hdop>3.0</hdop><vdop>2.5</vdop><extensions><gom:speed>0.066</gom:speed></extensions></trkpt>
   <trkpt lat="59.3258766991" lon="34.705153288"><ele>171.725</ele><time>2026-08-17T02:35:43.652Z</time><hdop>3.0</hdop><vdop>2.5</vdop><extensions><gom:speed>0.066</gom:speed></extensions></trkpt>
   <trkpt lat="59.3258765734" lon="34.7051531203"><ele>171.724</ele><time>2026-08-17T02:35:44.652Z</time><hdop>3.0</hdop><vdop>2.5</vdop><extensions><gom:speed>0.07</gom:speed></extensions></trkpt>
   <trkpt lat="59.3258765734" lon="34.7051533718"><ele>171.723</ele><time>2026-08-17T02:35:45.652Z</time><hdop>3.0</hdop><vdop>2.5</vdop><extensions><gom:speed>0.07</gom:speed></extensions></trkpt>
   <trkpt lat="59.3258765734" lon="34.7051534556"><ele>171.721</ele><time>2026-08-17T02:35:46.668Z</time><hdop>3.0</hdop><vdop>2.5</vdop><extensions><gom:speed>0.072</gom:speed></extensions></trkpt>
   <trkpt lat="59.3258765734" lon="34.7051543776"><ele>171.718</ele><time>2026-08-17T02:35:47.647Z</time><hdop>3.0</hdop><vdop>2.5</vdop><extensions><gom:speed>0.072</gom:speed></extensions></trkpt>
   <trkpt lat="59.3258765734" lon="34.7051543776"><ele>171.714</ele><time>2026-08-17T02:35:48.648Z</time><hdop>3.0</hdop><vdop>2.5</vdop><extensions><gom:speed>0.073</gom:speed></extensions></trkpt>
   <trkpt lat="59.3258765734" lon="34.7051544614"><ele>171.71</ele><time>2026-08-17T02:35:49.648Z</time><hdop>3.0</hdop><vdop>2.5</vdop><extensions><gom:speed>0.072</gom:speed></extensions></trkpt>
   <trkpt lat="59.3258764895" lon="34.7051540423"><ele>171.706</ele><time>2026-08-17T02:35:50.655Z</time><hdop>3.0</hdop><vdop>2.5</vdop><extensions><gom:speed>0.073</gom:speed></extensions></trkpt>
   <trkpt lat="59.3258763638" lon="34.7051547967"><ele>171.7</ele><time>2026-08-17T02:35:51.648Z</time><hdop>3.0</hdop><vdop>2.5</vdop><extensions><gom:speed>0.071</gom:speed></extensions></trkpt>
   <trkpt lat="59.3258763638" lon="34.7051544614"><ele>171.695</ele><time>2026-08-17T02:35:52.652Z</time><hdop>3.0</hdop><vdop>2.5</vdop><extensions><gom:speed>0.071</gom:speed></extensions></trkpt>
   <trkpt lat="59.32587628" lon="34.7051546291"><ele>171.688</ele><time>2026-08-17T02:35:53.652Z</time><hdop>3.0</hdop><vdop>2.5</vdop><extensions><gom:speed>0.07</gom:speed></extensions></trkpt>
   <trkpt lat="59.3258763638" lon="34.7051554673"><ele>171.679</ele><time>2026-08-17T02:35:54.648Z</time><hdop>3.0</hdop><vdop>2.5</vdop><extensions><gom:speed>0.072</gom:speed></extensions></trkpt>
   <trkpt lat="59.3258763638" lon="34.7051552996"><ele>171.67</ele><time>2026-08-17T02:35:55.652Z</time><hdop>3.0</hdop><vdop>2.5</vdop><extensions><gom:speed>0.072</gom:speed></extensions></trkpt>
   <trkpt lat="59.3258764895" lon="34.7051554673"><ele>171.66</ele><time>2026-08-17T02:35:56.652Z</time><hdop>3.0</hdop><vdop>2.5</vdop><extensions><gom:speed>0.071</gom:speed></extensions></trkpt>
   <trkpt lat="59.3258764895" lon="34.7051557187"><ele>171.651</ele><time>2026-08-17T02:35:57.656Z</time><hdop>3.0</hdop><vdop>2.5</vdop><extensions><gom:speed>0.072</gom:speed></extensions></trkpt>
   <trkpt lat="59.3258764895" lon="34.7051559702"><ele>171.642</ele><time>2026-08-17T02:35:58.648Z</time><hdop>3.0</hdop><vdop>2.5</vdop><extensions><gom:speed>0.073</gom:speed></extensions></trkpt>
   <trkpt lat="59.3258764895" lon="34.7051557187"><ele>171.633</ele><time>2026-08-17T02:35:59.652Z</time><hdop>3.0</hdop><vdop>2.5</vdop><extensions><gom:speed>0.074</gom:speed></extensions></trkpt>
   <trkpt lat="59.3258765734" lon="34.7051561378"><ele>171.625</ele><time>2026-08-17T02:36:00.648Z</time><hdop>3.0</hdop><vdop>2.625</vdop><extensions><gom:speed>0.073</gom:speed></extensions></trkpt>
   <trkpt lat="59.3258765734" lon="34.7051563893"><ele>171.617</ele><time>2026-08-17T02:36:01.648Z</time><hdop>3.0</hdop><vdop>2.875</vdop><extensions><gom:speed>0.072</gom:speed></extensions></trkpt>
   <trkpt lat="59.3258765734" lon="34.7051564731"><ele>171.608</ele><time>2026-08-17T02:36:02.649Z</time><hdop>3.0</hdop><vdop>3.187</vdop><extensions><gom:speed>0.071</gom:speed></extensions></trkpt>
   <trkpt lat="59.3258767829" lon="34.7051564731"><ele>171.598</ele><time>2026-08-17T02:36:03.647Z</time><hdop>3.0</hdop><vdop>3.437</vdop><extensions><gom:speed>0.072</gom:speed></extensions></trkpt>
   <trkpt lat="59.3258767829" lon="34.7051563893"><ele>171.588</ele><time>2026-08-17T02:36:04.657Z</time><hdop>3.0</hdop><vdop>3.312</vdop><extensions><gom:speed>0.072</gom:speed></extensions></trkpt>
   <trkpt lat="59.3258764895" lon="34.7051570598"><ele>171.58</ele><time>2026-08-17T02:36:05.648Z</time><hdop>3.0</hdop><vdop>3.5</vdop><extensions><gom:speed>0.072</gom:speed></extensions></trkpt>
   <trkpt lat="59.3258765734" lon="34.705156976"><ele>171.576</ele><time>2026-08-17T02:36:06.660Z</time><hdop>3.0</hdop><vdop>3.437</vdop><extensions><gom:speed>0.072</gom:speed></extensions></trkpt>
   <trkpt lat="59.3258763638" lon="34.7051575627"><ele>171.572</ele><time>2026-08-17T02:36:07.648Z</time><hdop>3.0</hdop><vdop>3.375</vdop><extensions><gom:speed>0.069</gom:speed></extensions></trkpt>
   <trkpt lat="59.32587628" lon="34.7051576466"><ele>171.57</ele><time>2026-08-17T02:36:08.647Z</time><hdop>3.0</hdop><vdop>3.312</vdop><extensions><gom:speed>0.069</gom:speed></extensions></trkpt>
   <trkpt lat="59.32587628" lon="34.7051576466"><ele>171.568</ele><time>2026-08-17T02:36:09.652Z</time><hdop>3.0</hdop><vdop>2.625</vdop><extensions><gom:speed>0.069</gom:speed></extensions></trkpt>
   <trkpt lat="59.3258761962" lon="34.7051583171"><ele>171.568</ele><time>2026-08-17T02:36:10.648Z</time><hdop>3.0</hdop><vdop>2.687</vdop><extensions><gom:speed>0.066</gom:speed></extensions></trkpt>
   <trkpt lat="59.3258761962" lon="34.7051583171"><ele>171.569</ele><time>2026-08-17T02:36:11.658Z</time><hdop>3.0</hdop><vdop>2.687</vdop><extensions><gom:speed>0.066</gom:speed></extensions></trkpt>
   <trkpt lat="59.3258761962" lon="34.7051589877"><ele>171.569</ele><time>2026-08-17T02:36:12.647Z</time><hdop>3.0</hdop><vdop>2.562</vdop><extensions><gom:speed>0.067</gom:speed></extensions></trkpt>
   <trkpt lat="59.3258761962" lon="34.7051589877"><ele>171.57</ele><time>2026-08-17T02:36:13.652Z</time><hdop>3.0</hdop><vdop>2.5</vdop><extensions><gom:speed>0.067</gom:speed></extensions></trkpt>
   <trkpt lat="59.3258761962" lon="34.7051591553"><ele>171.57</ele><time>2026-08-17T02:36:14.653Z</time><hdop>3.0</hdop><vdop>2.5</vdop><extensions><gom:speed>0.069</gom:speed></extensions></trkpt>
   <trkpt lat="59.3258761962" lon="34.7051595744"><ele>171.57</ele><time>2026-08-17T02:36:15.648Z</time><hdop>3.0</hdop><vdop>2.5</vdop><extensions><gom:speed>0.069</gom:speed></extensions></trkpt>
   <trkpt lat="59.3258761962" lon="34.705159742"><ele>171.569</ele><time>2026-08-17T02:36:16.652Z</time><hdop>3.0</hdop><vdop>2.5</vdop><extensions><gom:speed>0.07</gom:speed></extensions></trkpt>
   <trkpt lat="59.32587628" lon="34.7051604964"><ele>171.568</ele><time>2026-08-17T02:36:17.648Z</time><hdop>3.0</hdop><vdop>2.5</vdop><extensions><gom:speed>0.068</gom:speed></extensions></trkpt>
   <trkpt lat="59.32587628" lon="34.7051605802"><ele>171.569</ele><time>2026-08-17T02:36:18.652Z</time><hdop>3.0</hdop><vdop>2.5</vdop><extensions><gom:speed>0.069</gom:speed></extensions></trkpt>
   <trkpt lat="59.32587628" lon="34.7051604964"><ele>171.568</ele><time>2026-08-17T02:36:19.649Z</time><hdop>3.0</hdop><vdop>2.5</vdop><extensions><gom:speed>0.071</gom:speed></extensions></trkpt>
   <trkpt lat="59.32587628" lon="34.7051603288"><ele>171.567</ele><time>2026-08-17T02:36:20.648Z</time><hdop>3.0</hdop><vdop>2.5</vdop><extensions><gom:speed>0.072</gom:speed></extensions></trkpt>
   <trkpt lat="59.32587628" lon="34.7051604964"><ele>171.564</ele><time>2026-08-17T02:36:21.652Z</time><hdop>3.0</hdop><vdop>2.5</vdop><extensions><gom:speed>0.072</gom:speed></extensions></trkpt>
   <trkpt lat="59.32587628" lon="34.7051602449"><ele>171.562</ele><time>2026-08-17T02:36:22.648Z</time><hdop>3.0</hdop><vdop>2.5</vdop><extensions><gom:speed>0.072</gom:speed></extensions></trkpt>
   <trkpt lat="59.32587628" lon="34.7051601611"><ele>171.561</ele><time>2026-08-17T02:36:23.456Z</time><hdop>3.0</hdop><vdop>2.5</vdop><extensions><gom:speed>0.072</gom:speed></extensions></trkpt>
   <trkpt lat="59.32587628" lon="34.7051599935"><ele>171.559</ele><time>2026-08-17T02:36:24.648Z</time><hdop>3.0</hdop><vdop>2.5</vdop><extensions><gom:speed>0.07</gom:speed></extensions></trkpt>
   <trkpt lat="59.3258763638" lon="34.7051598259"><ele>171.557</ele><time>2026-08-17T02:36:25.648Z</time><hdop>3.0</hdop><vdop>2.5</vdop><extensions><gom:speed>0.07</gom:speed></extensions></trkpt>
   <trkpt lat="59.3258764895" lon="34.7051599935"><ele>171.556</ele><time>2026-08-17T02:36:26.652Z</time><hdop>3.0</hdop><vdop>2.5</vdop><extensions><gom:speed>0.07</gom:speed></extensions></trkpt>
   <trkpt lat="59.3258765734" lon="34.7051598259"><ele>171.555</ele><time>2026-08-17T02:36:27.648Z</time><hdop>3.0</hdop><vdop>2.5</vdop><extensions><gom:speed>0.07</gom:speed></extensions></trkpt>
   <trkpt lat="59.3258766991" lon="34.7051598259"><ele>171.553</ele><time>2026-08-17T02:36:28.648Z</time><hdop>3.0</hdop><vdop>2.5</vdop><extensions><gom:speed>0.067</gom:speed></extensions></trkpt>
   <trkpt lat="59.3258766991" lon="34.7051599935"><ele>171.552</ele><time>2026-08-17T02:36:29.121Z</time><hdop>3.0</hdop><vdop>2.5</vdop><extensions><gom:speed>0.067</gom:speed></extensions></trkpt>
   <trkpt lat="59.3258765734" lon="34.7051599935"><ele>171.55</ele><time>2026-08-17T02:36:29.648Z</time><hdop>3.0</hdop><vdop>2.5</vdop><extensions><gom:speed>0.069</gom:speed></extensions></trkpt>
   <trkpt lat="59.3258766991" lon="34.7051599935"><ele>171.549</ele><time>2026-08-17T02:36:30.653Z</time><hdop>3.0</hdop><vdop>2.5</vdop><extensions><gom:speed>0.069</gom:speed></extensions></trkpt>
   <trkpt lat="59.3258765734" lon="34.7051601611"><ele>171.547</ele><time>2026-08-17T02:36:31.652Z</time><hdop>3.0</hdop><vdop>2.5</vdop><extensions><gom:speed>0.07</gom:speed></extensions></trkpt>
   <trkpt lat="59.3258765734" lon="34.7051604964"><ele>171.545</ele><time>2026-08-17T02:36:32.648Z</time><hdop>3.0</hdop><vdop>2.5</vdop><extensions><gom:speed>0.07</gom:speed></extensions></trkpt>
   <trkpt lat="59.3258766991" lon="34.7051604964"><ele>171.543</ele><time>2026-08-17T02:36:33.652Z</time><hdop>3.0</hdop><vdop>2.687</vdop><extensions><gom:speed>0.071</gom:speed></extensions></trkpt>
   <trkpt lat="59.3258765734" lon="34.705160664"><ele>171.541</ele><time>2026-08-17T02:36:34.648Z</time><hdop>3.0</hdop><vdop>2.812</vdop><extensions><gom:speed>0.069</gom:speed></extensions></trkpt>
   <trkpt lat="59.3258766991" lon="34.7051609993"><ele>171.539</ele><time>2026-08-17T02:36:35.652Z</time><hdop>3.0</hdop><vdop>3.187</vdop><extensions><gom:speed>0.069</gom:speed></extensions></trkpt>
   <trkpt lat="59.3258767829" lon="34.7051610831"><ele>171.536</ele><time>2026-08-17T02:36:36.648Z</time><hdop>3.0</hdop><vdop>3.562</vdop><extensions><gom:speed>0.071</gom:speed></extensions></trkpt>
   <trkpt lat="59.3258767829" lon="34.7051610831"><ele>171.532</ele><time>2026-08-17T02:36:37.648Z</time><hdop>3.0</hdop><vdop>3.937</vdop><extensions><gom:speed>0.069</gom:speed></extensions></trkpt>
   <trkpt lat="59.3258768667" lon="34.705161167"><ele>171.528</ele><time>2026-08-17T02:36:38.653Z</time><hdop>3.0</hdop><vdop>3.687</vdop><extensions><gom:speed>0.07</gom:speed></extensions></trkpt>
   <trkpt lat="59.3258767829" lon="34.7051609993"><ele>171.523</ele><time>2026-08-17T02:36:39.648Z</time><hdop>3.0</hdop><vdop>3.437</vdop><extensions><gom:speed>0.068</gom:speed></extensions></trkpt>
   <trkpt lat="59.3258767829" lon="34.7051609993"><ele>171.52</ele><time>2026-08-17T02:36:40.251Z</time><hdop>3.0</hdop><vdop>3.437</vdop><extensions><gom:speed>0.068</gom:speed></extensions></trkpt>
   <trkpt lat="59.3258767829" lon="34.7051609993"><ele>171.518</ele><time>2026-08-17T02:36:41.648Z</time><hdop>3.0</hdop><vdop>2.875</vdop><extensions><gom:speed>0.068</gom:speed></extensions></trkpt>
   <trkpt lat="59.3258767829" lon="34.7051610831"><ele>171.517</ele><time>2026-08-17T02:36:42.653Z</time><hdop>3.0</hdop><vdop>2.875</vdop><extensions><gom:speed>0.068</gom:speed></extensions></trkpt>
   <trkpt lat="59.3258769925" lon="34.7051616699"><ele>171.515</ele><time>2026-08-17T02:36:43.647Z</time><hdop>3.0</hdop><vdop>2.937</vdop><extensions><gom:speed>0.071</gom:speed></extensions></trkpt>
   <trkpt lat="59.3258770763" lon="34.7051617537"><ele>171.515</ele><time>2026-08-17T02:36:44.652Z</time><hdop>3.0</hdop><vdop>3.062</vdop><extensions><gom:speed>0.071</gom:speed></extensions></trkpt>
   <trkpt lat="59.3258769925" lon="34.7051616699"><ele>171.516</ele><time>2026-08-17T02:36:45.652Z</time><hdop>3.0</hdop><vdop>2.625</vdop><extensions><gom:speed>0.071</gom:speed></extensions></trkpt>
   <trkpt lat="59.3258768667" lon="34.7051616699"><ele>171.516</ele><time>2026-08-17T02:36:46.648Z</time><hdop>3.0</hdop><vdop>2.5</vdop><extensions><gom:speed>0.067</gom:speed></extensions></trkpt>
   <trkpt lat="59.3258767829" lon="34.7051616699"><ele>171.515</ele><time>2026-08-17T02:36:47.652Z</time><hdop>3.0</hdop><vdop>2.5</vdop><extensions><gom:speed>0.067</gom:speed></extensions></trkpt>
   <trkpt lat="59.3258767829" lon="34.7051616699"><ele>171.515</ele><time>2026-08-17T02:36:48.648Z</time><hdop>3.0</hdop><vdop>2.5</vdop><extensions><gom:speed>0.068</gom:speed></extensions></trkpt>
   <trkpt lat="59.3258766991" lon="34.7051616699"><ele>171.515</ele><time>2026-08-17T02:36:49.648Z</time><hdop>3.0</hdop><vdop>2.5</vdop><extensions><gom:speed>0.07</gom:speed></extensions></trkpt>
   <trkpt lat="59.3258764895" lon="34.705162089"><ele>171.515</ele><time>2026-08-17T02:36:50.647Z</time><hdop>3.0</hdop><vdop>2.5</vdop><extensions><gom:speed>0.073</gom:speed></extensions></trkpt>
   <trkpt lat="59.3258764895" lon="34.7051621728"><ele>171.515</ele><time>2026-08-17T02:36:51.380Z</time><hdop>3.0</hdop><vdop>2.5</vdop><extensions><gom:speed>0.073</gom:speed></extensions></trkpt>
   <trkpt lat="59.3258764895" lon="34.7051621728"><ele>171.514</ele><time>2026-08-17T02:36:52.652Z</time><hdop>3.0</hdop><vdop>2.5</vdop><extensions><gom:speed>0.073</gom:speed></extensions></trkpt>
   <trkpt lat="59.3258763638" lon="34.705162089"><ele>171.514</ele><time>2026-08-17T02:36:53.648Z</time><hdop>3.0</hdop><vdop>2.5</vdop><extensions><gom:speed>0.07</gom:speed></extensions></trkpt>
   <trkpt lat="59.3258763638" lon="34.7051622566"><ele>171.513</ele><time>2026-08-17T02:36:54.652Z</time><hdop>3.0</hdop><vdop>2.5</vdop><extensions><gom:speed>0.07</gom:speed></extensions></trkpt>
   <trkpt lat="59.32587628" lon="34.7051622566"><ele>171.512</ele><time>2026-08-17T02:36:55.648Z</time><hdop>3.0</hdop><vdop>2.5</vdop><extensions><gom:speed>0.069</gom:speed></extensions></trkpt>
   <trkpt lat="59.3258763638" lon="34.7051621728"><ele>171.511</ele><time>2026-08-17T02:36:56.648Z</time><hdop>3.0</hdop><vdop>2.5</vdop><extensions><gom:speed>0.07</gom:speed></extensions></trkpt>
   <trkpt lat="59.32587628" lon="34.7051622566"><ele>171.51</ele><time>2026-08-17T02:36:57.653Z</time><hdop>3.0</hdop><vdop>2.5</vdop><extensions><gom:speed>0.071</gom:speed></extensions></trkpt>
   <trkpt lat="59.3258761962" lon="34.705162089"><ele>171.509</ele><time>2026-08-17T02:36:58.647Z</time><hdop>3.0</hdop><vdop>2.5</vdop><extensions><gom:speed>0.07</gom:speed></extensions></trkpt>
   <trkpt lat="59.3258761962" lon="34.7051622566"><ele>171.507</ele><time>2026-08-17T02:36:59.652Z</time><hdop>3.0</hdop><vdop>2.5</vdop><extensions><gom:speed>0.07</gom:speed></extensions></trkpt>
   <trkpt lat="59.32587628" lon="34.705162089"><ele>171.509</ele><time>2026-08-17T02:37:00.649Z</time><hdop>3.0</hdop><vdop>2.5</vdop><extensions><gom:speed>0.072</gom:speed></extensions></trkpt>
   <trkpt lat="59.32587628" lon="34.705162089"><ele>171.521</ele><time>2026-08-17T02:37:01.648Z</time><hdop>3.0</hdop><vdop>2.5</vdop><extensions><gom:speed>0.07</gom:speed></extensions></trkpt>
   <trkpt lat="59.32587628" lon="34.7051621728"><ele>171.527</ele><time>2026-08-17T02:37:02.610Z</time><hdop>3.0</hdop><vdop>2.5</vdop><extensions><gom:speed>0.071</gom:speed></extensions></trkpt>
   <trkpt lat="59.32587628" lon="34.7051616699"><ele>171.535</ele><time>2026-08-17T02:37:03.649Z</time><hdop>3.0</hdop><vdop>2.562</vdop><extensions><gom:speed>0.068</gom:speed></extensions></trkpt>
   <trkpt lat="59.32587628" lon="34.7051617537"><ele>171.54</ele><time>2026-08-17T02:37:04.652Z</time><hdop>3.0</hdop><vdop>2.562</vdop><extensions><gom:speed>0.069</gom:speed></extensions></trkpt>
   <trkpt lat="59.3258763638" lon="34.7051615861"><ele>171.543</ele><time>2026-08-17T02:37:05.647Z</time><hdop>3.0</hdop><vdop>2.625</vdop><extensions><gom:speed>0.068</gom:speed></extensions></trkpt>
   <trkpt lat="59.3258763638" lon="34.7051616699"><ele>171.548</ele><time>2026-08-17T02:37:06.657Z</time><hdop>3.0</hdop><vdop>2.625</vdop><extensions><gom:speed>0.068</gom:speed></extensions></trkpt>
   <trkpt lat="59.3258764895" lon="34.7051616699"><ele>171.555</ele><time>2026-08-17T02:37:07.648Z</time><hdop>3.0</hdop><vdop>2.75</vdop><extensions><gom:speed>0.067</gom:speed></extensions></trkpt>
   <trkpt lat="59.3258764895" lon="34.7051617537"><ele>171.56</ele><time>2026-08-17T02:37:08.175Z</time><hdop>3.0</hdop><vdop>2.75</vdop><extensions><gom:speed>0.067</gom:speed></extensions></trkpt>
   <trkpt lat="59.3258764895" lon="34.7051618375"><ele>171.563</ele><time>2026-08-17T02:37:08.652Z</time><hdop>3.0</hdop><vdop>2.625</vdop><extensions><gom:speed>0.068</gom:speed></extensions></trkpt>
   <trkpt lat="59.3258766991" lon="34.7051619213"><ele>171.566</ele><time>2026-08-17T02:37:09.648Z</time><hdop>3.0</hdop><vdop>2.562</vdop><extensions><gom:speed>0.065</gom:speed></extensions></trkpt>
   <trkpt lat="59.3258766991" lon="34.7051621728"><ele>171.539</ele><time>2026-08-17T02:37:10.664Z</time><hdop>3.0</hdop><vdop>2.5</vdop><extensions><gom:speed>0.065</gom:speed></extensions></trkpt>
   <trkpt lat="59.3258768667" lon="34.7051615861"><ele>171.563</ele><time>2026-08-17T02:37:11.652Z</time><hdop>3.0</hdop><vdop>2.5</vdop><extensions><gom:speed>0.064</gom:speed></extensions></trkpt>
   <trkpt lat="59.3258772858" lon="34.705160664"><ele>171.458</ele><time>2026-08-17T02:37:12.652Z</time><hdop>3.0</hdop><vdop>2.5</vdop><extensions><gom:speed>0.065</gom:speed></extensions></trkpt>
   <trkpt lat="59.3258781659" lon="34.7051594906"><ele>171.397</ele><time>2026-08-17T02:37:13.652Z</time><hdop>3.0</hdop><vdop>2.5</vdop><extensions><gom:speed>0.12</gom:speed></extensions></trkpt>
   <trkpt lat="59.3258794651" lon="34.7051581495"><ele>171.36</ele><time>2026-08-17T02:37:14.652Z</time><hdop>3.0</hdop><vdop>2.5</vdop><extensions><gom:speed>0.102</gom:speed></extensions></trkpt>
   <trkpt lat="59.3258803871" lon="34.7051571436"><ele>171.333</ele><time>2026-08-17T02:37:15.662Z</time><hdop>3.0</hdop><vdop>2.5</vdop><extensions><gom:speed>0.086</gom:speed></extensions></trkpt>
   <trkpt lat="59.3258811834" lon="34.7051562216"><ele>171.316</ele><time>2026-08-17T02:37:16.652Z</time><hdop>3.0</hdop><vdop>2.562</vdop><extensions><gom:speed>0.08</gom:speed></extensions></trkpt>
   <trkpt lat="59.3258818959" lon="34.7051555511"><ele>171.309</ele><time>2026-08-17T02:37:17.652Z</time><hdop>3.0</hdop><vdop>2.5</vdop><extensions><gom:speed>0.077</gom:speed></extensions></trkpt>
   <trkpt lat="59.3258826921" lon="34.7051546291"><ele>171.306</ele><time>2026-08-17T02:37:18.657Z</time><hdop>3.0</hdop><vdop>2.5</vdop><extensions><gom:speed>0.075</gom:speed></extensions></trkpt>
   <trkpt lat="59.3258835722" lon="34.7051536232"><ele>171.307</ele><time>2026-08-17T02:37:19.648Z</time><hdop>3.0</hdop><vdop>2.5</vdop><extensions><gom:speed>0.074</gom:speed></extensions></trkpt>
   <trkpt lat="59.325884159" lon="34.7051531203"><ele>171.31</ele><time>2026-08-17T02:37:20.648Z</time><hdop>3.0</hdop><vdop>2.5</vdop><extensions><gom:speed>0.074</gom:speed></extensions></trkpt>
   <trkpt lat="59.3258846619" lon="34.7051524498"><ele>171.313</ele><time>2026-08-17T02:37:21.648Z</time><hdop>3.0</hdop><vdop>2.5</vdop><extensions><gom:speed>0.073</gom:speed></extensions></trkpt>
   <trkpt lat="59.3258851648" lon="34.705151863"><ele>171.316</ele><time>2026-08-17T02:37:22.648Z</time><hdop>3.0</hdop><vdop>2.5</vdop><extensions><gom:speed>0.076</gom:speed></extensions></trkpt>
   <trkpt lat="59.3258854582" lon="34.7051516954"><ele>171.324</ele><time>2026-08-17T02:37:23.652Z</time><hdop>3.0</hdop><vdop>2.75</vdop><extensions><gom:speed>0.077</gom:speed></extensions></trkpt>
   <trkpt lat="59.325886464" lon="34.7051513601"><ele>171.331</ele><time>2026-08-17T02:37:24.652Z</time><hdop>3.0</hdop><vdop>2.687</vdop><extensions><gom:speed>0.247</gom:speed></extensions></trkpt>
   <trkpt lat="59.3258871765" lon="34.7051501867"><ele>171.335</ele><time>2026-08-17T02:37:25.506Z</time><hdop>3.0</hdop><vdop>2.687</vdop><extensions><gom:speed>0.089</gom:speed></extensions></trkpt>
   <trkpt lat="59.3258882661" lon="34.7051487617"><ele>171.254</ele><time>2026-08-17T02:37:26.647Z</time><hdop>3.0</hdop><vdop>2.812</vdop><extensions><gom:speed>0.121</gom:speed></extensions></trkpt>
   <trkpt lat="59.3258890624" lon="34.7051476721"><ele>171.15</ele><time>2026-08-17T02:37:27.647Z</time><hdop>3.0</hdop><vdop>3.125</vdop><extensions><gom:speed>0.411</gom:speed></extensions></trkpt>
   <trkpt lat="59.3258899844" lon="34.7051466663"><ele>171.088</ele><time>2026-08-17T02:37:28.187Z</time><hdop>3.0</hdop><vdop>3.125</vdop><extensions><gom:speed>0.411</gom:speed></extensions></trkpt>
   <trkpt lat="59.3258907807" lon="34.7051458281"><ele>170.91</ele><time>2026-08-17T02:37:28.652Z</time><hdop>3.0</hdop><vdop>3.187</vdop><extensions><gom:speed>0.411</gom:speed></extensions></trkpt>
   <trkpt lat="59.3258918703" lon="34.7051428944"><ele>170.804</ele><time>2026-08-17T02:37:29.321Z</time><hdop>3.0</hdop><vdop>3.187</vdop><extensions><gom:speed>0.241</gom:speed></extensions></trkpt>
   <trkpt lat="59.3258936724" lon="34.7051397931"><ele>170.292</ele><time>2026-08-17T02:37:30.656Z</time><hdop>3.0</hdop><vdop>2.75</vdop><extensions><gom:speed>0.17</gom:speed></extensions></trkpt>
   <trkpt lat="59.3258965642" lon="34.7051373624"><ele>170.0</ele><time>2026-08-17T02:37:31.648Z</time><hdop>3.0</hdop><vdop>2.75</vdop><extensions><gom:speed>0.114</gom:speed></extensions></trkpt>
   <trkpt lat="59.3258971928" lon="34.7051365242"><ele>169.718</ele><time>2026-08-17T02:37:32.652Z</time><hdop>3.0</hdop><vdop>2.5</vdop><extensions><gom:speed>0.115</gom:speed></extensions></trkpt>
   <trkpt lat="59.3258992883" lon="34.705134261"><ele>169.526</ele><time>2026-08-17T02:37:33.651Z</time><hdop>3.0</hdop><vdop>2.5</vdop><extensions><gom:speed>0.099</gom:speed></extensions></trkpt>
   <trkpt lat="59.3259008809" lon="34.7051308245"><ele>169.411</ele><time>2026-08-17T02:37:34.643Z</time><hdop>3.0</hdop><vdop>2.5</vdop><extensions><gom:speed>0.166</gom:speed></extensions></trkpt>
   <trkpt lat="59.3259041917" lon="34.7051257953"><ele>169.825</ele><time>2026-08-17T02:37:35.381Z</time><hdop>3.0</hdop><vdop>2.5</vdop><extensions><gom:speed>0.185</gom:speed></extensions></trkpt>
   <trkpt lat="59.325906371" lon="34.70511624"><ele>170.399</ele><time>2026-08-17T02:37:36.200Z</time><hdop>3.0</hdop><vdop>2.5</vdop><extensions><gom:speed>0.159</gom:speed></extensions></trkpt>
   <trkpt lat="59.3259056586" lon="34.705115737"><ele>170.759</ele><time>2026-08-17T02:37:36.652Z</time><hdop>3.0</hdop><vdop>2.5</vdop><extensions><gom:speed>0.121</gom:speed></extensions></trkpt>
   <trkpt lat="59.325906371" lon="34.7051052597"><ele>170.975</ele><time>2026-08-17T02:37:37.652Z</time><hdop>3.0</hdop><vdop>2.5</vdop><extensions><gom:speed>0.186</gom:speed></extensions></trkpt>
   <trkpt lat="59.3259060777" lon="34.7050966263"><ele>171.104</ele><time>2026-08-17T02:37:38.244Z</time><hdop>3.0</hdop><vdop>2.5</vdop><extensions><gom:speed>0.197</gom:speed></extensions></trkpt>
   <trkpt lat="59.3259083827" lon="34.7050788567"><ele>170.431</ele><time>2026-08-17T02:37:39.648Z</time><hdop>3.0</hdop><vdop>2.5</vdop><extensions><gom:speed>0.179</gom:speed></extensions></trkpt>
   <trkpt lat="59.3259085922" lon="34.7050781861"><ele>170.029</ele><time>2026-08-17T02:37:40.167Z</time><hdop>3.0</hdop><vdop>2.5</vdop><extensions><gom:speed>0.163</gom:speed></extensions></trkpt>
   <trkpt lat="59.3259089694" lon="34.7050765936"><ele>168.762</ele><time>2026-08-17T02:37:40.652Z</time><hdop>3.0</hdop><vdop>2.5</vdop><extensions><gom:speed>0.182</gom:speed></extensions></trkpt>
   <trkpt lat="59.3259124898" lon="34.705061087"><ele>167.386</ele><time>2026-08-17T02:37:41.648Z</time><hdop>3.0</hdop><vdop>2.625</vdop><extensions><gom:speed>0.309</gom:speed></extensions></trkpt>
   <trkpt lat="59.3259131604" lon="34.7050593268"><ele>166.653</ele><time>2026-08-17T02:37:42.655Z</time><hdop>3.0</hdop><vdop>2.5</vdop><extensions><gom:speed>0.145</gom:speed></extensions></trkpt>
   <trkpt lat="59.32592259" lon="34.7050484304"><ele>166.004</ele><time>2026-08-17T02:37:43.648Z</time><hdop>3.0</hdop><vdop>2.5</vdop><extensions><gom:speed>0.157</gom:speed></extensions></trkpt>
   <trkpt lat="59.3259215842" lon="34.7050484304"><ele>165.458</ele><time>2026-08-17T02:37:44.659Z</time><hdop>3.0</hdop><vdop>2.562</vdop><extensions><gom:speed>0.057</gom:speed></extensions></trkpt>
   <trkpt lat="59.3259365878" lon="34.7050308284"><ele>165.788</ele><time>2026-08-17T02:37:45.647Z</time><hdop>3.0</hdop><vdop>2.687</vdop><extensions><gom:speed>0.182</gom:speed></extensions></trkpt>
   <trkpt lat="59.3259351629" lon="34.7050327562"><ele>166.358</ele><time>2026-08-17T02:37:46.653Z</time><hdop>3.0</hdop><vdop>2.687</vdop><extensions><gom:speed>0.098</gom:speed></extensions></trkpt>
   <trkpt lat="59.3259402758" lon="34.7050265536"><ele>166.698</ele><time>2026-08-17T02:37:47.108Z</time><hdop>3.0</hdop><vdop>2.687</vdop><extensions><gom:speed>0.124</gom:speed></extensions></trkpt>
   <trkpt lat="59.3259404854" lon="34.7050256316"><ele>166.695</ele><time>2026-08-17T02:37:47.652Z</time><hdop>3.0</hdop><vdop>2.75</vdop><extensions><gom:speed>0.133</gom:speed></extensions></trkpt>
   <trkpt lat="59.3259455983" lon="34.7050178364"><ele>166.616</ele><time>2026-08-17T02:37:48.652Z</time><hdop>3.0</hdop><vdop>2.875</vdop><extensions><gom:speed>0.134</gom:speed></extensions></trkpt>
   <trkpt lat="59.3259509628" lon="34.7050097898"><ele>166.571</ele><time>2026-08-17T02:37:49.658Z</time><hdop>3.0</hdop><vdop>2.812</vdop><extensions><gom:speed>0.12</gom:speed></extensions></trkpt>
   <trkpt lat="59.3259553632" lon="34.7050042577"><ele>166.544</ele><time>2026-08-17T02:37:50.608Z</time><hdop>3.0</hdop><vdop>2.812</vdop><extensions><gom:speed>0.133</gom:speed></extensions></trkpt>
   <trkpt lat="59.3259575845" lon="34.7050024975"><ele>166.571</ele><time>2026-08-17T02:37:51.661Z</time><hdop>3.0</hdop><vdop>2.5</vdop><extensions><gom:speed>0.075</gom:speed></extensions></trkpt>
   <trkpt lat="59.3259611887" lon="34.704997636"><ele>166.587</ele><time>2026-08-17T02:37:52.520Z</time><hdop>3.0</hdop><vdop>2.5</vdop><extensions><gom:speed>0.112</gom:speed></extensions></trkpt>
   <trkpt lat="59.3259637871" lon="34.70499487"><ele>166.53</ele><time>2026-08-17T02:37:53.248Z</time><hdop>3.0</hdop><vdop>2.5</vdop><extensions><gom:speed>0.144</gom:speed></extensions></trkpt>
   <trkpt lat="59.3259666788" lon="34.7049914334"><ele>166.259</ele><time>2026-08-17T02:37:54.280Z</time><hdop>3.0</hdop><vdop>2.5</vdop><extensions><gom:speed>0.194</gom:speed></extensions></trkpt>
   <trkpt lat="59.3259691934" lon="34.7049901761"><ele>166.15</ele><time>2026-08-17T02:37:54.999Z</time><hdop>3.0</hdop><vdop>2.5</vdop><extensions><gom:speed>0.209</gom:speed></extensions></trkpt>
   <trkpt lat="59.3259746835" lon="34.7049894218"><ele>166.188</ele><time>2026-08-17T02:37:55.648Z</time><hdop>3.0</hdop><vdop>2.5</vdop><extensions><gom:speed>0.359</gom:speed></extensions></trkpt>
   <trkpt lat="59.3259783716" lon="34.704993948"><ele>166.338</ele><time>2026-08-17T02:37:56.652Z</time><hdop>3.0</hdop><vdop>2.5</vdop><extensions><gom:speed>0.433</gom:speed></extensions></trkpt>
   <trkpt lat="59.3259904834" lon="34.704998558"><ele>166.685</ele><time>2026-08-17T02:37:57.648Z</time><hdop>3.0</hdop><vdop>2.5</vdop><extensions><gom:speed>0.474</gom:speed></extensions></trkpt>
   <trkpt lat="59.3259931656" lon="34.7050017432"><ele>167.21</ele><time>2026-08-17T02:37:58.652Z</time><hdop>3.0</hdop><vdop>2.5</vdop><extensions><gom:speed>0.381</gom:speed></extensions></trkpt>
   <trkpt lat="59.3260035592" lon="34.7050047606"><ele>167.887</ele><time>2026-08-17T02:37:59.652Z</time><hdop>3.0</hdop><vdop>2.5</vdop><extensions><gom:speed>0.432</gom:speed></extensions></trkpt>
   <trkpt lat="59.3260183952" lon="34.7050006535"><ele>168.232</ele><time>2026-08-17T02:38:00.647Z</time><hdop>3.0</hdop><vdop>2.5</vdop><extensions><gom:speed>0.367</gom:speed></extensions></trkpt>
   <trkpt lat="59.3260200715" lon="34.7050013241"><ele>168.439</ele><time>2026-08-17T02:38:01.251Z</time><hdop>3.0</hdop><vdop>2.5</vdop><extensions><gom:speed>0.345</gom:speed></extensions></trkpt>
   <trkpt lat="59.3260247654" lon="34.7050039225"><ele>168.873</ele><time>2026-08-17T02:38:01.848Z</time><hdop>3.0</hdop><vdop>2.562</vdop><extensions><gom:speed>0.281</gom:speed></extensions></trkpt>
   <trkpt lat="59.3260290821" lon="34.7050076943"><ele>168.69</ele><time>2026-08-17T02:38:02.647Z</time><hdop>3.0</hdop><vdop>2.562</vdop><extensions><gom:speed>0.277</gom:speed></extensions></trkpt>
   <trkpt lat="59.3260293755" lon="34.705008281"><ele>168.493</ele><time>2026-08-17T02:38:03.652Z</time><hdop>3.0</hdop><vdop>2.687</vdop><extensions><gom:speed>0.193</gom:speed></extensions></trkpt>
   <trkpt lat="59.3260359972" lon="34.7050110471"><ele>168.335</ele><time>2026-08-17T02:38:04.648Z</time><hdop>3.0</hdop><vdop>2.875</vdop><extensions><gom:speed>0.17</gom:speed></extensions></trkpt>
   <trkpt lat="59.3260359972" lon="34.7050103765"><ele>167.788</ele><time>2026-08-17T02:38:05.652Z</time><hdop>3.0</hdop><vdop>3.0</vdop><extensions><gom:speed>0.128</gom:speed></extensions></trkpt>
   <trkpt lat="59.3260435828" lon="34.7050125558"><ele>167.478</ele><time>2026-08-17T02:38:06.652Z</time><hdop>3.0</hdop><vdop>2.812</vdop><extensions><gom:speed>0.217</gom:speed></extensions></trkpt>
   <trkpt lat="59.326052258" lon="34.705010628"><ele>167.331</ele><time>2026-08-17T02:38:07.652Z</time><hdop>3.0</hdop><vdop>2.812</vdop><extensions><gom:speed>0.26</gom:speed></extensions></trkpt>
   <trkpt lat="59.3260588798" lon="34.7050016593"><ele>167.039</ele><time>2026-08-17T02:38:08.652Z</time><hdop>3.0</hdop><vdop>3.0</vdop><extensions><gom:speed>0.261</gom:speed></extensions></trkpt>
   <trkpt lat="59.3260654595" lon="34.7049839735"><ele>166.864</ele><time>2026-08-17T02:38:09.608Z</time><hdop>3.0</hdop><vdop>3.0</vdop><extensions><gom:speed>0.35</gom:speed></extensions></trkpt>
   <trkpt lat="59.3260697762" lon="34.7049579896"><ele>166.275</ele><time>2026-08-17T02:38:10.648Z</time><hdop>3.0</hdop><vdop>2.812</vdop><extensions><gom:speed>0.426</gom:speed></extensions></trkpt>
   <trkpt lat="59.3260711592" lon="34.7049539663"><ele>165.923</ele><time>2026-08-17T02:38:11.440Z</time><hdop>3.0</hdop><vdop>2.812</vdop><extensions><gom:speed>0.377</gom:speed></extensions></trkpt>
   <trkpt lat="59.3260750987" lon="34.7049351908"><ele>165.746</ele><time>2026-08-17T02:38:12.340Z</time><hdop>3.0</hdop><vdop>2.875</vdop><extensions><gom:speed>0.472</gom:speed></extensions></trkpt>
   <trkpt lat="59.3260779905" lon="34.7049229533"><ele>166.108</ele><time>2026-08-17T02:38:13.463Z</time><hdop>3.0</hdop><vdop>2.875</vdop><extensions><gom:speed>0.341</gom:speed></extensions></trkpt>
   <trkpt lat="59.3260826844" lon="34.7049122244"><ele>166.549</ele><time>2026-08-17T02:38:14.202Z</time><hdop>3.0</hdop><vdop>2.812</vdop><extensions><gom:speed>0.456</gom:speed></extensions></trkpt>
   <trkpt lat="59.3260861628" lon="34.7049080335"><ele>166.565</ele><time>2026-08-17T02:38:15.284Z</time><hdop>3.0</hdop><vdop>2.562</vdop><extensions><gom:speed>0.303</gom:speed></extensions></trkpt>
   <trkpt lat="59.3260914854" lon="34.7049010765"><ele>166.597</ele><time>2026-08-17T02:38:16.647Z</time><hdop>3.0</hdop><vdop>2.562</vdop><extensions><gom:speed>0.203</gom:speed></extensions></trkpt>
   <trkpt lat="59.3260952991" lon="34.7048961312"><ele>166.605</ele><time>2026-08-17T02:38:17.648Z</time><hdop>3.0</hdop><vdop>2.562</vdop><extensions><gom:speed>0.245</gom:speed></extensions></trkpt>
   <trkpt lat="59.326096766" lon="34.704893449"><ele>166.61</ele><time>2026-08-17T02:38:18.583Z</time><hdop>3.0</hdop><vdop>2.562</vdop><extensions><gom:speed>0.243</gom:speed></extensions></trkpt>
   <trkpt lat="59.3261003702" lon="34.7048875816"><ele>166.819</ele><time>2026-08-17T02:38:19.604Z</time><hdop>3.0</hdop><vdop>2.625</vdop><extensions><gom:speed>0.242</gom:speed></extensions></trkpt>
   <trkpt lat="59.326105567" lon="34.7048789483"><ele>167.174</ele><time>2026-08-17T02:38:20.405Z</time><hdop>3.0</hdop><vdop>2.562</vdop><extensions><gom:speed>0.286</gom:speed></extensions></trkpt>
   <trkpt lat="59.3261120629" lon="34.7048678842"><ele>167.416</ele><time>2026-08-17T02:38:21.284Z</time><hdop>3.0</hdop><vdop>2.687</vdop><extensions><gom:speed>0.359</gom:speed></extensions></trkpt>
   <trkpt lat="59.3261178884" lon="34.7048592508"><ele>167.557</ele><time>2026-08-17T02:38:22.265Z</time><hdop>3.0</hdop><vdop>2.687</vdop><extensions><gom:speed>0.302</gom:speed></extensions></trkpt>
   <trkpt lat="59.326122666" lon="34.7048532997"><ele>167.564</ele><time>2026-08-17T02:38:23.207Z</time><hdop>3.0</hdop><vdop>2.562</vdop><extensions><gom:speed>0.266</gom:speed></extensions></trkpt>
   <trkpt lat="59.3261274856" lon="34.7048471809"><ele>167.581</ele><time>2026-08-17T02:38:24.289Z</time><hdop>3.0</hdop><vdop>2.937</vdop><extensions><gom:speed>0.23</gom:speed></extensions></trkpt>
   <trkpt lat="59.3261288686" lon="34.7048444987"><ele>166.893</ele><time>2026-08-17T02:38:24.825Z</time><hdop>3.0</hdop><vdop>2.937</vdop><extensions><gom:speed>0.244</gom:speed></extensions></trkpt>
   <trkpt lat="59.3261289944" lon="34.7048433252"><ele>166.609</ele><time>2026-08-17T02:38:25.676Z</time><hdop>3.0</hdop><vdop>2.875</vdop><extensions><gom:speed>0.159</gom:speed></extensions></trkpt>
   <trkpt lat="59.3261301678" lon="34.7048398886"><ele>166.525</ele><time>2026-08-17T02:38:26.648Z</time><hdop>3.0</hdop><vdop>2.812</vdop><extensions><gom:speed>0.213</gom:speed></extensions></trkpt>
   <trkpt lat="59.3261289944" lon="34.7048385475"><ele>166.336</ele><time>2026-08-17T02:38:27.652Z</time><hdop>3.0</hdop><vdop>2.812</vdop><extensions><gom:speed>0.087</gom:speed></extensions></trkpt>
   <trkpt lat="59.3261299583" lon="34.7048367873"><ele>166.223</ele><time>2026-08-17T02:38:28.204Z</time><hdop>3.0</hdop><vdop>2.812</vdop><extensions><gom:speed>0.117</gom:speed></extensions></trkpt>
   <trkpt lat="59.3261306708" lon="34.7048351947"><ele>165.963</ele><time>2026-08-17T02:38:29.216Z</time><hdop>3.125</hdop><vdop>3.125</vdop><extensions><gom:speed>0.129</gom:speed></extensions></trkpt>
   <trkpt lat="59.3261322633" lon="34.7048328478"><ele>166.115</ele><time>2026-08-17T02:38:30.207Z</time><hdop>3.312</hdop><vdop>3.0</vdop><extensions><gom:speed>0.135</gom:speed></extensions></trkpt>
   <trkpt lat="59.3261343588" lon="34.7048302494"><ele>166.192</ele><time>2026-08-17T02:38:31.007Z</time><hdop>3.375</hdop><vdop>2.75</vdop><extensions><gom:speed>0.169</gom:speed></extensions></trkpt>
   <trkpt lat="59.3261376696" lon="34.7048268967"><ele>166.587</ele><time>2026-08-17T02:38:31.648Z</time><hdop>3.375</hdop><vdop>2.562</vdop><extensions><gom:speed>0.226</gom:speed></extensions></trkpt>
   <trkpt lat="59.3261425731" lon="34.7048206941"><ele>166.962</ele><time>2026-08-17T02:38:32.656Z</time><hdop>3.562</hdop><vdop>2.5</vdop><extensions><gom:speed>0.367</gom:speed></extensions></trkpt>
   <trkpt lat="59.3261505778" lon="34.7048153296"><ele>167.152</ele><time>2026-08-17T02:38:33.648Z</time><hdop>3.625</hdop><vdop>2.625</vdop><extensions><gom:speed>0.402</gom:speed></extensions></trkpt>
   <trkpt lat="59.32615787" lon="34.704810049"><ele>167.449</ele><time>2026-08-17T02:38:34.648Z</time><hdop>3.812</hdop><vdop>2.687</vdop><extensions><gom:speed>0.41</gom:speed></extensions></trkpt>
   <trkpt lat="59.3261630668" lon="34.7048066963"><ele>167.651</ele><time>2026-08-17T02:38:35.647Z</time><hdop>3.875</hdop><vdop>2.812</vdop><extensions><gom:speed>0.36</gom:speed></extensions></trkpt>
   <trkpt lat="59.326162983" lon="34.704806361"><ele>167.78</ele><time>2026-08-17T02:38:36.652Z</time><hdop>4.062</hdop><vdop>2.875</vdop><extensions><gom:speed>0.171</gom:speed></extensions></trkpt>
   <trkpt lat="59.326164366" lon="34.7048095461"><ele>167.868</ele><time>2026-08-17T02:38:37.652Z</time><hdop>4.187</hdop><vdop>2.812</vdop><extensions><gom:speed>0.063</gom:speed></extensions></trkpt>
   <trkpt lat="59.3261663777" lon="34.7048097976"><ele>167.922</ele><time>2026-08-17T02:38:38.652Z</time><hdop>4.187</hdop><vdop>2.687</vdop><extensions><gom:speed>0.029</gom:speed></extensions></trkpt>
   <trkpt lat="59.3261660843" lon="34.7048106358"><ele>167.953</ele><time>2026-08-17T02:38:39.657Z</time><hdop>4.187</hdop><vdop>2.625</vdop><extensions><gom:speed>0.028</gom:speed></extensions></trkpt>
   <trkpt lat="59.3261690599" lon="34.7048098814"><ele>167.974</ele><time>2026-08-17T02:38:40.669Z</time><hdop>4.187</hdop><vdop>2.562</vdop><extensions><gom:speed>0.06</gom:speed></extensions></trkpt>
   <trkpt lat="59.3261696885" lon="34.7048098814"><ele>167.987</ele><time>2026-08-17T02:38:41.652Z</time><hdop>4.062</hdop><vdop>2.562</vdop><extensions><gom:speed>0.02</gom:speed></extensions></trkpt>
   <trkpt lat="59.3261727898" lon="34.7048085403"><ele>167.998</ele><time>2026-08-17T02:38:42.648Z</time><hdop>4.0</hdop><vdop>2.5</vdop><extensions><gom:speed>0.109</gom:speed></extensions></trkpt>
   <trkpt lat="59.3261719935" lon="34.7048101329"><ele>168.009</ele><time>2026-08-17T02:38:43.652Z</time><hdop>4.0</hdop><vdop>2.5</vdop><extensions><gom:speed>0.015</gom:speed></extensions></trkpt>
   <trkpt lat="59.3261736699" lon="34.7048105519"><ele>168.016</ele><time>2026-08-17T02:38:44.652Z</time><hdop>4.0</hdop><vdop>2.5</vdop><extensions><gom:speed>0.017</gom:speed></extensions></trkpt>
   <trkpt lat="59.3261756816" lon="34.7048102167"><ele>168.02</ele><time>2026-08-17T02:38:45.647Z</time><hdop>3.937</hdop><vdop>2.5</vdop><extensions><gom:speed>0.092</gom:speed></extensions></trkpt>
   <trkpt lat="59.3261747596" lon="34.704810049"><ele>168.119</ele><time>2026-08-17T02:38:46.652Z</time><hdop>3.937</hdop><vdop>2.5</vdop><extensions><gom:speed>0.031</gom:speed></extensions></trkpt>
   <trkpt lat="59.326176394" lon="34.7048094623"><ele>168.077</ele><time>2026-08-17T02:38:47.650Z</time><hdop>4.0</hdop><vdop>2.5</vdop><extensions><gom:speed>0.116</gom:speed></extensions></trkpt>
   <trkpt lat="59.3261775675" lon="34.7048083727"><ele>168.051</ele><time>2026-08-17T02:38:48.601Z</time><hdop>4.0</hdop><vdop>2.5</vdop><extensions><gom:speed>0.107</gom:speed></extensions></trkpt>
   <trkpt lat="59.3261773999" lon="34.7048102167"><ele>167.973</ele><time>2026-08-17T02:38:49.652Z</time><hdop>4.0</hdop><vdop>2.5</vdop><extensions><gom:speed>0.018</gom:speed></extensions></trkpt>
   <trkpt lat="59.3261781961" lon="34.7048107196"><ele>167.926</ele><time>2026-08-17T02:38:50.647Z</time><hdop>3.875</hdop><vdop>2.5</vdop><extensions><gom:speed>0.07</gom:speed></extensions></trkpt>
   <trkpt lat="59.3261780704" lon="34.704812396"><ele>167.899</ele><time>2026-08-17T02:38:51.648Z</time><hdop>3.75</hdop><vdop>2.5</vdop><extensions><gom:speed>0.054</gom:speed></extensions></trkpt>
   <trkpt lat="59.32617828" lon="34.7048129827"><ele>167.882</ele><time>2026-08-17T02:38:52.648Z</time><hdop>3.312</hdop><vdop>2.5</vdop><extensions><gom:speed>0.058</gom:speed></extensions></trkpt>
   <trkpt lat="59.3261788667" lon="34.7048127312"><ele>167.873</ele><time>2026-08-17T02:38:53.648Z</time><hdop>3.25</hdop><vdop>2.5</vdop><extensions><gom:speed>0.059</gom:speed></extensions></trkpt>
   <trkpt lat="59.3261792858" lon="34.7048122283"><ele>167.882</ele><time>2026-08-17T02:38:54.651Z</time><hdop>3.0</hdop><vdop>2.5</vdop><extensions><gom:speed>0.059</gom:speed></extensions></trkpt>
   <trkpt lat="59.3261797887" lon="34.7048122283"><ele>167.887</ele><time>2026-08-17T02:38:55.652Z</time><hdop>3.0</hdop><vdop>2.5</vdop><extensions><gom:speed>0.06</gom:speed></extensions></trkpt>
   <trkpt lat="59.3261801659" lon="34.7048121445"><ele>167.89</ele><time>2026-08-17T02:38:56.652Z</time><hdop>3.0</hdop><vdop>2.5</vdop><extensions><gom:speed>0.065</gom:speed></extensions></trkpt>
   <trkpt lat="59.3261802916" lon="34.7048124798"><ele>167.892</ele><time>2026-08-17T02:38:57.648Z</time><hdop>3.0</hdop><vdop>2.5</vdop><extensions><gom:speed>0.064</gom:speed></extensions></trkpt>
   <trkpt lat="59.326180585" lon="34.7048120607"><ele>167.894</ele><time>2026-08-17T02:38:58.385Z</time><hdop>3.0</hdop><vdop>2.5</vdop><extensions><gom:speed>0.064</gom:speed></extensions></trkpt>
   <trkpt lat="59.3261804593" lon="34.7048120607"><ele>167.894</ele><time>2026-08-17T02:38:59.022Z</time><hdop>3.0</hdop><vdop>2.5</vdop><extensions><gom:speed>0.06</gom:speed></extensions></trkpt>
   <trkpt lat="59.3261807945" lon="34.7048117254"><ele>167.937</ele><time>2026-08-17T02:38:59.649Z</time><hdop>3.0</hdop><vdop>2.5</vdop><extensions><gom:speed>0.061</gom:speed></extensions></trkpt>
   <trkpt lat="59.32618289" lon="34.7048089594"><ele>167.962</ele><time>2026-08-17T02:39:00.600Z</time><hdop>3.0</hdop><vdop>2.5</vdop><extensions><gom:speed>0.369</gom:speed></extensions></trkpt>
   <trkpt lat="59.3261863685" lon="34.7048005775"><ele>167.905</ele><time>2026-08-17T02:39:01.440Z</time><hdop>3.0</hdop><vdop>2.5</vdop><extensions><gom:speed>1.005</gom:speed></extensions></trkpt>
   <trkpt lat="59.3261844826" lon="34.7047883399"><ele>167.698</ele><time>2026-08-17T02:39:02.199Z</time><hdop>3.0</hdop><vdop>2.5</vdop><extensions><gom:speed>0.761</gom:speed></extensions></trkpt>
   <trkpt lat="59.3261833929" lon="34.7047769405"><ele>167.815</ele><time>2026-08-17T02:39:02.988Z</time><hdop>3.0</hdop><vdop>2.687</vdop><extensions><gom:speed>0.687</gom:speed></extensions></trkpt>
   <trkpt lat="59.3261863685" lon="34.704770235"><ele>167.605</ele><time>2026-08-17T02:39:03.652Z</time><hdop>3.0</hdop><vdop>2.562</vdop><extensions><gom:speed>0.698</gom:speed></extensions></trkpt>
   <trkpt lat="59.3261860751" lon="34.7047607634"><ele>167.48</ele><time>2026-08-17T02:39:04.445Z</time><hdop>3.0</hdop><vdop>2.562</vdop><extensions><gom:speed>0.626</gom:speed></extensions></trkpt>
   <trkpt lat="59.3261860751" lon="34.7047416527"><ele>167.424</ele><time>2026-08-17T02:39:05.184Z</time><hdop>3.0</hdop><vdop>2.812</vdop><extensions><gom:speed>0.717</gom:speed></extensions></trkpt>
   <trkpt lat="59.3261875839" lon="34.704735953"><ele>167.321</ele><time>2026-08-17T02:39:05.652Z</time><hdop>3.0</hdop><vdop>2.875</vdop><extensions><gom:speed>0.7</gom:speed></extensions></trkpt>
   <trkpt lat="59.3261859913" lon="34.7047237992"><ele>167.259</ele><time>2026-08-17T02:39:06.105Z</time><hdop>3.0</hdop><vdop>2.875</vdop><extensions><gom:speed>0.703</gom:speed></extensions></trkpt>
   <trkpt lat="59.3261866619" lon="34.7047089633"><ele>167.378</ele><time>2026-08-17T02:39:06.648Z</time><hdop>3.0</hdop><vdop>2.937</vdop><extensions><gom:speed>0.733</gom:speed></extensions></trkpt>
   <trkpt lat="59.3261908947" lon="34.704697983"><ele>167.45</ele><time>2026-08-17T02:39:07.662Z</time><hdop>3.0</hdop><vdop>2.937</vdop><extensions><gom:speed>0.718</gom:speed></extensions></trkpt>
   <trkpt lat="59.3261942894" lon="34.7046806324"><ele>167.357</ele><time>2026-08-17T02:39:08.522Z</time><hdop>3.0</hdop><vdop>3.125</vdop><extensions><gom:speed>0.722</gom:speed></extensions></trkpt>
   <trkpt lat="59.3261998634" lon="34.7046658803"><ele>167.256</ele><time>2026-08-17T02:39:09.342Z</time><hdop>3.0</hdop><vdop>3.25</vdop><extensions><gom:speed>0.72</gom:speed></extensions></trkpt>
   <trkpt lat="59.3262058983" lon="34.7046549838"><ele>167.19</ele><time>2026-08-17T02:39:09.980Z</time><hdop>3.0</hdop><vdop>3.375</vdop><extensions><gom:speed>0.79</gom:speed></extensions></trkpt>
   <trkpt lat="59.3262105922" lon="34.7046511281"><ele>167.139</ele><time>2026-08-17T02:39:10.652Z</time><hdop>3.0</hdop><vdop>3.375</vdop><extensions><gom:speed>0.741</gom:speed></extensions></trkpt>
   <trkpt lat="59.3262144898" lon="34.7046485298"><ele>166.651</ele><time>2026-08-17T02:39:11.648Z</time><hdop>3.0</hdop><vdop>3.0</vdop><extensions><gom:speed>0.563</gom:speed></extensions></trkpt>
   <trkpt lat="59.3262185969" lon="34.7046435844"><ele>166.36</ele><time>2026-08-17T02:39:12.559Z</time><hdop>3.0</hdop><vdop>3.0</vdop><extensions><gom:speed>0.542</gom:speed></extensions></trkpt>
   <trkpt lat="59.3262218659" lon="34.7046427462"><ele>166.1</ele><time>2026-08-17T02:39:13.622Z</time><hdop>3.0</hdop><vdop>3.0</vdop><extensions><gom:speed>0.579</gom:speed></extensions></trkpt>
   <trkpt lat="59.3262233746" lon="34.7046438359"><ele>167.743</ele><time>2026-08-17T02:39:14.652Z</time><hdop>3.0</hdop><vdop>3.125</vdop><extensions><gom:speed>0.396</gom:speed></extensions></trkpt>
   <trkpt lat="59.3262271884" lon="34.7046397288"><ele>168.725</ele><time>2026-08-17T02:39:15.433Z</time><hdop>3.0</hdop><vdop>3.125</vdop><extensions><gom:speed>0.456</gom:speed></extensions></trkpt>
   <trkpt lat="59.3262330976" lon="34.7046319336"><ele>169.469</ele><time>2026-08-17T02:39:16.566Z</time><hdop>3.0</hdop><vdop>3.187</vdop><extensions><gom:speed>0.422</gom:speed></extensions></trkpt>
   <trkpt lat="59.3262375819" lon="34.704623887"><ele>170.14</ele><time>2026-08-17T02:39:17.487Z</time><hdop>3.0</hdop><vdop>3.062</vdop><extensions><gom:speed>0.352</gom:speed></extensions></trkpt>
   <trkpt lat="59.3262434912" lon="34.7046147507"><ele>171.257</ele><time>2026-08-17T02:39:18.346Z</time><hdop>3.0</hdop><vdop>3.25</vdop><extensions><gom:speed>0.336</gom:speed></extensions></trkpt>
   <trkpt lat="59.3262503643" lon="34.7046008367"><ele>172.167</ele><time>2026-08-17T02:39:19.267Z</time><hdop>3.0</hdop><vdop>3.187</vdop><extensions><gom:speed>0.387</gom:speed></extensions></trkpt>
   <trkpt lat="59.3262553935" lon="34.7045834862"><ele>172.391</ele><time>2026-08-17T02:39:20.006Z</time><hdop>3.0</hdop><vdop>3.312</vdop><extensions><gom:speed>0.564</gom:speed></extensions></trkpt>
   <trkpt lat="59.326256986" lon="34.7045787923"><ele>172.71</ele><time>2026-08-17T02:39:20.652Z</time><hdop>3.0</hdop><vdop>3.375</vdop><extensions><gom:speed>0.466</gom:speed></extensions></trkpt>
   <trkpt lat="59.3262555611" lon="34.7045505453"><ele>172.156</ele><time>2026-08-17T02:39:21.647Z</time><hdop>3.0</hdop><vdop>3.5</vdop><extensions><gom:speed>0.589</gom:speed></extensions></trkpt>
   <trkpt lat="59.3262565669" lon="34.7045426663"><ele>171.825</ele><time>2026-08-17T02:39:22.667Z</time><hdop>3.0</hdop><vdop>3.5</vdop><extensions><gom:speed>0.47</gom:speed></extensions></trkpt>
   <trkpt lat="59.326252376" lon="34.7045162633"><ele>171.738</ele><time>2026-08-17T02:39:23.647Z</time><hdop>3.0</hdop><vdop>3.437</vdop><extensions><gom:speed>0.543</gom:speed></extensions></trkpt>
   <trkpt lat="59.3262534656" lon="34.7045082167"><ele>171.965</ele><time>2026-08-17T02:39:24.652Z</time><hdop>3.0</hdop><vdop>3.437</vdop><extensions><gom:speed>0.457</gom:speed></extensions></trkpt>
   <trkpt lat="59.3262528789" lon="34.7044915367"><ele>172.1</ele><time>2026-08-17T02:39:25.459Z</time><hdop>3.0</hdop><vdop>3.437</vdop><extensions><gom:speed>0.531</gom:speed></extensions></trkpt>
   <trkpt lat="59.3262521664" lon="34.7044775389"><ele>171.462</ele><time>2026-08-17T02:39:26.319Z</time><hdop>3.0</hdop><vdop>3.375</vdop><extensions><gom:speed>0.467</gom:speed></extensions></trkpt>
   <trkpt lat="59.3262543876" lon="34.7044620324"><ele>171.079</ele><time>2026-08-17T02:39:27.170Z</time><hdop>3.0</hdop><vdop>3.562</vdop><extensions><gom:speed>0.524</gom:speed></extensions></trkpt>
   <trkpt lat="59.3262551839" lon="34.7044606913"><ele>170.441</ele><time>2026-08-17T02:39:27.652Z</time><hdop>3.0</hdop><vdop>3.437</vdop><extensions><gom:speed>0.41</gom:speed></extensions></trkpt>
   <trkpt lat="59.326259794" lon="34.7044480346"><ele>169.942</ele><time>2026-08-17T02:39:28.647Z</time><hdop>3.0</hdop><vdop>3.625</vdop><extensions><gom:speed>0.304</gom:speed></extensions></trkpt>
   <trkpt lat="59.3262606741" lon="34.7044458553"><ele>169.644</ele><time>2026-08-17T02:39:29.203Z</time><hdop>3.0</hdop><vdop>3.625</vdop><extensions><gom:speed>0.281</gom:speed></extensions></trkpt>
   <trkpt lat="59.3262658709" lon="34.7044373896"><ele>169.753</ele><time>2026-08-17T02:39:29.820Z</time><hdop>3.0</hdop><vdop>3.5</vdop><extensions><gom:speed>0.356</gom:speed></extensions></trkpt>
   <trkpt lat="59.3262709838" lon="34.7044268284"><ele>170.034</ele><time>2026-08-17T02:39:30.647Z</time><hdop>3.0</hdop><vdop>3.812</vdop><extensions><gom:speed>0.429</gom:speed></extensions></trkpt>
   <trkpt lat="59.3262721992" lon="34.7044211287"><ele>170.257</ele><time>2026-08-17T02:39:31.652Z</time><hdop>3.0</hdop><vdop>4.0</vdop><extensions><gom:speed>0.334</gom:speed></extensions></trkpt>
   <trkpt lat="59.3262782761" lon="34.7044087235"><ele>170.103</ele><time>2026-08-17T02:39:32.653Z</time><hdop>3.0</hdop><vdop>3.562</vdop><extensions><gom:speed>0.312</gom:speed></extensions></trkpt>
   <trkpt lat="59.3262811678" lon="34.7044033591"><ele>170.275</ele><time>2026-08-17T02:39:33.664Z</time><hdop>3.0</hdop><vdop>3.5</vdop><extensions><gom:speed>0.256</gom:speed></extensions></trkpt>
   <trkpt lat="59.3262831795" lon="34.704400174"><ele>170.378</ele><time>2026-08-17T02:39:34.403Z</time><hdop>3.0</hdop><vdop>3.5</vdop><extensions><gom:speed>0.215</gom:speed></extensions></trkpt>
   <trkpt lat="59.3262849816" lon="34.7043966536"><ele>170.928</ele><time>2026-08-17T02:39:35.364Z</time><hdop>3.0</hdop><vdop>3.5</vdop><extensions><gom:speed>0.22</gom:speed></extensions></trkpt>
   <trkpt lat="59.3262864903" lon="34.7043909539"><ele>171.546</ele><time>2026-08-17T02:39:36.143Z</time><hdop>3.0</hdop><vdop>3.375</vdop><extensions><gom:speed>0.268</gom:speed></extensions></trkpt>
   <trkpt lat="59.3262871609" lon="34.7043877688"><ele>172.249</ele><time>2026-08-17T02:39:36.647Z</time><hdop>3.0</hdop><vdop>2.937</vdop><extensions><gom:speed>0.225</gom:speed></extensions></trkpt>
   <trkpt lat="59.3262872866" lon="34.70438626"><ele>172.67</ele><time>2026-08-17T02:39:37.227Z</time><hdop>3.0</hdop><vdop>2.937</vdop><extensions><gom:speed>0.209</gom:speed></extensions></trkpt>
   <trkpt lat="59.3262881667" lon="34.7043817338"><ele>172.845</ele><time>2026-08-17T02:39:38.046Z</time><hdop>3.0</hdop><vdop>3.5</vdop><extensions><gom:speed>0.21</gom:speed></extensions></trkpt>
   <trkpt lat="59.3262888792" lon="34.7043778781"><ele>172.969</ele><time>2026-08-17T02:39:38.652Z</time><hdop>3.0</hdop><vdop>3.125</vdop><extensions><gom:speed>0.278</gom:speed></extensions></trkpt>
   <trkpt lat="59.3262896755" lon="34.7043751959"><ele>173.152</ele><time>2026-08-17T02:39:39.654Z</time><hdop>3.0</hdop><vdop>2.75</vdop><extensions><gom:speed>0.207</gom:speed></extensions></trkpt>
   <trkpt lat="59.3262905975" lon="34.704371927"><ele>173.702</ele><time>2026-08-17T02:39:40.652Z</time><hdop>3.0</hdop><vdop>2.562</vdop><extensions><gom:speed>0.152</gom:speed></extensions></trkpt>
   <trkpt lat="59.3262928606" lon="34.7043656405"><ele>174.041</ele><time>2026-08-17T02:39:41.657Z</time><hdop>3.0</hdop><vdop>2.687</vdop><extensions><gom:speed>0.162</gom:speed></extensions></trkpt>
   <trkpt lat="59.3262951656" lon="34.7043591865"><ele>174.079</ele><time>2026-08-17T02:39:42.653Z</time><hdop>3.0</hdop><vdop>2.562</vdop><extensions><gom:speed>0.107</gom:speed></extensions></trkpt>
   <trkpt lat="59.3262974706" lon="34.7043550793"><ele>173.871</ele><time>2026-08-17T02:39:43.660Z</time><hdop>3.0</hdop><vdop>2.562</vdop><extensions><gom:speed>0.076</gom:speed></extensions></trkpt>
   <trkpt lat="59.3263031703" lon="34.7043456916"><ele>173.557</ele><time>2026-08-17T02:39:44.647Z</time><hdop>3.0</hdop><vdop>2.75</vdop><extensions><gom:speed>0.141</gom:speed></extensions></trkpt>
   <trkpt lat="59.3263054753" lon="34.7043403272"><ele>173.026</ele><time>2026-08-17T02:39:45.647Z</time><hdop>3.0</hdop><vdop>2.75</vdop><extensions><gom:speed>0.171</gom:speed></extensions></trkpt>
   <trkpt lat="59.3263057687" lon="34.7043399919"><ele>173.067</ele><time>2026-08-17T02:39:46.653Z</time><hdop>3.0</hdop><vdop>2.625</vdop><extensions><gom:speed>0.135</gom:speed></extensions></trkpt>
   <trkpt lat="59.3263085766" lon="34.7043356333"><ele>173.339</ele><time>2026-08-17T02:39:47.652Z</time><hdop>3.0</hdop><vdop>2.5</vdop><extensions><gom:speed>0.12</gom:speed></extensions></trkpt>
   <trkpt lat="59.3263110912" lon="34.7043280896"><ele>173.674</ele><time>2026-08-17T02:39:48.652Z</time><hdop>3.0</hdop><vdop>2.5</vdop><extensions><gom:speed>0.098</gom:speed></extensions></trkpt>
   <trkpt lat="59.326315366" lon="34.7043150977"><ele>173.874</ele><time>2026-08-17T02:39:49.647Z</time><hdop>3.0</hdop><vdop>2.5</vdop><extensions><gom:speed>0.119</gom:speed></extensions></trkpt>
   <trkpt lat="59.3263157851" lon="34.7043147624"><ele>173.993</ele><time>2026-08-17T02:39:50.652Z</time><hdop>3.0</hdop><vdop>2.5</vdop><extensions><gom:speed>0.08</gom:speed></extensions></trkpt>
   <trkpt lat="59.3263170843" lon="34.7043099847"><ele>174.064</ele><time>2026-08-17T02:39:51.228Z</time><hdop>3.0</hdop><vdop>2.5</vdop><extensions><gom:speed>0.101</gom:speed></extensions></trkpt>
   <trkpt lat="59.3263189702" lon="34.7043038659"><ele>174.289</ele><time>2026-08-17T02:39:52.645Z</time><hdop>3.0</hdop><vdop>2.5</vdop><extensions><gom:speed>0.115</gom:speed></extensions></trkpt>
   <trkpt lat="59.3263200599" lon="34.7042986691"><ele>174.335</ele><time>2026-08-17T02:39:53.652Z</time><hdop>3.0</hdop><vdop>2.5</vdop><extensions><gom:speed>0.084</gom:speed></extensions></trkpt>
   <trkpt lat="59.3263216943" lon="34.7042929694"><ele>174.362</ele><time>2026-08-17T02:39:54.183Z</time><hdop>3.0</hdop><vdop>2.5</vdop><extensions><gom:speed>0.157</gom:speed></extensions></trkpt>
   <trkpt lat="59.326321862" lon="34.7042929694"><ele>174.328</ele><time>2026-08-17T02:39:54.689Z</time><hdop>3.0</hdop><vdop>2.5</vdop><extensions><gom:speed>0.132</gom:speed></extensions></trkpt>
   <trkpt lat="59.3263232869" lon="34.704288527"><ele>174.239</ele><time>2026-08-17T02:39:55.653Z</time><hdop>3.0</hdop><vdop>2.5</vdop><extensions><gom:speed>0.083</gom:speed></extensions></trkpt>
   <trkpt lat="59.3263240832" lon="34.7042867668"><ele>174.229</ele><time>2026-08-17T02:39:56.652Z</time><hdop>3.0</hdop><vdop>2.5</vdop><extensions><gom:speed>0.047</gom:speed></extensions></trkpt>
   <trkpt lat="59.3263243765" lon="34.7042845875"><ele>173.788</ele><time>2026-08-17T02:39:57.653Z</time><hdop>3.0</hdop><vdop>2.5</vdop><extensions><gom:speed>0.043</gom:speed></extensions></trkpt>
   <trkpt lat="59.3263251728" lon="34.7042822406"><ele>173.609</ele><time>2026-08-17T02:39:58.652Z</time><hdop>3.0</hdop><vdop>2.5</vdop><extensions><gom:speed>0.066</gom:speed></extensions></trkpt>
   <trkpt lat="59.3263266816" lon="34.7042784687"><ele>173.502</ele><time>2026-08-17T02:39:59.201Z</time><hdop>3.0</hdop><vdop>2.5</vdop><extensions><gom:speed>0.105</gom:speed></extensions></trkpt>
   <trkpt lat="59.3263272683" lon="34.7042754512"><ele>173.441</ele><time>2026-08-17T02:40:00.223Z</time><hdop>3.0</hdop><vdop>2.5</vdop><extensions><gom:speed>0.112</gom:speed></extensions></trkpt>
   <trkpt lat="59.3263274778" lon="34.7042707574"><ele>173.234</ele><time>2026-08-17T02:40:01.204Z</time><hdop>3.0</hdop><vdop>2.5</vdop><extensions><gom:speed>0.154</gom:speed></extensions></trkpt>
   <trkpt lat="59.3263266816" lon="34.7042655606"><ele>173.131</ele><time>2026-08-17T02:40:02.368Z</time><hdop>3.0</hdop><vdop>2.5</vdop><extensions><gom:speed>0.174</gom:speed></extensions></trkpt>
   <trkpt lat="59.3263259691" lon="34.7042582683"><ele>173.333</ele><time>2026-08-17T02:40:03.501Z</time><hdop>3.0</hdop><vdop>2.625</vdop><extensions><gom:speed>0.25</gom:speed></extensions></trkpt>
   <trkpt lat="59.3263222811" lon="34.7042546641"><ele>173.28</ele><time>2026-08-17T02:40:04.260Z</time><hdop>3.0</hdop><vdop>2.687</vdop><extensions><gom:speed>0.268</gom:speed></extensions></trkpt>
   <trkpt lat="59.3263197665" lon="34.7042491321"><ele>173.673</ele><time>2026-08-17T02:40:05.099Z</time><hdop>3.0</hdop><vdop>2.625</vdop><extensions><gom:speed>0.294</gom:speed></extensions></trkpt>
   <trkpt lat="59.3263209819" lon="34.7042459469"><ele>173.605</ele><time>2026-08-17T02:40:05.652Z</time><hdop>3.0</hdop><vdop>2.687</vdop><extensions><gom:speed>0.365</gom:speed></extensions></trkpt>
   <trkpt lat="59.3263232869" lon="34.7042376489"><ele>173.13</ele><time>2026-08-17T02:40:06.647Z</time><hdop>3.0</hdop><vdop>2.5</vdop><extensions><gom:speed>0.392</gom:speed></extensions></trkpt>
   <trkpt lat="59.326326472" lon="34.7042339608"><ele>172.8</ele><time>2026-08-17T02:40:07.653Z</time><hdop>3.125</hdop><vdop>2.5</vdop><extensions><gom:speed>0.406</gom:speed></extensions></trkpt>
   <trkpt lat="59.3263294895" lon="34.7042272553"><ele>172.613</ele><time>2026-08-17T02:40:08.647Z</time><hdop>3.187</hdop><vdop>2.562</vdop><extensions><gom:speed>0.379</gom:speed></extensions></trkpt>
   <trkpt lat="59.3263275617" lon="34.7042316977"><ele>172.502</ele><time>2026-08-17T02:40:09.652Z</time><hdop>3.312</hdop><vdop>2.625</vdop><extensions><gom:speed>0.178</gom:speed></extensions></trkpt>
   <trkpt lat="59.3263298667" lon="34.7042256627"><ele>172.437</ele><time>2026-08-17T02:40:10.647Z</time><hdop>3.437</hdop><vdop>2.625</vdop><extensions><gom:speed>0.194</gom:speed></extensions></trkpt>
   <trkpt lat="59.3263263882" lon="34.704230189"><ele>172.402</ele><time>2026-08-17T02:40:11.652Z</time><hdop>3.625</hdop><vdop>2.75</vdop><extensions><gom:speed>0.031</gom:speed></extensions></trkpt>
   <trkpt lat="59.3263262625" lon="34.7042285964"><ele>172.38</ele><time>2026-08-17T02:40:12.652Z</time><hdop>3.75</hdop><vdop>2.687</vdop><extensions><gom:speed>0.019</gom:speed></extensions></trkpt>
   <trkpt lat="59.3263274778" lon="34.704225998"><ele>172.371</ele><time>2026-08-17T02:40:13.650Z</time><hdop>3.75</hdop><vdop>2.625</vdop><extensions><gom:speed>0.103</gom:speed></extensions></trkpt>
   <trkpt lat="59.3263286932" lon="34.7042256627"><ele>172.368</ele><time>2026-08-17T02:40:14.661Z</time><hdop>3.75</hdop><vdop>2.625</vdop><extensions><gom:speed>0.009</gom:speed></extensions></trkpt>
   <trkpt lat="59.3263291961" lon="34.7042234834"><ele>172.366</ele><time>2026-08-17T02:40:15.652Z</time><hdop>3.812</hdop><vdop>2.625</vdop><extensions><gom:speed>0.008</gom:speed></extensions></trkpt>
   <trkpt lat="59.3263310821" lon="34.7042197954"><ele>172.37</ele><time>2026-08-17T02:40:16.647Z</time><hdop>3.812</hdop><vdop>2.687</vdop><extensions><gom:speed>0.053</gom:speed></extensions></trkpt>
   <trkpt lat="59.3263300762" lon="34.7042180352"><ele>172.372</ele><time>2026-08-17T02:40:17.652Z</time><hdop>3.812</hdop><vdop>2.625</vdop><extensions><gom:speed>0.007</gom:speed></extensions></trkpt>
   <trkpt lat="59.3263318783" lon="34.7042148501"><ele>172.375</ele><time>2026-08-17T02:40:18.647Z</time><hdop>3.812</hdop><vdop>2.5</vdop><extensions><gom:speed>0.088</gom:speed></extensions></trkpt>
   <trkpt lat="59.3263324651" lon="34.7042134252"><ele>172.378</ele><time>2026-08-17T02:40:19.652Z</time><hdop>3.812</hdop><vdop>2.5</vdop><extensions><gom:speed>0.016</gom:speed></extensions></trkpt>
   <trkpt lat="59.3263328842" lon="34.7042126708"><ele>172.38</ele><time>2026-08-17T02:40:20.650Z</time><hdop>3.812</hdop><vdop>2.5</vdop><extensions><gom:speed>0.098</gom:speed></extensions></trkpt>
   <trkpt lat="59.3263305791" lon="34.7042143472"><ele>172.381</ele><time>2026-08-17T02:40:21.662Z</time><hdop>3.812</hdop><vdop>2.5</vdop><extensions><gom:speed>0.013</gom:speed></extensions></trkpt>
   <trkpt lat="59.3263311659" lon="34.7042142634"><ele>172.383</ele><time>2026-08-17T02:40:22.652Z</time><hdop>3.812</hdop><vdop>2.5</vdop><extensions><gom:speed>0.011</gom:speed></extensions></trkpt>
   <trkpt lat="59.3263321717" lon="34.7042123355"><ele>172.385</ele><time>2026-08-17T02:40:23.647Z</time><hdop>3.75</hdop><vdop>2.5</vdop><extensions><gom:speed>0.063</gom:speed></extensions></trkpt>
   <trkpt lat="59.3263312916" lon="34.7042127546"><ele>172.383</ele><time>2026-08-17T02:40:24.652Z</time><hdop>3.75</hdop><vdop>2.5</vdop><extensions><gom:speed>0.016</gom:speed></extensions></trkpt>
   <trkpt lat="59.3263316688" lon="34.7042114973"><ele>172.38</ele><time>2026-08-17T02:40:25.648Z</time><hdop>3.75</hdop><vdop>2.5</vdop><extensions><gom:speed>0.071</gom:speed></extensions></trkpt>
   <trkpt lat="59.3263318783" lon="34.7042111621"><ele>172.373</ele><time>2026-08-17T02:40:26.660Z</time><hdop>3.75</hdop><vdop>2.5</vdop><extensions><gom:speed>0.001</gom:speed></extensions></trkpt>
   <trkpt lat="59.3263321717" lon="34.7042106591"><ele>172.367</ele><time>2026-08-17T02:40:27.647Z</time><hdop>3.687</hdop><vdop>2.5</vdop><extensions><gom:speed>0.022</gom:speed></extensions></trkpt>
   <trkpt lat="59.3263322974" lon="34.7042103239"><ele>172.364</ele><time>2026-08-17T02:40:28.652Z</time><hdop>3.687</hdop><vdop>2.5</vdop><extensions><gom:speed>0.023</gom:speed></extensions></trkpt>
   <trkpt lat="59.3263325908" lon="34.7042099886"><ele>172.362</ele><time>2026-08-17T02:40:29.652Z</time><hdop>3.625</hdop><vdop>2.5</vdop><extensions><gom:speed>0.031</gom:speed></extensions></trkpt>
   <trkpt lat="59.3263328842" lon="34.7042092342"><ele>172.36</ele><time>2026-08-17T02:40:30.652Z</time><hdop>3.562</hdop><vdop>2.5</vdop><extensions><gom:speed>0.039</gom:speed></extensions></trkpt>
   <trkpt lat="59.3263331775" lon="34.7042086475"><ele>172.358</ele><time>2026-08-17T02:40:31.652Z</time><hdop>3.5</hdop><vdop>2.5</vdop><extensions><gom:speed>0.041</gom:speed></extensions></trkpt>
   <trkpt lat="59.3263334709" lon="34.7042079769"><ele>172.364</ele><time>2026-08-17T02:40:32.647Z</time><hdop>3.437</hdop><vdop>2.5</vdop><extensions><gom:speed>0.052</gom:speed></extensions></trkpt>
   <trkpt lat="59.32633389" lon="34.7042075578"><ele>172.369</ele><time>2026-08-17T02:40:33.652Z</time><hdop>3.375</hdop><vdop>2.5</vdop><extensions><gom:speed>0.053</gom:speed></extensions></trkpt>
   <trkpt lat="59.3263342672" lon="34.7042071387"><ele>172.373</ele><time>2026-08-17T02:40:34.654Z</time><hdop>3.312</hdop><vdop>2.5</vdop><extensions><gom:speed>0.057</gom:speed></extensions></trkpt>
   <trkpt lat="59.3263344767" lon="34.704206552"><ele>172.372</ele><time>2026-08-17T02:40:35.652Z</time><hdop>3.312</hdop><vdop>2.5</vdop><extensions><gom:speed>0.058</gom:speed></extensions></trkpt>
   <trkpt lat="59.3263345605" lon="34.7042058815"><ele>172.371</ele><time>2026-08-17T02:40:36.652Z</time><hdop>3.25</hdop><vdop>2.5</vdop><extensions><gom:speed>0.061</gom:speed></extensions></trkpt>
   <trkpt lat="59.3263346863" lon="34.7042051271"><ele>172.369</ele><time>2026-08-17T02:40:37.647Z</time><hdop>3.25</hdop><vdop>2.5</vdop><extensions><gom:speed>0.066</gom:speed></extensions></trkpt>
   <trkpt lat="59.3263348958" lon="34.7042045403"><ele>172.368</ele><time>2026-08-17T02:40:38.659Z</time><hdop>3.25</hdop><vdop>2.5</vdop><extensions><gom:speed>0.066</gom:speed></extensions></trkpt>
   <trkpt lat="59.326335273" lon="34.7042042889"><ele>172.367</ele><time>2026-08-17T02:40:39.661Z</time><hdop>3.187</hdop><vdop>2.5</vdop><extensions><gom:speed>0.068</gom:speed></extensions></trkpt>
   <trkpt lat="59.3263366979" lon="34.7042021934"><ele>172.258</ele><time>2026-08-17T02:40:40.647Z</time><hdop>3.25</hdop><vdop>2.5</vdop><extensions><gom:speed>0.172</gom:speed></extensions></trkpt>
   <trkpt lat="59.3263372847" lon="34.704200517"><ele>172.304</ele><time>2026-08-17T02:40:41.652Z</time><hdop>3.312</hdop><vdop>2.5</vdop><extensions><gom:speed>0.173</gom:speed></extensions></trkpt>
   <trkpt lat="59.326337578" lon="34.704199595"><ele>172.331</ele><time>2026-08-17T02:40:42.301Z</time><hdop>3.375</hdop><vdop>2.5</vdop><extensions><gom:speed>0.227</gom:speed></extensions></trkpt>
   <trkpt lat="59.3263387934" lon="34.7041951526"><ele>172.613</ele><time>2026-08-17T02:40:43.652Z</time><hdop>3.625</hdop><vdop>2.5</vdop><extensions><gom:speed>0.476</gom:speed></extensions></trkpt>
   <trkpt lat="59.326338961" lon="34.7041937277"><ele>172.705</ele><time>2026-08-17T02:40:44.652Z</time><hdop>3.75</hdop><vdop>2.5</vdop><extensions><gom:speed>0.22</gom:speed></extensions></trkpt>
   <trkpt lat="59.3263385839" lon="34.7041935601"><ele>172.728</ele><time>2026-08-17T02:40:45.647Z</time><hdop>3.875</hdop><vdop>2.5</vdop><extensions><gom:speed>0.253</gom:speed></extensions></trkpt>
   <trkpt lat="59.3263388772" lon="34.704192219"><ele>172.742</ele><time>2026-08-17T02:40:46.247Z</time><hdop>4.0</hdop><vdop>2.5</vdop><extensions><gom:speed>0.254</gom:speed></extensions></trkpt>
   <trkpt lat="59.3263382905" lon="34.7041900397"><ele>172.575</ele><time>2026-08-17T02:40:47.168Z</time><hdop>4.187</hdop><vdop>2.5</vdop><extensions><gom:speed>0.448</gom:speed></extensions></trkpt>
   <trkpt lat="59.326336195" lon="34.7041887824"><ele>172.399</ele><time>2026-08-17T02:40:47.647Z</time><hdop>4.375</hdop><vdop>2.5</vdop><extensions><gom:speed>0.423</gom:speed></extensions></trkpt>
   <trkpt lat="59.3263355664" lon="34.7041871898"><ele>172.293</ele><time>2026-08-17T02:40:48.544Z</time><hdop>4.437</hdop><vdop>2.5</vdop><extensions><gom:speed>0.347</gom:speed></extensions></trkpt>
   <trkpt lat="59.3263308725" lon="34.7041846752"><ele>171.962</ele><time>2026-08-17T02:40:49.263Z</time><hdop>4.562</hdop><vdop>2.5</vdop><extensions><gom:speed>0.387</gom:speed></extensions></trkpt>
   <trkpt lat="59.3263242927" lon="34.7041836694"><ele>171.134</ele><time>2026-08-17T02:40:50.062Z</time><hdop>4.687</hdop><vdop>2.5</vdop><extensions><gom:speed>0.413</gom:speed></extensions></trkpt>
   <trkpt lat="59.3263226582" lon="34.7041839209"><ele>170.639</ele><time>2026-08-17T02:40:50.690Z</time><hdop>4.75</hdop><vdop>2.5</vdop><extensions><gom:speed>0.423</gom:speed></extensions></trkpt>
   <trkpt lat="59.3263171681" lon="34.704183418"><ele>170.005</ele><time>2026-08-17T02:40:51.488Z</time><hdop>4.875</hdop><vdop>2.5</vdop><extensions><gom:speed>0.385</gom:speed></extensions></trkpt>
   <trkpt lat="59.3263118875" lon="34.7041815739"><ele>169.491</ele><time>2026-08-17T02:40:52.227Z</time><hdop>5.0</hdop><vdop>2.5</vdop><extensions><gom:speed>0.342</gom:speed></extensions></trkpt>
   <trkpt lat="59.3263048886" lon="34.7041784726"><ele>168.873</ele><time>2026-08-17T02:40:53.107Z</time><hdop>5.125</hdop><vdop>2.5</vdop><extensions><gom:speed>0.299</gom:speed></extensions></trkpt>
   <trkpt lat="59.3263034637" lon="34.7041783888"><ele>168.524</ele><time>2026-08-17T02:40:53.652Z</time><hdop>5.187</hdop><vdop>2.5</vdop><extensions><gom:speed>0.311</gom:speed></extensions></trkpt>
   <trkpt lat="59.3262925672" lon="34.7041737788"><ele>168.315</ele><time>2026-08-17T02:40:54.584Z</time><hdop>5.187</hdop><vdop>2.5</vdop><extensions><gom:speed>0.361</gom:speed></extensions></trkpt>
   <trkpt lat="59.3262827604" lon="34.7041688334"><ele>168.025</ele><time>2026-08-17T02:40:55.161Z</time><hdop>5.125</hdop><vdop>2.5</vdop><extensions><gom:speed>0.455</gom:speed></extensions></trkpt>
   <trkpt lat="59.3262739594" lon="34.7041669894"><ele>167.761</ele><time>2026-08-17T02:40:55.647Z</time><hdop>5.125</hdop><vdop>2.5</vdop><extensions><gom:speed>0.504</gom:speed></extensions></trkpt>
   <trkpt lat="59.3262679663" lon="34.7041656483"><ele>167.603</ele><time>2026-08-17T02:40:56.446Z</time><hdop>5.125</hdop><vdop>2.5</vdop><extensions><gom:speed>0.628</gom:speed></extensions></trkpt>
   <trkpt lat="59.3262535914" lon="34.7041622956"><ele>167.628</ele><time>2026-08-17T02:40:57.204Z</time><hdop>5.187</hdop><vdop>2.5</vdop><extensions><gom:speed>0.803</gom:speed></extensions></trkpt>
   <trkpt lat="59.3262401803" lon="34.7041571826"><ele>167.26</ele><time>2026-08-17T02:40:57.822Z</time><hdop>5.312</hdop><vdop>2.5</vdop><extensions><gom:speed>0.894</gom:speed></extensions></trkpt>
   <trkpt lat="59.3262336843" lon="34.7041601163"><ele>167.04</ele><time>2026-08-17T02:40:58.622Z</time><hdop>5.375</hdop><vdop>2.5</vdop><extensions><gom:speed>0.891</gom:speed></extensions></trkpt>
   <trkpt lat="59.3262210696" lon="34.7041572664"><ele>166.724</ele><time>2026-08-17T02:40:59.309Z</time><hdop>5.5</hdop><vdop>2.5</vdop><extensions><gom:speed>0.941</gom:speed></extensions></trkpt>
   <trkpt lat="59.3262100893" lon="34.7041522373"><ele>166.751</ele><time>2026-08-17T02:41:00.128Z</time><hdop>5.562</hdop><vdop>2.5</vdop><extensions><gom:speed>0.906</gom:speed></extensions></trkpt>
   <trkpt lat="59.3262058983" lon="34.7041492198"><ele>166.789</ele><time>2026-08-17T02:41:00.652Z</time><hdop>5.687</hdop><vdop>2.5</vdop><extensions><gom:speed>0.849</gom:speed></extensions></trkpt>
   <trkpt lat="59.3261946666" lon="34.7041345515"><ele>166.813</ele><time>2026-08-17T02:41:01.585Z</time><hdop>5.75</hdop><vdop>2.5</vdop><extensions><gom:speed>0.857</gom:speed></extensions></trkpt>
   <trkpt lat="59.3261701914" lon="34.7041173686"><ele>167.194</ele><time>2026-08-17T02:41:02.445Z</time><hdop>5.437</hdop><vdop>2.5</vdop><extensions><gom:speed>0.834</gom:speed></extensions></trkpt>
   <trkpt lat="59.3261544754" lon="34.7041140996"><ele>167.764</ele><time>2026-08-17T02:41:03.285Z</time><hdop>5.062</hdop><vdop>2.5</vdop><extensions><gom:speed>0.884</gom:speed></extensions></trkpt>
   <trkpt lat="59.326146764" lon="34.7041050472"><ele>168.333</ele><time>2026-08-17T02:41:03.943Z</time><hdop>4.625</hdop><vdop>2.5</vdop><extensions><gom:speed>0.842</gom:speed></extensions></trkpt>
   <trkpt lat="59.3261424892" lon="34.7040911332"><ele>168.664</ele><time>2026-08-17T02:41:04.647Z</time><hdop>4.25</hdop><vdop>2.5</vdop><extensions><gom:speed>0.776</gom:speed></extensions></trkpt>
   <trkpt lat="59.3261383821" lon="34.704076884"><ele>168.862</ele><time>2026-08-17T02:41:05.622Z</time><hdop>3.875</hdop><vdop>2.5</vdop><extensions><gom:speed>0.772</gom:speed></extensions></trkpt>
   <trkpt lat="59.3261364962" lon="34.7040649817"><ele>168.337</ele><time>2026-08-17T02:41:06.280Z</time><hdop>3.562</hdop><vdop>2.5</vdop><extensions><gom:speed>0.72</gom:speed></extensions></trkpt>
   <trkpt lat="59.3261361609" lon="34.7040517383"><ele>167.949</ele><time>2026-08-17T02:41:07.069Z</time><hdop>3.125</hdop><vdop>2.5</vdop><extensions><gom:speed>0.695</gom:speed></extensions></trkpt>
   <trkpt lat="59.3261371667" lon="34.7040437754"><ele>167.917</ele><time>2026-08-17T02:41:07.647Z</time><hdop>3.062</hdop><vdop>2.5</vdop><extensions><gom:speed>0.513</gom:speed></extensions></trkpt>
   <trkpt lat="59.3261385917" lon="34.704035645"><ele>167.897</ele><time>2026-08-17T02:41:08.647Z</time><hdop>3.0</hdop><vdop>2.5</vdop><extensions><gom:speed>0.362</gom:speed></extensions></trkpt>
   <trkpt lat="59.3261378792" lon="34.7040329628"><ele>167.885</ele><time>2026-08-17T02:41:09.264Z</time><hdop>3.0</hdop><vdop>2.5</vdop><extensions><gom:speed>0.34</gom:speed></extensions></trkpt>
   <trkpt lat="59.3261369991" lon="34.7040253353"><ele>167.961</ele><time>2026-08-17T02:41:10.165Z</time><hdop>3.0</hdop><vdop>2.5</vdop><extensions><gom:speed>0.438</gom:speed></extensions></trkpt>
   <trkpt lat="59.3261368734" lon="34.7040208928"><ele>168.107</ele><time>2026-08-17T02:41:10.647Z</time><hdop>3.0</hdop><vdop>2.5</vdop><extensions><gom:speed>0.42</gom:speed></extensions></trkpt>
   <trkpt lat="59.3261363704" lon="34.7040168695"><ele>168.194</ele><time>2026-08-17T02:41:11.207Z</time><hdop>3.0</hdop><vdop>2.5</vdop><extensions><gom:speed>0.407</gom:speed></extensions></trkpt>
   <trkpt lat="59.3261361609" lon="34.7040139359"><ele>168.312</ele><time>2026-08-17T02:41:11.844Z</time><hdop>3.0</hdop><vdop>2.5</vdop><extensions><gom:speed>0.303</gom:speed></extensions></trkpt>
   <trkpt lat="59.3261355742" lon="34.7040107507"><ele>168.383</ele><time>2026-08-17T02:41:12.421Z</time><hdop>3.0</hdop><vdop>2.5</vdop><extensions><gom:speed>0.308</gom:speed></extensions></trkpt>
   <trkpt lat="59.3261341912" lon="34.7040054701"><ele>168.338</ele><time>2026-08-17T02:41:13.402Z</time><hdop>3.0</hdop><vdop>2.5</vdop><extensions><gom:speed>0.278</gom:speed></extensions></trkpt>
   <trkpt lat="59.3261306708" lon="34.7039974235"><ele>168.195</ele><time>2026-08-17T02:41:14.445Z</time><hdop>3.0</hdop><vdop>2.5</vdop><extensions><gom:speed>0.346</gom:speed></extensions></trkpt>
   <trkpt lat="59.3261273599" lon="34.7039944899"><ele>168.252</ele><time>2026-08-17T02:41:15.224Z</time><hdop>3.0</hdop><vdop>2.5</vdop><extensions><gom:speed>0.315</gom:speed></extensions></trkpt>
   <trkpt lat="59.3261213668" lon="34.7039864432"><ele>167.8</ele><time>2026-08-17T02:41:16.266Z</time><hdop>3.0</hdop><vdop>2.5</vdop><extensions><gom:speed>0.414</gom:speed></extensions></trkpt>
   <trkpt lat="59.3261158767" lon="34.7039785642"><ele>167.81</ele><time>2026-08-17T02:41:17.105Z</time><hdop>3.0</hdop><vdop>2.625</vdop><extensions><gom:speed>0.479</gom:speed></extensions></trkpt>
   <trkpt lat="59.3261116857" lon="34.7039743733"><ele>167.79</ele><time>2026-08-17T02:41:17.647Z</time><hdop>3.0</hdop><vdop>2.687</vdop><extensions><gom:speed>0.508</gom:speed></extensions></trkpt>
   <trkpt lat="59.3261069919" lon="34.7039659914"><ele>168.01</ele><time>2026-08-17T02:41:18.647Z</time><hdop>3.0</hdop><vdop>2.625</vdop><extensions><gom:speed>0.53</gom:speed></extensions></trkpt>
   <trkpt lat="59.326103681" lon="34.7039513231"><ele>168.741</ele><time>2026-08-17T02:41:19.647Z</time><hdop>3.0</hdop><vdop>2.625</vdop><extensions><gom:speed>0.553</gom:speed></extensions></trkpt>
   <trkpt lat="59.3261015856" lon="34.7039420191"><ele>169.177</ele><time>2026-08-17T02:41:20.567Z</time><hdop>3.0</hdop><vdop>2.625</vdop><extensions><gom:speed>0.544</gom:speed></extensions></trkpt>
   <trkpt lat="59.3261012922" lon="34.703930033"><ele>169.691</ele><time>2026-08-17T02:41:21.658Z</time><hdop>3.0</hdop><vdop>2.5</vdop><extensions><gom:speed>0.423</gom:speed></extensions></trkpt>
   <trkpt lat="59.326106489" lon="34.7039038815"><ele>170.469</ele><time>2026-08-17T02:41:22.647Z</time><hdop>3.0</hdop><vdop>2.5</vdop><extensions><gom:speed>0.438</gom:speed></extensions></trkpt>
   <trkpt lat="59.3261111828" lon="34.7038861957"><ele>170.719</ele><time>2026-08-17T02:41:23.648Z</time><hdop>3.0</hdop><vdop>2.5</vdop><extensions><gom:speed>0.421</gom:speed></extensions></trkpt>
   <trkpt lat="59.3261113924" lon="34.7038799931"><ele>170.703</ele><time>2026-08-17T02:41:24.652Z</time><hdop>3.0</hdop><vdop>2.5</vdop><extensions><gom:speed>0.36</gom:speed></extensions></trkpt>
   <trkpt lat="59.3261196905" lon="34.7038562723"><ele>170.574</ele><time>2026-08-17T02:41:25.647Z</time><hdop>3.0</hdop><vdop>2.5</vdop><extensions><gom:speed>0.37</gom:speed></extensions></trkpt>
   <trkpt lat="59.3261211992" lon="34.7038483933"><ele>170.49</ele><time>2026-08-17T02:41:26.652Z</time><hdop>3.0</hdop><vdop>2.5</vdop><extensions><gom:speed>0.43</gom:speed></extensions></trkpt>
   <trkpt lat="59.3261271923" lon="34.7038396761"><ele>170.441</ele><time>2026-08-17T02:41:27.628Z</time><hdop>3.0</hdop><vdop>2.5</vdop><extensions><gom:speed>0.379</gom:speed></extensions></trkpt>
   <trkpt lat="59.3261337721" lon="34.7038236667"><ele>169.984</ele><time>2026-08-17T02:41:28.652Z</time><hdop>3.0</hdop><vdop>2.5</vdop><extensions><gom:speed>0.439</gom:speed></extensions></trkpt>
   <trkpt lat="59.3261387593" lon="34.7038134407"><ele>169.711</ele><time>2026-08-17T02:41:29.246Z</time><hdop>3.0</hdop><vdop>2.5</vdop><extensions><gom:speed>0.419</gom:speed></extensions></trkpt>
   <trkpt lat="59.3261419863" lon="34.7038054779"><ele>169.33</ele><time>2026-08-17T02:41:30.208Z</time><hdop>3.0</hdop><vdop>2.5</vdop><extensions><gom:speed>0.336</gom:speed></extensions></trkpt>
   <trkpt lat="59.3261419863" lon="34.703804053"><ele>169.135</ele><time>2026-08-17T02:41:30.663Z</time><hdop>3.0</hdop><vdop>2.5</vdop><extensions><gom:speed>0.285</gom:speed></extensions></trkpt>
   <trkpt lat="59.3261428664" lon="34.7037993591"><ele>169.018</ele><time>2026-08-17T02:41:31.281Z</time><hdop>3.0</hdop><vdop>2.5</vdop><extensions><gom:speed>0.298</gom:speed></extensions></trkpt>
   <trkpt lat="59.3261427826" lon="34.7037953358"><ele>169.053</ele><time>2026-08-17T02:41:32.403Z</time><hdop>3.0</hdop><vdop>2.5</vdop><extensions><gom:speed>0.244</gom:speed></extensions></trkpt>
   <trkpt lat="59.3261424892" lon="34.7037901391"><ele>168.751</ele><time>2026-08-17T02:41:33.652Z</time><hdop>3.0</hdop><vdop>2.5</vdop><extensions><gom:speed>0.21</gom:speed></extensions></trkpt>
   <trkpt lat="59.3261434951" lon="34.7037745487"><ele>168.295</ele><time>2026-08-17T02:41:34.647Z</time><hdop>3.0</hdop><vdop>2.5</vdop><extensions><gom:speed>0.3</gom:speed></extensions></trkpt>
   <trkpt lat="59.3261437884" lon="34.7037729562"><ele>168.023</ele><time>2026-08-17T02:41:35.185Z</time><hdop>3.0</hdop><vdop>2.5</vdop><extensions><gom:speed>0.241</gom:speed></extensions></trkpt>
   <trkpt lat="59.326143998" lon="34.7037654963"><ele>168.092</ele><time>2026-08-17T02:41:35.647Z</time><hdop>3.0</hdop><vdop>2.5</vdop><extensions><gom:speed>0.297</gom:speed></extensions></trkpt>
   <trkpt lat="59.3261443752" lon="34.703764239"><ele>168.237</ele><time>2026-08-17T02:41:36.652Z</time><hdop>3.0</hdop><vdop>2.5</vdop><extensions><gom:speed>0.158</gom:speed></extensions></trkpt>
   <trkpt lat="59.3261446685" lon="34.7037562762"><ele>168.038</ele><time>2026-08-17T02:41:37.652Z</time><hdop>3.0</hdop><vdop>2.5</vdop><extensions><gom:speed>0.182</gom:speed></extensions></trkpt>
   <trkpt lat="59.3261460935" lon="34.7037493192"><ele>167.919</ele><time>2026-08-17T02:41:38.544Z</time><hdop>3.0</hdop><vdop>2.5</vdop><extensions><gom:speed>0.226</gom:speed></extensions></trkpt>
   <trkpt lat="59.3261495719" lon="34.7037401829"><ele>168.27</ele><time>2026-08-17T02:41:39.647Z</time><hdop>3.0</hdop><vdop>2.5</vdop><extensions><gom:speed>0.214</gom:speed></extensions></trkpt>
   <trkpt lat="59.3261501587" lon="34.7037388418"><ele>168.48</ele><time>2026-08-17T02:41:40.102Z</time><hdop>3.0</hdop><vdop>2.5</vdop><extensions><gom:speed>0.234</gom:speed></extensions></trkpt>
   <trkpt lat="59.3261533857" lon="34.7037332259"><ele>168.059</ele><time>2026-08-17T02:41:40.648Z</time><hdop>3.0</hdop><vdop>2.5</vdop><extensions><gom:speed>0.234</gom:speed></extensions></trkpt>
   <trkpt lat="59.3261609713" lon="34.7037246764"><ele>167.846</ele><time>2026-08-17T02:41:41.647Z</time><hdop>3.0</hdop><vdop>2.5</vdop><extensions><gom:speed>0.344</gom:speed></extensions></trkpt>
   <trkpt lat="59.3261673835" lon="34.7037171327"><ele>167.721</ele><time>2026-08-17T02:41:42.647Z</time><hdop>3.0</hdop><vdop>2.5</vdop><extensions><gom:speed>0.278</gom:speed></extensions></trkpt>
   <trkpt lat="59.3261696885" lon="34.7037130255"><ele>167.646</ele><time>2026-08-17T02:41:43.522Z</time><hdop>3.0</hdop><vdop>2.5</vdop><extensions><gom:speed>0.35</gom:speed></extensions></trkpt>
   <trkpt lat="59.3261758911" lon="34.7037046436"><ele>167.598</ele><time>2026-08-17T02:41:44.483Z</time><hdop>3.0</hdop><vdop>2.5</vdop><extensions><gom:speed>0.398</gom:speed></extensions></trkpt>
   <trkpt lat="59.3261822614" lon="34.7036950883"><ele>167.598</ele><time>2026-08-17T02:41:45.648Z</time><hdop>3.0</hdop><vdop>2.5</vdop><extensions><gom:speed>0.308</gom:speed></extensions></trkpt>
   <trkpt lat="59.3261830996" lon="34.7036895562"><ele>167.597</ele><time>2026-08-17T02:41:46.487Z</time><hdop>3.0</hdop><vdop>2.5</vdop><extensions><gom:speed>0.332</gom:speed></extensions></trkpt>
   <trkpt lat="59.3261822614" lon="34.7036776539"><ele>167.677</ele><time>2026-08-17T02:41:47.205Z</time><hdop>3.0</hdop><vdop>2.5</vdop><extensions><gom:speed>0.495</gom:speed></extensions></trkpt>
   <trkpt lat="59.3261812974" lon="34.7036719542"><ele>167.468</ele><time>2026-08-17T02:41:47.660Z</time><hdop>3.0</hdop><vdop>2.5</vdop><extensions><gom:speed>0.578</gom:speed></extensions></trkpt>
   <trkpt lat="59.3261798725" lon="34.703660471"><ele>167.419</ele><time>2026-08-17T02:41:48.646Z</time><hdop>3.0</hdop><vdop>2.5</vdop><extensions><gom:speed>0.533</gom:speed></extensions></trkpt>
   <trkpt lat="59.326179663" lon="34.7036505804"><ele>167.389</ele><time>2026-08-17T02:41:49.562Z</time><hdop>3.0</hdop><vdop>2.5</vdop><extensions><gom:speed>0.555</gom:speed></extensions></trkpt>
   <trkpt lat="59.3261803754" lon="34.7036426176"><ele>167.489</ele><time>2026-08-17T02:41:50.564Z</time><hdop>3.0</hdop><vdop>2.5</vdop><extensions><gom:speed>0.504</gom:speed></extensions></trkpt>
   <trkpt lat="59.3261816746" lon="34.7036310505"><ele>167.604</ele><time>2026-08-17T02:41:51.424Z</time><hdop>3.0</hdop><vdop>2.5</vdop><extensions><gom:speed>0.551</gom:speed></extensions></trkpt>
   <trkpt lat="59.3261838958" lon="34.7036160469"><ele>167.712</ele><time>2026-08-17T02:41:52.366Z</time><hdop>3.0</hdop><vdop>2.812</vdop><extensions><gom:speed>0.6</gom:speed></extensions></trkpt>
   <trkpt lat="59.326186578" lon="34.7036103472"><ele>167.776</ele><time>2026-08-17T02:41:53.023Z</time><hdop>3.0</hdop><vdop>2.687</vdop><extensions><gom:speed>0.491</gom:speed></extensions></trkpt>
   <trkpt lat="59.3261898889" lon="34.7035986964"><ele>167.775</ele><time>2026-08-17T02:41:53.647Z</time><hdop>3.0</hdop><vdop>2.812</vdop><extensions><gom:speed>0.61</gom:speed></extensions></trkpt>
   <trkpt lat="59.3261908947" lon="34.7035917394"><ele>167.775</ele><time>2026-08-17T02:41:54.328Z</time><hdop>3.0</hdop><vdop>2.812</vdop><extensions><gom:speed>0.574</gom:speed></extensions></trkpt>
   <trkpt lat="59.3261921939" lon="34.7035881352"><ele>167.769</ele><time>2026-08-17T02:41:55.209Z</time><hdop>3.0</hdop><vdop>2.687</vdop><extensions><gom:speed>0.443</gom:speed></extensions></trkpt>
   <trkpt lat="59.3261952952" lon="34.7035743889"><ele>167.791</ele><time>2026-08-17T02:41:56.647Z</time><hdop>3.0</hdop><vdop>2.687</vdop><extensions><gom:speed>0.469</gom:speed></extensions></trkpt>
   <trkpt lat="59.3261948761" lon="34.7035722934"><ele>167.806</ele><time>2026-08-17T02:41:57.652Z</time><hdop>3.0</hdop><vdop>2.5</vdop><extensions><gom:speed>0.276</gom:speed></extensions></trkpt>
   <trkpt lat="59.326195379" lon="34.7035697788"><ele>167.815</ele><time>2026-08-17T02:41:58.587Z</time><hdop>3.0</hdop><vdop>2.5</vdop><extensions><gom:speed>0.252</gom:speed></extensions></trkpt>
   <trkpt lat="59.3261971812" lon="34.7035732992"><ele>167.823</ele><time>2026-08-17T02:41:59.647Z</time><hdop>3.0</hdop><vdop>2.5</vdop><extensions><gom:speed>0.107</gom:speed></extensions></trkpt>
   <trkpt lat="59.3261975583" lon="34.7035756462"><ele>167.828</ele><time>2026-08-17T02:42:00.647Z</time><hdop>3.0</hdop><vdop>2.5</vdop><extensions><gom:speed>0.097</gom:speed></extensions></trkpt>
   <trkpt lat="59.3261976841" lon="34.7035743889"><ele>167.833</ele><time>2026-08-17T02:42:01.653Z</time><hdop>3.0</hdop><vdop>2.5</vdop><extensions><gom:speed>0.015</gom:speed></extensions></trkpt>
   <trkpt lat="59.3261979774" lon="34.7035732992"><ele>167.837</ele><time>2026-08-17T02:42:02.652Z</time><hdop>3.0</hdop><vdop>2.5</vdop><extensions><gom:speed>0.028</gom:speed></extensions></trkpt>
   <trkpt lat="59.3261984804" lon="34.7035732992"><ele>167.823</ele><time>2026-08-17T02:42:03.647Z</time><hdop>3.0</hdop><vdop>2.5</vdop><extensions><gom:speed>0.108</gom:speed></extensions></trkpt>
   <trkpt lat="59.3261984804" lon="34.7035720419"><ele>167.683</ele><time>2026-08-17T02:42:04.659Z</time><hdop>3.0</hdop><vdop>2.5</vdop><extensions><gom:speed>0.121</gom:speed></extensions></trkpt>
   <trkpt lat="59.3261992766" lon="34.7035653364"><ele>167.595</ele><time>2026-08-17T02:42:05.647Z</time><hdop>3.0</hdop><vdop>2.5</vdop><extensions><gom:speed>0.207</gom:speed></extensions></trkpt>
   <trkpt lat="59.3261997795" lon="34.7035614807"><ele>167.123</ele><time>2026-08-17T02:42:06.652Z</time><hdop>3.0</hdop><vdop>2.5</vdop><extensions><gom:speed>0.229</gom:speed></extensions></trkpt>
   <trkpt lat="59.3262008692" lon="34.7035529312"><ele>166.842</ele><time>2026-08-17T02:42:07.622Z</time><hdop>3.062</hdop><vdop>2.5</vdop><extensions><gom:speed>0.267</gom:speed></extensions></trkpt>
   <trkpt lat="59.3262026713" lon="34.7035435435"><ele>166.722</ele><time>2026-08-17T02:42:08.462Z</time><hdop>3.187</hdop><vdop>2.5</vdop><extensions><gom:speed>0.312</gom:speed></extensions></trkpt>
   <trkpt lat="59.3262042639" lon="34.7035355807"><ele>166.209</ele><time>2026-08-17T02:42:09.403Z</time><hdop>3.312</hdop><vdop>2.687</vdop><extensions><gom:speed>0.347</gom:speed></extensions></trkpt>
   <trkpt lat="59.3262056888" lon="34.7035257738"><ele>165.697</ele><time>2026-08-17T02:42:10.324Z</time><hdop>3.5</hdop><vdop>2.812</vdop><extensions><gom:speed>0.368</gom:speed></extensions></trkpt>
   <trkpt lat="59.326211598" lon="34.7035285399"><ele>165.257</ele><time>2026-08-17T02:42:11.326Z</time><hdop>3.5</hdop><vdop>2.5</vdop><extensions><gom:speed>0.326</gom:speed></extensions></trkpt>
   <trkpt lat="59.3262165853" lon="34.7035226725"><ele>165.015</ele><time>2026-08-17T02:42:12.064Z</time><hdop>3.5</hdop><vdop>2.5</vdop><extensions><gom:speed>0.482</gom:speed></extensions></trkpt>
   <trkpt lat="59.3262197704" lon="34.7035268635"><ele>164.875</ele><time>2026-08-17T02:42:12.647Z</time><hdop>3.5</hdop><vdop>2.5</vdop><extensions><gom:speed>0.332</gom:speed></extensions></trkpt>
   <trkpt lat="59.3262195608" lon="34.703520158"><ele>164.935</ele><time>2026-08-17T02:42:13.662Z</time><hdop>3.375</hdop><vdop>2.5</vdop><extensions><gom:speed>0.361</gom:speed></extensions></trkpt>
   <trkpt lat="59.3262229974" lon="34.7035067469"><ele>164.743</ele><time>2026-08-17T02:42:14.652Z</time><hdop>3.25</hdop><vdop>2.5</vdop><extensions><gom:speed>0.536</gom:speed></extensions></trkpt>
   <trkpt lat="59.3262265597" lon="34.7034898993"><ele>164.79</ele><time>2026-08-17T02:42:15.647Z</time><hdop>3.062</hdop><vdop>2.5</vdop><extensions><gom:speed>0.636</gom:speed></extensions></trkpt>
   <trkpt lat="59.3262276913" lon="34.7034790866"><ele>164.914</ele><time>2026-08-17T02:42:16.648Z</time><hdop>3.0</hdop><vdop>2.5</vdop><extensions><gom:speed>0.588</gom:speed></extensions></trkpt>
   <trkpt lat="59.3262280685" lon="34.70347565"><ele>164.988</ele><time>2026-08-17T02:42:17.203Z</time><hdop>3.0</hdop><vdop>2.5</vdop><extensions><gom:speed>0.459</gom:speed></extensions></trkpt>
   <trkpt lat="59.3262298706" lon="34.7034646698"><ele>165.012</ele><time>2026-08-17T02:42:18.660Z</time><hdop>3.0</hdop><vdop>2.5</vdop><extensions><gom:speed>0.332</gom:speed></extensions></trkpt>
   <trkpt lat="59.3262323851" lon="34.7034548629"><ele>164.957</ele><time>2026-08-17T02:42:19.348Z</time><hdop>3.0</hdop><vdop>2.5</vdop><extensions><gom:speed>0.408</gom:speed></extensions></trkpt>
   <trkpt lat="59.3262346902" lon="34.7034441341"><ele>164.809</ele><time>2026-08-17T02:42:20.401Z</time><hdop>3.0</hdop><vdop>2.5</vdop><extensions><gom:speed>0.377</gom:speed></extensions></trkpt>
   <trkpt lat="59.3262359894" lon="34.7034335729"><ele>164.583</ele><time>2026-08-17T02:42:21.645Z</time><hdop>3.0</hdop><vdop>2.5</vdop><extensions><gom:speed>0.363</gom:speed></extensions></trkpt>
   <trkpt lat="59.3262360732" lon="34.7034223411"><ele>164.431</ele><time>2026-08-17T02:42:22.647Z</time><hdop>3.0</hdop><vdop>2.5</vdop><extensions><gom:speed>0.383</gom:speed></extensions></trkpt>
   <trkpt lat="59.326234774" lon="34.7034119476"><ele>164.323</ele><time>2026-08-17T02:42:23.658Z</time><hdop>3.0</hdop><vdop>2.5</vdop><extensions><gom:speed>0.347</gom:speed></extensions></trkpt>
   <trkpt lat="59.3262289905" lon="34.7033921663"><ele>164.203</ele><time>2026-08-17T02:42:24.647Z</time><hdop>3.0</hdop><vdop>2.5</vdop><extensions><gom:speed>0.463</gom:speed></extensions></trkpt>
   <trkpt lat="59.3262289905" lon="34.7033868857"><ele>164.14</ele><time>2026-08-17T02:42:25.653Z</time><hdop>3.0</hdop><vdop>2.5</vdop><extensions><gom:speed>0.351</gom:speed></extensions></trkpt>
   <trkpt lat="59.3262242966" lon="34.7033783362"><ele>164.137</ele><time>2026-08-17T02:42:26.652Z</time><hdop>3.0</hdop><vdop>2.5</vdop><extensions><gom:speed>0.316</gom:speed></extensions></trkpt>
   <trkpt lat="59.3262196866" lon="34.7033704572"><ele>164.274</ele><time>2026-08-17T02:42:27.652Z</time><hdop>3.0</hdop><vdop>2.5</vdop><extensions><gom:speed>0.278</gom:speed></extensions></trkpt>
   <trkpt lat="59.3262152861" lon="34.7033625782"><ele>164.356</ele><time>2026-08-17T02:42:28.616Z</time><hdop>3.0</hdop><vdop>2.5</vdop><extensions><gom:speed>0.315</gom:speed></extensions></trkpt>
   <trkpt lat="59.3262100893" lon="34.7033565432"><ele>164.557</ele><time>2026-08-17T02:42:29.647Z</time><hdop>3.0</hdop><vdop>2.5</vdop><extensions><gom:speed>0.181</gom:speed></extensions></trkpt>
   <trkpt lat="59.3262112628" lon="34.7033578843"><ele>164.709</ele><time>2026-08-17T02:42:30.652Z</time><hdop>3.0</hdop><vdop>2.5</vdop><extensions><gom:speed>0.044</gom:speed></extensions></trkpt>
   <trkpt lat="59.3262058983" lon="34.7033474907"><ele>164.799</ele><time>2026-08-17T02:42:31.646Z</time><hdop>3.0</hdop><vdop>2.5</vdop><extensions><gom:speed>0.111</gom:speed></extensions></trkpt>
   <trkpt lat="59.3262065689" lon="34.7033484966"><ele>164.853</ele><time>2026-08-17T02:42:32.663Z</time><hdop>3.0</hdop><vdop>2.5</vdop><extensions><gom:speed>0.02</gom:speed></extensions></trkpt>
   <trkpt lat="59.3262044734" lon="34.7033443894"><ele>164.885</ele><time>2026-08-17T02:42:33.652Z</time><hdop>3.0</hdop><vdop>2.5</vdop><extensions><gom:speed>0.022</gom:speed></extensions></trkpt>
   <trkpt lat="59.3262016655" lon="34.7033403661"><ele>164.904</ele><time>2026-08-17T02:42:34.647Z</time><hdop>3.0</hdop><vdop>2.5</vdop><extensions><gom:speed>0.084</gom:speed></extensions></trkpt>
   <trkpt lat="59.3262020846" lon="34.7033418749"><ele>164.915</ele><time>2026-08-17T02:42:35.652Z</time><hdop>3.0</hdop><vdop>2.5</vdop><extensions><gom:speed>0.018</gom:speed></extensions></trkpt>
   <trkpt lat="59.3262012883" lon="34.703340869"><ele>164.922</ele><time>2026-08-17T02:42:36.652Z</time><hdop>3.0</hdop><vdop>2.5</vdop><extensions><gom:speed>0.025</gom:speed></extensions></trkpt>
   <trkpt lat="59.3261983965" lon="34.7033391927"><ele>164.925</ele><time>2026-08-17T02:42:37.648Z</time><hdop>3.0</hdop><vdop>2.5</vdop><extensions><gom:speed>0.088</gom:speed></extensions></trkpt>
   <trkpt lat="59.3261971812" lon="34.7033372648"><ele>164.927</ele><time>2026-08-17T02:42:38.647Z</time><hdop>3.0</hdop><vdop>2.5</vdop><extensions><gom:speed>0.104</gom:speed></extensions></trkpt>
   <trkpt lat="59.3261970973" lon="34.7033375163"><ele>164.928</ele><time>2026-08-17T02:42:39.652Z</time><hdop>3.0</hdop><vdop>2.5</vdop><extensions><gom:speed>0.013</gom:speed></extensions></trkpt>
   <trkpt lat="59.3261963849" lon="34.7033367619"><ele>164.927</ele><time>2026-08-17T02:42:40.652Z</time><hdop>3.0</hdop><vdop>2.5</vdop><extensions><gom:speed>0.011</gom:speed></extensions></trkpt>
   <trkpt lat="59.3261956724" lon="34.7033361752"><ele>164.927</ele><time>2026-08-17T02:42:41.647Z</time><hdop>3.0</hdop><vdop>2.5</vdop><extensions><gom:speed>0.069</gom:speed></extensions></trkpt>
   <trkpt lat="59.3261957981" lon="34.7033363428"><ele>164.91</ele><time>2026-08-17T02:42:42.659Z</time><hdop>3.0</hdop><vdop>2.5</vdop><extensions><gom:speed>0.026</gom:speed></extensions></trkpt>
   <trkpt lat="59.3261946666" lon="34.7033352532"><ele>164.908</ele><time>2026-08-17T02:42:43.648Z</time><hdop>3.0</hdop><vdop>2.5</vdop><extensions><gom:speed>0.076</gom:speed></extensions></trkpt>
   <trkpt lat="59.3261938703" lon="34.7033350855"><ele>165.134</ele><time>2026-08-17T02:42:44.647Z</time><hdop>3.0</hdop><vdop>2.5</vdop><extensions><gom:speed>0.099</gom:speed></extensions></trkpt>
   <trkpt lat="59.32619496" lon="34.7033347503"><ele>165.319</ele><time>2026-08-17T02:42:45.652Z</time><hdop>3.0</hdop><vdop>2.5</vdop><extensions><gom:speed>0.043</gom:speed></extensions></trkpt>
   <trkpt lat="59.3261941637" lon="34.7033337444"><ele>165.428</ele><time>2026-08-17T02:42:46.652Z</time><hdop>3.0</hdop><vdop>2.5</vdop><extensions><gom:speed>0.084</gom:speed></extensions></trkpt>
   <trkpt lat="59.3261938703" lon="34.7033338282"><ele>165.493</ele><time>2026-08-17T02:42:47.652Z</time><hdop>3.0</hdop><vdop>2.5</vdop><extensions><gom:speed>0.017</gom:speed></extensions></trkpt>
   <trkpt lat="59.3261933674" lon="34.7033341635"><ele>165.53</ele><time>2026-08-17T02:42:48.647Z</time><hdop>3.0</hdop><vdop>2.5</vdop><extensions><gom:speed>0.036</gom:speed></extensions></trkpt>
   <trkpt lat="59.3261933674" lon="34.703333493"><ele>165.555</ele><time>2026-08-17T02:42:49.652Z</time><hdop>3.0</hdop><vdop>2.5</vdop><extensions><gom:speed>0.037</gom:speed></extensions></trkpt>
   <trkpt lat="59.3261931998" lon="34.7033338282"><ele>165.572</ele><time>2026-08-17T02:42:50.647Z</time><hdop>3.0</hdop><vdop>2.5</vdop><extensions><gom:speed>0.045</gom:speed></extensions></trkpt>
   <trkpt lat="59.3261929902" lon="34.7033333253"><ele>165.584</ele><time>2026-08-17T02:42:51.647Z</time><hdop>3.0</hdop><vdop>2.5</vdop><extensions><gom:speed>0.049</gom:speed></extensions></trkpt>
   <trkpt lat="59.326193074" lon="34.7033326548"><ele>165.591</ele><time>2026-08-17T02:42:52.655Z</time><hdop>3.0</hdop><vdop>2.5</vdop><extensions><gom:speed>0.049</gom:speed></extensions></trkpt>
   <trkpt lat="59.3261929902" lon="34.703332571"><ele>165.595</ele><time>2026-08-17T02:42:53.161Z</time><hdop>3.0</hdop><vdop>2.5</vdop><extensions><gom:speed>0.052</gom:speed></extensions></trkpt>
   <trkpt lat="59.3261928645" lon="34.7033324871"><ele>165.597</ele><time>2026-08-17T02:42:53.647Z</time><hdop>3.0</hdop><vdop>2.5</vdop><extensions><gom:speed>0.054</gom:speed></extensions></trkpt>
   <trkpt lat="59.3261928645" lon="34.703332068"><ele>165.6</ele><time>2026-08-17T02:42:54.647Z</time><hdop>3.0</hdop><vdop>2.5</vdop><extensions><gom:speed>0.056</gom:speed></extensions></trkpt>
   <trkpt lat="59.3261929902" lon="34.703331146"><ele>165.601</ele><time>2026-08-17T02:42:55.670Z</time><hdop>3.0</hdop><vdop>2.5</vdop><extensions><gom:speed>0.056</gom:speed></extensions></trkpt>
   <trkpt lat="59.3261927807" lon="34.7033312299"><ele>165.602</ele><time>2026-08-17T02:42:56.647Z</time><hdop>3.0</hdop><vdop>2.5</vdop><extensions><gom:speed>0.061</gom:speed></extensions></trkpt>
   <trkpt lat="59.3261927807" lon="34.7033308946"><ele>165.604</ele><time>2026-08-17T02:42:57.647Z</time><hdop>3.0</hdop><vdop>2.5</vdop><extensions><gom:speed>0.064</gom:speed></extensions></trkpt>
   <trkpt lat="59.3261925711" lon="34.7033300564"><ele>165.605</ele><time>2026-08-17T02:42:58.647Z</time><hdop>3.0</hdop><vdop>2.5</vdop><extensions><gom:speed>0.07</gom:speed></extensions></trkpt>
   <trkpt lat="59.3261925711" lon="34.7033293858"><ele>165.605</ele><time>2026-08-17T02:42:59.652Z</time><hdop>3.0</hdop><vdop>2.5</vdop><extensions><gom:speed>0.07</gom:speed></extensions></trkpt>
   <trkpt lat="59.3261922777" lon="34.7033295535"><ele>165.601</ele><time>2026-08-17T02:43:00.647Z</time><hdop>3.0</hdop><vdop>2.5</vdop><extensions><gom:speed>0.072</gom:speed></extensions></trkpt>
   <trkpt lat="59.3261922777" lon="34.7033286315"><ele>165.596</ele><time>2026-08-17T02:43:01.652Z</time><hdop>3.0</hdop><vdop>2.5</vdop><extensions><gom:speed>0.072</gom:speed></extensions></trkpt>
   <trkpt lat="59.3261920682" lon="34.70332838"><ele>165.588</ele><time>2026-08-17T02:43:02.651Z</time><hdop>3.0</hdop><vdop>2.5</vdop><extensions><gom:speed>0.073</gom:speed></extensions></trkpt>
   <trkpt lat="59.3261918586" lon="34.7033286315"><ele>165.58</ele><time>2026-08-17T02:43:03.647Z</time><hdop>3.0</hdop><vdop>2.5</vdop><extensions><gom:speed>0.071</gom:speed></extensions></trkpt>
   <trkpt lat="59.3261918586" lon="34.7033281286"><ele>165.576</ele><time>2026-08-17T02:43:04.371Z</time><hdop>3.0</hdop><vdop>2.5</vdop><extensions><gom:speed>0.072</gom:speed></extensions></trkpt>
   <trkpt lat="59.3261914815" lon="34.7033285476"><ele>165.567</ele><time>2026-08-17T02:43:05.646Z</time><hdop>3.0</hdop><vdop>2.5</vdop><extensions><gom:speed>0.076</gom:speed></extensions></trkpt>
   <trkpt lat="59.3261914815" lon="34.70332838"><ele>165.562</ele><time>2026-08-17T02:43:06.647Z</time><hdop>3.0</hdop><vdop>2.5</vdop><extensions><gom:speed>0.075</gom:speed></extensions></trkpt>
   <trkpt lat="59.3261913976" lon="34.7033282962"><ele>165.56</ele><time>2026-08-17T02:43:07.647Z</time><hdop>3.0</hdop><vdop>2.5</vdop><extensions><gom:speed>0.073</gom:speed></extensions></trkpt>
   <trkpt lat="59.3261913976" lon="34.7033275418"><ele>165.56</ele><time>2026-08-17T02:43:08.652Z</time><hdop>3.0</hdop><vdop>2.5</vdop><extensions><gom:speed>0.074</gom:speed></extensions></trkpt>
   <trkpt lat="59.3261912719" lon="34.703327458"><ele>165.561</ele><time>2026-08-17T02:43:09.652Z</time><hdop>3.0</hdop><vdop>2.5</vdop><extensions><gom:speed>0.074</gom:speed></extensions></trkpt>
   <trkpt lat="59.3261910624" lon="34.7033278771"><ele>165.563</ele><time>2026-08-17T02:43:10.646Z</time><hdop>3.0</hdop><vdop>2.5</vdop><extensions><gom:speed>0.071</gom:speed></extensions></trkpt>
   <trkpt lat="59.3261910624" lon="34.7033272904"><ele>165.564</ele><time>2026-08-17T02:43:11.656Z</time><hdop>3.0</hdop><vdop>2.5</vdop><extensions><gom:speed>0.072</gom:speed></extensions></trkpt>
   <trkpt lat="59.3261909785" lon="34.7033270389"><ele>165.566</ele><time>2026-08-17T02:43:12.668Z</time><hdop>3.0</hdop><vdop>2.5</vdop><extensions><gom:speed>0.073</gom:speed></extensions></trkpt>
   <trkpt lat="59.3261909785" lon="34.7033267874"><ele>165.568</ele><time>2026-08-17T02:43:13.652Z</time><hdop>3.0</hdop><vdop>2.5</vdop><extensions><gom:speed>0.072</gom:speed></extensions></trkpt>
   <trkpt lat="59.326190769" lon="34.7033272904"><ele>165.57</ele><time>2026-08-17T02:43:14.647Z</time><hdop>3.0</hdop><vdop>2.5</vdop><extensions><gom:speed>0.068</gom:speed></extensions></trkpt>
   <trkpt lat="59.326190769" lon="34.7033268713"><ele>165.572</ele><time>2026-08-17T02:43:15.500Z</time><hdop>3.0</hdop><vdop>2.5</vdop><extensions><gom:speed>0.069</gom:speed></extensions></trkpt>
   <trkpt lat="59.3261905595" lon="34.7033268713"><ele>165.573</ele><time>2026-08-17T02:43:16.652Z</time><hdop>3.0</hdop><vdop>2.5</vdop><extensions><gom:speed>0.068</gom:speed></extensions></trkpt>
   <trkpt lat="59.3261904756" lon="34.7033275418"><ele>165.574</ele><time>2026-08-17T02:43:17.647Z</time><hdop>3.0</hdop><vdop>2.5</vdop><extensions><gom:speed>0.067</gom:speed></extensions></trkpt>
   <trkpt lat="59.3261904756" lon="34.7033272904"><ele>165.574</ele><time>2026-08-17T02:43:18.653Z</time><hdop>3.0</hdop><vdop>2.5</vdop><extensions><gom:speed>0.067</gom:speed></extensions></trkpt>
   <trkpt lat="59.3261904756" lon="34.7033273742"><ele>165.575</ele><time>2026-08-17T02:43:19.649Z</time><hdop>3.0</hdop><vdop>2.5</vdop><extensions><gom:speed>0.072</gom:speed></extensions></trkpt>
   <trkpt lat="59.3261902661" lon="34.70332838"><ele>165.623</ele><time>2026-08-17T02:43:20.647Z</time><hdop>3.0</hdop><vdop>2.5</vdop><extensions><gom:speed>0.264</gom:speed></extensions></trkpt>
   <trkpt lat="59.3261902661" lon="34.7033276256"><ele>165.652</ele><time>2026-08-17T02:43:21.166Z</time><hdop>3.0</hdop><vdop>2.5</vdop><extensions><gom:speed>0.264</gom:speed></extensions></trkpt>
   <trkpt lat="59.3261899727" lon="34.7033279609"><ele>165.673</ele><time>2026-08-17T02:43:21.647Z</time><hdop>3.0</hdop><vdop>2.5</vdop><extensions><gom:speed>0.097</gom:speed></extensions></trkpt>
   <trkpt lat="59.3261895955" lon="34.7033282962"><ele>165.685</ele><time>2026-08-17T02:43:22.647Z</time><hdop>3.0</hdop><vdop>2.5</vdop><extensions><gom:speed>0.088</gom:speed></extensions></trkpt>
   <trkpt lat="59.3261894698" lon="34.7033281286"><ele>165.693</ele><time>2026-08-17T02:43:23.652Z</time><hdop>3.0</hdop><vdop>2.5</vdop><extensions><gom:speed>0.088</gom:speed></extensions></trkpt>
   <trkpt lat="59.3261889669" lon="34.7033294697"><ele>165.699</ele><time>2026-08-17T02:43:24.647Z</time><hdop>3.0</hdop><vdop>2.5</vdop><extensions><gom:speed>0.074</gom:speed></extensions></trkpt>
   <trkpt lat="59.3261889669" lon="34.7033294697"><ele>165.702</ele><time>2026-08-17T02:43:25.652Z</time><hdop>3.0</hdop><vdop>2.5</vdop><extensions><gom:speed>0.074</gom:speed></extensions></trkpt>
   <trkpt lat="59.3261885897" lon="34.7033303917"><ele>165.702</ele><time>2026-08-17T02:43:26.647Z</time><hdop>3.0</hdop><vdop>2.5</vdop><extensions><gom:speed>0.066</gom:speed></extensions></trkpt>
   <trkpt lat="59.3261882963" lon="34.7033304755"><ele>165.7</ele><time>2026-08-17T02:43:27.646Z</time><hdop>3.0</hdop><vdop>2.5</vdop><extensions><gom:speed>0.069</gom:speed></extensions></trkpt>
   <trkpt lat="59.3261882963" lon="34.703330224"><ele>165.697</ele><time>2026-08-17T02:43:28.653Z</time><hdop>3.0</hdop><vdop>2.5</vdop><extensions><gom:speed>0.069</gom:speed></extensions></trkpt>
   <trkpt lat="59.3261881706" lon="34.7033309784"><ele>165.692</ele><time>2026-08-17T02:43:29.647Z</time><hdop>3.0</hdop><vdop>2.5</vdop><extensions><gom:speed>0.068</gom:speed></extensions></trkpt>
   <trkpt lat="59.3261881706" lon="34.7033307269"><ele>165.687</ele><time>2026-08-17T02:43:30.652Z</time><hdop>3.0</hdop><vdop>2.5</vdop><extensions><gom:speed>0.068</gom:speed></extensions></trkpt>
   <trkpt lat="59.3261880868" lon="34.7033313975"><ele>165.681</ele><time>2026-08-17T02:43:31.647Z</time><hdop>3.0</hdop><vdop>2.5</vdop><extensions><gom:speed>0.069</gom:speed></extensions></trkpt>
   <trkpt lat="59.3261879611" lon="34.703331146"><ele>165.677</ele><time>2026-08-17T02:43:32.296Z</time><hdop>3.0</hdop><vdop>2.5</vdop><extensions><gom:speed>0.07</gom:speed></extensions></trkpt>
   <trkpt lat="59.3261878772" lon="34.7033317328"><ele>165.672</ele><time>2026-08-17T02:43:33.647Z</time><hdop>3.0</hdop><vdop>2.5</vdop><extensions><gom:speed>0.069</gom:speed></extensions></trkpt>
   <trkpt lat="59.3261878772" lon="34.7033315651"><ele>165.669</ele><time>2026-08-17T02:43:34.652Z</time><hdop>3.0</hdop><vdop>2.5</vdop><extensions><gom:speed>0.069</gom:speed></extensions></trkpt>
   <trkpt lat="59.3261876677" lon="34.7033319842"><ele>165.668</ele><time>2026-08-17T02:43:35.652Z</time><hdop>3.0</hdop><vdop>2.5</vdop><extensions><gom:speed>0.07</gom:speed></extensions></trkpt>
   <trkpt lat="59.3261876677" lon="34.7033328224"><ele>165.67</ele><time>2026-08-17T02:43:36.647Z</time><hdop>3.0</hdop><vdop>2.5</vdop><extensions><gom:speed>0.074</gom:speed></extensions></trkpt>
   <trkpt lat="59.3261875839" lon="34.7033327386"><ele>165.671</ele><time>2026-08-17T02:43:37.659Z</time><hdop>3.0</hdop><vdop>2.5</vdop><extensions><gom:speed>0.074</gom:speed></extensions></trkpt>
   <trkpt lat="59.3261875839" lon="34.7033335768"><ele>165.674</ele><time>2026-08-17T02:43:38.647Z</time><hdop>3.0</hdop><vdop>2.5</vdop><extensions><gom:speed>0.073</gom:speed></extensions></trkpt>
   <trkpt lat="59.3261874581" lon="34.7033336606"><ele>165.676</ele><time>2026-08-17T02:43:39.652Z</time><hdop>3.0</hdop><vdop>2.5</vdop><extensions><gom:speed>0.073</gom:speed></extensions></trkpt>
   <trkpt lat="59.3261874581" lon="34.7033339959"><ele>165.679</ele><time>2026-08-17T02:43:40.652Z</time><hdop>3.0</hdop><vdop>2.5</vdop><extensions><gom:speed>0.073</gom:speed></extensions></trkpt>
   <trkpt lat="59.3261874581" lon="34.7033341635"><ele>165.682</ele><time>2026-08-17T02:43:41.652Z</time><hdop>3.0</hdop><vdop>2.5</vdop><extensions><gom:speed>0.07</gom:speed></extensions></trkpt>
   <trkpt lat="59.3261874581" lon="34.7033345826"><ele>165.685</ele><time>2026-08-17T02:43:42.653Z</time><hdop>3.0</hdop><vdop>2.5</vdop><extensions><gom:speed>0.07</gom:speed></extensions></trkpt>
   <trkpt lat="59.3261873743" lon="34.7033347503"><ele>165.689</ele><time>2026-08-17T02:43:43.652Z</time><hdop>3.0</hdop><vdop>2.5</vdop><extensions><gom:speed>0.07</gom:speed></extensions></trkpt>
   <trkpt lat="59.3261872905" lon="34.7033347503"><ele>165.694</ele><time>2026-08-17T02:43:44.652Z</time><hdop>3.0</hdop><vdop>2.5</vdop><extensions><gom:speed>0.07</gom:speed></extensions></trkpt>
   <trkpt lat="59.3261872905" lon="34.7033348341"><ele>165.7</ele><time>2026-08-17T02:43:45.652Z</time><hdop>3.0</hdop><vdop>2.5</vdop><extensions><gom:speed>0.07</gom:speed></extensions></trkpt>
   <trkpt lat="59.3261871648" lon="34.7033349179"><ele>165.704</ele><time>2026-08-17T02:43:46.652Z</time><hdop>3.0</hdop><vdop>2.5</vdop><extensions><gom:speed>0.07</gom:speed></extensions></trkpt>
   <trkpt lat="59.326187081" lon="34.7033350855"><ele>165.707</ele><time>2026-08-17T02:43:47.652Z</time><hdop>3.0</hdop><vdop>2.5</vdop><extensions><gom:speed>0.071</gom:speed></extensions></trkpt>
   <trkpt lat="59.3261873743" lon="34.7033347503"><ele>165.709</ele><time>2026-08-17T02:43:48.647Z</time><hdop>3.0</hdop><vdop>2.5</vdop><extensions><gom:speed>0.07</gom:speed></extensions></trkpt>
   <trkpt lat="59.3261873743" lon="34.7033348341"><ele>165.709</ele><time>2026-08-17T02:43:49.657Z</time><hdop>3.0</hdop><vdop>2.5</vdop><extensions><gom:speed>0.071</gom:speed></extensions></trkpt>
   <trkpt lat="59.3261872905" lon="34.7033350855"><ele>165.707</ele><time>2026-08-17T02:43:50.652Z</time><hdop>3.0</hdop><vdop>2.5</vdop><extensions><gom:speed>0.072</gom:speed></extensions></trkpt>
   <trkpt lat="59.3261872905" lon="34.7033352532"><ele>165.705</ele><time>2026-08-17T02:43:51.652Z</time><hdop>3.0</hdop><vdop>2.5</vdop><extensions><gom:speed>0.071</gom:speed></extensions></trkpt>
   <trkpt lat="59.3261872905" lon="34.7033354208"><ele>165.704</ele><time>2026-08-17T02:43:52.652Z</time><hdop>3.0</hdop><vdop>2.5</vdop><extensions><gom:speed>0.071</gom:speed></extensions></trkpt>
   <trkpt lat="59.3261871648" lon="34.7033356723"><ele>165.703</ele><time>2026-08-17T02:43:53.664Z</time><hdop>3.0</hdop><vdop>2.5</vdop><extensions><gom:speed>0.071</gom:speed></extensions></trkpt>
   <trkpt lat="59.3261871648" lon="34.7033357561"><ele>165.702</ele><time>2026-08-17T02:43:54.647Z</time><hdop>3.0</hdop><vdop>2.5</vdop><extensions><gom:speed>0.074</gom:speed></extensions></trkpt>
   <trkpt lat="59.3261869971" lon="34.7033359237"><ele>165.7</ele><time>2026-08-17T02:43:55.647Z</time><hdop>3.0</hdop><vdop>2.5</vdop><extensions><gom:speed>0.075</gom:speed></extensions></trkpt>
   <trkpt lat="59.3261868714" lon="34.703336259"><ele>165.698</ele><time>2026-08-17T02:43:56.658Z</time><hdop>3.0</hdop><vdop>2.5</vdop><extensions><gom:speed>0.075</gom:speed></extensions></trkpt>
   <trkpt lat="59.3261869971" lon="34.7033359237"><ele>165.696</ele><time>2026-08-17T02:43:57.648Z</time><hdop>3.0</hdop><vdop>2.5</vdop><extensions><gom:speed>0.074</gom:speed></extensions></trkpt>
   <trkpt lat="59.3261868714" lon="34.7033361752"><ele>165.693</ele><time>2026-08-17T02:43:58.653Z</time><hdop>3.0</hdop><vdop>2.5</vdop><extensions><gom:speed>0.074</gom:speed></extensions></trkpt>
   <trkpt lat="59.3261868714" lon="34.7033361752"><ele>165.691</ele><time>2026-08-17T02:43:59.652Z</time><hdop>3.0</hdop><vdop>2.5</vdop><extensions><gom:speed>0.073</gom:speed></extensions></trkpt>
   <trkpt lat="59.3261868714" lon="34.7033357561"><ele>165.689</ele><time>2026-08-17T02:44:00.648Z</time><hdop>3.0</hdop><vdop>2.5</vdop><extensions><gom:speed>0.069</gom:speed></extensions></trkpt>
   <trkpt lat="59.3261868714" lon="34.7033358399"><ele>165.688</ele><time>2026-08-17T02:44:01.652Z</time><hdop>3.0</hdop><vdop>2.5</vdop><extensions><gom:speed>0.069</gom:speed></extensions></trkpt>
   <trkpt lat="59.3261869971" lon="34.7033356723"><ele>165.687</ele><time>2026-08-17T02:44:02.649Z</time><hdop>3.0</hdop><vdop>2.5</vdop><extensions><gom:speed>0.067</gom:speed></extensions></trkpt>
   <trkpt lat="59.3261869971" lon="34.703335337"><ele>165.687</ele><time>2026-08-17T02:44:03.652Z</time><hdop>3.0</hdop><vdop>2.5</vdop><extensions><gom:speed>0.068</gom:speed></extensions></trkpt>
   <trkpt lat="59.3261869971" lon="34.7033352532"><ele>165.687</ele><time>2026-08-17T02:44:04.540Z</time><hdop>3.0</hdop><vdop>2.5</vdop><extensions><gom:speed>0.068</gom:speed></extensions></trkpt>
   <trkpt lat="59.326186159" lon="34.7033350855"><ele>165.886</ele><time>2026-08-17T02:44:05.360Z</time><hdop>3.0</hdop><vdop>2.5</vdop><extensions><gom:speed>0.677</gom:speed></extensions></trkpt>
   <trkpt lat="59.326185195" lon="34.7033340797"><ele>166.003</ele><time>2026-08-17T02:44:06.652Z</time><hdop>3.0</hdop><vdop>2.5</vdop><extensions><gom:speed>0.112</gom:speed></extensions></trkpt>
   <trkpt lat="59.3261838958" lon="34.7033331577"><ele>166.075</ele><time>2026-08-17T02:44:07.647Z</time><hdop>3.0</hdop><vdop>2.5</vdop><extensions><gom:speed>0.078</gom:speed></extensions></trkpt>
   <trkpt lat="59.3261835606" lon="34.7033331577"><ele>166.118</ele><time>2026-08-17T02:44:08.647Z</time><hdop>3.0</hdop><vdop>2.5</vdop><extensions><gom:speed>0.07</gom:speed></extensions></trkpt>
   <trkpt lat="59.3261833929" lon="34.7033333253"><ele>166.144</ele><time>2026-08-17T02:44:09.649Z</time><hdop>3.0</hdop><vdop>2.5</vdop><extensions><gom:speed>0.07</gom:speed></extensions></trkpt>
   <trkpt lat="59.3261827643" lon="34.7033327386"><ele>166.161</ele><time>2026-08-17T02:44:10.652Z</time><hdop>3.0</hdop><vdop>2.5</vdop><extensions><gom:speed>0.065</gom:speed></extensions></trkpt>
   <trkpt lat="59.3261822614" lon="34.7033323195"><ele>166.171</ele><time>2026-08-17T02:44:11.653Z</time><hdop>3.0</hdop><vdop>2.5</vdop><extensions><gom:speed>0.062</gom:speed></extensions></trkpt>
   <trkpt lat="59.326181968" lon="34.7033322357"><ele>166.176</ele><time>2026-08-17T02:44:12.664Z</time><hdop>3.0</hdop><vdop>2.5</vdop><extensions><gom:speed>0.064</gom:speed></extensions></trkpt>
   <trkpt lat="59.3261815908" lon="34.7033319842"><ele>166.18</ele><time>2026-08-17T02:44:13.656Z</time><hdop>3.0</hdop><vdop>2.5</vdop><extensions><gom:speed>0.063</gom:speed></extensions></trkpt>
   <trkpt lat="59.3261811717" lon="34.7033313975"><ele>166.183</ele><time>2026-08-17T02:44:14.647Z</time><hdop>3.0</hdop><vdop>2.5</vdop><extensions><gom:speed>0.063</gom:speed></extensions></trkpt>
   <trkpt lat="59.3261808784" lon="34.703331146"><ele>166.188</ele><time>2026-08-17T02:44:15.647Z</time><hdop>3.0</hdop><vdop>2.5</vdop><extensions><gom:speed>0.063</gom:speed></extensions></trkpt>
   <trkpt lat="59.326180585" lon="34.7033310622"><ele>166.192</ele><time>2026-08-17T02:44:16.646Z</time><hdop>3.0</hdop><vdop>2.5</vdop><extensions><gom:speed>0.064</gom:speed></extensions></trkpt>
   <trkpt lat="59.3261804593" lon="34.7033310622"><ele>166.194</ele><time>2026-08-17T02:44:17.642Z</time><hdop>3.0</hdop><vdop>2.5</vdop><extensions><gom:speed>0.064</gom:speed></extensions></trkpt>
   <trkpt lat="59.3261790762" lon="34.7033299726"><ele>166.295</ele><time>2026-08-17T02:44:18.652Z</time><hdop>3.0</hdop><vdop>2.5</vdop><extensions><gom:speed>0.34</gom:speed></extensions></trkpt>
   <trkpt lat="59.3261766874" lon="34.7033269551"><ele>166.355</ele><time>2026-08-17T02:44:19.423Z</time><hdop>3.0</hdop><vdop>2.5</vdop><extensions><gom:speed>0.678</gom:speed></extensions></trkpt>
   <trkpt lat="59.3261752625" lon="34.7033212554"><ele>166.616</ele><time>2026-08-17T02:44:20.652Z</time><hdop>3.0</hdop><vdop>2.5</vdop><extensions><gom:speed>0.178</gom:speed></extensions></trkpt>
   <trkpt lat="59.3261710715" lon="34.7033163939"><ele>166.772</ele><time>2026-08-17T02:44:21.568Z</time><hdop>3.0</hdop><vdop>2.5</vdop><extensions><gom:speed>0.251</gom:speed></extensions></trkpt>
   <trkpt lat="59.3261617676" lon="34.7033095207"><ele>166.992</ele><time>2026-08-17T02:44:22.647Z</time><hdop>3.0</hdop><vdop>2.5</vdop><extensions><gom:speed>0.423</gom:speed></extensions></trkpt>
   <trkpt lat="59.3261604684" lon="34.7033057489"><ele>167.123</ele><time>2026-08-17T02:44:23.581Z</time><hdop>3.0</hdop><vdop>2.5</vdop><extensions><gom:speed>0.382</gom:speed></extensions></trkpt>
   <trkpt lat="59.3261543915" lon="34.7033022285"><ele>167.206</ele><time>2026-08-17T02:44:24.583Z</time><hdop>3.062</hdop><vdop>2.5</vdop><extensions><gom:speed>0.34</gom:speed></extensions></trkpt>
   <trkpt lat="59.326149069" lon="34.7032988757"><ele>167.362</ele><time>2026-08-17T02:44:25.281Z</time><hdop>3.0</hdop><vdop>2.5</vdop><extensions><gom:speed>0.362</gom:speed></extensions></trkpt>
   <trkpt lat="59.3261449619" lon="34.7032978699"><ele>167.529</ele><time>2026-08-17T02:44:26.652Z</time><hdop>3.062</hdop><vdop>2.5</vdop><extensions><gom:speed>0.269</gom:speed></extensions></trkpt>
   <trkpt lat="59.3261364962" lon="34.7032948524"><ele>167.641</ele><time>2026-08-17T02:44:27.659Z</time><hdop>3.062</hdop><vdop>2.5</vdop><extensions><gom:speed>0.481</gom:speed></extensions></trkpt>
   <trkpt lat="59.3261375858" lon="34.7033004683"><ele>167.707</ele><time>2026-08-17T02:44:28.647Z</time><hdop>3.0</hdop><vdop>2.5</vdop><extensions><gom:speed>0.209</gom:speed></extensions></trkpt>
   <trkpt lat="59.326137963" lon="34.7033016417"><ele>167.601</ele><time>2026-08-17T02:44:29.647Z</time><hdop>3.0</hdop><vdop>2.5</vdop><extensions><gom:speed>0.121</gom:speed></extensions></trkpt>
   <trkpt lat="59.326138885" lon="34.7033020608"><ele>167.538</ele><time>2026-08-17T02:44:30.188Z</time><hdop>3.0</hdop><vdop>2.5</vdop><extensions><gom:speed>0.107</gom:speed></extensions></trkpt>
   <trkpt lat="59.3261398908" lon="34.7033020608"><ele>167.499</ele><time>2026-08-17T02:44:30.694Z</time><hdop>3.0</hdop><vdop>2.5</vdop><extensions><gom:speed>0.084</gom:speed></extensions></trkpt>
   <trkpt lat="59.3261378792" lon="34.7033039887"><ele>167.475</ele><time>2026-08-17T02:44:31.647Z</time><hdop>3.0</hdop><vdop>2.5</vdop><extensions><gom:speed>0.099</gom:speed></extensions></trkpt>
   <trkpt lat="59.3261394718" lon="34.703301977"><ele>167.495</ele><time>2026-08-17T02:44:32.653Z</time><hdop>3.0</hdop><vdop>2.5</vdop><extensions><gom:speed>0.026</gom:speed></extensions></trkpt>
   <trkpt lat="59.3261387593" lon="34.7033014741"><ele>167.506</ele><time>2026-08-17T02:44:33.324Z</time><hdop>3.0</hdop><vdop>2.5</vdop><extensions><gom:speed>0.115</gom:speed></extensions></trkpt>
   <trkpt lat="59.3261375858" lon="34.7033014741"><ele>167.517</ele><time>2026-08-17T02:44:34.640Z</time><hdop>3.0</hdop><vdop>2.5</vdop><extensions><gom:speed>0.107</gom:speed></extensions></trkpt>
   <trkpt lat="59.3261367895" lon="34.7033015579"><ele>167.43</ele><time>2026-08-17T02:44:35.651Z</time><hdop>3.0</hdop><vdop>2.5</vdop><extensions><gom:speed>0.122</gom:speed></extensions></trkpt>
   <trkpt lat="59.3261349874" lon="34.7033031505"><ele>167.376</ele><time>2026-08-17T02:44:36.646Z</time><hdop>3.0</hdop><vdop>2.5</vdop><extensions><gom:speed>0.105</gom:speed></extensions></trkpt>
   <trkpt lat="59.3261346941" lon="34.7033041563"><ele>167.341</ele><time>2026-08-17T02:44:37.652Z</time><hdop>3.0</hdop><vdop>2.5</vdop><extensions><gom:speed>0.126</gom:speed></extensions></trkpt>
   <trkpt lat="59.3261341912" lon="34.7033080958"><ele>167.226</ele><time>2026-08-17T02:44:38.652Z</time><hdop>3.0</hdop><vdop>2.5</vdop><extensions><gom:speed>0.121</gom:speed></extensions></trkpt>
   <trkpt lat="59.3261329758" lon="34.7033123706"><ele>167.157</ele><time>2026-08-17T02:44:39.405Z</time><hdop>3.0</hdop><vdop>2.5</vdop><extensions><gom:speed>0.202</gom:speed></extensions></trkpt>
   <trkpt lat="59.3261301678" lon="34.703315891"><ele>166.88</ele><time>2026-08-17T02:44:39.941Z</time><hdop>3.0</hdop><vdop>2.5</vdop><extensions><gom:speed>0.275</gom:speed></extensions></trkpt>
   <trkpt lat="59.3261305869" lon="34.7033178188"><ele>166.714</ele><time>2026-08-17T02:44:40.528Z</time><hdop>3.0</hdop><vdop>2.5</vdop><extensions><gom:speed>0.28</gom:speed></extensions></trkpt>
   <trkpt lat="59.3261296649" lon="34.7033187408"><ele>166.62</ele><time>2026-08-17T02:44:41.105Z</time><hdop>3.0</hdop><vdop>2.5</vdop><extensions><gom:speed>0.241</gom:speed></extensions></trkpt>
   <trkpt lat="59.3261299583" lon="34.7033198305"><ele>166.564</ele><time>2026-08-17T02:44:41.652Z</time><hdop>3.0</hdop><vdop>2.5</vdop><extensions><gom:speed>0.223</gom:speed></extensions></trkpt>
   <trkpt lat="59.3261292877" lon="34.7033207525"><ele>166.531</ele><time>2026-08-17T02:44:42.652Z</time><hdop>3.0</hdop><vdop>2.5</vdop><extensions><gom:speed>0.18</gom:speed></extensions></trkpt>
   <trkpt lat="59.3261273599" lon="34.7033212554"><ele>166.511</ele><time>2026-08-17T02:44:43.647Z</time><hdop>3.0</hdop><vdop>2.5</vdop><extensions><gom:speed>0.166</gom:speed></extensions></trkpt>
   <trkpt lat="59.3261275694" lon="34.7033216745"><ele>166.498</ele><time>2026-08-17T02:44:44.656Z</time><hdop>3.0</hdop><vdop>2.5</vdop><extensions><gom:speed>0.051</gom:speed></extensions></trkpt>
   <trkpt lat="59.3261262703" lon="34.7033220936"><ele>166.49</ele><time>2026-08-17T02:44:45.647Z</time><hdop>3.0</hdop><vdop>2.5</vdop><extensions><gom:speed>0.104</gom:speed></extensions></trkpt>
   <trkpt lat="59.3261256835" lon="34.7033207525"><ele>166.485</ele><time>2026-08-17T02:44:46.652Z</time><hdop>3.0</hdop><vdop>2.5</vdop><extensions><gom:speed>0.022</gom:speed></extensions></trkpt>
   <trkpt lat="59.3261262703" lon="34.7033204172"><ele>166.483</ele><time>2026-08-17T02:44:47.647Z</time><hdop>3.0</hdop><vdop>2.5</vdop><extensions><gom:speed>0.099</gom:speed></extensions></trkpt>
   <trkpt lat="59.3261266894" lon="34.7033200819"><ele>166.481</ele><time>2026-08-17T02:44:48.652Z</time><hdop>3.0</hdop><vdop>2.5</vdop><extensions><gom:speed>0.023</gom:speed></extensions></trkpt>
   <trkpt lat="59.3261273599" lon="34.7033192437"><ele>166.479</ele><time>2026-08-17T02:44:49.652Z</time><hdop>3.0</hdop><vdop>2.5</vdop><extensions><gom:speed>0.019</gom:speed></extensions></trkpt>
   <trkpt lat="59.3261270665" lon="34.703319579"><ele>166.478</ele><time>2026-08-17T02:44:50.647Z</time><hdop>3.0</hdop><vdop>2.5</vdop><extensions><gom:speed>0.099</gom:speed></extensions></trkpt>
   <trkpt lat="59.3261266894" lon="34.7033201657"><ele>166.476</ele><time>2026-08-17T02:44:51.652Z</time><hdop>3.0</hdop><vdop>2.5</vdop><extensions><gom:speed>0.017</gom:speed></extensions></trkpt>
   <trkpt lat="59.3261267732" lon="34.7033199981"><ele>166.48</ele><time>2026-08-17T02:44:52.649Z</time><hdop>3.0</hdop><vdop>2.5</vdop><extensions><gom:speed>0.097</gom:speed></extensions></trkpt>
   <trkpt lat="59.3261272761" lon="34.703319579"><ele>166.482</ele><time>2026-08-17T02:44:53.660Z</time><hdop>3.0</hdop><vdop>2.5</vdop><extensions><gom:speed>0.021</gom:speed></extensions></trkpt>
   <trkpt lat="59.3261268989" lon="34.7033202496"><ele>166.469</ele><time>2026-08-17T02:44:54.647Z</time><hdop>3.0</hdop><vdop>2.5</vdop><extensions><gom:speed>0.111</gom:speed></extensions></trkpt>
   <trkpt lat="59.3261266894" lon="34.7033224289"><ele>166.465</ele><time>2026-08-17T02:44:55.647Z</time><hdop>3.0</hdop><vdop>2.5</vdop><extensions><gom:speed>0.117</gom:speed></extensions></trkpt>
   <trkpt lat="59.3261269827" lon="34.7033242729"><ele>166.544</ele><time>2026-08-17T02:44:56.652Z</time><hdop>3.0</hdop><vdop>2.5</vdop><extensions><gom:speed>0.092</gom:speed></extensions></trkpt>
   <trkpt lat="59.3261284915" lon="34.7033243567"><ele>166.595</ele><time>2026-08-17T02:44:57.647Z</time><hdop>3.0</hdop><vdop>2.5</vdop><extensions><gom:speed>0.129</gom:speed></extensions></trkpt>
   <trkpt lat="59.3261285753" lon="34.703323267"><ele>166.627</ele><time>2026-08-17T02:44:58.653Z</time><hdop>3.0</hdop><vdop>2.5</vdop><extensions><gom:speed>0.068</gom:speed></extensions></trkpt>
   <trkpt lat="59.3261294973" lon="34.7033243567"><ele>166.645</ele><time>2026-08-17T02:44:59.650Z</time><hdop>3.0</hdop><vdop>2.5</vdop><extensions><gom:speed>0.14</gom:speed></extensions></trkpt>
   <trkpt lat="59.3261302936" lon="34.7033255302"><ele>166.656</ele><time>2026-08-17T02:45:00.647Z</time><hdop>3.0</hdop><vdop>2.5</vdop><extensions><gom:speed>0.0</gom:speed></extensions></trkpt>
   <trkpt lat="59.3261302936" lon="34.7033255302"><ele>166.661</ele><time>2026-08-17T02:45:01.652Z</time><hdop>3.0</hdop><vdop>2.5</vdop><extensions><gom:speed>0.001</gom:speed></extensions></trkpt>
   <trkpt lat="59.3261305869" lon="34.7033256978"><ele>166.665</ele><time>2026-08-17T02:45:02.646Z</time><hdop>3.0</hdop><vdop>2.5</vdop><extensions><gom:speed>0.026</gom:speed></extensions></trkpt>
   <trkpt lat="59.3261307965" lon="34.7033259493"><ele>166.666</ele><time>2026-08-17T02:45:03.647Z</time><hdop>3.0</hdop><vdop>2.5</vdop><extensions><gom:speed>0.034</gom:speed></extensions></trkpt>
   <trkpt lat="59.3261308803" lon="34.7033260331"><ele>166.666</ele><time>2026-08-17T02:45:04.203Z</time><hdop>3.0</hdop><vdop>2.5</vdop><extensions><gom:speed>0.034</gom:speed></extensions></trkpt>
   <trkpt lat="59.3261310898" lon="34.7033264522"><ele>166.663</ele><time>2026-08-17T02:45:05.647Z</time><hdop>3.0</hdop><vdop>2.5</vdop><extensions><gom:speed>0.045</gom:speed></extensions></trkpt>
   <trkpt lat="59.3261311737" lon="34.7033267874"><ele>166.66</ele><time>2026-08-17T02:45:06.647Z</time><hdop>3.0</hdop><vdop>2.5</vdop><extensions><gom:speed>0.052</gom:speed></extensions></trkpt>
   <trkpt lat="59.3261315928" lon="34.7033267874"><ele>166.658</ele><time>2026-08-17T02:45:07.647Z</time><hdop>3.0</hdop><vdop>2.5</vdop><extensions><gom:speed>0.055</gom:speed></extensions></trkpt>
   <trkpt lat="59.3261316766" lon="34.7033270389"><ele>166.656</ele><time>2026-08-17T02:45:08.647Z</time><hdop>3.0</hdop><vdop>2.5</vdop><extensions><gom:speed>0.06</gom:speed></extensions></trkpt>
   <trkpt lat="59.3261318861" lon="34.7033273742"><ele>166.656</ele><time>2026-08-17T02:45:09.648Z</time><hdop>3.0</hdop><vdop>2.5</vdop><extensions><gom:speed>0.063</gom:speed></extensions></trkpt>
   <trkpt lat="59.3261320957" lon="34.7033277933"><ele>166.657</ele><time>2026-08-17T02:45:10.652Z</time><hdop>3.0</hdop><vdop>2.5</vdop><extensions><gom:speed>0.064</gom:speed></extensions></trkpt>
   <trkpt lat="59.326132389" lon="34.7033277933"><ele>166.656</ele><time>2026-08-17T02:45:11.647Z</time><hdop>3.0</hdop><vdop>2.5</vdop><extensions><gom:speed>0.068</gom:speed></extensions></trkpt>
   <trkpt lat="59.326132389" lon="34.7033280447"><ele>166.656</ele><time>2026-08-17T02:45:12.647Z</time><hdop>3.0</hdop><vdop>2.5</vdop><extensions><gom:speed>0.069</gom:speed></extensions></trkpt>
   <trkpt lat="59.326132389" lon="34.7033285476"><ele>166.654</ele><time>2026-08-17T02:45:13.652Z</time><hdop>3.0</hdop><vdop>2.5</vdop><extensions><gom:speed>0.069</gom:speed></extensions></trkpt>
   <trkpt lat="59.3261324729" lon="34.7033284638"><ele>166.652</ele><time>2026-08-17T02:45:14.647Z</time><hdop>3.0</hdop><vdop>2.5</vdop><extensions><gom:speed>0.074</gom:speed></extensions></trkpt>
   <trkpt lat="59.3261325986" lon="34.7033288829"><ele>166.652</ele><time>2026-08-17T02:45:15.433Z</time><hdop>3.0</hdop><vdop>2.5</vdop><extensions><gom:speed>0.074</gom:speed></extensions></trkpt>
   <trkpt lat="59.3261325986" lon="34.7033297211"><ele>166.582</ele><time>2026-08-17T02:45:16.647Z</time><hdop>3.0</hdop><vdop>2.5</vdop><extensions><gom:speed>0.21</gom:speed></extensions></trkpt>
   <trkpt lat="59.3261331853" lon="34.7033293858"><ele>166.54</ele><time>2026-08-17T02:45:17.647Z</time><hdop>3.0</hdop><vdop>2.5</vdop><extensions><gom:speed>0.073</gom:speed></extensions></trkpt>
   <trkpt lat="59.3261335625" lon="34.7033293858"><ele>166.517</ele><time>2026-08-17T02:45:18.647Z</time><hdop>3.0</hdop><vdop>2.5</vdop><extensions><gom:speed>0.067</gom:speed></extensions></trkpt>
   <trkpt lat="59.3261339816" lon="34.7033289667"><ele>166.504</ele><time>2026-08-17T02:45:19.647Z</time><hdop>3.0</hdop><vdop>2.5</vdop><extensions><gom:speed>0.065</gom:speed></extensions></trkpt>
   <trkpt lat="59.326134275" lon="34.7033286315"><ele>166.496</ele><time>2026-08-17T02:45:20.647Z</time><hdop>3.0</hdop><vdop>2.5</vdop><extensions><gom:speed>0.061</gom:speed></extensions></trkpt>
   <trkpt lat="59.3261346941" lon="34.7033285476"><ele>166.494</ele><time>2026-08-17T02:45:21.648Z</time><hdop>3.0</hdop><vdop>2.5</vdop><extensions><gom:speed>0.061</gom:speed></extensions></trkpt>
   <trkpt lat="59.3261349874" lon="34.7033284638"><ele>166.497</ele><time>2026-08-17T02:45:22.647Z</time><hdop>3.0</hdop><vdop>2.5</vdop><extensions><gom:speed>0.061</gom:speed></extensions></trkpt>
   <trkpt lat="59.3261352808" lon="34.7033284638"><ele>166.498</ele><time>2026-08-17T02:45:23.647Z</time><hdop>3.0</hdop><vdop>2.5</vdop><extensions><gom:speed>0.063</gom:speed></extensions></trkpt>
   <trkpt lat="59.3261353646" lon="34.7033286315"><ele>166.499</ele><time>2026-08-17T02:45:24.652Z</time><hdop>3.0</hdop><vdop>2.5</vdop><extensions><gom:speed>0.063</gom:speed></extensions></trkpt>
   <trkpt lat="59.3261356999" lon="34.7033286315"><ele>166.502</ele><time>2026-08-17T02:45:25.652Z</time><hdop>3.0</hdop><vdop>2.5</vdop><extensions><gom:speed>0.066</gom:speed></extensions></trkpt>
   <trkpt lat="59.3261359933" lon="34.7033286315"><ele>166.503</ele><time>2026-08-17T02:45:26.563Z</time><hdop>3.0</hdop><vdop>2.5</vdop><extensions><gom:speed>0.068</gom:speed></extensions></trkpt>
   <trkpt lat="59.3261361609" lon="34.7033280447"><ele>166.506</ele><time>2026-08-17T02:45:27.652Z</time><hdop>3.0</hdop><vdop>2.5</vdop><extensions><gom:speed>0.07</gom:speed></extensions></trkpt>
   <trkpt lat="59.32613658" lon="34.7033285476"><ele>166.511</ele><time>2026-08-17T02:45:28.646Z</time><hdop>3.0</hdop><vdop>2.5</vdop><extensions><gom:speed>0.071</gom:speed></extensions></trkpt>
   <trkpt lat="59.3261367895" lon="34.7033287991"><ele>166.513</ele><time>2026-08-17T02:45:29.652Z</time><hdop>3.0</hdop><vdop>2.5</vdop><extensions><gom:speed>0.071</gom:speed></extensions></trkpt>
   <trkpt lat="59.3261372925" lon="34.7033290506"><ele>166.514</ele><time>2026-08-17T02:45:30.647Z</time><hdop>3.0</hdop><vdop>2.5</vdop><extensions><gom:speed>0.071</gom:speed></extensions></trkpt>
   <trkpt lat="59.3261375858" lon="34.7033292182"><ele>166.514</ele><time>2026-08-17T02:45:31.646Z</time><hdop>3.0</hdop><vdop>2.5</vdop><extensions><gom:speed>0.069</gom:speed></extensions></trkpt>
   <trkpt lat="59.3261376696" lon="34.7033293858"><ele>166.514</ele><time>2026-08-17T02:45:32.107Z</time><hdop>3.0</hdop><vdop>2.5</vdop><extensions><gom:speed>0.07</gom:speed></extensions></trkpt>
   <trkpt lat="59.3261377954" lon="34.7033293858"><ele>166.515</ele><time>2026-08-17T02:45:32.652Z</time><hdop>3.0</hdop><vdop>2.5</vdop><extensions><gom:speed>0.07</gom:speed></extensions></trkpt>
   <trkpt lat="59.326137963" lon="34.7033292182"><ele>166.519</ele><time>2026-08-17T02:45:33.647Z</time><hdop>3.0</hdop><vdop>2.5</vdop><extensions><gom:speed>0.071</gom:speed></extensions></trkpt>
   <trkpt lat="59.3261380887" lon="34.7033293858"><ele>166.522</ele><time>2026-08-17T02:45:34.658Z</time><hdop>3.0</hdop><vdop>2.5</vdop><extensions><gom:speed>0.071</gom:speed></extensions></trkpt>
   <trkpt lat="59.3261384659" lon="34.7033296373"><ele>166.522</ele><time>2026-08-17T02:45:35.647Z</time><hdop>3.0</hdop><vdop>2.5</vdop><extensions><gom:speed>0.069</gom:speed></extensions></trkpt>
   <trkpt lat="59.3261386755" lon="34.7033297211"><ele>166.52</ele><time>2026-08-17T02:45:36.647Z</time><hdop>3.0</hdop><vdop>2.5</vdop><extensions><gom:speed>0.069</gom:speed></extensions></trkpt>
   <trkpt lat="59.326138885" lon="34.7033297211"><ele>166.517</ele><time>2026-08-17T02:45:37.647Z</time><hdop>3.0</hdop><vdop>2.5</vdop><extensions><gom:speed>0.068</gom:speed></extensions></trkpt>
   <trkpt lat="59.3261390946" lon="34.7033296373"><ele>166.516</ele><time>2026-08-17T02:45:38.268Z</time><hdop>3.0</hdop><vdop>2.5</vdop><extensions><gom:speed>0.068</gom:speed></extensions></trkpt>
   <trkpt lat="59.3261391784" lon="34.7033297211"><ele>166.518</ele><time>2026-08-17T02:45:38.866Z</time><hdop>3.0</hdop><vdop>2.5</vdop><extensions><gom:speed>0.067</gom:speed></extensions></trkpt>
   <trkpt lat="59.3261392622" lon="34.7033296373"><ele>166.215</ele><time>2026-08-17T02:45:39.652Z</time><hdop>3.0</hdop><vdop>2.5</vdop><extensions><gom:speed>0.067</gom:speed></extensions></trkpt>
   <trkpt lat="59.3261398908" lon="34.7033300564"><ele>166.034</ele><time>2026-08-17T02:45:40.363Z</time><hdop>3.0</hdop><vdop>2.5</vdop><extensions><gom:speed>0.222</gom:speed></extensions></trkpt>
   <trkpt lat="59.3261381726" lon="34.7033293858"><ele>165.967</ele><time>2026-08-17T02:45:41.646Z</time><hdop>3.0</hdop><vdop>2.5</vdop><extensions><gom:speed>0.145</gom:speed></extensions></trkpt>
   <trkpt lat="59.326137963" lon="34.7033293858"><ele>165.926</ele><time>2026-08-17T02:45:42.649Z</time><hdop>3.0</hdop><vdop>2.5</vdop><extensions><gom:speed>0.134</gom:speed></extensions></trkpt>
   <trkpt lat="59.3261372925" lon="34.7033293858"><ele>165.901</ele><time>2026-08-17T02:45:43.256Z</time><hdop>3.0</hdop><vdop>2.5</vdop><extensions><gom:speed>0.085</gom:speed></extensions></trkpt>
   <trkpt lat="59.3261366638" lon="34.7033293858"><ele>165.886</ele><time>2026-08-17T02:45:44.228Z</time><hdop>3.0</hdop><vdop>2.5</vdop><extensions><gom:speed>0.112</gom:speed></extensions></trkpt>
   <trkpt lat="59.3261364962" lon="34.7033275418"><ele>165.87</ele><time>2026-08-17T02:45:45.644Z</time><hdop>3.0</hdop><vdop>2.5</vdop><extensions><gom:speed>0.136</gom:speed></extensions></trkpt>
   <trkpt lat="59.3261369991" lon="34.7033255302"><ele>165.929</ele><time>2026-08-17T02:45:46.652Z</time><hdop>3.0</hdop><vdop>2.5</vdop><extensions><gom:speed>0.056</gom:speed></extensions></trkpt>
   <trkpt lat="59.3261394718" lon="34.7033219259"><ele>165.997</ele><time>2026-08-17T02:45:47.647Z</time><hdop>3.0</hdop><vdop>2.5</vdop><extensions><gom:speed>0.131</gom:speed></extensions></trkpt>
   <trkpt lat="59.3261404776" lon="34.7033194952"><ele>166.037</ele><time>2026-08-17T02:45:48.647Z</time><hdop>3.0</hdop><vdop>2.5</vdop><extensions><gom:speed>0.111</gom:speed></extensions></trkpt>
   <trkpt lat="59.3261409805" lon="34.7033166453"><ele>166.133</ele><time>2026-08-17T02:45:49.647Z</time><hdop>3.0</hdop><vdop>2.5</vdop><extensions><gom:speed>0.131</gom:speed></extensions></trkpt>
   <trkpt lat="59.3261408967" lon="34.7033159748"><ele>166.11</ele><time>2026-08-17T02:45:50.652Z</time><hdop>3.0</hdop><vdop>2.5</vdop><extensions><gom:speed>0.134</gom:speed></extensions></trkpt>
   <trkpt lat="59.3261405614" lon="34.7033152204"><ele>166.097</ele><time>2026-08-17T02:45:51.108Z</time><hdop>3.0</hdop><vdop>2.5</vdop><extensions><gom:speed>0.143</gom:speed></extensions></trkpt>
   <trkpt lat="59.3261409805" lon="34.7033144661"><ele>166.131</ele><time>2026-08-17T02:45:51.654Z</time><hdop>3.0</hdop><vdop>2.5</vdop><extensions><gom:speed>0.17</gom:speed></extensions></trkpt>
   <trkpt lat="59.3261425731" lon="34.7033145499"><ele>166.156</ele><time>2026-08-17T02:45:52.648Z</time><hdop>3.0</hdop><vdop>2.5</vdop><extensions><gom:speed>0.22</gom:speed></extensions></trkpt>
   <trkpt lat="59.3261440818" lon="34.7033148851"><ele>165.925</ele><time>2026-08-17T02:45:53.652Z</time><hdop>3.0</hdop><vdop>2.5</vdop><extensions><gom:speed>0.325</gom:speed></extensions></trkpt>
   <trkpt lat="59.3261449619" lon="34.7033144661"><ele>165.788</ele><time>2026-08-17T02:45:54.285Z</time><hdop>3.0</hdop><vdop>2.5</vdop><extensions><gom:speed>0.317</gom:speed></extensions></trkpt>
   <trkpt lat="59.3261485661" lon="34.7033150528"><ele>165.459</ele><time>2026-08-17T02:45:55.647Z</time><hdop>3.0</hdop><vdop>2.5</vdop><extensions><gom:speed>0.241</gom:speed></extensions></trkpt>
   <trkpt lat="59.326149069" lon="34.7033157233"><ele>165.263</ele><time>2026-08-17T02:45:56.561Z</time><hdop>3.0</hdop><vdop>2.5</vdop><extensions><gom:speed>0.305</gom:speed></extensions></trkpt>
   <trkpt lat="59.3261512902" lon="34.7033123706"><ele>165.157</ele><time>2026-08-17T02:45:57.647Z</time><hdop>3.0</hdop><vdop>2.5</vdop><extensions><gom:speed>0.184</gom:speed></extensions></trkpt>
   <trkpt lat="59.3261513741" lon="34.7033129573"><ele>165.1</ele><time>2026-08-17T02:45:58.652Z</time><hdop>3.0</hdop><vdop>2.5</vdop><extensions><gom:speed>0.078</gom:speed></extensions></trkpt>
   <trkpt lat="59.3261523799" lon="34.7033136279"><ele>165.067</ele><time>2026-08-17T02:45:59.627Z</time><hdop>3.0</hdop><vdop>2.5</vdop><extensions><gom:speed>0.136</gom:speed></extensions></trkpt>
   <trkpt lat="59.3261529666" lon="34.7033133764"><ele>165.046</ele><time>2026-08-17T02:46:00.122Z</time><hdop>3.0</hdop><vdop>2.5</vdop><extensions><gom:speed>0.122</gom:speed></extensions></trkpt>
   <trkpt lat="59.3261531762" lon="34.7033127897"><ele>164.828</ele><time>2026-08-17T02:46:00.659Z</time><hdop>3.0</hdop><vdop>2.5</vdop><extensions><gom:speed>0.083</gom:speed></extensions></trkpt>
   <trkpt lat="59.3261547687" lon="34.7033153881"><ele>164.698</ele><time>2026-08-17T02:46:01.647Z</time><hdop>3.0</hdop><vdop>2.5</vdop><extensions><gom:speed>0.148</gom:speed></extensions></trkpt>
   <trkpt lat="59.3261546849" lon="34.703315891"><ele>164.62</ele><time>2026-08-17T02:46:02.647Z</time><hdop>3.0</hdop><vdop>2.5</vdop><extensions><gom:speed>0.123</gom:speed></extensions></trkpt>
   <trkpt lat="59.3261545592" lon="34.7033155557"><ele>164.572</ele><time>2026-08-17T02:46:03.652Z</time><hdop>3.0</hdop><vdop>2.5</vdop><extensions><gom:speed>0.086</gom:speed></extensions></trkpt>
   <trkpt lat="59.3261551878" lon="34.7033169806"><ele>164.543</ele><time>2026-08-17T02:46:04.647Z</time><hdop>3.0</hdop><vdop>2.5</vdop><extensions><gom:speed>0.128</gom:speed></extensions></trkpt>
   <trkpt lat="59.3261556907" lon="34.7033165615"><ele>164.525</ele><time>2026-08-17T02:46:05.515Z</time><hdop>3.0</hdop><vdop>2.5</vdop><extensions><gom:speed>0.127</gom:speed></extensions></trkpt>
   <trkpt lat="59.326156487" lon="34.7033196628"><ele>164.514</ele><time>2026-08-17T02:46:06.647Z</time><hdop>3.0</hdop><vdop>2.5</vdop><extensions><gom:speed>0.1</gom:speed></extensions></trkpt>
   <trkpt lat="59.3261570737" lon="34.7033194952"><ele>164.507</ele><time>2026-08-17T02:46:07.652Z</time><hdop>3.0</hdop><vdop>2.5</vdop><extensions><gom:speed>0.03</gom:speed></extensions></trkpt>
   <trkpt lat="59.3261572833" lon="34.7033196628"><ele>164.502</ele><time>2026-08-17T02:46:08.651Z</time><hdop>3.0</hdop><vdop>2.5</vdop><extensions><gom:speed>0.104</gom:speed></extensions></trkpt>
   <trkpt lat="59.3261563613" lon="34.7033205848"><ele>164.499</ele><time>2026-08-17T02:46:09.647Z</time><hdop>3.0</hdop><vdop>2.5</vdop><extensions><gom:speed>0.096</gom:speed></extensions></trkpt>
   <trkpt lat="59.3261561936" lon="34.7033227641"><ele>164.495</ele><time>2026-08-17T02:46:10.653Z</time><hdop>3.0</hdop><vdop>2.5</vdop><extensions><gom:speed>0.032</gom:speed></extensions></trkpt>
   <trkpt lat="59.3261558584" lon="34.7033227641"><ele>164.494</ele><time>2026-08-17T02:46:11.181Z</time><hdop>3.0</hdop><vdop>2.5</vdop><extensions><gom:speed>0.075</gom:speed></extensions></trkpt>
   <trkpt lat="59.3261559841" lon="34.7033226803"><ele>164.492</ele><time>2026-08-17T02:46:11.648Z</time><hdop>3.0</hdop><vdop>2.5</vdop><extensions><gom:speed>0.1</gom:speed></extensions></trkpt>
   <trkpt lat="59.3261558584" lon="34.703323267"><ele>164.49</ele><time>2026-08-17T02:46:12.652Z</time><hdop>3.0</hdop><vdop>2.5</vdop><extensions><gom:speed>0.02</gom:speed></extensions></trkpt>
   <trkpt lat="59.3261557746" lon="34.703322848"><ele>164.49</ele><time>2026-08-17T02:46:13.647Z</time><hdop>3.0</hdop><vdop>2.5</vdop><extensions><gom:speed>0.093</gom:speed></extensions></trkpt>
   <trkpt lat="59.3261554812" lon="34.703322848"><ele>164.49</ele><time>2026-08-17T02:46:14.648Z</time><hdop>3.0</hdop><vdop>2.5</vdop><extensions><gom:speed>0.088</gom:speed></extensions></trkpt>
   <trkpt lat="59.3261548945" lon="34.7033230994"><ele>164.489</ele><time>2026-08-17T02:46:15.652Z</time><hdop>3.0</hdop><vdop>2.5</vdop><extensions><gom:speed>0.025</gom:speed></extensions></trkpt>
   <trkpt lat="59.3261558584" lon="34.7033222612"><ele>164.489</ele><time>2026-08-17T02:46:16.647Z</time><hdop>3.0</hdop><vdop>2.5</vdop><extensions><gom:speed>0.09</gom:speed></extensions></trkpt>
   <trkpt lat="59.3261561936" lon="34.7033229318"><ele>164.489</ele><time>2026-08-17T02:46:17.656Z</time><hdop>3.0</hdop><vdop>2.5</vdop><extensions><gom:speed>0.021</gom:speed></extensions></trkpt>
   <trkpt lat="59.3261563613" lon="34.7033226803"><ele>164.489</ele><time>2026-08-17T02:46:18.647Z</time><hdop>3.0</hdop><vdop>2.5</vdop><extensions><gom:speed>0.017</gom:speed></extensions></trkpt>
   <trkpt lat="59.3261563613" lon="34.7033226803"><ele>164.488</ele><time>2026-08-17T02:46:19.659Z</time><hdop>3.0</hdop><vdop>2.5</vdop><extensions><gom:speed>0.017</gom:speed></extensions></trkpt>
   <trkpt lat="59.326156487" lon="34.7033224289"><ele>164.486</ele><time>2026-08-17T02:46:20.653Z</time><hdop>3.0</hdop><vdop>2.5</vdop><extensions><gom:speed>0.026</gom:speed></extensions></trkpt>
   <trkpt lat="59.3261565708" lon="34.7033221774"><ele>164.484</ele><time>2026-08-17T02:46:21.652Z</time><hdop>3.0</hdop><vdop>2.5</vdop><extensions><gom:speed>0.035</gom:speed></extensions></trkpt>
   <trkpt lat="59.3261566966" lon="34.7033220936"><ele>164.483</ele><time>2026-08-17T02:46:22.654Z</time><hdop>3.0</hdop><vdop>2.5</vdop><extensions><gom:speed>0.039</gom:speed></extensions></trkpt>
   <trkpt lat="59.3261566966" lon="34.7033218421"><ele>164.482</ele><time>2026-08-17T02:46:23.652Z</time><hdop>3.0</hdop><vdop>2.5</vdop><extensions><gom:speed>0.046</gom:speed></extensions></trkpt>
   <trkpt lat="59.3261566966" lon="34.7033216745"><ele>164.482</ele><time>2026-08-17T02:46:24.652Z</time><hdop>3.0</hdop><vdop>2.5</vdop><extensions><gom:speed>0.05</gom:speed></extensions></trkpt>
   <trkpt lat="59.3261567804" lon="34.7033213392"><ele>164.482</ele><time>2026-08-17T02:46:25.649Z</time><hdop>3.0</hdop><vdop>2.5</vdop><extensions><gom:speed>0.052</gom:speed></extensions></trkpt>
   <trkpt lat="59.3261570737" lon="34.7033209201"><ele>164.483</ele><time>2026-08-17T02:46:26.175Z</time><hdop>3.0</hdop><vdop>2.5</vdop><extensions><gom:speed>0.055</gom:speed></extensions></trkpt>
   <trkpt lat="59.3261571995" lon="34.7033209201"><ele>164.483</ele><time>2026-08-17T02:46:26.652Z</time><hdop>3.0</hdop><vdop>2.5</vdop><extensions><gom:speed>0.055</gom:speed></extensions></trkpt>
   <trkpt lat="59.3261572833" lon="34.7033208363"><ele>164.481</ele><time>2026-08-17T02:46:27.652Z</time><hdop>3.0</hdop><vdop>2.5</vdop><extensions><gom:speed>0.062</gom:speed></extensions></trkpt>
   <trkpt lat="59.3261572833" lon="34.7033207525"><ele>164.481</ele><time>2026-08-17T02:46:28.652Z</time><hdop>3.0</hdop><vdop>2.5</vdop><extensions><gom:speed>0.066</gom:speed></extensions></trkpt>
   <trkpt lat="59.3261572833" lon="34.7033207525"><ele>164.481</ele><time>2026-08-17T02:46:29.655Z</time><hdop>3.0</hdop><vdop>2.5</vdop><extensions><gom:speed>0.067</gom:speed></extensions></trkpt>
   <trkpt lat="59.3261572833" lon="34.7033207525"><ele>164.481</ele><time>2026-08-17T02:46:30.647Z</time><hdop>3.0</hdop><vdop>2.5</vdop><extensions><gom:speed>0.071</gom:speed></extensions></trkpt>
   <trkpt lat="59.3261572833" lon="34.7033206687"><ele>164.479</ele><time>2026-08-17T02:46:31.652Z</time><hdop>3.0</hdop><vdop>2.5</vdop><extensions><gom:speed>0.071</gom:speed></extensions></trkpt>
   <trkpt lat="59.3261571995" lon="34.7033205848"><ele>164.477</ele><time>2026-08-17T02:46:32.648Z</time><hdop>3.0</hdop><vdop>2.5</vdop><extensions><gom:speed>0.069</gom:speed></extensions></trkpt>
   <trkpt lat="59.3261572833" lon="34.7033204172"><ele>164.498</ele><time>2026-08-17T02:46:33.652Z</time><hdop>3.0</hdop><vdop>2.5</vdop><extensions><gom:speed>0.069</gom:speed></extensions></trkpt>
   <trkpt lat="59.3261572833" lon="34.7033196628"><ele>164.508</ele><time>2026-08-17T02:46:34.652Z</time><hdop>3.0</hdop><vdop>2.5</vdop><extensions><gom:speed>0.251</gom:speed></extensions></trkpt>
   <trkpt lat="59.3261568642" lon="34.7033200819"><ele>164.513</ele><time>2026-08-17T02:46:35.647Z</time><hdop>3.0</hdop><vdop>2.5</vdop><extensions><gom:speed>0.08</gom:speed></extensions></trkpt>
   <trkpt lat="59.3261566966" lon="34.7033199981"><ele>164.516</ele><time>2026-08-17T02:46:36.647Z</time><hdop>3.0</hdop><vdop>2.5</vdop><extensions><gom:speed>0.071</gom:speed></extensions></trkpt>
   <trkpt lat="59.3261567804" lon="34.7033196628"><ele>164.516</ele><time>2026-08-17T02:46:37.652Z</time><hdop>3.0</hdop><vdop>2.5</vdop><extensions><gom:speed>0.072</gom:speed></extensions></trkpt>
   <trkpt lat="59.3261565708" lon="34.7033190761"><ele>164.515</ele><time>2026-08-17T02:46:38.652Z</time><hdop>3.0</hdop><vdop>2.5</vdop><extensions><gom:speed>0.069</gom:speed></extensions></trkpt>
   <trkpt lat="59.3261563613" lon="34.7033189923"><ele>164.514</ele><time>2026-08-17T02:46:39.646Z</time><hdop>3.0</hdop><vdop>2.5</vdop><extensions><gom:speed>0.061</gom:speed></extensions></trkpt>
   <trkpt lat="59.3261563613" lon="34.7033187408"><ele>164.512</ele><time>2026-08-17T02:46:40.663Z</time><hdop>3.0</hdop><vdop>2.5</vdop><extensions><gom:speed>0.062</gom:speed></extensions></trkpt>
   <trkpt lat="59.3261562775" lon="34.703318657"><ele>164.51</ele><time>2026-08-17T02:46:41.656Z</time><hdop>3.0</hdop><vdop>2.5</vdop><extensions><gom:speed>0.062</gom:speed></extensions></trkpt>
   <trkpt lat="59.3261559841" lon="34.7033187408"><ele>164.509</ele><time>2026-08-17T02:46:42.648Z</time><hdop>3.0</hdop><vdop>2.5</vdop><extensions><gom:speed>0.058</gom:speed></extensions></trkpt>
   <trkpt lat="59.3261558584" lon="34.703318657"><ele>164.564</ele><time>2026-08-17T02:46:43.652Z</time><hdop>3.0</hdop><vdop>2.5</vdop><extensions><gom:speed>0.059</gom:speed></extensions></trkpt>
   <trkpt lat="59.3261556907" lon="34.7033185732"><ele>164.597</ele><time>2026-08-17T02:46:44.346Z</time><hdop>3.0</hdop><vdop>2.5</vdop><extensions><gom:speed>0.217</gom:speed></extensions></trkpt>
   <trkpt lat="59.3261545592" lon="34.7033193276"><ele>164.369</ele><time>2026-08-17T02:46:45.449Z</time><hdop>3.0</hdop><vdop>2.5</vdop><extensions><gom:speed>0.565</gom:speed></extensions></trkpt>
   <trkpt lat="59.3261517932" lon="34.7033222612"><ele>164.14</ele><time>2026-08-17T02:46:46.268Z</time><hdop>3.0</hdop><vdop>2.5</vdop><extensions><gom:speed>0.659</gom:speed></extensions></trkpt>
   <trkpt lat="59.3261461773" lon="34.7033296373"><ele>163.98</ele><time>2026-08-17T02:46:47.108Z</time><hdop>3.062</hdop><vdop>2.5</vdop><extensions><gom:speed>0.709</gom:speed></extensions></trkpt>
   <trkpt lat="59.3261399747" lon="34.7033386898"><ele>163.769</ele><time>2026-08-17T02:46:47.647Z</time><hdop>3.125</hdop><vdop>2.5</vdop><extensions><gom:speed>0.608</gom:speed></extensions></trkpt>
   <trkpt lat="59.3261370829" lon="34.7033419587"><ele>163.587</ele><time>2026-08-17T02:46:48.656Z</time><hdop>3.312</hdop><vdop>2.5</vdop><extensions><gom:speed>0.475</gom:speed></extensions></trkpt>
   <trkpt lat="59.3261276952" lon="34.7033585549"><ele>163.478</ele><time>2026-08-17T02:46:49.628Z</time><hdop>3.375</hdop><vdop>2.5</vdop><extensions><gom:speed>0.545</gom:speed></extensions></trkpt>
   <trkpt lat="59.3261209897" lon="34.7033674397"><ele>163.357</ele><time>2026-08-17T02:46:50.568Z</time><hdop>3.437</hdop><vdop>2.5</vdop><extensions><gom:speed>0.49</gom:speed></extensions></trkpt>
   <trkpt lat="59.3261158767" lon="34.7033746481"><ele>163.227</ele><time>2026-08-17T02:46:51.368Z</time><hdop>3.5</hdop><vdop>2.5</vdop><extensions><gom:speed>0.448</gom:speed></extensions></trkpt>
   <trkpt lat="59.3261103865" lon="34.7033795934"><ele>163.417</ele><time>2026-08-17T02:46:52.664Z</time><hdop>3.437</hdop><vdop>2.5</vdop><extensions><gom:speed>0.401</gom:speed></extensions></trkpt>
   <trkpt lat="59.3261051898" lon="34.7033768274"><ele>163.495</ele><time>2026-08-17T02:46:53.674Z</time><hdop>3.25</hdop><vdop>2.5</vdop><extensions><gom:speed>0.366</gom:speed></extensions></trkpt>
   <trkpt lat="59.3261006635" lon="34.7033669368"><ele>163.536</ele><time>2026-08-17T02:46:54.686Z</time><hdop>3.187</hdop><vdop>2.5</vdop><extensions><gom:speed>0.374</gom:speed></extensions></trkpt>
   <trkpt lat="59.326102298" lon="34.7033640869"><ele>163.561</ele><time>2026-08-17T02:46:55.652Z</time><hdop>3.125</hdop><vdop>2.5</vdop><extensions><gom:speed>0.148</gom:speed></extensions></trkpt>
   <trkpt lat="59.3261023818" lon="34.7033637516"><ele>163.574</ele><time>2026-08-17T02:46:56.652Z</time><hdop>3.125</hdop><vdop>2.5</vdop><extensions><gom:speed>0.063</gom:speed></extensions></trkpt>
   <trkpt lat="59.3261023818" lon="34.7033651766"><ele>163.581</ele><time>2026-08-17T02:46:57.652Z</time><hdop>3.062</hdop><vdop>2.5</vdop><extensions><gom:speed>0.02</gom:speed></extensions></trkpt>
   <trkpt lat="59.3261021723" lon="34.7033636678"><ele>163.584</ele><time>2026-08-17T02:46:58.652Z</time><hdop>3.062</hdop><vdop>2.5</vdop><extensions><gom:speed>0.015</gom:speed></extensions></trkpt>
   <trkpt lat="59.3261020885" lon="34.70336174"><ele>163.585</ele><time>2026-08-17T02:46:59.652Z</time><hdop>3.0</hdop><vdop>2.5</vdop><extensions><gom:speed>0.006</gom:speed></extensions></trkpt>
   <trkpt lat="59.3261018789" lon="34.7033606503"><ele>163.582</ele><time>2026-08-17T02:47:00.652Z</time><hdop>3.0</hdop><vdop>2.5</vdop><extensions><gom:speed>0.013</gom:speed></extensions></trkpt>
   <trkpt lat="59.3261021723" lon="34.703358974"><ele>163.577</ele><time>2026-08-17T02:47:01.667Z</time><hdop>3.0</hdop><vdop>2.5</vdop><extensions><gom:speed>0.006</gom:speed></extensions></trkpt>
   <trkpt lat="59.3261026752" lon="34.7033573814"><ele>163.574</ele><time>2026-08-17T02:47:02.646Z</time><hdop>3.0</hdop><vdop>2.5</vdop><extensions><gom:speed>0.06</gom:speed></extensions></trkpt>
   <trkpt lat="59.3261032619" lon="34.7033592254"><ele>163.57</ele><time>2026-08-17T02:47:03.691Z</time><hdop>3.0</hdop><vdop>2.5</vdop><extensions><gom:speed>0.066</gom:speed></extensions></trkpt>
   <trkpt lat="59.3261033877" lon="34.703358471"><ele>163.565</ele><time>2026-08-17T02:47:04.662Z</time><hdop>3.0</hdop><vdop>2.5</vdop><extensions><gom:speed>0.018</gom:speed></extensions></trkpt>
   <trkpt lat="59.3261035972" lon="34.7033583872"><ele>163.559</ele><time>2026-08-17T02:47:05.652Z</time><hdop>3.0</hdop><vdop>2.562</vdop><extensions><gom:speed>0.014</gom:speed></extensions></trkpt>
   <trkpt lat="59.3261034715" lon="34.703358974"><ele>163.554</ele><time>2026-08-17T02:47:06.652Z</time><hdop>3.0</hdop><vdop>2.5</vdop><extensions><gom:speed>0.035</gom:speed></extensions></trkpt>
   <trkpt lat="59.3261029686" lon="34.7033574652"><ele>163.613</ele><time>2026-08-17T02:47:07.653Z</time><hdop>3.0</hdop><vdop>2.5</vdop><extensions><gom:speed>0.036</gom:speed></extensions></trkpt>
   <trkpt lat="59.3261018789" lon="34.7033565432"><ele>163.648</ele><time>2026-08-17T02:47:08.345Z</time><hdop>3.0</hdop><vdop>2.5</vdop><extensions><gom:speed>0.086</gom:speed></extensions></trkpt>
   <trkpt lat="59.326099993" lon="34.703356627"><ele>163.573</ele><time>2026-08-17T02:47:09.407Z</time><hdop>3.0</hdop><vdop>2.5</vdop><extensions><gom:speed>0.11</gom:speed></extensions></trkpt>
   <trkpt lat="59.3260956763" lon="34.7033604827"><ele>163.702</ele><time>2026-08-17T02:47:10.439Z</time><hdop>3.0</hdop><vdop>2.5</vdop><extensions><gom:speed>0.198</gom:speed></extensions></trkpt>
   <trkpt lat="59.3260901862" lon="34.7033640869"><ele>163.808</ele><time>2026-08-17T02:47:11.441Z</time><hdop>3.0</hdop><vdop>2.5</vdop><extensions><gom:speed>0.275</gom:speed></extensions></trkpt>
   <trkpt lat="59.326081469" lon="34.7033709601"><ele>164.023</ele><time>2026-08-17T02:47:12.362Z</time><hdop>3.0</hdop><vdop>2.5</vdop><extensions><gom:speed>0.47</gom:speed></extensions></trkpt>
   <trkpt lat="59.3260747635" lon="34.7033810184"><ele>163.964</ele><time>2026-08-17T02:47:13.485Z</time><hdop>3.0</hdop><vdop>2.5</vdop><extensions><gom:speed>0.456</gom:speed></extensions></trkpt>
   <trkpt lat="59.3260697762" lon="34.7033902385"><ele>163.848</ele><time>2026-08-17T02:47:14.652Z</time><hdop>3.0</hdop><vdop>2.5</vdop><extensions><gom:speed>0.355</gom:speed></extensions></trkpt>
   <trkpt lat="59.3260672617" lon="34.7033958543"><ele>163.778</ele><time>2026-08-17T02:47:15.599Z</time><hdop>3.0</hdop><vdop>2.5</vdop><extensions><gom:speed>0.304</gom:speed></extensions></trkpt>
   <trkpt lat="59.3260671778" lon="34.7033944294"><ele>163.736</ele><time>2026-08-17T02:47:16.065Z</time><hdop>3.0</hdop><vdop>2.5</vdop><extensions><gom:speed>0.188</gom:speed></extensions></trkpt>
   <trkpt lat="59.3260675969" lon="34.7033946809"><ele>163.653</ele><time>2026-08-17T02:47:16.652Z</time><hdop>3.0</hdop><vdop>2.5</vdop><extensions><gom:speed>0.126</gom:speed></extensions></trkpt>
   <trkpt lat="59.3260669683" lon="34.703398788"><ele>163.632</ele><time>2026-08-17T02:47:17.652Z</time><hdop>3.0</hdop><vdop>2.5</vdop><extensions><gom:speed>0.104</gom:speed></extensions></trkpt>
   <trkpt lat="59.3260674712" lon="34.7034031466"><ele>163.613</ele><time>2026-08-17T02:47:18.665Z</time><hdop>3.0</hdop><vdop>2.5</vdop><extensions><gom:speed>0.122</gom:speed></extensions></trkpt>
   <trkpt lat="59.326068477" lon="34.7034076728"><ele>163.597</ele><time>2026-08-17T02:47:19.656Z</time><hdop>3.0</hdop><vdop>2.5</vdop><extensions><gom:speed>0.079</gom:speed></extensions></trkpt>
   <trkpt lat="59.3260694829" lon="34.7034087625"><ele>163.587</ele><time>2026-08-17T02:47:20.652Z</time><hdop>3.0</hdop><vdop>2.5</vdop><extensions><gom:speed>0.041</gom:speed></extensions></trkpt>
   <trkpt lat="59.3260699858" lon="34.7034089301"><ele>163.579</ele><time>2026-08-17T02:47:21.653Z</time><hdop>3.0</hdop><vdop>2.5</vdop><extensions><gom:speed>0.041</gom:speed></extensions></trkpt>
   <trkpt lat="59.32606986" lon="34.7034069184"><ele>163.571</ele><time>2026-08-17T02:47:22.652Z</time><hdop>3.0</hdop><vdop>2.5</vdop><extensions><gom:speed>0.036</gom:speed></extensions></trkpt>
   <trkpt lat="59.3260700696" lon="34.7034081757"><ele>163.886</ele><time>2026-08-17T02:47:23.663Z</time><hdop>3.0</hdop><vdop>2.5</vdop><extensions><gom:speed>0.082</gom:speed></extensions></trkpt>
   <trkpt lat="59.326070363" lon="34.7034124505"><ele>164.072</ele><time>2026-08-17T02:47:24.654Z</time><hdop>3.0</hdop><vdop>2.5</vdop><extensions><gom:speed>0.06</gom:speed></extensions></trkpt>
   <trkpt lat="59.3260708659" lon="34.7034220897"><ele>164.324</ele><time>2026-08-17T02:47:25.647Z</time><hdop>3.0</hdop><vdop>2.5</vdop><extensions><gom:speed>0.138</gom:speed></extensions></trkpt>
   <trkpt lat="59.3260706982" lon="34.7034238499"><ele>164.475</ele><time>2026-08-17T02:47:26.273Z</time><hdop>3.0</hdop><vdop>2.5</vdop><extensions><gom:speed>0.15</gom:speed></extensions></trkpt>
   <trkpt lat="59.3260714945" lon="34.703430723"><ele>164.471</ele><time>2026-08-17T02:47:26.840Z</time><hdop>3.0</hdop><vdop>2.5</vdop><extensions><gom:speed>0.187</gom:speed></extensions></trkpt>
   <trkpt lat="59.3260714945" lon="34.7034338244"><ele>164.469</ele><time>2026-08-17T02:47:27.630Z</time><hdop>3.0</hdop><vdop>2.5</vdop><extensions><gom:speed>0.213</gom:speed></extensions></trkpt>
   <trkpt lat="59.326072668" lon="34.7034492471"><ele>164.418</ele><time>2026-08-17T02:47:28.469Z</time><hdop>3.0</hdop><vdop>2.5</vdop><extensions><gom:speed>0.318</gom:speed></extensions></trkpt>
   <trkpt lat="59.32607359" lon="34.7034645859"><ele>164.489</ele><time>2026-08-17T02:47:29.329Z</time><hdop>3.0</hdop><vdop>2.5</vdop><extensions><gom:speed>0.354</gom:speed></extensions></trkpt>
   <trkpt lat="59.32607359" lon="34.7034802601"><ele>164.692</ele><time>2026-08-17T02:47:30.047Z</time><hdop>3.0</hdop><vdop>2.5</vdop><extensions><gom:speed>0.444</gom:speed></extensions></trkpt>
   <trkpt lat="59.3260728775" lon="34.7034862951"><ele>164.787</ele><time>2026-08-17T02:47:30.652Z</time><hdop>3.0</hdop><vdop>2.5</vdop><extensions><gom:speed>0.449</gom:speed></extensions></trkpt>
   <trkpt lat="59.3260745958" lon="34.7034887258"><ele>164.843</ele><time>2026-08-17T02:47:31.656Z</time><hdop>3.0</hdop><vdop>2.5</vdop><extensions><gom:speed>0.207</gom:speed></extensions></trkpt>
   <trkpt lat="59.3260766913" lon="34.7034912404"><ele>164.875</ele><time>2026-08-17T02:47:32.647Z</time><hdop>3.0</hdop><vdop>2.5</vdop><extensions><gom:speed>0.147</gom:speed></extensions></trkpt>
   <trkpt lat="59.3260768589" lon="34.7034876362"><ele>164.893</ele><time>2026-08-17T02:47:33.652Z</time><hdop>3.0</hdop><vdop>2.5</vdop><extensions><gom:speed>0.038</gom:speed></extensions></trkpt>
   <trkpt lat="59.3260770685" lon="34.7034897316"><ele>164.902</ele><time>2026-08-17T02:47:34.650Z</time><hdop>3.0</hdop><vdop>2.5</vdop><extensions><gom:speed>0.114</gom:speed></extensions></trkpt>
   <trkpt lat="59.3260783677" lon="34.7034906537"><ele>164.907</ele><time>2026-08-17T02:47:35.177Z</time><hdop>3.0</hdop><vdop>2.5</vdop><extensions><gom:speed>0.068</gom:speed></extensions></trkpt>
   <trkpt lat="59.326078661" lon="34.7034899831"><ele>164.91</ele><time>2026-08-17T02:47:35.652Z</time><hdop>3.0</hdop><vdop>2.5</vdop><extensions><gom:speed>0.013</gom:speed></extensions></trkpt>
   <trkpt lat="59.3260789963" lon="34.7034907375"><ele>164.912</ele><time>2026-08-17T02:47:36.652Z</time><hdop>3.0</hdop><vdop>2.5</vdop><extensions><gom:speed>0.017</gom:speed></extensions></trkpt>
   <trkpt lat="59.3260792897" lon="34.7034916595"><ele>164.914</ele><time>2026-08-17T02:47:37.686Z</time><hdop>3.0</hdop><vdop>2.5</vdop><extensions><gom:speed>0.029</gom:speed></extensions></trkpt>
   <trkpt lat="59.3260790801" lon="34.7034940902"><ele>164.834</ele><time>2026-08-17T02:47:38.202Z</time><hdop>3.0</hdop><vdop>2.5</vdop><extensions><gom:speed>0.077</gom:speed></extensions></trkpt>
   <trkpt lat="59.3260790801" lon="34.7034944255"><ele>164.797</ele><time>2026-08-17T02:47:38.657Z</time><hdop>3.0</hdop><vdop>2.5</vdop><extensions><gom:speed>0.033</gom:speed></extensions></trkpt>
   <trkpt lat="59.3260745958" lon="34.7035059925"><ele>164.927</ele><time>2026-08-17T02:47:39.647Z</time><hdop>3.0</hdop><vdop>2.5</vdop><extensions><gom:speed>0.141</gom:speed></extensions></trkpt>
   <trkpt lat="59.3260738834" lon="34.7035055734"><ele>165.005</ele><time>2026-08-17T02:47:40.489Z</time><hdop>3.0</hdop><vdop>2.5</vdop><extensions><gom:speed>0.15</gom:speed></extensions></trkpt>
   <trkpt lat="59.3260680998" lon="34.7035139553"><ele>165.087</ele><time>2026-08-17T02:47:41.146Z</time><hdop>3.0</hdop><vdop>2.5</vdop><extensions><gom:speed>0.277</gom:speed></extensions></trkpt>
   <trkpt lat="59.326061562" lon="34.7035182301"><ele>165.112</ele><time>2026-08-17T02:47:41.647Z</time><hdop>3.0</hdop><vdop>2.5</vdop><extensions><gom:speed>0.401</gom:speed></extensions></trkpt>
   <trkpt lat="59.3260501626" lon="34.7035228402"><ele>165.13</ele><time>2026-08-17T02:47:42.646Z</time><hdop>3.0</hdop><vdop>2.5</vdop><extensions><gom:speed>0.595</gom:speed></extensions></trkpt>
   <trkpt lat="59.3260447982" lon="34.7035268635"><ele>165.141</ele><time>2026-08-17T02:47:43.604Z</time><hdop>3.0</hdop><vdop>2.5</vdop><extensions><gom:speed>0.63</gom:speed></extensions></trkpt>
   <trkpt lat="59.326039769" lon="34.7035297971"><ele>165.15</ele><time>2026-08-17T02:47:44.242Z</time><hdop>3.0</hdop><vdop>2.5</vdop><extensions><gom:speed>0.565</gom:speed></extensions></trkpt>
   <trkpt lat="59.3260349913" lon="34.7035319764"><ele>165.222</ele><time>2026-08-17T02:47:44.728Z</time><hdop>3.0</hdop><vdop>2.5</vdop><extensions><gom:speed>0.515</gom:speed></extensions></trkpt>
   <trkpt lat="59.3260319738" lon="34.7035353292"><ele>165.396</ele><time>2026-08-17T02:47:45.647Z</time><hdop>3.0</hdop><vdop>2.5</vdop><extensions><gom:speed>0.38</gom:speed></extensions></trkpt>
   <trkpt lat="59.3260317643" lon="34.7035398554"><ele>165.499</ele><time>2026-08-17T02:47:46.448Z</time><hdop>3.0</hdop><vdop>2.5</vdop><extensions><gom:speed>0.343</gom:speed></extensions></trkpt>
   <trkpt lat="59.326029585" lon="34.7035354968"><ele>165.562</ele><time>2026-08-17T02:47:47.024Z</time><hdop>3.0</hdop><vdop>2.5</vdop><extensions><gom:speed>0.18</gom:speed></extensions></trkpt>
   <trkpt lat="59.32602728" lon="34.7035369218"><ele>165.726</ele><time>2026-08-17T02:47:47.647Z</time><hdop>3.0</hdop><vdop>2.5</vdop><extensions><gom:speed>0.205</gom:speed></extensions></trkpt>
   <trkpt lat="59.3260252683" lon="34.7035419509"><ele>165.728</ele><time>2026-08-17T02:47:48.647Z</time><hdop>3.0</hdop><vdop>2.5</vdop><extensions><gom:speed>0.274</gom:speed></extensions></trkpt>
   <trkpt lat="59.3260248911" lon="34.7035443817"><ele>165.729</ele><time>2026-08-17T02:47:49.463Z</time><hdop>3.0</hdop><vdop>2.5</vdop><extensions><gom:speed>0.263</gom:speed></extensions></trkpt>
   <trkpt lat="59.3260224604" lon="34.7035540208"><ele>165.728</ele><time>2026-08-17T02:47:50.302Z</time><hdop>3.0</hdop><vdop>2.5</vdop><extensions><gom:speed>0.338</gom:speed></extensions></trkpt>
   <trkpt lat="59.3260188981" lon="34.7035658393"><ele>165.791</ele><time>2026-08-17T02:47:51.142Z</time><hdop>3.0</hdop><vdop>2.5</vdop><extensions><gom:speed>0.454</gom:speed></extensions></trkpt>
   <trkpt lat="59.3260130727" lon="34.7035783284"><ele>165.869</ele><time>2026-08-17T02:47:51.647Z</time><hdop>3.0</hdop><vdop>2.5</vdop><extensions><gom:speed>0.647</gom:speed></extensions></trkpt>
   <trkpt lat="59.3260083788" lon="34.7035842795"><ele>165.922</ele><time>2026-08-17T02:47:52.652Z</time><hdop>3.0</hdop><vdop>2.625</vdop><extensions><gom:speed>0.565</gom:speed></extensions></trkpt>
   <trkpt lat="59.3259974823" lon="34.7035939187"><ele>165.954</ele><time>2026-08-17T02:47:53.661Z</time><hdop>3.0</hdop><vdop>2.625</vdop><extensions><gom:speed>0.624</gom:speed></extensions></trkpt>
   <trkpt lat="59.3259930818" lon="34.7035967685"><ele>165.972</ele><time>2026-08-17T02:47:55.088Z</time><hdop>3.125</hdop><vdop>2.625</vdop><extensions><gom:speed>0.421</gom:speed></extensions></trkpt>
   <trkpt lat="59.3259789583" lon="34.7035972715"><ele>166.582</ele><time>2026-08-17T02:47:55.647Z</time><hdop>3.187</hdop><vdop>2.5</vdop><extensions><gom:speed>0.649</gom:speed></extensions></trkpt>
   <trkpt lat="59.325969361" lon="34.7036015462"><ele>166.871</ele><time>2026-08-17T02:47:56.647Z</time><hdop>3.187</hdop><vdop>2.562</vdop><extensions><gom:speed>0.642</gom:speed></extensions></trkpt>
   <trkpt lat="59.3259644995" lon="34.7036073297"><ele>167.043</ele><time>2026-08-17T02:47:57.648Z</time><hdop>3.187</hdop><vdop>2.562</vdop><extensions><gom:speed>0.59</gom:speed></extensions></trkpt>
   <trkpt lat="59.3259561595" lon="34.7036113531"><ele>167.489</ele><time>2026-08-17T02:47:58.326Z</time><hdop>3.125</hdop><vdop>2.562</vdop><extensions><gom:speed>0.626</gom:speed></extensions></trkpt>
   <trkpt lat="59.325946688" lon="34.7036123589"><ele>167.895</ele><time>2026-08-17T02:47:59.186Z</time><hdop>3.062</hdop><vdop>2.625</vdop><extensions><gom:speed>0.641</gom:speed></extensions></trkpt>
   <trkpt lat="59.3259432933" lon="34.7036121913"><ele>168.133</ele><time>2026-08-17T02:47:59.652Z</time><hdop>3.062</hdop><vdop>2.687</vdop><extensions><gom:speed>0.648</gom:speed></extensions></trkpt>
   <trkpt lat="59.3259329836" lon="34.7036097605"><ele>168.275</ele><time>2026-08-17T02:48:00.683Z</time><hdop>3.0</hdop><vdop>2.687</vdop><extensions><gom:speed>0.569</gom:speed></extensions></trkpt>
   <trkpt lat="59.3259302594" lon="34.7036121913"><ele>167.555</ele><time>2026-08-17T02:48:01.652Z</time><hdop>3.0</hdop><vdop>2.687</vdop><extensions><gom:speed>0.357</gom:speed></extensions></trkpt>
   <trkpt lat="59.3259306785" lon="34.703612778"><ele>167.124</ele><time>2026-08-17T02:48:02.652Z</time><hdop>3.0</hdop><vdop>2.625</vdop><extensions><gom:speed>0.139</gom:speed></extensions></trkpt>
   <trkpt lat="59.3259321873" lon="34.7036123589"><ele>166.866</ele><time>2026-08-17T02:48:03.243Z</time><hdop>3.0</hdop><vdop>2.625</vdop><extensions><gom:speed>0.142</gom:speed></extensions></trkpt>
   <trkpt lat="59.3259328997" lon="34.7036110178"><ele>166.773</ele><time>2026-08-17T02:48:04.406Z</time><hdop>3.0</hdop><vdop>2.687</vdop><extensions><gom:speed>0.1</gom:speed></extensions></trkpt>
   <trkpt lat="59.3259326902" lon="34.7036099281"><ele>166.817</ele><time>2026-08-17T02:48:04.943Z</time><hdop>3.0</hdop><vdop>2.687</vdop><extensions><gom:speed>0.132</gom:speed></extensions></trkpt>
   <trkpt lat="59.3259301756" lon="34.7036094252"><ele>166.871</ele><time>2026-08-17T02:48:05.646Z</time><hdop>3.0</hdop><vdop>2.812</vdop><extensions><gom:speed>0.231</gom:speed></extensions></trkpt>
   <trkpt lat="59.3259291698" lon="34.7036089223"><ele>166.903</ele><time>2026-08-17T02:48:06.440Z</time><hdop>3.0</hdop><vdop>2.812</vdop><extensions><gom:speed>0.191</gom:speed></extensions></trkpt>
   <trkpt lat="59.3259219614" lon="34.7036129456"><ele>167.003</ele><time>2026-08-17T02:48:07.341Z</time><hdop>3.0</hdop><vdop>3.125</vdop><extensions><gom:speed>0.382</gom:speed></extensions></trkpt>
   <trkpt lat="59.3259162617" lon="34.7036158793"><ele>167.317</ele><time>2026-08-17T02:48:08.322Z</time><hdop>3.0</hdop><vdop>2.687</vdop><extensions><gom:speed>0.36</gom:speed></extensions></trkpt>
   <trkpt lat="59.3259108973" lon="34.7036196511"><ele>167.642</ele><time>2026-08-17T02:48:08.808Z</time><hdop>3.0</hdop><vdop>2.5</vdop><extensions><gom:speed>0.428</gom:speed></extensions></trkpt>
   <trkpt lat="59.3259097657" lon="34.7036247641"><ele>167.837</ele><time>2026-08-17T02:48:09.485Z</time><hdop>3.0</hdop><vdop>2.5</vdop><extensions><gom:speed>0.451</gom:speed></extensions></trkpt>
   <trkpt lat="59.3259025992" lon="34.7036320564"><ele>168.118</ele><time>2026-08-17T02:48:10.646Z</time><hdop>3.0</hdop><vdop>2.687</vdop><extensions><gom:speed>0.417</gom:speed></extensions></trkpt>
   <trkpt lat="59.3259028925" lon="34.7036308829"><ele>168.281</ele><time>2026-08-17T02:48:11.652Z</time><hdop>3.0</hdop><vdop>2.812</vdop><extensions><gom:speed>0.166</gom:speed></extensions></trkpt>
   <trkpt lat="59.3259011742" lon="34.7036328946"><ele>168.606</ele><time>2026-08-17T02:48:12.652Z</time><hdop>3.0</hdop><vdop>2.5</vdop><extensions><gom:speed>0.086</gom:speed></extensions></trkpt>
   <trkpt lat="59.3258988692" lon="34.7036360797"><ele>168.814</ele><time>2026-08-17T02:48:13.664Z</time><hdop>3.0</hdop><vdop>2.5</vdop><extensions><gom:speed>0.069</gom:speed></extensions></trkpt>
   <trkpt lat="59.3258965642" lon="34.703639181"><ele>168.939</ele><time>2026-08-17T02:48:14.372Z</time><hdop>3.0</hdop><vdop>2.5</vdop><extensions><gom:speed>0.13</gom:speed></extensions></trkpt>
   <trkpt lat="59.3258942592" lon="34.7036411926"><ele>169.009</ele><time>2026-08-17T02:48:15.652Z</time><hdop>3.0</hdop><vdop>2.562</vdop><extensions><gom:speed>0.032</gom:speed></extensions></trkpt>
   <trkpt lat="59.3258925828" lon="34.7036450483"><ele>169.237</ele><time>2026-08-17T02:48:16.647Z</time><hdop>3.0</hdop><vdop>2.5</vdop><extensions><gom:speed>0.096</gom:speed></extensions></trkpt>
   <trkpt lat="59.3258925828" lon="34.7036451321"><ele>169.373</ele><time>2026-08-17T02:48:17.286Z</time><hdop>3.0</hdop><vdop>2.5</vdop><extensions><gom:speed>0.076</gom:speed></extensions></trkpt>
   <trkpt lat="59.3258926666" lon="34.7036485687"><ele>169.752</ele><time>2026-08-17T02:48:18.207Z</time><hdop>3.0</hdop><vdop>2.5</vdop><extensions><gom:speed>0.097</gom:speed></extensions></trkpt>
   <trkpt lat="59.325892499" lon="34.7036531788"><ele>170.069</ele><time>2026-08-17T02:48:18.723Z</time><hdop>3.0</hdop><vdop>2.5</vdop><extensions><gom:speed>0.057</gom:speed></extensions></trkpt>
   <trkpt lat="59.3258920799" lon="34.7036542684"><ele>170.259</ele><time>2026-08-17T02:48:19.340Z</time><hdop>3.0</hdop><vdop>2.5</vdop><extensions><gom:speed>0.107</gom:speed></extensions></trkpt>
   <trkpt lat="59.3258916608" lon="34.7036647458"><ele>170.218</ele><time>2026-08-17T02:48:19.937Z</time><hdop>3.0</hdop><vdop>2.5</vdop><extensions><gom:speed>0.26</gom:speed></extensions></trkpt>
   <trkpt lat="59.3258918703" lon="34.7036764804"><ele>170.325</ele><time>2026-08-17T02:48:20.646Z</time><hdop>3.0</hdop><vdop>2.5</vdop><extensions><gom:speed>0.318</gom:speed></extensions></trkpt>
   <trkpt lat="59.325890194" lon="34.7036840242"><ele>170.389</ele><time>2026-08-17T02:48:21.465Z</time><hdop>3.0</hdop><vdop>2.5</vdop><extensions><gom:speed>0.427</gom:speed></extensions></trkpt>
   <trkpt lat="59.3258897749" lon="34.7037029673"><ele>170.419</ele><time>2026-08-17T02:48:22.265Z</time><hdop>3.0</hdop><vdop>2.5</vdop><extensions><gom:speed>0.605</gom:speed></extensions></trkpt>
   <trkpt lat="59.3258888948" lon="34.7037171327"><ele>170.353</ele><time>2026-08-17T02:48:23.185Z</time><hdop>3.0</hdop><vdop>2.5</vdop><extensions><gom:speed>0.617</gom:speed></extensions></trkpt>
   <trkpt lat="59.325889691" lon="34.7037244249"><ele>170.089</ele><time>2026-08-17T02:48:23.647Z</time><hdop>3.0</hdop><vdop>2.5</vdop><extensions><gom:speed>0.558</gom:speed></extensions></trkpt>
   <trkpt lat="59.325888769" lon="34.7037385904"><ele>170.005</ele><time>2026-08-17T02:48:24.646Z</time><hdop>3.0</hdop><vdop>2.5</vdop><extensions><gom:speed>0.562</gom:speed></extensions></trkpt>
   <trkpt lat="59.3258869669" lon="34.7037452959"><ele>169.955</ele><time>2026-08-17T02:48:25.502Z</time><hdop>3.0</hdop><vdop>2.5</vdop><extensions><gom:speed>0.513</gom:speed></extensions></trkpt>
   <trkpt lat="59.3258876794" lon="34.7037510794"><ele>169.913</ele><time>2026-08-17T02:48:26.652Z</time><hdop>3.0</hdop><vdop>2.5</vdop><extensions><gom:speed>0.311</gom:speed></extensions></trkpt>
   <trkpt lat="59.3258898587" lon="34.7037528396"><ele>169.886</ele><time>2026-08-17T02:48:27.647Z</time><hdop>3.0</hdop><vdop>2.5</vdop><extensions><gom:speed>0.204</gom:speed></extensions></trkpt>
   <trkpt lat="59.3258910741" lon="34.7037539292"><ele>169.868</ele><time>2026-08-17T02:48:28.647Z</time><hdop>3.0</hdop><vdop>2.5</vdop><extensions><gom:speed>0.142</gom:speed></extensions></trkpt>
   <trkpt lat="59.325891577" lon="34.7037544321"><ele>169.856</ele><time>2026-08-17T02:48:29.650Z</time><hdop>3.0</hdop><vdop>2.5</vdop><extensions><gom:speed>0.138</gom:speed></extensions></trkpt>
   <trkpt lat="59.325892499" lon="34.7037527558"><ele>169.848</ele><time>2026-08-17T02:48:30.662Z</time><hdop>3.0</hdop><vdop>2.5</vdop><extensions><gom:speed>0.069</gom:speed></extensions></trkpt>
   <trkpt lat="59.3258922894" lon="34.7037538454"><ele>169.841</ele><time>2026-08-17T02:48:31.674Z</time><hdop>3.0</hdop><vdop>2.5</vdop><extensions><gom:speed>0.079</gom:speed></extensions></trkpt>
   <trkpt lat="59.325891577" lon="34.7037525881"><ele>169.837</ele><time>2026-08-17T02:48:32.652Z</time><hdop>3.0</hdop><vdop>2.5</vdop><extensions><gom:speed>0.024</gom:speed></extensions></trkpt>
   <trkpt lat="59.3258911998" lon="34.7037538454"><ele>169.833</ele><time>2026-08-17T02:48:33.652Z</time><hdop>3.0</hdop><vdop>2.5</vdop><extensions><gom:speed>0.027</gom:speed></extensions></trkpt>
   <trkpt lat="59.3258913674" lon="34.7037569467"><ele>169.79</ele><time>2026-08-17T02:48:34.647Z</time><hdop>3.0</hdop><vdop>2.5</vdop><extensions><gom:speed>0.112</gom:speed></extensions></trkpt>
   <trkpt lat="59.3258910741" lon="34.7037584555"><ele>169.751</ele><time>2026-08-17T02:48:35.646Z</time><hdop>3.0</hdop><vdop>2.5</vdop><extensions><gom:speed>0.104</gom:speed></extensions></trkpt>
   <trkpt lat="59.3258916608" lon="34.7037599642"><ele>169.725</ele><time>2026-08-17T02:48:36.647Z</time><hdop>3.0</hdop><vdop>2.5</vdop><extensions><gom:speed>0.104</gom:speed></extensions></trkpt>
   <trkpt lat="59.3258920799" lon="34.7037602995"><ele>169.71</ele><time>2026-08-17T02:48:37.238Z</time><hdop>3.0</hdop><vdop>2.5</vdop><extensions><gom:speed>0.131</gom:speed></extensions></trkpt>
   <trkpt lat="59.3258934629" lon="34.7037601318"><ele>169.698</ele><time>2026-08-17T02:48:38.656Z</time><hdop>3.0</hdop><vdop>2.5</vdop><extensions><gom:speed>0.044</gom:speed></extensions></trkpt>
   <trkpt lat="59.3258944687" lon="34.7037612215"><ele>169.691</ele><time>2026-08-17T02:48:39.647Z</time><hdop>3.0</hdop><vdop>2.5</vdop><extensions><gom:speed>0.092</gom:speed></extensions></trkpt>
   <trkpt lat="59.325895265" lon="34.7037610539"><ele>169.686</ele><time>2026-08-17T02:48:40.647Z</time><hdop>3.0</hdop><vdop>2.5</vdop><extensions><gom:speed>0.09</gom:speed></extensions></trkpt>
   <trkpt lat="59.3258951812" lon="34.7037614729"><ele>169.685</ele><time>2026-08-17T02:48:41.647Z</time><hdop>3.0</hdop><vdop>2.5</vdop><extensions><gom:speed>0.093</gom:speed></extensions></trkpt>
   <trkpt lat="59.3258950974" lon="34.703761892"><ele>169.682</ele><time>2026-08-17T02:48:42.647Z</time><hdop>3.0</hdop><vdop>2.5</vdop><extensions><gom:speed>0.089</gom:speed></extensions></trkpt>
   <trkpt lat="59.3258956841" lon="34.703762395"><ele>169.68</ele><time>2026-08-17T02:48:43.652Z</time><hdop>3.0</hdop><vdop>2.5</vdop><extensions><gom:speed>0.025</gom:speed></extensions></trkpt>
   <trkpt lat="59.3258965642" lon="34.7037619759"><ele>169.553</ele><time>2026-08-17T02:48:44.653Z</time><hdop>3.0</hdop><vdop>2.5</vdop><extensions><gom:speed>0.076</gom:speed></extensions></trkpt>
   <trkpt lat="59.3258972767" lon="34.7037615568"><ele>169.481</ele><time>2026-08-17T02:48:45.652Z</time><hdop>3.0</hdop><vdop>2.5</vdop><extensions><gom:speed>0.041</gom:speed></extensions></trkpt>
   <trkpt lat="59.3258977796" lon="34.70376097"><ele>169.441</ele><time>2026-08-17T02:48:46.648Z</time><hdop>3.0</hdop><vdop>2.5</vdop><extensions><gom:speed>0.011</gom:speed></extensions></trkpt>
   <trkpt lat="59.3258986597" lon="34.7037595451"><ele>169.42</ele><time>2026-08-17T02:48:47.647Z</time><hdop>3.0</hdop><vdop>2.5</vdop><extensions><gom:speed>0.027</gom:speed></extensions></trkpt>
   <trkpt lat="59.3258987854" lon="34.7037593775"><ele>169.408</ele><time>2026-08-17T02:48:48.469Z</time><hdop>3.0</hdop><vdop>2.5</vdop><extensions><gom:speed>0.028</gom:speed></extensions></trkpt>
   <trkpt lat="59.3258995817" lon="34.7037588746"><ele>169.391</ele><time>2026-08-17T02:48:49.652Z</time><hdop>3.0</hdop><vdop>2.5</vdop><extensions><gom:speed>0.037</gom:speed></extensions></trkpt>
   <trkpt lat="59.3259001684" lon="34.7037583716"><ele>169.376</ele><time>2026-08-17T02:48:50.652Z</time><hdop>3.0</hdop><vdop>2.5</vdop><extensions><gom:speed>0.042</gom:speed></extensions></trkpt>
   <trkpt lat="59.3259007971" lon="34.7037578687"><ele>169.362</ele><time>2026-08-17T02:48:51.652Z</time><hdop>3.0</hdop><vdop>2.5</vdop><extensions><gom:speed>0.047</gom:speed></extensions></trkpt>
   <trkpt lat="59.3259013838" lon="34.703757282"><ele>169.348</ele><time>2026-08-17T02:48:52.652Z</time><hdop>3.0</hdop><vdop>2.5</vdop><extensions><gom:speed>0.051</gom:speed></extensions></trkpt>
   <trkpt lat="59.3259018867" lon="34.7037567791"><ele>169.175</ele><time>2026-08-17T02:48:53.652Z</time><hdop>3.0</hdop><vdop>2.5</vdop><extensions><gom:speed>0.053</gom:speed></extensions></trkpt>
   <trkpt lat="59.3259036888" lon="34.7037551865"><ele>169.071</ele><time>2026-08-17T02:48:54.641Z</time><hdop>3.0</hdop><vdop>2.5</vdop><extensions><gom:speed>0.226</gom:speed></extensions></trkpt>
   <trkpt lat="59.3259057843" lon="34.7037524205"><ele>168.962</ele><time>2026-08-17T02:48:55.622Z</time><hdop>3.0</hdop><vdop>2.5</vdop><extensions><gom:speed>0.343</gom:speed></extensions></trkpt>
   <trkpt lat="59.3259076702" lon="34.7037494868"><ele>168.798</ele><time>2026-08-17T02:48:56.583Z</time><hdop>3.0</hdop><vdop>2.5</vdop><extensions><gom:speed>0.368</gom:speed></extensions></trkpt>
   <trkpt lat="59.3259077959" lon="34.703747559"><ele>168.602</ele><time>2026-08-17T02:48:57.652Z</time><hdop>3.0</hdop><vdop>2.5</vdop><extensions><gom:speed>0.079</gom:speed></extensions></trkpt>
   <trkpt lat="59.3259111906" lon="34.7037409373"><ele>168.554</ele><time>2026-08-17T02:48:58.646Z</time><hdop>3.0</hdop><vdop>2.5</vdop><extensions><gom:speed>0.311</gom:speed></extensions></trkpt>
   <trkpt lat="59.3259129927" lon="34.70373968"><ele>168.525</ele><time>2026-08-17T02:48:59.548Z</time><hdop>3.0</hdop><vdop>2.5</vdop><extensions><gom:speed>0.334</gom:speed></extensions></trkpt>
   <trkpt lat="59.3259129927" lon="34.7037312981"><ele>168.356</ele><time>2026-08-17T02:49:00.408Z</time><hdop>3.0</hdop><vdop>2.5</vdop><extensions><gom:speed>0.164</gom:speed></extensions></trkpt>
   <trkpt lat="59.3259150882" lon="34.7037206531"><ele>168.244</ele><time>2026-08-17T02:49:01.379Z</time><hdop>3.0</hdop><vdop>2.5</vdop><extensions><gom:speed>0.122</gom:speed></extensions></trkpt>
   <trkpt lat="59.3259176866" lon="34.7037094213"><ele>168.183</ele><time>2026-08-17T02:49:01.865Z</time><hdop>3.0</hdop><vdop>2.5</vdop><extensions><gom:speed>0.113</gom:speed></extensions></trkpt>
   <trkpt lat="59.32591798" lon="34.7037084993"><ele>168.146</ele><time>2026-08-17T02:49:02.320Z</time><hdop>3.0</hdop><vdop>2.5</vdop><extensions><gom:speed>0.142</gom:speed></extensions></trkpt>
   <trkpt lat="59.3259219614" lon="34.7036962617"><ele>168.112</ele><time>2026-08-17T02:49:03.443Z</time><hdop>3.0</hdop><vdop>2.5</vdop><extensions><gom:speed>0.232</gom:speed></extensions></trkpt>
   <trkpt lat="59.3259263619" lon="34.7036839403"><ele>167.936</ele><time>2026-08-17T02:49:04.652Z</time><hdop>3.0</hdop><vdop>2.5</vdop><extensions><gom:speed>0.258</gom:speed></extensions></trkpt>
   <trkpt lat="59.3259309719" lon="34.7036675956"><ele>167.831</ele><time>2026-08-17T02:49:05.608Z</time><hdop>3.0</hdop><vdop>2.5</vdop><extensions><gom:speed>0.386</gom:speed></extensions></trkpt>
   <trkpt lat="59.3259330674" lon="34.7036615607"><ele>167.748</ele><time>2026-08-17T02:49:06.367Z</time><hdop>3.0</hdop><vdop>2.5</vdop><extensions><gom:speed>0.326</gom:speed></extensions></trkpt>
   <trkpt lat="59.3259381803" lon="34.7036478982"><ele>167.696</ele><time>2026-08-17T02:49:07.328Z</time><hdop>3.0</hdop><vdop>2.5</vdop><extensions><gom:speed>0.435</gom:speed></extensions></trkpt>
   <trkpt lat="59.3259411978" lon="34.7036344871"><ele>167.611</ele><time>2026-08-17T02:49:07.945Z</time><hdop>3.0</hdop><vdop>2.5</vdop><extensions><gom:speed>0.443</gom:speed></extensions></trkpt>
   <trkpt lat="59.3259432933" lon="34.7036330622"><ele>167.56</ele><time>2026-08-17T02:49:08.684Z</time><hdop>3.0</hdop><vdop>2.5</vdop><extensions><gom:speed>0.366</gom:speed></extensions></trkpt>
   <trkpt lat="59.3259483644" lon="34.7036161307"><ele>167.557</ele><time>2026-08-17T02:49:09.564Z</time><hdop>3.0</hdop><vdop>2.5</vdop><extensions><gom:speed>0.441</gom:speed></extensions></trkpt>
   <trkpt lat="59.3259536869" lon="34.7036025521"><ele>167.583</ele><time>2026-08-17T02:49:10.424Z</time><hdop>3.0</hdop><vdop>2.5</vdop><extensions><gom:speed>0.426</gom:speed></extensions></trkpt>
   <trkpt lat="59.3259586741" lon="34.7035911527"><ele>167.461</ele><time>2026-08-17T02:49:11.203Z</time><hdop>3.0</hdop><vdop>2.5</vdop><extensions><gom:speed>0.439</gom:speed></extensions></trkpt>
   <trkpt lat="59.3259649605" lon="34.7035787475"><ele>167.337</ele><time>2026-08-17T02:49:12.225Z</time><hdop>3.0</hdop><vdop>2.5</vdop><extensions><gom:speed>0.436</gom:speed></extensions></trkpt>
   <trkpt lat="59.3259711631" lon="34.7035671804"><ele>167.269</ele><time>2026-08-17T02:49:13.065Z</time><hdop>3.0</hdop><vdop>2.5</vdop><extensions><gom:speed>0.405</gom:speed></extensions></trkpt>
   <trkpt lat="59.3259711631" lon="34.7035664261"><ele>167.283</ele><time>2026-08-17T02:49:13.652Z</time><hdop>3.0</hdop><vdop>2.5</vdop><extensions><gom:speed>0.256</gom:speed></extensions></trkpt>
   <trkpt lat="59.3259800899" lon="34.7035536856"><ele>167.292</ele><time>2026-08-17T02:49:14.583Z</time><hdop>3.0</hdop><vdop>2.5</vdop><extensions><gom:speed>0.373</gom:speed></extensions></trkpt>
   <trkpt lat="59.3259858734" lon="34.703546058"><ele>167.35</ele><time>2026-08-17T02:49:15.503Z</time><hdop>3.0</hdop><vdop>2.5</vdop><extensions><gom:speed>0.357</gom:speed></extensions></trkpt>
   <trkpt lat="59.3259932914" lon="34.7035384305"><ele>167.439</ele><time>2026-08-17T02:49:16.363Z</time><hdop>3.0</hdop><vdop>2.5</vdop><extensions><gom:speed>0.382</gom:speed></extensions></trkpt>
   <trkpt lat="59.3260023857" lon="34.7035334852"><ele>167.784</ele><time>2026-08-17T02:49:17.426Z</time><hdop>3.0</hdop><vdop>2.5</vdop><extensions><gom:speed>0.48</gom:speed></extensions></trkpt>
   <trkpt lat="59.3260123602" lon="34.7035310544"><ele>168.049</ele><time>2026-08-17T02:49:18.619Z</time><hdop>3.0</hdop><vdop>2.5</vdop><extensions><gom:speed>0.46</gom:speed></extensions></trkpt>
   <trkpt lat="59.326019862" lon="34.7035296295"><ele>168.053</ele><time>2026-08-17T02:49:19.085Z</time><hdop>3.0</hdop><vdop>2.5</vdop><extensions><gom:speed>0.434</gom:speed></extensions></trkpt>
   <trkpt lat="59.3260282858" lon="34.7035277855"><ele>167.939</ele><time>2026-08-17T02:49:19.647Z</time><hdop>3.0</hdop><vdop>2.5</vdop><extensions><gom:speed>0.533</gom:speed></extensions></trkpt>
   <trkpt lat="59.3260291659" lon="34.7035311382"><ele>167.9</ele><time>2026-08-17T02:49:20.652Z</time><hdop>3.0</hdop><vdop>2.562</vdop><extensions><gom:speed>0.237</gom:speed></extensions></trkpt>
   <trkpt lat="59.3260390985" lon="34.7035307192"><ele>167.877</ele><time>2026-08-17T02:49:21.463Z</time><hdop>3.0</hdop><vdop>2.562</vdop><extensions><gom:speed>0.352</gom:speed></extensions></trkpt>
   <trkpt lat="59.3260473965" lon="34.7035296295"><ele>167.687</ele><time>2026-08-17T02:49:22.343Z</time><hdop>3.0</hdop><vdop>2.5</vdop><extensions><gom:speed>0.368</gom:speed></extensions></trkpt>
   <trkpt lat="59.3260569938" lon="34.7035273664"><ele>167.415</ele><time>2026-08-17T02:49:23.162Z</time><hdop>3.0</hdop><vdop>2.5</vdop><extensions><gom:speed>0.445</gom:speed></extensions></trkpt>
   <trkpt lat="59.3260579997" lon="34.7035278693"><ele>167.103</ele><time>2026-08-17T02:49:23.658Z</time><hdop>3.0</hdop><vdop>2.5</vdop><extensions><gom:speed>0.343</gom:speed></extensions></trkpt>
   <trkpt lat="59.3260678903" lon="34.7035257738"><ele>166.916</ele><time>2026-08-17T02:49:24.488Z</time><hdop>3.0</hdop><vdop>2.5</vdop><extensions><gom:speed>0.451</gom:speed></extensions></trkpt>
   <trkpt lat="59.3260769847" lon="34.7035250195"><ele>166.781</ele><time>2026-08-17T02:49:25.327Z</time><hdop>3.0</hdop><vdop>2.5</vdop><extensions><gom:speed>0.453</gom:speed></extensions></trkpt>
   <trkpt lat="59.3260847798" lon="34.7035240974"><ele>166.662</ele><time>2026-08-17T02:49:26.005Z</time><hdop>3.0</hdop><vdop>2.5</vdop><extensions><gom:speed>0.471</gom:speed></extensions></trkpt>
   <trkpt lat="59.3260862886" lon="34.7035230916"><ele>166.548</ele><time>2026-08-17T02:49:26.652Z</time><hdop>3.0</hdop><vdop>2.5</vdop><extensions><gom:speed>0.386</gom:speed></extensions></trkpt>
   <trkpt lat="59.3260978975" lon="34.7035170566"><ele>166.479</ele><time>2026-08-17T02:49:27.321Z</time><hdop>3.0</hdop><vdop>2.5</vdop><extensions><gom:speed>0.513</gom:speed></extensions></trkpt>
   <trkpt lat="59.3261062794" lon="34.7035078366"><ele>166.493</ele><time>2026-08-17T02:49:28.120Z</time><hdop>3.0</hdop><vdop>2.5</vdop><extensions><gom:speed>0.468</gom:speed></extensions></trkpt>
   <trkpt lat="59.3261074948" lon="34.703507166"><ele>166.59</ele><time>2026-08-17T02:49:28.656Z</time><hdop>3.0</hdop><vdop>2.5</vdop><extensions><gom:speed>0.34</gom:speed></extensions></trkpt>
   <trkpt lat="59.3261145775" lon="34.7034944255"><ele>166.648</ele><time>2026-08-17T02:49:29.223Z</time><hdop>3.0</hdop><vdop>2.5</vdop><extensions><gom:speed>0.425</gom:speed></extensions></trkpt>
   <trkpt lat="59.3261180979" lon="34.7034850378"><ele>166.509</ele><time>2026-08-17T02:49:29.709Z</time><hdop>3.0</hdop><vdop>2.5</vdop><extensions><gom:speed>0.373</gom:speed></extensions></trkpt>
   <trkpt lat="59.3261202772" lon="34.7034810983"><ele>166.426</ele><time>2026-08-17T02:49:30.488Z</time><hdop>3.0</hdop><vdop>2.5</vdop><extensions><gom:speed>0.39</gom:speed></extensions></trkpt>
   <trkpt lat="59.3261250968" lon="34.7034695313"><ele>166.194</ele><time>2026-08-17T02:49:31.327Z</time><hdop>3.0</hdop><vdop>2.5</vdop><extensions><gom:speed>0.357</gom:speed></extensions></trkpt>
   <trkpt lat="59.3261279885" lon="34.7034604788"><ele>165.898</ele><time>2026-08-17T02:49:32.045Z</time><hdop>3.0</hdop><vdop>2.5</vdop><extensions><gom:speed>0.357</gom:speed></extensions></trkpt>
   <trkpt lat="59.3261286591" lon="34.7034600597"><ele>165.61</ele><time>2026-08-17T02:49:32.652Z</time><hdop>3.0</hdop><vdop>2.5</vdop><extensions><gom:speed>0.259</gom:speed></extensions></trkpt>
   <trkpt lat="59.3261313832" lon="34.7034501691"><ele>165.382</ele><time>2026-08-17T02:49:33.652Z</time><hdop>3.0</hdop><vdop>2.5</vdop><extensions><gom:speed>0.247</gom:speed></extensions></trkpt>
   <trkpt lat="59.3261371667" lon="34.7034331538"><ele>165.394</ele><time>2026-08-17T02:49:34.647Z</time><hdop>3.0</hdop><vdop>2.5</vdop><extensions><gom:speed>0.422</gom:speed></extensions></trkpt>
   <trkpt lat="59.3261384659" lon="34.703432148"><ele>165.366</ele><time>2026-08-17T02:49:35.657Z</time><hdop>3.0</hdop><vdop>2.5</vdop><extensions><gom:speed>0.293</gom:speed></extensions></trkpt>
   <trkpt lat="59.3261447943" lon="34.7034202457"><ele>165.349</ele><time>2026-08-17T02:49:36.659Z</time><hdop>3.0</hdop><vdop>2.5</vdop><extensions><gom:speed>0.408</gom:speed></extensions></trkpt>
   <trkpt lat="59.3261500749" lon="34.7034100197"><ele>165.297</ele><time>2026-08-17T02:49:37.539Z</time><hdop>3.0</hdop><vdop>2.5</vdop><extensions><gom:speed>0.455</gom:speed></extensions></trkpt>
   <trkpt lat="59.3261543915" lon="34.7034020569"><ele>165.235</ele><time>2026-08-17T02:49:38.440Z</time><hdop>3.0</hdop><vdop>2.5</vdop><extensions><gom:speed>0.459</gom:speed></extensions></trkpt>
   <trkpt lat="59.3261584987" lon="34.7033924177"><ele>165.269</ele><time>2026-08-17T02:49:39.320Z</time><hdop>3.0</hdop><vdop>2.5</vdop><extensions><gom:speed>0.487</gom:speed></extensions></trkpt>
   <trkpt lat="59.326160678" lon="34.7033837844"><ele>165.075</ele><time>2026-08-17T02:49:39.968Z</time><hdop>3.0</hdop><vdop>2.5</vdop><extensions><gom:speed>0.458</gom:speed></extensions></trkpt>
   <trkpt lat="59.3261611809" lon="34.7033822756"><ele>164.848</ele><time>2026-08-17T02:49:40.652Z</time><hdop>3.0</hdop><vdop>2.5</vdop><extensions><gom:speed>0.335</gom:speed></extensions></trkpt>
   <trkpt lat="59.326165288" lon="34.7033709601"><ele>164.712</ele><time>2026-08-17T02:49:41.526Z</time><hdop>3.0</hdop><vdop>2.5</vdop><extensions><gom:speed>0.392</gom:speed></extensions></trkpt>
   <trkpt lat="59.3261681798" lon="34.7033621591"><ele>164.607</ele><time>2026-08-17T02:49:42.244Z</time><hdop>3.0</hdop><vdop>2.5</vdop><extensions><gom:speed>0.385</gom:speed></extensions></trkpt>
   <trkpt lat="59.3261709877" lon="34.7033540286"><ele>164.448</ele><time>2026-08-17T02:49:43.064Z</time><hdop>3.0</hdop><vdop>2.5</vdop><extensions><gom:speed>0.35</gom:speed></extensions></trkpt>
   <trkpt lat="59.326170862" lon="34.7033539448"><ele>164.343</ele><time>2026-08-17T02:49:43.652Z</time><hdop>3.0</hdop><vdop>2.5</vdop><extensions><gom:speed>0.214</gom:speed></extensions></trkpt>
   <trkpt lat="59.3261729994" lon="34.7033476584"><ele>164.273</ele><time>2026-08-17T02:49:44.662Z</time><hdop>3.0</hdop><vdop>2.5</vdop><extensions><gom:speed>0.155</gom:speed></extensions></trkpt>
   <trkpt lat="59.3261783638" lon="34.7033381868"><ele>164.23</ele><time>2026-08-17T02:49:45.564Z</time><hdop>3.0</hdop><vdop>2.5</vdop><extensions><gom:speed>0.244</gom:speed></extensions></trkpt>
   <trkpt lat="59.3261826805" lon="34.7033306431"><ele>164.308</ele><time>2026-08-17T02:49:46.180Z</time><hdop>3.0</hdop><vdop>2.5</vdop><extensions><gom:speed>0.239</gom:speed></extensions></trkpt>
   <trkpt lat="59.3261894698" lon="34.7033208363"><ele>164.351</ele><time>2026-08-17T02:49:46.647Z</time><hdop>3.0</hdop><vdop>2.5</vdop><extensions><gom:speed>0.37</gom:speed></extensions></trkpt>
   <trkpt lat="59.3261947923" lon="34.703305246"><ele>164.299</ele><time>2026-08-17T02:49:47.647Z</time><hdop>3.0</hdop><vdop>2.5</vdop><extensions><gom:speed>0.473</gom:speed></extensions></trkpt>
   <trkpt lat="59.3261951695" lon="34.7032999654"><ele>164.267</ele><time>2026-08-17T02:49:48.507Z</time><hdop>3.0</hdop><vdop>2.5</vdop><extensions><gom:speed>0.365</gom:speed></extensions></trkpt>
   <trkpt lat="59.3261992766" lon="34.7032837883"><ele>164.414</ele><time>2026-08-17T02:49:49.326Z</time><hdop>3.0</hdop><vdop>2.5</vdop><extensions><gom:speed>0.449</gom:speed></extensions></trkpt>
   <trkpt lat="59.3262015817" lon="34.7032677788"><ele>164.031</ele><time>2026-08-17T02:49:50.085Z</time><hdop>3.0</hdop><vdop>2.875</vdop><extensions><gom:speed>0.575</gom:speed></extensions></trkpt>
   <trkpt lat="59.3262022941" lon="34.7032619953"><ele>163.803</ele><time>2026-08-17T02:49:50.601Z</time><hdop>3.0</hdop><vdop>2.875</vdop><extensions><gom:speed>0.577</gom:speed></extensions></trkpt>
   <trkpt lat="59.3262028808" lon="34.7032434713"><ele>163.743</ele><time>2026-08-17T02:49:51.481Z</time><hdop>3.0</hdop><vdop>3.437</vdop><extensions><gom:speed>0.632</gom:speed></extensions></trkpt>
   <trkpt lat="59.326204683" lon="34.7032258693"><ele>163.662</ele><time>2026-08-17T02:49:52.523Z</time><hdop>3.0</hdop><vdop>3.687</vdop><extensions><gom:speed>0.609</gom:speed></extensions></trkpt>
   <trkpt lat="59.3262075747" lon="34.7032132965"><ele>163.607</ele><time>2026-08-17T02:49:53.343Z</time><hdop>3.0</hdop><vdop>3.5</vdop><extensions><gom:speed>0.587</gom:speed></extensions></trkpt>
   <trkpt lat="59.3262113885" lon="34.7031998854"><ele>163.518</ele><time>2026-08-17T02:49:54.163Z</time><hdop>3.0</hdop><vdop>3.625</vdop><extensions><gom:speed>0.609</gom:speed></extensions></trkpt>
   <trkpt lat="59.3262127715" lon="34.7031964489"><ele>163.572</ele><time>2026-08-17T02:49:54.652Z</time><hdop>3.0</hdop><vdop>3.75</vdop><extensions><gom:speed>0.582</gom:speed></extensions></trkpt>
   <trkpt lat="59.3262184712" lon="34.7031901624"><ele>163.605</ele><time>2026-08-17T02:49:55.225Z</time><hdop>3.0</hdop><vdop>3.75</vdop><extensions><gom:speed>0.641</gom:speed></extensions></trkpt>
   <trkpt lat="59.3262287809" lon="34.7031841275"><ele>163.87</ele><time>2026-08-17T02:49:56.440Z</time><hdop>3.0</hdop><vdop>3.312</vdop><extensions><gom:speed>0.655</gom:speed></extensions></trkpt>
   <trkpt lat="59.3262372886" lon="34.7031794336"><ele>164.137</ele><time>2026-08-17T02:49:57.228Z</time><hdop>3.0</hdop><vdop>3.25</vdop><extensions><gom:speed>0.727</gom:speed></extensions></trkpt>
   <trkpt lat="59.3262452933" lon="34.7031749912"><ele>164.501</ele><time>2026-08-17T02:49:58.027Z</time><hdop>3.0</hdop><vdop>2.812</vdop><extensions><gom:speed>0.718</gom:speed></extensions></trkpt>
   <trkpt lat="59.3262501967" lon="34.7031710517"><ele>164.733</ele><time>2026-08-17T02:49:58.665Z</time><hdop>3.0</hdop><vdop>2.812</vdop><extensions><gom:speed>0.707</gom:speed></extensions></trkpt>
   <trkpt lat="59.3262579919" lon="34.7031650167"><ele>164.871</ele><time>2026-08-17T02:49:59.525Z</time><hdop>3.0</hdop><vdop>2.812</vdop><extensions><gom:speed>0.714</gom:speed></extensions></trkpt>
   <trkpt lat="59.3262646974" lon="34.7031567186"><ele>164.772</ele><time>2026-08-17T02:50:00.223Z</time><hdop>3.0</hdop><vdop>2.687</vdop><extensions><gom:speed>0.773</gom:speed></extensions></trkpt>
   <trkpt lat="59.3262688883" lon="34.7031499293"><ele>164.686</ele><time>2026-08-17T02:50:00.790Z</time><hdop>3.0</hdop><vdop>2.625</vdop><extensions><gom:speed>0.804</gom:speed></extensions></trkpt>
   <trkpt lat="59.3262733727" lon="34.7031385299"><ele>164.635</ele><time>2026-08-17T02:50:01.681Z</time><hdop>3.0</hdop><vdop>2.625</vdop><extensions><gom:speed>0.796</gom:speed></extensions></trkpt>
   <trkpt lat="59.3262763901" lon="34.7031291422"><ele>164.463</ele><time>2026-08-17T02:50:02.429Z</time><hdop>3.0</hdop><vdop>2.5</vdop><extensions><gom:speed>0.782</gom:speed></extensions></trkpt>
   <trkpt lat="59.3262792819" lon="34.7031187486"><ele>164.362</ele><time>2026-08-17T02:50:03.268Z</time><hdop>3.0</hdop><vdop>2.5</vdop><extensions><gom:speed>0.805</gom:speed></extensions></trkpt>
   <trkpt lat="59.3262817965" lon="34.703111624"><ele>164.396</ele><time>2026-08-17T02:50:03.966Z</time><hdop>3.0</hdop><vdop>2.5</vdop><extensions><gom:speed>0.728</gom:speed></extensions></trkpt>
   <trkpt lat="59.326282467" lon="34.7031016495"><ele>164.416</ele><time>2026-08-17T02:50:04.604Z</time><hdop>3.0</hdop><vdop>2.5</vdop><extensions><gom:speed>0.743</gom:speed></extensions></trkpt>
   <trkpt lat="59.3262813774" lon="34.7031021524"><ele>163.716</ele><time>2026-08-17T02:50:05.647Z</time><hdop>3.0</hdop><vdop>2.5</vdop><extensions><gom:speed>0.439</gom:speed></extensions></trkpt>
   <trkpt lat="59.3262812936" lon="34.7030997217"><ele>163.298</ele><time>2026-08-17T02:50:06.354Z</time><hdop>3.0</hdop><vdop>2.5</vdop><extensions><gom:speed>0.346</gom:speed></extensions></trkpt>
   <trkpt lat="59.3262804973" lon="34.7031101991"><ele>163.049</ele><time>2026-08-17T02:50:07.647Z</time><hdop>3.0</hdop><vdop>2.5</vdop><extensions><gom:speed>0.125</gom:speed></extensions></trkpt>
   <trkpt lat="59.3262806649" lon="34.7031131327"><ele>162.898</ele><time>2026-08-17T02:50:08.647Z</time><hdop>3.0</hdop><vdop>2.5</vdop><extensions><gom:speed>0.102</gom:speed></extensions></trkpt>
   <trkpt lat="59.326280162" lon="34.7031131327"><ele>162.807</ele><time>2026-08-17T02:50:09.652Z</time><hdop>3.0</hdop><vdop>2.5</vdop><extensions><gom:speed>0.021</gom:speed></extensions></trkpt>
   <trkpt lat="59.3262794914" lon="34.7031132166"><ele>162.752</ele><time>2026-08-17T02:50:10.652Z</time><hdop>3.0</hdop><vdop>2.5</vdop><extensions><gom:speed>0.015</gom:speed></extensions></trkpt>
   <trkpt lat="59.3262786952" lon="34.7031139709"><ele>162.718</ele><time>2026-08-17T02:50:11.652Z</time><hdop>3.0</hdop><vdop>2.5</vdop><extensions><gom:speed>0.013</gom:speed></extensions></trkpt>
   <trkpt lat="59.3262774798" lon="34.7031137195"><ele>162.697</ele><time>2026-08-17T02:50:12.647Z</time><hdop>3.0</hdop><vdop>2.5</vdop><extensions><gom:speed>0.087</gom:speed></extensions></trkpt>
   <trkpt lat="59.3262775636" lon="34.7031126298"><ele>162.684</ele><time>2026-08-17T02:50:13.652Z</time><hdop>3.0</hdop><vdop>2.5</vdop><extensions><gom:speed>0.011</gom:speed></extensions></trkpt>
   <trkpt lat="59.3262770607" lon="34.7031124622"><ele>162.675</ele><time>2026-08-17T02:50:14.651Z</time><hdop>3.0</hdop><vdop>2.5</vdop><extensions><gom:speed>0.103</gom:speed></extensions></trkpt>
   <trkpt lat="59.3262761806" lon="34.703116234"><ele>162.67</ele><time>2026-08-17T02:50:15.662Z</time><hdop>3.0</hdop><vdop>2.5</vdop><extensions><gom:speed>0.015</gom:speed></extensions></trkpt>
   <trkpt lat="59.326275971" lon="34.703117659"><ele>162.664</ele><time>2026-08-17T02:50:16.652Z</time><hdop>3.0</hdop><vdop>2.5</vdop><extensions><gom:speed>0.011</gom:speed></extensions></trkpt>
   <trkpt lat="59.3262761806" lon="34.703117156"><ele>162.661</ele><time>2026-08-17T02:50:17.483Z</time><hdop>3.0</hdop><vdop>2.5</vdop><extensions><gom:speed>0.101</gom:speed></extensions></trkpt>
   <trkpt lat="59.3262761806" lon="34.7031155635"><ele>162.657</ele><time>2026-08-17T02:50:18.652Z</time><hdop>3.0</hdop><vdop>2.5</vdop><extensions><gom:speed>0.022</gom:speed></extensions></trkpt>
   <trkpt lat="59.3262760968" lon="34.7031128813"><ele>162.655</ele><time>2026-08-17T02:50:19.652Z</time><hdop>3.0</hdop><vdop>2.5</vdop><extensions><gom:speed>0.034</gom:speed></extensions></trkpt>
   <trkpt lat="59.326275971" lon="34.7031147253"><ele>162.714</ele><time>2026-08-17T02:50:20.652Z</time><hdop>3.0</hdop><vdop>2.5</vdop><extensions><gom:speed>0.031</gom:speed></extensions></trkpt>
   <trkpt lat="59.3262758872" lon="34.7031133842"><ele>162.754</ele><time>2026-08-17T02:50:21.647Z</time><hdop>3.0</hdop><vdop>2.5</vdop><extensions><gom:speed>0.097</gom:speed></extensions></trkpt>
   <trkpt lat="59.3262758872" lon="34.7031148929"><ele>162.78</ele><time>2026-08-17T02:50:22.652Z</time><hdop>3.0</hdop><vdop>2.5</vdop><extensions><gom:speed>0.027</gom:speed></extensions></trkpt>
   <trkpt lat="59.3262760968" lon="34.7031107858"><ele>162.797</ele><time>2026-08-17T02:50:23.655Z</time><hdop>3.0</hdop><vdop>2.5</vdop><extensions><gom:speed>0.031</gom:speed></extensions></trkpt>
   <trkpt lat="59.3262758872" lon="34.7031106182"><ele>162.808</ele><time>2026-08-17T02:50:24.647Z</time><hdop>3.0</hdop><vdop>2.5</vdop><extensions><gom:speed>0.0</gom:speed></extensions></trkpt>
   <trkpt lat="59.3262758872" lon="34.7031105343"><ele>162.814</ele><time>2026-08-17T02:50:25.652Z</time><hdop>3.0</hdop><vdop>2.5</vdop><extensions><gom:speed>0.002</gom:speed></extensions></trkpt>
   <trkpt lat="59.3262757615" lon="34.7031104505"><ele>162.817</ele><time>2026-08-17T02:50:26.647Z</time><hdop>3.0</hdop><vdop>2.5</vdop><extensions><gom:speed>0.025</gom:speed></extensions></trkpt>
   <trkpt lat="59.3262757615" lon="34.7031102829"><ele>162.819</ele><time>2026-08-17T02:50:27.647Z</time><hdop>3.0</hdop><vdop>2.5</vdop><extensions><gom:speed>0.032</gom:speed></extensions></trkpt>
   <trkpt lat="59.3262758872" lon="34.7031096962"><ele>162.819</ele><time>2026-08-17T02:50:28.653Z</time><hdop>3.0</hdop><vdop>2.5</vdop><extensions><gom:speed>0.032</gom:speed></extensions></trkpt>
   <trkpt lat="59.3262758872" lon="34.7031095285"><ele>162.819</ele><time>2026-08-17T02:50:29.647Z</time><hdop>3.0</hdop><vdop>2.5</vdop><extensions><gom:speed>0.047</gom:speed></extensions></trkpt>
   <trkpt lat="59.326275971" lon="34.703108858"><ele>162.82</ele><time>2026-08-17T02:50:30.652Z</time><hdop>3.0</hdop><vdop>2.5</vdop><extensions><gom:speed>0.048</gom:speed></extensions></trkpt>
   <trkpt lat="59.326275971" lon="34.7031083551"><ele>162.82</ele><time>2026-08-17T02:50:31.648Z</time><hdop>3.0</hdop><vdop>2.5</vdop><extensions><gom:speed>0.051</gom:speed></extensions></trkpt>
   <trkpt lat="59.326275971" lon="34.7031077683"><ele>162.821</ele><time>2026-08-17T02:50:32.660Z</time><hdop>3.0</hdop><vdop>2.5</vdop><extensions><gom:speed>0.054</gom:speed></extensions></trkpt>
   <trkpt lat="59.326275971" lon="34.703107433"><ele>162.821</ele><time>2026-08-17T02:50:33.647Z</time><hdop>3.0</hdop><vdop>2.5</vdop><extensions><gom:speed>0.06</gom:speed></extensions></trkpt>
   <trkpt lat="59.326275971" lon="34.7031070978"><ele>162.822</ele><time>2026-08-17T02:50:34.178Z</time><hdop>3.0</hdop><vdop>2.5</vdop><extensions><gom:speed>0.06</gom:speed></extensions></trkpt>
   <trkpt lat="59.3262760968" lon="34.7031067625"><ele>162.825</ele><time>2026-08-17T02:50:34.653Z</time><hdop>3.0</hdop><vdop>2.5</vdop><extensions><gom:speed>0.06</gom:speed></extensions></trkpt>
   <trkpt lat="59.326275971" lon="34.7031062596"><ele>162.828</ele><time>2026-08-17T02:50:35.653Z</time><hdop>3.0</hdop><vdop>2.5</vdop><extensions><gom:speed>0.062</gom:speed></extensions></trkpt>
   <trkpt lat="59.3262758872" lon="34.7031060919"><ele>162.832</ele><time>2026-08-17T02:50:36.648Z</time><hdop>3.0</hdop><vdop>2.5</vdop><extensions><gom:speed>0.066</gom:speed></extensions></trkpt>
   <trkpt lat="59.3262758872" lon="34.7031052537"><ele>162.836</ele><time>2026-08-17T02:50:37.652Z</time><hdop>3.0</hdop><vdop>2.5</vdop><extensions><gom:speed>0.067</gom:speed></extensions></trkpt>
   <trkpt lat="59.3262757615" lon="34.7031052537"><ele>162.839</ele><time>2026-08-17T02:50:38.648Z</time><hdop>3.0</hdop><vdop>2.562</vdop><extensions><gom:speed>0.067</gom:speed></extensions></trkpt>
   <trkpt lat="59.3262757615" lon="34.7031049185"><ele>162.841</ele><time>2026-08-17T02:50:39.647Z</time><hdop>3.0</hdop><vdop>2.562</vdop><extensions><gom:speed>0.067</gom:speed></extensions></trkpt>
   <trkpt lat="59.3262757615" lon="34.7031042479"><ele>162.841</ele><time>2026-08-17T02:50:40.653Z</time><hdop>3.0</hdop><vdop>2.625</vdop><extensions><gom:speed>0.067</gom:speed></extensions></trkpt>
   <trkpt lat="59.3262756777" lon="34.7031043317"><ele>162.841</ele><time>2026-08-17T02:50:41.647Z</time><hdop>3.0</hdop><vdop>2.625</vdop><extensions><gom:speed>0.072</gom:speed></extensions></trkpt>
   <trkpt lat="59.3262755939" lon="34.7031040803"><ele>162.841</ele><time>2026-08-17T02:50:42.646Z</time><hdop>3.0</hdop><vdop>2.687</vdop><extensions><gom:speed>0.071</gom:speed></extensions></trkpt>
   <trkpt lat="59.3262754681" lon="34.7031038288"><ele>162.843</ele><time>2026-08-17T02:50:43.646Z</time><hdop>3.0</hdop><vdop>2.75</vdop><extensions><gom:speed>0.068</gom:speed></extensions></trkpt>
   <trkpt lat="59.3262754681" lon="34.7031033259"><ele>162.845</ele><time>2026-08-17T02:50:44.652Z</time><hdop>3.0</hdop><vdop>2.75</vdop><extensions><gom:speed>0.069</gom:speed></extensions></trkpt>
   <trkpt lat="59.3262753843" lon="34.7031036612"><ele>162.848</ele><time>2026-08-17T02:50:45.647Z</time><hdop>3.0</hdop><vdop>2.75</vdop><extensions><gom:speed>0.068</gom:speed></extensions></trkpt>
   <trkpt lat="59.3262753843" lon="34.7031031583"><ele>162.85</ele><time>2026-08-17T02:50:46.652Z</time><hdop>3.0</hdop><vdop>2.812</vdop><extensions><gom:speed>0.069</gom:speed></extensions></trkpt>
   <trkpt lat="59.3262753843" lon="34.7031032421"><ele>162.852</ele><time>2026-08-17T02:50:47.654Z</time><hdop>3.0</hdop><vdop>2.75</vdop><extensions><gom:speed>0.064</gom:speed></extensions></trkpt>
   <trkpt lat="59.3262753843" lon="34.7031032421"><ele>162.854</ele><time>2026-08-17T02:50:48.666Z</time><hdop>3.0</hdop><vdop>2.75</vdop><extensions><gom:speed>0.065</gom:speed></extensions></trkpt>
   <trkpt lat="59.3262752586" lon="34.7031031583"><ele>162.854</ele><time>2026-08-17T02:50:49.653Z</time><hdop>3.0</hdop><vdop>2.75</vdop><extensions><gom:speed>0.065</gom:speed></extensions></trkpt>
   <trkpt lat="59.3262752586" lon="34.7031035774"><ele>162.854</ele><time>2026-08-17T02:50:50.647Z</time><hdop>3.0</hdop><vdop>2.812</vdop><extensions><gom:speed>0.063</gom:speed></extensions></trkpt>
   <trkpt lat="59.3262752586" lon="34.7031031583"><ele>162.853</ele><time>2026-08-17T02:50:51.652Z</time><hdop>3.0</hdop><vdop>2.75</vdop><extensions><gom:speed>0.063</gom:speed></extensions></trkpt>
   <trkpt lat="59.3262751748" lon="34.7031030745"><ele>162.853</ele><time>2026-08-17T02:50:52.652Z</time><hdop>3.0</hdop><vdop>2.812</vdop><extensions><gom:speed>0.066</gom:speed></extensions></trkpt>
   <trkpt lat="59.3262750909" lon="34.7031033259"><ele>162.851</ele><time>2026-08-17T02:50:53.647Z</time><hdop>3.0</hdop><vdop>2.812</vdop><extensions><gom:speed>0.069</gom:speed></extensions></trkpt>
   <trkpt lat="59.3262750909" lon="34.703102823"><ele>162.849</ele><time>2026-08-17T02:50:54.652Z</time><hdop>3.0</hdop><vdop>2.812</vdop><extensions><gom:speed>0.069</gom:speed></extensions></trkpt>
   <trkpt lat="59.3262751748" lon="34.7031030745"><ele>162.848</ele><time>2026-08-17T02:50:55.652Z</time><hdop>3.0</hdop><vdop>2.812</vdop><extensions><gom:speed>0.065</gom:speed></extensions></trkpt>
   <trkpt lat="59.3262750909" lon="34.703102823"><ele>162.85</ele><time>2026-08-17T02:50:56.652Z</time><hdop>3.0</hdop><vdop>2.687</vdop><extensions><gom:speed>0.065</gom:speed></extensions></trkpt>
   <trkpt lat="59.3262749652" lon="34.7031030745"><ele>162.853</ele><time>2026-08-17T02:50:57.647Z</time><hdop>3.0</hdop><vdop>2.687</vdop><extensions><gom:speed>0.069</gom:speed></extensions></trkpt>
   <trkpt lat="59.3262748814" lon="34.7031029906"><ele>162.855</ele><time>2026-08-17T02:50:58.647Z</time><hdop>3.0</hdop><vdop>2.687</vdop><extensions><gom:speed>0.072</gom:speed></extensions></trkpt>
   <trkpt lat="59.3262748814" lon="34.7031025715"><ele>162.856</ele><time>2026-08-17T02:50:59.654Z</time><hdop>3.0</hdop><vdop>2.562</vdop><extensions><gom:speed>0.072</gom:speed></extensions></trkpt>
   <trkpt lat="59.3262747976" lon="34.7031025715"><ele>162.855</ele><time>2026-08-17T02:51:00.652Z</time><hdop>3.0</hdop><vdop>2.5</vdop><extensions><gom:speed>0.072</gom:speed></extensions></trkpt>
   <trkpt lat="59.3262747976" lon="34.7031023201"><ele>162.853</ele><time>2026-08-17T02:51:01.657Z</time><hdop>3.0</hdop><vdop>2.5</vdop><extensions><gom:speed>0.073</gom:speed></extensions></trkpt>
   <trkpt lat="59.3262747976" lon="34.7031025715"><ele>162.853</ele><time>2026-08-17T02:51:02.652Z</time><hdop>3.0</hdop><vdop>2.5</vdop><extensions><gom:speed>0.072</gom:speed></extensions></trkpt>
   <trkpt lat="59.3262747976" lon="34.7031023201"><ele>162.851</ele><time>2026-08-17T02:51:03.652Z</time><hdop>3.0</hdop><vdop>2.5</vdop><extensions><gom:speed>0.072</gom:speed></extensions></trkpt>
   <trkpt lat="59.3262747976" lon="34.7031021524"><ele>162.853</ele><time>2026-08-17T02:51:04.652Z</time><hdop>3.0</hdop><vdop>2.5</vdop><extensions><gom:speed>0.071</gom:speed></extensions></trkpt>
   <trkpt lat="59.3262747976" lon="34.7031019848"><ele>162.855</ele><time>2026-08-17T02:51:05.652Z</time><hdop>3.0</hdop><vdop>2.5</vdop><extensions><gom:speed>0.069</gom:speed></extensions></trkpt>
   <trkpt lat="59.3262747976" lon="34.7031019848"><ele>162.855</ele><time>2026-08-17T02:51:06.655Z</time><hdop>3.0</hdop><vdop>2.5</vdop><extensions><gom:speed>0.067</gom:speed></extensions></trkpt>
   <trkpt lat="59.3262747976" lon="34.7031021524"><ele>162.853</ele><time>2026-08-17T02:51:07.647Z</time><hdop>3.0</hdop><vdop>2.5</vdop><extensions><gom:speed>0.067</gom:speed></extensions></trkpt>
   <trkpt lat="59.3262746719" lon="34.7031017333"><ele>162.851</ele><time>2026-08-17T02:51:08.652Z</time><hdop>3.0</hdop><vdop>2.5</vdop><extensions><gom:speed>0.067</gom:speed></extensions></trkpt>
   <trkpt lat="59.3262746719" lon="34.7031023201"><ele>162.857</ele><time>2026-08-17T02:51:09.646Z</time><hdop>3.0</hdop><vdop>2.5</vdop><extensions><gom:speed>0.069</gom:speed></extensions></trkpt>
   <trkpt lat="59.3262746719" lon="34.7031021524"><ele>162.495</ele><time>2026-08-17T02:51:10.652Z</time><hdop>3.0</hdop><vdop>2.5</vdop><extensions><gom:speed>0.069</gom:speed></extensions></trkpt>
   <trkpt lat="59.326273666" lon="34.7031021524"><ele>162.276</ele><time>2026-08-17T02:51:11.647Z</time><hdop>3.0</hdop><vdop>2.5</vdop><extensions><gom:speed>0.084</gom:speed></extensions></trkpt>
   <trkpt lat="59.3262734984" lon="34.7031019848"><ele>162.148</ele><time>2026-08-17T02:51:12.652Z</time><hdop>3.0</hdop><vdop>2.5</vdop><extensions><gom:speed>0.084</gom:speed></extensions></trkpt>
   <trkpt lat="59.3262723668" lon="34.7031021524"><ele>162.072</ele><time>2026-08-17T02:51:13.656Z</time><hdop>3.0</hdop><vdop>2.5</vdop><extensions><gom:speed>0.084</gom:speed></extensions></trkpt>
   <trkpt lat="59.3262717801" lon="34.7031026554"><ele>162.028</ele><time>2026-08-17T02:51:14.647Z</time><hdop>3.0</hdop><vdop>2.5</vdop><extensions><gom:speed>0.072</gom:speed></extensions></trkpt>
   <trkpt lat="59.3262715705" lon="34.7031025715"><ele>162.005</ele><time>2026-08-17T02:51:15.652Z</time><hdop>3.0</hdop><vdop>2.5</vdop><extensions><gom:speed>0.072</gom:speed></extensions></trkpt>
   <trkpt lat="59.3262711934" lon="34.7031026554"><ele>161.992</ele><time>2026-08-17T02:51:16.652Z</time><hdop>3.0</hdop><vdop>2.5</vdop><extensions><gom:speed>0.068</gom:speed></extensions></trkpt>
   <trkpt lat="59.3262708581" lon="34.703102823"><ele>161.986</ele><time>2026-08-17T02:51:17.652Z</time><hdop>3.0</hdop><vdop>2.5</vdop><extensions><gom:speed>0.065</gom:speed></extensions></trkpt>
   <trkpt lat="59.3262702714" lon="34.7031030745"><ele>161.982</ele><time>2026-08-17T02:51:18.652Z</time><hdop>3.0</hdop><vdop>2.5</vdop><extensions><gom:speed>0.062</gom:speed></extensions></trkpt>
   <trkpt lat="59.3262700618" lon="34.7031031583"><ele>161.979</ele><time>2026-08-17T02:51:19.652Z</time><hdop>3.0</hdop><vdop>2.5</vdop><extensions><gom:speed>0.064</gom:speed></extensions></trkpt>
   <trkpt lat="59.3262697684" lon="34.7031030745"><ele>161.977</ele><time>2026-08-17T02:51:20.652Z</time><hdop>3.0</hdop><vdop>2.5</vdop><extensions><gom:speed>0.063</gom:speed></extensions></trkpt>
   <trkpt lat="59.3262694751" lon="34.7031031583"><ele>161.98</ele><time>2026-08-17T02:51:21.647Z</time><hdop>3.0</hdop><vdop>2.5</vdop><extensions><gom:speed>0.062</gom:speed></extensions></trkpt>
   <trkpt lat="59.3262693913" lon="34.703102823"><ele>161.981</ele><time>2026-08-17T02:51:22.661Z</time><hdop>3.0</hdop><vdop>2.5</vdop><extensions><gom:speed>0.062</gom:speed></extensions></trkpt>
   <trkpt lat="59.3262690979" lon="34.703102823"><ele>161.983</ele><time>2026-08-17T02:51:23.647Z</time><hdop>3.0</hdop><vdop>2.5</vdop><extensions><gom:speed>0.063</gom:speed></extensions></trkpt>
   <trkpt lat="59.3262689722" lon="34.7031025715"><ele>161.985</ele><time>2026-08-17T02:51:24.647Z</time><hdop>3.0</hdop><vdop>2.5</vdop><extensions><gom:speed>0.065</gom:speed></extensions></trkpt>
   <trkpt lat="59.3262687626" lon="34.7031023201"><ele>161.985</ele><time>2026-08-17T02:51:25.652Z</time><hdop>3.0</hdop><vdop>2.5</vdop><extensions><gom:speed>0.065</gom:speed></extensions></trkpt>
   <trkpt lat="59.326268595" lon="34.7031022363"><ele>161.987</ele><time>2026-08-17T02:51:26.652Z</time><hdop>3.0</hdop><vdop>2.5</vdop><extensions><gom:speed>0.066</gom:speed></extensions></trkpt>
   <trkpt lat="59.3262683854" lon="34.7031020686"><ele>161.988</ele><time>2026-08-17T02:51:27.659Z</time><hdop>3.0</hdop><vdop>2.5</vdop><extensions><gom:speed>0.067</gom:speed></extensions></trkpt>
   <trkpt lat="59.3262680921" lon="34.7031020686"><ele>161.988</ele><time>2026-08-17T02:51:28.652Z</time><hdop>3.0</hdop><vdop>2.562</vdop><extensions><gom:speed>0.124</gom:speed></extensions></trkpt>
   <trkpt lat="59.3262678825" lon="34.7031025715"><ele>161.986</ele><time>2026-08-17T02:51:29.647Z</time><hdop>3.0</hdop><vdop>2.5</vdop><extensions><gom:speed>0.087</gom:speed></extensions></trkpt>
   <trkpt lat="59.326267673" lon="34.7031022363"><ele>161.984</ele><time>2026-08-17T02:51:30.652Z</time><hdop>3.0</hdop><vdop>2.5</vdop><extensions><gom:speed>0.088</gom:speed></extensions></trkpt>
   <trkpt lat="59.3262675891" lon="34.703102823"><ele>161.982</ele><time>2026-08-17T02:51:31.647Z</time><hdop>3.0</hdop><vdop>2.5</vdop><extensions><gom:speed>0.073</gom:speed></extensions></trkpt>
   <trkpt lat="59.3262673796" lon="34.7031026554"><ele>161.982</ele><time>2026-08-17T02:51:32.658Z</time><hdop>3.0</hdop><vdop>2.5</vdop><extensions><gom:speed>0.074</gom:speed></extensions></trkpt>
   <trkpt lat="59.32626717" lon="34.7031033259"><ele>161.982</ele><time>2026-08-17T02:51:33.647Z</time><hdop>3.0</hdop><vdop>2.5</vdop><extensions><gom:speed>0.067</gom:speed></extensions></trkpt>
   <trkpt lat="59.3262668767" lon="34.7031032421"><ele>161.983</ele><time>2026-08-17T02:51:34.652Z</time><hdop>3.0</hdop><vdop>2.5</vdop><extensions><gom:speed>0.067</gom:speed></extensions></trkpt>
   <trkpt lat="59.3262667929" lon="34.7031032421"><ele>161.986</ele><time>2026-08-17T02:51:35.652Z</time><hdop>3.0</hdop><vdop>2.5</vdop><extensions><gom:speed>0.067</gom:speed></extensions></trkpt>
   <trkpt lat="59.3262666671" lon="34.7031031583"><ele>161.987</ele><time>2026-08-17T02:51:36.652Z</time><hdop>3.0</hdop><vdop>2.5</vdop><extensions><gom:speed>0.068</gom:speed></extensions></trkpt>
   <trkpt lat="59.3262666671" lon="34.7031033259"><ele>161.988</ele><time>2026-08-17T02:51:37.647Z</time><hdop>3.0</hdop><vdop>2.5</vdop><extensions><gom:speed>0.068</gom:speed></extensions></trkpt>
   <trkpt lat="59.3262664995" lon="34.7031031583"><ele>161.989</ele><time>2026-08-17T02:51:38.652Z</time><hdop>3.0</hdop><vdop>2.5</vdop><extensions><gom:speed>0.068</gom:speed></extensions></trkpt>
   <trkpt lat="59.3262663738" lon="34.7031031583"><ele>161.987</ele><time>2026-08-17T02:51:39.659Z</time><hdop>3.0</hdop><vdop>2.5</vdop><extensions><gom:speed>0.066</gom:speed></extensions></trkpt>
   <trkpt lat="59.3262661642" lon="34.7031032421"><ele>161.986</ele><time>2026-08-17T02:51:40.652Z</time><hdop>3.0</hdop><vdop>2.5</vdop><extensions><gom:speed>0.068</gom:speed></extensions></trkpt>
   <trkpt lat="59.3262661642" lon="34.7031039965"><ele>161.985</ele><time>2026-08-17T02:51:41.648Z</time><hdop>3.0</hdop><vdop>2.5</vdop><extensions><gom:speed>0.069</gom:speed></extensions></trkpt>
   <trkpt lat="59.3262659966" lon="34.7031038288"><ele>161.986</ele><time>2026-08-17T02:51:42.653Z</time><hdop>3.0</hdop><vdop>2.5</vdop><extensions><gom:speed>0.069</gom:speed></extensions></trkpt>
   <trkpt lat="59.3262656613" lon="34.7031039965"><ele>162.161</ele><time>2026-08-17T02:51:43.652Z</time><hdop>3.0</hdop><vdop>2.5</vdop><extensions><gom:speed>0.121</gom:speed></extensions></trkpt>
   <trkpt lat="59.3262652841" lon="34.7031039965"><ele>162.266</ele><time>2026-08-17T02:51:44.505Z</time><hdop>3.0</hdop><vdop>2.5</vdop><extensions><gom:speed>0.323</gom:speed></extensions></trkpt>
   <trkpt lat="59.3262656613" lon="34.7030975424"><ele>162.339</ele><time>2026-08-17T02:51:45.647Z</time><hdop>3.0</hdop><vdop>2.5</vdop><extensions><gom:speed>0.479</gom:speed></extensions></trkpt>
   <trkpt lat="59.3262647812" lon="34.7030951955"><ele>162.454</ele><time>2026-08-17T02:51:46.652Z</time><hdop>3.125</hdop><vdop>2.5</vdop><extensions><gom:speed>0.479</gom:speed></extensions></trkpt>
   <trkpt lat="59.3262656613" lon="34.7030856401"><ele>162.598</ele><time>2026-08-17T02:51:47.652Z</time><hdop>3.312</hdop><vdop>2.5</vdop><extensions><gom:speed>0.422</gom:speed></extensions></trkpt>
   <trkpt lat="59.3262693913" lon="34.7030737378"><ele>162.894</ele><time>2026-08-17T02:51:48.646Z</time><hdop>3.375</hdop><vdop>2.5</vdop><extensions><gom:speed>0.417</gom:speed></extensions></trkpt>
   <trkpt lat="59.3262701875" lon="34.7030688763"><ele>163.07</ele><time>2026-08-17T02:51:49.665Z</time><hdop>3.625</hdop><vdop>2.5</vdop><extensions><gom:speed>0.418</gom:speed></extensions></trkpt>
   <trkpt lat="59.3262781922" lon="34.70305513"><ele>163.245</ele><time>2026-08-17T02:51:50.646Z</time><hdop>3.625</hdop><vdop>2.5</vdop><extensions><gom:speed>0.459</gom:speed></extensions></trkpt>
   <trkpt lat="59.3262840596" lon="34.7030503523"><ele>163.331</ele><time>2026-08-17T02:51:51.426Z</time><hdop>3.625</hdop><vdop>2.5</vdop><extensions><gom:speed>0.41</gom:speed></extensions></trkpt>
   <trkpt lat="59.3262891725" lon="34.7030447364"><ele>163.342</ele><time>2026-08-17T02:51:52.224Z</time><hdop>3.437</hdop><vdop>2.5</vdop><extensions><gom:speed>0.39</gom:speed></extensions></trkpt>
   <trkpt lat="59.3262945789" lon="34.7030337561"><ele>163.382</ele><time>2026-08-17T02:51:53.084Z</time><hdop>3.25</hdop><vdop>2.5</vdop><extensions><gom:speed>0.432</gom:speed></extensions></trkpt>
   <trkpt lat="59.3262996918" lon="34.7030234464"><ele>163.376</ele><time>2026-08-17T02:51:53.647Z</time><hdop>3.25</hdop><vdop>2.5</vdop><extensions><gom:speed>0.558</gom:speed></extensions></trkpt>
   <trkpt lat="59.3263034637" lon="34.7030188363"><ele>163.371</ele><time>2026-08-17T02:51:54.521Z</time><hdop>3.125</hdop><vdop>2.5</vdop><extensions><gom:speed>0.516</gom:speed></extensions></trkpt>
   <trkpt lat="59.32630887" lon="34.7030118793"><ele>163.363</ele><time>2026-08-17T02:51:55.280Z</time><hdop>3.062</hdop><vdop>2.5</vdop><extensions><gom:speed>0.547</gom:speed></extensions></trkpt>
   <trkpt lat="59.3263161623" lon="34.7030002285"><ele>163.44</ele><time>2026-08-17T02:51:56.565Z</time><hdop>3.0</hdop><vdop>2.5</vdop><extensions><gom:speed>0.538</gom:speed></extensions></trkpt>
   <trkpt lat="59.3263196827" lon="34.7029923495"><ele>163.322</ele><time>2026-08-17T02:51:57.283Z</time><hdop>3.0</hdop><vdop>2.5</vdop><extensions><gom:speed>0.542</gom:speed></extensions></trkpt>
   <trkpt lat="59.3263228678" lon="34.7029838838"><ele>163.354</ele><time>2026-08-17T02:51:58.042Z</time><hdop>3.0</hdop><vdop>2.5</vdop><extensions><gom:speed>0.533</gom:speed></extensions></trkpt>
   <trkpt lat="59.326324167" lon="34.7029820398"><ele>163.41</ele><time>2026-08-17T02:51:58.652Z</time><hdop>3.0</hdop><vdop>2.5</vdop><extensions><gom:speed>0.386</gom:speed></extensions></trkpt>
   <trkpt lat="59.3263256757" lon="34.7029736579"><ele>163.343</ele><time>2026-08-17T02:51:59.652Z</time><hdop>3.0</hdop><vdop>2.5</vdop><extensions><gom:speed>0.295</gom:speed></extensions></trkpt>
   <trkpt lat="59.3263285675" lon="34.7029596601"><ele>163.304</ele><time>2026-08-17T02:52:00.643Z</time><hdop>3.0</hdop><vdop>2.5</vdop><extensions><gom:speed>0.402</gom:speed></extensions></trkpt>
   <trkpt lat="59.3263291961" lon="34.7029489313"><ele>163.318</ele><time>2026-08-17T02:52:01.522Z</time><hdop>3.0</hdop><vdop>2.5</vdop><extensions><gom:speed>0.341</gom:speed></extensions></trkpt>
   <trkpt lat="59.3263310821" lon="34.7029353526"><ele>163.266</ele><time>2026-08-17T02:52:02.625Z</time><hdop>3.0</hdop><vdop>2.5</vdop><extensions><gom:speed>0.312</gom:speed></extensions></trkpt>
   <trkpt lat="59.3263318783" lon="34.7029272221"><ele>163.25</ele><time>2026-08-17T02:52:03.182Z</time><hdop>3.0</hdop><vdop>2.5</vdop><extensions><gom:speed>0.322</gom:speed></extensions></trkpt>
   <trkpt lat="59.3263320879" lon="34.7029270545"><ele>163.193</ele><time>2026-08-17T02:52:03.657Z</time><hdop>3.0</hdop><vdop>2.5</vdop><extensions><gom:speed>0.264</gom:speed></extensions></trkpt>
   <trkpt lat="59.3263348958" lon="34.7029172477"><ele>163.159</ele><time>2026-08-17T02:52:04.123Z</time><hdop>3.0</hdop><vdop>2.5</vdop><extensions><gom:speed>0.36</gom:speed></extensions></trkpt>
   <trkpt lat="59.3263340995" lon="34.7029180858"><ele>163.097</ele><time>2026-08-17T02:52:04.652Z</time><hdop>3.0</hdop><vdop>2.5</vdop><extensions><gom:speed>0.264</gom:speed></extensions></trkpt>
   <trkpt lat="59.3263381648" lon="34.7029080276"><ele>163.11</ele><time>2026-08-17T02:52:05.652Z</time><hdop>3.0</hdop><vdop>2.5</vdop><extensions><gom:speed>0.249</gom:speed></extensions></trkpt>
   <trkpt lat="59.3263457923" lon="34.7028883301"><ele>163.101</ele><time>2026-08-17T02:52:06.646Z</time><hdop>3.0</hdop><vdop>2.5</vdop><extensions><gom:speed>0.422</gom:speed></extensions></trkpt>
   <trkpt lat="59.3263462952" lon="34.7028892521"><ele>163.14</ele><time>2026-08-17T02:52:07.653Z</time><hdop>3.0</hdop><vdop>2.5</vdop><extensions><gom:speed>0.212</gom:speed></extensions></trkpt>
   <trkpt lat="59.3263501928" lon="34.7028761763"><ele>163.012</ele><time>2026-08-17T02:52:08.652Z</time><hdop>3.0</hdop><vdop>2.5</vdop><extensions><gom:speed>0.169</gom:speed></extensions></trkpt>
   <trkpt lat="59.3263564792" lon="34.7028600831"><ele>162.62</ele><time>2026-08-17T02:52:09.647Z</time><hdop>3.0</hdop><vdop>2.5</vdop><extensions><gom:speed>0.226</gom:speed></extensions></trkpt>
   <trkpt lat="59.3263566888" lon="34.7028608375"><ele>162.382</ele><time>2026-08-17T02:52:10.652Z</time><hdop>3.0</hdop><vdop>2.5</vdop><extensions><gom:speed>0.071</gom:speed></extensions></trkpt>
   <trkpt lat="59.3263585747" lon="34.7028566465"><ele>162.235</ele><time>2026-08-17T02:52:11.652Z</time><hdop>3.0</hdop><vdop>2.5</vdop><extensions><gom:speed>0.035</gom:speed></extensions></trkpt>
   <trkpt lat="59.3263590776" lon="34.7028543834"><ele>162.144</ele><time>2026-08-17T02:52:12.652Z</time><hdop>3.0</hdop><vdop>2.5</vdop><extensions><gom:speed>0.018</gom:speed></extensions></trkpt>
   <trkpt lat="59.3263589938" lon="34.7028524555"><ele>162.09</ele><time>2026-08-17T02:52:13.652Z</time><hdop>3.0</hdop><vdop>2.5</vdop><extensions><gom:speed>0.035</gom:speed></extensions></trkpt>
   <trkpt lat="59.3263591614" lon="34.7028524555"><ele>161.984</ele><time>2026-08-17T02:52:14.652Z</time><hdop>3.0</hdop><vdop>2.5</vdop><extensions><gom:speed>0.02</gom:speed></extensions></trkpt>
   <trkpt lat="59.3263603768" lon="34.7028491866"><ele>161.921</ele><time>2026-08-17T02:52:15.636Z</time><hdop>3.0</hdop><vdop>2.5</vdop><extensions><gom:speed>0.078</gom:speed></extensions></trkpt>
   <trkpt lat="59.3263624723" lon="34.7028437384"><ele>161.843</ele><time>2026-08-17T02:52:16.365Z</time><hdop>3.0</hdop><vdop>2.5</vdop><extensions><gom:speed>0.103</gom:speed></extensions></trkpt>
   <trkpt lat="59.326365364" lon="34.7028350212"><ele>161.79</ele><time>2026-08-17T02:52:17.448Z</time><hdop>3.0</hdop><vdop>2.5</vdop><extensions><gom:speed>0.17</gom:speed></extensions></trkpt>
   <trkpt lat="59.3263697645" lon="34.7028221969"><ele>161.834</ele><time>2026-08-17T02:52:18.307Z</time><hdop>3.0</hdop><vdop>2.5</vdop><extensions><gom:speed>0.29</gom:speed></extensions></trkpt>
   <trkpt lat="59.3263742908" lon="34.7028098755"><ele>161.85</ele><time>2026-08-17T02:52:19.400Z</time><hdop>3.0</hdop><vdop>2.5</vdop><extensions><gom:speed>0.311</gom:speed></extensions></trkpt>
   <trkpt lat="59.3263785655" lon="34.7027984761"><ele>161.935</ele><time>2026-08-17T02:52:20.381Z</time><hdop>3.0</hdop><vdop>2.5</vdop><extensions><gom:speed>0.359</gom:speed></extensions></trkpt>
   <trkpt lat="59.3263810801" lon="34.7027866576"><ele>162.278</ele><time>2026-08-17T02:52:21.646Z</time><hdop>3.0</hdop><vdop>2.5</vdop><extensions><gom:speed>0.329</gom:speed></extensions></trkpt>
   <trkpt lat="59.326384391" lon="34.7027754259"><ele>162.578</ele><time>2026-08-17T02:52:22.223Z</time><hdop>3.0</hdop><vdop>2.625</vdop><extensions><gom:speed>0.319</gom:speed></extensions></trkpt>
   <trkpt lat="59.3263873665" lon="34.7027676307"><ele>162.817</ele><time>2026-08-17T02:52:22.981Z</time><hdop>3.0</hdop><vdop>2.812</vdop><extensions><gom:speed>0.282</gom:speed></extensions></trkpt>
   <trkpt lat="59.3263909708" lon="34.7027565666"><ele>162.983</ele><time>2026-08-17T02:52:23.647Z</time><hdop>3.0</hdop><vdop>2.75</vdop><extensions><gom:speed>0.388</gom:speed></extensions></trkpt>
   <trkpt lat="59.3263910965" lon="34.7027543873"><ele>162.883</ele><time>2026-08-17T02:52:24.653Z</time><hdop>3.0</hdop><vdop>3.125</vdop><extensions><gom:speed>0.181</gom:speed></extensions></trkpt>
   <trkpt lat="59.3263957904" lon="34.7027395513"><ele>162.823</ele><time>2026-08-17T02:52:25.622Z</time><hdop>3.0</hdop><vdop>3.125</vdop><extensions><gom:speed>0.297</gom:speed></extensions></trkpt>
   <trkpt lat="59.3263986821" lon="34.7027297445"><ele>162.327</ele><time>2026-08-17T02:52:26.563Z</time><hdop>3.0</hdop><vdop>3.187</vdop><extensions><gom:speed>0.251</gom:speed></extensions></trkpt>
   <trkpt lat="59.3264008614" lon="34.7027211949"><ele>161.994</ele><time>2026-08-17T02:52:27.656Z</time><hdop>3.0</hdop><vdop>2.937</vdop><extensions><gom:speed>0.186</gom:speed></extensions></trkpt>
   <trkpt lat="59.3264037951" lon="34.7027079515"><ele>162.082</ele><time>2026-08-17T02:52:28.668Z</time><hdop>3.0</hdop><vdop>2.812</vdop><extensions><gom:speed>0.229</gom:speed></extensions></trkpt>
   <trkpt lat="59.3264065611" lon="34.7026949596"><ele>162.134</ele><time>2026-08-17T02:52:29.426Z</time><hdop>3.0</hdop><vdop>2.812</vdop><extensions><gom:speed>0.325</gom:speed></extensions></trkpt>
   <trkpt lat="59.3264094948" lon="34.702682722"><ele>162.278</ele><time>2026-08-17T02:52:30.165Z</time><hdop>3.0</hdop><vdop>2.687</vdop><extensions><gom:speed>0.352</gom:speed></extensions></trkpt>
   <trkpt lat="59.3264109616" lon="34.7026782796"><ele>162.354</ele><time>2026-08-17T02:52:30.647Z</time><hdop>3.0</hdop><vdop>2.5</vdop><extensions><gom:speed>0.292</gom:speed></extensions></trkpt>
   <trkpt lat="59.3264099977" lon="34.7026797883"><ele>162.401</ele><time>2026-08-17T02:52:31.662Z</time><hdop>3.0</hdop><vdop>2.5</vdop><extensions><gom:speed>0.141</gom:speed></extensions></trkpt>
   <trkpt lat="59.3264113807" lon="34.702674843"><ele>162.429</ele><time>2026-08-17T02:52:32.652Z</time><hdop>3.0</hdop><vdop>2.5</vdop><extensions><gom:speed>0.17</gom:speed></extensions></trkpt>
   <trkpt lat="59.3264122608" lon="34.7026723284"><ele>162.444</ele><time>2026-08-17T02:52:33.652Z</time><hdop>3.0</hdop><vdop>2.5</vdop><extensions><gom:speed>0.126</gom:speed></extensions></trkpt>
   <trkpt lat="59.3264127637" lon="34.7026710712"><ele>162.453</ele><time>2026-08-17T02:52:34.141Z</time><hdop>3.0</hdop><vdop>2.5</vdop><extensions><gom:speed>0.138</gom:speed></extensions></trkpt>
   <trkpt lat="59.326413099" lon="34.7026700653"><ele>162.458</ele><time>2026-08-17T02:52:34.652Z</time><hdop>3.0</hdop><vdop>2.5</vdop><extensions><gom:speed>0.144</gom:speed></extensions></trkpt>
   <trkpt lat="59.3264137695" lon="34.702667886"><ele>162.276</ele><time>2026-08-17T02:52:35.653Z</time><hdop>3.0</hdop><vdop>2.5</vdop><extensions><gom:speed>0.114</gom:speed></extensions></trkpt>
   <trkpt lat="59.3264166613" lon="34.7026561514"><ele>162.169</ele><time>2026-08-17T02:52:36.646Z</time><hdop>3.0</hdop><vdop>2.5</vdop><extensions><gom:speed>0.188</gom:speed></extensions></trkpt>
   <trkpt lat="59.3264170804" lon="34.7026541397"><ele>162.106</ele><time>2026-08-17T02:52:37.683Z</time><hdop>3.0</hdop><vdop>2.5</vdop><extensions><gom:speed>0.178</gom:speed></extensions></trkpt>
   <trkpt lat="59.3264174995" lon="34.7026515413"><ele>162.067</ele><time>2026-08-17T02:52:38.421Z</time><hdop>3.0</hdop><vdop>2.5</vdop><extensions><gom:speed>0.15</gom:speed></extensions></trkpt>
   <trkpt lat="59.3264192597" lon="34.7026386332"><ele>161.668</ele><time>2026-08-17T02:52:39.422Z</time><hdop>3.0</hdop><vdop>2.687</vdop><extensions><gom:speed>0.294</gom:speed></extensions></trkpt>
   <trkpt lat="59.3264208942" lon="34.7026288264"><ele>161.26</ele><time>2026-08-17T02:52:40.444Z</time><hdop>3.0</hdop><vdop>2.937</vdop><extensions><gom:speed>0.272</gom:speed></extensions></trkpt>
   <trkpt lat="59.3264212713" lon="34.7026235458"><ele>161.027</ele><time>2026-08-17T02:52:41.508Z</time><hdop>3.0</hdop><vdop>2.937</vdop><extensions><gom:speed>0.224</gom:speed></extensions></trkpt>
   <trkpt lat="59.3264219838" lon="34.7026167564"><ele>161.051</ele><time>2026-08-17T02:52:42.447Z</time><hdop>3.0</hdop><vdop>2.562</vdop><extensions><gom:speed>0.204</gom:speed></extensions></trkpt>
   <trkpt lat="59.3264224867" lon="34.7026077878"><ele>161.569</ele><time>2026-08-17T02:52:43.227Z</time><hdop>3.0</hdop><vdop>3.062</vdop><extensions><gom:speed>0.23</gom:speed></extensions></trkpt>
   <trkpt lat="59.3264252947" lon="34.7025875874"><ele>161.735</ele><time>2026-08-17T02:52:44.613Z</time><hdop>3.0</hdop><vdop>3.312</vdop><extensions><gom:speed>0.344</gom:speed></extensions></trkpt>
   <trkpt lat="59.326425588" lon="34.7025728353"><ele>161.643</ele><time>2026-08-17T02:52:45.462Z</time><hdop>3.0</hdop><vdop>3.437</vdop><extensions><gom:speed>0.306</gom:speed></extensions></trkpt>
   <trkpt lat="59.3264266777" lon="34.7025559876"><ele>161.775</ele><time>2026-08-17T02:52:46.322Z</time><hdop>3.0</hdop><vdop>3.687</vdop><extensions><gom:speed>0.368</gom:speed></extensions></trkpt>
   <trkpt lat="59.3264267615" lon="34.7025463484"><ele>161.844</ele><time>2026-08-17T02:52:47.061Z</time><hdop>3.0</hdop><vdop>3.437</vdop><extensions><gom:speed>0.323</gom:speed></extensions></trkpt>
   <trkpt lat="59.326426971" lon="34.7025439177"><ele>161.742</ele><time>2026-08-17T02:52:47.652Z</time><hdop>3.0</hdop><vdop>3.375</vdop><extensions><gom:speed>0.279</gom:speed></extensions></trkpt>
   <trkpt lat="59.3264280607" lon="34.7025264833"><ele>161.549</ele><time>2026-08-17T02:52:48.652Z</time><hdop>3.0</hdop><vdop>3.25</vdop><extensions><gom:speed>0.327</gom:speed></extensions></trkpt>
   <trkpt lat="59.3264279769" lon="34.7025115635"><ele>161.283</ele><time>2026-08-17T02:52:49.652Z</time><hdop>3.0</hdop><vdop>3.312</vdop><extensions><gom:speed>0.275</gom:speed></extensions></trkpt>
   <trkpt lat="59.3264276835" lon="34.7024922852"><ele>161.125</ele><time>2026-08-17T02:52:50.663Z</time><hdop>3.0</hdop><vdop>3.312</vdop><extensions><gom:speed>0.381</gom:speed></extensions></trkpt>
   <trkpt lat="59.3264267615" lon="34.7024859987"><ele>161.187</ele><time>2026-08-17T02:52:51.653Z</time><hdop>3.0</hdop><vdop>3.187</vdop><extensions><gom:speed>0.15</gom:speed></extensions></trkpt>
   <trkpt lat="59.3264251689" lon="34.702472923"><ele>161.075</ele><time>2026-08-17T02:52:52.666Z</time><hdop>3.0</hdop><vdop>3.0</vdop><extensions><gom:speed>0.135</gom:speed></extensions></trkpt>
   <trkpt lat="59.3264216904" lon="34.7024605178"><ele>161.008</ele><time>2026-08-17T02:52:53.526Z</time><hdop>3.0</hdop><vdop>3.0</vdop><extensions><gom:speed>0.244</gom:speed></extensions></trkpt>
   <trkpt lat="59.3264149849" lon="34.7024422452"><ele>160.818</ele><time>2026-08-17T02:52:54.647Z</time><hdop>3.0</hdop><vdop>3.0</vdop><extensions><gom:speed>0.312</gom:speed></extensions></trkpt>
   <trkpt lat="59.3264150687" lon="34.7024408203"><ele>160.66</ele><time>2026-08-17T02:52:55.652Z</time><hdop>3.0</hdop><vdop>2.937</vdop><extensions><gom:speed>0.143</gom:speed></extensions></trkpt>
   <trkpt lat="59.3264122608" lon="34.7024308458"><ele>160.566</ele><time>2026-08-17T02:52:56.541Z</time><hdop>3.0</hdop><vdop>2.937</vdop><extensions><gom:speed>0.223</gom:speed></extensions></trkpt>
   <trkpt lat="59.3264098719" lon="34.7024206199"><ele>160.611</ele><time>2026-08-17T02:52:57.543Z</time><hdop>3.0</hdop><vdop>2.812</vdop><extensions><gom:speed>0.239</gom:speed></extensions></trkpt>
   <trkpt lat="59.3264064773" lon="34.7024135791"><ele>160.564</ele><time>2026-08-17T02:52:58.403Z</time><hdop>3.0</hdop><vdop>2.75</vdop><extensions><gom:speed>0.216</gom:speed></extensions></trkpt>
   <trkpt lat="59.3264028731" lon="34.7024060354"><ele>160.203</ele><time>2026-08-17T02:52:59.652Z</time><hdop>3.0</hdop><vdop>2.5</vdop><extensions><gom:speed>0.161</gom:speed></extensions></trkpt>
   <trkpt lat="59.3264007776" lon="34.7024067898"><ele>159.987</ele><time>2026-08-17T02:53:00.652Z</time><hdop>3.0</hdop><vdop>2.5</vdop><extensions><gom:speed>0.07</gom:speed></extensions></trkpt>
   <trkpt lat="59.3263990593" lon="34.7024077956"><ele>159.858</ele><time>2026-08-17T02:53:01.307Z</time><hdop>3.0</hdop><vdop>2.5</vdop><extensions><gom:speed>0.095</gom:speed></extensions></trkpt>
   <trkpt lat="59.3263965866" lon="34.7024023473"><ele>160.009</ele><time>2026-08-17T02:53:02.419Z</time><hdop>3.0</hdop><vdop>2.5</vdop><extensions><gom:speed>0.19</gom:speed></extensions></trkpt>
   <trkpt lat="59.3263930662" lon="34.7023967315"><ele>159.774</ele><time>2026-08-17T02:53:03.148Z</time><hdop>3.0</hdop><vdop>2.5</vdop><extensions><gom:speed>0.237</gom:speed></extensions></trkpt>
   <trkpt lat="59.3263930662" lon="34.7023975697"><ele>159.771</ele><time>2026-08-17T02:53:03.652Z</time><hdop>3.0</hdop><vdop>2.5</vdop><extensions><gom:speed>0.121</gom:speed></extensions></trkpt>
   <trkpt lat="59.3263895877" lon="34.7023915347"><ele>159.797</ele><time>2026-08-17T02:53:04.652Z</time><hdop>3.0</hdop><vdop>2.5</vdop><extensions><gom:speed>0.072</gom:speed></extensions></trkpt>
   <trkpt lat="59.3263871989" lon="34.7023872599"><ele>159.819</ele><time>2026-08-17T02:53:05.657Z</time><hdop>3.0</hdop><vdop>2.5</vdop><extensions><gom:speed>0.117</gom:speed></extensions></trkpt>
   <trkpt lat="59.3263848939" lon="34.7023891878"><ele>159.833</ele><time>2026-08-17T02:53:06.669Z</time><hdop>3.0</hdop><vdop>2.5</vdop><extensions><gom:speed>0.08</gom:speed></extensions></trkpt>
   <trkpt lat="59.326382966" lon="34.7023862541"><ele>159.841</ele><time>2026-08-17T02:53:07.286Z</time><hdop>3.0</hdop><vdop>2.5</vdop><extensions><gom:speed>0.1</gom:speed></extensions></trkpt>
   <trkpt lat="59.3263812897" lon="34.7023848292"><ele>159.612</ele><time>2026-08-17T02:53:08.459Z</time><hdop>3.0</hdop><vdop>2.5</vdop><extensions><gom:speed>0.121</gom:speed></extensions></trkpt>
   <trkpt lat="59.3263793618" lon="34.7023848292"><ele>159.47</ele><time>2026-08-17T02:53:09.208Z</time><hdop>3.0</hdop><vdop>2.5</vdop><extensions><gom:speed>0.101</gom:speed></extensions></trkpt>
   <trkpt lat="59.3263781884" lon="34.702383991"><ele>159.384</ele><time>2026-08-17T02:53:10.068Z</time><hdop>3.0</hdop><vdop>2.5</vdop><extensions><gom:speed>0.124</gom:speed></extensions></trkpt>
   <trkpt lat="59.3263782722" lon="34.7023824822"><ele>159.327</ele><time>2026-08-17T02:53:10.655Z</time><hdop>3.0</hdop><vdop>2.562</vdop><extensions><gom:speed>0.147</gom:speed></extensions></trkpt>
   <trkpt lat="59.3263766796" lon="34.7023804706"><ele>160.054</ele><time>2026-08-17T02:53:11.652Z</time><hdop>3.0</hdop><vdop>2.937</vdop><extensions><gom:speed>0.214</gom:speed></extensions></trkpt>
   <trkpt lat="59.3263744584" lon="34.7023729269"><ele>160.713</ele><time>2026-08-17T02:53:12.652Z</time><hdop>3.0</hdop><vdop>3.125</vdop><extensions><gom:speed>0.304</gom:speed></extensions></trkpt>
   <trkpt lat="59.3263716924" lon="34.7023650479"><ele>161.107</ele><time>2026-08-17T02:53:13.569Z</time><hdop>3.0</hdop><vdop>3.125</vdop><extensions><gom:speed>0.341</gom:speed></extensions></trkpt>
   <trkpt lat="59.3263632686" lon="34.702346021"><ele>161.567</ele><time>2026-08-17T02:53:14.646Z</time><hdop>3.0</hdop><vdop>3.5</vdop><extensions><gom:speed>0.42</gom:speed></extensions></trkpt>
   <trkpt lat="59.3263646935" lon="34.7023368847"><ele>161.843</ele><time>2026-08-17T02:53:15.643Z</time><hdop>3.0</hdop><vdop>3.5</vdop><extensions><gom:speed>0.437</gom:speed></extensions></trkpt>
   <trkpt lat="59.3263623885" lon="34.7023233898"><ele>161.903</ele><time>2026-08-17T02:53:16.503Z</time><hdop>3.0</hdop><vdop>3.687</vdop><extensions><gom:speed>0.45</gom:speed></extensions></trkpt>
   <trkpt lat="59.3263594967" lon="34.7023129963"><ele>162.043</ele><time>2026-08-17T02:53:17.322Z</time><hdop>3.0</hdop><vdop>3.625</vdop><extensions><gom:speed>0.404</gom:speed></extensions></trkpt>
   <trkpt lat="59.3263569821" lon="34.7022992499"><ele>162.503</ele><time>2026-08-17T02:53:18.162Z</time><hdop>3.0</hdop><vdop>3.375</vdop><extensions><gom:speed>0.389</gom:speed></extensions></trkpt>
   <trkpt lat="59.3263569821" lon="34.7022985794"><ele>162.901</ele><time>2026-08-17T02:53:18.652Z</time><hdop>3.0</hdop><vdop>3.625</vdop><extensions><gom:speed>0.31</gom:speed></extensions></trkpt>
   <trkpt lat="59.3263538808" lon="34.7022867609"><ele>163.038</ele><time>2026-08-17T02:53:19.653Z</time><hdop>3.0</hdop><vdop>3.312</vdop><extensions><gom:speed>0.281</gom:speed></extensions></trkpt>
   <trkpt lat="59.3263495642" lon="34.7022836596"><ele>163.116</ele><time>2026-08-17T02:53:20.652Z</time><hdop>3.0</hdop><vdop>3.312</vdop><extensions><gom:speed>0.181</gom:speed></extensions></trkpt>
   <trkpt lat="59.3263434873" lon="34.7022864256"><ele>163.16</ele><time>2026-08-17T02:53:21.652Z</time><hdop>3.0</hdop><vdop>3.25</vdop><extensions><gom:speed>0.043</gom:speed></extensions></trkpt>
   <trkpt lat="59.3263371589" lon="34.7022882696"><ele>163.184</ele><time>2026-08-17T02:53:22.652Z</time><hdop>3.0</hdop><vdop>3.25</vdop><extensions><gom:speed>0.033</gom:speed></extensions></trkpt>
   <trkpt lat="59.3263336804" lon="34.7022874315"><ele>163.196</ele><time>2026-08-17T02:53:23.666Z</time><hdop>3.0</hdop><vdop>3.25</vdop><extensions><gom:speed>0.018</gom:speed></extensions></trkpt>
   <trkpt lat="59.3263311659" lon="34.7022866771"><ele>163.202</ele><time>2026-08-17T02:53:24.652Z</time><hdop>3.0</hdop><vdop>3.125</vdop><extensions><gom:speed>0.009</gom:speed></extensions></trkpt>
   <trkpt lat="59.3263275617" lon="34.702282067"><ele>163.205</ele><time>2026-08-17T02:53:25.647Z</time><hdop>3.0</hdop><vdop>3.062</vdop><extensions><gom:speed>0.054</gom:speed></extensions></trkpt>
   <trkpt lat="59.326327394" lon="34.7022856713"><ele>163.206</ele><time>2026-08-17T02:53:26.652Z</time><hdop>3.0</hdop><vdop>3.0</vdop><extensions><gom:speed>0.01</gom:speed></extensions></trkpt>
   <trkpt lat="59.3263253824" lon="34.702282067"><ele>163.205</ele><time>2026-08-17T02:53:27.652Z</time><hdop>3.0</hdop><vdop>2.937</vdop><extensions><gom:speed>0.089</gom:speed></extensions></trkpt>
   <trkpt lat="59.326322784" lon="34.7022800554"><ele>163.206</ele><time>2026-08-17T02:53:28.652Z</time><hdop>3.0</hdop><vdop>2.812</vdop><extensions><gom:speed>0.01</gom:speed></extensions></trkpt>
   <trkpt lat="59.326320898" lon="34.7022773732"><ele>163.204</ele><time>2026-08-17T02:53:29.652Z</time><hdop>3.0</hdop><vdop>2.75</vdop><extensions><gom:speed>0.006</gom:speed></extensions></trkpt>
   <trkpt lat="59.3263192636" lon="34.7022775408"><ele>163.201</ele><time>2026-08-17T02:53:30.667Z</time><hdop>3.0</hdop><vdop>2.875</vdop><extensions><gom:speed>0.005</gom:speed></extensions></trkpt>
   <trkpt lat="59.3263177967" lon="34.7022756968"><ele>163.199</ele><time>2026-08-17T02:53:31.659Z</time><hdop>3.0</hdop><vdop>2.75</vdop><extensions><gom:speed>0.006</gom:speed></extensions></trkpt>
   <trkpt lat="59.3263157851" lon="34.7022748586"><ele>163.197</ele><time>2026-08-17T02:53:32.671Z</time><hdop>3.0</hdop><vdop>2.687</vdop><extensions><gom:speed>0.057</gom:speed></extensions></trkpt>
   <trkpt lat="59.3263131867" lon="34.7022736851"><ele>163.196</ele><time>2026-08-17T02:53:33.647Z</time><hdop>3.0</hdop><vdop>2.625</vdop><extensions><gom:speed>0.088</gom:speed></extensions></trkpt>
   <trkpt lat="59.3263132705" lon="34.7022756968"><ele>163.194</ele><time>2026-08-17T02:53:34.652Z</time><hdop>3.0</hdop><vdop>2.562</vdop><extensions><gom:speed>0.011</gom:speed></extensions></trkpt>
   <trkpt lat="59.3263108817" lon="34.7022739366"><ele>163.193</ele><time>2026-08-17T02:53:35.647Z</time><hdop>3.0</hdop><vdop>2.5</vdop><extensions><gom:speed>0.087</gom:speed></extensions></trkpt>
   <trkpt lat="59.3263098758" lon="34.7022731822"><ele>163.191</ele><time>2026-08-17T02:53:36.647Z</time><hdop>3.0</hdop><vdop>2.5</vdop><extensions><gom:speed>0.05</gom:speed></extensions></trkpt>
   <trkpt lat="59.3263091634" lon="34.702271422"><ele>163.189</ele><time>2026-08-17T02:53:37.646Z</time><hdop>3.0</hdop><vdop>2.5</vdop><extensions><gom:speed>0.0</gom:speed></extensions></trkpt>
   <trkpt lat="59.3263091634" lon="34.7022713382"><ele>163.187</ele><time>2026-08-17T02:53:38.660Z</time><hdop>3.0</hdop><vdop>2.5</vdop><extensions><gom:speed>0.002</gom:speed></extensions></trkpt>
   <trkpt lat="59.3263086605" lon="34.7022709191"><ele>163.187</ele><time>2026-08-17T02:53:39.653Z</time><hdop>3.0</hdop><vdop>2.5</vdop><extensions><gom:speed>0.015</gom:speed></extensions></trkpt>
   <trkpt lat="59.3263083671" lon="34.7022704162"><ele>163.187</ele><time>2026-08-17T02:53:40.652Z</time><hdop>3.0</hdop><vdop>2.5</vdop><extensions><gom:speed>0.025</gom:speed></extensions></trkpt>
   <trkpt lat="59.3263079899" lon="34.7022698295"><ele>163.188</ele><time>2026-08-17T02:53:41.653Z</time><hdop>3.0</hdop><vdop>2.5</vdop><extensions><gom:speed>0.036</gom:speed></extensions></trkpt>
   <trkpt lat="59.3263075708" lon="34.7022696618"><ele>163.19</ele><time>2026-08-17T02:53:42.647Z</time><hdop>3.0</hdop><vdop>2.5</vdop><extensions><gom:speed>0.049</gom:speed></extensions></trkpt>
   <trkpt lat="59.326307487" lon="34.7022691589"><ele>163.191</ele><time>2026-08-17T02:53:43.152Z</time><hdop>3.0</hdop><vdop>2.5</vdop><extensions><gom:speed>0.049</gom:speed></extensions></trkpt>
   <trkpt lat="59.326307487" lon="34.7022688236"><ele>163.192</ele><time>2026-08-17T02:53:43.658Z</time><hdop>3.0</hdop><vdop>2.5</vdop><extensions><gom:speed>0.049</gom:speed></extensions></trkpt>
   <trkpt lat="59.3263069841" lon="34.7022685722"><ele>163.193</ele><time>2026-08-17T02:53:44.647Z</time><hdop>3.0</hdop><vdop>2.5</vdop><extensions><gom:speed>0.057</gom:speed></extensions></trkpt>
   <trkpt lat="59.3263069841" lon="34.7022675663"><ele>163.194</ele><time>2026-08-17T02:53:45.652Z</time><hdop>3.0</hdop><vdop>2.5</vdop><extensions><gom:speed>0.057</gom:speed></extensions></trkpt>
   <trkpt lat="59.3263066907" lon="34.7022669796"><ele>163.198</ele><time>2026-08-17T02:53:46.652Z</time><hdop>3.0</hdop><vdop>2.5</vdop><extensions><gom:speed>0.063</gom:speed></extensions></trkpt>
   <trkpt lat="59.3263062716" lon="34.7022667282"><ele>163.201</ele><time>2026-08-17T02:53:47.647Z</time><hdop>3.0</hdop><vdop>2.5</vdop><extensions><gom:speed>0.068</gom:speed></extensions></trkpt>
   <trkpt lat="59.3263062716" lon="34.7022659738"><ele>163.204</ele><time>2026-08-17T02:53:48.652Z</time><hdop>3.0</hdop><vdop>2.5</vdop><extensions><gom:speed>0.068</gom:speed></extensions></trkpt>
   <trkpt lat="59.3263061878" lon="34.702265387"><ele>163.21</ele><time>2026-08-17T02:53:49.652Z</time><hdop>3.0</hdop><vdop>2.5</vdop><extensions><gom:speed>0.072</gom:speed></extensions></trkpt>
   <trkpt lat="59.3263059783" lon="34.7022648841"><ele>163.216</ele><time>2026-08-17T02:53:50.652Z</time><hdop>3.0</hdop><vdop>2.5</vdop><extensions><gom:speed>0.073</gom:speed></extensions></trkpt>
   <trkpt lat="59.3263057687" lon="34.702264968"><ele>163.223</ele><time>2026-08-17T02:53:51.647Z</time><hdop>3.0</hdop><vdop>2.5</vdop><extensions><gom:speed>0.074</gom:speed></extensions></trkpt>
   <trkpt lat="59.3263057687" lon="34.7022640459"><ele>163.231</ele><time>2026-08-17T02:53:52.663Z</time><hdop>3.0</hdop><vdop>2.5</vdop><extensions><gom:speed>0.074</gom:speed></extensions></trkpt>
   <trkpt lat="59.3263056849" lon="34.7022636268"><ele>163.239</ele><time>2026-08-17T02:53:53.652Z</time><hdop>3.0</hdop><vdop>2.5</vdop><extensions><gom:speed>0.074</gom:speed></extensions></trkpt>
   <trkpt lat="59.3263054753" lon="34.7022639621"><ele>163.246</ele><time>2026-08-17T02:53:54.646Z</time><hdop>3.0</hdop><vdop>2.5</vdop><extensions><gom:speed>0.075</gom:speed></extensions></trkpt>
   <trkpt lat="59.3263054753" lon="34.7022629563"><ele>163.252</ele><time>2026-08-17T02:53:55.657Z</time><hdop>3.0</hdop><vdop>2.5</vdop><extensions><gom:speed>0.075</gom:speed></extensions></trkpt>
   <trkpt lat="59.3263052658" lon="34.7022627887"><ele>163.256</ele><time>2026-08-17T02:53:56.653Z</time><hdop>3.0</hdop><vdop>2.5</vdop><extensions><gom:speed>0.077</gom:speed></extensions></trkpt>
   <trkpt lat="59.3263052658" lon="34.7022625372"><ele>163.26</ele><time>2026-08-17T02:53:57.653Z</time><hdop>3.0</hdop><vdop>2.562</vdop><extensions><gom:speed>0.074</gom:speed></extensions></trkpt>
   <trkpt lat="59.3263050982" lon="34.7022630401"><ele>163.262</ele><time>2026-08-17T02:53:58.647Z</time><hdop>3.0</hdop><vdop>2.5</vdop><extensions><gom:speed>0.068</gom:speed></extensions></trkpt>
   <trkpt lat="59.3263050982" lon="34.7022624534"><ele>163.263</ele><time>2026-08-17T02:53:59.664Z</time><hdop>3.0</hdop><vdop>2.5</vdop><extensions><gom:speed>0.069</gom:speed></extensions></trkpt>
   <trkpt lat="59.3263049724" lon="34.7022623696"><ele>163.263</ele><time>2026-08-17T02:54:00.652Z</time><hdop>3.0</hdop><vdop>2.5</vdop><extensions><gom:speed>0.069</gom:speed></extensions></trkpt>
   <trkpt lat="59.3263047629" lon="34.7022628725"><ele>163.264</ele><time>2026-08-17T02:54:01.646Z</time><hdop>3.0</hdop><vdop>2.5</vdop><extensions><gom:speed>0.066</gom:speed></extensions></trkpt>
   <trkpt lat="59.3263047629" lon="34.7022625372"><ele>163.264</ele><time>2026-08-17T02:54:02.193Z</time><hdop>3.0</hdop><vdop>2.5</vdop><extensions><gom:speed>0.066</gom:speed></extensions></trkpt>
   <trkpt lat="59.3263046791" lon="34.7022622857"><ele>163.263</ele><time>2026-08-17T02:54:02.699Z</time><hdop>3.0</hdop><vdop>2.5</vdop><extensions><gom:speed>0.066</gom:speed></extensions></trkpt>
   <trkpt lat="59.3263044695" lon="34.7022630401"><ele>163.262</ele><time>2026-08-17T02:54:03.647Z</time><hdop>3.0</hdop><vdop>2.5</vdop><extensions><gom:speed>0.068</gom:speed></extensions></trkpt>
   <trkpt lat="59.3263044695" lon="34.7022625372"><ele>163.262</ele><time>2026-08-17T02:54:04.702Z</time><hdop>3.0</hdop><vdop>2.5</vdop><extensions><gom:speed>0.069</gom:speed></extensions></trkpt>
   <trkpt lat="59.3263043857" lon="34.702262621"><ele>163.261</ele><time>2026-08-17T02:54:05.652Z</time><hdop>3.0</hdop><vdop>2.5</vdop><extensions><gom:speed>0.069</gom:speed></extensions></trkpt>
   <trkpt lat="59.3263040923" lon="34.7022632916"><ele>163.257</ele><time>2026-08-17T02:54:06.648Z</time><hdop>3.0</hdop><vdop>2.5</vdop><extensions><gom:speed>0.07</gom:speed></extensions></trkpt>
   <trkpt lat="59.3263039666" lon="34.7022627887"><ele>163.255</ele><time>2026-08-17T02:54:07.652Z</time><hdop>3.0</hdop><vdop>2.5</vdop><extensions><gom:speed>0.07</gom:speed></extensions></trkpt>
   <trkpt lat="59.3263038828" lon="34.7022630401"><ele>163.254</ele><time>2026-08-17T02:54:08.652Z</time><hdop>3.0</hdop><vdop>2.5</vdop><extensions><gom:speed>0.069</gom:speed></extensions></trkpt>
   <trkpt lat="59.3263036732" lon="34.7022631239"><ele>163.255</ele><time>2026-08-17T02:54:09.652Z</time><hdop>3.0</hdop><vdop>2.5</vdop><extensions><gom:speed>0.068</gom:speed></extensions></trkpt>
   <trkpt lat="59.3263035894" lon="34.7022633754"><ele>163.256</ele><time>2026-08-17T02:54:10.652Z</time><hdop>3.0</hdop><vdop>2.5</vdop><extensions><gom:speed>0.068</gom:speed></extensions></trkpt>
   <trkpt lat="59.3263034637" lon="34.7022636268"><ele>163.259</ele><time>2026-08-17T02:54:11.647Z</time><hdop>3.0</hdop><vdop>2.5</vdop><extensions><gom:speed>0.065</gom:speed></extensions></trkpt>
   <trkpt lat="59.3263033799" lon="34.7022632916"><ele>163.262</ele><time>2026-08-17T02:54:12.655Z</time><hdop>3.0</hdop><vdop>2.5</vdop><extensions><gom:speed>0.065</gom:speed></extensions></trkpt>
   <trkpt lat="59.326303296" lon="34.7022639621"><ele>163.265</ele><time>2026-08-17T02:54:13.646Z</time><hdop>3.0</hdop><vdop>2.5</vdop><extensions><gom:speed>0.07</gom:speed></extensions></trkpt>
   <trkpt lat="59.3263031703" lon="34.7022634592"><ele>163.269</ele><time>2026-08-17T02:54:14.658Z</time><hdop>3.0</hdop><vdop>2.5</vdop><extensions><gom:speed>0.07</gom:speed></extensions></trkpt>
   <trkpt lat="59.3263030865" lon="34.7022636268"><ele>163.274</ele><time>2026-08-17T02:54:15.710Z</time><hdop>3.0</hdop><vdop>2.5</vdop><extensions><gom:speed>0.069</gom:speed></extensions></trkpt>
   <trkpt lat="59.3263029608" lon="34.7022643812"><ele>163.278</ele><time>2026-08-17T02:54:16.646Z</time><hdop>3.0</hdop><vdop>2.5</vdop><extensions><gom:speed>0.072</gom:speed></extensions></trkpt>
   <trkpt lat="59.326302877" lon="34.7022640459"><ele>163.281</ele><time>2026-08-17T02:54:17.653Z</time><hdop>3.0</hdop><vdop>2.5</vdop><extensions><gom:speed>0.073</gom:speed></extensions></trkpt>
   <trkpt lat="59.3263027931" lon="34.7022646327"><ele>163.286</ele><time>2026-08-17T02:54:18.647Z</time><hdop>3.0</hdop><vdop>2.5</vdop><extensions><gom:speed>0.072</gom:speed></extensions></trkpt>
   <trkpt lat="59.3263026674" lon="34.7022642974"><ele>163.289</ele><time>2026-08-17T02:54:19.652Z</time><hdop>3.0</hdop><vdop>2.5</vdop><extensions><gom:speed>0.072</gom:speed></extensions></trkpt>
   <trkpt lat="59.3263025836" lon="34.7022648841"><ele>163.29</ele><time>2026-08-17T02:54:20.647Z</time><hdop>3.0</hdop><vdop>2.5</vdop><extensions><gom:speed>0.072</gom:speed></extensions></trkpt>
   <trkpt lat="59.3263024998" lon="34.7022645489"><ele>163.291</ele><time>2026-08-17T02:54:21.652Z</time><hdop>3.0</hdop><vdop>2.5</vdop><extensions><gom:speed>0.072</gom:speed></extensions></trkpt>
   <trkpt lat="59.3263024998" lon="34.7022646327"><ele>163.289</ele><time>2026-08-17T02:54:22.652Z</time><hdop>3.0</hdop><vdop>2.5</vdop><extensions><gom:speed>0.071</gom:speed></extensions></trkpt>
   <trkpt lat="59.326302374" lon="34.7022651356"><ele>163.287</ele><time>2026-08-17T02:54:23.647Z</time><hdop>3.0</hdop><vdop>2.5</vdop><extensions><gom:speed>0.068</gom:speed></extensions></trkpt>
   <trkpt lat="59.3263022902" lon="34.7022648841"><ele>163.284</ele><time>2026-08-17T02:54:24.652Z</time><hdop>3.0</hdop><vdop>2.5</vdop><extensions><gom:speed>0.068</gom:speed></extensions></trkpt>
   <trkpt lat="59.3263019969" lon="34.7022652194"><ele>163.28</ele><time>2026-08-17T02:54:25.646Z</time><hdop>3.0</hdop><vdop>2.5</vdop><extensions><gom:speed>0.063</gom:speed></extensions></trkpt>
   <trkpt lat="59.3263019969" lon="34.7022650518"><ele>163.276</ele><time>2026-08-17T02:54:26.657Z</time><hdop>3.0</hdop><vdop>2.625</vdop><extensions><gom:speed>0.063</gom:speed></extensions></trkpt>
   <trkpt lat="59.3263019969" lon="34.7022652194"><ele>163.272</ele><time>2026-08-17T02:54:27.652Z</time><hdop>3.0</hdop><vdop>2.687</vdop><extensions><gom:speed>0.063</gom:speed></extensions></trkpt>
   <trkpt lat="59.3263019969" lon="34.702265387"><ele>163.27</ele><time>2026-08-17T02:54:28.652Z</time><hdop>3.0</hdop><vdop>2.687</vdop><extensions><gom:speed>0.064</gom:speed></extensions></trkpt>
   <trkpt lat="59.3263018711" lon="34.70226589"><ele>163.269</ele><time>2026-08-17T02:54:29.647Z</time><hdop>3.0</hdop><vdop>2.687</vdop><extensions><gom:speed>0.065</gom:speed></extensions></trkpt>
   <trkpt lat="59.3263017873" lon="34.7022656385"><ele>163.267</ele><time>2026-08-17T02:54:30.652Z</time><hdop>3.0</hdop><vdop>2.562</vdop><extensions><gom:speed>0.065</gom:speed></extensions></trkpt>
   <trkpt lat="59.3263016616" lon="34.7022657223"><ele>163.266</ele><time>2026-08-17T02:54:31.652Z</time><hdop>3.0</hdop><vdop>2.5</vdop><extensions><gom:speed>0.063</gom:speed></extensions></trkpt>
   <trkpt lat="59.3263014939" lon="34.7022662252"><ele>163.264</ele><time>2026-08-17T02:54:32.647Z</time><hdop>3.0</hdop><vdop>2.5</vdop><extensions><gom:speed>0.064</gom:speed></extensions></trkpt>
   <trkpt lat="59.3263014939" lon="34.7022661414"><ele>163.262</ele><time>2026-08-17T02:54:33.652Z</time><hdop>3.0</hdop><vdop>2.5</vdop><extensions><gom:speed>0.065</gom:speed></extensions></trkpt>
   <trkpt lat="59.3263013682" lon="34.7022662252"><ele>163.261</ele><time>2026-08-17T02:54:34.652Z</time><hdop>3.0</hdop><vdop>2.5</vdop><extensions><gom:speed>0.066</gom:speed></extensions></trkpt>
   <trkpt lat="59.3263012844" lon="34.7022663929"><ele>163.262</ele><time>2026-08-17T02:54:35.652Z</time><hdop>3.0</hdop><vdop>2.5</vdop><extensions><gom:speed>0.066</gom:speed></extensions></trkpt>
   <trkpt lat="59.3263011587" lon="34.7022663929"><ele>163.262</ele><time>2026-08-17T02:54:36.653Z</time><hdop>3.0</hdop><vdop>2.5</vdop><extensions><gom:speed>0.067</gom:speed></extensions></trkpt>
   <trkpt lat="59.3263008653" lon="34.7022669796"><ele>163.261</ele><time>2026-08-17T02:54:37.647Z</time><hdop>3.0</hdop><vdop>2.5</vdop><extensions><gom:speed>0.062</gom:speed></extensions></trkpt>
   <trkpt lat="59.3263008653" lon="34.7022667282"><ele>163.258</ele><time>2026-08-17T02:54:38.652Z</time><hdop>3.0</hdop><vdop>2.5</vdop><extensions><gom:speed>0.062</gom:speed></extensions></trkpt>
   <trkpt lat="59.3263007815" lon="34.7022670634"><ele>163.255</ele><time>2026-08-17T02:54:39.652Z</time><hdop>3.0</hdop><vdop>2.5</vdop><extensions><gom:speed>0.062</gom:speed></extensions></trkpt>
   <trkpt lat="59.3263004881" lon="34.7022676502"><ele>163.271</ele><time>2026-08-17T02:54:40.647Z</time><hdop>3.0</hdop><vdop>2.5</vdop><extensions><gom:speed>0.063</gom:speed></extensions></trkpt>
   <trkpt lat="59.3263002786" lon="34.7022678178"><ele>163.309</ele><time>2026-08-17T02:54:41.646Z</time><hdop>3.0</hdop><vdop>2.75</vdop><extensions><gom:speed>0.064</gom:speed></extensions></trkpt>
   <trkpt lat="59.3263001947" lon="34.7022678178"><ele>163.351</ele><time>2026-08-17T02:54:42.653Z</time><hdop>3.0</hdop><vdop>2.812</vdop><extensions><gom:speed>0.065</gom:speed></extensions></trkpt>
   <trkpt lat="59.3262998595" lon="34.7022684884"><ele>163.399</ele><time>2026-08-17T02:54:43.646Z</time><hdop>3.0</hdop><vdop>2.937</vdop><extensions><gom:speed>0.063</gom:speed></extensions></trkpt>
   <trkpt lat="59.3262997757" lon="34.7022684884"><ele>163.442</ele><time>2026-08-17T02:54:44.652Z</time><hdop>3.0</hdop><vdop>3.0</vdop><extensions><gom:speed>0.063</gom:speed></extensions></trkpt>
   <trkpt lat="59.3262992727" lon="34.7022684884"><ele>163.495</ele><time>2026-08-17T02:54:45.647Z</time><hdop>3.0</hdop><vdop>3.125</vdop><extensions><gom:speed>0.066</gom:speed></extensions></trkpt>
   <trkpt lat="59.3262991889" lon="34.7022684884"><ele>163.537</ele><time>2026-08-17T02:54:46.652Z</time><hdop>3.0</hdop><vdop>3.125</vdop><extensions><gom:speed>0.066</gom:speed></extensions></trkpt>
   <trkpt lat="59.3262989794" lon="34.7022688236"><ele>163.577</ele><time>2026-08-17T02:54:47.652Z</time><hdop>3.0</hdop><vdop>3.062</vdop><extensions><gom:speed>0.066</gom:speed></extensions></trkpt>
   <trkpt lat="59.3262988956" lon="34.7022692427"><ele>163.605</ele><time>2026-08-17T02:54:48.662Z</time><hdop>3.0</hdop><vdop>2.937</vdop><extensions><gom:speed>0.066</gom:speed></extensions></trkpt>
   <trkpt lat="59.326298686" lon="34.7022696618"><ele>163.681</ele><time>2026-08-17T02:54:49.652Z</time><hdop>3.0</hdop><vdop>2.687</vdop><extensions><gom:speed>0.066</gom:speed></extensions></trkpt>
   <trkpt lat="59.3262978897" lon="34.7022705838"><ele>163.725</ele><time>2026-08-17T02:54:50.653Z</time><hdop>3.0</hdop><vdop>2.625</vdop><extensions><gom:speed>0.503</gom:speed></extensions></trkpt>
   <trkpt lat="59.3262978897" lon="34.7022713382"><ele>163.757</ele><time>2026-08-17T02:54:51.652Z</time><hdop>3.0</hdop><vdop>2.5</vdop><extensions><gom:speed>0.097</gom:speed></extensions></trkpt>
   <trkpt lat="59.3262978897" lon="34.7022725955"><ele>163.85</ele><time>2026-08-17T02:54:52.646Z</time><hdop>3.0</hdop><vdop>2.5</vdop><extensions><gom:speed>0.108</gom:speed></extensions></trkpt>
   <trkpt lat="59.3262976802" lon="34.7022726793"><ele>163.792</ele><time>2026-08-17T02:54:53.661Z</time><hdop>3.0</hdop><vdop>2.5</vdop><extensions><gom:speed>0.109</gom:speed></extensions></trkpt>
   <trkpt lat="59.3262972611" lon="34.7022734337"><ele>163.754</ele><time>2026-08-17T02:54:54.646Z</time><hdop>3.0</hdop><vdop>2.5</vdop><extensions><gom:speed>0.077</gom:speed></extensions></trkpt>
   <trkpt lat="59.3262970934" lon="34.7022739366"><ele>163.728</ele><time>2026-08-17T02:54:55.647Z</time><hdop>3.0</hdop><vdop>2.5</vdop><extensions><gom:speed>0.074</gom:speed></extensions></trkpt>
   <trkpt lat="59.3262966743" lon="34.7022744395"><ele>163.714</ele><time>2026-08-17T02:54:56.647Z</time><hdop>3.0</hdop><vdop>2.5</vdop><extensions><gom:speed>0.07</gom:speed></extensions></trkpt>
   <trkpt lat="59.3262965905" lon="34.7022745233"><ele>163.645</ele><time>2026-08-17T02:54:57.648Z</time><hdop>3.0</hdop><vdop>2.5</vdop><extensions><gom:speed>0.213</gom:speed></extensions></trkpt>
   <trkpt lat="59.3262960876" lon="34.702274691"><ele>163.635</ele><time>2026-08-17T02:54:58.652Z</time><hdop>3.0</hdop><vdop>2.5</vdop><extensions><gom:speed>0.214</gom:speed></extensions></trkpt>
   <trkpt lat="59.3262958781" lon="34.7022745233"><ele>163.627</ele><time>2026-08-17T02:54:59.647Z</time><hdop>3.0</hdop><vdop>2.5</vdop><extensions><gom:speed>0.087</gom:speed></extensions></trkpt>
   <trkpt lat="59.3262957942" lon="34.7022747748"><ele>163.623</ele><time>2026-08-17T02:55:00.647Z</time><hdop>3.0</hdop><vdop>2.5</vdop><extensions><gom:speed>0.075</gom:speed></extensions></trkpt>
   <trkpt lat="59.3262955847" lon="34.7022747748"><ele>163.62</ele><time>2026-08-17T02:55:01.652Z</time><hdop>3.0</hdop><vdop>2.5</vdop><extensions><gom:speed>0.076</gom:speed></extensions></trkpt>
   <trkpt lat="59.3262955847" lon="34.7022749424"><ele>163.618</ele><time>2026-08-17T02:55:02.301Z</time><hdop>3.0</hdop><vdop>2.5</vdop><extensions><gom:speed>0.071</gom:speed></extensions></trkpt>
   <trkpt lat="59.3262947884" lon="34.7022753615"><ele>163.854</ele><time>2026-08-17T02:55:03.525Z</time><hdop>3.0</hdop><vdop>2.5</vdop><extensions><gom:speed>0.249</gom:speed></extensions></trkpt>
   <trkpt lat="59.3262934892" lon="34.702274691"><ele>164.19</ele><time>2026-08-17T02:55:04.567Z</time><hdop>3.0</hdop><vdop>2.5</vdop><extensions><gom:speed>0.349</gom:speed></extensions></trkpt>
   <trkpt lat="59.3262908908" lon="34.702273266"><ele>164.422</ele><time>2026-08-17T02:55:05.447Z</time><hdop>3.0</hdop><vdop>2.562</vdop><extensions><gom:speed>0.377</gom:speed></extensions></trkpt>
   <trkpt lat="59.3262862808" lon="34.7022702486"><ele>164.392</ele><time>2026-08-17T02:55:06.428Z</time><hdop>3.125</hdop><vdop>2.625</vdop><extensions><gom:speed>0.537</gom:speed></extensions></trkpt>
   <trkpt lat="59.3262823832" lon="34.7022639621"><ele>164.349</ele><time>2026-08-17T02:55:07.481Z</time><hdop>3.125</hdop><vdop>2.937</vdop><extensions><gom:speed>0.3</gom:speed></extensions></trkpt>
   <trkpt lat="59.3262794914" lon="34.702260777"><ele>164.705</ele><time>2026-08-17T02:55:08.652Z</time><hdop>3.125</hdop><vdop>2.812</vdop><extensions><gom:speed>0.126</gom:speed></extensions></trkpt>
   <trkpt lat="59.3262763901" lon="34.7022545744"><ele>165.03</ele><time>2026-08-17T02:55:09.652Z</time><hdop>3.062</hdop><vdop>2.687</vdop><extensions><gom:speed>0.109</gom:speed></extensions></trkpt>
   <trkpt lat="59.3262749652" lon="34.7022472821"><ele>165.126</ele><time>2026-08-17T02:55:10.658Z</time><hdop>3.062</hdop><vdop>2.812</vdop><extensions><gom:speed>0.106</gom:speed></extensions></trkpt>
   <trkpt lat="59.3262746719" lon="34.7022379782"><ele>165.204</ele><time>2026-08-17T02:55:11.647Z</time><hdop>3.0</hdop><vdop>2.75</vdop><extensions><gom:speed>0.115</gom:speed></extensions></trkpt>
   <trkpt lat="59.3262743785" lon="34.702238565"><ele>165.25</ele><time>2026-08-17T02:55:12.600Z</time><hdop>3.0</hdop><vdop>2.75</vdop><extensions><gom:speed>0.094</gom:speed></extensions></trkpt>
   <trkpt lat="59.3262750909" lon="34.7022346255"><ele>165.31</ele><time>2026-08-17T02:55:13.308Z</time><hdop>3.0</hdop><vdop>2.625</vdop><extensions><gom:speed>0.102</gom:speed></extensions></trkpt>
   <trkpt lat="59.3262750909" lon="34.7022301831"><ele>165.541</ele><time>2026-08-17T02:55:14.047Z</time><hdop>3.0</hdop><vdop>2.687</vdop><extensions><gom:speed>0.121</gom:speed></extensions></trkpt>
   <trkpt lat="59.3262749652" lon="34.7022242319"><ele>166.194</ele><time>2026-08-17T02:55:14.648Z</time><hdop>3.0</hdop><vdop>2.562</vdop><extensions><gom:speed>0.153</gom:speed></extensions></trkpt>
   <trkpt lat="59.3262747976" lon="34.7022238966"><ele>166.488</ele><time>2026-08-17T02:55:15.655Z</time><hdop>3.0</hdop><vdop>2.5</vdop><extensions><gom:speed>0.089</gom:speed></extensions></trkpt>
   <trkpt lat="59.326274588" lon="34.7022182808"><ele>166.664</ele><time>2026-08-17T02:55:16.202Z</time><hdop>3.0</hdop><vdop>2.5</vdop><extensions><gom:speed>0.119</gom:speed></extensions></trkpt>
   <trkpt lat="59.3262744623" lon="34.7022184484"><ele>166.763</ele><time>2026-08-17T02:55:16.652Z</time><hdop>3.0</hdop><vdop>2.687</vdop><extensions><gom:speed>0.077</gom:speed></extensions></trkpt>
   <trkpt lat="59.3262741689" lon="34.7022086416"><ele>166.688</ele><time>2026-08-17T02:55:17.652Z</time><hdop>3.0</hdop><vdop>2.625</vdop><extensions><gom:speed>0.08</gom:speed></extensions></trkpt>
   <trkpt lat="59.3262743785" lon="34.7021983318"><ele>166.997</ele><time>2026-08-17T02:55:18.652Z</time><hdop>3.0</hdop><vdop>2.687</vdop><extensions><gom:speed>0.076</gom:speed></extensions></trkpt>
   <trkpt lat="59.3262749652" lon="34.7021853399"><ele>167.182</ele><time>2026-08-17T02:55:19.581Z</time><hdop>3.0</hdop><vdop>2.687</vdop><extensions><gom:speed>0.143</gom:speed></extensions></trkpt>
   <trkpt lat="59.3262754681" lon="34.7021707554"><ele>167.417</ele><time>2026-08-17T02:55:20.401Z</time><hdop>3.0</hdop><vdop>2.875</vdop><extensions><gom:speed>0.185</gom:speed></extensions></trkpt>
   <trkpt lat="59.3262748814" lon="34.7021529857"><ele>167.57</ele><time>2026-08-17T02:55:21.180Z</time><hdop>3.0</hdop><vdop>2.75</vdop><extensions><gom:speed>0.273</gom:speed></extensions></trkpt>
   <trkpt lat="59.326273666" lon="34.7021402452"><ele>167.669</ele><time>2026-08-17T02:55:21.646Z</time><hdop>3.0</hdop><vdop>2.562</vdop><extensions><gom:speed>0.26</gom:speed></extensions></trkpt>
   <trkpt lat="59.3262733727" lon="34.7021416702"><ele>167.73</ele><time>2026-08-17T02:55:22.652Z</time><hdop>3.0</hdop><vdop>2.5</vdop><extensions><gom:speed>0.141</gom:speed></extensions></trkpt>
   <trkpt lat="59.3262718639" lon="34.7021279238"><ele>167.767</ele><time>2026-08-17T02:55:23.648Z</time><hdop>3.0</hdop><vdop>2.5</vdop><extensions><gom:speed>0.188</gom:speed></extensions></trkpt>
   <trkpt lat="59.3262673796" lon="34.7021131717"><ele>167.88</ele><time>2026-08-17T02:55:24.407Z</time><hdop>3.0</hdop><vdop>2.5</vdop><extensions><gom:speed>0.256</gom:speed></extensions></trkpt>
   <trkpt lat="59.3262612608" lon="34.7020967432"><ele>167.928</ele><time>2026-08-17T02:55:25.206Z</time><hdop>3.0</hdop><vdop>2.5</vdop><extensions><gom:speed>0.311</gom:speed></extensions></trkpt>
   <trkpt lat="59.3262541781" lon="34.702081069"><ele>167.892</ele><time>2026-08-17T02:55:25.965Z</time><hdop>3.0</hdop><vdop>2.5</vdop><extensions><gom:speed>0.377</gom:speed></extensions></trkpt>
   <trkpt lat="59.3262533818" lon="34.7020803984"><ele>167.654</ele><time>2026-08-17T02:55:26.652Z</time><hdop>3.0</hdop><vdop>2.5</vdop><extensions><gom:speed>0.266</gom:speed></extensions></trkpt>
   <trkpt lat="59.3262462991" lon="34.7020630479"><ele>167.513</ele><time>2026-08-17T02:55:27.564Z</time><hdop>3.0</hdop><vdop>2.5</vdop><extensions><gom:speed>0.345</gom:speed></extensions></trkpt>
   <trkpt lat="59.3262409766" lon="34.702042177"><ele>167.626</ele><time>2026-08-17T02:55:28.444Z</time><hdop>3.0</hdop><vdop>2.625</vdop><extensions><gom:speed>0.415</gom:speed></extensions></trkpt>
   <trkpt lat="59.3262395936" lon="34.7020268381"><ele>167.81</ele><time>2026-08-17T02:55:29.021Z</time><hdop>3.0</hdop><vdop>3.0</vdop><extensions><gom:speed>0.419</gom:speed></extensions></trkpt>
   <trkpt lat="59.3262396774" lon="34.7020246588"><ele>167.832</ele><time>2026-08-17T02:55:29.658Z</time><hdop>3.0</hdop><vdop>2.812</vdop><extensions><gom:speed>0.343</gom:speed></extensions></trkpt>
   <trkpt lat="59.3262392583" lon="34.7020101581"><ele>167.845</ele><time>2026-08-17T02:55:30.548Z</time><hdop>3.0</hdop><vdop>2.812</vdop><extensions><gom:speed>0.375</gom:speed></extensions></trkpt>
   <trkpt lat="59.3262419824" lon="34.7020028658"><ele>167.806</ele><time>2026-08-17T02:55:31.226Z</time><hdop>3.0</hdop><vdop>2.75</vdop><extensions><gom:speed>0.346</gom:speed></extensions></trkpt>
   <trkpt lat="59.3262475983" lon="34.7019947354"><ele>167.679</ele><time>2026-08-17T02:55:31.924Z</time><hdop>3.0</hdop><vdop>2.75</vdop><extensions><gom:speed>0.349</gom:speed></extensions></trkpt>
   <trkpt lat="59.3262470954" lon="34.7019911312"><ele>167.602</ele><time>2026-08-17T02:55:32.683Z</time><hdop>3.0</hdop><vdop>2.75</vdop><extensions><gom:speed>0.306</gom:speed></extensions></trkpt>
   <trkpt lat="59.3262563993" lon="34.7019733615"><ele>167.792</ele><time>2026-08-17T02:55:33.402Z</time><hdop>3.0</hdop><vdop>2.875</vdop><extensions><gom:speed>0.419</gom:speed></extensions></trkpt>
   <trkpt lat="59.3262622666" lon="34.7019615431"><ele>167.884</ele><time>2026-08-17T02:55:34.180Z</time><hdop>3.0</hdop><vdop>2.75</vdop><extensions><gom:speed>0.338</gom:speed></extensions></trkpt>
   <trkpt lat="59.326262099" lon="34.7019599505"><ele>167.869</ele><time>2026-08-17T02:55:34.652Z</time><hdop>3.0</hdop><vdop>2.937</vdop><extensions><gom:speed>0.284</gom:speed></extensions></trkpt>
   <trkpt lat="59.3262677987" lon="34.7019478806"><ele>167.861</ele><time>2026-08-17T02:55:35.121Z</time><hdop>3.0</hdop><vdop>2.937</vdop><extensions><gom:speed>0.366</gom:speed></extensions></trkpt>
   <trkpt lat="59.3262680921" lon="34.7019433543"><ele>167.855</ele><time>2026-08-17T02:55:35.647Z</time><hdop>3.0</hdop><vdop>2.937</vdop><extensions><gom:speed>0.375</gom:speed></extensions></trkpt>
   <trkpt lat="59.3262727859" lon="34.7019340504"><ele>167.77</ele><time>2026-08-17T02:55:36.427Z</time><hdop>3.0</hdop><vdop>2.75</vdop><extensions><gom:speed>0.33</gom:speed></extensions></trkpt>
   <trkpt lat="59.3262777732" lon="34.7019210585"><ele>167.722</ele><time>2026-08-17T02:55:37.307Z</time><hdop>3.0</hdop><vdop>2.875</vdop><extensions><gom:speed>0.374</gom:speed></extensions></trkpt>
   <trkpt lat="59.3262826766" lon="34.7019088209"><ele>168.177</ele><time>2026-08-17T02:55:38.500Z</time><hdop>3.0</hdop><vdop>2.937</vdop><extensions><gom:speed>0.329</gom:speed></extensions></trkpt>
   <trkpt lat="59.3262831795" lon="34.7019055519"><ele>168.355</ele><time>2026-08-17T02:55:39.652Z</time><hdop>3.0</hdop><vdop>3.187</vdop><extensions><gom:speed>0.197</gom:speed></extensions></trkpt>
   <trkpt lat="59.32628758" lon="34.7018928953"><ele>168.475</ele><time>2026-08-17T02:55:40.652Z</time><hdop>3.0</hdop><vdop>3.312</vdop><extensions><gom:speed>0.093</gom:speed></extensions></trkpt>
   <trkpt lat="59.3262919805" lon="34.7018873632"><ele>168.546</ele><time>2026-08-17T02:55:41.652Z</time><hdop>3.0</hdop><vdop>3.375</vdop><extensions><gom:speed>0.044</gom:speed></extensions></trkpt>
   <trkpt lat="59.326298686" lon="34.7018798195"><ele>168.588</ele><time>2026-08-17T02:55:42.647Z</time><hdop>3.0</hdop><vdop>3.437</vdop><extensions><gom:speed>0.105</gom:speed></extensions></trkpt>
   <trkpt lat="59.3263004881" lon="34.7018788975"><ele>168.614</ele><time>2026-08-17T02:55:43.647Z</time><hdop>3.0</hdop><vdop>3.5</vdop><extensions><gom:speed>0.071</gom:speed></extensions></trkpt>
   <trkpt lat="59.3263002786" lon="34.7018784784"><ele>168.628</ele><time>2026-08-17T02:55:44.652Z</time><hdop>3.0</hdop><vdop>3.562</vdop><extensions><gom:speed>0.018</gom:speed></extensions></trkpt>
   <trkpt lat="59.3263026674" lon="34.7018756286"><ele>168.734</ele><time>2026-08-17T02:55:45.652Z</time><hdop>3.0</hdop><vdop>3.812</vdop><extensions><gom:speed>0.036</gom:speed></extensions></trkpt>
   <trkpt lat="59.3263048886" lon="34.7018743713"><ele>168.797</ele><time>2026-08-17T02:55:46.655Z</time><hdop>3.0</hdop><vdop>3.812</vdop><extensions><gom:speed>0.075</gom:speed></extensions></trkpt>
   <trkpt lat="59.326306565" lon="34.7018714376"><ele>169.033</ele><time>2026-08-17T02:55:47.201Z</time><hdop>3.0</hdop><vdop>3.937</vdop><extensions><gom:speed>0.11</gom:speed></extensions></trkpt>
   <trkpt lat="59.3263090796" lon="34.7018656541"><ele>169.635</ele><time>2026-08-17T02:55:48.041Z</time><hdop>3.0</hdop><vdop>3.812</vdop><extensions><gom:speed>0.139</gom:speed></extensions></trkpt>
   <trkpt lat="59.3263094987" lon="34.7018632233"><ele>169.994</ele><time>2026-08-17T02:55:48.689Z</time><hdop>3.0</hdop><vdop>3.812</vdop><extensions><gom:speed>0.178</gom:speed></extensions></trkpt>
   <trkpt lat="59.3263132705" lon="34.7018534165"><ele>170.912</ele><time>2026-08-17T02:55:49.407Z</time><hdop>3.0</hdop><vdop>3.625</vdop><extensions><gom:speed>0.279</gom:speed></extensions></trkpt>
   <trkpt lat="59.3263172938" lon="34.7018435259"><ele>171.443</ele><time>2026-08-17T02:55:50.641Z</time><hdop>3.0</hdop><vdop>3.437</vdop><extensions><gom:speed>0.299</gom:speed></extensions></trkpt>
   <trkpt lat="59.3263233707" lon="34.7018310368"><ele>171.414</ele><time>2026-08-17T02:55:51.652Z</time><hdop>3.0</hdop><vdop>3.375</vdop><extensions><gom:speed>0.336</gom:speed></extensions></trkpt>
   <trkpt lat="59.3263259691" lon="34.7018279355"><ele>170.97</ele><time>2026-08-17T02:55:52.652Z</time><hdop>3.0</hdop><vdop>3.25</vdop><extensions><gom:speed>0.185</gom:speed></extensions></trkpt>
   <trkpt lat="59.3263261786" lon="34.7018250857"><ele>170.266</ele><time>2026-08-17T02:55:53.652Z</time><hdop>3.0</hdop><vdop>3.187</vdop><extensions><gom:speed>0.125</gom:speed></extensions></trkpt>
   <trkpt lat="59.3263255919" lon="34.7018224873"><ele>169.607</ele><time>2026-08-17T02:55:54.668Z</time><hdop>3.0</hdop><vdop>3.312</vdop><extensions><gom:speed>0.113</gom:speed></extensions></trkpt>
   <trkpt lat="59.3263246699" lon="34.7018190507"><ele>169.453</ele><time>2026-08-17T02:55:55.652Z</time><hdop>3.0</hdop><vdop>3.25</vdop><extensions><gom:speed>0.111</gom:speed></extensions></trkpt>
   <trkpt lat="59.3263233707" lon="34.701810585"><ele>169.345</ele><time>2026-08-17T02:55:56.647Z</time><hdop>3.0</hdop><vdop>3.312</vdop><extensions><gom:speed>0.119</gom:speed></extensions></trkpt>
   <trkpt lat="59.3263228678" lon="34.7018055558"><ele>169.285</ele><time>2026-08-17T02:55:57.647Z</time><hdop>3.0</hdop><vdop>3.375</vdop><extensions><gom:speed>0.107</gom:speed></extensions></trkpt>
   <trkpt lat="59.3263225744" lon="34.7018062264"><ele>169.258</ele><time>2026-08-17T02:55:58.654Z</time><hdop>3.0</hdop><vdop>3.375</vdop><extensions><gom:speed>0.029</gom:speed></extensions></trkpt>
   <trkpt lat="59.3263211914" lon="34.7017995209"><ele>169.248</ele><time>2026-08-17T02:55:59.646Z</time><hdop>3.0</hdop><vdop>3.312</vdop><extensions><gom:speed>0.064</gom:speed></extensions></trkpt>
   <trkpt lat="59.3263221972" lon="34.7017977607"><ele>169.256</ele><time>2026-08-17T02:56:00.652Z</time><hdop>3.0</hdop><vdop>3.312</vdop><extensions><gom:speed>0.014</gom:speed></extensions></trkpt>
   <trkpt lat="59.3263205628" lon="34.7017942403"><ele>169.27</ele><time>2026-08-17T02:56:01.647Z</time><hdop>3.0</hdop><vdop>3.25</vdop><extensions><gom:speed>0.058</gom:speed></extensions></trkpt>
   <trkpt lat="59.3263200599" lon="34.7017943241"><ele>169.283</ele><time>2026-08-17T02:56:02.652Z</time><hdop>3.0</hdop><vdop>3.062</vdop><extensions><gom:speed>0.036</gom:speed></extensions></trkpt>
   <trkpt lat="59.3263195989" lon="34.7017928992"><ele>169.471</ele><time>2026-08-17T02:56:03.652Z</time><hdop>3.0</hdop><vdop>3.0</vdop><extensions><gom:speed>0.027</gom:speed></extensions></trkpt>
   <trkpt lat="59.3263178806" lon="34.7017872833"><ele>169.514</ele><time>2026-08-17T02:56:04.647Z</time><hdop>3.0</hdop><vdop>2.687</vdop><extensions><gom:speed>0.086</gom:speed></extensions></trkpt>
   <trkpt lat="59.3263178806" lon="34.7017865289"><ele>169.54</ele><time>2026-08-17T02:56:05.180Z</time><hdop>3.0</hdop><vdop>2.687</vdop><extensions><gom:speed>0.085</gom:speed></extensions></trkpt>
   <trkpt lat="59.3263178806" lon="34.7017861936"><ele>170.011</ele><time>2026-08-17T02:56:05.652Z</time><hdop>3.0</hdop><vdop>3.0</vdop><extensions><gom:speed>0.072</gom:speed></extensions></trkpt>
   <trkpt lat="59.3263168747" lon="34.7017821703"><ele>170.293</ele><time>2026-08-17T02:56:06.161Z</time><hdop>3.0</hdop><vdop>3.0</vdop><extensions><gom:speed>0.1</gom:speed></extensions></trkpt>
   <trkpt lat="59.3263168747" lon="34.7017806616"><ele>170.415</ele><time>2026-08-17T02:56:06.647Z</time><hdop>3.0</hdop><vdop>2.937</vdop><extensions><gom:speed>0.138</gom:speed></extensions></trkpt>
   <trkpt lat="59.3263161623" lon="34.7017745428"><ele>170.488</ele><time>2026-08-17T02:56:07.569Z</time><hdop>3.0</hdop><vdop>2.937</vdop><extensions><gom:speed>0.161</gom:speed></extensions></trkpt>
   <trkpt lat="59.3263154917" lon="34.701770268"><ele>170.542</ele><time>2026-08-17T02:56:08.266Z</time><hdop>3.0</hdop><vdop>2.937</vdop><extensions><gom:speed>0.175</gom:speed></extensions></trkpt>
   <trkpt lat="59.3263150726" lon="34.7017607965"><ele>170.334</ele><time>2026-08-17T02:56:09.208Z</time><hdop>3.0</hdop><vdop>2.875</vdop><extensions><gom:speed>0.187</gom:speed></extensions></trkpt>
   <trkpt lat="59.3263167909" lon="34.7017453738"><ele>170.307</ele><time>2026-08-17T02:56:10.026Z</time><hdop>3.0</hdop><vdop>2.937</vdop><extensions><gom:speed>0.277</gom:speed></extensions></trkpt>
   <trkpt lat="59.3263173776" lon="34.7017416857"><ele>169.8</ele><time>2026-08-17T02:56:10.652Z</time><hdop>3.0</hdop><vdop>3.062</vdop><extensions><gom:speed>0.303</gom:speed></extensions></trkpt>
   <trkpt lat="59.3263214848" lon="34.7017094992"><ele>169.52</ele><time>2026-08-17T02:56:11.647Z</time><hdop>3.0</hdop><vdop>2.875</vdop><extensions><gom:speed>0.331</gom:speed></extensions></trkpt>
   <trkpt lat="59.3263213591" lon="34.7017062303"><ele>169.351</ele><time>2026-08-17T02:56:12.652Z</time><hdop>3.0</hdop><vdop>2.875</vdop><extensions><gom:speed>0.225</gom:speed></extensions></trkpt>
   <trkpt lat="59.3263213591" lon="34.7017002791"><ele>169.249</ele><time>2026-08-17T02:56:13.652Z</time><hdop>3.0</hdop><vdop>2.937</vdop><extensions><gom:speed>0.12</gom:speed></extensions></trkpt>
   <trkpt lat="59.3263221972" lon="34.701694328"><ele>169.083</ele><time>2026-08-17T02:56:14.652Z</time><hdop>3.0</hdop><vdop>2.812</vdop><extensions><gom:speed>0.099</gom:speed></extensions></trkpt>
   <trkpt lat="59.3263229935" lon="34.701687371"><ele>168.983</ele><time>2026-08-17T02:56:15.348Z</time><hdop>3.0</hdop><vdop>2.812</vdop><extensions><gom:speed>0.18</gom:speed></extensions></trkpt>
   <trkpt lat="59.3263235803" lon="34.7016789891"><ele>168.823</ele><time>2026-08-17T02:56:15.845Z</time><hdop>3.0</hdop><vdop>3.0</vdop><extensions><gom:speed>0.157</gom:speed></extensions></trkpt>
   <trkpt lat="59.3263234964" lon="34.7016771451"><ele>168.532</ele><time>2026-08-17T02:56:16.663Z</time><hdop>3.0</hdop><vdop>3.125</vdop><extensions><gom:speed>0.169</gom:speed></extensions></trkpt>
   <trkpt lat="59.3263249633" lon="34.7016633988"><ele>168.266</ele><time>2026-08-17T02:56:17.675Z</time><hdop>3.0</hdop><vdop>3.375</vdop><extensions><gom:speed>0.265</gom:speed></extensions></trkpt>
   <trkpt lat="59.3263286932" lon="34.7016339783"><ele>168.107</ele><time>2026-08-17T02:56:18.525Z</time><hdop>3.0</hdop><vdop>3.375</vdop><extensions><gom:speed>0.479</gom:speed></extensions></trkpt>
   <trkpt lat="59.3263342672" lon="34.7016059827"><ele>168.155</ele><time>2026-08-17T02:56:19.263Z</time><hdop>3.0</hdop><vdop>3.312</vdop><extensions><gom:speed>0.595</gom:speed></extensions></trkpt>
   <trkpt lat="59.3263388772" lon="34.7015847765"><ele>167.855</ele><time>2026-08-17T02:56:20.042Z</time><hdop>3.0</hdop><vdop>3.125</vdop><extensions><gom:speed>0.526</gom:speed></extensions></trkpt>
   <trkpt lat="59.3263404698" lon="34.7015726228"><ele>167.66</ele><time>2026-08-17T02:56:20.647Z</time><hdop>3.0</hdop><vdop>3.125</vdop><extensions><gom:speed>0.414</gom:speed></extensions></trkpt>
   <trkpt lat="59.3263397992" lon="34.7015663363"><ele>167.54</ele><time>2026-08-17T02:56:21.652Z</time><hdop>3.0</hdop><vdop>3.062</vdop><extensions><gom:speed>0.33</gom:speed></extensions></trkpt>
   <trkpt lat="59.3263391706" lon="34.7015588764"><ele>167.114</ele><time>2026-08-17T02:56:22.653Z</time><hdop>3.0</hdop><vdop>3.062</vdop><extensions><gom:speed>0.267</gom:speed></extensions></trkpt>
   <trkpt lat="59.3263377876" lon="34.7015582897"><ele>166.859</ele><time>2026-08-17T02:56:23.685Z</time><hdop>3.0</hdop><vdop>3.062</vdop><extensions><gom:speed>0.174</gom:speed></extensions></trkpt>
   <trkpt lat="59.3263364884" lon="34.7015583735"><ele>166.417</ele><time>2026-08-17T02:56:24.656Z</time><hdop>3.0</hdop><vdop>3.125</vdop><extensions><gom:speed>0.111</gom:speed></extensions></trkpt>
   <trkpt lat="59.3263334709" lon="34.7015647438"><ele>166.131</ele><time>2026-08-17T02:56:25.647Z</time><hdop>3.0</hdop><vdop>2.937</vdop><extensions><gom:speed>0.119</gom:speed></extensions></trkpt>
   <trkpt lat="59.3263331775" lon="34.7015642408"><ele>165.857</ele><time>2026-08-17T02:56:26.652Z</time><hdop>3.0</hdop><vdop>3.125</vdop><extensions><gom:speed>0.073</gom:speed></extensions></trkpt>
   <trkpt lat="59.3263305791" lon="34.7015679289"><ele>165.693</ele><time>2026-08-17T02:56:27.367Z</time><hdop>3.0</hdop><vdop>3.125</vdop><extensions><gom:speed>0.118</gom:speed></extensions></trkpt>
   <trkpt lat="59.3263278969" lon="34.7015739639"><ele>165.768</ele><time>2026-08-17T02:56:28.308Z</time><hdop>3.0</hdop><vdop>3.25</vdop><extensions><gom:speed>0.099</gom:speed></extensions></trkpt>
   <trkpt lat="59.3263256757" lon="34.7015803341"><ele>165.797</ele><time>2026-08-17T02:56:29.654Z</time><hdop>3.0</hdop><vdop>3.25</vdop><extensions><gom:speed>0.097</gom:speed></extensions></trkpt>
   <trkpt lat="59.3263215686" lon="34.7015932422"><ele>165.8</ele><time>2026-08-17T02:56:30.647Z</time><hdop>3.0</hdop><vdop>3.312</vdop><extensions><gom:speed>0.114</gom:speed></extensions></trkpt>
   <trkpt lat="59.3263216943" lon="34.7015913982"><ele>165.805</ele><time>2026-08-17T02:56:31.652Z</time><hdop>3.0</hdop><vdop>3.25</vdop><extensions><gom:speed>0.116</gom:speed></extensions></trkpt>
   <trkpt lat="59.3263172938" lon="34.7015999478"><ele>165.808</ele><time>2026-08-17T02:56:32.647Z</time><hdop>3.0</hdop><vdop>3.187</vdop><extensions><gom:speed>0.126</gom:speed></extensions></trkpt>
   <trkpt lat="59.3263169586" lon="34.701599361"><ele>165.811</ele><time>2026-08-17T02:56:33.660Z</time><hdop>3.0</hdop><vdop>3.125</vdop><extensions><gom:speed>0.048</gom:speed></extensions></trkpt>
   <trkpt lat="59.3263146954" lon="34.7016017918"><ele>165.815</ele><time>2026-08-17T02:56:34.652Z</time><hdop>3.0</hdop><vdop>3.125</vdop><extensions><gom:speed>0.032</gom:speed></extensions></trkpt>
   <trkpt lat="59.3263107979" lon="34.7016051445"><ele>165.733</ele><time>2026-08-17T02:56:35.647Z</time><hdop>3.0</hdop><vdop>3.062</vdop><extensions><gom:speed>0.059</gom:speed></extensions></trkpt>
   <trkpt lat="59.3263104626" lon="34.7016030491"><ele>165.683</ele><time>2026-08-17T02:56:36.652Z</time><hdop>3.0</hdop><vdop>3.0</vdop><extensions><gom:speed>0.017</gom:speed></extensions></trkpt>
   <trkpt lat="59.3263079899" lon="34.7016045578"><ele>165.652</ele><time>2026-08-17T02:56:37.647Z</time><hdop>3.0</hdop><vdop>2.812</vdop><extensions><gom:speed>0.069</gom:speed></extensions></trkpt>
   <trkpt lat="59.3263086605" lon="34.7016046416"><ele>165.633</ele><time>2026-08-17T02:56:38.659Z</time><hdop>3.0</hdop><vdop>2.75</vdop><extensions><gom:speed>0.013</gom:speed></extensions></trkpt>
   <trkpt lat="59.3263058944" lon="34.7016066533"><ele>165.621</ele><time>2026-08-17T02:56:39.647Z</time><hdop>3.0</hdop><vdop>2.812</vdop><extensions><gom:speed>0.064</gom:speed></extensions></trkpt>
   <trkpt lat="59.3263053915" lon="34.7016074915"><ele>165.614</ele><time>2026-08-17T02:56:40.661Z</time><hdop>3.0</hdop><vdop>2.812</vdop><extensions><gom:speed>0.018</gom:speed></extensions></trkpt>
   <trkpt lat="59.3263043857" lon="34.7016084973"><ele>165.607</ele><time>2026-08-17T02:56:41.652Z</time><hdop>3.0</hdop><vdop>3.0</vdop><extensions><gom:speed>0.024</gom:speed></extensions></trkpt>
   <trkpt lat="59.326303799" lon="34.7016087488"><ele>165.603</ele><time>2026-08-17T02:56:42.442Z</time><hdop>3.0</hdop><vdop>3.0</vdop><extensions><gom:speed>0.066</gom:speed></extensions></trkpt>
   <trkpt lat="59.326303799" lon="34.7016092517"><ele>165.601</ele><time>2026-08-17T02:56:43.656Z</time><hdop>3.0</hdop><vdop>2.812</vdop><extensions><gom:speed>0.035</gom:speed></extensions></trkpt>
   <trkpt lat="59.3263025836" lon="34.7016095869"><ele>165.6</ele><time>2026-08-17T02:56:44.647Z</time><hdop>3.0</hdop><vdop>2.687</vdop><extensions><gom:speed>0.07</gom:speed></extensions></trkpt>
   <trkpt lat="59.3263020807" lon="34.7016101737"><ele>165.599</ele><time>2026-08-17T02:56:45.647Z</time><hdop>3.0</hdop><vdop>2.625</vdop><extensions><gom:speed>0.096</gom:speed></extensions></trkpt>
   <trkpt lat="59.3263024998" lon="34.7016107604"><ele>165.598</ele><time>2026-08-17T02:56:46.652Z</time><hdop>3.0</hdop><vdop>2.625</vdop><extensions><gom:speed>0.037</gom:speed></extensions></trkpt>
   <trkpt lat="59.3263021645" lon="34.7016110957"><ele>165.596</ele><time>2026-08-17T02:56:47.647Z</time><hdop>3.0</hdop><vdop>2.5</vdop><extensions><gom:speed>0.014</gom:speed></extensions></trkpt>
   <trkpt lat="59.3263021645" lon="34.7016108442"><ele>165.593</ele><time>2026-08-17T02:56:48.654Z</time><hdop>3.0</hdop><vdop>2.5</vdop><extensions><gom:speed>0.015</gom:speed></extensions></trkpt>
   <trkpt lat="59.3263018711" lon="34.7016107604"><ele>165.589</ele><time>2026-08-17T02:56:49.647Z</time><hdop>3.0</hdop><vdop>2.5</vdop><extensions><gom:speed>0.032</gom:speed></extensions></trkpt>
   <trkpt lat="59.3263018711" lon="34.7016102575"><ele>165.584</ele><time>2026-08-17T02:56:50.652Z</time><hdop>3.0</hdop><vdop>2.5</vdop><extensions><gom:speed>0.032</gom:speed></extensions></trkpt>
   <trkpt lat="59.3263015778" lon="34.7016100899"><ele>165.58</ele><time>2026-08-17T02:56:51.647Z</time><hdop>3.0</hdop><vdop>2.5</vdop><extensions><gom:speed>0.044</gom:speed></extensions></trkpt>
   <trkpt lat="59.3263015778" lon="34.7016094193"><ele>165.577</ele><time>2026-08-17T02:56:52.661Z</time><hdop>3.0</hdop><vdop>2.5</vdop><extensions><gom:speed>0.045</gom:speed></extensions></trkpt>
   <trkpt lat="59.3263015778" lon="34.7016089164"><ele>165.576</ele><time>2026-08-17T02:56:53.672Z</time><hdop>3.0</hdop><vdop>2.5</vdop><extensions><gom:speed>0.048</gom:speed></extensions></trkpt>
   <trkpt lat="59.3263014939" lon="34.7016086649"><ele>165.575</ele><time>2026-08-17T02:56:54.652Z</time><hdop>3.0</hdop><vdop>2.5</vdop><extensions><gom:speed>0.048</gom:speed></extensions></trkpt>
   <trkpt lat="59.3263014939" lon="34.7016086649"><ele>165.576</ele><time>2026-08-17T02:56:55.648Z</time><hdop>3.0</hdop><vdop>2.5</vdop><extensions><gom:speed>0.058</gom:speed></extensions></trkpt>
   <trkpt lat="59.3263015778" lon="34.701608162"><ele>165.576</ele><time>2026-08-17T02:56:56.546Z</time><hdop>3.0</hdop><vdop>2.5</vdop><extensions><gom:speed>0.058</gom:speed></extensions></trkpt>
   <trkpt lat="59.3263014939" lon="34.7016077429"><ele>165.684</ele><time>2026-08-17T02:56:57.660Z</time><hdop>3.0</hdop><vdop>2.5</vdop><extensions><gom:speed>0.059</gom:speed></extensions></trkpt>
   <trkpt lat="59.3263014939" lon="34.7016045578"><ele>165.945</ele><time>2026-08-17T02:56:58.647Z</time><hdop>3.0</hdop><vdop>2.5</vdop><extensions><gom:speed>0.107</gom:speed></extensions></trkpt>
   <trkpt lat="59.3263013682" lon="34.7016033843"><ele>166.124</ele><time>2026-08-17T02:56:59.653Z</time><hdop>3.0</hdop><vdop>2.5</vdop><extensions><gom:speed>0.108</gom:speed></extensions></trkpt>
   <trkpt lat="59.3263012844" lon="34.7016023785"><ele>166.23</ele><time>2026-08-17T02:57:00.652Z</time><hdop>3.0</hdop><vdop>2.5</vdop><extensions><gom:speed>0.084</gom:speed></extensions></trkpt>
   <trkpt lat="59.3263008653" lon="34.7016009536"><ele>165.951</ele><time>2026-08-17T02:57:01.647Z</time><hdop>3.0</hdop><vdop>2.5</vdop><extensions><gom:speed>0.122</gom:speed></extensions></trkpt>
   <trkpt lat="59.3263006977" lon="34.7015995287"><ele>165.787</ele><time>2026-08-17T02:57:02.652Z</time><hdop>3.0</hdop><vdop>2.5</vdop><extensions><gom:speed>0.122</gom:speed></extensions></trkpt>
   <trkpt lat="59.3263004881" lon="34.7015981876"><ele>165.689</ele><time>2026-08-17T02:57:03.668Z</time><hdop>3.0</hdop><vdop>2.5</vdop><extensions><gom:speed>0.096</gom:speed></extensions></trkpt>
   <trkpt lat="59.3263002786" lon="34.7015969303"><ele>165.63</ele><time>2026-08-17T02:57:04.652Z</time><hdop>3.0</hdop><vdop>2.5</vdop><extensions><gom:speed>0.086</gom:speed></extensions></trkpt>
   <trkpt lat="59.326300069" lon="34.7015957568"><ele>165.594</ele><time>2026-08-17T02:57:05.652Z</time><hdop>3.0</hdop><vdop>2.625</vdop><extensions><gom:speed>0.081</gom:speed></extensions></trkpt>
   <trkpt lat="59.326300069" lon="34.701594751"><ele>165.572</ele><time>2026-08-17T02:57:06.652Z</time><hdop>3.0</hdop><vdop>2.625</vdop><extensions><gom:speed>0.078</gom:speed></extensions></trkpt>
   <trkpt lat="59.3262999852" lon="34.7015937451"><ele>165.558</ele><time>2026-08-17T02:57:07.656Z</time><hdop>3.0</hdop><vdop>2.625</vdop><extensions><gom:speed>0.077</gom:speed></extensions></trkpt>
   <trkpt lat="59.3262998595" lon="34.7015926555"><ele>165.55</ele><time>2026-08-17T02:57:08.652Z</time><hdop>3.0</hdop><vdop>2.562</vdop><extensions><gom:speed>0.076</gom:speed></extensions></trkpt>
   <trkpt lat="59.326300069" lon="34.7015917335"><ele>165.545</ele><time>2026-08-17T02:57:09.647Z</time><hdop>3.0</hdop><vdop>2.5</vdop><extensions><gom:speed>0.073</gom:speed></extensions></trkpt>
   <trkpt lat="59.326300069" lon="34.7015909791"><ele>165.542</ele><time>2026-08-17T02:57:10.647Z</time><hdop>3.0</hdop><vdop>2.5</vdop><extensions><gom:speed>0.072</gom:speed></extensions></trkpt>
   <trkpt lat="59.326300069" lon="34.7015900571"><ele>165.541</ele><time>2026-08-17T02:57:11.647Z</time><hdop>3.0</hdop><vdop>2.5</vdop><extensions><gom:speed>0.075</gom:speed></extensions></trkpt>
   <trkpt lat="59.3262999852" lon="34.7015893866"><ele>165.541</ele><time>2026-08-17T02:57:12.653Z</time><hdop>3.0</hdop><vdop>2.5</vdop><extensions><gom:speed>0.075</gom:speed></extensions></trkpt>
   <trkpt lat="59.3262999852" lon="34.7015884645"><ele>165.541</ele><time>2026-08-17T02:57:13.647Z</time><hdop>3.0</hdop><vdop>2.5</vdop><extensions><gom:speed>0.077</gom:speed></extensions></trkpt>
   <trkpt lat="59.3262998595" lon="34.7015875425"><ele>165.541</ele><time>2026-08-17T02:57:14.652Z</time><hdop>3.0</hdop><vdop>2.5</vdop><extensions><gom:speed>0.077</gom:speed></extensions></trkpt>
   <trkpt lat="59.3262998595" lon="34.7015869558"><ele>165.541</ele><time>2026-08-17T02:57:15.647Z</time><hdop>3.0</hdop><vdop>2.5</vdop><extensions><gom:speed>0.077</gom:speed></extensions></trkpt>
   <trkpt lat="59.3262997757" lon="34.7015860338"><ele>165.54</ele><time>2026-08-17T02:57:16.648Z</time><hdop>3.0</hdop><vdop>2.5</vdop><extensions><gom:speed>0.076</gom:speed></extensions></trkpt>
   <trkpt lat="59.3262996918" lon="34.7015851956"><ele>165.539</ele><time>2026-08-17T02:57:17.652Z</time><hdop>3.0</hdop><vdop>2.5</vdop><extensions><gom:speed>0.076</gom:speed></extensions></trkpt>
   <trkpt lat="59.3262995661" lon="34.7015844412"><ele>165.539</ele><time>2026-08-17T02:57:18.652Z</time><hdop>3.0</hdop><vdop>2.5</vdop><extensions><gom:speed>0.077</gom:speed></extensions></trkpt>
   <trkpt lat="59.3262995661" lon="34.7015836869"><ele>165.539</ele><time>2026-08-17T02:57:19.652Z</time><hdop>3.0</hdop><vdop>2.5</vdop><extensions><gom:speed>0.074</gom:speed></extensions></trkpt>
   <trkpt lat="59.3262995661" lon="34.7015830163"><ele>165.539</ele><time>2026-08-17T02:57:20.665Z</time><hdop>3.0</hdop><vdop>2.5</vdop><extensions><gom:speed>0.075</gom:speed></extensions></trkpt>
   <trkpt lat="59.3262996918" lon="34.7015825972"><ele>165.541</ele><time>2026-08-17T02:57:21.657Z</time><hdop>3.0</hdop><vdop>2.5</vdop><extensions><gom:speed>0.077</gom:speed></extensions></trkpt>
   <trkpt lat="59.3262999852" lon="34.7015820943"><ele>165.474</ele><time>2026-08-17T02:57:22.652Z</time><hdop>3.0</hdop><vdop>2.5</vdop><extensions><gom:speed>0.075</gom:speed></extensions></trkpt>
   <trkpt lat="59.3262996918" lon="34.7015802503"><ele>165.325</ele><time>2026-08-17T02:57:23.660Z</time><hdop>3.0</hdop><vdop>2.5</vdop><extensions><gom:speed>0.253</gom:speed></extensions></trkpt>
   <trkpt lat="59.3262978897" lon="34.7015792445"><ele>165.022</ele><time>2026-08-17T02:57:24.647Z</time><hdop>3.0</hdop><vdop>2.562</vdop><extensions><gom:speed>0.207</gom:speed></extensions></trkpt>
   <trkpt lat="59.326297764" lon="34.701578071"><ele>164.841</ele><time>2026-08-17T02:57:25.249Z</time><hdop>3.0</hdop><vdop>2.562</vdop><extensions><gom:speed>0.208</gom:speed></extensions></trkpt>
   <trkpt lat="59.3262964648" lon="34.7015765622"><ele>164.646</ele><time>2026-08-17T02:57:26.655Z</time><hdop>3.0</hdop><vdop>2.687</vdop><extensions><gom:speed>0.206</gom:speed></extensions></trkpt>
   <trkpt lat="59.3262932797" lon="34.7015749697"><ele>164.636</ele><time>2026-08-17T02:57:27.647Z</time><hdop>3.0</hdop><vdop>2.812</vdop><extensions><gom:speed>0.324</gom:speed></extensions></trkpt>
   <trkpt lat="59.3262928606" lon="34.7015714493"><ele>164.798</ele><time>2026-08-17T02:57:28.652Z</time><hdop>3.0</hdop><vdop>2.875</vdop><extensions><gom:speed>0.325</gom:speed></extensions></trkpt>
   <trkpt lat="59.3262901784" lon="34.7015672583"><ele>164.892</ele><time>2026-08-17T02:57:29.670Z</time><hdop>3.0</hdop><vdop>3.0</vdop><extensions><gom:speed>0.119</gom:speed></extensions></trkpt>
   <trkpt lat="59.3262842691" lon="34.7015578706"><ele>164.957</ele><time>2026-08-17T02:57:30.648Z</time><hdop>3.0</hdop><vdop>3.312</vdop><extensions><gom:speed>0.095</gom:speed></extensions></trkpt>
   <trkpt lat="59.3262838919" lon="34.7015565295"><ele>165.001</ele><time>2026-08-17T02:57:31.652Z</time><hdop>3.0</hdop><vdop>3.312</vdop><extensions><gom:speed>0.096</gom:speed></extensions></trkpt>
   <trkpt lat="59.3262813774" lon="34.7015520871"><ele>165.035</ele><time>2026-08-17T02:57:32.653Z</time><hdop>3.0</hdop><vdop>3.125</vdop><extensions><gom:speed>0.093</gom:speed></extensions></trkpt>
   <trkpt lat="59.3262793657" lon="34.7015472256"><ele>165.052</ele><time>2026-08-17T02:57:33.652Z</time><hdop>3.0</hdop><vdop>3.0</vdop><extensions><gom:speed>0.096</gom:speed></extensions></trkpt>
   <trkpt lat="59.3262771864" lon="34.7015399333"><ele>165.058</ele><time>2026-08-17T02:57:34.647Z</time><hdop>3.0</hdop><vdop>2.937</vdop><extensions><gom:speed>0.101</gom:speed></extensions></trkpt>
   <trkpt lat="59.3262761806" lon="34.7015363291"><ele>165.057</ele><time>2026-08-17T02:57:35.646Z</time><hdop>3.0</hdop><vdop>2.812</vdop><extensions><gom:speed>0.101</gom:speed></extensions></trkpt>
   <trkpt lat="59.3262750909" lon="34.7015326411"><ele>165.053</ele><time>2026-08-17T02:57:36.647Z</time><hdop>3.0</hdop><vdop>2.812</vdop><extensions><gom:speed>0.101</gom:speed></extensions></trkpt>
   <trkpt lat="59.326274588" lon="34.7015313838"><ele>165.044</ele><time>2026-08-17T02:57:37.652Z</time><hdop>3.0</hdop><vdop>2.75</vdop><extensions><gom:speed>0.102</gom:speed></extensions></trkpt>
   <trkpt lat="59.326273666" lon="34.7015286178"><ele>165.034</ele><time>2026-08-17T02:57:38.654Z</time><hdop>3.0</hdop><vdop>2.75</vdop><extensions><gom:speed>0.105</gom:speed></extensions></trkpt>
   <trkpt lat="59.3262724926" lon="34.7015254326"><ele>165.021</ele><time>2026-08-17T02:57:39.646Z</time><hdop>3.0</hdop><vdop>2.875</vdop><extensions><gom:speed>0.107</gom:speed></extensions></trkpt>
   <trkpt lat="59.3262718639" lon="34.7015242592"><ele>165.009</ele><time>2026-08-17T02:57:40.652Z</time><hdop>3.0</hdop><vdop>2.812</vdop><extensions><gom:speed>0.107</gom:speed></extensions></trkpt>
   <trkpt lat="59.3262707743" lon="34.7015221637"><ele>165.0</ele><time>2026-08-17T02:57:41.647Z</time><hdop>3.0</hdop><vdop>2.812</vdop><extensions><gom:speed>0.108</gom:speed></extensions></trkpt>
   <trkpt lat="59.3262700618" lon="34.7015207388"><ele>164.99</ele><time>2026-08-17T02:57:42.647Z</time><hdop>3.0</hdop><vdop>2.812</vdop><extensions><gom:speed>0.107</gom:speed></extensions></trkpt>
   <trkpt lat="59.3262694751" lon="34.7015195653"><ele>164.979</ele><time>2026-08-17T02:57:43.653Z</time><hdop>3.0</hdop><vdop>2.75</vdop><extensions><gom:speed>0.107</gom:speed></extensions></trkpt>
   <trkpt lat="59.3262687626" lon="34.7015183918"><ele>164.967</ele><time>2026-08-17T02:57:44.648Z</time><hdop>3.0</hdop><vdop>2.625</vdop><extensions><gom:speed>0.103</gom:speed></extensions></trkpt>
   <trkpt lat="59.3262682597" lon="34.7015172184"><ele>164.958</ele><time>2026-08-17T02:57:45.655Z</time><hdop>3.0</hdop><vdop>2.562</vdop><extensions><gom:speed>0.103</gom:speed></extensions></trkpt>
   <trkpt lat="59.3262679663" lon="34.7015162964"><ele>164.95</ele><time>2026-08-17T02:57:46.652Z</time><hdop>3.0</hdop><vdop>2.5</vdop><extensions><gom:speed>0.099</gom:speed></extensions></trkpt>
   <trkpt lat="59.3262675891" lon="34.7015153744"><ele>164.943</ele><time>2026-08-17T02:57:47.652Z</time><hdop>3.0</hdop><vdop>2.5</vdop><extensions><gom:speed>0.096</gom:speed></extensions></trkpt>
   <trkpt lat="59.3262673796" lon="34.7015147876"><ele>164.938</ele><time>2026-08-17T02:57:48.647Z</time><hdop>3.0</hdop><vdop>2.5</vdop><extensions><gom:speed>0.09</gom:speed></extensions></trkpt>
   <trkpt lat="59.3262668767" lon="34.7015138656"><ele>164.933</ele><time>2026-08-17T02:57:49.652Z</time><hdop>3.0</hdop><vdop>2.5</vdop><extensions><gom:speed>0.09</gom:speed></extensions></trkpt>
   <trkpt lat="59.3262666671" lon="34.7015132789"><ele>164.93</ele><time>2026-08-17T02:57:50.653Z</time><hdop>3.0</hdop><vdop>2.5</vdop><extensions><gom:speed>0.089</gom:speed></extensions></trkpt>
   <trkpt lat="59.3262667929" lon="34.7015128598"><ele>164.93</ele><time>2026-08-17T02:57:51.647Z</time><hdop>3.0</hdop><vdop>2.5</vdop><extensions><gom:speed>0.085</gom:speed></extensions></trkpt>
   <trkpt lat="59.3262664995" lon="34.7015120216"><ele>164.93</ele><time>2026-08-17T02:57:52.652Z</time><hdop>3.0</hdop><vdop>2.5</vdop><extensions><gom:speed>0.085</gom:speed></extensions></trkpt>
   <trkpt lat="59.3262662899" lon="34.701511854"><ele>164.929</ele><time>2026-08-17T02:57:53.647Z</time><hdop>3.0</hdop><vdop>2.5</vdop><extensions><gom:speed>0.082</gom:speed></extensions></trkpt>
   <trkpt lat="59.3262658709" lon="34.7015110996"><ele>164.928</ele><time>2026-08-17T02:57:54.660Z</time><hdop>3.0</hdop><vdop>2.5</vdop><extensions><gom:speed>0.083</gom:speed></extensions></trkpt>
   <trkpt lat="59.326265787" lon="34.7015108481"><ele>164.932</ele><time>2026-08-17T02:57:55.648Z</time><hdop>3.0</hdop><vdop>2.5</vdop><extensions><gom:speed>0.081</gom:speed></extensions></trkpt>
   <trkpt lat="59.3262654937" lon="34.7015101776"><ele>164.949</ele><time>2026-08-17T02:57:56.652Z</time><hdop>3.0</hdop><vdop>2.687</vdop><extensions><gom:speed>0.082</gom:speed></extensions></trkpt>
   <trkpt lat="59.3262652841" lon="34.7015096747"><ele>164.973</ele><time>2026-08-17T02:57:57.652Z</time><hdop>3.0</hdop><vdop>2.812</vdop><extensions><gom:speed>0.081</gom:speed></extensions></trkpt>
   <trkpt lat="59.3262654937" lon="34.7015096747"><ele>165.0</ele><time>2026-08-17T02:57:58.646Z</time><hdop>3.0</hdop><vdop>2.875</vdop><extensions><gom:speed>0.079</gom:speed></extensions></trkpt>
   <trkpt lat="59.3262651584" lon="34.7015090879"><ele>165.031</ele><time>2026-08-17T02:57:59.658Z</time><hdop>3.0</hdop><vdop>3.0</vdop><extensions><gom:speed>0.079</gom:speed></extensions></trkpt>
   <trkpt lat="59.3262651584" lon="34.701508585"><ele>165.064</ele><time>2026-08-17T02:58:00.652Z</time><hdop>3.0</hdop><vdop>3.125</vdop><extensions><gom:speed>0.079</gom:speed></extensions></trkpt>
   <trkpt lat="59.3262654937" lon="34.7015084174"><ele>165.097</ele><time>2026-08-17T02:58:01.647Z</time><hdop>3.0</hdop><vdop>3.25</vdop><extensions><gom:speed>0.075</gom:speed></extensions></trkpt>
   <trkpt lat="59.3262652841" lon="34.7015078306"><ele>165.128</ele><time>2026-08-17T02:58:02.652Z</time><hdop>3.0</hdop><vdop>3.312</vdop><extensions><gom:speed>0.076</gom:speed></extensions></trkpt>
   <trkpt lat="59.3262653679" lon="34.7015074954"><ele>165.157</ele><time>2026-08-17T02:58:03.652Z</time><hdop>3.0</hdop><vdop>3.125</vdop><extensions><gom:speed>0.077</gom:speed></extensions></trkpt>
   <trkpt lat="59.3262658709" lon="34.7015075792"><ele>165.177</ele><time>2026-08-17T02:58:04.647Z</time><hdop>3.0</hdop><vdop>3.125</vdop><extensions><gom:speed>0.078</gom:speed></extensions></trkpt>
   <trkpt lat="59.3262656613" lon="34.7015069924"><ele>165.191</ele><time>2026-08-17T02:58:05.667Z</time><hdop>3.0</hdop><vdop>3.187</vdop><extensions><gom:speed>0.078</gom:speed></extensions></trkpt>
   <trkpt lat="59.3262659966" lon="34.701506741"><ele>165.202</ele><time>2026-08-17T02:58:06.652Z</time><hdop>3.0</hdop><vdop>3.125</vdop><extensions><gom:speed>0.076</gom:speed></extensions></trkpt>
   <trkpt lat="59.3262663738" lon="34.701506741"><ele>165.211</ele><time>2026-08-17T02:58:07.647Z</time><hdop>3.0</hdop><vdop>3.125</vdop><extensions><gom:speed>0.074</gom:speed></extensions></trkpt>
   <trkpt lat="59.3262662899" lon="34.7015060704"><ele>165.219</ele><time>2026-08-17T02:58:08.653Z</time><hdop>3.0</hdop><vdop>3.0</vdop><extensions><gom:speed>0.074</gom:speed></extensions></trkpt>
   <trkpt lat="59.3262664995" lon="34.7015057352"><ele>165.226</ele><time>2026-08-17T02:58:09.654Z</time><hdop>3.0</hdop><vdop>2.937</vdop><extensions><gom:speed>0.072</gom:speed></extensions></trkpt>
   <trkpt lat="59.3262663738" lon="34.7015054837"><ele>165.227</ele><time>2026-08-17T02:58:10.653Z</time><hdop>3.0</hdop><vdop>2.812</vdop><extensions><gom:speed>0.073</gom:speed></extensions></trkpt>
   <trkpt lat="59.3262664995" lon="34.7015050646"><ele>165.227</ele><time>2026-08-17T02:58:11.652Z</time><hdop>3.0</hdop><vdop>2.75</vdop><extensions><gom:speed>0.075</gom:speed></extensions></trkpt>
   <trkpt lat="59.3262665833" lon="34.7015044779"><ele>165.227</ele><time>2026-08-17T02:58:12.669Z</time><hdop>3.0</hdop><vdop>2.687</vdop><extensions><gom:speed>0.074</gom:speed></extensions></trkpt>
   <trkpt lat="59.3262667929" lon="34.7015042264"><ele>165.227</ele><time>2026-08-17T02:58:13.647Z</time><hdop>3.0</hdop><vdop>2.625</vdop><extensions><gom:speed>0.074</gom:speed></extensions></trkpt>
   <trkpt lat="59.3262668767" lon="34.7015038911"><ele>165.227</ele><time>2026-08-17T02:58:14.647Z</time><hdop>3.0</hdop><vdop>2.562</vdop><extensions><gom:speed>0.075</gom:speed></extensions></trkpt>
   <trkpt lat="59.3262668767" lon="34.7015034721"><ele>165.226</ele><time>2026-08-17T02:58:15.646Z</time><hdop>3.0</hdop><vdop>2.5</vdop><extensions><gom:speed>0.075</gom:speed></extensions></trkpt>
   <trkpt lat="59.3262668767" lon="34.7015027177"><ele>165.224</ele><time>2026-08-17T02:58:16.652Z</time><hdop>3.0</hdop><vdop>2.5</vdop><extensions><gom:speed>0.076</gom:speed></extensions></trkpt>
   <trkpt lat="59.3262669605" lon="34.7015029691"><ele>165.223</ele><time>2026-08-17T02:58:17.647Z</time><hdop>3.0</hdop><vdop>2.5</vdop><extensions><gom:speed>0.079</gom:speed></extensions></trkpt>
   <trkpt lat="59.3262669605" lon="34.7015022986"><ele>165.223</ele><time>2026-08-17T02:58:18.652Z</time><hdop>3.0</hdop><vdop>2.5</vdop><extensions><gom:speed>0.079</gom:speed></extensions></trkpt>
   <trkpt lat="59.3262670862" lon="34.7015022986"><ele>165.223</ele><time>2026-08-17T02:58:19.647Z</time><hdop>3.0</hdop><vdop>2.5</vdop><extensions><gom:speed>0.074</gom:speed></extensions></trkpt>
   <trkpt lat="59.3262669605" lon="34.701501628"><ele>165.22</ele><time>2026-08-17T02:58:20.652Z</time><hdop>3.0</hdop><vdop>2.5</vdop><extensions><gom:speed>0.075</gom:speed></extensions></trkpt>
   <trkpt lat="59.3262669605" lon="34.7015013766"><ele>165.216</ele><time>2026-08-17T02:58:21.652Z</time><hdop>3.0</hdop><vdop>2.5</vdop><extensions><gom:speed>0.075</gom:speed></extensions></trkpt>
   <trkpt lat="59.32626717" lon="34.7015015442"><ele>165.214</ele><time>2026-08-17T02:58:22.646Z</time><hdop>3.0</hdop><vdop>2.5</vdop><extensions><gom:speed>0.071</gom:speed></extensions></trkpt>
   <trkpt lat="59.3262670862" lon="34.7015009575"><ele>165.213</ele><time>2026-08-17T02:58:23.657Z</time><hdop>3.0</hdop><vdop>2.5</vdop><extensions><gom:speed>0.071</gom:speed></extensions></trkpt>
   <trkpt lat="59.32626717" lon="34.7015010413"><ele>165.212</ele><time>2026-08-17T02:58:24.647Z</time><hdop>3.0</hdop><vdop>2.5</vdop><extensions><gom:speed>0.071</gom:speed></extensions></trkpt>
   <trkpt lat="59.32626717" lon="34.7015009575"><ele>165.209</ele><time>2026-08-17T02:58:25.647Z</time><hdop>3.0</hdop><vdop>2.5</vdop><extensions><gom:speed>0.071</gom:speed></extensions></trkpt>
   <trkpt lat="59.32626717" lon="34.7015004546"><ele>165.203</ele><time>2026-08-17T02:58:26.652Z</time><hdop>3.0</hdop><vdop>2.5</vdop><extensions><gom:speed>0.071</gom:speed></extensions></trkpt>
   <trkpt lat="59.32626717" lon="34.7015003707"><ele>165.197</ele><time>2026-08-17T02:58:27.663Z</time><hdop>3.0</hdop><vdop>2.5</vdop><extensions><gom:speed>0.068</gom:speed></extensions></trkpt>
   <trkpt lat="59.3262672958" lon="34.7015004546"><ele>165.194</ele><time>2026-08-17T02:58:28.654Z</time><hdop>3.0</hdop><vdop>2.5</vdop><extensions><gom:speed>0.067</gom:speed></extensions></trkpt>
   <trkpt lat="59.3262673796" lon="34.7015007898"><ele>165.189</ele><time>2026-08-17T02:58:29.647Z</time><hdop>3.0</hdop><vdop>2.5</vdop><extensions><gom:speed>0.067</gom:speed></extensions></trkpt>
   <trkpt lat="59.3262673796" lon="34.7015005384"><ele>165.186</ele><time>2026-08-17T02:58:30.171Z</time><hdop>3.0</hdop><vdop>2.5</vdop><extensions><gom:speed>0.067</gom:speed></extensions></trkpt>
   <trkpt lat="59.3262673796" lon="34.7015004546"><ele>165.184</ele><time>2026-08-17T02:58:30.652Z</time><hdop>3.0</hdop><vdop>2.5</vdop><extensions><gom:speed>0.067</gom:speed></extensions></trkpt>
   <trkpt lat="59.3262674634" lon="34.7015007898"><ele>165.184</ele><time>2026-08-17T02:58:31.647Z</time><hdop>3.0</hdop><vdop>2.5</vdop><extensions><gom:speed>0.068</gom:speed></extensions></trkpt>
   <trkpt lat="59.3262673796" lon="34.7015003707"><ele>165.182</ele><time>2026-08-17T02:58:32.652Z</time><hdop>3.0</hdop><vdop>2.5</vdop><extensions><gom:speed>0.069</gom:speed></extensions></trkpt>
   <trkpt lat="59.3262674634" lon="34.7015006222"><ele>165.181</ele><time>2026-08-17T02:58:33.647Z</time><hdop>3.0</hdop><vdop>2.5</vdop><extensions><gom:speed>0.066</gom:speed></extensions></trkpt>
   <trkpt lat="59.3262674634" lon="34.7015003707"><ele>165.18</ele><time>2026-08-17T02:58:34.647Z</time><hdop>3.0</hdop><vdop>2.625</vdop><extensions><gom:speed>0.065</gom:speed></extensions></trkpt>
   <trkpt lat="59.3262673796" lon="34.7015000355"><ele>165.178</ele><time>2026-08-17T02:58:35.652Z</time><hdop>3.0</hdop><vdop>2.687</vdop><extensions><gom:speed>0.065</gom:speed></extensions></trkpt>
   <trkpt lat="59.3262674634" lon="34.7015004546"><ele>165.175</ele><time>2026-08-17T02:58:36.647Z</time><hdop>3.0</hdop><vdop>2.5</vdop><extensions><gom:speed>0.066</gom:speed></extensions></trkpt>
   <trkpt lat="59.3262673796" lon="34.7015002869"><ele>165.17</ele><time>2026-08-17T02:58:37.652Z</time><hdop>3.0</hdop><vdop>2.5</vdop><extensions><gom:speed>0.066</gom:speed></extensions></trkpt>
   <trkpt lat="59.3262675891" lon="34.7015005384"><ele>165.165</ele><time>2026-08-17T02:58:38.647Z</time><hdop>3.0</hdop><vdop>2.5</vdop><extensions><gom:speed>0.065</gom:speed></extensions></trkpt>
   <trkpt lat="59.3262675891" lon="34.7015005384"><ele>165.161</ele><time>2026-08-17T02:58:39.647Z</time><hdop>3.0</hdop><vdop>2.5</vdop><extensions><gom:speed>0.065</gom:speed></extensions></trkpt>
   <trkpt lat="59.3262674634" lon="34.7015003707"><ele>165.156</ele><time>2026-08-17T02:58:40.653Z</time><hdop>3.0</hdop><vdop>2.5</vdop><extensions><gom:speed>0.065</gom:speed></extensions></trkpt>
   <trkpt lat="59.3262673796" lon="34.7015007898"><ele>165.151</ele><time>2026-08-17T02:58:41.647Z</time><hdop>3.0</hdop><vdop>2.5</vdop><extensions><gom:speed>0.066</gom:speed></extensions></trkpt>
   <trkpt lat="59.3262672958" lon="34.7015004546"><ele>165.148</ele><time>2026-08-17T02:58:42.474Z</time><hdop>3.0</hdop><vdop>2.5</vdop><extensions><gom:speed>0.066</gom:speed></extensions></trkpt>
   <trkpt lat="59.3262674634" lon="34.7015007898"><ele>165.142</ele><time>2026-08-17T02:58:43.647Z</time><hdop>3.0</hdop><vdop>2.5</vdop><extensions><gom:speed>0.065</gom:speed></extensions></trkpt>
   <trkpt lat="59.3262674634" lon="34.7015004546"><ele>165.137</ele><time>2026-08-17T02:58:44.652Z</time><hdop>3.0</hdop><vdop>2.5</vdop><extensions><gom:speed>0.066</gom:speed></extensions></trkpt>
   <trkpt lat="59.3262675891" lon="34.7015008737"><ele>165.144</ele><time>2026-08-17T02:58:45.647Z</time><hdop>3.0</hdop><vdop>2.937</vdop><extensions><gom:speed>0.065</gom:speed></extensions></trkpt>
   <trkpt lat="59.326267673" lon="34.7015005384"><ele>165.156</ele><time>2026-08-17T02:58:46.653Z</time><hdop>3.0</hdop><vdop>3.25</vdop><extensions><gom:speed>0.066</gom:speed></extensions></trkpt>
   <trkpt lat="59.3262677987" lon="34.7015005384"><ele>165.585</ele><time>2026-08-17T02:58:47.652Z</time><hdop>3.0</hdop><vdop>2.875</vdop><extensions><gom:speed>0.068</gom:speed></extensions></trkpt>
   <trkpt lat="59.3262683854" lon="34.7015005384"><ele>165.718</ele><time>2026-08-17T02:58:48.647Z</time><hdop>3.0</hdop><vdop>2.75</vdop><extensions><gom:speed>0.246</gom:speed></extensions></trkpt>
   <trkpt lat="59.3262686788" lon="34.7015000355"><ele>165.796</ele><time>2026-08-17T02:58:49.646Z</time><hdop>3.0</hdop><vdop>2.75</vdop><extensions><gom:speed>0.092</gom:speed></extensions></trkpt>
   <trkpt lat="59.3262690979" lon="34.7014994487"><ele>165.842</ele><time>2026-08-17T02:58:50.647Z</time><hdop>3.0</hdop><vdop>2.75</vdop><extensions><gom:speed>0.123</gom:speed></extensions></trkpt>
   <trkpt lat="59.3262691817" lon="34.7014990296"><ele>165.87</ele><time>2026-08-17T02:58:51.681Z</time><hdop>3.0</hdop><vdop>2.625</vdop><extensions><gom:speed>0.124</gom:speed></extensions></trkpt>
   <trkpt lat="59.3262693913" lon="34.7014986944"><ele>165.885</ele><time>2026-08-17T02:58:52.652Z</time><hdop>3.0</hdop><vdop>2.5</vdop><extensions><gom:speed>0.093</gom:speed></extensions></trkpt>
   <trkpt lat="59.3262696846" lon="34.7014981915"><ele>165.896</ele><time>2026-08-17T02:58:53.652Z</time><hdop>3.0</hdop><vdop>2.5</vdop><extensions><gom:speed>0.08</gom:speed></extensions></trkpt>
   <trkpt lat="59.326269978" lon="34.7014976885"><ele>165.966</ele><time>2026-08-17T02:58:54.652Z</time><hdop>3.0</hdop><vdop>2.5</vdop><extensions><gom:speed>0.07</gom:speed></extensions></trkpt>
   <trkpt lat="59.3262702714" lon="34.7014968503"><ele>166.009</ele><time>2026-08-17T02:58:55.652Z</time><hdop>3.0</hdop><vdop>2.562</vdop><extensions><gom:speed>0.141</gom:speed></extensions></trkpt>
   <trkpt lat="59.3262702714" lon="34.7014957607"><ele>166.038</ele><time>2026-08-17T02:58:56.647Z</time><hdop>3.0</hdop><vdop>2.625</vdop><extensions><gom:speed>0.092</gom:speed></extensions></trkpt>
   <trkpt lat="59.3262703971" lon="34.7014952578"><ele>166.058</ele><time>2026-08-17T02:58:57.647Z</time><hdop>3.0</hdop><vdop>2.687</vdop><extensions><gom:speed>0.084</gom:speed></extensions></trkpt>
   <trkpt lat="59.3262704809" lon="34.7014946711"><ele>166.073</ele><time>2026-08-17T02:58:58.647Z</time><hdop>3.0</hdop><vdop>2.687</vdop><extensions><gom:speed>0.083</gom:speed></extensions></trkpt>
   <trkpt lat="59.3262705647" lon="34.701494252"><ele>166.083</ele><time>2026-08-17T02:58:59.652Z</time><hdop>3.0</hdop><vdop>2.625</vdop><extensions><gom:speed>0.084</gom:speed></extensions></trkpt>
   <trkpt lat="59.3262706904" lon="34.7014941681"><ele>166.091</ele><time>2026-08-17T02:59:00.646Z</time><hdop>3.0</hdop><vdop>2.562</vdop><extensions><gom:speed>0.074</gom:speed></extensions></trkpt>
   <trkpt lat="59.3262707743" lon="34.701493749"><ele>166.098</ele><time>2026-08-17T02:59:01.656Z</time><hdop>3.0</hdop><vdop>2.562</vdop><extensions><gom:speed>0.074</gom:speed></extensions></trkpt>
   <trkpt lat="59.3262706904" lon="34.7014936652"><ele>166.104</ele><time>2026-08-17T02:59:02.647Z</time><hdop>3.0</hdop><vdop>2.5</vdop><extensions><gom:speed>0.069</gom:speed></extensions></trkpt>
   <trkpt lat="59.3262707743" lon="34.7014933299"><ele>166.106</ele><time>2026-08-17T02:59:03.652Z</time><hdop>3.0</hdop><vdop>2.562</vdop><extensions><gom:speed>0.07</gom:speed></extensions></trkpt>
   <trkpt lat="59.3262702714" lon="34.701493749"><ele>165.854</ele><time>2026-08-17T02:59:04.647Z</time><hdop>3.0</hdop><vdop>2.5</vdop><extensions><gom:speed>0.236</gom:speed></extensions></trkpt>
   <trkpt lat="59.3262703971" lon="34.701492827"><ele>165.754</ele><time>2026-08-17T02:59:05.652Z</time><hdop>3.0</hdop><vdop>2.5</vdop><extensions><gom:speed>0.237</gom:speed></extensions></trkpt>
   <trkpt lat="59.3262698942" lon="34.7014930785"><ele>165.304</ele><time>2026-08-17T02:59:06.654Z</time><hdop>3.0</hdop><vdop>2.5</vdop><extensions><gom:speed>0.097</gom:speed></extensions></trkpt>
   <trkpt lat="59.3262697684" lon="34.7014839422"><ele>165.018</ele><time>2026-08-17T02:59:07.652Z</time><hdop>3.187</hdop><vdop>2.5</vdop><extensions><gom:speed>1.645</gom:speed></extensions></trkpt>
   <trkpt lat="59.3262640687" lon="34.7014681842"><ele>164.847</ele><time>2026-08-17T02:59:08.647Z</time><hdop>3.312</hdop><vdop>2.5</vdop><extensions><gom:speed>0.076</gom:speed></extensions></trkpt>
   <trkpt lat="59.3262638592" lon="34.7014674299"><ele>164.743</ele><time>2026-08-17T02:59:09.652Z</time><hdop>3.375</hdop><vdop>2.5</vdop><extensions><gom:speed>0.077</gom:speed></extensions></trkpt>
   <trkpt lat="59.3262624762" lon="34.701463658"><ele>164.68</ele><time>2026-08-17T02:59:10.652Z</time><hdop>3.625</hdop><vdop>2.5</vdop><extensions><gom:speed>0.069</gom:speed></extensions></trkpt>
   <trkpt lat="59.3262617637" lon="34.7014610596"><ele>164.643</ele><time>2026-08-17T02:59:11.652Z</time><hdop>3.625</hdop><vdop>2.5</vdop><extensions><gom:speed>0.065</gom:speed></extensions></trkpt>
   <trkpt lat="59.3262614704" lon="34.7014594671"><ele>164.62</ele><time>2026-08-17T02:59:12.652Z</time><hdop>3.375</hdop><vdop>2.5</vdop><extensions><gom:speed>0.061</gom:speed></extensions></trkpt>
   <trkpt lat="59.326261177" lon="34.7014578745"><ele>164.606</ele><time>2026-08-17T02:59:13.652Z</time><hdop>3.312</hdop><vdop>2.5</vdop><extensions><gom:speed>0.062</gom:speed></extensions></trkpt>
   <trkpt lat="59.3262608836" lon="34.7014566172"><ele>164.598</ele><time>2026-08-17T02:59:14.652Z</time><hdop>3.062</hdop><vdop>2.5</vdop><extensions><gom:speed>0.063</gom:speed></extensions></trkpt>
   <trkpt lat="59.3262607998" lon="34.7014555276"><ele>164.593</ele><time>2026-08-17T02:59:15.652Z</time><hdop>3.062</hdop><vdop>2.5</vdop><extensions><gom:speed>0.064</gom:speed></extensions></trkpt>
   <trkpt lat="59.3262605903" lon="34.7014541865"><ele>164.59</ele><time>2026-08-17T02:59:16.647Z</time><hdop>3.0</hdop><vdop>2.5</vdop><extensions><gom:speed>0.068</gom:speed></extensions></trkpt>
   <trkpt lat="59.3262605903" lon="34.7014534321"><ele>164.587</ele><time>2026-08-17T02:59:17.647Z</time><hdop>3.0</hdop><vdop>2.5</vdop><extensions><gom:speed>0.068</gom:speed></extensions></trkpt>
   <trkpt lat="59.3262603807" lon="34.7014525939"><ele>164.584</ele><time>2026-08-17T02:59:18.653Z</time><hdop>3.0</hdop><vdop>2.5</vdop><extensions><gom:speed>0.069</gom:speed></extensions></trkpt>
   <trkpt lat="59.3262603807" lon="34.7014522586"><ele>164.581</ele><time>2026-08-17T02:59:19.647Z</time><hdop>3.0</hdop><vdop>2.5</vdop><extensions><gom:speed>0.067</gom:speed></extensions></trkpt>
   <trkpt lat="59.3262602969" lon="34.7014513366"><ele>164.58</ele><time>2026-08-17T02:59:20.652Z</time><hdop>3.0</hdop><vdop>2.5</vdop><extensions><gom:speed>0.067</gom:speed></extensions></trkpt>
   <trkpt lat="59.3262603807" lon="34.7014512528"><ele>164.578</ele><time>2026-08-17T02:59:21.647Z</time><hdop>3.0</hdop><vdop>2.5</vdop><extensions><gom:speed>0.067</gom:speed></extensions></trkpt>
   <trkpt lat="59.3262602969" lon="34.7014504984"><ele>164.578</ele><time>2026-08-17T02:59:22.660Z</time><hdop>3.0</hdop><vdop>2.5</vdop><extensions><gom:speed>0.068</gom:speed></extensions></trkpt>
   <trkpt lat="59.3262601712" lon="34.7014500793"><ele>164.578</ele><time>2026-08-17T02:59:23.652Z</time><hdop>3.0</hdop><vdop>2.5</vdop><extensions><gom:speed>0.068</gom:speed></extensions></trkpt>
   <trkpt lat="59.3262604645" lon="34.701450247"><ele>164.579</ele><time>2026-08-17T02:59:24.646Z</time><hdop>3.0</hdop><vdop>2.5</vdop><extensions><gom:speed>0.07</gom:speed></extensions></trkpt>
   <trkpt lat="59.3262603807" lon="34.7014495764"><ele>164.579</ele><time>2026-08-17T02:59:25.652Z</time><hdop>3.0</hdop><vdop>2.5</vdop><extensions><gom:speed>0.071</gom:speed></extensions></trkpt>
   <trkpt lat="59.3262602969" lon="34.7014491573"><ele>164.58</ele><time>2026-08-17T02:59:26.652Z</time><hdop>3.0</hdop><vdop>2.5</vdop><extensions><gom:speed>0.071</gom:speed></extensions></trkpt>
   <trkpt lat="59.3262602969" lon="34.701448822"><ele>164.58</ele><time>2026-08-17T02:59:27.658Z</time><hdop>3.0</hdop><vdop>2.5</vdop><extensions><gom:speed>0.071</gom:speed></extensions></trkpt>
   <trkpt lat="59.3262602969" lon="34.7014486544"><ele>164.581</ele><time>2026-08-17T02:59:28.652Z</time><hdop>3.0</hdop><vdop>2.5</vdop><extensions><gom:speed>0.067</gom:speed></extensions></trkpt>
   <trkpt lat="59.3262604645" lon="34.7014489897"><ele>164.581</ele><time>2026-08-17T02:59:29.647Z</time><hdop>3.0</hdop><vdop>2.5</vdop><extensions><gom:speed>0.065</gom:speed></extensions></trkpt>
   <trkpt lat="59.3262604645" lon="34.7014483191"><ele>164.581</ele><time>2026-08-17T02:59:30.653Z</time><hdop>3.0</hdop><vdop>2.5</vdop><extensions><gom:speed>0.066</gom:speed></extensions></trkpt>
   <trkpt lat="59.3262605903" lon="34.7014480677"><ele>164.581</ele><time>2026-08-17T02:59:31.652Z</time><hdop>3.0</hdop><vdop>2.5</vdop><extensions><gom:speed>0.064</gom:speed></extensions></trkpt>
   <trkpt lat="59.3262606741" lon="34.7014479839"><ele>164.581</ele><time>2026-08-17T02:59:32.652Z</time><hdop>3.0</hdop><vdop>2.5</vdop><extensions><gom:speed>0.063</gom:speed></extensions></trkpt>
   <trkpt lat="59.3262607998" lon="34.7014479839"><ele>164.582</ele><time>2026-08-17T02:59:33.652Z</time><hdop>3.0</hdop><vdop>2.5</vdop><extensions><gom:speed>0.063</gom:speed></extensions></trkpt>
   <trkpt lat="59.3262608836" lon="34.7014478162"><ele>164.582</ele><time>2026-08-17T02:59:34.652Z</time><hdop>3.0</hdop><vdop>2.5</vdop><extensions><gom:speed>0.065</gom:speed></extensions></trkpt>
   <trkpt lat="59.326261177" lon="34.7014482353"><ele>164.583</ele><time>2026-08-17T02:59:35.646Z</time><hdop>3.0</hdop><vdop>2.5</vdop><extensions><gom:speed>0.066</gom:speed></extensions></trkpt>
   <trkpt lat="59.3262612608" lon="34.7014482353"><ele>164.583</ele><time>2026-08-17T02:59:36.647Z</time><hdop>3.0</hdop><vdop>2.5</vdop><extensions><gom:speed>0.068</gom:speed></extensions></trkpt>
   <trkpt lat="59.3262612608" lon="34.7014477324"><ele>164.583</ele><time>2026-08-17T02:59:37.654Z</time><hdop>3.0</hdop><vdop>2.5</vdop><extensions><gom:speed>0.068</gom:speed></extensions></trkpt>
   <trkpt lat="59.3262613865" lon="34.7014481515"><ele>164.583</ele><time>2026-08-17T02:59:38.652Z</time><hdop>3.0</hdop><vdop>2.5</vdop><extensions><gom:speed>0.068</gom:speed></extensions></trkpt>
   <trkpt lat="59.3262615961" lon="34.7014478162"><ele>164.582</ele><time>2026-08-17T02:59:39.652Z</time><hdop>3.0</hdop><vdop>2.5</vdop><extensions><gom:speed>0.07</gom:speed></extensions></trkpt>
   <trkpt lat="59.3262617637" lon="34.7014478162"><ele>164.742</ele><time>2026-08-17T02:59:40.652Z</time><hdop>3.0</hdop><vdop>2.5</vdop><extensions><gom:speed>0.068</gom:speed></extensions></trkpt>
   <trkpt lat="59.3262627695" lon="34.7014479839"><ele>164.812</ele><time>2026-08-17T02:59:41.647Z</time><hdop>3.0</hdop><vdop>2.5</vdop><extensions><gom:speed>0.105</gom:speed></extensions></trkpt>
   <trkpt lat="59.3262632725" lon="34.7014480677"><ele>164.877</ele><time>2026-08-17T02:59:42.647Z</time><hdop>3.0</hdop><vdop>2.5</vdop><extensions><gom:speed>0.09</gom:speed></extensions></trkpt>
   <trkpt lat="59.3262633982" lon="34.7014476486"><ele>164.919</ele><time>2026-08-17T02:59:43.652Z</time><hdop>3.0</hdop><vdop>2.5</vdop><extensions><gom:speed>0.09</gom:speed></extensions></trkpt>
   <trkpt lat="59.3262638592" lon="34.7014479839"><ele>164.944</ele><time>2026-08-17T02:59:44.652Z</time><hdop>3.0</hdop><vdop>2.5</vdop><extensions><gom:speed>0.078</gom:speed></extensions></trkpt>
   <trkpt lat="59.3262644878" lon="34.7014481515"><ele>164.96</ele><time>2026-08-17T02:59:45.653Z</time><hdop>3.0</hdop><vdop>2.5</vdop><extensions><gom:speed>0.07</gom:speed></extensions></trkpt>
   <trkpt lat="59.3262652841" lon="34.7014492411"><ele>164.97</ele><time>2026-08-17T02:59:46.647Z</time><hdop>3.0</hdop><vdop>2.5</vdop><extensions><gom:speed>0.063</gom:speed></extensions></trkpt>
   <trkpt lat="59.3262656613" lon="34.7014495764"><ele>164.977</ele><time>2026-08-17T02:59:47.647Z</time><hdop>3.0</hdop><vdop>2.5</vdop><extensions><gom:speed>0.065</gom:speed></extensions></trkpt>
   <trkpt lat="59.3262658709" lon="34.7014494926"><ele>164.98</ele><time>2026-08-17T02:59:48.662Z</time><hdop>3.0</hdop><vdop>2.5</vdop><extensions><gom:speed>0.066</gom:speed></extensions></trkpt>
   <trkpt lat="59.3262661642" lon="34.7014498279"><ele>164.982</ele><time>2026-08-17T02:59:49.653Z</time><hdop>3.0</hdop><vdop>2.5</vdop><extensions><gom:speed>0.063</gom:speed></extensions></trkpt>
   <trkpt lat="59.3262666671" lon="34.7014505822"><ele>164.984</ele><time>2026-08-17T02:59:50.647Z</time><hdop>3.0</hdop><vdop>2.5</vdop><extensions><gom:speed>0.063</gom:speed></extensions></trkpt>
   <trkpt lat="59.3262668767" lon="34.7014504984"><ele>164.985</ele><time>2026-08-17T02:59:51.652Z</time><hdop>3.0</hdop><vdop>2.5</vdop><extensions><gom:speed>0.064</gom:speed></extensions></trkpt>
   <trkpt lat="59.3262672958" lon="34.701451169"><ele>164.984</ele><time>2026-08-17T02:59:52.647Z</time><hdop>3.0</hdop><vdop>2.5</vdop><extensions><gom:speed>0.066</gom:speed></extensions></trkpt>
   <trkpt lat="59.3262675891" lon="34.7014514204"><ele>164.984</ele><time>2026-08-17T02:59:53.647Z</time><hdop>3.0</hdop><vdop>2.5</vdop><extensions><gom:speed>0.067</gom:speed></extensions></trkpt>
   <trkpt lat="59.326267673" lon="34.7014514204"><ele>164.983</ele><time>2026-08-17T02:59:54.145Z</time><hdop>3.0</hdop><vdop>2.5</vdop><extensions><gom:speed>0.067</gom:speed></extensions></trkpt>
   <trkpt lat="59.3262677987" lon="34.7014514204"><ele>164.981</ele><time>2026-08-17T02:59:54.651Z</time><hdop>3.0</hdop><vdop>2.5</vdop><extensions><gom:speed>0.067</gom:speed></extensions></trkpt>
   <trkpt lat="59.3262681759" lon="34.7014518395"><ele>164.98</ele><time>2026-08-17T02:59:55.646Z</time><hdop>3.0</hdop><vdop>2.5</vdop><extensions><gom:speed>0.068</gom:speed></extensions></trkpt>
   <trkpt lat="59.3262683854" lon="34.7014518395"><ele>164.978</ele><time>2026-08-17T02:59:56.652Z</time><hdop>3.0</hdop><vdop>2.5</vdop><extensions><gom:speed>0.068</gom:speed></extensions></trkpt>
   <trkpt lat="59.3262687626" lon="34.7014521748"><ele>164.975</ele><time>2026-08-17T02:59:57.647Z</time><hdop>3.0</hdop><vdop>2.5</vdop><extensions><gom:speed>0.068</gom:speed></extensions></trkpt>
   <trkpt lat="59.3262690979" lon="34.7014522586"><ele>164.972</ele><time>2026-08-17T02:59:58.647Z</time><hdop>3.0</hdop><vdop>2.5</vdop><extensions><gom:speed>0.072</gom:speed></extensions></trkpt>
   <trkpt lat="59.3262692655" lon="34.7014525939"><ele>164.97</ele><time>2026-08-17T02:59:59.647Z</time><hdop>3.0</hdop><vdop>2.5</vdop><extensions><gom:speed>0.072</gom:speed></extensions></trkpt>
   <trkpt lat="59.3262694751" lon="34.7014527615"><ele>164.969</ele><time>2026-08-17T03:00:00.646Z</time><hdop>3.0</hdop><vdop>2.5</vdop><extensions><gom:speed>0.072</gom:speed></extensions></trkpt>
   <trkpt lat="59.3262696846" lon="34.7014528454"><ele>164.968</ele><time>2026-08-17T03:00:01.601Z</time><hdop>3.0</hdop><vdop>2.5</vdop><extensions><gom:speed>0.072</gom:speed></extensions></trkpt>
   <trkpt lat="59.3262698942" lon="34.7014529292"><ele>164.964</ele><time>2026-08-17T03:00:02.647Z</time><hdop>3.0</hdop><vdop>2.5</vdop><extensions><gom:speed>0.098</gom:speed></extensions></trkpt>
   <trkpt lat="59.3262701875" lon="34.7014529292"><ele>164.961</ele><time>2026-08-17T03:00:03.655Z</time><hdop>3.0</hdop><vdop>2.5</vdop><extensions><gom:speed>0.099</gom:speed></extensions></trkpt>
   <trkpt lat="59.3262700618" lon="34.7014530968"><ele>164.958</ele><time>2026-08-17T03:00:04.647Z</time><hdop>3.0</hdop><vdop>2.5</vdop><extensions><gom:speed>0.078</gom:speed></extensions></trkpt>
   <trkpt lat="59.3262701875" lon="34.7014531806"><ele>164.957</ele><time>2026-08-17T03:00:05.274Z</time><hdop>3.0</hdop><vdop>2.5</vdop><extensions><gom:speed>0.078</gom:speed></extensions></trkpt>
   <trkpt lat="59.3262701875" lon="34.7014532645"><ele>164.955</ele><time>2026-08-17T03:00:06.647Z</time><hdop>3.0</hdop><vdop>2.5</vdop><extensions><gom:speed>0.069</gom:speed></extensions></trkpt>
   <trkpt lat="59.3262703971" lon="34.7014533483"><ele>164.963</ele><time>2026-08-17T03:00:07.652Z</time><hdop>3.0</hdop><vdop>2.5</vdop><extensions><gom:speed>0.069</gom:speed></extensions></trkpt>
   <trkpt lat="59.3262706904" lon="34.701453935"><ele>164.973</ele><time>2026-08-17T03:00:08.652Z</time><hdop>3.0</hdop><vdop>2.5</vdop><extensions><gom:speed>0.069</gom:speed></extensions></trkpt>
   <trkpt lat="59.3262705647" lon="34.7014537674"><ele>164.986</ele><time>2026-08-17T03:00:09.647Z</time><hdop>3.0</hdop><vdop>2.5</vdop><extensions><gom:speed>0.065</gom:speed></extensions></trkpt>
   <trkpt lat="59.3262706904" lon="34.701453935"><ele>165.0</ele><time>2026-08-17T03:00:10.652Z</time><hdop>3.0</hdop><vdop>2.5</vdop><extensions><gom:speed>0.066</gom:speed></extensions></trkpt>
   <trkpt lat="59.3262707743" lon="34.701453935"><ele>165.008</ele><time>2026-08-17T03:00:11.652Z</time><hdop>3.0</hdop><vdop>2.5</vdop><extensions><gom:speed>0.065</gom:speed></extensions></trkpt>
   <trkpt lat="59.3262707743" lon="34.701453935"><ele>165.013</ele><time>2026-08-17T03:00:12.647Z</time><hdop>3.0</hdop><vdop>2.5</vdop><extensions><gom:speed>0.064</gom:speed></extensions></trkpt>
   <trkpt lat="59.3262708581" lon="34.7014540188"><ele>165.014</ele><time>2026-08-17T03:00:13.646Z</time><hdop>3.0</hdop><vdop>2.5</vdop><extensions><gom:speed>0.063</gom:speed></extensions></trkpt>
   <trkpt lat="59.3262707743" lon="34.7014543541"><ele>165.015</ele><time>2026-08-17T03:00:14.647Z</time><hdop>3.0</hdop><vdop>2.5</vdop><extensions><gom:speed>0.065</gom:speed></extensions></trkpt>
   <trkpt lat="59.3262708581" lon="34.7014545217"><ele>165.015</ele><time>2026-08-17T03:00:15.653Z</time><hdop>3.0</hdop><vdop>2.5</vdop><extensions><gom:speed>0.065</gom:speed></extensions></trkpt>
   <trkpt lat="59.3262708581" lon="34.7014544379"><ele>165.015</ele><time>2026-08-17T03:00:16.403Z</time><hdop>3.0</hdop><vdop>2.5</vdop><extensions><gom:speed>0.067</gom:speed></extensions></trkpt>
   <trkpt lat="59.3262709838" lon="34.7014542703"><ele>165.013</ele><time>2026-08-17T03:00:17.648Z</time><hdop>3.0</hdop><vdop>2.5</vdop><extensions><gom:speed>0.067</gom:speed></extensions></trkpt>
   <trkpt lat="59.3262710676" lon="34.7014541865"><ele>165.011</ele><time>2026-08-17T03:00:18.647Z</time><hdop>3.0</hdop><vdop>2.5</vdop><extensions><gom:speed>0.07</gom:speed></extensions></trkpt>
   <trkpt lat="59.3262711934" lon="34.7014541865"><ele>165.009</ele><time>2026-08-17T03:00:19.647Z</time><hdop>3.0</hdop><vdop>2.5</vdop><extensions><gom:speed>0.071</gom:speed></extensions></trkpt>
   <trkpt lat="59.3262712772" lon="34.7014542703"><ele>165.006</ele><time>2026-08-17T03:00:20.652Z</time><hdop>3.0</hdop><vdop>2.5</vdop><extensions><gom:speed>0.071</gom:speed></extensions></trkpt>
   <trkpt lat="59.3262714867" lon="34.7014542703"><ele>165.004</ele><time>2026-08-17T03:00:21.646Z</time><hdop>3.0</hdop><vdop>2.5</vdop><extensions><gom:speed>0.069</gom:speed></extensions></trkpt>
   <trkpt lat="59.3262714867" lon="34.7014541865"><ele>165.002</ele><time>2026-08-17T03:00:22.646Z</time><hdop>3.0</hdop><vdop>2.5</vdop><extensions><gom:speed>0.072</gom:speed></extensions></trkpt>
   <trkpt lat="59.3262715705" lon="34.7014541865"><ele>165.0</ele><time>2026-08-17T03:00:23.647Z</time><hdop>3.0</hdop><vdop>2.5</vdop><extensions><gom:speed>0.077</gom:speed></extensions></trkpt>
   <trkpt lat="59.3262716963" lon="34.7014542703"><ele>164.998</ele><time>2026-08-17T03:00:24.659Z</time><hdop>3.0</hdop><vdop>2.5</vdop><extensions><gom:speed>0.077</gom:speed></extensions></trkpt>
   <trkpt lat="59.3262716963" lon="34.7014541865"><ele>164.996</ele><time>2026-08-17T03:00:25.646Z</time><hdop>3.0</hdop><vdop>2.5</vdop><extensions><gom:speed>0.082</gom:speed></extensions></trkpt>
   <trkpt lat="59.3262717801" lon="34.7014542703"><ele>164.995</ele><time>2026-08-17T03:00:26.652Z</time><hdop>3.0</hdop><vdop>2.5</vdop><extensions><gom:speed>0.082</gom:speed></extensions></trkpt>
   <trkpt lat="59.3262718639" lon="34.7014543541"><ele>164.993</ele><time>2026-08-17T03:00:27.653Z</time><hdop>3.0</hdop><vdop>2.5</vdop><extensions><gom:speed>0.087</gom:speed></extensions></trkpt>
   <trkpt lat="59.3262719896" lon="34.7014542703"><ele>164.992</ele><time>2026-08-17T03:00:28.647Z</time><hdop>3.0</hdop><vdop>2.5</vdop><extensions><gom:speed>0.086</gom:speed></extensions></trkpt>
   <trkpt lat="59.3262719896" lon="34.7014542703"><ele>164.992</ele><time>2026-08-17T03:00:29.646Z</time><hdop>3.0</hdop><vdop>2.5</vdop><extensions><gom:speed>0.087</gom:speed></extensions></trkpt>
   <trkpt lat="59.3262720735" lon="34.7014543541"><ele>164.992</ele><time>2026-08-17T03:00:30.652Z</time><hdop>3.0</hdop><vdop>2.5</vdop><extensions><gom:speed>0.088</gom:speed></extensions></trkpt>
   <trkpt lat="59.3262721992" lon="34.7014543541"><ele>164.992</ele><time>2026-08-17T03:00:31.660Z</time><hdop>3.0</hdop><vdop>2.5</vdop><extensions><gom:speed>0.089</gom:speed></extensions></trkpt>
   <trkpt lat="59.326272283" lon="34.7014544379"><ele>164.991</ele><time>2026-08-17T03:00:32.652Z</time><hdop>3.0</hdop><vdop>2.5</vdop><extensions><gom:speed>0.092</gom:speed></extensions></trkpt>
   <trkpt lat="59.326272283" lon="34.7014544379"><ele>164.993</ele><time>2026-08-17T03:00:33.647Z</time><hdop>3.062</hdop><vdop>2.5</vdop><extensions><gom:speed>0.098</gom:speed></extensions></trkpt>
   <trkpt lat="59.3262723668" lon="34.7014544379"><ele>164.997</ele><time>2026-08-17T03:00:34.655Z</time><hdop>3.125</hdop><vdop>2.5</vdop><extensions><gom:speed>0.098</gom:speed></extensions></trkpt>
   <trkpt lat="59.3262723668" lon="34.7014545217"><ele>165.007</ele><time>2026-08-17T03:00:35.666Z</time><hdop>3.187</hdop><vdop>2.5</vdop><extensions><gom:speed>0.099</gom:speed></extensions></trkpt>
   <trkpt lat="59.3262724926" lon="34.7014545217"><ele>165.013</ele><time>2026-08-17T03:00:36.658Z</time><hdop>3.312</hdop><vdop>2.5</vdop><extensions><gom:speed>0.101</gom:speed></extensions></trkpt>
   <trkpt lat="59.3262725764" lon="34.7014544379"><ele>165.017</ele><time>2026-08-17T03:00:37.647Z</time><hdop>3.375</hdop><vdop>2.5</vdop><extensions><gom:speed>0.104</gom:speed></extensions></trkpt>
   <trkpt lat="59.3262724926" lon="34.7014544379"><ele>165.028</ele><time>2026-08-17T03:00:38.648Z</time><hdop>3.437</hdop><vdop>2.5</vdop><extensions><gom:speed>0.103</gom:speed></extensions></trkpt>
   <trkpt lat="59.3262724926" lon="34.7014544379"><ele>165.036</ele><time>2026-08-17T03:00:39.653Z</time><hdop>3.562</hdop><vdop>2.5</vdop><extensions><gom:speed>0.103</gom:speed></extensions></trkpt>
   <trkpt lat="59.3262723668" lon="34.7014542703"><ele>165.04</ele><time>2026-08-17T03:00:40.647Z</time><hdop>3.625</hdop><vdop>2.5</vdop><extensions><gom:speed>0.101</gom:speed></extensions></trkpt>
   <trkpt lat="59.3262723668" lon="34.7014541865"><ele>165.044</ele><time>2026-08-17T03:00:41.647Z</time><hdop>3.75</hdop><vdop>2.5</vdop><extensions><gom:speed>0.1</gom:speed></extensions></trkpt>
   <trkpt lat="59.3262718639" lon="34.701453935"><ele>165.046</ele><time>2026-08-17T03:00:42.646Z</time><hdop>3.812</hdop><vdop>2.5</vdop><extensions><gom:speed>0.098</gom:speed></extensions></trkpt>
   <trkpt lat="59.3262718639" lon="34.7014540188"><ele>165.049</ele><time>2026-08-17T03:00:43.652Z</time><hdop>3.875</hdop><vdop>2.5</vdop><extensions><gom:speed>0.098</gom:speed></extensions></trkpt>
   <trkpt lat="59.3262718639" lon="34.701453935"><ele>165.052</ele><time>2026-08-17T03:00:44.652Z</time><hdop>3.937</hdop><vdop>2.5</vdop><extensions><gom:speed>0.099</gom:speed></extensions></trkpt>
   <trkpt lat="59.3262718639" lon="34.7014536835"><ele>165.055</ele><time>2026-08-17T03:00:45.647Z</time><hdop>4.0</hdop><vdop>2.5</vdop><extensions><gom:speed>0.099</gom:speed></extensions></trkpt>
   <trkpt lat="59.3262718639" lon="34.7014538512"><ele>165.057</ele><time>2026-08-17T03:00:46.654Z</time><hdop>4.062</hdop><vdop>2.5</vdop><extensions><gom:speed>0.099</gom:speed></extensions></trkpt>
   <trkpt lat="59.3262718639" lon="34.7014535997"><ele>165.059</ele><time>2026-08-17T03:00:47.647Z</time><hdop>4.062</hdop><vdop>2.5</vdop><extensions><gom:speed>0.099</gom:speed></extensions></trkpt>
   <trkpt lat="59.3262718639" lon="34.7014534321"><ele>165.06</ele><time>2026-08-17T03:00:48.647Z</time><hdop>4.187</hdop><vdop>2.5</vdop><extensions><gom:speed>0.101</gom:speed></extensions></trkpt>
   <trkpt lat="59.3262717801" lon="34.7014534321"><ele>165.061</ele><time>2026-08-17T03:00:49.647Z</time><hdop>4.187</hdop><vdop>2.5</vdop><extensions><gom:speed>0.101</gom:speed></extensions></trkpt>
   <trkpt lat="59.3262717801" lon="34.7014534321"><ele>165.065</ele><time>2026-08-17T03:00:50.660Z</time><hdop>4.25</hdop><vdop>2.5</vdop><extensions><gom:speed>0.101</gom:speed></extensions></trkpt>
   <trkpt lat="59.3262714867" lon="34.7014532645"><ele>165.068</ele><time>2026-08-17T03:00:51.653Z</time><hdop>4.312</hdop><vdop>2.5</vdop><extensions><gom:speed>0.19</gom:speed></extensions></trkpt>
   <trkpt lat="59.3262712772" lon="34.7014528454"><ele>165.07</ele><time>2026-08-17T03:00:52.647Z</time><hdop>4.375</hdop><vdop>2.5</vdop><extensions><gom:speed>0.164</gom:speed></extensions></trkpt>
   <trkpt lat="59.3262711934" lon="34.7014527615"><ele>165.072</ele><time>2026-08-17T03:00:53.652Z</time><hdop>4.437</hdop><vdop>2.5</vdop><extensions><gom:speed>0.164</gom:speed></extensions></trkpt>
   <trkpt lat="59.3262709838" lon="34.7014523424"><ele>165.073</ele><time>2026-08-17T03:00:54.648Z</time><hdop>4.5</hdop><vdop>2.5</vdop><extensions><gom:speed>0.141</gom:speed></extensions></trkpt>
   <trkpt lat="59.3262707743" lon="34.7014521748"><ele>165.074</ele><time>2026-08-17T03:00:55.652Z</time><hdop>4.687</hdop><vdop>2.5</vdop><extensions><gom:speed>0.142</gom:speed></extensions></trkpt>
   <trkpt lat="59.3262708581" lon="34.7014519233"><ele>165.074</ele><time>2026-08-17T03:00:56.646Z</time><hdop>4.687</hdop><vdop>2.562</vdop><extensions><gom:speed>0.125</gom:speed></extensions></trkpt>
   <trkpt lat="59.3262708581" lon="34.7014517557"><ele>165.073</ele><time>2026-08-17T03:00:57.647Z</time><hdop>4.687</hdop><vdop>2.687</vdop><extensions><gom:speed>0.119</gom:speed></extensions></trkpt>
   <trkpt lat="59.3262707743" lon="34.7014516719"><ele>165.072</ele><time>2026-08-17T03:00:58.653Z</time><hdop>4.75</hdop><vdop>2.812</vdop><extensions><gom:speed>0.119</gom:speed></extensions></trkpt>
   <trkpt lat="59.3262707743" lon="34.7014516719"><ele>165.073</ele><time>2026-08-17T03:00:59.652Z</time><hdop>4.812</hdop><vdop>2.875</vdop><extensions><gom:speed>0.117</gom:speed></extensions></trkpt>
   <trkpt lat="59.3262707743" lon="34.7014518395"><ele>165.073</ele><time>2026-08-17T03:01:00.652Z</time><hdop>4.812</hdop><vdop>2.812</vdop><extensions><gom:speed>0.114</gom:speed></extensions></trkpt>
   <trkpt lat="59.3262711934" lon="34.7014519233"><ele>165.074</ele><time>2026-08-17T03:01:01.647Z</time><hdop>4.812</hdop><vdop>2.75</vdop><extensions><gom:speed>0.112</gom:speed></extensions></trkpt>
   <trkpt lat="59.3262710676" lon="34.7014519233"><ele>165.074</ele><time>2026-08-17T03:01:02.652Z</time><hdop>4.875</hdop><vdop>2.5</vdop><extensions><gom:speed>0.112</gom:speed></extensions></trkpt>
   <trkpt lat="59.3262712772" lon="34.7014523424"><ele>165.117</ele><time>2026-08-17T03:01:03.647Z</time><hdop>4.812</hdop><vdop>2.5</vdop><extensions><gom:speed>0.105</gom:speed></extensions></trkpt>
   <trkpt lat="59.3262712772" lon="34.7014524263"><ele>165.123</ele><time>2026-08-17T03:01:04.662Z</time><hdop>4.812</hdop><vdop>2.5</vdop><extensions><gom:speed>0.105</gom:speed></extensions></trkpt>
   <trkpt lat="59.326271361" lon="34.7014528454"><ele>165.126</ele><time>2026-08-17T03:01:05.652Z</time><hdop>4.812</hdop><vdop>2.5</vdop><extensions><gom:speed>0.103</gom:speed></extensions></trkpt>
   <trkpt lat="59.3262717801" lon="34.7014540188"><ele>165.111</ele><time>2026-08-17T03:01:06.646Z</time><hdop>4.75</hdop><vdop>2.5</vdop><extensions><gom:speed>0.098</gom:speed></extensions></trkpt>
   <trkpt lat="59.3262717801" lon="34.7014542703"><ele>165.114</ele><time>2026-08-17T03:01:07.657Z</time><hdop>4.687</hdop><vdop>2.5</vdop><extensions><gom:speed>0.098</gom:speed></extensions></trkpt>
   <trkpt lat="59.3262720735" lon="34.7014559467"><ele>165.091</ele><time>2026-08-17T03:01:08.646Z</time><hdop>4.687</hdop><vdop>2.5</vdop><extensions><gom:speed>0.19</gom:speed></extensions></trkpt>
   <trkpt lat="59.3262719896" lon="34.7014561981"><ele>165.077</ele><time>2026-08-17T03:01:09.343Z</time><hdop>4.687</hdop><vdop>2.5</vdop><extensions><gom:speed>0.191</gom:speed></extensions></trkpt>
   <trkpt lat="59.3262720735" lon="34.7014572878"><ele>165.233</ele><time>2026-08-17T03:01:10.436Z</time><hdop>4.687</hdop><vdop>2.5</vdop><extensions><gom:speed>0.24</gom:speed></extensions></trkpt>
   <trkpt lat="59.3262716963" lon="34.7014589641"><ele>165.522</ele><time>2026-08-17T03:01:11.326Z</time><hdop>4.687</hdop><vdop>2.5</vdop><extensions><gom:speed>0.274</gom:speed></extensions></trkpt>
   <trkpt lat="59.3262715705" lon="34.7014613949"><ele>165.827</ele><time>2026-08-17T03:01:12.449Z</time><hdop>4.812</hdop><vdop>2.5</vdop><extensions><gom:speed>0.411</gom:speed></extensions></trkpt>
   <trkpt lat="59.326271361" lon="34.7014629875"><ele>165.978</ele><time>2026-08-17T03:01:12.924Z</time><hdop>4.937</hdop><vdop>2.5</vdop><extensions><gom:speed>0.489</gom:speed></extensions></trkpt>
   <trkpt lat="59.3262710676" lon="34.7014663402"><ele>166.069</ele><time>2026-08-17T03:01:13.647Z</time><hdop>5.0</hdop><vdop>2.5</vdop><extensions><gom:speed>0.433</gom:speed></extensions></trkpt>
   <trkpt lat="59.3262718639" lon="34.7014653344"><ele>166.125</ele><time>2026-08-17T03:01:14.647Z</time><hdop>5.062</hdop><vdop>2.5</vdop><extensions><gom:speed>0.178</gom:speed></extensions></trkpt>
   <trkpt lat="59.3262728697" lon="34.7014640771"><ele>166.161</ele><time>2026-08-17T03:01:15.647Z</time><hdop>5.062</hdop><vdop>2.5</vdop><extensions><gom:speed>0.128</gom:speed></extensions></trkpt>
   <trkpt lat="59.3262737918" lon="34.7014629875"><ele>166.182</ele><time>2026-08-17T03:01:16.344Z</time><hdop>5.062</hdop><vdop>2.5</vdop><extensions><gom:speed>0.127</gom:speed></extensions></trkpt>
   <trkpt lat="59.3262740851" lon="34.7014653344"><ele>166.172</ele><time>2026-08-17T03:01:17.647Z</time><hdop>4.875</hdop><vdop>2.5</vdop><extensions><gom:speed>0.136</gom:speed></extensions></trkpt>
   <trkpt lat="59.3262732888" lon="34.7014656697"><ele>166.164</ele><time>2026-08-17T03:01:18.647Z</time><hdop>4.812</hdop><vdop>2.5</vdop><extensions><gom:speed>0.113</gom:speed></extensions></trkpt>
   <trkpt lat="59.3262727859" lon="34.7014661726"><ele>166.159</ele><time>2026-08-17T03:01:19.647Z</time><hdop>4.687</hdop><vdop>2.5</vdop><extensions><gom:speed>0.108</gom:speed></extensions></trkpt>
   <trkpt lat="59.3262729955" lon="34.7014663402"><ele>166.16</ele><time>2026-08-17T03:01:20.647Z</time><hdop>4.625</hdop><vdop>2.5</vdop><extensions><gom:speed>0.111</gom:speed></extensions></trkpt>
   <trkpt lat="59.326272283" lon="34.7014680166"><ele>166.162</ele><time>2026-08-17T03:01:21.647Z</time><hdop>4.5</hdop><vdop>2.5</vdop><extensions><gom:speed>0.109</gom:speed></extensions></trkpt>
   <trkpt lat="59.3262727859" lon="34.7014692739"><ele>166.163</ele><time>2026-08-17T03:01:22.172Z</time><hdop>4.437</hdop><vdop>2.5</vdop><extensions><gom:speed>0.069</gom:speed></extensions></trkpt>
   <trkpt lat="59.3262739594" lon="34.7014689386"><ele>166.164</ele><time>2026-08-17T03:01:22.678Z</time><hdop>4.375</hdop><vdop>2.5</vdop><extensions><gom:speed>0.016</gom:speed></extensions></trkpt>
   <trkpt lat="59.3262742947" lon="34.7014686872"><ele>166.165</ele><time>2026-08-17T03:01:23.366Z</time><hdop>4.312</hdop><vdop>2.5</vdop><extensions><gom:speed>0.07</gom:speed></extensions></trkpt>
   <trkpt lat="59.326275971" lon="34.7014685195"><ele>166.66</ele><time>2026-08-17T03:01:24.646Z</time><hdop>4.25</hdop><vdop>2.5</vdop><extensions><gom:speed>0.113</gom:speed></extensions></trkpt>
   <trkpt lat="59.326275971" lon="34.7014683519"><ele>166.956</ele><time>2026-08-17T03:01:25.106Z</time><hdop>4.187</hdop><vdop>2.5</vdop><extensions><gom:speed>0.107</gom:speed></extensions></trkpt>
   <trkpt lat="59.3262761806" lon="34.7014694415"><ele>166.848</ele><time>2026-08-17T03:01:25.652Z</time><hdop>4.187</hdop><vdop>2.5</vdop><extensions><gom:speed>0.064</gom:speed></extensions></trkpt>
   <trkpt lat="59.3262769769" lon="34.7014706988"><ele>166.784</ele><time>2026-08-17T03:01:26.249Z</time><hdop>4.187</hdop><vdop>2.5</vdop><extensions><gom:speed>0.1</gom:speed></extensions></trkpt>
   <trkpt lat="59.3262782761" lon="34.7014728781"><ele>166.792</ele><time>2026-08-17T03:01:26.725Z</time><hdop>4.125</hdop><vdop>2.5</vdop><extensions><gom:speed>0.065</gom:speed></extensions></trkpt>
   <trkpt lat="59.3262795753" lon="34.7014763985"><ele>166.752</ele><time>2026-08-17T03:01:27.648Z</time><hdop>4.062</hdop><vdop>2.5</vdop><extensions><gom:speed>0.128</gom:speed></extensions></trkpt>
   <trkpt lat="59.3262804973" lon="34.7014788293"><ele>166.725</ele><time>2026-08-17T03:01:28.647Z</time><hdop>4.0</hdop><vdop>2.5</vdop><extensions><gom:speed>0.137</gom:speed></extensions></trkpt>
   <trkpt lat="59.3262818803" lon="34.7014805895"><ele>166.709</ele><time>2026-08-17T03:01:29.647Z</time><hdop>4.0</hdop><vdop>2.5</vdop><extensions><gom:speed>0.145</gom:speed></extensions></trkpt>
   <trkpt lat="59.3262820898" lon="34.7014829364"><ele>166.743</ele><time>2026-08-17T03:01:30.647Z</time><hdop>3.937</hdop><vdop>2.5</vdop><extensions><gom:speed>0.117</gom:speed></extensions></trkpt>
   <trkpt lat="59.3262818803" lon="34.7014835231"><ele>166.763</ele><time>2026-08-17T03:01:31.551Z</time><hdop>3.875</hdop><vdop>2.5</vdop><extensions><gom:speed>0.114</gom:speed></extensions></trkpt>
   <trkpt lat="59.3262825927" lon="34.7014867921"><ele>166.895</ele><time>2026-08-17T03:01:32.087Z</time><hdop>3.875</hdop><vdop>2.5</vdop><extensions><gom:speed>0.083</gom:speed></extensions></trkpt>
   <trkpt lat="59.3262837662" lon="34.7014894743"><ele>167.122</ele><time>2026-08-17T03:01:32.647Z</time><hdop>3.812</hdop><vdop>2.5</vdop><extensions><gom:speed>0.12</gom:speed></extensions></trkpt>
   <trkpt lat="59.3262839758" lon="34.701489139"><ele>167.258</ele><time>2026-08-17T03:01:33.544Z</time><hdop>3.875</hdop><vdop>2.5</vdop><extensions><gom:speed>0.127</gom:speed></extensions></trkpt>
   <trkpt lat="59.3262853588" lon="34.7014962636"><ele>167.134</ele><time>2026-08-17T03:01:34.647Z</time><hdop>3.875</hdop><vdop>2.5</vdop><extensions><gom:speed>0.136</gom:speed></extensions></trkpt>
   <trkpt lat="59.3262904717" lon="34.7015153744"><ele>167.054</ele><time>2026-08-17T03:01:35.646Z</time><hdop>3.75</hdop><vdop>2.5</vdop><extensions><gom:speed>0.162</gom:speed></extensions></trkpt>
   <trkpt lat="59.3262897593" lon="34.7015151229"><ele>167.006</ele><time>2026-08-17T03:01:36.225Z</time><hdop>3.687</hdop><vdop>2.5</vdop><extensions><gom:speed>0.129</gom:speed></extensions></trkpt>
   <trkpt lat="59.3262946627" lon="34.7015267737"><ele>166.754</ele><time>2026-08-17T03:01:37.004Z</time><hdop>3.5</hdop><vdop>2.5</vdop><extensions><gom:speed>0.139</gom:speed></extensions></trkpt>
   <trkpt lat="59.326298686" lon="34.7015358262"><ele>166.576</ele><time>2026-08-17T03:01:37.647Z</time><hdop>3.437</hdop><vdop>2.5</vdop><extensions><gom:speed>0.217</gom:speed></extensions></trkpt>
   <trkpt lat="59.3262990632" lon="34.7015369997"><ele>166.471</ele><time>2026-08-17T03:01:38.360Z</time><hdop>3.312</hdop><vdop>2.5</vdop><extensions><gom:speed>0.2</gom:speed></extensions></trkpt>
   <trkpt lat="59.3263026674" lon="34.701543789"><ele>166.503</ele><time>2026-08-17T03:01:39.352Z</time><hdop>3.062</hdop><vdop>2.5</vdop><extensions><gom:speed>0.177</gom:speed></extensions></trkpt>
   <trkpt lat="59.3263089957" lon="34.7015528415"><ele>166.387</ele><time>2026-08-17T03:01:40.647Z</time><hdop>3.0</hdop><vdop>2.5</vdop><extensions><gom:speed>0.198</gom:speed></extensions></trkpt>
   <trkpt lat="59.326309792" lon="34.7015539311"><ele>166.318</ele><time>2026-08-17T03:01:41.325Z</time><hdop>3.0</hdop><vdop>2.5</vdop><extensions><gom:speed>0.17</gom:speed></extensions></trkpt>
   <trkpt lat="59.3263124742" lon="34.7015570324"><ele>166.323</ele><time>2026-08-17T03:01:42.225Z</time><hdop>3.0</hdop><vdop>2.5</vdop><extensions><gom:speed>0.145</gom:speed></extensions></trkpt>
   <trkpt lat="59.3263148631" lon="34.7015585412"><ele>166.404</ele><time>2026-08-17T03:01:42.691Z</time><hdop>3.0</hdop><vdop>2.5</vdop><extensions><gom:speed>0.089</gom:speed></extensions></trkpt>
   <trkpt lat="59.3263150726" lon="34.7015597984"><ele>166.453</ele><time>2026-08-17T03:01:43.328Z</time><hdop>3.0</hdop><vdop>2.5</vdop><extensions><gom:speed>0.132</gom:speed></extensions></trkpt>
   <trkpt lat="59.3263163718" lon="34.7015637379"><ele>166.44</ele><time>2026-08-17T03:01:43.925Z</time><hdop>3.0</hdop><vdop>2.5</vdop><extensions><gom:speed>0.098</gom:speed></extensions></trkpt>
   <trkpt lat="59.3263173776" lon="34.7015696891"><ele>166.387</ele><time>2026-08-17T03:01:44.647Z</time><hdop>3.0</hdop><vdop>2.5</vdop><extensions><gom:speed>0.155</gom:speed></extensions></trkpt>
   <trkpt lat="59.3263169586" lon="34.7015761432"><ele>166.355</ele><time>2026-08-17T03:01:45.647Z</time><hdop>3.0</hdop><vdop>2.5</vdop><extensions><gom:speed>0.145</gom:speed></extensions></trkpt>
   <trkpt lat="59.3263155755" lon="34.7015802503"><ele>166.336</ele><time>2026-08-17T03:01:46.647Z</time><hdop>3.0</hdop><vdop>2.5</vdop><extensions><gom:speed>0.077</gom:speed></extensions></trkpt>
   <trkpt lat="59.3263155755" lon="34.7015843574"><ele>166.322</ele><time>2026-08-17T03:01:47.647Z</time><hdop>3.0</hdop><vdop>2.5</vdop><extensions><gom:speed>0.077</gom:speed></extensions></trkpt>
   <trkpt lat="59.3263152822" lon="34.7015882969"><ele>166.314</ele><time>2026-08-17T03:01:48.647Z</time><hdop>3.0</hdop><vdop>2.5</vdop><extensions><gom:speed>0.095</gom:speed></extensions></trkpt>
   <trkpt lat="59.3263147793" lon="34.7015879616"><ele>166.308</ele><time>2026-08-17T03:01:49.490Z</time><hdop>3.0</hdop><vdop>2.5</vdop><extensions><gom:speed>0.105</gom:speed></extensions></trkpt>
   <trkpt lat="59.3263148631" lon="34.7015908953"><ele>166.304</ele><time>2026-08-17T03:01:50.006Z</time><hdop>3.0</hdop><vdop>2.5</vdop><extensions><gom:speed>0.071</gom:speed></extensions></trkpt>
   <trkpt lat="59.3263146954" lon="34.7015937451"><ele>166.299</ele><time>2026-08-17T03:01:50.647Z</time><hdop>3.0</hdop><vdop>2.5</vdop><extensions><gom:speed>0.094</gom:speed></extensions></trkpt>
   <trkpt lat="59.3263147793" lon="34.7015959244"><ele>166.296</ele><time>2026-08-17T03:01:51.647Z</time><hdop>3.0</hdop><vdop>2.5</vdop><extensions><gom:speed>0.098</gom:speed></extensions></trkpt>
   <trkpt lat="59.3263147793" lon="34.7015971817"><ele>166.293</ele><time>2026-08-17T03:01:52.647Z</time><hdop>3.0</hdop><vdop>2.5</vdop><extensions><gom:speed>0.093</gom:speed></extensions></trkpt>
   <trkpt lat="59.3263138992" lon="34.7015996963"><ele>166.253</ele><time>2026-08-17T03:01:53.647Z</time><hdop>3.0</hdop><vdop>2.5</vdop><extensions><gom:speed>0.11</gom:speed></extensions></trkpt>
   <trkpt lat="59.3263136896" lon="34.7015992772"><ele>166.229</ele><time>2026-08-17T03:01:54.306Z</time><hdop>3.0</hdop><vdop>2.5</vdop><extensions><gom:speed>0.132</gom:speed></extensions></trkpt>
   <trkpt lat="59.3263132705" lon="34.7016008698"><ele>166.214</ele><time>2026-08-17T03:01:54.846Z</time><hdop>3.0</hdop><vdop>2.5</vdop><extensions><gom:speed>0.098</gom:speed></extensions></trkpt>
   <trkpt lat="59.3263114684" lon="34.7016030491"><ele>166.213</ele><time>2026-08-17T03:01:55.647Z</time><hdop>3.0</hdop><vdop>2.5</vdop><extensions><gom:speed>0.152</gom:speed></extensions></trkpt>
   <trkpt lat="59.3263091634" lon="34.7016048931"><ele>166.391</ele><time>2026-08-17T03:01:56.648Z</time><hdop>3.0</hdop><vdop>2.5</vdop><extensions><gom:speed>0.168</gom:speed></extensions></trkpt>
   <trkpt lat="59.3263066907" lon="34.7016037196"><ele>166.303</ele><time>2026-08-17T03:01:57.647Z</time><hdop>3.0</hdop><vdop>2.5</vdop><extensions><gom:speed>0.241</gom:speed></extensions></trkpt>
   <trkpt lat="59.3263066907" lon="34.7015999478"><ele>166.251</ele><time>2026-08-17T03:01:58.454Z</time><hdop>3.0</hdop><vdop>2.5</vdop><extensions><gom:speed>0.239</gom:speed></extensions></trkpt>
   <trkpt lat="59.326305182" lon="34.7016009536"><ele>166.347</ele><time>2026-08-17T03:01:59.132Z</time><hdop>3.0</hdop><vdop>2.5</vdop><extensions><gom:speed>0.198</gom:speed></extensions></trkpt>
   <trkpt lat="59.326303799" lon="34.701604474"><ele>166.405</ele><time>2026-08-17T03:01:59.647Z</time><hdop>3.0</hdop><vdop>2.5</vdop><extensions><gom:speed>0.16</gom:speed></extensions></trkpt>
   <trkpt lat="59.3263020807" lon="34.7016068209"><ele>166.438</ele><time>2026-08-17T03:02:00.647Z</time><hdop>3.0</hdop><vdop>2.5</vdop><extensions><gom:speed>0.157</gom:speed></extensions></trkpt>
   <trkpt lat="59.3263004881" lon="34.7016096708"><ele>166.457</ele><time>2026-08-17T03:02:01.647Z</time><hdop>3.0</hdop><vdop>2.5</vdop><extensions><gom:speed>0.136</gom:speed></extensions></trkpt>
   <trkpt lat="59.3262991889" lon="34.7016119339"><ele>166.466</ele><time>2026-08-17T03:02:02.647Z</time><hdop>3.0</hdop><vdop>2.5</vdop><extensions><gom:speed>0.114</gom:speed></extensions></trkpt>
   <trkpt lat="59.3262980993" lon="34.7016138617"><ele>166.47</ele><time>2026-08-17T03:02:03.647Z</time><hdop>3.0</hdop><vdop>2.5</vdop><extensions><gom:speed>0.093</gom:speed></extensions></trkpt>
   <trkpt lat="59.3262975964" lon="34.7016146999"><ele>166.471</ele><time>2026-08-17T03:02:04.647Z</time><hdop>3.0</hdop><vdop>2.5</vdop><extensions><gom:speed>0.097</gom:speed></extensions></trkpt>
   <trkpt lat="59.3262984765" lon="34.7016140294"><ele>166.471</ele><time>2026-08-17T03:02:05.460Z</time><hdop>3.0</hdop><vdop>2.5</vdop><extensions><gom:speed>0.117</gom:speed></extensions></trkpt>
   <trkpt lat="59.3262953752" lon="34.7016168792"><ele>166.348</ele><time>2026-08-17T03:02:06.646Z</time><hdop>3.0</hdop><vdop>2.5</vdop><extensions><gom:speed>0.087</gom:speed></extensions></trkpt>
   <trkpt lat="59.3262950818" lon="34.701616041"><ele>166.274</ele><time>2026-08-17T03:02:07.585Z</time><hdop>3.0</hdop><vdop>2.5</vdop><extensions><gom:speed>0.113</gom:speed></extensions></trkpt>
   <trkpt lat="59.3262925672" lon="34.7016180527"><ele>165.814</ele><time>2026-08-17T03:02:08.525Z</time><hdop>3.0</hdop><vdop>2.5</vdop><extensions><gom:speed>0.123</gom:speed></extensions></trkpt>
   <trkpt lat="59.3262891725" lon="34.701617885"><ele>165.683</ele><time>2026-08-17T03:02:09.083Z</time><hdop>3.0</hdop><vdop>2.5</vdop><extensions><gom:speed>0.094</gom:speed></extensions></trkpt>
   <trkpt lat="59.3262850654" lon="34.7016144484"><ele>165.788</ele><time>2026-08-17T03:02:09.647Z</time><hdop>3.0</hdop><vdop>2.5</vdop><extensions><gom:speed>0.158</gom:speed></extensions></trkpt>
   <trkpt lat="59.3262848978" lon="34.7016162925"><ele>165.851</ele><time>2026-08-17T03:02:10.458Z</time><hdop>3.0</hdop><vdop>2.5</vdop><extensions><gom:speed>0.102</gom:speed></extensions></trkpt>
   <trkpt lat="59.3262805811" lon="34.7016159572"><ele>165.912</ele><time>2026-08-17T03:02:11.601Z</time><hdop>3.0</hdop><vdop>2.5</vdop><extensions><gom:speed>0.119</gom:speed></extensions></trkpt>
   <trkpt lat="59.3262769769" lon="34.7016163763"><ele>166.076</ele><time>2026-08-17T03:02:12.077Z</time><hdop>3.0</hdop><vdop>2.5</vdop><extensions><gom:speed>0.11</gom:speed></extensions></trkpt>
   <trkpt lat="59.3262738756" lon="34.7016170468"><ele>166.181</ele><time>2026-08-17T03:02:12.647Z</time><hdop>3.0</hdop><vdop>2.5</vdop><extensions><gom:speed>0.116</gom:speed></extensions></trkpt>
   <trkpt lat="59.3262715705" lon="34.7016180527"><ele>166.248</ele><time>2026-08-17T03:02:13.647Z</time><hdop>3.0</hdop><vdop>2.5</vdop><extensions><gom:speed>0.144</gom:speed></extensions></trkpt>
   <trkpt lat="59.3262692655" lon="34.7016172983"><ele>166.286</ele><time>2026-08-17T03:02:14.646Z</time><hdop>3.0</hdop><vdop>2.5</vdop><extensions><gom:speed>0.14</gom:speed></extensions></trkpt>
   <trkpt lat="59.32626717" lon="34.7016188909"><ele>166.309</ele><time>2026-08-17T03:02:15.647Z</time><hdop>3.0</hdop><vdop>2.5</vdop><extensions><gom:speed>0.116</gom:speed></extensions></trkpt>
   <trkpt lat="59.326265787" lon="34.7016204834"><ele>166.326</ele><time>2026-08-17T03:02:16.648Z</time><hdop>3.0</hdop><vdop>2.5</vdop><extensions><gom:speed>0.106</gom:speed></extensions></trkpt>
   <trkpt lat="59.3262662899" lon="34.701619729"><ele>166.335</ele><time>2026-08-17T03:02:17.622Z</time><hdop>3.0</hdop><vdop>2.5</vdop><extensions><gom:speed>0.12</gom:speed></extensions></trkpt>
   <trkpt lat="59.3262651584" lon="34.7016194776"><ele>166.535</ele><time>2026-08-17T03:02:18.442Z</time><hdop>3.0</hdop><vdop>2.5</vdop><extensions><gom:speed>0.095</gom:speed></extensions></trkpt>
   <trkpt lat="59.3262633982" lon="34.701617885"><ele>166.655</ele><time>2026-08-17T03:02:19.647Z</time><hdop>3.0</hdop><vdop>2.5</vdop><extensions><gom:speed>0.139</gom:speed></extensions></trkpt>
   <trkpt lat="59.3262633982" lon="34.7016179688"><ele>166.727</ele><time>2026-08-17T03:02:20.652Z</time><hdop>3.0</hdop><vdop>2.5</vdop><extensions><gom:speed>0.065</gom:speed></extensions></trkpt>
   <trkpt lat="59.326263482" lon="34.7016163763"><ele>166.773</ele><time>2026-08-17T03:02:21.648Z</time><hdop>3.0</hdop><vdop>2.5</vdop><extensions><gom:speed>0.137</gom:speed></extensions></trkpt>
   <trkpt lat="59.3262630629" lon="34.7016164601"><ele>166.802</ele><time>2026-08-17T03:02:22.660Z</time><hdop>3.0</hdop><vdop>2.5</vdop><extensions><gom:speed>0.073</gom:speed></extensions></trkpt>
   <trkpt lat="59.326263482" lon="34.7016144484"><ele>166.82</ele><time>2026-08-17T03:02:23.561Z</time><hdop>3.0</hdop><vdop>2.5</vdop><extensions><gom:speed>0.107</gom:speed></extensions></trkpt>
   <trkpt lat="59.3262623924" lon="34.7016152866"><ele>166.834</ele><time>2026-08-17T03:02:24.652Z</time><hdop>3.0</hdop><vdop>2.5</vdop><extensions><gom:speed>0.037</gom:speed></extensions></trkpt>
   <trkpt lat="59.3262622666" lon="34.7016125206"><ele>166.846</ele><time>2026-08-17T03:02:25.647Z</time><hdop>3.0</hdop><vdop>2.5</vdop><extensions><gom:speed>0.107</gom:speed></extensions></trkpt>
   <trkpt lat="59.3262622666" lon="34.7016113471"><ele>166.856</ele><time>2026-08-17T03:02:26.646Z</time><hdop>3.0</hdop><vdop>2.5</vdop><extensions><gom:speed>0.095</gom:speed></extensions></trkpt>
   <trkpt lat="59.3262618894" lon="34.7016120177"><ele>166.862</ele><time>2026-08-17T03:02:27.213Z</time><hdop>3.0</hdop><vdop>2.5</vdop><extensions><gom:speed>0.101</gom:speed></extensions></trkpt>
   <trkpt lat="59.3262610932" lon="34.7016102575"><ele>166.869</ele><time>2026-08-17T03:02:28.647Z</time><hdop>3.0</hdop><vdop>2.5</vdop><extensions><gom:speed>0.092</gom:speed></extensions></trkpt>
   <trkpt lat="59.3262605903" lon="34.7016091678"><ele>166.877</ele><time>2026-08-17T03:02:29.648Z</time><hdop>3.0</hdop><vdop>2.5</vdop><extensions><gom:speed>0.088</gom:speed></extensions></trkpt>
   <trkpt lat="59.3262600873" lon="34.7016105928"><ele>166.883</ele><time>2026-08-17T03:02:30.653Z</time><hdop>3.0</hdop><vdop>2.5</vdop><extensions><gom:speed>0.017</gom:speed></extensions></trkpt>
   <trkpt lat="59.3262608836" lon="34.7016101737"><ele>166.891</ele><time>2026-08-17T03:02:31.647Z</time><hdop>3.0</hdop><vdop>2.5</vdop><extensions><gom:speed>0.088</gom:speed></extensions></trkpt>
   <trkpt lat="59.3262613865" lon="34.7016094193"><ele>166.894</ele><time>2026-08-17T03:02:32.647Z</time><hdop>3.0</hdop><vdop>2.5</vdop><extensions><gom:speed>0.099</gom:speed></extensions></trkpt>
   <trkpt lat="59.3262613865" lon="34.7016083297"><ele>166.899</ele><time>2026-08-17T03:02:33.647Z</time><hdop>3.0</hdop><vdop>2.5</vdop><extensions><gom:speed>0.106</gom:speed></extensions></trkpt>
   <trkpt lat="59.3262610932" lon="34.7016091678"><ele>166.904</ele><time>2026-08-17T03:02:34.647Z</time><hdop>3.0</hdop><vdop>2.5</vdop><extensions><gom:speed>0.091</gom:speed></extensions></trkpt>
   <trkpt lat="59.3262609674" lon="34.7016088326"><ele>166.906</ele><time>2026-08-17T03:02:35.647Z</time><hdop>3.0</hdop><vdop>2.5</vdop><extensions><gom:speed>0.104</gom:speed></extensions></trkpt>
   <trkpt lat="59.3262603807" lon="34.7016092517"><ele>166.911</ele><time>2026-08-17T03:02:36.647Z</time><hdop>3.0</hdop><vdop>2.5</vdop><extensions><gom:speed>0.093</gom:speed></extensions></trkpt>
   <trkpt lat="59.3262593749" lon="34.7016078267"><ele>166.917</ele><time>2026-08-17T03:02:37.652Z</time><hdop>3.0</hdop><vdop>2.5</vdop><extensions><gom:speed>0.019</gom:speed></extensions></trkpt>
   <trkpt lat="59.3262598778" lon="34.7016074915"><ele>166.922</ele><time>2026-08-17T03:02:38.647Z</time><hdop>3.0</hdop><vdop>2.5</vdop><extensions><gom:speed>0.093</gom:speed></extensions></trkpt>
   <trkpt lat="59.3262589977" lon="34.7016087488"><ele>166.927</ele><time>2026-08-17T03:02:39.658Z</time><hdop>3.0</hdop><vdop>2.5</vdop><extensions><gom:speed>0.026</gom:speed></extensions></trkpt>
   <trkpt lat="59.3262594587" lon="34.7016077429"><ele>166.929</ele><time>2026-08-17T03:02:40.647Z</time><hdop>3.0</hdop><vdop>2.5</vdop><extensions><gom:speed>0.092</gom:speed></extensions></trkpt>
   <trkpt lat="59.3262594587" lon="34.7016082458"><ele>166.932</ele><time>2026-08-17T03:02:41.647Z</time><hdop>3.0</hdop><vdop>2.5</vdop><extensions><gom:speed>0.0</gom:speed></extensions></trkpt>
   <trkpt lat="59.3262594587" lon="34.7016080782"><ele>166.934</ele><time>2026-08-17T03:02:42.647Z</time><hdop>3.0</hdop><vdop>2.5</vdop><extensions><gom:speed>0.014</gom:speed></extensions></trkpt>
   <trkpt lat="59.3262595844" lon="34.7016080782"><ele>166.936</ele><time>2026-08-17T03:02:43.402Z</time><hdop>3.0</hdop><vdop>2.5</vdop><extensions><gom:speed>0.015</gom:speed></extensions></trkpt>
   <trkpt lat="59.326259794" lon="34.7016076591"><ele>166.937</ele><time>2026-08-17T03:02:44.652Z</time><hdop>3.0</hdop><vdop>2.5</vdop><extensions><gom:speed>0.027</gom:speed></extensions></trkpt>
   <trkpt lat="59.3262599616" lon="34.70160724"><ele>166.94</ele><time>2026-08-17T03:02:45.647Z</time><hdop>3.0</hdop><vdop>2.5</vdop><extensions><gom:speed>0.038</gom:speed></extensions></trkpt>
   <trkpt lat="59.3262601712" lon="34.7016069886"><ele>166.94</ele><time>2026-08-17T03:02:46.647Z</time><hdop>3.0</hdop><vdop>2.5</vdop><extensions><gom:speed>0.041</gom:speed></extensions></trkpt>
   <trkpt lat="59.3262604645" lon="34.7016066533"><ele>166.939</ele><time>2026-08-17T03:02:47.652Z</time><hdop>3.0</hdop><vdop>2.5</vdop><extensions><gom:speed>0.042</gom:speed></extensions></trkpt>
   <trkpt lat="59.3262605903" lon="34.701606318"><ele>166.939</ele><time>2026-08-17T03:02:48.647Z</time><hdop>3.0</hdop><vdop>2.5</vdop><extensions><gom:speed>0.049</gom:speed></extensions></trkpt>
   <trkpt lat="59.3262608836" lon="34.7016059827"><ele>166.944</ele><time>2026-08-17T03:02:49.675Z</time><hdop>3.0</hdop><vdop>2.5</vdop><extensions><gom:speed>0.05</gom:speed></extensions></trkpt>
   <trkpt lat="59.3262609674" lon="34.7016058989"><ele>166.981</ele><time>2026-08-17T03:02:50.646Z</time><hdop>3.0</hdop><vdop>2.5</vdop><extensions><gom:speed>0.108</gom:speed></extensions></trkpt>
   <trkpt lat="59.3262613865" lon="34.701605396"><ele>167.003</ele><time>2026-08-17T03:02:51.264Z</time><hdop>3.0</hdop><vdop>2.5</vdop><extensions><gom:speed>0.108</gom:speed></extensions></trkpt>
   <trkpt lat="59.3262618894" lon="34.7016051445"><ele>167.04</ele><time>2026-08-17T03:02:52.063Z</time><hdop>3.0</hdop><vdop>2.5</vdop><extensions><gom:speed>0.122</gom:speed></extensions></trkpt>
   <trkpt lat="59.3262624762" lon="34.7016045578"><ele>166.953</ele><time>2026-08-17T03:02:52.647Z</time><hdop>3.0</hdop><vdop>2.5</vdop><extensions><gom:speed>0.098</gom:speed></extensions></trkpt>
   <trkpt lat="59.3262628953" lon="34.7016041387"><ele>166.9</ele><time>2026-08-17T03:02:53.420Z</time><hdop>3.0</hdop><vdop>2.5</vdop><extensions><gom:speed>0.098</gom:speed></extensions></trkpt>
   <trkpt lat="59.3262637754" lon="34.7016032167"><ele>166.861</ele><time>2026-08-17T03:02:54.652Z</time><hdop>3.0</hdop><vdop>2.625</vdop><extensions><gom:speed>0.09</gom:speed></extensions></trkpt>
   <trkpt lat="59.3262647812" lon="34.7016019594"><ele>166.838</ele><time>2026-08-17T03:02:55.647Z</time><hdop>3.0</hdop><vdop>2.687</vdop><extensions><gom:speed>0.082</gom:speed></extensions></trkpt>
   <trkpt lat="59.3262651584" lon="34.7016014565"><ele>166.826</ele><time>2026-08-17T03:02:56.657Z</time><hdop>3.0</hdop><vdop>2.687</vdop><extensions><gom:speed>0.082</gom:speed></extensions></trkpt>
   <trkpt lat="59.326265787" lon="34.7016000316"><ele>166.819</ele><time>2026-08-17T03:02:57.646Z</time><hdop>3.0</hdop><vdop>2.5</vdop><extensions><gom:speed>0.072</gom:speed></extensions></trkpt>
   <trkpt lat="59.3262663738" lon="34.701599361"><ele>166.817</ele><time>2026-08-17T03:02:58.647Z</time><hdop>3.0</hdop><vdop>2.5</vdop><extensions><gom:speed>0.072</gom:speed></extensions></trkpt>
   <trkpt lat="59.3262666671" lon="34.7015990257"><ele>166.816</ele><time>2026-08-17T03:02:59.591Z</time><hdop>3.0</hdop><vdop>2.5</vdop><extensions><gom:speed>0.072</gom:speed></extensions></trkpt>
   <trkpt lat="59.3262673796" lon="34.7015978523"><ele>166.819</ele><time>2026-08-17T03:03:00.647Z</time><hdop>3.0</hdop><vdop>2.5</vdop><extensions><gom:speed>0.072</gom:speed></extensions></trkpt>
   <trkpt lat="59.3262677987" lon="34.701597517"><ele>166.917</ele><time>2026-08-17T03:03:01.652Z</time><hdop>3.0</hdop><vdop>2.5</vdop><extensions><gom:speed>0.072</gom:speed></extensions></trkpt>
   <trkpt lat="59.3262680921" lon="34.7015954215"><ele>167.099</ele><time>2026-08-17T03:03:02.647Z</time><hdop>3.0</hdop><vdop>2.5</vdop><extensions><gom:speed>0.1</gom:speed></extensions></trkpt>
   <trkpt lat="59.3262683854" lon="34.7015940804"><ele>167.209</ele><time>2026-08-17T03:03:03.647Z</time><hdop>3.0</hdop><vdop>2.5</vdop><extensions><gom:speed>0.132</gom:speed></extensions></trkpt>
   <trkpt lat="59.3262687626" lon="34.7015931584"><ele>167.039</ele><time>2026-08-17T03:03:04.650Z</time><hdop>3.0</hdop><vdop>2.5</vdop><extensions><gom:speed>0.133</gom:speed></extensions></trkpt>
   <trkpt lat="59.3262689722" lon="34.7015921526"><ele>166.938</ele><time>2026-08-17T03:03:05.155Z</time><hdop>3.0</hdop><vdop>2.5</vdop><extensions><gom:speed>0.104</gom:speed></extensions></trkpt>
   <trkpt lat="59.3262691817" lon="34.7015912306"><ele>166.85</ele><time>2026-08-17T03:03:05.647Z</time><hdop>3.0</hdop><vdop>2.5</vdop><extensions><gom:speed>0.096</gom:speed></extensions></trkpt>
   <trkpt lat="59.3262695589" lon="34.7015907277"><ele>166.796</ele><time>2026-08-17T03:03:06.652Z</time><hdop>3.0</hdop><vdop>2.5</vdop><extensions><gom:speed>0.097</gom:speed></extensions></trkpt>
   <trkpt lat="59.3262698942" lon="34.7015894704"><ele>166.762</ele><time>2026-08-17T03:03:07.652Z</time><hdop>3.0</hdop><vdop>2.5</vdop><extensions><gom:speed>0.087</gom:speed></extensions></trkpt>
   <trkpt lat="59.3262701875" lon="34.7015884645"><ele>166.74</ele><time>2026-08-17T03:03:08.652Z</time><hdop>3.0</hdop><vdop>2.5</vdop><extensions><gom:speed>0.078</gom:speed></extensions></trkpt>
   <trkpt lat="59.3262704809" lon="34.701586872"><ele>166.461</ele><time>2026-08-17T03:03:09.647Z</time><hdop>3.0</hdop><vdop>2.5</vdop><extensions><gom:speed>0.07</gom:speed></extensions></trkpt>
   <trkpt lat="59.3262706904" lon="34.7015863691"><ele>166.294</ele><time>2026-08-17T03:03:10.518Z</time><hdop>3.0</hdop><vdop>2.5</vdop><extensions><gom:speed>0.07</gom:speed></extensions></trkpt>
   <trkpt lat="59.3262711934" lon="34.7015837707"><ele>166.194</ele><time>2026-08-17T03:03:11.647Z</time><hdop>3.0</hdop><vdop>2.5</vdop><extensions><gom:speed>0.072</gom:speed></extensions></trkpt>
   <trkpt lat="59.3262712772" lon="34.701582681"><ele>166.134</ele><time>2026-08-17T03:03:12.647Z</time><hdop>3.0</hdop><vdop>2.5</vdop><extensions><gom:speed>0.073</gom:speed></extensions></trkpt>
   <trkpt lat="59.3262715705" lon="34.7015821781"><ele>166.099</ele><time>2026-08-17T03:03:13.654Z</time><hdop>3.0</hdop><vdop>2.5</vdop><extensions><gom:speed>0.074</gom:speed></extensions></trkpt>
   <trkpt lat="59.3262716963" lon="34.7015811723"><ele>166.079</ele><time>2026-08-17T03:03:14.322Z</time><hdop>3.0</hdop><vdop>2.5</vdop><extensions><gom:speed>0.075</gom:speed></extensions></trkpt>
   <trkpt lat="59.3262717801" lon="34.7015794959"><ele>166.067</ele><time>2026-08-17T03:03:15.646Z</time><hdop>3.0</hdop><vdop>2.5</vdop><extensions><gom:speed>0.073</gom:speed></extensions></trkpt>
   <trkpt lat="59.3262719896" lon="34.7015788254"><ele>166.189</ele><time>2026-08-17T03:03:16.648Z</time><hdop>3.0</hdop><vdop>2.5</vdop><extensions><gom:speed>0.215</gom:speed></extensions></trkpt>
   <trkpt lat="59.326272283" lon="34.7015768975"><ele>166.345</ele><time>2026-08-17T03:03:17.647Z</time><hdop>3.0</hdop><vdop>2.5</vdop><extensions><gom:speed>0.18</gom:speed></extensions></trkpt>
   <trkpt lat="59.3262717801" lon="34.7015749697"><ele>166.576</ele><time>2026-08-17T03:03:18.648Z</time><hdop>3.0</hdop><vdop>2.5</vdop><extensions><gom:speed>0.1</gom:speed></extensions></trkpt>
   <trkpt lat="59.3262720735" lon="34.701574383"><ele>166.713</ele><time>2026-08-17T03:03:19.559Z</time><hdop>3.0</hdop><vdop>2.5</vdop><extensions><gom:speed>0.102</gom:speed></extensions></trkpt>
   <trkpt lat="59.3262716963" lon="34.7015707787"><ele>166.914</ele><time>2026-08-17T03:03:20.065Z</time><hdop>3.0</hdop><vdop>2.5</vdop><extensions><gom:speed>0.091</gom:speed></extensions></trkpt>
   <trkpt lat="59.3262721992" lon="34.7015648276"><ele>167.049</ele><time>2026-08-17T03:03:20.647Z</time><hdop>3.0</hdop><vdop>2.5</vdop><extensions><gom:speed>0.152</gom:speed></extensions></trkpt>
   <trkpt lat="59.3262726602" lon="34.7015643247"><ele>167.13</ele><time>2026-08-17T03:03:21.583Z</time><hdop>3.0</hdop><vdop>2.5</vdop><extensions><gom:speed>0.158</gom:speed></extensions></trkpt>
   <trkpt lat="59.3262752586" lon="34.701559547"><ele>166.861</ele><time>2026-08-17T03:03:22.443Z</time><hdop>3.0</hdop><vdop>2.5</vdop><extensions><gom:speed>0.155</gom:speed></extensions></trkpt>
   <trkpt lat="59.3262789885" lon="34.7015552722"><ele>166.5</ele><time>2026-08-17T03:03:23.485Z</time><hdop>3.0</hdop><vdop>2.5</vdop><extensions><gom:speed>0.187</gom:speed></extensions></trkpt>
   <trkpt lat="59.3262851911" lon="34.7015466389"><ele>166.335</ele><time>2026-08-17T03:03:24.647Z</time><hdop>3.0</hdop><vdop>2.625</vdop><extensions><gom:speed>0.148</gom:speed></extensions></trkpt>
   <trkpt lat="59.3262873704" lon="34.701543789"><ele>166.24</ele><time>2026-08-17T03:03:25.647Z</time><hdop>3.0</hdop><vdop>2.625</vdop><extensions><gom:speed>0.127</gom:speed></extensions></trkpt>
   <trkpt lat="59.3262886696" lon="34.7015412744"><ele>166.187</ele><time>2026-08-17T03:03:26.647Z</time><hdop>3.0</hdop><vdop>2.562</vdop><extensions><gom:speed>0.105</gom:speed></extensions></trkpt>
   <trkpt lat="59.3262885858" lon="34.7015413583"><ele>166.155</ele><time>2026-08-17T03:03:27.219Z</time><hdop>3.0</hdop><vdop>2.562</vdop><extensions><gom:speed>0.088</gom:speed></extensions></trkpt>
   <trkpt lat="59.3262914776" lon="34.7015388437"><ele>166.216</ele><time>2026-08-17T03:03:28.647Z</time><hdop>3.0</hdop><vdop>2.5</vdop><extensions><gom:speed>0.101</gom:speed></extensions></trkpt>
   <trkpt lat="59.3262917709" lon="34.7015387599"><ele>166.252</ele><time>2026-08-17T03:03:29.102Z</time><hdop>3.0</hdop><vdop>2.5</vdop><extensions><gom:speed>0.057</gom:speed></extensions></trkpt>
   <trkpt lat="59.32629219" lon="34.7015389275"><ele>165.99</ele><time>2026-08-17T03:03:29.647Z</time><hdop>3.0</hdop><vdop>2.5</vdop><extensions><gom:speed>0.129</gom:speed></extensions></trkpt>
   <trkpt lat="59.3262936988" lon="34.7015372511"><ele>165.834</ele><time>2026-08-17T03:03:30.239Z</time><hdop>3.0</hdop><vdop>2.5</vdop><extensions><gom:speed>0.133</gom:speed></extensions></trkpt>
   <trkpt lat="59.3262944951" lon="34.7015344851"><ele>165.746</ele><time>2026-08-17T03:03:31.028Z</time><hdop>3.0</hdop><vdop>2.5</vdop><extensions><gom:speed>0.113</gom:speed></extensions></trkpt>
   <trkpt lat="59.3262946627" lon="34.7015328925"><ele>165.693</ele><time>2026-08-17T03:03:31.583Z</time><hdop>3.0</hdop><vdop>2.5</vdop><extensions><gom:speed>0.138</gom:speed></extensions></trkpt>
   <trkpt lat="59.3262951656" lon="34.7015312161"><ele>165.663</ele><time>2026-08-17T03:03:32.079Z</time><hdop>3.0</hdop><vdop>2.5</vdop><extensions><gom:speed>0.119</gom:speed></extensions></trkpt>
   <trkpt lat="59.3262951656" lon="34.7015296236"><ele>165.645</ele><time>2026-08-17T03:03:32.646Z</time><hdop>3.0</hdop><vdop>2.5</vdop><extensions><gom:speed>0.146</gom:speed></extensions></trkpt>
   <trkpt lat="59.3262973868" lon="34.7015241754"><ele>166.316</ele><time>2026-08-17T03:03:33.647Z</time><hdop>3.0</hdop><vdop>2.625</vdop><extensions><gom:speed>0.138</gom:speed></extensions></trkpt>
   <trkpt lat="59.3262974706" lon="34.7015223313"><ele>166.718</ele><time>2026-08-17T03:03:34.427Z</time><hdop>3.0</hdop><vdop>2.625</vdop><extensions><gom:speed>0.161</gom:speed></extensions></trkpt>
   <trkpt lat="59.3262995661" lon="34.7015176375"><ele>167.093</ele><time>2026-08-17T03:03:35.642Z</time><hdop>3.0</hdop><vdop>2.5</vdop><extensions><gom:speed>0.14</gom:speed></extensions></trkpt>
   <trkpt lat="59.3263013682" lon="34.7015148714"><ele>167.567</ele><time>2026-08-17T03:03:36.647Z</time><hdop>3.0</hdop><vdop>3.0</vdop><extensions><gom:speed>0.121</gom:speed></extensions></trkpt>
   <trkpt lat="59.326300991" lon="34.7015138656"><ele>167.818</ele><time>2026-08-17T03:03:37.655Z</time><hdop>3.0</hdop><vdop>3.187</vdop><extensions><gom:speed>0.07</gom:speed></extensions></trkpt>
   <trkpt lat="59.326300069" lon="34.7015107643"><ele>167.974</ele><time>2026-08-17T03:03:38.647Z</time><hdop>3.0</hdop><vdop>3.0</vdop><extensions><gom:speed>0.11</gom:speed></extensions></trkpt>
   <trkpt lat="59.3262992727" lon="34.7015092556"><ele>168.071</ele><time>2026-08-17T03:03:39.647Z</time><hdop>3.0</hdop><vdop>2.937</vdop><extensions><gom:speed>0.103</gom:speed></extensions></trkpt>
   <trkpt lat="59.326298686" lon="34.7015074954"><ele>168.136</ele><time>2026-08-17T03:03:40.647Z</time><hdop>3.0</hdop><vdop>2.937</vdop><extensions><gom:speed>0.089</gom:speed></extensions></trkpt>
   <trkpt lat="59.3262980993" lon="34.7015061543"><ele>168.175</ele><time>2026-08-17T03:03:41.647Z</time><hdop>3.0</hdop><vdop>3.0</vdop><extensions><gom:speed>0.081</gom:speed></extensions></trkpt>
   <trkpt lat="59.3262981831" lon="34.7015077468"><ele>168.197</ele><time>2026-08-17T03:03:42.652Z</time><hdop>3.0</hdop><vdop>3.062</vdop><extensions><gom:speed>0.014</gom:speed></extensions></trkpt>
   <trkpt lat="59.3262974706" lon="34.701505819"><ele>168.21</ele><time>2026-08-17T03:03:43.423Z</time><hdop>3.0</hdop><vdop>3.062</vdop><extensions><gom:speed>0.108</gom:speed></extensions></trkpt>
   <trkpt lat="59.3262974706" lon="34.7015061543"><ele>168.234</ele><time>2026-08-17T03:03:44.652Z</time><hdop>3.0</hdop><vdop>3.062</vdop><extensions><gom:speed>0.01</gom:speed></extensions></trkpt>
   <trkpt lat="59.3262969677" lon="34.7015040588"><ele>168.248</ele><time>2026-08-17T03:03:45.648Z</time><hdop>3.0</hdop><vdop>3.125</vdop><extensions><gom:speed>0.107</gom:speed></extensions></trkpt>
   <trkpt lat="59.3262959619" lon="34.7015049808"><ele>168.255</ele><time>2026-08-17T03:03:46.659Z</time><hdop>3.0</hdop><vdop>3.187</vdop><extensions><gom:speed>0.009</gom:speed></extensions></trkpt>
   <trkpt lat="59.3262956685" lon="34.7015036397"><ele>168.263</ele><time>2026-08-17T03:03:47.647Z</time><hdop>3.0</hdop><vdop>2.937</vdop><extensions><gom:speed>0.081</gom:speed></extensions></trkpt>
   <trkpt lat="59.326295459" lon="34.7015038911"><ele>168.276</ele><time>2026-08-17T03:03:48.647Z</time><hdop>3.0</hdop><vdop>2.875</vdop><extensions><gom:speed>0.088</gom:speed></extensions></trkpt>
   <trkpt lat="59.3262956685" lon="34.7015050646"><ele>168.287</ele><time>2026-08-17T03:03:49.652Z</time><hdop>3.0</hdop><vdop>2.562</vdop><extensions><gom:speed>0.017</gom:speed></extensions></trkpt>
   <trkpt lat="59.3262942855" lon="34.7015033882"><ele>167.845</ele><time>2026-08-17T03:03:50.648Z</time><hdop>3.0</hdop><vdop>2.5</vdop><extensions><gom:speed>0.097</gom:speed></extensions></trkpt>
   <trkpt lat="59.3262937826" lon="34.70150255"><ele>168.18</ele><time>2026-08-17T03:03:51.652Z</time><hdop>3.0</hdop><vdop>2.625</vdop><extensions><gom:speed>0.024</gom:speed></extensions></trkpt>
   <trkpt lat="59.3262900946" lon="34.7014982753"><ele>168.375</ele><time>2026-08-17T03:03:52.647Z</time><hdop>3.0</hdop><vdop>2.625</vdop><extensions><gom:speed>0.093</gom:speed></extensions></trkpt>
   <trkpt lat="59.3262904717" lon="34.7014984429"><ele>168.493</ele><time>2026-08-17T03:03:53.652Z</time><hdop>3.0</hdop><vdop>2.625</vdop><extensions><gom:speed>0.021</gom:speed></extensions></trkpt>
   <trkpt lat="59.3262891725" lon="34.7014961798"><ele>168.564</ele><time>2026-08-17T03:03:54.552Z</time><hdop>3.0</hdop><vdop>2.625</vdop><extensions><gom:speed>0.102</gom:speed></extensions></trkpt>
   <trkpt lat="59.3262877895" lon="34.7014944196"><ele>168.63</ele><time>2026-08-17T03:03:55.648Z</time><hdop>3.0</hdop><vdop>2.687</vdop><extensions><gom:speed>0.092</gom:speed></extensions></trkpt>
   <trkpt lat="59.3262877895" lon="34.7014932461"><ele>168.67</ele><time>2026-08-17T03:03:56.652Z</time><hdop>3.0</hdop><vdop>2.75</vdop><extensions><gom:speed>0.093</gom:speed></extensions></trkpt>
   <trkpt lat="59.3262870771" lon="34.7014926594"><ele>168.696</ele><time>2026-08-17T03:03:57.647Z</time><hdop>3.0</hdop><vdop>2.75</vdop><extensions><gom:speed>0.085</gom:speed></extensions></trkpt>
   <trkpt lat="59.3262874962" lon="34.7014917374"><ele>168.725</ele><time>2026-08-17T03:03:58.652Z</time><hdop>3.0</hdop><vdop>2.812</vdop><extensions><gom:speed>0.086</gom:speed></extensions></trkpt>
   <trkpt lat="59.3262869932" lon="34.7014916536"><ele>168.743</ele><time>2026-08-17T03:03:59.647Z</time><hdop>3.0</hdop><vdop>2.937</vdop><extensions><gom:speed>0.08</gom:speed></extensions></trkpt>
   <trkpt lat="59.3262870771" lon="34.7014910668"><ele>168.754</ele><time>2026-08-17T03:04:00.339Z</time><hdop>3.0</hdop><vdop>2.937</vdop><extensions><gom:speed>0.08</gom:speed></extensions></trkpt>
   <trkpt lat="59.3262869932" lon="34.7014905639"><ele>168.759</ele><time>2026-08-17T03:04:01.098Z</time><hdop>3.0</hdop><vdop>3.062</vdop><extensions><gom:speed>0.073</gom:speed></extensions></trkpt>
   <trkpt lat="59.3262870771" lon="34.701490061"><ele>169.167</ele><time>2026-08-17T03:04:01.653Z</time><hdop>3.0</hdop><vdop>2.937</vdop><extensions><gom:speed>0.073</gom:speed></extensions></trkpt>
   <trkpt lat="59.3262865742" lon="34.7014869597"><ele>169.375</ele><time>2026-08-17T03:04:02.647Z</time><hdop>3.0</hdop><vdop>3.0</vdop><extensions><gom:speed>0.127</gom:speed></extensions></trkpt>
   <trkpt lat="59.3262878733" lon="34.7014857862"><ele>170.195</ele><time>2026-08-17T03:04:03.653Z</time><hdop>3.0</hdop><vdop>2.937</vdop><extensions><gom:speed>0.266</gom:speed></extensions></trkpt>
   <trkpt lat="59.3262931959" lon="34.7014682681"><ele>170.6</ele><time>2026-08-17T03:04:04.647Z</time><hdop>3.0</hdop><vdop>3.125</vdop><extensions><gom:speed>0.405</gom:speed></extensions></trkpt>
   <trkpt lat="59.326294998" lon="34.7014606405"><ele>170.842</ele><time>2026-08-17T03:04:05.600Z</time><hdop>3.0</hdop><vdop>3.125</vdop><extensions><gom:speed>0.472</gom:speed></extensions></trkpt>
   <trkpt lat="59.3262975964" lon="34.7014549408"><ele>171.577</ele><time>2026-08-17T03:04:06.501Z</time><hdop>3.0</hdop><vdop>3.0</vdop><extensions><gom:speed>0.386</gom:speed></extensions></trkpt>
   <trkpt lat="59.3263019969" lon="34.7014481515"><ele>171.881</ele><time>2026-08-17T03:04:07.239Z</time><hdop>3.062</hdop><vdop>3.0</vdop><extensions><gom:speed>0.397</gom:speed></extensions></trkpt>
   <trkpt lat="59.3263063974" lon="34.7014418651"><ele>171.988</ele><time>2026-08-17T03:04:07.959Z</time><hdop>3.062</hdop><vdop>3.062</vdop><extensions><gom:speed>0.431</gom:speed></extensions></trkpt>
   <trkpt lat="59.3263078642" lon="34.7014370874"><ele>172.051</ele><time>2026-08-17T03:04:08.646Z</time><hdop>3.125</hdop><vdop>3.062</vdop><extensions><gom:speed>0.431</gom:speed></extensions></trkpt>
   <trkpt lat="59.3263124742" lon="34.7014301304"><ele>172.06</ele><time>2026-08-17T03:04:09.637Z</time><hdop>3.187</hdop><vdop>2.875</vdop><extensions><gom:speed>0.426</gom:speed></extensions></trkpt>
   <trkpt lat="59.3263179644" lon="34.7014220838"><ele>171.92</ele><time>2026-08-17T03:04:10.652Z</time><hdop>3.187</hdop><vdop>2.75</vdop><extensions><gom:speed>0.382</gom:speed></extensions></trkpt>
   <trkpt lat="59.3263230773" lon="34.7014040627"><ele>171.613</ele><time>2026-08-17T03:04:11.647Z</time><hdop>3.187</hdop><vdop>2.875</vdop><extensions><gom:speed>0.554</gom:speed></extensions></trkpt>
   <trkpt lat="59.3263255919" lon="34.7013969381"><ele>171.43</ele><time>2026-08-17T03:04:12.582Z</time><hdop>3.125</hdop><vdop>2.875</vdop><extensions><gom:speed>0.501</gom:speed></extensions></trkpt>
   <trkpt lat="59.3263286932" lon="34.7013812639"><ele>171.371</ele><time>2026-08-17T03:04:13.300Z</time><hdop>3.125</hdop><vdop>3.0</vdop><extensions><gom:speed>0.584</gom:speed></extensions></trkpt>
   <trkpt lat="59.3263304953" lon="34.7013783302"><ele>171.283</ele><time>2026-08-17T03:04:13.907Z</time><hdop>3.062</hdop><vdop>3.0</vdop><extensions><gom:speed>0.398</gom:speed></extensions></trkpt>
   <trkpt lat="59.3263319622" lon="34.7013746422"><ele>171.231</ele><time>2026-08-17T03:04:14.565Z</time><hdop>3.062</hdop><vdop>3.0</vdop><extensions><gom:speed>0.404</gom:speed></extensions></trkpt>
   <trkpt lat="59.3263372847" lon="34.7013586328"><ele>171.152</ele><time>2026-08-17T03:04:15.445Z</time><hdop>3.062</hdop><vdop>2.937</vdop><extensions><gom:speed>0.531</gom:speed></extensions></trkpt>
   <trkpt lat="59.3263419785" lon="34.7013450541"><ele>171.074</ele><time>2026-08-17T03:04:16.184Z</time><hdop>3.062</hdop><vdop>3.187</vdop><extensions><gom:speed>0.571</gom:speed></extensions></trkpt>
   <trkpt lat="59.3263439902" lon="34.7013412822"><ele>171.058</ele><time>2026-08-17T03:04:16.649Z</time><hdop>3.062</hdop><vdop>3.562</vdop><extensions><gom:speed>0.564</gom:speed></extensions></trkpt>
   <trkpt lat="59.3263507795" lon="34.701318232"><ele>170.479</ele><time>2026-08-17T03:04:17.647Z</time><hdop>3.0</hdop><vdop>3.187</vdop><extensions><gom:speed>0.682</gom:speed></extensions></trkpt>
   <trkpt lat="59.3263532941" lon="34.7013093472"><ele>170.132</ele><time>2026-08-17T03:04:18.561Z</time><hdop>3.0</hdop><vdop>3.187</vdop><extensions><gom:speed>0.621</gom:speed></extensions></trkpt>
   <trkpt lat="59.3263569821" lon="34.7012950979"><ele>170.135</ele><time>2026-08-17T03:04:19.583Z</time><hdop>3.062</hdop><vdop>3.187</vdop><extensions><gom:speed>0.571</gom:speed></extensions></trkpt>
   <trkpt lat="59.3263596643" lon="34.7012798429"><ele>169.976</ele><time>2026-08-17T03:04:20.303Z</time><hdop>3.0</hdop><vdop>3.25</vdop><extensions><gom:speed>0.604</gom:speed></extensions></trkpt>
   <trkpt lat="59.3263629752" lon="34.7012637496"><ele>169.807</ele><time>2026-08-17T03:04:21.000Z</time><hdop>3.0</hdop><vdop>3.187</vdop><extensions><gom:speed>0.683</gom:speed></extensions></trkpt>
   <trkpt lat="59.3263664956" lon="34.7012480755"><ele>169.881</ele><time>2026-08-17T03:04:21.647Z</time><hdop>3.0</hdop><vdop>3.562</vdop><extensions><gom:speed>0.706</gom:speed></extensions></trkpt>
   <trkpt lat="59.3263693874" lon="34.7012381848"><ele>169.989</ele><time>2026-08-17T03:04:22.653Z</time><hdop>3.0</hdop><vdop>3.437</vdop><extensions><gom:speed>0.604</gom:speed></extensions></trkpt>
   <trkpt lat="59.3263752966" lon="34.7012198284"><ele>170.053</ele><time>2026-08-17T03:04:23.681Z</time><hdop>3.0</hdop><vdop>3.437</vdop><extensions><gom:speed>0.635</gom:speed></extensions></trkpt>
   <trkpt lat="59.3263775597" lon="34.7012122847"><ele>169.971</ele><time>2026-08-17T03:04:24.339Z</time><hdop>3.0</hdop><vdop>3.75</vdop><extensions><gom:speed>0.59</gom:speed></extensions></trkpt>
   <trkpt lat="59.3263798647" lon="34.7012033999"><ele>169.139</ele><time>2026-08-17T03:04:25.382Z</time><hdop>3.062</hdop><vdop>3.187</vdop><extensions><gom:speed>0.491</gom:speed></extensions></trkpt>
   <trkpt lat="59.3263825889" lon="34.7011947666"><ele>168.794</ele><time>2026-08-17T03:04:26.119Z</time><hdop>3.125</hdop><vdop>3.062</vdop><extensions><gom:speed>0.511</gom:speed></extensions></trkpt>
   <trkpt lat="59.3263841814" lon="34.701188983"><ele>168.125</ele><time>2026-08-17T03:04:26.646Z</time><hdop>3.187</hdop><vdop>3.062</vdop><extensions><gom:speed>0.534</gom:speed></extensions></trkpt>
   <trkpt lat="59.3263867798" lon="34.7011786733"><ele>167.733</ele><time>2026-08-17T03:04:27.652Z</time><hdop>3.375</hdop><vdop>2.875</vdop><extensions><gom:speed>0.514</gom:speed></extensions></trkpt>
   <trkpt lat="59.326389462" lon="34.7011690341"><ele>167.806</ele><time>2026-08-17T03:04:28.647Z</time><hdop>3.5</hdop><vdop>2.75</vdop><extensions><gom:speed>0.524</gom:speed></extensions></trkpt>
   <trkpt lat="59.3263900907" lon="34.7011655975"><ele>167.849</ele><time>2026-08-17T03:04:29.185Z</time><hdop>3.625</hdop><vdop>2.75</vdop><extensions><gom:speed>0.459</gom:speed></extensions></trkpt>
   <trkpt lat="59.3263911803" lon="34.7011612389"><ele>167.638</ele><time>2026-08-17T03:04:29.647Z</time><hdop>3.687</hdop><vdop>2.562</vdop><extensions><gom:speed>0.452</gom:speed></extensions></trkpt>
   <trkpt lat="59.3263919766" lon="34.7011584729"><ele>167.729</ele><time>2026-08-17T03:04:30.714Z</time><hdop>3.875</hdop><vdop>2.562</vdop><extensions><gom:speed>0.308</gom:speed></extensions></trkpt>
   <trkpt lat="59.3263995622" lon="34.7011390269"><ele>167.765</ele><time>2026-08-17T03:04:31.652Z</time><hdop>3.937</hdop><vdop>2.687</vdop><extensions><gom:speed>0.312</gom:speed></extensions></trkpt>
   <trkpt lat="59.3264025797" lon="34.7011216764"><ele>167.786</ele><time>2026-08-17T03:04:32.402Z</time><hdop>3.812</hdop><vdop>2.687</vdop><extensions><gom:speed>0.423</gom:speed></extensions></trkpt>
   <trkpt lat="59.326404298" lon="34.7011186589"><ele>167.787</ele><time>2026-08-17T03:04:33.647Z</time><hdop>3.687</hdop><vdop>2.5</vdop><extensions><gom:speed>0.206</gom:speed></extensions></trkpt>
   <trkpt lat="59.3264041723" lon="34.7011212573"><ele>167.788</ele><time>2026-08-17T03:04:34.652Z</time><hdop>3.312</hdop><vdop>2.5</vdop><extensions><gom:speed>0.054</gom:speed></extensions></trkpt>
   <trkpt lat="59.326404759" lon="34.7011182398"><ele>167.789</ele><time>2026-08-17T03:04:35.650Z</time><hdop>3.312</hdop><vdop>2.5</vdop><extensions><gom:speed>0.121</gom:speed></extensions></trkpt>
   <trkpt lat="59.3264052619" lon="34.7011213411"><ele>167.788</ele><time>2026-08-17T03:04:36.652Z</time><hdop>3.062</hdop><vdop>2.5</vdop><extensions><gom:speed>0.01</gom:speed></extensions></trkpt>
   <trkpt lat="59.3264059744" lon="34.7011187427"><ele>167.787</ele><time>2026-08-17T03:04:37.654Z</time><hdop>3.0</hdop><vdop>2.562</vdop><extensions><gom:speed>0.015</gom:speed></extensions></trkpt>
   <trkpt lat="59.3264059744" lon="34.701117234"><ele>167.752</ele><time>2026-08-17T03:04:38.652Z</time><hdop>3.0</hdop><vdop>2.75</vdop><extensions><gom:speed>0.011</gom:speed></extensions></trkpt>
   <trkpt lat="59.3264063935" lon="34.7011138812"><ele>167.513</ele><time>2026-08-17T03:04:39.647Z</time><hdop>3.0</hdop><vdop>2.875</vdop><extensions><gom:speed>0.057</gom:speed></extensions></trkpt>
   <trkpt lat="59.3264065611" lon="34.701113043"><ele>167.371</ele><time>2026-08-17T03:04:40.244Z</time><hdop>3.0</hdop><vdop>2.875</vdop><extensions><gom:speed>0.067</gom:speed></extensions></trkpt>
   <trkpt lat="59.3264062677" lon="34.7011097741"><ele>167.417</ele><time>2026-08-17T03:04:41.185Z</time><hdop>3.0</hdop><vdop>2.687</vdop><extensions><gom:speed>0.099</gom:speed></extensions></trkpt>
   <trkpt lat="59.3264062677" lon="34.7011050802"><ele>167.287</ele><time>2026-08-17T03:04:41.647Z</time><hdop>3.0</hdop><vdop>2.875</vdop><extensions><gom:speed>0.126</gom:speed></extensions></trkpt>
   <trkpt lat="59.3264060582" lon="34.701102398"><ele>167.249</ele><time>2026-08-17T03:04:42.653Z</time><hdop>3.0</hdop><vdop>2.875</vdop><extensions><gom:speed>0.163</gom:speed></extensions></trkpt>
   <trkpt lat="59.3264052619" lon="34.7010873944"><ele>167.227</ele><time>2026-08-17T03:04:43.360Z</time><hdop>3.0</hdop><vdop>2.875</vdop><extensions><gom:speed>0.364</gom:speed></extensions></trkpt>
   <trkpt lat="59.3264035855" lon="34.7010793477"><ele>167.124</ele><time>2026-08-17T03:04:44.159Z</time><hdop>3.0</hdop><vdop>2.75</vdop><extensions><gom:speed>0.344</gom:speed></extensions></trkpt>
   <trkpt lat="59.3264032922" lon="34.7010762464"><ele>167.063</ele><time>2026-08-17T03:04:44.625Z</time><hdop>3.0</hdop><vdop>2.75</vdop><extensions><gom:speed>0.344</gom:speed></extensions></trkpt>
   <trkpt lat="59.3264006938" lon="34.7010737319"><ele>167.113</ele><time>2026-08-17T03:04:45.667Z</time><hdop>3.0</hdop><vdop>2.937</vdop><extensions><gom:speed>0.164</gom:speed></extensions></trkpt>
   <trkpt lat="59.3263988917" lon="34.7010731451"><ele>167.139</ele><time>2026-08-17T03:04:46.652Z</time><hdop>3.0</hdop><vdop>2.937</vdop><extensions><gom:speed>0.095</gom:speed></extensions></trkpt>
   <trkpt lat="59.3263967962" lon="34.7010771685"><ele>167.093</ele><time>2026-08-17T03:04:47.647Z</time><hdop>3.0</hdop><vdop>3.062</vdop><extensions><gom:speed>0.107</gom:speed></extensions></trkpt>
   <trkpt lat="59.3263969638" lon="34.7010749892"><ele>167.082</ele><time>2026-08-17T03:04:48.652Z</time><hdop>3.0</hdop><vdop>2.812</vdop><extensions><gom:speed>0.071</gom:speed></extensions></trkpt>
   <trkpt lat="59.3263962933" lon="34.7010751568"><ele>167.189</ele><time>2026-08-17T03:04:49.653Z</time><hdop>3.0</hdop><vdop>2.875</vdop><extensions><gom:speed>0.102</gom:speed></extensions></trkpt>
   <trkpt lat="59.3263953713" lon="34.7010731451"><ele>167.44</ele><time>2026-08-17T03:04:50.652Z</time><hdop>3.0</hdop><vdop>2.875</vdop><extensions><gom:speed>0.18</gom:speed></extensions></trkpt>
   <trkpt lat="59.3263944912" lon="34.7010667749"><ele>167.59</ele><time>2026-08-17T03:04:51.566Z</time><hdop>3.0</hdop><vdop>2.875</vdop><extensions><gom:speed>0.255</gom:speed></extensions></trkpt>
   <trkpt lat="59.3263927729" lon="34.7010501787"><ele>167.58</ele><time>2026-08-17T03:04:52.648Z</time><hdop>3.0</hdop><vdop>2.875</vdop><extensions><gom:speed>0.425</gom:speed></extensions></trkpt>
   <trkpt lat="59.3263935691" lon="34.7010373544"><ele>167.434</ele><time>2026-08-17T03:04:53.559Z</time><hdop>3.0</hdop><vdop>2.75</vdop><extensions><gom:speed>0.48</gom:speed></extensions></trkpt>
   <trkpt lat="59.3263964609" lon="34.7010226861"><ele>167.509</ele><time>2026-08-17T03:04:54.166Z</time><hdop>3.0</hdop><vdop>2.812</vdop><extensions><gom:speed>0.52</gom:speed></extensions></trkpt>
   <trkpt lat="59.3264009871" lon="34.7010117896"><ele>167.255</ele><time>2026-08-17T03:04:54.646Z</time><hdop>3.0</hdop><vdop>2.5</vdop><extensions><gom:speed>0.534</gom:speed></extensions></trkpt>
   <trkpt lat="59.3264051781" lon="34.7010058385"><ele>166.912</ele><time>2026-08-17T03:04:55.647Z</time><hdop>3.0</hdop><vdop>2.562</vdop><extensions><gom:speed>0.365</gom:speed></extensions></trkpt>
   <trkpt lat="59.3264051781" lon="34.7010022342"><ele>166.707</ele><time>2026-08-17T03:04:56.503Z</time><hdop>3.0</hdop><vdop>2.562</vdop><extensions><gom:speed>0.315</gom:speed></extensions></trkpt>
   <trkpt lat="59.3264099977" lon="34.7010042459"><ele>166.814</ele><time>2026-08-17T03:04:57.647Z</time><hdop>3.0</hdop><vdop>2.812</vdop><extensions><gom:speed>0.159</gom:speed></extensions></trkpt>
   <trkpt lat="59.3264112969" lon="34.7010063414"><ele>166.879</ele><time>2026-08-17T03:04:58.647Z</time><hdop>3.0</hdop><vdop>2.625</vdop><extensions><gom:speed>0.114</gom:speed></extensions></trkpt>
   <trkpt lat="59.3264109616" lon="34.7010059223"><ele>166.936</ele><time>2026-08-17T03:04:59.652Z</time><hdop>3.0</hdop><vdop>2.75</vdop><extensions><gom:speed>0.062</gom:speed></extensions></trkpt>
   <trkpt lat="59.3264122608" lon="34.7010051679"><ele>166.882</ele><time>2026-08-17T03:05:00.652Z</time><hdop>3.0</hdop><vdop>2.812</vdop><extensions><gom:speed>0.068</gom:speed></extensions></trkpt>
   <trkpt lat="59.3264138953" lon="34.7010013961"><ele>166.861</ele><time>2026-08-17T03:05:01.653Z</time><hdop>3.0</hdop><vdop>3.062</vdop><extensions><gom:speed>0.076</gom:speed></extensions></trkpt>
   <trkpt lat="59.3264150687" lon="34.7009952773"><ele>166.848</ele><time>2026-08-17T03:05:02.564Z</time><hdop>3.0</hdop><vdop>3.062</vdop><extensions><gom:speed>0.134</gom:speed></extensions></trkpt>
   <trkpt lat="59.3264169966" lon="34.7009874821"><ele>166.951</ele><time>2026-08-17T03:05:03.646Z</time><hdop>3.0</hdop><vdop>3.062</vdop><extensions><gom:speed>0.181</gom:speed></extensions></trkpt>
   <trkpt lat="59.3264192597" lon="34.7009826206"><ele>166.995</ele><time>2026-08-17T03:05:04.405Z</time><hdop>3.0</hdop><vdop>2.812</vdop><extensions><gom:speed>0.202</gom:speed></extensions></trkpt>
   <trkpt lat="59.3264220676" lon="34.7009760827"><ele>166.981</ele><time>2026-08-17T03:05:05.619Z</time><hdop>3.0</hdop><vdop>2.875</vdop><extensions><gom:speed>0.227</gom:speed></extensions></trkpt>
   <trkpt lat="59.3264261748" lon="34.7009654377"><ele>167.356</ele><time>2026-08-17T03:05:06.652Z</time><hdop>3.0</hdop><vdop>2.875</vdop><extensions><gom:speed>0.289</gom:speed></extensions></trkpt>
   <trkpt lat="59.3264299885" lon="34.7009592351"><ele>167.973</ele><time>2026-08-17T03:05:07.177Z</time><hdop>3.0</hdop><vdop>2.812</vdop><extensions><gom:speed>0.249</gom:speed></extensions></trkpt>
   <trkpt lat="59.3264298628" lon="34.7009583969"><ele>168.277</ele><time>2026-08-17T03:05:07.663Z</time><hdop>3.0</hdop><vdop>2.812</vdop><extensions><gom:speed>0.233</gom:speed></extensions></trkpt>
   <trkpt lat="59.3264336766" lon="34.7009483386"><ele>168.453</ele><time>2026-08-17T03:05:08.675Z</time><hdop>3.0</hdop><vdop>2.75</vdop><extensions><gom:speed>0.226</gom:speed></extensions></trkpt>
   <trkpt lat="59.3264377837" lon="34.7009394538"><ele>168.174</ele><time>2026-08-17T03:05:09.652Z</time><hdop>3.0</hdop><vdop>2.75</vdop><extensions><gom:speed>0.221</gom:speed></extensions></trkpt>
   <trkpt lat="59.3264398792" lon="34.7009313233"><ele>168.007</ele><time>2026-08-17T03:05:10.192Z</time><hdop>3.0</hdop><vdop>2.75</vdop><extensions><gom:speed>0.273</gom:speed></extensions></trkpt>
   <trkpt lat="59.3264391667" lon="34.7009288926"><ele>167.277</ele><time>2026-08-17T03:05:10.652Z</time><hdop>3.0</hdop><vdop>2.75</vdop><extensions><gom:speed>0.285</gom:speed></extensions></trkpt>
   <trkpt lat="59.3264404659" lon="34.7009197563"><ele>166.841</ele><time>2026-08-17T03:05:11.245Z</time><hdop>3.0</hdop><vdop>2.75</vdop><extensions><gom:speed>0.298</gom:speed></extensions></trkpt>
   <trkpt lat="59.32643858" lon="34.7008987177"><ele>166.604</ele><time>2026-08-17T03:05:12.044Z</time><hdop>3.0</hdop><vdop>2.75</vdop><extensions><gom:speed>0.6</gom:speed></extensions></trkpt>
   <trkpt lat="59.32643858" lon="34.700894443"><ele>166.535</ele><time>2026-08-17T03:05:12.662Z</time><hdop>3.0</hdop><vdop>2.75</vdop><extensions><gom:speed>0.443</gom:speed></extensions></trkpt>
   <trkpt lat="59.3264384961" lon="34.7008857258"><ele>166.547</ele><time>2026-08-17T03:05:13.652Z</time><hdop>3.0</hdop><vdop>2.687</vdop><extensions><gom:speed>0.321</gom:speed></extensions></trkpt>
   <trkpt lat="59.3264388733" lon="34.700885642"><ele>166.555</ele><time>2026-08-17T03:05:14.647Z</time><hdop>3.0</hdop><vdop>2.625</vdop><extensions><gom:speed>0.196</gom:speed></extensions></trkpt>
   <trkpt lat="59.3264387895" lon="34.7008886595"><ele>166.884</ele><time>2026-08-17T03:05:15.652Z</time><hdop>3.0</hdop><vdop>2.5</vdop><extensions><gom:speed>0.084</gom:speed></extensions></trkpt>
   <trkpt lat="59.3264389991" lon="34.7008875698"><ele>167.105</ele><time>2026-08-17T03:05:16.652Z</time><hdop>3.0</hdop><vdop>2.687</vdop><extensions><gom:speed>0.084</gom:speed></extensions></trkpt>
   <trkpt lat="59.3264392924" lon="34.7008879889"><ele>167.244</ele><time>2026-08-17T03:05:17.680Z</time><hdop>3.0</hdop><vdop>2.625</vdop><extensions><gom:speed>0.06</gom:speed></extensions></trkpt>
   <trkpt lat="59.3264389991" lon="34.7008875698"><ele>167.328</ele><time>2026-08-17T03:05:18.540Z</time><hdop>3.0</hdop><vdop>2.625</vdop><extensions><gom:speed>0.126</gom:speed></extensions></trkpt>
   <trkpt lat="59.3264395858" lon="34.7008888271"><ele>167.379</ele><time>2026-08-17T03:05:19.197Z</time><hdop>3.0</hdop><vdop>2.5</vdop><extensions><gom:speed>0.103</gom:speed></extensions></trkpt>
   <trkpt lat="59.3264392924" lon="34.7008882404"><ele>167.416</ele><time>2026-08-17T03:05:19.652Z</time><hdop>3.0</hdop><vdop>2.562</vdop><extensions><gom:speed>0.088</gom:speed></extensions></trkpt>
   <trkpt lat="59.3264401725" lon="34.7008873183"><ele>167.35</ele><time>2026-08-17T03:05:20.652Z</time><hdop>3.0</hdop><vdop>2.812</vdop><extensions><gom:speed>0.108</gom:speed></extensions></trkpt>
   <trkpt lat="59.3264419746" lon="34.7008875698"><ele>167.326</ele><time>2026-08-17T03:05:21.647Z</time><hdop>3.0</hdop><vdop>2.562</vdop><extensions><gom:speed>0.127</gom:speed></extensions></trkpt>
   <trkpt lat="59.3264406754" lon="34.7008877374"><ele>167.205</ele><time>2026-08-17T03:05:22.657Z</time><hdop>3.0</hdop><vdop>2.625</vdop><extensions><gom:speed>0.143</gom:speed></extensions></trkpt>
   <trkpt lat="59.3264390829" lon="34.7008863963"><ele>167.132</ele><time>2026-08-17T03:05:23.558Z</time><hdop>3.0</hdop><vdop>2.625</vdop><extensions><gom:speed>0.21</gom:speed></extensions></trkpt>
   <trkpt lat="59.3264310782" lon="34.7008793555"><ele>167.263</ele><time>2026-08-17T03:05:24.438Z</time><hdop>3.0</hdop><vdop>2.875</vdop><extensions><gom:speed>0.442</gom:speed></extensions></trkpt>
   <trkpt lat="59.3264307848" lon="34.7008714766"><ele>166.809</ele><time>2026-08-17T03:05:25.652Z</time><hdop>3.0</hdop><vdop>3.062</vdop><extensions><gom:speed>0.247</gom:speed></extensions></trkpt>
   <trkpt lat="59.3264161584" lon="34.7008384519"><ele>166.544</ele><time>2026-08-17T03:05:26.647Z</time><hdop>3.0</hdop><vdop>2.937</vdop><extensions><gom:speed>0.547</gom:speed></extensions></trkpt>
   <trkpt lat="59.3264136857" lon="34.7008362726"><ele>166.43</ele><time>2026-08-17T03:05:27.652Z</time><hdop>3.0</hdop><vdop>2.875</vdop><extensions><gom:speed>0.299</gom:speed></extensions></trkpt>
   <trkpt lat="59.3264101653" lon="34.7008150663"><ele>166.444</ele><time>2026-08-17T03:05:28.647Z</time><hdop>3.0</hdop><vdop>2.75</vdop><extensions><gom:speed>0.235</gom:speed></extensions></trkpt>
   <trkpt lat="59.3264101653" lon="34.7008157369"><ele>166.452</ele><time>2026-08-17T03:05:29.355Z</time><hdop>3.0</hdop><vdop>2.75</vdop><extensions><gom:speed>0.142</gom:speed></extensions></trkpt>
   <trkpt lat="59.3264103749" lon="34.7008078579"><ele>166.411</ele><time>2026-08-17T03:05:30.347Z</time><hdop>3.0</hdop><vdop>2.687</vdop><extensions><gom:speed>0.118</gom:speed></extensions></trkpt>
   <trkpt lat="59.3264096624" lon="34.7007983864"><ele>166.531</ele><time>2026-08-17T03:05:31.217Z</time><hdop>3.0</hdop><vdop>2.875</vdop><extensions><gom:speed>0.139</gom:speed></extensions></trkpt>
   <trkpt lat="59.3264097881" lon="34.7007870708"><ele>166.763</ele><time>2026-08-17T03:05:32.158Z</time><hdop>3.0</hdop><vdop>3.062</vdop><extensions><gom:speed>0.15</gom:speed></extensions></trkpt>
   <trkpt lat="59.326409369" lon="34.7007861488"><ele>166.764</ele><time>2026-08-17T03:05:32.652Z</time><hdop>3.0</hdop><vdop>3.312</vdop><extensions><gom:speed>0.144</gom:speed></extensions></trkpt>
   <trkpt lat="59.3264109616" lon="34.7007727377"><ele>166.764</ele><time>2026-08-17T03:05:33.241Z</time><hdop>3.0</hdop><vdop>3.312</vdop><extensions><gom:speed>0.212</gom:speed></extensions></trkpt>
   <trkpt lat="59.3264147754" lon="34.700760584"><ele>166.875</ele><time>2026-08-17T03:05:34.445Z</time><hdop>3.0</hdop><vdop>3.187</vdop><extensions><gom:speed>0.244</gom:speed></extensions></trkpt>
   <trkpt lat="59.3264184634" lon="34.7007489331"><ele>166.836</ele><time>2026-08-17T03:05:35.224Z</time><hdop>3.0</hdop><vdop>3.375</vdop><extensions><gom:speed>0.322</gom:speed></extensions></trkpt>
   <trkpt lat="59.3264235764" lon="34.7007447422"><ele>166.941</ele><time>2026-08-17T03:05:35.760Z</time><hdop>3.0</hdop><vdop>3.062</vdop><extensions><gom:speed>0.246</gom:speed></extensions></trkpt>
   <trkpt lat="59.3264236602" lon="34.7007416409"><ele>167.003</ele><time>2026-08-17T03:05:36.418Z</time><hdop>3.0</hdop><vdop>3.062</vdop><extensions><gom:speed>0.266</gom:speed></extensions></trkpt>
   <trkpt lat="59.3264284798" lon="34.7007388748"><ele>167.037</ele><time>2026-08-17T03:05:37.126Z</time><hdop>3.0</hdop><vdop>3.062</vdop><extensions><gom:speed>0.182</gom:speed></extensions></trkpt>
   <trkpt lat="59.3264285636" lon="34.7007392939"><ele>167.376</ele><time>2026-08-17T03:05:37.652Z</time><hdop>3.0</hdop><vdop>2.875</vdop><extensions><gom:speed>0.128</gom:speed></extensions></trkpt>
   <trkpt lat="59.3264339699" lon="34.7007330913"><ele>167.579</ele><time>2026-08-17T03:05:38.643Z</time><hdop>3.0</hdop><vdop>2.875</vdop><extensions><gom:speed>0.14</gom:speed></extensions></trkpt>
   <trkpt lat="59.3264394601" lon="34.7007185906"><ele>167.889</ele><time>2026-08-17T03:05:39.564Z</time><hdop>3.0</hdop><vdop>3.0</vdop><extensions><gom:speed>0.277</gom:speed></extensions></trkpt>
   <trkpt lat="59.32644319" lon="34.7007117175"><ele>167.948</ele><time>2026-08-17T03:05:40.203Z</time><hdop>3.0</hdop><vdop>3.0</vdop><extensions><gom:speed>0.244</gom:speed></extensions></trkpt>
   <trkpt lat="59.326444573" lon="34.700690176"><ele>167.92</ele><time>2026-08-17T03:05:41.345Z</time><hdop>3.0</hdop><vdop>3.375</vdop><extensions><gom:speed>0.461</gom:speed></extensions></trkpt>
   <trkpt lat="59.3264439863" lon="34.7006686345"><ele>167.648</ele><time>2026-08-17T03:05:42.124Z</time><hdop>3.0</hdop><vdop>3.812</vdop><extensions><gom:speed>0.6</gom:speed></extensions></trkpt>
   <trkpt lat="59.3264420585" lon="34.7006527927"><ele>167.362</ele><time>2026-08-17T03:05:42.646Z</time><hdop>3.0</hdop><vdop>4.25</vdop><extensions><gom:speed>0.744</gom:speed></extensions></trkpt>
   <trkpt lat="59.326437197" lon="34.7006437402"><ele>166.928</ele><time>2026-08-17T03:05:43.662Z</time><hdop>3.0</hdop><vdop>4.562</vdop><extensions><gom:speed>0.7</gom:speed></extensions></trkpt>
   <trkpt lat="59.3264342633" lon="34.7006214444"><ele>166.323</ele><time>2026-08-17T03:05:44.652Z</time><hdop>3.0</hdop><vdop>4.812</vdop><extensions><gom:speed>0.736</gom:speed></extensions></trkpt>
   <trkpt lat="59.326431162" lon="34.7006024175"><ele>165.881</ele><time>2026-08-17T03:05:45.652Z</time><hdop>3.0</hdop><vdop>4.75</vdop><extensions><gom:speed>0.676</gom:speed></extensions></trkpt>
   <trkpt lat="59.3264280607" lon="34.7005891741"><ele>165.902</ele><time>2026-08-17T03:05:46.652Z</time><hdop>3.0</hdop><vdop>4.25</vdop><extensions><gom:speed>0.524</gom:speed></extensions></trkpt>
   <trkpt lat="59.3264153621" lon="34.700571153"><ele>165.946</ele><time>2026-08-17T03:05:47.645Z</time><hdop>3.0</hdop><vdop>4.25</vdop><extensions><gom:speed>0.417</gom:speed></extensions></trkpt>
   <trkpt lat="59.3264104587" lon="34.7005619329"><ele>166.34</ele><time>2026-08-17T03:05:48.646Z</time><hdop>3.0</hdop><vdop>4.062</vdop><extensions><gom:speed>0.307</gom:speed></extensions></trkpt>
   <trkpt lat="59.3264105844" lon="34.7005619329"><ele>166.576</ele><time>2026-08-17T03:05:49.652Z</time><hdop>3.0</hdop><vdop>4.062</vdop><extensions><gom:speed>0.145</gom:speed></extensions></trkpt>
   <trkpt lat="59.3264064773" lon="34.7005567361"><ele>166.716</ele><time>2026-08-17T03:05:50.501Z</time><hdop>3.0</hdop><vdop>4.062</vdop><extensions><gom:speed>0.162</gom:speed></extensions></trkpt>
   <trkpt lat="59.3264028731" lon="34.7005524613"><ele>167.115</ele><time>2026-08-17T03:05:51.341Z</time><hdop>3.0</hdop><vdop>3.562</vdop><extensions><gom:speed>0.184</gom:speed></extensions></trkpt>
   <trkpt lat="59.3263998975" lon="34.7005472645"><ele>167.51</ele><time>2026-08-17T03:05:52.323Z</time><hdop>3.0</hdop><vdop>3.625</vdop><extensions><gom:speed>0.19</gom:speed></extensions></trkpt>
   <trkpt lat="59.3263967962" lon="34.7005452529"><ele>167.715</ele><time>2026-08-17T03:05:53.652Z</time><hdop>3.0</hdop><vdop>3.125</vdop><extensions><gom:speed>0.166</gom:speed></extensions></trkpt>
   <trkpt lat="59.3263942816" lon="34.7005450852"><ele>167.837</ele><time>2026-08-17T03:05:54.103Z</time><hdop>3.0</hdop><vdop>3.125</vdop><extensions><gom:speed>0.198</gom:speed></extensions></trkpt>
   <trkpt lat="59.3263934853" lon="34.7005432412"><ele>168.342</ele><time>2026-08-17T03:05:54.650Z</time><hdop>3.0</hdop><vdop>2.812</vdop><extensions><gom:speed>0.208</gom:speed></extensions></trkpt>
   <trkpt lat="59.326386696" lon="34.7005369548"><ele>169.666</ele><time>2026-08-17T03:05:55.646Z</time><hdop>3.0</hdop><vdop>2.687</vdop><extensions><gom:speed>0.389</gom:speed></extensions></trkpt>
   <trkpt lat="59.3263858997" lon="34.7005346917"><ele>170.459</ele><time>2026-08-17T03:05:56.653Z</time><hdop>3.0</hdop><vdop>2.562</vdop><extensions><gom:speed>0.253</gom:speed></extensions></trkpt>
   <trkpt lat="59.3263820859" lon="34.7005292434"><ele>171.174</ele><time>2026-08-17T03:05:57.652Z</time><hdop>3.0</hdop><vdop>2.562</vdop><extensions><gom:speed>0.226</gom:speed></extensions></trkpt>
   <trkpt lat="59.3263780626" lon="34.7005211968"><ele>171.601</ele><time>2026-08-17T03:05:58.181Z</time><hdop>3.0</hdop><vdop>2.562</vdop><extensions><gom:speed>0.375</gom:speed></extensions></trkpt>
   <trkpt lat="59.3263773921" lon="34.7005199395"><ele>172.081</ele><time>2026-08-17T03:05:58.656Z</time><hdop>3.0</hdop><vdop>2.687</vdop><extensions><gom:speed>0.322</gom:speed></extensions></trkpt>
   <trkpt lat="59.3263733688" lon="34.7005165868"><ele>172.722</ele><time>2026-08-17T03:05:59.652Z</time><hdop>3.0</hdop><vdop>2.75</vdop><extensions><gom:speed>0.214</gom:speed></extensions></trkpt>
   <trkpt lat="59.3263683815" lon="34.7005128987"><ele>173.105</ele><time>2026-08-17T03:06:00.498Z</time><hdop>3.0</hdop><vdop>2.75</vdop><extensions><gom:speed>0.253</gom:speed></extensions></trkpt>
   <trkpt lat="59.3263642744" lon="34.7005120605"><ele>173.33</ele><time>2026-08-17T03:06:01.580Z</time><hdop>3.0</hdop><vdop>2.625</vdop><extensions><gom:speed>0.18</gom:speed></extensions></trkpt>
   <trkpt lat="59.326361676" lon="34.7005127311"><ele>173.527</ele><time>2026-08-17T03:06:02.381Z</time><hdop>3.0</hdop><vdop>2.75</vdop><extensions><gom:speed>0.325</gom:speed></extensions></trkpt>
   <trkpt lat="59.3263613826" lon="34.7005186822"><ele>173.332</ele><time>2026-08-17T03:06:03.169Z</time><hdop>3.0</hdop><vdop>2.875</vdop><extensions><gom:speed>0.279</gom:speed></extensions></trkpt>
   <trkpt lat="59.3263607959" lon="34.7005165868"><ele>173.42</ele><time>2026-08-17T03:06:03.675Z</time><hdop>3.0</hdop><vdop>3.125</vdop><extensions><gom:speed>0.27</gom:speed></extensions></trkpt>
   <trkpt lat="59.3263585747" lon="34.7005223703"><ele>174.018</ele><time>2026-08-17T03:06:04.646Z</time><hdop>3.0</hdop><vdop>3.187</vdop><extensions><gom:speed>0.216</gom:speed></extensions></trkpt>
   <trkpt lat="59.3263580718" lon="34.7005187661"><ele>174.147</ele><time>2026-08-17T03:06:05.652Z</time><hdop>3.0</hdop><vdop>3.187</vdop><extensions><gom:speed>0.24</gom:speed></extensions></trkpt>
   <trkpt lat="59.326357066" lon="34.7005146589"><ele>174.224</ele><time>2026-08-17T03:06:06.518Z</time><hdop>3.0</hdop><vdop>3.187</vdop><extensions><gom:speed>0.276</gom:speed></extensions></trkpt>
   <trkpt lat="59.3263578622" lon="34.7005033434"><ele>173.859</ele><time>2026-08-17T03:06:07.646Z</time><hdop>3.0</hdop><vdop>3.25</vdop><extensions><gom:speed>0.197</gom:speed></extensions></trkpt>
   <trkpt lat="59.3263586585" lon="34.7005010802"><ele>173.641</ele><time>2026-08-17T03:06:08.531Z</time><hdop>3.0</hdop><vdop>3.25</vdop><extensions><gom:speed>0.211</gom:speed></extensions></trkpt>
   <trkpt lat="59.3263592872" lon="34.7004890941"><ele>173.511</ele><time>2026-08-17T03:06:09.646Z</time><hdop>3.0</hdop><vdop>3.562</vdop><extensions><gom:speed>0.184</gom:speed></extensions></trkpt>
   <trkpt lat="59.3263596643" lon="34.7004882559"><ele>173.433</ele><time>2026-08-17T03:06:10.656Z</time><hdop>3.0</hdop><vdop>3.687</vdop><extensions><gom:speed>0.102</gom:speed></extensions></trkpt>
   <trkpt lat="59.3263599996" lon="34.7004827239"><ele>173.387</ele><time>2026-08-17T03:06:11.646Z</time><hdop>3.0</hdop><vdop>3.75</vdop><extensions><gom:speed>0.125</gom:speed></extensions></trkpt>
   <trkpt lat="59.3263607959" lon="34.7004828915"><ele>173.359</ele><time>2026-08-17T03:06:12.652Z</time><hdop>3.0</hdop><vdop>3.812</vdop><extensions><gom:speed>0.028</gom:speed></extensions></trkpt>
   <trkpt lat="59.3263611731" lon="34.7004778624"><ele>173.342</ele><time>2026-08-17T03:06:13.646Z</time><hdop>3.0</hdop><vdop>3.687</vdop><extensions><gom:speed>0.087</gom:speed></extensions></trkpt>
   <trkpt lat="59.3263607959" lon="34.7004760184"><ele>173.332</ele><time>2026-08-17T03:06:14.647Z</time><hdop>3.0</hdop><vdop>3.562</vdop><extensions><gom:speed>0.089</gom:speed></extensions></trkpt>
   <trkpt lat="59.3263608797" lon="34.700474342"><ele>173.325</ele><time>2026-08-17T03:06:15.653Z</time><hdop>3.0</hdop><vdop>3.562</vdop><extensions><gom:speed>0.019</gom:speed></extensions></trkpt>
   <trkpt lat="59.3263610893" lon="34.7004732523"><ele>173.321</ele><time>2026-08-17T03:06:16.652Z</time><hdop>3.0</hdop><vdop>3.5</vdop><extensions><gom:speed>0.013</gom:speed></extensions></trkpt>
   <trkpt lat="59.3263609635" lon="34.70047342"><ele>173.317</ele><time>2026-08-17T03:06:17.652Z</time><hdop>3.0</hdop><vdop>3.437</vdop><extensions><gom:speed>0.024</gom:speed></extensions></trkpt>
   <trkpt lat="59.3263608797" lon="34.7004729171"><ele>173.314</ele><time>2026-08-17T03:06:18.649Z</time><hdop>3.0</hdop><vdop>3.25</vdop><extensions><gom:speed>0.118</gom:speed></extensions></trkpt>
   <trkpt lat="59.3263606702" lon="34.700474342"><ele>173.313</ele><time>2026-08-17T03:06:19.647Z</time><hdop>3.0</hdop><vdop>3.125</vdop><extensions><gom:speed>0.056</gom:speed></extensions></trkpt>
   <trkpt lat="59.3263610893" lon="34.7004747611"><ele>173.334</ele><time>2026-08-17T03:06:20.652Z</time><hdop>3.0</hdop><vdop>3.25</vdop><extensions><gom:speed>0.028</gom:speed></extensions></trkpt>
   <trkpt lat="59.3263605864" lon="34.7004745934"><ele>173.349</ele><time>2026-08-17T03:06:21.652Z</time><hdop>3.0</hdop><vdop>3.187</vdop><extensions><gom:speed>0.04</gom:speed></extensions></trkpt>
   <trkpt lat="59.3263612988" lon="34.7004762698"><ele>173.389</ele><time>2026-08-17T03:06:22.652Z</time><hdop>3.0</hdop><vdop>3.25</vdop><extensions><gom:speed>0.028</gom:speed></extensions></trkpt>
   <trkpt lat="59.3263613826" lon="34.700476186"><ele>173.413</ele><time>2026-08-17T03:06:23.652Z</time><hdop>3.0</hdop><vdop>3.437</vdop><extensions><gom:speed>0.04</gom:speed></extensions></trkpt>
   <trkpt lat="59.3263606702" lon="34.7004766889"><ele>173.433</ele><time>2026-08-17T03:06:24.659Z</time><hdop>3.0</hdop><vdop>3.5</vdop><extensions><gom:speed>0.076</gom:speed></extensions></trkpt>
   <trkpt lat="59.3263604606" lon="34.700476186"><ele>173.447</ele><time>2026-08-17T03:06:25.645Z</time><hdop>3.0</hdop><vdop>3.5</vdop><extensions><gom:speed>0.088</gom:speed></extensions></trkpt>
   <trkpt lat="59.3263608797" lon="34.7004751802"><ele>173.458</ele><time>2026-08-17T03:06:26.682Z</time><hdop>3.0</hdop><vdop>3.25</vdop><extensions><gom:speed>0.072</gom:speed></extensions></trkpt>
   <trkpt lat="59.3263603768" lon="34.700472498"><ele>173.465</ele><time>2026-08-17T03:06:27.652Z</time><hdop>3.0</hdop><vdop>3.062</vdop><extensions><gom:speed>0.023</gom:speed></extensions></trkpt>
   <trkpt lat="59.3263601673" lon="34.7004711569"><ele>173.471</ele><time>2026-08-17T03:06:28.646Z</time><hdop>3.0</hdop><vdop>2.812</vdop><extensions><gom:speed>0.099</gom:speed></extensions></trkpt>
   <trkpt lat="59.3263596643" lon="34.7004695643"><ele>173.477</ele><time>2026-08-17T03:06:29.657Z</time><hdop>3.0</hdop><vdop>2.687</vdop><extensions><gom:speed>0.1</gom:speed></extensions></trkpt>
   <trkpt lat="59.3263594967" lon="34.7004690614"><ele>173.48</ele><time>2026-08-17T03:06:30.645Z</time><hdop>3.0</hdop><vdop>2.5</vdop><extensions><gom:speed>0.09</gom:speed></extensions></trkpt>
   <trkpt lat="59.326359371" lon="34.7004680556"><ele>173.484</ele><time>2026-08-17T03:06:31.646Z</time><hdop>3.0</hdop><vdop>2.5</vdop><extensions><gom:speed>0.089</gom:speed></extensions></trkpt>
   <trkpt lat="59.3263591614" lon="34.7004675526"><ele>173.486</ele><time>2026-08-17T03:06:32.646Z</time><hdop>3.0</hdop><vdop>2.5</vdop><extensions><gom:speed>0.084</gom:speed></extensions></trkpt>
   <trkpt lat="59.3263589938" lon="34.7004670497"><ele>173.488</ele><time>2026-08-17T03:06:33.646Z</time><hdop>3.0</hdop><vdop>2.5</vdop><extensions><gom:speed>0.081</gom:speed></extensions></trkpt>
   <trkpt lat="59.3263586585" lon="34.7004662954"><ele>173.489</ele><time>2026-08-17T03:06:34.433Z</time><hdop>3.0</hdop><vdop>2.5</vdop><extensions><gom:speed>0.081</gom:speed></extensions></trkpt>
   <trkpt lat="59.3263584909" lon="34.7004658763"><ele>173.491</ele><time>2026-08-17T03:06:35.647Z</time><hdop>3.0</hdop><vdop>2.5</vdop><extensions><gom:speed>0.079</gom:speed></extensions></trkpt>
   <trkpt lat="59.3263585747" lon="34.700466463"><ele>173.494</ele><time>2026-08-17T03:06:36.646Z</time><hdop>3.0</hdop><vdop>2.5</vdop><extensions><gom:speed>0.076</gom:speed></extensions></trkpt>
   <trkpt lat="59.3263582813" lon="34.7004654572"><ele>173.494</ele><time>2026-08-17T03:06:37.670Z</time><hdop>3.0</hdop><vdop>2.5</vdop><extensions><gom:speed>0.077</gom:speed></extensions></trkpt>
   <trkpt lat="59.3263584909" lon="34.7004662954"><ele>173.495</ele><time>2026-08-17T03:06:38.646Z</time><hdop>3.0</hdop><vdop>2.5</vdop><extensions><gom:speed>0.076</gom:speed></extensions></trkpt>
   <trkpt lat="59.3263582813" lon="34.7004653733"><ele>173.496</ele><time>2026-08-17T03:06:39.652Z</time><hdop>3.0</hdop><vdop>2.5</vdop><extensions><gom:speed>0.076</gom:speed></extensions></trkpt>
   <trkpt lat="59.3263584909" lon="34.7004660439"><ele>173.495</ele><time>2026-08-17T03:06:40.645Z</time><hdop>3.0</hdop><vdop>2.5</vdop><extensions><gom:speed>0.075</gom:speed></extensions></trkpt>
   <trkpt lat="59.3263582813" lon="34.7004652895"><ele>173.494</ele><time>2026-08-17T03:06:41.652Z</time><hdop>3.0</hdop><vdop>2.5</vdop><extensions><gom:speed>0.075</gom:speed></extensions></trkpt>
   <trkpt lat="59.3263585747" lon="34.7004660439"><ele>173.494</ele><time>2026-08-17T03:06:42.646Z</time><hdop>3.0</hdop><vdop>2.5</vdop><extensions><gom:speed>0.077</gom:speed></extensions></trkpt>
   <trkpt lat="59.3263585747" lon="34.7004660439"><ele>173.493</ele><time>2026-08-17T03:06:43.646Z</time><hdop>3.0</hdop><vdop>2.5</vdop><extensions><gom:speed>0.076</gom:speed></extensions></trkpt>
   <trkpt lat="59.3263583652" lon="34.7004658763"><ele>173.491</ele><time>2026-08-17T03:06:44.646Z</time><hdop>3.0</hdop><vdop>2.5</vdop><extensions><gom:speed>0.081</gom:speed></extensions></trkpt>
   <trkpt lat="59.3263584909" lon="34.7004659601"><ele>173.49</ele><time>2026-08-17T03:06:45.646Z</time><hdop>3.0</hdop><vdop>2.5</vdop><extensions><gom:speed>0.079</gom:speed></extensions></trkpt>
   <trkpt lat="59.3263585747" lon="34.7004662954"><ele>173.489</ele><time>2026-08-17T03:06:46.646Z</time><hdop>3.0</hdop><vdop>2.5</vdop><extensions><gom:speed>0.079</gom:speed></extensions></trkpt>
   <trkpt lat="59.3263586585" lon="34.7004663792"><ele>173.488</ele><time>2026-08-17T03:06:47.645Z</time><hdop>3.0</hdop><vdop>2.5</vdop><extensions><gom:speed>0.076</gom:speed></extensions></trkpt>
   <trkpt lat="59.3263586585" lon="34.700466463"><ele>173.487</ele><time>2026-08-17T03:06:48.646Z</time><hdop>3.0</hdop><vdop>2.5</vdop><extensions><gom:speed>0.075</gom:speed></extensions></trkpt>
   <trkpt lat="59.3263586585" lon="34.7004667983"><ele>173.487</ele><time>2026-08-17T03:06:49.647Z</time><hdop>3.0</hdop><vdop>2.5</vdop><extensions><gom:speed>0.073</gom:speed></extensions></trkpt>
   <trkpt lat="59.3263585747" lon="34.7004667983"><ele>173.486</ele><time>2026-08-17T03:06:50.646Z</time><hdop>3.0</hdop><vdop>2.5</vdop><extensions><gom:speed>0.072</gom:speed></extensions></trkpt>
   <trkpt lat="59.3263584909" lon="34.700466463"><ele>173.486</ele><time>2026-08-17T03:06:51.410Z</time><hdop>3.0</hdop><vdop>2.5</vdop><extensions><gom:speed>0.073</gom:speed></extensions></trkpt>
   <trkpt lat="59.3263586585" lon="34.7004671335"><ele>173.485</ele><time>2026-08-17T03:06:52.646Z</time><hdop>3.0</hdop><vdop>2.5</vdop><extensions><gom:speed>0.07</gom:speed></extensions></trkpt>
   <trkpt lat="59.3263587842" lon="34.700467385"><ele>173.485</ele><time>2026-08-17T03:06:53.646Z</time><hdop>3.0</hdop><vdop>2.5</vdop><extensions><gom:speed>0.071</gom:speed></extensions></trkpt>
   <trkpt lat="59.3263584909" lon="34.700466463"><ele>173.484</ele><time>2026-08-17T03:06:55.457Z</time><hdop>3.0</hdop><vdop>2.5</vdop><extensions><gom:speed>0.072</gom:speed></extensions></trkpt>
   <trkpt lat="59.3263589938" lon="34.7004680556"><ele>173.484</ele><time>2026-08-17T03:06:56.646Z</time><hdop>3.0</hdop><vdop>2.5</vdop><extensions><gom:speed>0.071</gom:speed></extensions></trkpt>
   <trkpt lat="59.3263588681" lon="34.7004675526"><ele>173.484</ele><time>2026-08-17T03:06:57.652Z</time><hdop>3.0</hdop><vdop>2.5</vdop><extensions><gom:speed>0.071</gom:speed></extensions></trkpt>
   <trkpt lat="59.3263589938" lon="34.7004676365"><ele>173.484</ele><time>2026-08-17T03:06:58.653Z</time><hdop>3.0</hdop><vdop>2.5</vdop><extensions><gom:speed>0.072</gom:speed></extensions></trkpt>
   <trkpt lat="59.3263591614" lon="34.7004684746"><ele>173.484</ele><time>2026-08-17T03:06:59.645Z</time><hdop>3.0</hdop><vdop>2.5</vdop><extensions><gom:speed>0.07</gom:speed></extensions></trkpt>
   <trkpt lat="59.3263591614" lon="34.7004680556"><ele>173.483</ele><time>2026-08-17T03:07:00.652Z</time><hdop>3.0</hdop><vdop>2.5</vdop><extensions><gom:speed>0.071</gom:speed></extensions></trkpt>
   <trkpt lat="59.3263592872" lon="34.7004687261"><ele>173.483</ele><time>2026-08-17T03:07:01.646Z</time><hdop>3.0</hdop><vdop>2.5</vdop><extensions><gom:speed>0.068</gom:speed></extensions></trkpt>
   <trkpt lat="59.3263591614" lon="34.7004684746"><ele>173.483</ele><time>2026-08-17T03:07:02.539Z</time><hdop>3.0</hdop><vdop>2.5</vdop><extensions><gom:speed>0.069</gom:speed></extensions></trkpt>
   <trkpt lat="59.3263591614" lon="34.7004686423"><ele>173.483</ele><time>2026-08-17T03:07:03.652Z</time><hdop>3.0</hdop><vdop>2.5</vdop><extensions><gom:speed>0.067</gom:speed></extensions></trkpt>
   <trkpt lat="59.3263591614" lon="34.7004695643"><ele>173.484</ele><time>2026-08-17T03:07:04.646Z</time><hdop>3.0</hdop><vdop>2.5</vdop><extensions><gom:speed>0.069</gom:speed></extensions></trkpt>
   <trkpt lat="59.3263590776" lon="34.700469229"><ele>173.484</ele><time>2026-08-17T03:07:05.656Z</time><hdop>3.0</hdop><vdop>2.5</vdop><extensions><gom:speed>0.069</gom:speed></extensions></trkpt>
   <trkpt lat="59.3263591614" lon="34.7004696481"><ele>173.485</ele><time>2026-08-17T03:07:06.646Z</time><hdop>3.0</hdop><vdop>2.5</vdop><extensions><gom:speed>0.068</gom:speed></extensions></trkpt>
   <trkpt lat="59.3263591614" lon="34.7004695643"><ele>173.486</ele><time>2026-08-17T03:07:07.646Z</time><hdop>3.0</hdop><vdop>2.5</vdop><extensions><gom:speed>0.069</gom:speed></extensions></trkpt>
   <trkpt lat="59.3263590776" lon="34.7004691452"><ele>173.486</ele><time>2026-08-17T03:07:08.652Z</time><hdop>3.0</hdop><vdop>2.5</vdop><extensions><gom:speed>0.069</gom:speed></extensions></trkpt>
   <trkpt lat="59.3263590776" lon="34.700469229"><ele>173.487</ele><time>2026-08-17T03:07:09.653Z</time><hdop>3.0</hdop><vdop>2.5</vdop><extensions><gom:speed>0.068</gom:speed></extensions></trkpt>
   <trkpt lat="59.3263590776" lon="34.7004693967"><ele>173.488</ele><time>2026-08-17T03:07:10.652Z</time><hdop>3.0</hdop><vdop>2.5</vdop><extensions><gom:speed>0.069</gom:speed></extensions></trkpt>
   <trkpt lat="59.3263590776" lon="34.7004694805"><ele>173.488</ele><time>2026-08-17T03:07:11.652Z</time><hdop>3.0</hdop><vdop>2.5</vdop><extensions><gom:speed>0.071</gom:speed></extensions></trkpt>
   <trkpt lat="59.3263591614" lon="34.7004696481"><ele>173.488</ele><time>2026-08-17T03:07:12.652Z</time><hdop>3.0</hdop><vdop>2.5</vdop><extensions><gom:speed>0.07</gom:speed></extensions></trkpt>
   <trkpt lat="59.3263592872" lon="34.7004699834"><ele>173.489</ele><time>2026-08-17T03:07:13.646Z</time><hdop>3.0</hdop><vdop>2.5</vdop><extensions><gom:speed>0.072</gom:speed></extensions></trkpt>
   <trkpt lat="59.3263592872" lon="34.7004697319"><ele>173.489</ele><time>2026-08-17T03:07:14.645Z</time><hdop>3.0</hdop><vdop>2.5</vdop><extensions><gom:speed>0.076</gom:speed></extensions></trkpt>
   <trkpt lat="59.3263592872" lon="34.7004694805"><ele>173.491</ele><time>2026-08-17T03:07:15.652Z</time><hdop>3.0</hdop><vdop>2.5</vdop><extensions><gom:speed>0.077</gom:speed></extensions></trkpt>
   <trkpt lat="59.326359371" lon="34.7004693967"><ele>173.493</ele><time>2026-08-17T03:07:16.652Z</time><hdop>3.0</hdop><vdop>2.5</vdop><extensions><gom:speed>0.079</gom:speed></extensions></trkpt>
   <trkpt lat="59.326359371" lon="34.700469229"><ele>173.496</ele><time>2026-08-17T03:07:17.652Z</time><hdop>3.0</hdop><vdop>2.5</vdop><extensions><gom:speed>0.079</gom:speed></extensions></trkpt>
   <trkpt lat="59.326359371" lon="34.700469229"><ele>173.5</ele><time>2026-08-17T03:07:18.645Z</time><hdop>3.0</hdop><vdop>2.5</vdop><extensions><gom:speed>0.084</gom:speed></extensions></trkpt>
   <trkpt lat="59.326359371" lon="34.7004690614"><ele>173.503</ele><time>2026-08-17T03:07:19.652Z</time><hdop>3.0</hdop><vdop>2.5</vdop><extensions><gom:speed>0.084</gom:speed></extensions></trkpt>
   <trkpt lat="59.3263594967" lon="34.7004691452"><ele>173.507</ele><time>2026-08-17T03:07:20.650Z</time><hdop>3.0</hdop><vdop>2.5</vdop><extensions><gom:speed>0.088</gom:speed></extensions></trkpt>
   <trkpt lat="59.3263594967" lon="34.7004690614"><ele>173.511</ele><time>2026-08-17T03:07:21.653Z</time><hdop>3.0</hdop><vdop>2.5</vdop><extensions><gom:speed>0.091</gom:speed></extensions></trkpt>
   <trkpt lat="59.3263595805" lon="34.7004690614"><ele>173.515</ele><time>2026-08-17T03:07:22.652Z</time><hdop>3.0</hdop><vdop>2.5</vdop><extensions><gom:speed>0.093</gom:speed></extensions></trkpt>
   <trkpt lat="59.3263595805" lon="34.7004693967"><ele>173.523</ele><time>2026-08-17T03:07:23.645Z</time><hdop>3.0</hdop><vdop>2.5</vdop><extensions><gom:speed>0.092</gom:speed></extensions></trkpt>
   <trkpt lat="59.3263595805" lon="34.700469229"><ele>173.534</ele><time>2026-08-17T03:07:24.657Z</time><hdop>3.0</hdop><vdop>2.5</vdop><extensions><gom:speed>0.092</gom:speed></extensions></trkpt>
   <trkpt lat="59.3263595805" lon="34.7004693967"><ele>173.544</ele><time>2026-08-17T03:07:25.646Z</time><hdop>3.062</hdop><vdop>2.5</vdop><extensions><gom:speed>0.09</gom:speed></extensions></trkpt>
   <trkpt lat="59.3263594967" lon="34.7004693967"><ele>173.552</ele><time>2026-08-17T03:07:26.645Z</time><hdop>3.125</hdop><vdop>2.5</vdop><extensions><gom:speed>0.091</gom:speed></extensions></trkpt>
   <trkpt lat="59.3263594967" lon="34.7004693967"><ele>173.557</ele><time>2026-08-17T03:07:27.646Z</time><hdop>3.187</hdop><vdop>2.5</vdop><extensions><gom:speed>0.096</gom:speed></extensions></trkpt>
   <trkpt lat="59.326359371" lon="34.700469229"><ele>173.56</ele><time>2026-08-17T03:07:28.652Z</time><hdop>3.312</hdop><vdop>2.5</vdop><extensions><gom:speed>0.096</gom:speed></extensions></trkpt>
   <trkpt lat="59.3263592872" lon="34.700469229"><ele>173.562</ele><time>2026-08-17T03:07:29.652Z</time><hdop>3.375</hdop><vdop>2.5</vdop><extensions><gom:speed>0.1</gom:speed></extensions></trkpt>
   <trkpt lat="59.3263592872" lon="34.7004694805"><ele>173.564</ele><time>2026-08-17T03:07:30.646Z</time><hdop>3.437</hdop><vdop>2.5</vdop><extensions><gom:speed>0.1</gom:speed></extensions></trkpt>
   <trkpt lat="59.3263592872" lon="34.700469229"><ele>173.565</ele><time>2026-08-17T03:07:31.652Z</time><hdop>3.562</hdop><vdop>2.5</vdop><extensions><gom:speed>0.1</gom:speed></extensions></trkpt>
   <trkpt lat="59.3263591614" lon="34.7004695643"><ele>173.566</ele><time>2026-08-17T03:07:32.647Z</time><hdop>3.562</hdop><vdop>2.5</vdop><extensions><gom:speed>0.101</gom:speed></extensions></trkpt>
   <trkpt lat="59.3263591614" lon="34.7004695643"><ele>173.567</ele><time>2026-08-17T03:07:33.645Z</time><hdop>3.625</hdop><vdop>2.5</vdop><extensions><gom:speed>0.103</gom:speed></extensions></trkpt>
   <trkpt lat="59.3263590776" lon="34.7004694805"><ele>173.567</ele><time>2026-08-17T03:07:34.653Z</time><hdop>3.75</hdop><vdop>2.5</vdop><extensions><gom:speed>0.103</gom:speed></extensions></trkpt>
   <trkpt lat="59.3263590776" lon="34.7004695643"><ele>173.567</ele><time>2026-08-17T03:07:35.652Z</time><hdop>3.812</hdop><vdop>2.5</vdop><extensions><gom:speed>0.103</gom:speed></extensions></trkpt>
   <trkpt lat="59.3263590776" lon="34.7004696481"><ele>173.57</ele><time>2026-08-17T03:07:36.652Z</time><hdop>3.875</hdop><vdop>2.5</vdop><extensions><gom:speed>0.106</gom:speed></extensions></trkpt>
   <trkpt lat="59.3263591614" lon="34.7004698996"><ele>173.571</ele><time>2026-08-17T03:07:37.652Z</time><hdop>4.0</hdop><vdop>2.5</vdop><extensions><gom:speed>0.105</gom:speed></extensions></trkpt>
   <trkpt lat="59.3263592872" lon="34.7004700672"><ele>173.572</ele><time>2026-08-17T03:07:38.652Z</time><hdop>4.062</hdop><vdop>2.5</vdop><extensions><gom:speed>0.103</gom:speed></extensions></trkpt>
   <trkpt lat="59.326359371" lon="34.7004702348"><ele>173.573</ele><time>2026-08-17T03:07:39.651Z</time><hdop>4.125</hdop><vdop>2.5</vdop><extensions><gom:speed>0.101</gom:speed></extensions></trkpt>
   <trkpt lat="59.3263595805" lon="34.7004707378"><ele>173.573</ele><time>2026-08-17T03:07:40.646Z</time><hdop>4.125</hdop><vdop>2.5</vdop><extensions><gom:speed>0.104</gom:speed></extensions></trkpt>
   <trkpt lat="59.3263596643" lon="34.7004707378"><ele>173.573</ele><time>2026-08-17T03:07:41.646Z</time><hdop>4.187</hdop><vdop>2.5</vdop><extensions><gom:speed>0.107</gom:speed></extensions></trkpt>
   <trkpt lat="59.3263597901" lon="34.7004711569"><ele>173.573</ele><time>2026-08-17T03:07:42.645Z</time><hdop>4.187</hdop><vdop>2.5</vdop><extensions><gom:speed>0.105</gom:speed></extensions></trkpt>
   <trkpt lat="59.3263597901" lon="34.7004711569"><ele>173.572</ele><time>2026-08-17T03:07:43.652Z</time><hdop>4.25</hdop><vdop>2.5</vdop><extensions><gom:speed>0.105</gom:speed></extensions></trkpt>
   <trkpt lat="59.3263598739" lon="34.700471576"><ele>173.572</ele><time>2026-08-17T03:07:44.652Z</time><hdop>4.25</hdop><vdop>2.5</vdop><extensions><gom:speed>0.107</gom:speed></extensions></trkpt>
   <trkpt lat="59.3263599996" lon="34.7004717436"><ele>173.571</ele><time>2026-08-17T03:07:45.652Z</time><hdop>4.312</hdop><vdop>2.5</vdop><extensions><gom:speed>0.106</gom:speed></extensions></trkpt>
   <trkpt lat="59.3263599996" lon="34.7004718274"><ele>173.571</ele><time>2026-08-17T03:07:46.654Z</time><hdop>4.437</hdop><vdop>2.5</vdop><extensions><gom:speed>0.106</gom:speed></extensions></trkpt>
   <trkpt lat="59.3263600834" lon="34.700471995"><ele>173.57</ele><time>2026-08-17T03:07:47.665Z</time><hdop>4.437</hdop><vdop>2.5</vdop><extensions><gom:speed>0.107</gom:speed></extensions></trkpt>
   <trkpt lat="59.3263601673" lon="34.7004720789"><ele>173.569</ele><time>2026-08-17T03:07:48.676Z</time><hdop>4.562</hdop><vdop>2.5</vdop><extensions><gom:speed>0.107</gom:speed></extensions></trkpt>
   <trkpt lat="59.326360293" lon="34.7004721627"><ele>173.569</ele><time>2026-08-17T03:07:49.652Z</time><hdop>4.562</hdop><vdop>2.5</vdop><extensions><gom:speed>0.108</gom:speed></extensions></trkpt>
   <trkpt lat="59.326360293" lon="34.7004722465"><ele>173.569</ele><time>2026-08-17T03:07:50.660Z</time><hdop>4.625</hdop><vdop>2.5</vdop><extensions><gom:speed>0.108</gom:speed></extensions></trkpt>
   <trkpt lat="59.326360293" lon="34.700472498"><ele>173.569</ele><time>2026-08-17T03:07:51.652Z</time><hdop>4.687</hdop><vdop>2.5</vdop><extensions><gom:speed>0.108</gom:speed></extensions></trkpt>
   <trkpt lat="59.3263605864" lon="34.7004736714"><ele>173.57</ele><time>2026-08-17T03:07:52.646Z</time><hdop>4.75</hdop><vdop>2.5</vdop><extensions><gom:speed>0.107</gom:speed></extensions></trkpt>
   <trkpt lat="59.3263605864" lon="34.7004735876"><ele>173.57</ele><time>2026-08-17T03:07:53.654Z</time><hdop>4.75</hdop><vdop>2.5</vdop><extensions><gom:speed>0.107</gom:speed></extensions></trkpt>
   <trkpt lat="59.3263604606" lon="34.7004740905"><ele>173.569</ele><time>2026-08-17T03:07:54.646Z</time><hdop>4.812</hdop><vdop>2.5</vdop><extensions><gom:speed>0.104</gom:speed></extensions></trkpt>
   <trkpt lat="59.3263604606" lon="34.7004740905"><ele>173.568</ele><time>2026-08-17T03:07:55.659Z</time><hdop>4.812</hdop><vdop>2.5</vdop><extensions><gom:speed>0.104</gom:speed></extensions></trkpt>
   <trkpt lat="59.326360293" lon="34.7004744258"><ele>173.566</ele><time>2026-08-17T03:07:56.646Z</time><hdop>4.812</hdop><vdop>2.5</vdop><extensions><gom:speed>0.105</gom:speed></extensions></trkpt>
   <trkpt lat="59.3263601673" lon="34.7004747611"><ele>173.565</ele><time>2026-08-17T03:07:57.646Z</time><hdop>4.812</hdop><vdop>2.5</vdop><extensions><gom:speed>0.105</gom:speed></extensions></trkpt>
   <trkpt lat="59.3263601673" lon="34.7004746773"><ele>173.35</ele><time>2026-08-17T03:07:58.652Z</time><hdop>4.875</hdop><vdop>2.5</vdop><extensions><gom:speed>0.105</gom:speed></extensions></trkpt>
   <trkpt lat="59.3263599996" lon="34.7004750964"><ele>173.22</ele><time>2026-08-17T03:07:59.646Z</time><hdop>4.875</hdop><vdop>2.5</vdop><extensions><gom:speed>0.106</gom:speed></extensions></trkpt>
   <trkpt lat="59.3263599996" lon="34.7004750964"><ele>173.141</ele><time>2026-08-17T03:08:00.652Z</time><hdop>4.937</hdop><vdop>2.5</vdop><extensions><gom:speed>0.106</gom:speed></extensions></trkpt>
   <trkpt lat="59.3263598739" lon="34.7004751802"><ele>173.102</ele><time>2026-08-17T03:08:01.647Z</time><hdop>4.937</hdop><vdop>2.5</vdop><extensions><gom:speed>0.103</gom:speed></extensions></trkpt>
   <trkpt lat="59.3263597901" lon="34.7004753478"><ele>173.084</ele><time>2026-08-17T03:08:02.659Z</time><hdop>5.0</hdop><vdop>2.5</vdop><extensions><gom:speed>0.102</gom:speed></extensions></trkpt>
   <trkpt lat="59.3263601673" lon="34.7004772756"><ele>173.081</ele><time>2026-08-17T03:08:03.652Z</time><hdop>5.0</hdop><vdop>2.5</vdop><extensions><gom:speed>0.103</gom:speed></extensions></trkpt>
   <trkpt lat="59.3263600834" lon="34.7004770242"><ele>173.084</ele><time>2026-08-17T03:08:04.662Z</time><hdop>5.0</hdop><vdop>2.5</vdop><extensions><gom:speed>0.1</gom:speed></extensions></trkpt>
   <trkpt lat="59.3263599996" lon="34.7004768565"><ele>173.096</ele><time>2026-08-17T03:08:05.652Z</time><hdop>5.0</hdop><vdop>2.5</vdop><extensions><gom:speed>0.1</gom:speed></extensions></trkpt>
   <trkpt lat="59.3263598739" lon="34.7004767727"><ele>173.11</ele><time>2026-08-17T03:08:06.652Z</time><hdop>5.0</hdop><vdop>2.5</vdop><extensions><gom:speed>0.099</gom:speed></extensions></trkpt>
   <trkpt lat="59.3263597901" lon="34.7004765213"><ele>173.158</ele><time>2026-08-17T03:08:07.647Z</time><hdop>4.937</hdop><vdop>2.5</vdop><extensions><gom:speed>0.183</gom:speed></extensions></trkpt>
   <trkpt lat="59.3263596643" lon="34.7004763536"><ele>173.192</ele><time>2026-08-17T03:08:08.646Z</time><hdop>4.937</hdop><vdop>2.5</vdop><extensions><gom:speed>0.172</gom:speed></extensions></trkpt>
   <trkpt lat="59.3263596643" lon="34.7004762698"><ele>173.211</ele><time>2026-08-17T03:08:09.660Z</time><hdop>5.0</hdop><vdop>2.5</vdop><extensions><gom:speed>0.172</gom:speed></extensions></trkpt>
   <trkpt lat="59.3263595805" lon="34.7004763536"><ele>173.222</ele><time>2026-08-17T03:08:10.652Z</time><hdop>5.0</hdop><vdop>2.5</vdop><extensions><gom:speed>0.162</gom:speed></extensions></trkpt>
   <trkpt lat="59.3263595805" lon="34.7004765213"><ele>173.228</ele><time>2026-08-17T03:08:11.461Z</time><hdop>5.062</hdop><vdop>2.5</vdop><extensions><gom:speed>0.155</gom:speed></extensions></trkpt>
   <trkpt lat="59.3263596643" lon="34.7004768565"><ele>173.231</ele><time>2026-08-17T03:08:11.957Z</time><hdop>5.125</hdop><vdop>2.5</vdop><extensions><gom:speed>0.137</gom:speed></extensions></trkpt>
   <trkpt lat="59.3263596643" lon="34.7004770242"><ele>173.233</ele><time>2026-08-17T03:08:12.652Z</time><hdop>5.125</hdop><vdop>2.5</vdop><extensions><gom:speed>0.137</gom:speed></extensions></trkpt>
   <trkpt lat="59.326359371" lon="34.7004769404"><ele>173.233</ele><time>2026-08-17T03:08:13.645Z</time><hdop>5.187</hdop><vdop>2.5</vdop><extensions><gom:speed>0.118</gom:speed></extensions></trkpt>
   <trkpt lat="59.3263592872" lon="34.7004770242"><ele>173.202</ele><time>2026-08-17T03:08:14.652Z</time><hdop>5.187</hdop><vdop>2.5</vdop><extensions><gom:speed>0.118</gom:speed></extensions></trkpt>
   <trkpt lat="59.3263586585" lon="34.7004762698"><ele>173.182</ele><time>2026-08-17T03:08:15.650Z</time><hdop>5.25</hdop><vdop>2.5</vdop><extensions><gom:speed>0.41</gom:speed></extensions></trkpt>
   <trkpt lat="59.3263583652" lon="34.7004749287"><ele>173.17</ele><time>2026-08-17T03:08:16.227Z</time><hdop>5.187</hdop><vdop>2.5</vdop><extensions><gom:speed>0.219</gom:speed></extensions></trkpt>
   <trkpt lat="59.3263583652" lon="34.7004714921"><ele>173.162</ele><time>2026-08-17T03:08:17.107Z</time><hdop>5.187</hdop><vdop>2.5</vdop><extensions><gom:speed>0.211</gom:speed></extensions></trkpt>
   <trkpt lat="59.3263588681" lon="34.7004700672"><ele>173.254</ele><time>2026-08-17T03:08:17.674Z</time><hdop>5.125</hdop><vdop>2.5</vdop><extensions><gom:speed>0.263</gom:speed></extensions></trkpt>
   <trkpt lat="59.3263586585" lon="34.7004656248"><ele>173.319</ele><time>2026-08-17T03:08:18.645Z</time><hdop>5.125</hdop><vdop>2.5</vdop><extensions><gom:speed>0.25</gom:speed></extensions></trkpt>
   <trkpt lat="59.3263583652" lon="34.7004602604"><ele>173.248</ele><time>2026-08-17T03:08:19.652Z</time><hdop>5.125</hdop><vdop>2.5</vdop><extensions><gom:speed>0.321</gom:speed></extensions></trkpt>
   <trkpt lat="59.3263598739" lon="34.7004500345"><ele>173.204</ele><time>2026-08-17T03:08:20.646Z</time><hdop>5.125</hdop><vdop>2.5</vdop><extensions><gom:speed>0.317</gom:speed></extensions></trkpt>
   <trkpt lat="59.3263606702" lon="34.7004425746"><ele>173.177</ele><time>2026-08-17T03:08:21.518Z</time><hdop>5.125</hdop><vdop>2.5</vdop><extensions><gom:speed>0.369</gom:speed></extensions></trkpt>
   <trkpt lat="59.3263615922" lon="34.7004378807"><ele>173.161</ele><time>2026-08-17T03:08:22.004Z</time><hdop>5.187</hdop><vdop>2.562</vdop><extensions><gom:speed>0.37</gom:speed></extensions></trkpt>
   <trkpt lat="59.3263620951" lon="34.7004337736"><ele>173.161</ele><time>2026-08-17T03:08:22.647Z</time><hdop>5.187</hdop><vdop>2.5</vdop><extensions><gom:speed>0.346</gom:speed></extensions></trkpt>
   <trkpt lat="59.3263623885" lon="34.7004294988"><ele>173.074</ele><time>2026-08-17T03:08:23.653Z</time><hdop>5.25</hdop><vdop>2.5</vdop><extensions><gom:speed>0.326</gom:speed></extensions></trkpt>
   <trkpt lat="59.3263629752" lon="34.7004258946"><ele>172.627</ele><time>2026-08-17T03:08:24.652Z</time><hdop>5.25</hdop><vdop>2.5</vdop><extensions><gom:speed>0.229</gom:speed></extensions></trkpt>
   <trkpt lat="59.3263638972" lon="34.7004211169"><ele>172.36</ele><time>2026-08-17T03:08:25.404Z</time><hdop>5.25</hdop><vdop>2.5</vdop><extensions><gom:speed>0.269</gom:speed></extensions></trkpt>
   <trkpt lat="59.3263668728" lon="34.7004141599"><ele>172.092</ele><time>2026-08-17T03:08:26.646Z</time><hdop>5.062</hdop><vdop>2.625</vdop><extensions><gom:speed>0.3</gom:speed></extensions></trkpt>
   <trkpt lat="59.3263668728" lon="34.7004111424"><ele>171.633</ele><time>2026-08-17T03:08:27.650Z</time><hdop>4.812</hdop><vdop>2.875</vdop><extensions><gom:speed>0.275</gom:speed></extensions></trkpt>
   <trkpt lat="59.3263628914" lon="34.7004123997"><ele>171.599</ele><time>2026-08-17T03:08:28.645Z</time><hdop>4.375</hdop><vdop>2.812</vdop><extensions><gom:speed>0.155</gom:speed></extensions></trkpt>
   <trkpt lat="59.326362598" lon="34.7004117292"><ele>171.579</ele><time>2026-08-17T03:08:29.279Z</time><hdop>4.0</hdop><vdop>2.812</vdop><extensions><gom:speed>0.167</gom:speed></extensions></trkpt>
   <trkpt lat="59.3263611731" lon="34.7004097175"><ele>171.604</ele><time>2026-08-17T03:08:30.652Z</time><hdop>3.5</hdop><vdop>2.875</vdop><extensions><gom:speed>0.13</gom:speed></extensions></trkpt>
   <trkpt lat="59.3263598739" lon="34.7004042693"><ele>171.722</ele><time>2026-08-17T03:08:31.657Z</time><hdop>3.25</hdop><vdop>2.937</vdop><extensions><gom:speed>0.133</gom:speed></extensions></trkpt>
   <trkpt lat="59.3263577784" lon="34.7003839851"><ele>171.79</ele><time>2026-08-17T03:08:32.645Z</time><hdop>3.062</hdop><vdop>2.75</vdop><extensions><gom:speed>0.158</gom:speed></extensions></trkpt>
   <trkpt lat="59.3263575689" lon="34.7003822249"><ele>171.831</ele><time>2026-08-17T03:08:33.427Z</time><hdop>3.0</hdop><vdop>2.75</vdop><extensions><gom:speed>0.157</gom:speed></extensions></trkpt>
   <trkpt lat="59.3263569821" lon="34.7003745973"><ele>171.855</ele><time>2026-08-17T03:08:34.246Z</time><hdop>3.0</hdop><vdop>2.75</vdop><extensions><gom:speed>0.142</gom:speed></extensions></trkpt>
   <trkpt lat="59.3263564792" lon="34.7003674727"><ele>171.865</ele><time>2026-08-17T03:08:35.148Z</time><hdop>3.0</hdop><vdop>2.75</vdop><extensions><gom:speed>0.131</gom:speed></extensions></trkpt>
   <trkpt lat="59.3263560601" lon="34.7003624436"><ele>171.882</ele><time>2026-08-17T03:08:35.646Z</time><hdop>3.0</hdop><vdop>2.687</vdop><extensions><gom:speed>0.136</gom:speed></extensions></trkpt>
   <trkpt lat="59.3263557668" lon="34.7003585879"><ele>171.882</ele><time>2026-08-17T03:08:36.654Z</time><hdop>3.0</hdop><vdop>2.75</vdop><extensions><gom:speed>0.175</gom:speed></extensions></trkpt>
   <trkpt lat="59.3263521625" lon="34.7003498707"><ele>171.931</ele><time>2026-08-17T03:08:37.646Z</time><hdop>3.0</hdop><vdop>3.0</vdop><extensions><gom:speed>0.392</gom:speed></extensions></trkpt>
   <trkpt lat="59.3263519949" lon="34.7003467694"><ele>171.691</ele><time>2026-08-17T03:08:38.652Z</time><hdop>3.0</hdop><vdop>3.312</vdop><extensions><gom:speed>0.265</gom:speed></extensions></trkpt>
   <trkpt lat="59.3263503604" lon="34.7003448416"><ele>171.548</ele><time>2026-08-17T03:08:39.265Z</time><hdop>3.0</hdop><vdop>3.312</vdop><extensions><gom:speed>0.24</gom:speed></extensions></trkpt>
   <trkpt lat="59.3263484745" lon="34.7003396448"><ele>171.071</ele><time>2026-08-17T03:08:40.105Z</time><hdop>3.0</hdop><vdop>3.437</vdop><extensions><gom:speed>0.235</gom:speed></extensions></trkpt>
   <trkpt lat="59.3263480973" lon="34.7003371302"><ele>170.515</ele><time>2026-08-17T03:08:40.661Z</time><hdop>3.0</hdop><vdop>3.312</vdop><extensions><gom:speed>0.297</gom:speed></extensions></trkpt>
   <trkpt lat="59.3263459599" lon="34.7003305923"><ele>170.113</ele><time>2026-08-17T03:08:41.652Z</time><hdop>3.0</hdop><vdop>3.5</vdop><extensions><gom:speed>0.299</gom:speed></extensions></trkpt>
   <trkpt lat="59.3263409727" lon="34.700319193"><ele>170.17</ele><time>2026-08-17T03:08:42.645Z</time><hdop>3.0</hdop><vdop>3.75</vdop><extensions><gom:speed>0.317</gom:speed></extensions></trkpt>
   <trkpt lat="59.3263382905" lon="34.7003136609"><ele>170.02</ele><time>2026-08-17T03:08:43.652Z</time><hdop>3.0</hdop><vdop>3.5</vdop><extensions><gom:speed>0.349</gom:speed></extensions></trkpt>
   <trkpt lat="59.3263300762" lon="34.700290443"><ele>169.772</ele><time>2026-08-17T03:08:44.646Z</time><hdop>3.0</hdop><vdop>3.437</vdop><extensions><gom:speed>0.478</gom:speed></extensions></trkpt>
   <trkpt lat="59.3263290704" lon="34.7002874255"><ele>169.624</ele><time>2026-08-17T03:08:45.204Z</time><hdop>3.0</hdop><vdop>3.437</vdop><extensions><gom:speed>0.422</gom:speed></extensions></trkpt>
   <trkpt lat="59.3263246699" lon="34.7002765291"><ele>169.521</ele><time>2026-08-17T03:08:45.720Z</time><hdop>3.0</hdop><vdop>3.562</vdop><extensions><gom:speed>0.46</gom:speed></extensions></trkpt>
   <trkpt lat="59.3263202694" lon="34.7002645429"><ele>169.343</ele><time>2026-08-17T03:08:46.645Z</time><hdop>3.0</hdop><vdop>3.937</vdop><extensions><gom:speed>0.379</gom:speed></extensions></trkpt>
   <trkpt lat="59.3263188864" lon="34.7002591785"><ele>169.237</ele><time>2026-08-17T03:08:47.662Z</time><hdop>3.0</hdop><vdop>3.937</vdop><extensions><gom:speed>0.367</gom:speed></extensions></trkpt>
   <trkpt lat="59.3263160785" lon="34.7002454322"><ele>168.885</ele><time>2026-08-17T03:08:48.281Z</time><hdop>3.0</hdop><vdop>3.687</vdop><extensions><gom:speed>0.386</gom:speed></extensions></trkpt>
   <trkpt lat="59.3263145697" lon="34.7002316859"><ele>168.817</ele><time>2026-08-17T03:08:49.362Z</time><hdop>3.0</hdop><vdop>3.937</vdop><extensions><gom:speed>0.339</gom:speed></extensions></trkpt>
   <trkpt lat="59.3263151984" lon="34.7002144192"><ele>168.842</ele><time>2026-08-17T03:08:50.101Z</time><hdop>3.0</hdop><vdop>4.312</vdop><extensions><gom:speed>0.551</gom:speed></extensions></trkpt>
   <trkpt lat="59.3263144859" lon="34.7002105635"><ele>168.868</ele><time>2026-08-17T03:08:50.652Z</time><hdop>3.0</hdop><vdop>4.687</vdop><extensions><gom:speed>0.473</gom:speed></extensions></trkpt>
   <trkpt lat="59.3263170843" lon="34.7001944702"><ele>168.884</ele><time>2026-08-17T03:08:51.102Z</time><hdop>3.0</hdop><vdop>4.687</vdop><extensions><gom:speed>0.595</gom:speed></extensions></trkpt>
   <trkpt lat="59.3263166652" lon="34.7001896925"><ele>168.726</ele><time>2026-08-17T03:08:51.652Z</time><hdop>3.0</hdop><vdop>5.187</vdop><extensions><gom:speed>0.54</gom:speed></extensions></trkpt>
   <trkpt lat="59.3263212752" lon="34.7001756948"><ele>168.632</ele><time>2026-08-17T03:08:52.165Z</time><hdop>3.0</hdop><vdop>5.187</vdop><extensions><gom:speed>0.605</gom:speed></extensions></trkpt>
   <trkpt lat="59.3263210657" lon="34.7001718391"><ele>168.482</ele><time>2026-08-17T03:08:52.652Z</time><hdop>3.0</hdop><vdop>5.625</vdop><extensions><gom:speed>0.515</gom:speed></extensions></trkpt>
   <trkpt lat="59.3263246699" lon="34.7001561649"><ele>168.524</ele><time>2026-08-17T03:08:53.652Z</time><hdop>3.0</hdop><vdop>4.5</vdop><extensions><gom:speed>0.454</gom:speed></extensions></trkpt>
   <trkpt lat="59.3263295733" lon="34.7001369704"><ele>168.784</ele><time>2026-08-17T03:08:54.652Z</time><hdop>3.0</hdop><vdop>4.375</vdop><extensions><gom:speed>0.497</gom:speed></extensions></trkpt>
   <trkpt lat="59.3263335966" lon="34.7001206257"><ele>168.94</ele><time>2026-08-17T03:08:55.585Z</time><hdop>3.0</hdop><vdop>4.375</vdop><extensions><gom:speed>0.573</gom:speed></extensions></trkpt>
   <trkpt lat="59.3263378714" lon="34.7001060412"><ele>169.956</ele><time>2026-08-17T03:08:56.648Z</time><hdop>3.0</hdop><vdop>3.875</vdop><extensions><gom:speed>0.569</gom:speed></extensions></trkpt>
   <trkpt lat="59.3263420624" lon="34.7000957314"><ele>170.662</ele><time>2026-08-17T03:08:57.652Z</time><hdop>3.0</hdop><vdop>3.937</vdop><extensions><gom:speed>0.465</gom:speed></extensions></trkpt>
   <trkpt lat="59.3263459599" lon="34.7000875171"><ele>170.956</ele><time>2026-08-17T03:08:58.652Z</time><hdop>3.0</hdop><vdop>4.25</vdop><extensions><gom:speed>0.401</gom:speed></extensions></trkpt>
   <trkpt lat="59.326351492" lon="34.7000788838"><ele>171.292</ele><time>2026-08-17T03:08:59.653Z</time><hdop>3.0</hdop><vdop>3.937</vdop><extensions><gom:speed>0.375</gom:speed></extensions></trkpt>
   <trkpt lat="59.3263533779" lon="34.700077878"><ele>171.492</ele><time>2026-08-17T03:09:00.198Z</time><hdop>3.0</hdop><vdop>3.937</vdop><extensions><gom:speed>0.345</gom:speed></extensions></trkpt>
   <trkpt lat="59.3263535875" lon="34.7000769559"><ele>171.147</ele><time>2026-08-17T03:09:00.652Z</time><hdop>3.0</hdop><vdop>3.687</vdop><extensions><gom:speed>0.271</gom:speed></extensions></trkpt>
   <trkpt lat="59.32635518" lon="34.7000721783"><ele>170.941</ele><time>2026-08-17T03:09:01.221Z</time><hdop>3.0</hdop><vdop>3.687</vdop><extensions><gom:speed>0.342</gom:speed></extensions></trkpt>
   <trkpt lat="59.3263546771" lon="34.7000680711"><ele>170.449</ele><time>2026-08-17T03:09:01.918Z</time><hdop>3.0</hdop><vdop>3.875</vdop><extensions><gom:speed>0.351</gom:speed></extensions></trkpt>
   <trkpt lat="59.3263556829" lon="34.700064886"><ele>170.352</ele><time>2026-08-17T03:09:02.652Z</time><hdop>3.0</hdop><vdop>3.562</vdop><extensions><gom:speed>0.29</gom:speed></extensions></trkpt>
   <trkpt lat="59.3263571917" lon="34.7000590187"><ele>170.295</ele><time>2026-08-17T03:09:03.508Z</time><hdop>3.0</hdop><vdop>3.562</vdop><extensions><gom:speed>0.336</gom:speed></extensions></trkpt>
   <trkpt lat="59.3263589938" lon="34.7000538219"><ele>170.634</ele><time>2026-08-17T03:09:04.265Z</time><hdop>3.0</hdop><vdop>3.312</vdop><extensions><gom:speed>0.426</gom:speed></extensions></trkpt>
   <trkpt lat="59.3263638972" lon="34.7000501339"><ele>170.849</ele><time>2026-08-17T03:09:05.399Z</time><hdop>3.0</hdop><vdop>3.5</vdop><extensions><gom:speed>0.459</gom:speed></extensions></trkpt>
   <trkpt lat="59.3263665794" lon="34.7000433445"><ele>171.216</ele><time>2026-08-17T03:09:06.664Z</time><hdop>3.0</hdop><vdop>3.5</vdop><extensions><gom:speed>0.265</gom:speed></extensions></trkpt>
   <trkpt lat="59.326366789" lon="34.7000336215"><ele>171.31</ele><time>2026-08-17T03:09:07.675Z</time><hdop>3.0</hdop><vdop>3.312</vdop><extensions><gom:speed>0.214</gom:speed></extensions></trkpt>
   <trkpt lat="59.3263652802" lon="34.7000246529"><ele>171.366</ele><time>2026-08-17T03:09:08.565Z</time><hdop>3.0</hdop><vdop>3.312</vdop><extensions><gom:speed>0.252</gom:speed></extensions></trkpt>
   <trkpt lat="59.326362598" lon="34.7000183664"><ele>171.387</ele><time>2026-08-17T03:09:09.193Z</time><hdop>3.0</hdop><vdop>3.375</vdop><extensions><gom:speed>0.202</gom:speed></extensions></trkpt>
   <trkpt lat="59.326362598" lon="34.7000161872"><ele>171.409</ele><time>2026-08-17T03:09:09.652Z</time><hdop>3.0</hdop><vdop>3.312</vdop><extensions><gom:speed>0.2</gom:speed></extensions></trkpt>
   <trkpt lat="59.3263598739" lon="34.7000069671"><ele>171.423</ele><time>2026-08-17T03:09:10.518Z</time><hdop>3.0</hdop><vdop>3.312</vdop><extensions><gom:speed>0.244</gom:speed></extensions></trkpt>
   <trkpt lat="59.3263577784" lon="34.6999979984"><ele>171.77</ele><time>2026-08-17T03:09:11.297Z</time><hdop>3.0</hdop><vdop>3.187</vdop><extensions><gom:speed>0.26</gom:speed></extensions></trkpt>
   <trkpt lat="59.3263574851" lon="34.6999872696"><ele>172.161</ele><time>2026-08-17T03:09:12.137Z</time><hdop>3.0</hdop><vdop>3.187</vdop><extensions><gom:speed>0.341</gom:speed></extensions></trkpt>
   <trkpt lat="59.326359371" lon="34.6999848388"><ele>172.283</ele><time>2026-08-17T03:09:12.653Z</time><hdop>3.0</hdop><vdop>2.875</vdop><extensions><gom:speed>0.407</gom:speed></extensions></trkpt>
   <trkpt lat="59.3263615922" lon="34.6999645546"><ele>172.252</ele><time>2026-08-17T03:09:13.646Z</time><hdop>3.0</hdop><vdop>3.125</vdop><extensions><gom:speed>0.577</gom:speed></extensions></trkpt>
   <trkpt lat="59.3263650707" lon="34.6999602799"><ele>172.234</ele><time>2026-08-17T03:09:14.606Z</time><hdop>3.0</hdop><vdop>3.125</vdop><extensions><gom:speed>0.514</gom:speed></extensions></trkpt>
   <trkpt lat="59.3263668728" lon="34.6999483776"><ele>171.808</ele><time>2026-08-17T03:09:15.304Z</time><hdop>3.0</hdop><vdop>3.375</vdop><extensions><gom:speed>0.488</gom:speed></extensions></trkpt>
   <trkpt lat="59.3263717762" lon="34.6999320328"><ele>171.434</ele><time>2026-08-17T03:09:16.165Z</time><hdop>3.0</hdop><vdop>3.625</vdop><extensions><gom:speed>0.614</gom:speed></extensions></trkpt>
   <trkpt lat="59.3263744584" lon="34.6999268361"><ele>171.183</ele><time>2026-08-17T03:09:16.652Z</time><hdop>3.0</hdop><vdop>3.937</vdop><extensions><gom:speed>0.592</gom:speed></extensions></trkpt>
   <trkpt lat="59.3263774759" lon="34.6999087312"><ele>170.937</ele><time>2026-08-17T03:09:17.652Z</time><hdop>3.0</hdop><vdop>4.187</vdop><extensions><gom:speed>0.62</gom:speed></extensions></trkpt>
   <trkpt lat="59.3263782722" lon="34.699887022"><ele>170.789</ele><time>2026-08-17T03:09:18.663Z</time><hdop>3.0</hdop><vdop>4.187</vdop><extensions><gom:speed>0.658</gom:speed></extensions></trkpt>
   <trkpt lat="59.3263760929" lon="34.6998722699"><ele>170.743</ele><time>2026-08-17T03:09:19.219Z</time><hdop>3.0</hdop><vdop>4.437</vdop><extensions><gom:speed>0.621</gom:speed></extensions></trkpt>
   <trkpt lat="59.3263698903" lon="34.6998639718"><ele>169.927</ele><time>2026-08-17T03:09:20.646Z</time><hdop>3.062</hdop><vdop>4.187</vdop><extensions><gom:speed>0.353</gom:speed></extensions></trkpt>
   <trkpt lat="59.3263661603" lon="34.6998661511"><ele>169.442</ele><time>2026-08-17T03:09:21.646Z</time><hdop>3.062</hdop><vdop>3.875</vdop><extensions><gom:speed>0.181</gom:speed></extensions></trkpt>
   <trkpt lat="59.3263632686" lon="34.6998686657"><ele>169.382</ele><time>2026-08-17T03:09:22.646Z</time><hdop>3.062</hdop><vdop>3.437</vdop><extensions><gom:speed>0.109</gom:speed></extensions></trkpt>
   <trkpt lat="59.3263619694" lon="34.6998704259"><ele>169.382</ele><time>2026-08-17T03:09:23.646Z</time><hdop>3.0</hdop><vdop>3.375</vdop><extensions><gom:speed>0.076</gom:speed></extensions></trkpt>
   <trkpt lat="59.3263619694" lon="34.6998706773"><ele>169.382</ele><time>2026-08-17T03:09:24.167Z</time><hdop>3.0</hdop><vdop>3.375</vdop><extensions><gom:speed>0.074</gom:speed></extensions></trkpt>
   <trkpt lat="59.326361676" lon="34.6998705935"><ele>169.371</ele><time>2026-08-17T03:09:24.652Z</time><hdop>3.0</hdop><vdop>3.562</vdop><extensions><gom:speed>0.041</gom:speed></extensions></trkpt>
   <trkpt lat="59.3263611731" lon="34.6998696715"><ele>169.292</ele><time>2026-08-17T03:09:25.646Z</time><hdop>3.0</hdop><vdop>3.687</vdop><extensions><gom:speed>0.159</gom:speed></extensions></trkpt>
   <trkpt lat="59.3263611731" lon="34.6998674922"><ele>169.244</ele><time>2026-08-17T03:09:26.484Z</time><hdop>3.0</hdop><vdop>3.687</vdop><extensions><gom:speed>0.138</gom:speed></extensions></trkpt>
   <trkpt lat="59.3263631847" lon="34.6998559252"><ele>168.91</ele><time>2026-08-17T03:09:27.303Z</time><hdop>3.0</hdop><vdop>4.062</vdop><extensions><gom:speed>0.371</gom:speed></extensions></trkpt>
   <trkpt lat="59.3263670823" lon="34.6998476271"><ele>168.313</ele><time>2026-08-17T03:09:28.042Z</time><hdop>3.0</hdop><vdop>3.375</vdop><extensions><gom:speed>0.343</gom:speed></extensions></trkpt>
   <trkpt lat="59.3263708961" lon="34.6998419274"><ele>167.831</ele><time>2026-08-17T03:09:28.645Z</time><hdop>3.0</hdop><vdop>3.437</vdop><extensions><gom:speed>0.369</gom:speed></extensions></trkpt>
   <trkpt lat="59.326372782" lon="34.6998397481"><ele>167.543</ele><time>2026-08-17T03:09:29.124Z</time><hdop>3.0</hdop><vdop>3.437</vdop><extensions><gom:speed>0.401</gom:speed></extensions></trkpt>
   <trkpt lat="59.3263740812" lon="34.6998389937"><ele>166.562</ele><time>2026-08-17T03:09:29.652Z</time><hdop>3.0</hdop><vdop>3.187</vdop><extensions><gom:speed>0.352</gom:speed></extensions></trkpt>
   <trkpt lat="59.3263846843" lon="34.6998311985"><ele>166.653</ele><time>2026-08-17T03:09:30.645Z</time><hdop>3.0</hdop><vdop>2.937</vdop><extensions><gom:speed>0.356</gom:speed></extensions></trkpt>
   <trkpt lat="59.3263872827" lon="34.6998291869"><ele>166.707</ele><time>2026-08-17T03:09:31.583Z</time><hdop>3.0</hdop><vdop>2.937</vdop><extensions><gom:speed>0.335</gom:speed></extensions></trkpt>
   <trkpt lat="59.3263948683" lon="34.6998215594"><ele>166.7</ele><time>2026-08-17T03:09:32.382Z</time><hdop>3.0</hdop><vdop>3.062</vdop><extensions><gom:speed>0.408</gom:speed></extensions></trkpt>
   <trkpt lat="59.3264028731" lon="34.6998124231"><ele>166.622</ele><time>2026-08-17T03:09:33.627Z</time><hdop>3.0</hdop><vdop>3.187</vdop><extensions><gom:speed>0.418</gom:speed></extensions></trkpt>
   <trkpt lat="59.3264122608" lon="34.6998054661"><ele>166.44</ele><time>2026-08-17T03:09:34.598Z</time><hdop>3.0</hdop><vdop>3.187</vdop><extensions><gom:speed>0.439</gom:speed></extensions></trkpt>
   <trkpt lat="59.32641817" lon="34.6998032868"><ele>166.533</ele><time>2026-08-17T03:09:35.539Z</time><hdop>3.0</hdop><vdop>3.312</vdop><extensions><gom:speed>0.349</gom:speed></extensions></trkpt>
   <trkpt lat="59.326425588" lon="34.6998020295"><ele>166.939</ele><time>2026-08-17T03:09:36.460Z</time><hdop>3.0</hdop><vdop>2.937</vdop><extensions><gom:speed>0.369</gom:speed></extensions></trkpt>
   <trkpt lat="59.3264289827" lon="34.699800437"><ele>166.944</ele><time>2026-08-17T03:09:37.652Z</time><hdop>3.0</hdop><vdop>2.937</vdop><extensions><gom:speed>0.203</gom:speed></extensions></trkpt>
   <trkpt lat="59.3264327965" lon="34.6997992635"><ele>166.947</ele><time>2026-08-17T03:09:38.615Z</time><hdop>3.0</hdop><vdop>2.937</vdop><extensions><gom:speed>0.201</gom:speed></extensions></trkpt>
   <trkpt lat="59.3264339699" lon="34.6997976709"><ele>166.907</ele><time>2026-08-17T03:09:39.606Z</time><hdop>3.0</hdop><vdop>3.062</vdop><extensions><gom:speed>0.163</gom:speed></extensions></trkpt>
   <trkpt lat="59.3264345986" lon="34.6997948211"><ele>166.652</ele><time>2026-08-17T03:09:40.385Z</time><hdop>3.0</hdop><vdop>3.312</vdop><extensions><gom:speed>0.174</gom:speed></extensions></trkpt>
   <trkpt lat="59.3264348919" lon="34.6997906301"><ele>166.781</ele><time>2026-08-17T03:09:41.206Z</time><hdop>3.0</hdop><vdop>3.187</vdop><extensions><gom:speed>0.195</gom:speed></extensions></trkpt>
   <trkpt lat="59.3264365683" lon="34.6997822482"><ele>166.316</ele><time>2026-08-17T03:09:42.227Z</time><hdop>3.0</hdop><vdop>3.062</vdop><extensions><gom:speed>0.33</gom:speed></extensions></trkpt>
   <trkpt lat="59.3264386638" lon="34.6997727767"><ele>166.091</ele><time>2026-08-17T03:09:43.441Z</time><hdop>3.0</hdop><vdop>3.25</vdop><extensions><gom:speed>0.301</gom:speed></extensions></trkpt>
   <trkpt lat="59.3264416813" lon="34.6997650653"><ele>165.807</ele><time>2026-08-17T03:09:44.341Z</time><hdop>3.0</hdop><vdop>3.312</vdop><extensions><gom:speed>0.292</gom:speed></extensions></trkpt>
   <trkpt lat="59.3264442797" lon="34.699757354"><ele>165.65</ele><time>2026-08-17T03:09:45.323Z</time><hdop>3.0</hdop><vdop>3.125</vdop><extensions><gom:speed>0.246</gom:speed></extensions></trkpt>
   <trkpt lat="59.3264470876" lon="34.6997481339"><ele>165.708</ele><time>2026-08-17T03:09:46.163Z</time><hdop>3.0</hdop><vdop>2.937</vdop><extensions><gom:speed>0.226</gom:speed></extensions></trkpt>
   <trkpt lat="59.3264493926" lon="34.6997399196"><ele>165.634</ele><time>2026-08-17T03:09:46.646Z</time><hdop>3.0</hdop><vdop>3.062</vdop><extensions><gom:speed>0.218</gom:speed></extensions></trkpt>
   <trkpt lat="59.3264491831" lon="34.6997394167"><ele>165.59</ele><time>2026-08-17T03:09:47.124Z</time><hdop>3.0</hdop><vdop>3.062</vdop><extensions><gom:speed>0.198</gom:speed></extensions></trkpt>
   <trkpt lat="59.3264513624" lon="34.6997311186"><ele>165.684</ele><time>2026-08-17T03:09:47.646Z</time><hdop>3.0</hdop><vdop>3.312</vdop><extensions><gom:speed>0.206</gom:speed></extensions></trkpt>
   <trkpt lat="59.3264517815" lon="34.6997308672"><ele>165.74</ele><time>2026-08-17T03:09:48.146Z</time><hdop>3.0</hdop><vdop>3.312</vdop><extensions><gom:speed>0.203</gom:speed></extensions></trkpt>
   <trkpt lat="59.3264573973" lon="34.6997214794"><ele>165.789</ele><time>2026-08-17T03:09:48.645Z</time><hdop>3.0</hdop><vdop>3.375</vdop><extensions><gom:speed>0.446</gom:speed></extensions></trkpt>
   <trkpt lat="59.3264590737" lon="34.6997218985"><ele>165.806</ele><time>2026-08-17T03:09:49.652Z</time><hdop>3.0</hdop><vdop>3.687</vdop><extensions><gom:speed>0.294</gom:speed></extensions></trkpt>
   <trkpt lat="59.3264625941" lon="34.6997154445"><ele>165.817</ele><time>2026-08-17T03:09:50.652Z</time><hdop>3.0</hdop><vdop>3.687</vdop><extensions><gom:speed>0.24</gom:speed></extensions></trkpt>
   <trkpt lat="59.3264697606" lon="34.699710583"><ele>165.639</ele><time>2026-08-17T03:09:51.606Z</time><hdop>3.0</hdop><vdop>3.812</vdop><extensions><gom:speed>0.391</gom:speed></extensions></trkpt>
   <trkpt lat="59.3264713951" lon="34.6997115888"><ele>165.322</ele><time>2026-08-17T03:09:52.658Z</time><hdop>3.0</hdop><vdop>4.062</vdop><extensions><gom:speed>0.263</gom:speed></extensions></trkpt>
   <trkpt lat="59.3264762985" lon="34.6997010276"><ele>165.199</ele><time>2026-08-17T03:09:53.645Z</time><hdop>3.0</hdop><vdop>4.125</vdop><extensions><gom:speed>0.426</gom:speed></extensions></trkpt>
   <trkpt lat="59.3264777654" lon="34.6997001894"><ele>165.126</ele><time>2026-08-17T03:09:54.621Z</time><hdop>3.0</hdop><vdop>4.125</vdop><extensions><gom:speed>0.302</gom:speed></extensions></trkpt>
   <trkpt lat="59.326475167" lon="34.6996936515"><ele>165.462</ele><time>2026-08-17T03:09:55.652Z</time><hdop>3.0</hdop><vdop>3.375</vdop><extensions><gom:speed>0.143</gom:speed></extensions></trkpt>
   <trkpt lat="59.3264782683" lon="34.6996696793"><ele>165.704</ele><time>2026-08-17T03:09:56.646Z</time><hdop>3.0</hdop><vdop>3.25</vdop><extensions><gom:speed>0.247</gom:speed></extensions></trkpt>
   <trkpt lat="59.326477472" lon="34.6996698469"><ele>165.991</ele><time>2026-08-17T03:09:57.652Z</time><hdop>3.0</hdop><vdop>3.187</vdop><extensions><gom:speed>0.125</gom:speed></extensions></trkpt>
   <trkpt lat="59.3264804895" lon="34.6996591181"><ele>166.546</ele><time>2026-08-17T03:09:58.652Z</time><hdop>3.0</hdop><vdop>2.937</vdop><extensions><gom:speed>0.184</gom:speed></extensions></trkpt>
   <trkpt lat="59.3264762985" lon="34.6996483892"><ele>167.247</ele><time>2026-08-17T03:09:59.652Z</time><hdop>3.0</hdop><vdop>2.937</vdop><extensions><gom:speed>0.093</gom:speed></extensions></trkpt>
   <trkpt lat="59.3264779749" lon="34.6996435277"><ele>167.665</ele><time>2026-08-17T03:10:00.580Z</time><hdop>3.0</hdop><vdop>2.937</vdop><extensions><gom:speed>0.178</gom:speed></extensions></trkpt>
   <trkpt lat="59.3264776815" lon="34.6996370737"><ele>167.611</ele><time>2026-08-17T03:10:01.501Z</time><hdop>3.0</hdop><vdop>2.75</vdop><extensions><gom:speed>0.161</gom:speed></extensions></trkpt>
   <trkpt lat="59.3264794837" lon="34.6996289432"><ele>167.473</ele><time>2026-08-17T03:10:02.686Z</time><hdop>3.0</hdop><vdop>2.75</vdop><extensions><gom:speed>0.203</gom:speed></extensions></trkpt>
   <trkpt lat="59.3264800704" lon="34.6996200584"><ele>167.189</ele><time>2026-08-17T03:10:03.545Z</time><hdop>3.0</hdop><vdop>2.75</vdop><extensions><gom:speed>0.201</gom:speed></extensions></trkpt>
   <trkpt lat="59.3264827945" lon="34.6996102516"><ele>167.528</ele><time>2026-08-17T03:10:04.202Z</time><hdop>3.0</hdop><vdop>2.75</vdop><extensions><gom:speed>0.373</gom:speed></extensions></trkpt>
   <trkpt lat="59.3264834651" lon="34.6996107545"><ele>167.883</ele><time>2026-08-17T03:10:04.652Z</time><hdop>3.0</hdop><vdop>2.75</vdop><extensions><gom:speed>0.31</gom:speed></extensions></trkpt>
   <trkpt lat="59.3264849738" lon="34.69960078"><ele>168.095</ele><time>2026-08-17T03:10:05.204Z</time><hdop>3.0</hdop><vdop>2.75</vdop><extensions><gom:speed>0.311</gom:speed></extensions></trkpt>
   <trkpt lat="59.3264890809" lon="34.6995903865"><ele>168.394</ele><time>2026-08-17T03:10:06.084Z</time><hdop>3.0</hdop><vdop>2.875</vdop><extensions><gom:speed>0.399</gom:speed></extensions></trkpt>
   <trkpt lat="59.3264902963" lon="34.6995899674"><ele>168.397</ele><time>2026-08-17T03:10:06.652Z</time><hdop>3.0</hdop><vdop>2.875</vdop><extensions><gom:speed>0.287</gom:speed></extensions></trkpt>
   <trkpt lat="59.3264896677" lon="34.6995804958"><ele>168.399</ele><time>2026-08-17T03:10:07.217Z</time><hdop>3.0</hdop><vdop>2.875</vdop><extensions><gom:speed>0.316</gom:speed></extensions></trkpt>
   <trkpt lat="59.3264892905" lon="34.6995730359"><ele>168.619</ele><time>2026-08-17T03:10:08.219Z</time><hdop>3.0</hdop><vdop>2.812</vdop><extensions><gom:speed>0.274</gom:speed></extensions></trkpt>
   <trkpt lat="59.3264886618" lon="34.6995652408"><ele>168.414</ele><time>2026-08-17T03:10:09.140Z</time><hdop>3.0</hdop><vdop>2.75</vdop><extensions><gom:speed>0.275</gom:speed></extensions></trkpt>
   <trkpt lat="59.3264890809" lon="34.6995656599"><ele>168.004</ele><time>2026-08-17T03:10:09.652Z</time><hdop>3.0</hdop><vdop>2.687</vdop><extensions><gom:speed>0.215</gom:speed></extensions></trkpt>
   <trkpt lat="59.3264891648" lon="34.6995580323"><ele>167.728</ele><time>2026-08-17T03:10:10.647Z</time><hdop>3.0</hdop><vdop>2.812</vdop><extensions><gom:speed>0.233</gom:speed></extensions></trkpt>
   <trkpt lat="59.3264882847" lon="34.6995497342"><ele>167.695</ele><time>2026-08-17T03:10:11.652Z</time><hdop>3.0</hdop><vdop>2.687</vdop><extensions><gom:speed>0.16</gom:speed></extensions></trkpt>
   <trkpt lat="59.3264869855" lon="34.6995407656"><ele>167.675</ele><time>2026-08-17T03:10:12.286Z</time><hdop>3.0</hdop><vdop>2.687</vdop><extensions><gom:speed>0.166</gom:speed></extensions></trkpt>
   <trkpt lat="59.3264852672" lon="34.699534563"><ele>167.386</ele><time>2026-08-17T03:10:13.298Z</time><hdop>3.0</hdop><vdop>2.562</vdop><extensions><gom:speed>0.142</gom:speed></extensions></trkpt>
   <trkpt lat="59.3264845966" lon="34.6995278575"><ele>166.907</ele><time>2026-08-17T03:10:14.654Z</time><hdop>3.0</hdop><vdop>2.812</vdop><extensions><gom:speed>0.143</gom:speed></extensions></trkpt>
   <trkpt lat="59.3264834651" lon="34.6995198947"><ele>166.258</ele><time>2026-08-17T03:10:15.665Z</time><hdop>3.0</hdop><vdop>2.75</vdop><extensions><gom:speed>0.176</gom:speed></extensions></trkpt>
   <trkpt lat="59.3264837584" lon="34.6995108422"><ele>165.912</ele><time>2026-08-17T03:10:16.652Z</time><hdop>3.0</hdop><vdop>2.812</vdop><extensions><gom:speed>0.208</gom:speed></extensions></trkpt>
   <trkpt lat="59.3264875722" lon="34.6995025441"><ele>165.705</ele><time>2026-08-17T03:10:17.598Z</time><hdop>3.0</hdop><vdop>2.812</vdop><extensions><gom:speed>0.31</gom:speed></extensions></trkpt>
   <trkpt lat="59.3264904639" lon="34.6994923182"><ele>165.665</ele><time>2026-08-17T03:10:18.652Z</time><hdop>3.0</hdop><vdop>3.062</vdop><extensions><gom:speed>0.203</gom:speed></extensions></trkpt>
   <trkpt lat="59.3264921822" lon="34.6994835172"><ele>165.64</ele><time>2026-08-17T03:10:19.480Z</time><hdop>3.0</hdop><vdop>3.062</vdop><extensions><gom:speed>0.231</gom:speed></extensions></trkpt>
   <trkpt lat="59.3264930623" lon="34.6994756382"><ele>165.623</ele><time>2026-08-17T03:10:20.279Z</time><hdop>3.0</hdop><vdop>2.812</vdop><extensions><gom:speed>0.176</gom:speed></extensions></trkpt>
   <trkpt lat="59.3264949902" lon="34.6994700223"><ele>165.568</ele><time>2026-08-17T03:10:21.362Z</time><hdop>3.0</hdop><vdop>3.062</vdop><extensions><gom:speed>0.16</gom:speed></extensions></trkpt>
   <trkpt lat="59.3264964989" lon="34.6994642388"><ele>165.408</ele><time>2026-08-17T03:10:22.363Z</time><hdop>3.0</hdop><vdop>3.312</vdop><extensions><gom:speed>0.145</gom:speed></extensions></trkpt>
   <trkpt lat="59.3264992649" lon="34.6994583715"><ele>165.384</ele><time>2026-08-17T03:10:23.223Z</time><hdop>3.0</hdop><vdop>3.312</vdop><extensions><gom:speed>0.15</gom:speed></extensions></trkpt>
   <trkpt lat="59.3265028692" lon="34.6994537614"><ele>165.072</ele><time>2026-08-17T03:10:24.023Z</time><hdop>3.0</hdop><vdop>3.375</vdop><extensions><gom:speed>0.242</gom:speed></extensions></trkpt>
   <trkpt lat="59.3265033721" lon="34.6994569466"><ele>164.973</ele><time>2026-08-17T03:10:24.650Z</time><hdop>3.0</hdop><vdop>3.312</vdop><extensions><gom:speed>0.263</gom:speed></extensions></trkpt>
   <trkpt lat="59.326507563" lon="34.6994560246"><ele>164.837</ele><time>2026-08-17T03:10:25.663Z</time><hdop>3.0</hdop><vdop>3.5</vdop><extensions><gom:speed>0.305</gom:speed></extensions></trkpt>
   <trkpt lat="59.3265114606" lon="34.6994534262"><ele>164.798</ele><time>2026-08-17T03:10:26.652Z</time><hdop>3.0</hdop><vdop>3.5</vdop><extensions><gom:speed>0.263</gom:speed></extensions></trkpt>
   <trkpt lat="59.3265182919" lon="34.6994484808"><ele>165.071</ele><time>2026-08-17T03:10:27.653Z</time><hdop>3.0</hdop><vdop>3.375</vdop><extensions><gom:speed>0.204</gom:speed></extensions></trkpt>
   <trkpt lat="59.3265264642" lon="34.6994440384"><ele>165.147</ele><time>2026-08-17T03:10:28.652Z</time><hdop>3.0</hdop><vdop>3.625</vdop><extensions><gom:speed>0.176</gom:speed></extensions></trkpt>
   <trkpt lat="59.3265358939" lon="34.6994383387"><ele>165.189</ele><time>2026-08-17T03:10:29.646Z</time><hdop>3.0</hdop><vdop>4.062</vdop><extensions><gom:speed>0.257</gom:speed></extensions></trkpt>
   <trkpt lat="59.3265358939" lon="34.6994396799"><ele>165.274</ele><time>2026-08-17T03:10:30.652Z</time><hdop>3.0</hdop><vdop>4.312</vdop><extensions><gom:speed>0.181</gom:speed></extensions></trkpt>
   <trkpt lat="59.3265386599" lon="34.6994385902"><ele>165.324</ele><time>2026-08-17T03:10:31.145Z</time><hdop>3.0</hdop><vdop>4.312</vdop><extensions><gom:speed>0.211</gom:speed></extensions></trkpt>
   <trkpt lat="59.3265393724" lon="34.6994401828"><ele>165.476</ele><time>2026-08-17T03:10:31.651Z</time><hdop>3.0</hdop><vdop>4.687</vdop><extensions><gom:speed>0.231</gom:speed></extensions></trkpt>
   <trkpt lat="59.3265423898" lon="34.6994400989"><ele>165.597</ele><time>2026-08-17T03:10:32.652Z</time><hdop>3.0</hdop><vdop>5.0</vdop><extensions><gom:speed>0.207</gom:speed></extensions></trkpt>
   <trkpt lat="59.326545072" lon="34.6994407695"><ele>165.507</ele><time>2026-08-17T03:10:33.652Z</time><hdop>3.0</hdop><vdop>4.375</vdop><extensions><gom:speed>0.198</gom:speed></extensions></trkpt>
   <trkpt lat="59.326551568" lon="34.6994303759"><ele>165.45</ele><time>2026-08-17T03:10:34.666Z</time><hdop>3.0</hdop><vdop>4.562</vdop><extensions><gom:speed>0.203</gom:speed></extensions></trkpt>
   <trkpt lat="59.3265590698" lon="34.6994200662"><ele>165.416</ele><time>2026-08-17T03:10:35.203Z</time><hdop>3.0</hdop><vdop>4.562</vdop><extensions><gom:speed>0.224</gom:speed></extensions></trkpt>
   <trkpt lat="59.3265639732" lon="34.6994199824"><ele>165.416</ele><time>2026-08-17T03:10:36.285Z</time><hdop>3.0</hdop><vdop>4.187</vdop><extensions><gom:speed>0.224</gom:speed></extensions></trkpt>
   <trkpt lat="59.3265660687" lon="34.6994212397"><ele>166.747</ele><time>2026-08-17T03:10:37.307Z</time><hdop>3.0</hdop><vdop>3.875</vdop><extensions><gom:speed>0.236</gom:speed></extensions></trkpt>
   <trkpt lat="59.3265704692" lon="34.6994214911"><ele>167.247</ele><time>2026-08-17T03:10:38.147Z</time><hdop>3.125</hdop><vdop>3.562</vdop><extensions><gom:speed>0.239</gom:speed></extensions></trkpt>
   <trkpt lat="59.3265703854" lon="34.6994220779"><ele>166.817</ele><time>2026-08-17T03:10:38.652Z</time><hdop>3.25</hdop><vdop>3.312</vdop><extensions><gom:speed>0.207</gom:speed></extensions></trkpt>
   <trkpt lat="59.3266035777" lon="34.6994029671"><ele>166.247</ele><time>2026-08-17T03:10:39.646Z</time><hdop>3.375</hdop><vdop>3.5</vdop><extensions><gom:speed>0.526</gom:speed></extensions></trkpt>
   <trkpt lat="59.3266058828" lon="34.6994060684"><ele>165.907</ele><time>2026-08-17T03:10:40.464Z</time><hdop>3.375</hdop><vdop>3.5</vdop><extensions><gom:speed>0.401</gom:speed></extensions></trkpt>
   <trkpt lat="59.3266093612" lon="34.6994007878"><ele>165.772</ele><time>2026-08-17T03:10:41.283Z</time><hdop>3.312</hdop><vdop>3.5</vdop><extensions><gom:speed>0.341</gom:speed></extensions></trkpt>
   <trkpt lat="59.32661087" lon="34.6993945852"><ele>165.475</ele><time>2026-08-17T03:10:42.406Z</time><hdop>3.312</hdop><vdop>3.5</vdop><extensions><gom:speed>0.256</gom:speed></extensions></trkpt>
   <trkpt lat="59.3266127978" lon="34.6993874606"><ele>165.023</ele><time>2026-08-17T03:10:43.479Z</time><hdop>3.187</hdop><vdop>3.625</vdop><extensions><gom:speed>0.205</gom:speed></extensions></trkpt>
   <trkpt lat="59.3266148933" lon="34.699377989"><ele>164.638</ele><time>2026-08-17T03:10:44.066Z</time><hdop>3.0</hdop><vdop>3.625</vdop><extensions><gom:speed>0.22</gom:speed></extensions></trkpt>
   <trkpt lat="59.3266153962" lon="34.6993776538"><ele>164.379</ele><time>2026-08-17T03:10:44.652Z</time><hdop>3.0</hdop><vdop>3.625</vdop><extensions><gom:speed>0.144</gom:speed></extensions></trkpt>
   <trkpt lat="59.3266172821" lon="34.6993670926"><ele>164.227</ele><time>2026-08-17T03:10:45.652Z</time><hdop>3.0</hdop><vdop>3.625</vdop><extensions><gom:speed>0.071</gom:speed></extensions></trkpt>
   <trkpt lat="59.3266202996" lon="34.6993533462"><ele>164.137</ele><time>2026-08-17T03:10:46.645Z</time><hdop>3.0</hdop><vdop>3.375</vdop><extensions><gom:speed>0.114</gom:speed></extensions></trkpt>
   <trkpt lat="59.3266207606" lon="34.6993480656"><ele>164.083</ele><time>2026-08-17T03:10:47.646Z</time><hdop>3.0</hdop><vdop>3.062</vdop><extensions><gom:speed>0.076</gom:speed></extensions></trkpt>
   <trkpt lat="59.326622898" lon="34.6993413601"><ele>164.052</ele><time>2026-08-17T03:10:48.646Z</time><hdop>3.0</hdop><vdop>2.75</vdop><extensions><gom:speed>0.096</gom:speed></extensions></trkpt>
   <trkpt lat="59.3266236943" lon="34.6993326429"><ele>164.22</ele><time>2026-08-17T03:10:49.646Z</time><hdop>3.0</hdop><vdop>2.687</vdop><extensions><gom:speed>0.124</gom:speed></extensions></trkpt>
   <trkpt lat="59.3266235686" lon="34.6993322239"><ele>164.32</ele><time>2026-08-17T03:10:50.258Z</time><hdop>3.0</hdop><vdop>2.687</vdop><extensions><gom:speed>0.092</gom:speed></extensions></trkpt>
   <trkpt lat="59.3266250773" lon="34.6993240934"><ele>164.41</ele><time>2026-08-17T03:10:51.652Z</time><hdop>3.0</hdop><vdop>2.687</vdop><extensions><gom:speed>0.044</gom:speed></extensions></trkpt>
   <trkpt lat="59.3266255802" lon="34.6993144542"><ele>164.464</ele><time>2026-08-17T03:10:52.652Z</time><hdop>3.0</hdop><vdop>2.75</vdop><extensions><gom:speed>0.041</gom:speed></extensions></trkpt>
   <trkpt lat="59.3266275919" lon="34.6993049827"><ele>164.495</ele><time>2026-08-17T03:10:53.652Z</time><hdop>3.0</hdop><vdop>2.812</vdop><extensions><gom:speed>0.042</gom:speed></extensions></trkpt>
   <trkpt lat="59.3266279691" lon="34.6992975228"><ele>164.512</ele><time>2026-08-17T03:10:54.652Z</time><hdop>3.0</hdop><vdop>2.875</vdop><extensions><gom:speed>0.03</gom:speed></extensions></trkpt>
   <trkpt lat="59.3266281786" lon="34.6992924936"><ele>164.52</ele><time>2026-08-17T03:10:55.650Z</time><hdop>3.0</hdop><vdop>2.812</vdop><extensions><gom:speed>0.118</gom:speed></extensions></trkpt>
   <trkpt lat="59.3266289749" lon="34.6992824353"><ele>164.524</ele><time>2026-08-17T03:10:56.646Z</time><hdop>3.0</hdop><vdop>2.812</vdop><extensions><gom:speed>0.066</gom:speed></extensions></trkpt>
   <trkpt lat="59.3266295616" lon="34.6992819324"><ele>164.475</ele><time>2026-08-17T03:10:57.652Z</time><hdop>3.0</hdop><vdop>2.875</vdop><extensions><gom:speed>0.036</gom:speed></extensions></trkpt>
   <trkpt lat="59.3266294778" lon="34.6992775738"><ele>164.447</ele><time>2026-08-17T03:10:58.652Z</time><hdop>3.0</hdop><vdop>2.75</vdop><extensions><gom:speed>0.039</gom:speed></extensions></trkpt>
   <trkpt lat="59.3266287654" lon="34.6992729638"><ele>164.428</ele><time>2026-08-17T03:10:59.657Z</time><hdop>3.0</hdop><vdop>2.625</vdop><extensions><gom:speed>0.025</gom:speed></extensions></trkpt>
   <trkpt lat="59.3266269632" lon="34.699267767"><ele>164.414</ele><time>2026-08-17T03:11:00.645Z</time><hdop>3.0</hdop><vdop>2.5</vdop><extensions><gom:speed>0.073</gom:speed></extensions></trkpt>
   <trkpt lat="59.326626167" lon="34.6992649172"><ele>164.581</ele><time>2026-08-17T03:11:01.647Z</time><hdop>3.0</hdop><vdop>2.5</vdop><extensions><gom:speed>0.085</gom:speed></extensions></trkpt>
   <trkpt lat="59.3266266699" lon="34.6992627379"><ele>165.071</ele><time>2026-08-17T03:11:02.646Z</time><hdop>3.0</hdop><vdop>2.75</vdop><extensions><gom:speed>0.1</gom:speed></extensions></trkpt>
   <trkpt lat="59.3266267956" lon="34.6992627379"><ele>165.38</ele><time>2026-08-17T03:11:03.645Z</time><hdop>3.0</hdop><vdop>2.875</vdop><extensions><gom:speed>0.017</gom:speed></extensions></trkpt>
   <trkpt lat="59.3266268794" lon="34.6992629893"><ele>165.562</ele><time>2026-08-17T03:11:04.655Z</time><hdop>3.0</hdop><vdop>3.0</vdop><extensions><gom:speed>0.019</gom:speed></extensions></trkpt>
   <trkpt lat="59.3266272985" lon="34.6992623188"><ele>165.669</ele><time>2026-08-17T03:11:05.653Z</time><hdop>3.0</hdop><vdop>3.125</vdop><extensions><gom:speed>0.029</gom:speed></extensions></trkpt>
   <trkpt lat="59.3266276757" lon="34.6992619835"><ele>165.704</ele><time>2026-08-17T03:11:06.652Z</time><hdop>3.0</hdop><vdop>3.062</vdop><extensions><gom:speed>0.035</gom:speed></extensions></trkpt>
   <trkpt lat="59.326629394" lon="34.6992635761"><ele>165.731</ele><time>2026-08-17T03:11:07.652Z</time><hdop>3.0</hdop><vdop>3.562</vdop><extensions><gom:speed>0.218</gom:speed></extensions></trkpt>
   <trkpt lat="59.3266296874" lon="34.6992625702"><ele>165.747</ele><time>2026-08-17T03:11:08.645Z</time><hdop>3.0</hdop><vdop>3.75</vdop><extensions><gom:speed>0.079</gom:speed></extensions></trkpt>
   <trkpt lat="59.3266302741" lon="34.6992632408"><ele>165.754</ele><time>2026-08-17T03:11:09.652Z</time><hdop>3.0</hdop><vdop>3.75</vdop><extensions><gom:speed>0.08</gom:speed></extensions></trkpt>
   <trkpt lat="59.3266302741" lon="34.6992618997"><ele>165.759</ele><time>2026-08-17T03:11:10.646Z</time><hdop>3.0</hdop><vdop>3.687</vdop><extensions><gom:speed>0.07</gom:speed></extensions></trkpt>
   <trkpt lat="59.3266306932" lon="34.6992625702"><ele>165.762</ele><time>2026-08-17T03:11:11.656Z</time><hdop>3.0</hdop><vdop>3.687</vdop><extensions><gom:speed>0.07</gom:speed></extensions></trkpt>
   <trkpt lat="59.326630777" lon="34.6992611453"><ele>165.764</ele><time>2026-08-17T03:11:12.646Z</time><hdop>3.0</hdop><vdop>3.687</vdop><extensions><gom:speed>0.067</gom:speed></extensions></trkpt>
   <trkpt lat="59.3266312799" lon="34.699261732"><ele>165.767</ele><time>2026-08-17T03:11:13.659Z</time><hdop>3.0</hdop><vdop>3.687</vdop><extensions><gom:speed>0.068</gom:speed></extensions></trkpt>
   <trkpt lat="59.3266313637" lon="34.6992615644"><ele>165.769</ele><time>2026-08-17T03:11:14.652Z</time><hdop>3.0</hdop><vdop>3.625</vdop><extensions><gom:speed>0.067</gom:speed></extensions></trkpt>
   <trkpt lat="59.3266315733" lon="34.6992612291"><ele>165.771</ele><time>2026-08-17T03:11:15.652Z</time><hdop>3.0</hdop><vdop>3.5</vdop><extensions><gom:speed>0.066</gom:speed></extensions></trkpt>
   <trkpt lat="59.3266317828" lon="34.6992610615"><ele>165.775</ele><time>2026-08-17T03:11:16.652Z</time><hdop>3.0</hdop><vdop>3.562</vdop><extensions><gom:speed>0.067</gom:speed></extensions></trkpt>
   <trkpt lat="59.3266317828" lon="34.6992600557"><ele>165.778</ele><time>2026-08-17T03:11:17.646Z</time><hdop>3.0</hdop><vdop>3.312</vdop><extensions><gom:speed>0.068</gom:speed></extensions></trkpt>
   <trkpt lat="59.3266320762" lon="34.6992595528"><ele>165.781</ele><time>2026-08-17T03:11:18.647Z</time><hdop>3.0</hdop><vdop>3.25</vdop><extensions><gom:speed>0.068</gom:speed></extensions></trkpt>
   <trkpt lat="59.3266323696" lon="34.6992601395"><ele>165.783</ele><time>2026-08-17T03:11:19.652Z</time><hdop>3.0</hdop><vdop>3.187</vdop><extensions><gom:speed>0.068</gom:speed></extensions></trkpt>
   <trkpt lat="59.3266325791" lon="34.699259888"><ele>165.783</ele><time>2026-08-17T03:11:20.652Z</time><hdop>3.0</hdop><vdop>3.25</vdop><extensions><gom:speed>0.069</gom:speed></extensions></trkpt>
   <trkpt lat="59.3266327887" lon="34.6992596366"><ele>165.785</ele><time>2026-08-17T03:11:21.652Z</time><hdop>3.0</hdop><vdop>3.25</vdop><extensions><gom:speed>0.069</gom:speed></extensions></trkpt>
   <trkpt lat="59.3266329982" lon="34.6992593851"><ele>165.786</ele><time>2026-08-17T03:11:22.652Z</time><hdop>3.0</hdop><vdop>3.187</vdop><extensions><gom:speed>0.071</gom:speed></extensions></trkpt>
   <trkpt lat="59.326633082" lon="34.6992590498"><ele>165.786</ele><time>2026-08-17T03:11:23.655Z</time><hdop>3.0</hdop><vdop>2.875</vdop><extensions><gom:speed>0.072</gom:speed></extensions></trkpt>
   <trkpt lat="59.3266331658" lon="34.699258044"><ele>165.786</ele><time>2026-08-17T03:11:24.646Z</time><hdop>3.0</hdop><vdop>2.687</vdop><extensions><gom:speed>0.071</gom:speed></extensions></trkpt>
   <trkpt lat="59.3266333754" lon="34.6992574573"><ele>165.785</ele><time>2026-08-17T03:11:25.646Z</time><hdop>3.0</hdop><vdop>2.562</vdop><extensions><gom:speed>0.075</gom:speed></extensions></trkpt>
   <trkpt lat="59.3266334592" lon="34.699257122"><ele>165.783</ele><time>2026-08-17T03:11:26.646Z</time><hdop>3.0</hdop><vdop>2.625</vdop><extensions><gom:speed>0.073</gom:speed></extensions></trkpt>
   <trkpt lat="59.3266337945" lon="34.6992574573"><ele>165.783</ele><time>2026-08-17T03:11:27.652Z</time><hdop>3.0</hdop><vdop>2.625</vdop><extensions><gom:speed>0.074</gom:speed></extensions></trkpt>
   <trkpt lat="59.3266338783" lon="34.6992572896"><ele>165.782</ele><time>2026-08-17T03:11:28.652Z</time><hdop>3.0</hdop><vdop>2.5</vdop><extensions><gom:speed>0.072</gom:speed></extensions></trkpt>
   <trkpt lat="59.3266336688" lon="34.6992566191"><ele>165.783</ele><time>2026-08-17T03:11:29.646Z</time><hdop>3.0</hdop><vdop>2.5</vdop><extensions><gom:speed>0.067</gom:speed></extensions></trkpt>
   <trkpt lat="59.3266339621" lon="34.6992567867"><ele>165.786</ele><time>2026-08-17T03:11:30.653Z</time><hdop>3.0</hdop><vdop>2.5</vdop><extensions><gom:speed>0.067</gom:speed></extensions></trkpt>
   <trkpt lat="59.3266339621" lon="34.6992564514"><ele>165.792</ele><time>2026-08-17T03:11:31.649Z</time><hdop>3.0</hdop><vdop>2.562</vdop><extensions><gom:speed>0.071</gom:speed></extensions></trkpt>
   <trkpt lat="59.3266334592" lon="34.6992557809"><ele>165.799</ele><time>2026-08-17T03:11:32.646Z</time><hdop>3.0</hdop><vdop>2.5</vdop><extensions><gom:speed>0.07</gom:speed></extensions></trkpt>
   <trkpt lat="59.3266335849" lon="34.6992553618"><ele>165.803</ele><time>2026-08-17T03:11:33.646Z</time><hdop>3.0</hdop><vdop>2.5</vdop><extensions><gom:speed>0.071</gom:speed></extensions></trkpt>
   <trkpt lat="59.3266336688" lon="34.6992549427"><ele>165.804</ele><time>2026-08-17T03:11:34.647Z</time><hdop>3.0</hdop><vdop>2.5</vdop><extensions><gom:speed>0.07</gom:speed></extensions></trkpt>
   <trkpt lat="59.3266338783" lon="34.6992547751"><ele>165.804</ele><time>2026-08-17T03:11:35.652Z</time><hdop>3.0</hdop><vdop>2.5</vdop><extensions><gom:speed>0.07</gom:speed></extensions></trkpt>
   <trkpt lat="59.3266337945" lon="34.6992537692"><ele>165.803</ele><time>2026-08-17T03:11:36.647Z</time><hdop>3.0</hdop><vdop>2.5</vdop><extensions><gom:speed>0.068</gom:speed></extensions></trkpt>
   <trkpt lat="59.3266337945" lon="34.6992532663"><ele>165.815</ele><time>2026-08-17T03:11:37.646Z</time><hdop>3.0</hdop><vdop>2.5</vdop><extensions><gom:speed>0.07</gom:speed></extensions></trkpt>
   <trkpt lat="59.3266338783" lon="34.6992532663"><ele>165.821</ele><time>2026-08-17T03:11:38.427Z</time><hdop>3.0</hdop><vdop>2.5</vdop><extensions><gom:speed>0.071</gom:speed></extensions></trkpt>
   <trkpt lat="59.3266337945" lon="34.6992523443"><ele>165.826</ele><time>2026-08-17T03:11:39.646Z</time><hdop>3.0</hdop><vdop>2.5</vdop><extensions><gom:speed>0.069</gom:speed></extensions></trkpt>
   <trkpt lat="59.3266338783" lon="34.6992523443"><ele>165.83</ele><time>2026-08-17T03:11:40.653Z</time><hdop>3.0</hdop><vdop>2.5</vdop><extensions><gom:speed>0.07</gom:speed></extensions></trkpt>
   <trkpt lat="59.3266337945" lon="34.6992516738"><ele>165.832</ele><time>2026-08-17T03:11:41.646Z</time><hdop>3.0</hdop><vdop>2.5</vdop><extensions><gom:speed>0.068</gom:speed></extensions></trkpt>
   <trkpt lat="59.3266339621" lon="34.6992516738"><ele>165.834</ele><time>2026-08-17T03:11:42.652Z</time><hdop>3.0</hdop><vdop>2.5</vdop><extensions><gom:speed>0.069</gom:speed></extensions></trkpt>
   <trkpt lat="59.3266337945" lon="34.6992511708"><ele>165.835</ele><time>2026-08-17T03:11:43.646Z</time><hdop>3.0</hdop><vdop>2.5</vdop><extensions><gom:speed>0.07</gom:speed></extensions></trkpt>
   <trkpt lat="59.3266337945" lon="34.6992508356"><ele>165.837</ele><time>2026-08-17T03:11:44.645Z</time><hdop>3.0</hdop><vdop>2.5</vdop><extensions><gom:speed>0.071</gom:speed></extensions></trkpt>
   <trkpt lat="59.3266337945" lon="34.6992505841"><ele>165.838</ele><time>2026-08-17T03:11:45.645Z</time><hdop>3.0</hdop><vdop>2.5</vdop><extensions><gom:speed>0.071</gom:speed></extensions></trkpt>
   <trkpt lat="59.3266339621" lon="34.699250165"><ele>165.838</ele><time>2026-08-17T03:11:46.646Z</time><hdop>3.0</hdop><vdop>2.5</vdop><extensions><gom:speed>0.071</gom:speed></extensions></trkpt>
   <trkpt lat="59.3266340879" lon="34.699250165"><ele>165.84</ele><time>2026-08-17T03:11:47.652Z</time><hdop>3.0</hdop><vdop>2.5</vdop><extensions><gom:speed>0.072</gom:speed></extensions></trkpt>
   <trkpt lat="59.3266338783" lon="34.6992495783"><ele>165.841</ele><time>2026-08-17T03:11:48.646Z</time><hdop>3.0</hdop><vdop>2.5</vdop><extensions><gom:speed>0.07</gom:speed></extensions></trkpt>
   <trkpt lat="59.3266339621" lon="34.6992494945"><ele>165.841</ele><time>2026-08-17T03:11:49.659Z</time><hdop>3.0</hdop><vdop>2.5</vdop><extensions><gom:speed>0.07</gom:speed></extensions></trkpt>
   <trkpt lat="59.3266338783" lon="34.6992489916"><ele>165.841</ele><time>2026-08-17T03:11:50.646Z</time><hdop>3.0</hdop><vdop>2.5</vdop><extensions><gom:speed>0.07</gom:speed></extensions></trkpt>
   <trkpt lat="59.3266337945" lon="34.6992484886"><ele>165.84</ele><time>2026-08-17T03:11:51.647Z</time><hdop>3.0</hdop><vdop>2.5</vdop><extensions><gom:speed>0.071</gom:speed></extensions></trkpt>
   <trkpt lat="59.3266338783" lon="34.6992482372"><ele>165.838</ele><time>2026-08-17T03:11:52.652Z</time><hdop>3.0</hdop><vdop>2.5</vdop><extensions><gom:speed>0.071</gom:speed></extensions></trkpt>
   <trkpt lat="59.3266336688" lon="34.6992474828"><ele>165.838</ele><time>2026-08-17T03:11:53.646Z</time><hdop>3.0</hdop><vdop>2.5</vdop><extensions><gom:speed>0.07</gom:speed></extensions></trkpt>
   <trkpt lat="59.3266337945" lon="34.6992471475"><ele>165.837</ele><time>2026-08-17T03:11:54.652Z</time><hdop>3.0</hdop><vdop>2.5</vdop><extensions><gom:speed>0.07</gom:speed></extensions></trkpt>
   <trkpt lat="59.3266337945" lon="34.6992467284"><ele>165.836</ele><time>2026-08-17T03:11:55.646Z</time><hdop>3.0</hdop><vdop>2.5</vdop><extensions><gom:speed>0.069</gom:speed></extensions></trkpt>
   <trkpt lat="59.3266337945" lon="34.6992465608"><ele>165.832</ele><time>2026-08-17T03:11:56.652Z</time><hdop>3.0</hdop><vdop>2.5</vdop><extensions><gom:speed>0.069</gom:speed></extensions></trkpt>
   <trkpt lat="59.3266337945" lon="34.6992462255"><ele>165.829</ele><time>2026-08-17T03:11:57.650Z</time><hdop>3.0</hdop><vdop>2.5</vdop><extensions><gom:speed>0.069</gom:speed></extensions></trkpt>
   <trkpt lat="59.3266337945" lon="34.6992459741"><ele>165.824</ele><time>2026-08-17T03:11:58.663Z</time><hdop>3.0</hdop><vdop>2.5</vdop><extensions><gom:speed>0.068</gom:speed></extensions></trkpt>
   <trkpt lat="59.3266335849" lon="34.6992458902"><ele>165.819</ele><time>2026-08-17T03:11:59.646Z</time><hdop>3.0</hdop><vdop>2.5</vdop><extensions><gom:speed>0.066</gom:speed></extensions></trkpt>
   <trkpt lat="59.3266335849" lon="34.699245555"><ele>165.814</ele><time>2026-08-17T03:12:00.645Z</time><hdop>3.0</hdop><vdop>2.5</vdop><extensions><gom:speed>0.069</gom:speed></extensions></trkpt>
   <trkpt lat="59.3266335849" lon="34.6992452197"><ele>165.808</ele><time>2026-08-17T03:12:01.646Z</time><hdop>3.0</hdop><vdop>2.5</vdop><extensions><gom:speed>0.07</gom:speed></extensions></trkpt>
   <trkpt lat="59.3266335849" lon="34.6992449682"><ele>165.802</ele><time>2026-08-17T03:12:02.653Z</time><hdop>3.0</hdop><vdop>2.5</vdop><extensions><gom:speed>0.07</gom:speed></extensions></trkpt>
   <trkpt lat="59.3266334592" lon="34.6992449682"><ele>165.795</ele><time>2026-08-17T03:12:03.646Z</time><hdop>3.0</hdop><vdop>2.5</vdop><extensions><gom:speed>0.072</gom:speed></extensions></trkpt>
   <trkpt lat="59.3266334592" lon="34.6992448844"><ele>165.788</ele><time>2026-08-17T03:12:04.645Z</time><hdop>3.0</hdop><vdop>2.5</vdop><extensions><gom:speed>0.072</gom:speed></extensions></trkpt>
   <trkpt lat="59.3266334592" lon="34.6992445491"><ele>165.782</ele><time>2026-08-17T03:12:05.663Z</time><hdop>3.0</hdop><vdop>2.5</vdop><extensions><gom:speed>0.071</gom:speed></extensions></trkpt>
   <trkpt lat="59.3266334592" lon="34.6992443815"><ele>165.776</ele><time>2026-08-17T03:12:06.652Z</time><hdop>3.0</hdop><vdop>2.5</vdop><extensions><gom:speed>0.07</gom:speed></extensions></trkpt>
   <trkpt lat="59.3266333754" lon="34.6992443815"><ele>165.771</ele><time>2026-08-17T03:12:07.646Z</time><hdop>3.0</hdop><vdop>2.5</vdop><extensions><gom:speed>0.067</gom:speed></extensions></trkpt>
   <trkpt lat="59.3266333754" lon="34.6992443815"><ele>165.769</ele><time>2026-08-17T03:12:08.646Z</time><hdop>3.0</hdop><vdop>2.5</vdop><extensions><gom:speed>0.067</gom:speed></extensions></trkpt>
   <trkpt lat="59.3266333754" lon="34.6992439624"><ele>165.766</ele><time>2026-08-17T03:12:09.652Z</time><hdop>3.0</hdop><vdop>2.5</vdop><extensions><gom:speed>0.068</gom:speed></extensions></trkpt>
   <trkpt lat="59.3266333754" lon="34.6992438786"><ele>165.765</ele><time>2026-08-17T03:12:10.652Z</time><hdop>3.0</hdop><vdop>2.5</vdop><extensions><gom:speed>0.068</gom:speed></extensions></trkpt>
   <trkpt lat="59.3266333754" lon="34.6992438786"><ele>165.762</ele><time>2026-08-17T03:12:11.653Z</time><hdop>3.0</hdop><vdop>2.562</vdop><extensions><gom:speed>0.067</gom:speed></extensions></trkpt>
   <trkpt lat="59.3266332916" lon="34.6992437948"><ele>165.761</ele><time>2026-08-17T03:12:12.666Z</time><hdop>3.0</hdop><vdop>2.562</vdop><extensions><gom:speed>0.068</gom:speed></extensions></trkpt>
   <trkpt lat="59.3266332916" lon="34.6992436271"><ele>165.76</ele><time>2026-08-17T03:12:13.652Z</time><hdop>3.0</hdop><vdop>2.562</vdop><extensions><gom:speed>0.069</gom:speed></extensions></trkpt>
   <trkpt lat="59.3266331658" lon="34.6992440462"><ele>165.577</ele><time>2026-08-17T03:12:14.646Z</time><hdop>3.0</hdop><vdop>2.75</vdop><extensions><gom:speed>0.13</gom:speed></extensions></trkpt>
   <trkpt lat="59.3266331658" lon="34.6992436271"><ele>165.464</ele><time>2026-08-17T03:12:15.646Z</time><hdop>3.0</hdop><vdop>2.937</vdop><extensions><gom:speed>0.102</gom:speed></extensions></trkpt>
   <trkpt lat="59.326633082" lon="34.6992424537"><ele>165.77</ele><time>2026-08-17T03:12:16.646Z</time><hdop>3.0</hdop><vdop>2.625</vdop><extensions><gom:speed>0.263</gom:speed></extensions></trkpt>
   <trkpt lat="59.3266332916" lon="34.6992416993"><ele>165.952</ele><time>2026-08-17T03:12:17.543Z</time><hdop>3.0</hdop><vdop>2.625</vdop><extensions><gom:speed>0.264</gom:speed></extensions></trkpt>
   <trkpt lat="59.326633082" lon="34.6992388495"><ele>166.085</ele><time>2026-08-17T03:12:18.037Z</time><hdop>3.0</hdop><vdop>2.562</vdop><extensions><gom:speed>0.322</gom:speed></extensions></trkpt>
   <trkpt lat="59.3266331658" lon="34.6992379274"><ele>166.116</ele><time>2026-08-17T03:12:18.652Z</time><hdop>3.0</hdop><vdop>2.75</vdop><extensions><gom:speed>0.322</gom:speed></extensions></trkpt>
   <trkpt lat="59.3266326629" lon="34.6992343232"><ele>166.126</ele><time>2026-08-17T03:12:19.652Z</time><hdop>3.0</hdop><vdop>2.875</vdop><extensions><gom:speed>0.085</gom:speed></extensions></trkpt>
   <trkpt lat="59.326631699" lon="34.6992315572"><ele>166.132</ele><time>2026-08-17T03:12:20.202Z</time><hdop>3.0</hdop><vdop>2.875</vdop><extensions><gom:speed>0.062</gom:speed></extensions></trkpt>
   <trkpt lat="59.326631699" lon="34.6992312219"><ele>166.134</ele><time>2026-08-17T03:12:20.658Z</time><hdop>3.0</hdop><vdop>2.937</vdop><extensions><gom:speed>0.062</gom:speed></extensions></trkpt>
   <trkpt lat="59.3266300645" lon="34.6992269471"><ele>166.135</ele><time>2026-08-17T03:12:21.645Z</time><hdop>3.0</hdop><vdop>2.875</vdop><extensions><gom:speed>0.05</gom:speed></extensions></trkpt>
   <trkpt lat="59.3266297712" lon="34.6992256899"><ele>166.023</ele><time>2026-08-17T03:12:22.646Z</time><hdop>3.0</hdop><vdop>2.625</vdop><extensions><gom:speed>0.285</gom:speed></extensions></trkpt>
   <trkpt lat="59.3266310704" lon="34.6992249355"><ele>165.786</ele><time>2026-08-17T03:12:23.652Z</time><hdop>3.0</hdop><vdop>2.687</vdop><extensions><gom:speed>0.244</gom:speed></extensions></trkpt>
   <trkpt lat="59.3266329982" lon="34.699224684"><ele>165.34</ele><time>2026-08-17T03:12:24.646Z</time><hdop>3.0</hdop><vdop>2.812</vdop><extensions><gom:speed>0.226</gom:speed></extensions></trkpt>
   <trkpt lat="59.3266332916" lon="34.6992241811"><ele>164.828</ele><time>2026-08-17T03:12:25.652Z</time><hdop>3.0</hdop><vdop>2.937</vdop><extensions><gom:speed>0.172</gom:speed></extensions></trkpt>
   <trkpt lat="59.3266347584" lon="34.6992258575"><ele>164.581</ele><time>2026-08-17T03:12:26.652Z</time><hdop>3.0</hdop><vdop>3.062</vdop><extensions><gom:speed>0.166</gom:speed></extensions></trkpt>
   <trkpt lat="59.3266391589" lon="34.6992314734"><ele>164.439</ele><time>2026-08-17T03:12:27.647Z</time><hdop>3.0</hdop><vdop>3.125</vdop><extensions><gom:speed>0.154</gom:speed></extensions></trkpt>
   <trkpt lat="59.3266391589" lon="34.6992317248"><ele>164.359</ele><time>2026-08-17T03:12:28.651Z</time><hdop>3.0</hdop><vdop>3.0</vdop><extensions><gom:speed>0.142</gom:speed></extensions></trkpt>
   <trkpt lat="59.3266431822" lon="34.69923952"><ele>164.325</ele><time>2026-08-17T03:12:29.647Z</time><hdop>3.0</hdop><vdop>3.0</vdop><extensions><gom:speed>0.081</gom:speed></extensions></trkpt>
   <trkpt lat="59.3266427631" lon="34.6992372569"><ele>164.305</ele><time>2026-08-17T03:12:30.654Z</time><hdop>3.0</hdop><vdop>3.062</vdop><extensions><gom:speed>0.019</gom:speed></extensions></trkpt>
   <trkpt lat="59.3266449843" lon="34.6992409449"><ele>164.294</ele><time>2026-08-17T03:12:31.652Z</time><hdop>3.0</hdop><vdop>3.062</vdop><extensions><gom:speed>0.008</gom:speed></extensions></trkpt>
   <trkpt lat="59.3266468703" lon="34.6992437948"><ele>164.304</ele><time>2026-08-17T03:12:32.652Z</time><hdop>3.0</hdop><vdop>3.187</vdop><extensions><gom:speed>0.006</gom:speed></extensions></trkpt>
   <trkpt lat="59.3266476665" lon="34.6992468961"><ele>164.316</ele><time>2026-08-17T03:12:33.652Z</time><hdop>3.0</hdop><vdop>3.312</vdop><extensions><gom:speed>0.01</gom:speed></extensions></trkpt>
   <trkpt lat="59.326648379" lon="34.6992487401"><ele>164.324</ele><time>2026-08-17T03:12:34.645Z</time><hdop>3.0</hdop><vdop>3.187</vdop><extensions><gom:speed>0.058</gom:speed></extensions></trkpt>
   <trkpt lat="59.3266482952" lon="34.6992485725"><ele>164.567</ele><time>2026-08-17T03:12:35.646Z</time><hdop>3.0</hdop><vdop>2.937</vdop><extensions><gom:speed>0.085</gom:speed></extensions></trkpt>
   <trkpt lat="59.3266476665" lon="34.6992480695"><ele>164.762</ele><time>2026-08-17T03:12:36.646Z</time><hdop>3.0</hdop><vdop>3.0</vdop><extensions><gom:speed>0.09</gom:speed></extensions></trkpt>
   <trkpt lat="59.326648379" lon="34.6992486563"><ele>164.851</ele><time>2026-08-17T03:12:37.655Z</time><hdop>3.0</hdop><vdop>2.75</vdop><extensions><gom:speed>0.108</gom:speed></extensions></trkpt>
   <trkpt lat="59.3266475827" lon="34.6992480695"><ele>164.876</ele><time>2026-08-17T03:12:38.646Z</time><hdop>3.0</hdop><vdop>2.687</vdop><extensions><gom:speed>0.067</gom:speed></extensions></trkpt>
   <trkpt lat="59.3266471636" lon="34.6992474828"><ele>164.9</ele><time>2026-08-17T03:12:39.658Z</time><hdop>3.0</hdop><vdop>2.687</vdop><extensions><gom:speed>0.012</gom:speed></extensions></trkpt>
   <trkpt lat="59.3266463673" lon="34.6992475666"><ele>164.915</ele><time>2026-08-17T03:12:40.646Z</time><hdop>3.0</hdop><vdop>2.562</vdop><extensions><gom:speed>0.05</gom:speed></extensions></trkpt>
   <trkpt lat="59.3266459902" lon="34.6992479857"><ele>164.924</ele><time>2026-08-17T03:12:41.645Z</time><hdop>3.0</hdop><vdop>2.5</vdop><extensions><gom:speed>0.086</gom:speed></extensions></trkpt>
   <trkpt lat="59.3266458644" lon="34.6992459741"><ele>164.936</ele><time>2026-08-17T03:12:42.652Z</time><hdop>3.0</hdop><vdop>2.5</vdop><extensions><gom:speed>0.022</gom:speed></extensions></trkpt>
   <trkpt lat="59.3266457806" lon="34.6992476504"><ele>164.954</ele><time>2026-08-17T03:12:43.646Z</time><hdop>3.0</hdop><vdop>2.5</vdop><extensions><gom:speed>0.097</gom:speed></extensions></trkpt>
   <trkpt lat="59.3266457806" lon="34.6992478181"><ele>164.977</ele><time>2026-08-17T03:12:44.657Z</time><hdop>3.0</hdop><vdop>2.5</vdop><extensions><gom:speed>0.107</gom:speed></extensions></trkpt>
   <trkpt lat="59.3266458644" lon="34.6992482372"><ele>165.0</ele><time>2026-08-17T03:12:45.652Z</time><hdop>3.0</hdop><vdop>2.5</vdop><extensions><gom:speed>0.022</gom:speed></extensions></trkpt>
   <trkpt lat="59.3266458644" lon="34.699248321"><ele>165.02</ele><time>2026-08-17T03:12:46.652Z</time><hdop>3.0</hdop><vdop>2.5</vdop><extensions><gom:speed>0.001</gom:speed></extensions></trkpt>
   <trkpt lat="59.3266457806" lon="34.6992488239"><ele>165.039</ele><time>2026-08-17T03:12:47.646Z</time><hdop>3.0</hdop><vdop>2.5</vdop><extensions><gom:speed>0.259</gom:speed></extensions></trkpt>
   <trkpt lat="59.3266463673" lon="34.6992506679"><ele>165.207</ele><time>2026-08-17T03:12:48.646Z</time><hdop>3.0</hdop><vdop>2.5</vdop><extensions><gom:speed>0.201</gom:speed></extensions></trkpt>
   <trkpt lat="59.3266474989" lon="34.6992518414"><ele>165.304</ele><time>2026-08-17T03:12:49.655Z</time><hdop>3.0</hdop><vdop>2.5</vdop><extensions><gom:speed>0.202</gom:speed></extensions></trkpt>
   <trkpt lat="59.3266451939" lon="34.6992505841"><ele>165.001</ele><time>2026-08-17T03:12:50.646Z</time><hdop>3.0</hdop><vdop>2.5</vdop><extensions><gom:speed>0.108</gom:speed></extensions></trkpt>
   <trkpt lat="59.3266455711" lon="34.6992509194"><ele>164.819</ele><time>2026-08-17T03:12:51.182Z</time><hdop>3.0</hdop><vdop>2.5</vdop><extensions><gom:speed>0.109</gom:speed></extensions></trkpt>
   <trkpt lat="59.3266457806" lon="34.6992513385"><ele>164.559</ele><time>2026-08-17T03:12:51.658Z</time><hdop>3.0</hdop><vdop>2.5</vdop><extensions><gom:speed>0.109</gom:speed></extensions></trkpt>
   <trkpt lat="59.3266423859" lon="34.6992499974"><ele>164.335</ele><time>2026-08-17T03:12:52.646Z</time><hdop>3.0</hdop><vdop>2.875</vdop><extensions><gom:speed>0.186</gom:speed></extensions></trkpt>
   <trkpt lat="59.3266425955" lon="34.6992506679"><ele>164.202</ele><time>2026-08-17T03:12:53.206Z</time><hdop>3.0</hdop><vdop>2.875</vdop><extensions><gom:speed>0.187</gom:speed></extensions></trkpt>
   <trkpt lat="59.3266419668" lon="34.6992519252"><ele>164.084</ele><time>2026-08-17T03:12:54.652Z</time><hdop>3.0</hdop><vdop>2.75</vdop><extensions><gom:speed>0.355</gom:speed></extensions></trkpt>
   <trkpt lat="59.3266391589" lon="34.6992508356"><ele>164.014</ele><time>2026-08-17T03:12:55.604Z</time><hdop>3.0</hdop><vdop>2.75</vdop><extensions><gom:speed>0.122</gom:speed></extensions></trkpt>
   <trkpt lat="59.3266340879" lon="34.6992481534"><ele>163.976</ele><time>2026-08-17T03:12:56.656Z</time><hdop>3.0</hdop><vdop>2.75</vdop><extensions><gom:speed>0.116</gom:speed></extensions></trkpt>
   <trkpt lat="59.3266259993" lon="34.6992421184"><ele>163.955</ele><time>2026-08-17T03:12:57.647Z</time><hdop>3.0</hdop><vdop>2.812</vdop><extensions><gom:speed>0.132</gom:speed></extensions></trkpt>
   <trkpt lat="59.3266263765" lon="34.6992411964"><ele>163.942</ele><time>2026-08-17T03:12:58.700Z</time><hdop>3.0</hdop><vdop>2.812</vdop><extensions><gom:speed>0.108</gom:speed></extensions></trkpt>
   <trkpt lat="59.3266192938" lon="34.6992374245"><ele>163.8</ele><time>2026-08-17T03:12:59.646Z</time><hdop>3.0</hdop><vdop>3.0</vdop><extensions><gom:speed>0.152</gom:speed></extensions></trkpt>
   <trkpt lat="59.326616863" lon="34.6992340718"><ele>164.431</ele><time>2026-08-17T03:13:00.646Z</time><hdop>3.0</hdop><vdop>3.0</vdop><extensions><gom:speed>0.183</gom:speed></extensions></trkpt>
   <trkpt lat="59.3266171983" lon="34.6992335689"><ele>164.997</ele><time>2026-08-17T03:13:01.654Z</time><hdop>3.0</hdop><vdop>2.75</vdop><extensions><gom:speed>0.151</gom:speed></extensions></trkpt>
   <trkpt lat="59.3266132588" lon="34.6992186491"><ele>165.174</ele><time>2026-08-17T03:13:02.646Z</time><hdop>3.0</hdop><vdop>2.812</vdop><extensions><gom:speed>0.145</gom:speed></extensions></trkpt>
   <trkpt lat="59.326613175" lon="34.6992173918"><ele>165.127</ele><time>2026-08-17T03:13:03.652Z</time><hdop>3.0</hdop><vdop>2.937</vdop><extensions><gom:speed>0.173</gom:speed></extensions></trkpt>
   <trkpt lat="59.3266090679" lon="34.6992064953"><ele>165.099</ele><time>2026-08-17T03:13:04.497Z</time><hdop>3.0</hdop><vdop>2.937</vdop><extensions><gom:speed>0.264</gom:speed></extensions></trkpt>
   <trkpt lat="59.3266037873" lon="34.6991947606"><ele>165.142</ele><time>2026-08-17T03:13:05.246Z</time><hdop>3.0</hdop><vdop>3.187</vdop><extensions><gom:speed>0.349</gom:speed></extensions></trkpt>
   <trkpt lat="59.3266013984" lon="34.6991825231"><ele>165.121</ele><time>2026-08-17T03:13:06.147Z</time><hdop>3.062</hdop><vdop>2.812</vdop><extensions><gom:speed>0.34</gom:speed></extensions></trkpt>
   <trkpt lat="59.3266007698" lon="34.6991810981"><ele>164.86</ele><time>2026-08-17T03:13:06.652Z</time><hdop>3.125</hdop><vdop>2.812</vdop><extensions><gom:speed>0.347</gom:speed></extensions></trkpt>
   <trkpt lat="59.3265953635" lon="34.6991614845"><ele>164.823</ele><time>2026-08-17T03:13:07.652Z</time><hdop>3.25</hdop><vdop>2.75</vdop><extensions><gom:speed>0.481</gom:speed></extensions></trkpt>
   <trkpt lat="59.3265945672" lon="34.6991411165"><ele>165.053</ele><time>2026-08-17T03:13:08.652Z</time><hdop>3.437</hdop><vdop>2.812</vdop><extensions><gom:speed>0.485</gom:speed></extensions></trkpt>
   <trkpt lat="59.3265912982" lon="34.6991183177"><ele>165.191</ele><time>2026-08-17T03:13:09.505Z</time><hdop>3.625</hdop><vdop>2.812</vdop><extensions><gom:speed>0.576</gom:speed></extensions></trkpt>
   <trkpt lat="59.3265818686" lon="34.6990974467"><ele>164.978</ele><time>2026-08-17T03:13:10.557Z</time><hdop>3.75</hdop><vdop>2.937</vdop><extensions><gom:speed>0.527</gom:speed></extensions></trkpt>
   <trkpt lat="59.3265741992" lon="34.6990730554"><ele>164.812</ele><time>2026-08-17T03:13:11.438Z</time><hdop>3.812</hdop><vdop>3.062</vdop><extensions><gom:speed>0.501</gom:speed></extensions></trkpt>
   <trkpt lat="59.3265725647" lon="34.6990493346"><ele>164.599</ele><time>2026-08-17T03:13:12.439Z</time><hdop>3.75</hdop><vdop>3.125</vdop><extensions><gom:speed>0.492</gom:speed></extensions></trkpt>
   <trkpt lat="59.326571978" lon="34.699029721"><ele>164.466</ele><time>2026-08-17T03:13:13.380Z</time><hdop>3.562</hdop><vdop>3.062</vdop><extensions><gom:speed>0.485</gom:speed></extensions></trkpt>
   <trkpt lat="59.3265710979" lon="34.6990174834"><ele>164.198</ele><time>2026-08-17T03:13:14.652Z</time><hdop>3.25</hdop><vdop>3.062</vdop><extensions><gom:speed>0.302</gom:speed></extensions></trkpt>
   <trkpt lat="59.3265692957" lon="34.6989857998"><ele>163.933</ele><time>2026-08-17T03:13:15.646Z</time><hdop>3.0</hdop><vdop>3.0</vdop><extensions><gom:speed>0.339</gom:speed></extensions></trkpt>
   <trkpt lat="59.3265693796" lon="34.698984794"><ele>163.775</ele><time>2026-08-17T03:13:16.164Z</time><hdop>3.0</hdop><vdop>3.0</vdop><extensions><gom:speed>0.275</gom:speed></extensions></trkpt>
   <trkpt lat="59.3265682899" lon="34.6989695389"><ele>163.692</ele><time>2026-08-17T03:13:16.646Z</time><hdop>3.0</hdop><vdop>2.687</vdop><extensions><gom:speed>0.262</gom:speed></extensions></trkpt>
   <trkpt lat="59.3265682899" lon="34.6989682816"><ele>163.642</ele><time>2026-08-17T03:13:17.164Z</time><hdop>3.0</hdop><vdop>2.687</vdop><extensions><gom:speed>0.238</gom:speed></extensions></trkpt>
   <trkpt lat="59.3265672841" lon="34.698956966"><ele>163.61</ele><time>2026-08-17T03:13:17.646Z</time><hdop>3.0</hdop><vdop>2.687</vdop><extensions><gom:speed>0.224</gom:speed></extensions></trkpt>
   <trkpt lat="59.3265673679" lon="34.6989566308"><ele>163.591</ele><time>2026-08-17T03:13:18.125Z</time><hdop>3.0</hdop><vdop>2.687</vdop><extensions><gom:speed>0.161</gom:speed></extensions></trkpt>
   <trkpt lat="59.3265675775" lon="34.6989543677"><ele>163.579</ele><time>2026-08-17T03:13:18.651Z</time><hdop>3.0</hdop><vdop>2.687</vdop><extensions><gom:speed>0.211</gom:speed></extensions></trkpt>
   <trkpt lat="59.3265665716" lon="34.6989476621"><ele>163.572</ele><time>2026-08-17T03:13:19.360Z</time><hdop>3.0</hdop><vdop>2.687</vdop><extensions><gom:speed>0.168</gom:speed></extensions></trkpt>
   <trkpt lat="59.3265665716" lon="34.6989401184"><ele>163.626</ele><time>2026-08-17T03:13:20.321Z</time><hdop>3.0</hdop><vdop>2.562</vdop><extensions><gom:speed>0.186</gom:speed></extensions></trkpt>
   <trkpt lat="59.3265673679" lon="34.6989336644"><ele>163.651</ele><time>2026-08-17T03:13:21.282Z</time><hdop>3.0</hdop><vdop>2.5</vdop><extensions><gom:speed>0.197</gom:speed></extensions></trkpt>
   <trkpt lat="59.3265689605" lon="34.6989274617"><ele>163.63</ele><time>2026-08-17T03:13:22.652Z</time><hdop>3.0</hdop><vdop>2.812</vdop><extensions><gom:speed>0.169</gom:speed></extensions></trkpt>
   <trkpt lat="59.3265752888" lon="34.6989190798"><ele>163.099</ele><time>2026-08-17T03:13:23.646Z</time><hdop>3.0</hdop><vdop>2.562</vdop><extensions><gom:speed>0.229</gom:speed></extensions></trkpt>
   <trkpt lat="59.3265754984" lon="34.6989163976"><ele>162.782</ele><time>2026-08-17T03:13:24.621Z</time><hdop>3.0</hdop><vdop>2.562</vdop><extensions><gom:speed>0.2</gom:speed></extensions></trkpt>
   <trkpt lat="59.3265776777" lon="34.6989031542"><ele>162.692</ele><time>2026-08-17T03:13:25.643Z</time><hdop>3.0</hdop><vdop>2.5</vdop><extensions><gom:speed>0.324</gom:speed></extensions></trkpt>
   <trkpt lat="59.3265798989" lon="34.6988910843"><ele>163.166</ele><time>2026-08-17T03:13:26.652Z</time><hdop>3.0</hdop><vdop>2.5</vdop><extensions><gom:speed>0.362</gom:speed></extensions></trkpt>
   <trkpt lat="59.3265928908" lon="34.6988658548"><ele>163.555</ele><time>2026-08-17T03:13:27.646Z</time><hdop>3.0</hdop><vdop>2.5</vdop><extensions><gom:speed>0.565</gom:speed></extensions></trkpt>
   <trkpt lat="59.3265930584" lon="34.6988633402"><ele>163.949</ele><time>2026-08-17T03:13:28.652Z</time><hdop>3.0</hdop><vdop>2.562</vdop><extensions><gom:speed>0.342</gom:speed></extensions></trkpt>
   <trkpt lat="59.3266004764" lon="34.6988562994"><ele>164.377</ele><time>2026-08-17T03:13:29.652Z</time><hdop>3.0</hdop><vdop>2.625</vdop><extensions><gom:speed>0.309</gom:speed></extensions></trkpt>
   <trkpt lat="59.326608565" lon="34.6988440618"><ele>164.633</ele><time>2026-08-17T03:13:30.580Z</time><hdop>3.0</hdop><vdop>2.625</vdop><extensions><gom:speed>0.394</gom:speed></extensions></trkpt>
   <trkpt lat="59.326617366" lon="34.6988261245"><ele>165.155</ele><time>2026-08-17T03:13:31.646Z</time><hdop>3.0</hdop><vdop>3.0</vdop><extensions><gom:speed>0.49</gom:speed></extensions></trkpt>
   <trkpt lat="59.3266180784" lon="34.6988250349"><ele>165.564</ele><time>2026-08-17T03:13:32.652Z</time><hdop>3.0</hdop><vdop>3.312</vdop><extensions><gom:speed>0.285</gom:speed></extensions></trkpt>
   <trkpt lat="59.3266220598" lon="34.6988144737"><ele>165.809</ele><time>2026-08-17T03:13:33.652Z</time><hdop>3.0</hdop><vdop>3.312</vdop><extensions><gom:speed>0.274</gom:speed></extensions></trkpt>
   <trkpt lat="59.3266232752" lon="34.6988023199"><ele>165.956</ele><time>2026-08-17T03:13:34.607Z</time><hdop>3.0</hdop><vdop>3.312</vdop><extensions><gom:speed>0.333</gom:speed></extensions></trkpt>
   <trkpt lat="59.3266204673" lon="34.6987966202"><ele>166.044</ele><time>2026-08-17T03:13:35.645Z</time><hdop>3.0</hdop><vdop>3.187</vdop><extensions><gom:speed>0.286</gom:speed></extensions></trkpt>
   <trkpt lat="59.3266211797" lon="34.6987951953"><ele>166.448</ele><time>2026-08-17T03:13:36.652Z</time><hdop>3.0</hdop><vdop>3.0</vdop><extensions><gom:speed>0.178</gom:speed></extensions></trkpt>
   <trkpt lat="59.3266187909" lon="34.698795782"><ele>166.689</ele><time>2026-08-17T03:13:37.126Z</time><hdop>3.0</hdop><vdop>3.0</vdop><extensions><gom:speed>0.191</gom:speed></extensions></trkpt>
   <trkpt lat="59.3266190843" lon="34.698795782"><ele>167.182</ele><time>2026-08-17T03:13:37.652Z</time><hdop>3.0</hdop><vdop>2.875</vdop><extensions><gom:speed>0.165</gom:speed></extensions></trkpt>
   <trkpt lat="59.3266163601" lon="34.698798129"><ele>167.477</ele><time>2026-08-17T03:13:38.138Z</time><hdop>3.0</hdop><vdop>2.875</vdop><extensions><gom:speed>0.18</gom:speed></extensions></trkpt>
   <trkpt lat="59.326613175" lon="34.6988021523"><ele>167.655</ele><time>2026-08-17T03:13:38.646Z</time><hdop>3.0</hdop><vdop>2.875</vdop><extensions><gom:speed>0.15</gom:speed></extensions></trkpt>
   <trkpt lat="59.3266137617" lon="34.6988013979"><ele>167.761</ele><time>2026-08-17T03:13:39.240Z</time><hdop>3.0</hdop><vdop>2.875</vdop><extensions><gom:speed>0.147</gom:speed></extensions></trkpt>
   <trkpt lat="59.3266121692" lon="34.6988034934"><ele>167.908</ele><time>2026-08-17T03:13:40.080Z</time><hdop>3.0</hdop><vdop>2.625</vdop><extensions><gom:speed>0.138</gom:speed></extensions></trkpt>
   <trkpt lat="59.3266104928" lon="34.698805086"><ele>167.908</ele><time>2026-08-17T03:13:40.646Z</time><hdop>3.0</hdop><vdop>2.75</vdop><extensions><gom:speed>0.127</gom:speed></extensions></trkpt>
   <trkpt lat="59.3266124625" lon="34.6988034934"><ele>167.782</ele><time>2026-08-17T03:13:41.652Z</time><hdop>3.0</hdop><vdop>2.875</vdop><extensions><gom:speed>0.22</gom:speed></extensions></trkpt>
   <trkpt lat="59.3266087745" lon="34.698795363"><ele>168.209</ele><time>2026-08-17T03:13:42.645Z</time><hdop>3.0</hdop><vdop>2.687</vdop><extensions><gom:speed>0.335</gom:speed></extensions></trkpt>
   <trkpt lat="59.3266083973" lon="34.6987866458"><ele>168.647</ele><time>2026-08-17T03:13:43.646Z</time><hdop>3.0</hdop><vdop>2.562</vdop><extensions><gom:speed>0.392</gom:speed></extensions></trkpt>
   <trkpt lat="59.3266114986" lon="34.6987825386"><ele>168.91</ele><time>2026-08-17T03:13:44.652Z</time><hdop>3.0</hdop><vdop>2.5</vdop><extensions><gom:speed>0.42</gom:speed></extensions></trkpt>
   <trkpt lat="59.3266112891" lon="34.6987749949"><ele>169.07</ele><time>2026-08-17T03:13:45.652Z</time><hdop>3.0</hdop><vdop>2.5</vdop><extensions><gom:speed>0.359</gom:speed></extensions></trkpt>
   <trkpt lat="59.3266089841" lon="34.6987685409"><ele>168.935</ele><time>2026-08-17T03:13:46.652Z</time><hdop>3.0</hdop><vdop>2.5</vdop><extensions><gom:speed>0.255</gom:speed></extensions></trkpt>
   <trkpt lat="59.3266065952" lon="34.6987630926"><ele>168.854</ele><time>2026-08-17T03:13:47.183Z</time><hdop>3.0</hdop><vdop>2.5</vdop><extensions><gom:speed>0.257</gom:speed></extensions></trkpt>
   <trkpt lat="59.3266068886" lon="34.6987626735"><ele>168.615</ele><time>2026-08-17T03:13:47.652Z</time><hdop>3.0</hdop><vdop>2.5</vdop><extensions><gom:speed>0.187</gom:speed></extensions></trkpt>
   <trkpt lat="59.3266049607" lon="34.6987564709"><ele>168.471</ele><time>2026-08-17T03:13:48.619Z</time><hdop>3.0</hdop><vdop>2.5</vdop><extensions><gom:speed>0.217</gom:speed></extensions></trkpt>
   <trkpt lat="59.3266025719" lon="34.6987555489"><ele>168.2</ele><time>2026-08-17T03:13:49.358Z</time><hdop>3.0</hdop><vdop>2.75</vdop><extensions><gom:speed>0.172</gom:speed></extensions></trkpt>
   <trkpt lat="59.3266002669" lon="34.6987552975"><ele>167.976</ele><time>2026-08-17T03:13:50.481Z</time><hdop>3.0</hdop><vdop>3.0</vdop><extensions><gom:speed>0.143</gom:speed></extensions></trkpt>
   <trkpt lat="59.326597878" lon="34.6987544593"><ele>167.84</ele><time>2026-08-17T03:13:51.048Z</time><hdop>3.0</hdop><vdop>2.625</vdop><extensions><gom:speed>0.093</gom:speed></extensions></trkpt>
   <trkpt lat="59.3265979619" lon="34.6987540402"><ele>167.67</ele><time>2026-08-17T03:13:51.655Z</time><hdop>3.0</hdop><vdop>2.625</vdop><extensions><gom:speed>0.064</gom:speed></extensions></trkpt>
   <trkpt lat="59.32659419" lon="34.6987495978"><ele>167.565</ele><time>2026-08-17T03:13:52.647Z</time><hdop>3.0</hdop><vdop>2.562</vdop><extensions><gom:speed>0.089</gom:speed></extensions></trkpt>
   <trkpt lat="59.32659419" lon="34.6987501845"><ele>166.9</ele><time>2026-08-17T03:13:53.652Z</time><hdop>3.0</hdop><vdop>2.5</vdop><extensions><gom:speed>0.065</gom:speed></extensions></trkpt>
   <trkpt lat="59.3265920945" lon="34.6987477537"><ele>166.502</ele><time>2026-08-17T03:13:54.144Z</time><hdop>3.0</hdop><vdop>2.5</vdop><extensions><gom:speed>0.098</gom:speed></extensions></trkpt>
   <trkpt lat="59.3265905858" lon="34.6987468317"><ele>166.254</ele><time>2026-08-17T03:13:54.646Z</time><hdop>3.0</hdop><vdop>2.5</vdop><extensions><gom:speed>0.113</gom:speed></extensions></trkpt>
   <trkpt lat="59.3265900829" lon="34.6987463288"><ele>166.107</ele><time>2026-08-17T03:13:55.226Z</time><hdop>3.0</hdop><vdop>2.5</vdop><extensions><gom:speed>0.089</gom:speed></extensions></trkpt>
   <trkpt lat="59.3265875683" lon="34.6987454906"><ele>166.093</ele><time>2026-08-17T03:13:56.258Z</time><hdop>3.0</hdop><vdop>2.5</vdop><extensions><gom:speed>0.089</gom:speed></extensions></trkpt>
   <trkpt lat="59.3265835869" lon="34.6987444848"><ele>165.639</ele><time>2026-08-17T03:13:57.652Z</time><hdop>3.0</hdop><vdop>2.625</vdop><extensions><gom:speed>0.048</gom:speed></extensions></trkpt>
   <trkpt lat="59.3265801922" lon="34.6987440657"><ele>165.368</ele><time>2026-08-17T03:13:58.383Z</time><hdop>3.0</hdop><vdop>2.625</vdop><extensions><gom:speed>0.097</gom:speed></extensions></trkpt>
   <trkpt lat="59.3265763785" lon="34.6987457421"><ele>165.13</ele><time>2026-08-17T03:13:59.698Z</time><hdop>3.0</hdop><vdop>2.937</vdop><extensions><gom:speed>0.041</gom:speed></extensions></trkpt>
   <trkpt lat="59.3265731933" lon="34.6987461612"><ele>164.476</ele><time>2026-08-17T03:14:00.518Z</time><hdop>3.0</hdop><vdop>2.875</vdop><extensions><gom:speed>0.1</gom:speed></extensions></trkpt>
   <trkpt lat="59.3265669907" lon="34.6987502683"><ele>164.506</ele><time>2026-08-17T03:14:01.646Z</time><hdop>3.0</hdop><vdop>2.937</vdop><extensions><gom:speed>0.089</gom:speed></extensions></trkpt>
   <trkpt lat="59.3265646857" lon="34.6987512741"><ele>164.295</ele><time>2026-08-17T03:14:02.652Z</time><hdop>3.0</hdop><vdop>3.062</vdop><extensions><gom:speed>0.072</gom:speed></extensions></trkpt>
   <trkpt lat="59.3265614587" lon="34.69875228"><ele>164.478</ele><time>2026-08-17T03:14:03.652Z</time><hdop>3.0</hdop><vdop>3.25</vdop><extensions><gom:speed>0.1</gom:speed></extensions></trkpt>
   <trkpt lat="59.3265574773" lon="34.698754124"><ele>164.872</ele><time>2026-08-17T03:14:04.652Z</time><hdop>3.0</hdop><vdop>3.562</vdop><extensions><gom:speed>0.062</gom:speed></extensions></trkpt>
   <trkpt lat="59.3265535797" lon="34.6987575606"><ele>164.953</ele><time>2026-08-17T03:14:05.653Z</time><hdop>3.0</hdop><vdop>4.0</vdop><extensions><gom:speed>0.053</gom:speed></extensions></trkpt>
   <trkpt lat="59.3265477962" lon="34.6987582311"><ele>164.957</ele><time>2026-08-17T03:14:06.646Z</time><hdop>3.0</hdop><vdop>4.312</vdop><extensions><gom:speed>0.123</gom:speed></extensions></trkpt>
   <trkpt lat="59.3265462874" lon="34.6987577282"><ele>164.959</ele><time>2026-08-17T03:14:07.205Z</time><hdop>3.0</hdop><vdop>4.312</vdop><extensions><gom:speed>0.1</gom:speed></extensions></trkpt>
   <trkpt lat="59.3265434795" lon="34.6987560518"><ele>164.673</ele><time>2026-08-17T03:14:08.065Z</time><hdop>3.0</hdop><vdop>4.5</vdop><extensions><gom:speed>0.094</gom:speed></extensions></trkpt>
   <trkpt lat="59.3265424737" lon="34.6987544593"><ele>164.261</ele><time>2026-08-17T03:14:08.652Z</time><hdop>3.0</hdop><vdop>4.687</vdop><extensions><gom:speed>0.121</gom:speed></extensions></trkpt>
   <trkpt lat="59.3265377798" lon="34.6987512741"><ele>163.981</ele><time>2026-08-17T03:14:09.646Z</time><hdop>3.0</hdop><vdop>4.75</vdop><extensions><gom:speed>0.161</gom:speed></extensions></trkpt>
   <trkpt lat="59.3265334631" lon="34.6987525314"><ele>164.321</ele><time>2026-08-17T03:14:10.645Z</time><hdop>3.0</hdop><vdop>4.25</vdop><extensions><gom:speed>0.141</gom:speed></extensions></trkpt>
   <trkpt lat="59.3265309904" lon="34.6987524476"><ele>164.316</ele><time>2026-08-17T03:14:11.652Z</time><hdop>3.0</hdop><vdop>4.062</vdop><extensions><gom:speed>0.128</gom:speed></extensions></trkpt>
   <trkpt lat="59.3265276796" lon="34.6987520285"><ele>164.314</ele><time>2026-08-17T03:14:12.618Z</time><hdop>3.0</hdop><vdop>4.062</vdop><extensions><gom:speed>0.144</gom:speed></extensions></trkpt>
   <trkpt lat="59.3265190881" lon="34.6987505198"><ele>164.202</ele><time>2026-08-17T03:14:13.387Z</time><hdop>3.0</hdop><vdop>4.312</vdop><extensions><gom:speed>0.29</gom:speed></extensions></trkpt>
   <trkpt lat="59.3265094909" lon="34.6987473346"><ele>164.21</ele><time>2026-08-17T03:14:14.147Z</time><hdop>3.0</hdop><vdop>4.687</vdop><extensions><gom:speed>0.48</gom:speed></extensions></trkpt>
   <trkpt lat="59.3265053837" lon="34.6987447363"><ele>164.078</ele><time>2026-08-17T03:14:14.652Z</time><hdop>3.0</hdop><vdop>4.875</vdop><extensions><gom:speed>0.41</gom:speed></extensions></trkpt>
   <trkpt lat="59.3264942777" lon="34.6987404615"><ele>164.337</ele><time>2026-08-17T03:14:15.653Z</time><hdop>3.0</hdop><vdop>5.187</vdop><extensions><gom:speed>0.453</gom:speed></extensions></trkpt>
   <trkpt lat="59.3264804895" lon="34.698733756"><ele>164.324</ele><time>2026-08-17T03:14:16.645Z</time><hdop>3.0</hdop><vdop>5.125</vdop><extensions><gom:speed>0.607</gom:speed></extensions></trkpt>
   <trkpt lat="59.3264754603" lon="34.6987284754"><ele>164.315</ele><time>2026-08-17T03:14:17.424Z</time><hdop>3.0</hdop><vdop>5.125</vdop><extensions><gom:speed>0.529</gom:speed></extensions></trkpt>
   <trkpt lat="59.3264725686" lon="34.6987251226"><ele>164.242</ele><time>2026-08-17T03:14:18.324Z</time><hdop>3.0</hdop><vdop>4.937</vdop><extensions><gom:speed>0.438</gom:speed></extensions></trkpt>
   <trkpt lat="59.3264617978" lon="34.6987120468"><ele>164.003</ele><time>2026-08-17T03:14:19.518Z</time><hdop>3.0</hdop><vdop>4.687</vdop><extensions><gom:speed>0.472</gom:speed></extensions></trkpt>
   <trkpt lat="59.3264557629" lon="34.6987042517"><ele>163.83</ele><time>2026-08-17T03:14:20.580Z</time><hdop>3.0</hdop><vdop>4.5</vdop><extensions><gom:speed>0.448</gom:speed></extensions></trkpt>
   <trkpt lat="59.3264502727" lon="34.698695283"><ele>163.79</ele><time>2026-08-17T03:14:21.602Z</time><hdop>3.0</hdop><vdop>4.375</vdop><extensions><gom:speed>0.402</gom:speed></extensions></trkpt>
   <trkpt lat="59.3264478839" lon="34.6986930199"><ele>163.774</ele><time>2026-08-17T03:14:22.652Z</time><hdop>3.0</hdop><vdop>4.437</vdop><extensions><gom:speed>0.125</gom:speed></extensions></trkpt>
   <trkpt lat="59.3264462913" lon="34.6986894995"><ele>163.761</ele><time>2026-08-17T03:14:23.646Z</time><hdop>3.0</hdop><vdop>4.312</vdop><extensions><gom:speed>0.174</gom:speed></extensions></trkpt>
   <trkpt lat="59.3264455789" lon="34.6986880746"><ele>163.754</ele><time>2026-08-17T03:14:24.558Z</time><hdop>3.0</hdop><vdop>4.312</vdop><extensions><gom:speed>0.138</gom:speed></extensions></trkpt>
   <trkpt lat="59.3264440701" lon="34.6986841351"><ele>163.616</ele><time>2026-08-17T03:14:25.652Z</time><hdop>3.0</hdop><vdop>3.5</vdop><extensions><gom:speed>0.019</gom:speed></extensions></trkpt>
   <trkpt lat="59.32644319" lon="34.6986826264"><ele>163.577</ele><time>2026-08-17T03:14:26.652Z</time><hdop>3.0</hdop><vdop>3.437</vdop><extensions><gom:speed>0.019</gom:speed></extensions></trkpt>
   <trkpt lat="59.3264421842" lon="34.6986796927"><ele>163.555</ele><time>2026-08-17T03:14:27.653Z</time><hdop>3.0</hdop><vdop>3.125</vdop><extensions><gom:speed>0.102</gom:speed></extensions></trkpt>
   <trkpt lat="59.3264414717" lon="34.6986760885"><ele>163.318</ele><time>2026-08-17T03:14:28.646Z</time><hdop>3.0</hdop><vdop>3.125</vdop><extensions><gom:speed>0.08</gom:speed></extensions></trkpt>
   <trkpt lat="59.3264412622" lon="34.6986753341"><ele>163.177</ele><time>2026-08-17T03:14:29.201Z</time><hdop>3.0</hdop><vdop>3.125</vdop><extensions><gom:speed>0.115</gom:speed></extensions></trkpt>
   <trkpt lat="59.3264398792" lon="34.698672149"><ele>163.026</ele><time>2026-08-17T03:14:30.020Z</time><hdop>3.0</hdop><vdop>3.187</vdop><extensions><gom:speed>0.139</gom:speed></extensions></trkpt>
   <trkpt lat="59.3264380771" lon="34.6986700535"><ele>163.061</ele><time>2026-08-17T03:14:30.646Z</time><hdop>3.0</hdop><vdop>3.625</vdop><extensions><gom:speed>0.201</gom:speed></extensions></trkpt>
   <trkpt lat="59.3264346824" lon="34.6986676227"><ele>163.081</ele><time>2026-08-17T03:14:31.578Z</time><hdop>3.0</hdop><vdop>3.625</vdop><extensions><gom:speed>0.258</gom:speed></extensions></trkpt>
   <trkpt lat="59.3264299885" lon="34.6986667846"><ele>163.098</ele><time>2026-08-17T03:14:32.307Z</time><hdop>3.0</hdop><vdop>3.75</vdop><extensions><gom:speed>0.384</gom:speed></extensions></trkpt>
   <trkpt lat="59.3264214809" lon="34.6986681257"><ele>163.075</ele><time>2026-08-17T03:14:32.883Z</time><hdop>3.0</hdop><vdop>3.687</vdop><extensions><gom:speed>0.578</gom:speed></extensions></trkpt>
   <trkpt lat="59.3264157812" lon="34.69866888"><ele>163.061</ele><time>2026-08-17T03:14:33.643Z</time><hdop>3.0</hdop><vdop>3.687</vdop><extensions><gom:speed>0.585</gom:speed></extensions></trkpt>
   <trkpt lat="59.3264097881" lon="34.6986724843"><ele>162.774</ele><time>2026-08-17T03:14:34.340Z</time><hdop>3.0</hdop><vdop>3.625</vdop><extensions><gom:speed>0.634</gom:speed></extensions></trkpt>
   <trkpt lat="59.3264017834" lon="34.6986778487"><ele>162.76</ele><time>2026-08-17T03:14:35.059Z</time><hdop>3.0</hdop><vdop>3.312</vdop><extensions><gom:speed>0.7</gom:speed></extensions></trkpt>
   <trkpt lat="59.3263951617" lon="34.6986830455"><ele>162.773</ele><time>2026-08-17T03:14:35.645Z</time><hdop>3.0</hdop><vdop>3.375</vdop><extensions><gom:speed>0.752</gom:speed></extensions></trkpt>
   <trkpt lat="59.3263876599" lon="34.6986842189"><ele>162.781</ele><time>2026-08-17T03:14:36.607Z</time><hdop>3.0</hdop><vdop>3.375</vdop><extensions><gom:speed>0.676</gom:speed></extensions></trkpt>
   <trkpt lat="59.3263810801" lon="34.6986854762"><ele>162.839</ele><time>2026-08-17T03:14:37.305Z</time><hdop>3.0</hdop><vdop>3.625</vdop><extensions><gom:speed>0.723</gom:speed></extensions></trkpt>
   <trkpt lat="59.3263760929" lon="34.6986823749"><ele>162.699</ele><time>2026-08-17T03:14:37.922Z</time><hdop>3.0</hdop><vdop>3.625</vdop><extensions><gom:speed>0.795</gom:speed></extensions></trkpt>
   <trkpt lat="59.326371399" lon="34.6986772619"><ele>162.617</ele><time>2026-08-17T03:14:38.652Z</time><hdop>3.0</hdop><vdop>3.562</vdop><extensions><gom:speed>0.654</gom:speed></extensions></trkpt>
   <trkpt lat="59.3263671662" lon="34.6986649405"><ele>162.569</ele><time>2026-08-17T03:14:39.622Z</time><hdop>3.0</hdop><vdop>3.562</vdop><extensions><gom:speed>0.732</gom:speed></extensions></trkpt>
   <trkpt lat="59.3263654898" lon="34.6986561395"><ele>162.488</ele><time>2026-08-17T03:14:40.401Z</time><hdop>3.0</hdop><vdop>3.562</vdop><extensions><gom:speed>0.666</gom:speed></extensions></trkpt>
   <trkpt lat="59.3263634781" lon="34.6986487635"><ele>162.486</ele><time>2026-08-17T03:14:41.200Z</time><hdop>3.0</hdop><vdop>3.437</vdop><extensions><gom:speed>0.578</gom:speed></extensions></trkpt>
   <trkpt lat="59.3263626818" lon="34.6986458298"><ele>162.539</ele><time>2026-08-17T03:14:41.652Z</time><hdop>3.0</hdop><vdop>3.75</vdop><extensions><gom:speed>0.441</gom:speed></extensions></trkpt>
   <trkpt lat="59.3263590776" lon="34.698637867"><ele>162.571</ele><time>2026-08-17T03:14:42.505Z</time><hdop>3.0</hdop><vdop>3.75</vdop><extensions><gom:speed>0.494</gom:speed></extensions></trkpt>
   <trkpt lat="59.3263560601" lon="34.6986307424"><ele>162.299</ele><time>2026-08-17T03:14:43.386Z</time><hdop>3.0</hdop><vdop>3.812</vdop><extensions><gom:speed>0.435</gom:speed></extensions></trkpt>
   <trkpt lat="59.326353797" lon="34.6986241207"><ele>162.149</ele><time>2026-08-17T03:14:44.265Z</time><hdop>3.0</hdop><vdop>4.125</vdop><extensions><gom:speed>0.463</gom:speed></extensions></trkpt>
   <trkpt lat="59.3263511986" lon="34.6986143977"><ele>161.889</ele><time>2026-08-17T03:14:44.904Z</time><hdop>3.0</hdop><vdop>4.0</vdop><extensions><gom:speed>0.621</gom:speed></extensions></trkpt>
   <trkpt lat="59.3263489774" lon="34.6986042556"><ele>161.734</ele><time>2026-08-17T03:14:45.581Z</time><hdop>3.0</hdop><vdop>4.0</vdop><extensions><gom:speed>0.635</gom:speed></extensions></trkpt>
   <trkpt lat="59.3263472591" lon="34.6985951193"><ele>161.426</ele><time>2026-08-17T03:14:46.198Z</time><hdop>3.0</hdop><vdop>3.5</vdop><extensions><gom:speed>0.679</gom:speed></extensions></trkpt>
   <trkpt lat="59.3263465886" lon="34.6985904254"><ele>161.104</ele><time>2026-08-17T03:14:46.653Z</time><hdop>3.0</hdop><vdop>3.437</vdop><extensions><gom:speed>0.589</gom:speed></extensions></trkpt>
   <trkpt lat="59.3263446607" lon="34.6985755895"><ele>160.912</ele><time>2026-08-17T03:14:47.645Z</time><hdop>3.0</hdop><vdop>3.437</vdop><extensions><gom:speed>0.64</gom:speed></extensions></trkpt>
   <trkpt lat="59.3263428586" lon="34.698562849"><ele>160.612</ele><time>2026-08-17T03:14:48.464Z</time><hdop>3.0</hdop><vdop>3.375</vdop><extensions><gom:speed>0.676</gom:speed></extensions></trkpt>
   <trkpt lat="59.326341769" lon="34.6985534612"><ele>160.265</ele><time>2026-08-17T03:14:49.081Z</time><hdop>3.0</hdop><vdop>3.437</vdop><extensions><gom:speed>0.651</gom:speed></extensions></trkpt>
   <trkpt lat="59.3263411823" lon="34.6985464204"><ele>159.994</ele><time>2026-08-17T03:14:49.668Z</time><hdop>3.0</hdop><vdop>3.312</vdop><extensions><gom:speed>0.617</gom:speed></extensions></trkpt>
   <trkpt lat="59.3263402602" lon="34.6985316683"><ele>159.833</ele><time>2026-08-17T03:14:50.580Z</time><hdop>3.0</hdop><vdop>3.312</vdop><extensions><gom:speed>0.686</gom:speed></extensions></trkpt>
   <trkpt lat="59.3263402602" lon="34.6985167485"><ele>159.664</ele><time>2026-08-17T03:14:51.358Z</time><hdop>3.0</hdop><vdop>3.5</vdop><extensions><gom:speed>0.762</gom:speed></extensions></trkpt>
   <trkpt lat="59.3263404698" lon="34.6985036727"><ele>159.541</ele><time>2026-08-17T03:14:52.046Z</time><hdop>3.0</hdop><vdop>3.375</vdop><extensions><gom:speed>0.797</gom:speed></extensions></trkpt>
   <trkpt lat="59.3263400926" lon="34.6984949555"><ele>159.368</ele><time>2026-08-17T03:14:52.652Z</time><hdop>3.0</hdop><vdop>3.625</vdop><extensions><gom:speed>0.731</gom:speed></extensions></trkpt>
   <trkpt lat="59.3263395897" lon="34.6984811254"><ele>159.264</ele><time>2026-08-17T03:14:53.644Z</time><hdop>3.0</hdop><vdop>3.625</vdop><extensions><gom:speed>0.725</gom:speed></extensions></trkpt>
   <trkpt lat="59.3263391706" lon="34.6984690555"><ele>159.192</ele><time>2026-08-17T03:14:54.646Z</time><hdop>3.0</hdop><vdop>3.125</vdop><extensions><gom:speed>0.659</gom:speed></extensions></trkpt>
   <trkpt lat="59.3263390868" lon="34.698459081"><ele>159.316</ele><time>2026-08-17T03:14:55.364Z</time><hdop>3.0</hdop><vdop>3.5</vdop><extensions><gom:speed>0.623</gom:speed></extensions></trkpt>
   <trkpt lat="59.326338961" lon="34.6984498609"><ele>159.522</ele><time>2026-08-17T03:14:56.244Z</time><hdop>3.0</hdop><vdop>3.187</vdop><extensions><gom:speed>0.536</gom:speed></extensions></trkpt>
   <trkpt lat="59.3263393801" lon="34.6984384615"><ele>159.452</ele><time>2026-08-17T03:14:57.104Z</time><hdop>3.0</hdop><vdop>3.562</vdop><extensions><gom:speed>0.505</gom:speed></extensions></trkpt>
   <trkpt lat="59.3263393801" lon="34.6984299958"><ele>159.298</ele><time>2026-08-17T03:14:57.647Z</time><hdop>3.0</hdop><vdop>3.625</vdop><extensions><gom:speed>0.535</gom:speed></extensions></trkpt>
   <trkpt lat="59.3263391706" lon="34.698418764"><ele>159.205</ele><time>2026-08-17T03:14:58.501Z</time><hdop>3.0</hdop><vdop>3.625</vdop><extensions><gom:speed>0.535</gom:speed></extensions></trkpt>
   <trkpt lat="59.3263391706" lon="34.6984065265"><ele>159.227</ele><time>2026-08-17T03:14:59.300Z</time><hdop>3.0</hdop><vdop>3.375</vdop><extensions><gom:speed>0.541</gom:speed></extensions></trkpt>
   <trkpt lat="59.3263396735" lon="34.6983948756"><ele>158.993</ele><time>2026-08-17T03:15:00.039Z</time><hdop>3.0</hdop><vdop>3.625</vdop><extensions><gom:speed>0.529</gom:speed></extensions></trkpt>
   <trkpt lat="59.3263398831" lon="34.6983875834"><ele>159.067</ele><time>2026-08-17T03:15:00.652Z</time><hdop>3.0</hdop><vdop>3.187</vdop><extensions><gom:speed>0.483</gom:speed></extensions></trkpt>
   <trkpt lat="59.3263411823" lon="34.6983731665"><ele>159.193</ele><time>2026-08-17T03:15:01.652Z</time><hdop>3.0</hdop><vdop>2.875</vdop><extensions><gom:speed>0.42</gom:speed></extensions></trkpt>
   <trkpt lat="59.3263429844" lon="34.6983592525"><ele>159.268</ele><time>2026-08-17T03:15:02.700Z</time><hdop>3.0</hdop><vdop>2.875</vdop><extensions><gom:speed>0.343</gom:speed></extensions></trkpt>
   <trkpt lat="59.3263447865" lon="34.6983480208"><ele>159.334</ele><time>2026-08-17T03:15:03.539Z</time><hdop>3.0</hdop><vdop>2.812</vdop><extensions><gom:speed>0.424</gom:speed></extensions></trkpt>
   <trkpt lat="59.3263470915" lon="34.6983353641"><ele>159.443</ele><time>2026-08-17T03:15:04.086Z</time><hdop>3.0</hdop><vdop>2.625</vdop><extensions><gom:speed>0.471</gom:speed></extensions></trkpt>
   <trkpt lat="59.3263483907" lon="34.6983244676"><ele>159.677</ele><time>2026-08-17T03:15:04.646Z</time><hdop>3.0</hdop><vdop>2.562</vdop><extensions><gom:speed>0.567</gom:speed></extensions></trkpt>
   <trkpt lat="59.3263495642" lon="34.698310386"><ele>159.817</ele><time>2026-08-17T03:15:05.623Z</time><hdop>3.0</hdop><vdop>2.562</vdop><extensions><gom:speed>0.557</gom:speed></extensions></trkpt>
   <trkpt lat="59.3263501928" lon="34.6983093802"><ele>159.499</ele><time>2026-08-17T03:15:06.301Z</time><hdop>3.0</hdop><vdop>2.75</vdop><extensions><gom:speed>0.473</gom:speed></extensions></trkpt>
   <trkpt lat="59.3263507795" lon="34.6983092964"><ele>159.311</ele><time>2026-08-17T03:15:07.141Z</time><hdop>3.0</hdop><vdop>2.562</vdop><extensions><gom:speed>0.367</gom:speed></extensions></trkpt>
   <trkpt lat="59.3263508634" lon="34.6983099669"><ele>159.377</ele><time>2026-08-17T03:15:07.652Z</time><hdop>3.0</hdop><vdop>2.562</vdop><extensions><gom:speed>0.307</gom:speed></extensions></trkpt>
   <trkpt lat="59.3263519949" lon="34.6983088773"><ele>159.425</ele><time>2026-08-17T03:15:08.646Z</time><hdop>3.0</hdop><vdop>2.812</vdop><extensions><gom:speed>0.329</gom:speed></extensions></trkpt>
   <trkpt lat="59.3263523721" lon="34.69830762"><ele>159.454</ele><time>2026-08-17T03:15:09.601Z</time><hdop>3.0</hdop><vdop>2.812</vdop><extensions><gom:speed>0.264</gom:speed></extensions></trkpt>
   <trkpt lat="59.3263529588" lon="34.6983114757"><ele>159.471</ele><time>2026-08-17T03:15:10.298Z</time><hdop>3.0</hdop><vdop>2.687</vdop><extensions><gom:speed>0.157</gom:speed></extensions></trkpt>
   <trkpt lat="59.3263534617" lon="34.6983166725"><ele>159.481</ele><time>2026-08-17T03:15:11.646Z</time><hdop>3.0</hdop><vdop>2.562</vdop><extensions><gom:speed>0.105</gom:speed></extensions></trkpt>
   <trkpt lat="59.3263535875" lon="34.6983197738"><ele>159.488</ele><time>2026-08-17T03:15:12.655Z</time><hdop>3.0</hdop><vdop>2.5</vdop><extensions><gom:speed>0.021</gom:speed></extensions></trkpt>
   <trkpt lat="59.3263536713" lon="34.6983202767"><ele>159.492</ele><time>2026-08-17T03:15:13.652Z</time><hdop>3.0</hdop><vdop>2.562</vdop><extensions><gom:speed>0.02</gom:speed></extensions></trkpt>
   <trkpt lat="59.3263542999" lon="34.6983200252"><ele>159.509</ele><time>2026-08-17T03:15:14.652Z</time><hdop>3.0</hdop><vdop>2.5</vdop><extensions><gom:speed>0.028</gom:speed></extensions></trkpt>
   <trkpt lat="59.32635518" lon="34.6983192709"><ele>159.519</ele><time>2026-08-17T03:15:15.646Z</time><hdop>3.0</hdop><vdop>2.5</vdop><extensions><gom:speed>0.077</gom:speed></extensions></trkpt>
   <trkpt lat="59.3263556829" lon="34.6983170916"><ele>159.534</ele><time>2026-08-17T03:15:16.652Z</time><hdop>3.0</hdop><vdop>2.5</vdop><extensions><gom:speed>0.029</gom:speed></extensions></trkpt>
   <trkpt lat="59.3263560601" lon="34.6983161695"><ele>159.551</ele><time>2026-08-17T03:15:17.653Z</time><hdop>3.0</hdop><vdop>2.5</vdop><extensions><gom:speed>0.035</gom:speed></extensions></trkpt>
   <trkpt lat="59.3263563954" lon="34.6983156666"><ele>159.619</ele><time>2026-08-17T03:15:18.665Z</time><hdop>3.0</hdop><vdop>2.5</vdop><extensions><gom:speed>0.067</gom:speed></extensions></trkpt>
   <trkpt lat="59.3263564792" lon="34.6983144932"><ele>159.697</ele><time>2026-08-17T03:15:19.652Z</time><hdop>3.0</hdop><vdop>2.5</vdop><extensions><gom:speed>0.035</gom:speed></extensions></trkpt>
   <trkpt lat="59.3263568983" lon="34.6983122301"><ele>159.722</ele><time>2026-08-17T03:15:20.652Z</time><hdop>3.0</hdop><vdop>2.5</vdop><extensions><gom:speed>0.038</gom:speed></extensions></trkpt>
   <trkpt lat="59.3263571917" lon="34.6983105537"><ele>159.737</ele><time>2026-08-17T03:15:21.652Z</time><hdop>3.0</hdop><vdop>2.5</vdop><extensions><gom:speed>0.026</gom:speed></extensions></trkpt>
   <trkpt lat="59.3263574851" lon="34.6983075362"><ele>159.749</ele><time>2026-08-17T03:15:22.646Z</time><hdop>3.0</hdop><vdop>2.5</vdop><extensions><gom:speed>0.062</gom:speed></extensions></trkpt>
   <trkpt lat="59.3263577784" lon="34.6983062789"><ele>159.759</ele><time>2026-08-17T03:15:23.652Z</time><hdop>3.0</hdop><vdop>2.5</vdop><extensions><gom:speed>0.042</gom:speed></extensions></trkpt>
   <trkpt lat="59.3263577784" lon="34.698305776"><ele>159.768</ele><time>2026-08-17T03:15:24.654Z</time><hdop>3.0</hdop><vdop>2.562</vdop><extensions><gom:speed>0.053</gom:speed></extensions></trkpt>
   <trkpt lat="59.3263578622" lon="34.6983032614"><ele>159.778</ele><time>2026-08-17T03:15:25.646Z</time><hdop>3.0</hdop><vdop>2.562</vdop><extensions><gom:speed>0.077</gom:speed></extensions></trkpt>
   <trkpt lat="59.3263573593" lon="34.6983016689"><ele>159.785</ele><time>2026-08-17T03:15:26.652Z</time><hdop>3.0</hdop><vdop>2.5</vdop><extensions><gom:speed>0.032</gom:speed></extensions></trkpt>
   <trkpt lat="59.3263571917" lon="34.698299741"><ele>159.792</ele><time>2026-08-17T03:15:27.646Z</time><hdop>3.0</hdop><vdop>2.5</vdop><extensions><gom:speed>0.101</gom:speed></extensions></trkpt>
   <trkpt lat="59.326357066" lon="34.6982987352"><ele>159.801</ele><time>2026-08-17T03:15:28.646Z</time><hdop>3.0</hdop><vdop>2.5</vdop><extensions><gom:speed>0.074</gom:speed></extensions></trkpt>
   <trkpt lat="59.3263569821" lon="34.6982984837"><ele>159.876</ele><time>2026-08-17T03:15:29.652Z</time><hdop>3.0</hdop><vdop>2.5</vdop><extensions><gom:speed>0.038</gom:speed></extensions></trkpt>
   <trkpt lat="59.3263569821" lon="34.6982958853"><ele>159.918</ele><time>2026-08-17T03:15:30.646Z</time><hdop>3.0</hdop><vdop>2.5</vdop><extensions><gom:speed>0.096</gom:speed></extensions></trkpt>
   <trkpt lat="59.3263571917" lon="34.6982942928"><ele>159.943</ele><time>2026-08-17T03:15:31.645Z</time><hdop>3.0</hdop><vdop>2.5</vdop><extensions><gom:speed>0.084</gom:speed></extensions></trkpt>
   <trkpt lat="59.3263572755" lon="34.6982934546"><ele>159.957</ele><time>2026-08-17T03:15:32.646Z</time><hdop>3.0</hdop><vdop>2.5</vdop><extensions><gom:speed>0.076</gom:speed></extensions></trkpt>
   <trkpt lat="59.3263574851" lon="34.6982929517"><ele>159.965</ele><time>2026-08-17T03:15:33.646Z</time><hdop>3.0</hdop><vdop>2.5</vdop><extensions><gom:speed>0.07</gom:speed></extensions></trkpt>
   <trkpt lat="59.3263577784" lon="34.6982922811"><ele>159.969</ele><time>2026-08-17T03:15:34.645Z</time><hdop>3.0</hdop><vdop>2.625</vdop><extensions><gom:speed>0.067</gom:speed></extensions></trkpt>
   <trkpt lat="59.3263577784" lon="34.6982916944"><ele>159.971</ele><time>2026-08-17T03:15:35.652Z</time><hdop>3.0</hdop><vdop>2.5</vdop><extensions><gom:speed>0.068</gom:speed></extensions></trkpt>
   <trkpt lat="59.3263577784" lon="34.6982911915"><ele>159.974</ele><time>2026-08-17T03:15:36.652Z</time><hdop>3.0</hdop><vdop>2.562</vdop><extensions><gom:speed>0.063</gom:speed></extensions></trkpt>
   <trkpt lat="59.3263574851" lon="34.69829094"><ele>159.978</ele><time>2026-08-17T03:15:37.646Z</time><hdop>3.0</hdop><vdop>2.5</vdop><extensions><gom:speed>0.066</gom:speed></extensions></trkpt>
   <trkpt lat="59.3263571917" lon="34.6982904371"><ele>159.982</ele><time>2026-08-17T03:15:38.652Z</time><hdop>3.0</hdop><vdop>2.5</vdop><extensions><gom:speed>0.066</gom:speed></extensions></trkpt>
   <trkpt lat="59.326357066" lon="34.6982904371"><ele>159.984</ele><time>2026-08-17T03:15:39.446Z</time><hdop>3.0</hdop><vdop>2.5</vdop><extensions><gom:speed>0.067</gom:speed></extensions></trkpt>
   <trkpt lat="59.3263567726" lon="34.6982898504"><ele>159.987</ele><time>2026-08-17T03:15:40.646Z</time><hdop>3.0</hdop><vdop>2.5</vdop><extensions><gom:speed>0.071</gom:speed></extensions></trkpt>
   <trkpt lat="59.3263566888" lon="34.6982895989"><ele>159.988</ele><time>2026-08-17T03:15:41.646Z</time><hdop>3.0</hdop><vdop>2.5</vdop><extensions><gom:speed>0.071</gom:speed></extensions></trkpt>
   <trkpt lat="59.326356563" lon="34.6982891798"><ele>159.989</ele><time>2026-08-17T03:15:42.646Z</time><hdop>3.0</hdop><vdop>2.5</vdop><extensions><gom:speed>0.072</gom:speed></extensions></trkpt>
   <trkpt lat="59.3263563954" lon="34.6982885931"><ele>159.991</ele><time>2026-08-17T03:15:43.652Z</time><hdop>3.0</hdop><vdop>2.5</vdop><extensions><gom:speed>0.072</gom:speed></extensions></trkpt>
   <trkpt lat="59.3263564792" lon="34.698288174"><ele>159.992</ele><time>2026-08-17T03:15:44.645Z</time><hdop>3.0</hdop><vdop>2.5</vdop><extensions><gom:speed>0.075</gom:speed></extensions></trkpt>
   <trkpt lat="59.326356563" lon="34.6982877549"><ele>159.994</ele><time>2026-08-17T03:15:45.646Z</time><hdop>3.0</hdop><vdop>2.5</vdop><extensions><gom:speed>0.077</gom:speed></extensions></trkpt>
   <trkpt lat="59.3263563954" lon="34.6982873358"><ele>159.996</ele><time>2026-08-17T03:15:46.652Z</time><hdop>3.0</hdop><vdop>2.5</vdop><extensions><gom:speed>0.077</gom:speed></extensions></trkpt>
   <trkpt lat="59.326356563" lon="34.698287252"><ele>159.997</ele><time>2026-08-17T03:15:47.646Z</time><hdop>3.0</hdop><vdop>2.5</vdop><extensions><gom:speed>0.079</gom:speed></extensions></trkpt>
   <trkpt lat="59.3263564792" lon="34.6982868329"><ele>159.999</ele><time>2026-08-17T03:15:48.653Z</time><hdop>3.0</hdop><vdop>2.5</vdop><extensions><gom:speed>0.079</gom:speed></extensions></trkpt>
   <trkpt lat="59.3263564792" lon="34.6982866653"><ele>160.0</ele><time>2026-08-17T03:15:49.652Z</time><hdop>3.0</hdop><vdop>2.5</vdop><extensions><gom:speed>0.077</gom:speed></extensions></trkpt>
   <trkpt lat="59.3263564792" lon="34.6982865814"><ele>160.003</ele><time>2026-08-17T03:15:50.656Z</time><hdop>3.0</hdop><vdop>2.5</vdop><extensions><gom:speed>0.077</gom:speed></extensions></trkpt>
   <trkpt lat="59.3263564792" lon="34.6982865814"><ele>160.005</ele><time>2026-08-17T03:15:51.652Z</time><hdop>3.0</hdop><vdop>2.5</vdop><extensions><gom:speed>0.075</gom:speed></extensions></trkpt>
   <trkpt lat="59.326356563" lon="34.6982865814"><ele>160.01</ele><time>2026-08-17T03:15:52.652Z</time><hdop>3.0</hdop><vdop>2.5</vdop><extensions><gom:speed>0.076</gom:speed></extensions></trkpt>
   <trkpt lat="59.3263567726" lon="34.6982864976"><ele>160.015</ele><time>2026-08-17T03:15:53.652Z</time><hdop>3.0</hdop><vdop>2.5</vdop><extensions><gom:speed>0.073</gom:speed></extensions></trkpt>
   <trkpt lat="59.3263568983" lon="34.6982865814"><ele>160.018</ele><time>2026-08-17T03:15:54.663Z</time><hdop>3.0</hdop><vdop>2.5</vdop><extensions><gom:speed>0.073</gom:speed></extensions></trkpt>
   <trkpt lat="59.3263568983" lon="34.6982865814"><ele>160.021</ele><time>2026-08-17T03:15:55.652Z</time><hdop>3.0</hdop><vdop>2.5</vdop><extensions><gom:speed>0.072</gom:speed></extensions></trkpt>
   <trkpt lat="59.3263568983" lon="34.6982865814"><ele>160.024</ele><time>2026-08-17T03:15:56.652Z</time><hdop>3.0</hdop><vdop>2.5</vdop><extensions><gom:speed>0.072</gom:speed></extensions></trkpt>
   <trkpt lat="59.3263569821" lon="34.6982867491"><ele>160.028</ele><time>2026-08-17T03:15:57.645Z</time><hdop>3.0</hdop><vdop>2.5</vdop><extensions><gom:speed>0.072</gom:speed></extensions></trkpt>
   <trkpt lat="59.3263569821" lon="34.6982866653"><ele>160.031</ele><time>2026-08-17T03:15:58.650Z</time><hdop>3.0</hdop><vdop>2.5</vdop><extensions><gom:speed>0.072</gom:speed></extensions></trkpt>
   <trkpt lat="59.3263569821" lon="34.69828633"><ele>160.034</ele><time>2026-08-17T03:15:59.645Z</time><hdop>3.0</hdop><vdop>2.5</vdop><extensions><gom:speed>0.072</gom:speed></extensions></trkpt>
   <trkpt lat="59.3263569821" lon="34.6982859947"><ele>160.036</ele><time>2026-08-17T03:16:00.652Z</time><hdop>3.0</hdop><vdop>2.5</vdop><extensions><gom:speed>0.072</gom:speed></extensions></trkpt>
   <trkpt lat="59.326357066" lon="34.6982858271"><ele>160.04</ele><time>2026-08-17T03:16:01.646Z</time><hdop>3.0</hdop><vdop>2.5</vdop><extensions><gom:speed>0.073</gom:speed></extensions></trkpt>
   <trkpt lat="59.326357066" lon="34.6982855756"><ele>160.044</ele><time>2026-08-17T03:16:02.655Z</time><hdop>3.0</hdop><vdop>2.5</vdop><extensions><gom:speed>0.073</gom:speed></extensions></trkpt>
   <trkpt lat="59.326357066" lon="34.6982852403"><ele>160.049</ele><time>2026-08-17T03:16:03.652Z</time><hdop>3.0</hdop><vdop>2.5</vdop><extensions><gom:speed>0.076</gom:speed></extensions></trkpt>
   <trkpt lat="59.326357066" lon="34.6982849889"><ele>160.056</ele><time>2026-08-17T03:16:04.652Z</time><hdop>3.0</hdop><vdop>2.5</vdop><extensions><gom:speed>0.075</gom:speed></extensions></trkpt>
   <trkpt lat="59.3263571917" lon="34.6982847374"><ele>160.061</ele><time>2026-08-17T03:16:05.652Z</time><hdop>3.0</hdop><vdop>2.5</vdop><extensions><gom:speed>0.076</gom:speed></extensions></trkpt>
   <trkpt lat="59.3263572755" lon="34.698284486"><ele>160.066</ele><time>2026-08-17T03:16:06.652Z</time><hdop>3.0</hdop><vdop>2.5</vdop><extensions><gom:speed>0.073</gom:speed></extensions></trkpt>
   <trkpt lat="59.3263575689" lon="34.698283983"><ele>160.07</ele><time>2026-08-17T03:16:07.652Z</time><hdop>3.0</hdop><vdop>2.5</vdop><extensions><gom:speed>0.072</gom:speed></extensions></trkpt>
   <trkpt lat="59.3263576946" lon="34.6982837316"><ele>160.074</ele><time>2026-08-17T03:16:08.652Z</time><hdop>3.0</hdop><vdop>2.5</vdop><extensions><gom:speed>0.07</gom:speed></extensions></trkpt>
   <trkpt lat="59.3263577784" lon="34.6982834801"><ele>160.077</ele><time>2026-08-17T03:16:09.657Z</time><hdop>3.0</hdop><vdop>2.5</vdop><extensions><gom:speed>0.069</gom:speed></extensions></trkpt>
   <trkpt lat="59.326357988" lon="34.6982832287"><ele>160.08</ele><time>2026-08-17T03:16:10.645Z</time><hdop>3.0</hdop><vdop>2.5</vdop><extensions><gom:speed>0.069</gom:speed></extensions></trkpt>
   <trkpt lat="59.3263581975" lon="34.698283061"><ele>160.085</ele><time>2026-08-17T03:16:11.646Z</time><hdop>3.0</hdop><vdop>2.5</vdop><extensions><gom:speed>0.07</gom:speed></extensions></trkpt>
   <trkpt lat="59.3263581975" lon="34.6982828934"><ele>160.088</ele><time>2026-08-17T03:16:12.653Z</time><hdop>3.0</hdop><vdop>2.5</vdop><extensions><gom:speed>0.07</gom:speed></extensions></trkpt>
   <trkpt lat="59.3263582813" lon="34.6982825581"><ele>160.09</ele><time>2026-08-17T03:16:13.663Z</time><hdop>3.0</hdop><vdop>2.5</vdop><extensions><gom:speed>0.071</gom:speed></extensions></trkpt>
   <trkpt lat="59.3263583652" lon="34.6982823905"><ele>160.095</ele><time>2026-08-17T03:16:14.652Z</time><hdop>3.0</hdop><vdop>2.5</vdop><extensions><gom:speed>0.073</gom:speed></extensions></trkpt>
   <trkpt lat="59.3263585747" lon="34.698282139"><ele>160.102</ele><time>2026-08-17T03:16:15.652Z</time><hdop>3.0</hdop><vdop>2.5</vdop><extensions><gom:speed>0.072</gom:speed></extensions></trkpt>
   <trkpt lat="59.3263586585" lon="34.6982820552"><ele>160.107</ele><time>2026-08-17T03:16:16.652Z</time><hdop>3.0</hdop><vdop>2.5</vdop><extensions><gom:speed>0.068</gom:speed></extensions></trkpt>
   <trkpt lat="59.3263589938" lon="34.6982819714"><ele>160.112</ele><time>2026-08-17T03:16:17.646Z</time><hdop>3.0</hdop><vdop>2.5</vdop><extensions><gom:speed>0.068</gom:speed></extensions></trkpt>
   <trkpt lat="59.3263590776" lon="34.6982818876"><ele>160.116</ele><time>2026-08-17T03:16:18.646Z</time><hdop>3.0</hdop><vdop>2.5</vdop><extensions><gom:speed>0.067</gom:speed></extensions></trkpt>
   <trkpt lat="59.3263591614" lon="34.6982816361"><ele>160.119</ele><time>2026-08-17T03:16:19.653Z</time><hdop>3.0</hdop><vdop>2.5</vdop><extensions><gom:speed>0.067</gom:speed></extensions></trkpt>
   <trkpt lat="59.3263590776" lon="34.6982817199"><ele>160.121</ele><time>2026-08-17T03:16:20.652Z</time><hdop>3.0</hdop><vdop>2.5</vdop><extensions><gom:speed>0.067</gom:speed></extensions></trkpt>
   <trkpt lat="59.3263591614" lon="34.6982817199"><ele>160.122</ele><time>2026-08-17T03:16:21.656Z</time><hdop>3.0</hdop><vdop>2.5</vdop><extensions><gom:speed>0.068</gom:speed></extensions></trkpt>
   <trkpt lat="59.326359371" lon="34.6982816361"><ele>160.124</ele><time>2026-08-17T03:16:22.646Z</time><hdop>3.0</hdop><vdop>2.5</vdop><extensions><gom:speed>0.068</gom:speed></extensions></trkpt>
   <trkpt lat="59.3263595805" lon="34.6982815523"><ele>160.125</ele><time>2026-08-17T03:16:23.646Z</time><hdop>3.0</hdop><vdop>2.5</vdop><extensions><gom:speed>0.07</gom:speed></extensions></trkpt>
   <trkpt lat="59.3263596643" lon="34.698281217"><ele>160.128</ele><time>2026-08-17T03:16:24.652Z</time><hdop>3.0</hdop><vdop>2.5</vdop><extensions><gom:speed>0.07</gom:speed></extensions></trkpt>
   <trkpt lat="59.3263597901" lon="34.6982810494"><ele>160.129</ele><time>2026-08-17T03:16:25.653Z</time><hdop>3.0</hdop><vdop>2.5</vdop><extensions><gom:speed>0.071</gom:speed></extensions></trkpt>
   <trkpt lat="59.3263597901" lon="34.6982808817"><ele>160.132</ele><time>2026-08-17T03:16:26.652Z</time><hdop>3.0</hdop><vdop>2.5</vdop><extensions><gom:speed>0.07</gom:speed></extensions></trkpt>
   <trkpt lat="59.3263596643" lon="34.6982804626"><ele>160.137</ele><time>2026-08-17T03:16:27.646Z</time><hdop>3.0</hdop><vdop>2.5</vdop><extensions><gom:speed>0.072</gom:speed></extensions></trkpt>
   <trkpt lat="59.3263596643" lon="34.6982801274"><ele>160.141</ele><time>2026-08-17T03:16:28.652Z</time><hdop>3.0</hdop><vdop>2.5</vdop><extensions><gom:speed>0.073</gom:speed></extensions></trkpt>
   <trkpt lat="59.3263595805" lon="34.6982800435"><ele>160.146</ele><time>2026-08-17T03:16:29.646Z</time><hdop>3.0</hdop><vdop>2.5</vdop><extensions><gom:speed>0.067</gom:speed></extensions></trkpt>
   <trkpt lat="59.3263595805" lon="34.6982798759"><ele>160.152</ele><time>2026-08-17T03:16:30.681Z</time><hdop>3.0</hdop><vdop>2.5</vdop><extensions><gom:speed>0.067</gom:speed></extensions></trkpt>
   <trkpt lat="59.3263595805" lon="34.6982798759"><ele>160.156</ele><time>2026-08-17T03:16:31.646Z</time><hdop>3.0</hdop><vdop>2.5</vdop><extensions><gom:speed>0.072</gom:speed></extensions></trkpt>
   <trkpt lat="59.3263595805" lon="34.6982797921"><ele>160.161</ele><time>2026-08-17T03:16:32.646Z</time><hdop>3.0</hdop><vdop>2.5</vdop><extensions><gom:speed>0.072</gom:speed></extensions></trkpt>
   <trkpt lat="59.3263596643" lon="34.6982794568"><ele>160.165</ele><time>2026-08-17T03:16:33.653Z</time><hdop>3.0</hdop><vdop>2.5</vdop><extensions><gom:speed>0.072</gom:speed></extensions></trkpt>
   <trkpt lat="59.3263597901" lon="34.6982795406"><ele>160.169</ele><time>2026-08-17T03:16:34.646Z</time><hdop>3.0</hdop><vdop>2.5</vdop><extensions><gom:speed>0.073</gom:speed></extensions></trkpt>
   <trkpt lat="59.3263597901" lon="34.6982796245"><ele>160.172</ele><time>2026-08-17T03:16:35.235Z</time><hdop>3.0</hdop><vdop>2.5</vdop><extensions><gom:speed>0.073</gom:speed></extensions></trkpt>
   <trkpt lat="59.3263598739" lon="34.6982791215"><ele>160.179</ele><time>2026-08-17T03:16:36.650Z</time><hdop>3.0</hdop><vdop>2.5</vdop><extensions><gom:speed>0.075</gom:speed></extensions></trkpt>
   <trkpt lat="59.3263600834" lon="34.6982791215"><ele>160.188</ele><time>2026-08-17T03:16:37.662Z</time><hdop>3.0</hdop><vdop>2.5</vdop><extensions><gom:speed>0.076</gom:speed></extensions></trkpt>
   <trkpt lat="59.3263601673" lon="34.6982791215"><ele>160.197</ele><time>2026-08-17T03:16:38.674Z</time><hdop>3.0</hdop><vdop>2.5</vdop><extensions><gom:speed>0.074</gom:speed></extensions></trkpt>
   <trkpt lat="59.326360293" lon="34.6982791215"><ele>160.206</ele><time>2026-08-17T03:16:39.646Z</time><hdop>3.0</hdop><vdop>2.5</vdop><extensions><gom:speed>0.075</gom:speed></extensions></trkpt>
   <trkpt lat="59.3263603768" lon="34.6982790377"><ele>160.214</ele><time>2026-08-17T03:16:40.652Z</time><hdop>3.0</hdop><vdop>2.5</vdop><extensions><gom:speed>0.076</gom:speed></extensions></trkpt>
   <trkpt lat="59.3263603768" lon="34.698279373"><ele>160.22</ele><time>2026-08-17T03:16:41.102Z</time><hdop>3.0</hdop><vdop>2.5</vdop><extensions><gom:speed>0.074</gom:speed></extensions></trkpt>
   <trkpt lat="59.3263605864" lon="34.6982788701"><ele>160.227</ele><time>2026-08-17T03:16:41.647Z</time><hdop>3.0</hdop><vdop>2.5</vdop><extensions><gom:speed>0.07</gom:speed></extensions></trkpt>
   <trkpt lat="59.3263605864" lon="34.6982787863"><ele>160.235</ele><time>2026-08-17T03:16:42.661Z</time><hdop>3.0</hdop><vdop>2.5</vdop><extensions><gom:speed>0.071</gom:speed></extensions></trkpt>
   <trkpt lat="59.3263605864" lon="34.6982786186"><ele>160.241</ele><time>2026-08-17T03:16:43.646Z</time><hdop>3.0</hdop><vdop>2.5</vdop><extensions><gom:speed>0.071</gom:speed></extensions></trkpt>
   <trkpt lat="59.3263605864" lon="34.698278451"><ele>160.247</ele><time>2026-08-17T03:16:44.724Z</time><hdop>3.0</hdop><vdop>2.5</vdop><extensions><gom:speed>0.071</gom:speed></extensions></trkpt>
   <trkpt lat="59.3263605864" lon="34.6982782833"><ele>160.252</ele><time>2026-08-17T03:16:45.652Z</time><hdop>3.0</hdop><vdop>2.5</vdop><extensions><gom:speed>0.072</gom:speed></extensions></trkpt>
   <trkpt lat="59.3263606702" lon="34.6982780319"><ele>160.257</ele><time>2026-08-17T03:16:46.646Z</time><hdop>3.0</hdop><vdop>2.5</vdop><extensions><gom:speed>0.073</gom:speed></extensions></trkpt>
   <trkpt lat="59.3263607959" lon="34.6982779481"><ele>160.26</ele><time>2026-08-17T03:16:47.652Z</time><hdop>3.0</hdop><vdop>2.5</vdop><extensions><gom:speed>0.071</gom:speed></extensions></trkpt>
   <trkpt lat="59.3263605864" lon="34.6982778643"><ele>160.265</ele><time>2026-08-17T03:16:48.646Z</time><hdop>3.0</hdop><vdop>2.5</vdop><extensions><gom:speed>0.066</gom:speed></extensions></trkpt>
   <trkpt lat="59.3263605864" lon="34.6982777804"><ele>160.269</ele><time>2026-08-17T03:16:49.645Z</time><hdop>3.0</hdop><vdop>2.5</vdop><extensions><gom:speed>0.065</gom:speed></extensions></trkpt>
   <trkpt lat="59.3263606702" lon="34.6982776966"><ele>160.274</ele><time>2026-08-17T03:16:50.652Z</time><hdop>3.0</hdop><vdop>2.5</vdop><extensions><gom:speed>0.065</gom:speed></extensions></trkpt>
   <trkpt lat="59.3263604606" lon="34.698277529"><ele>160.278</ele><time>2026-08-17T03:16:51.652Z</time><hdop>3.0</hdop><vdop>2.5</vdop><extensions><gom:speed>0.063</gom:speed></extensions></trkpt>
   <trkpt lat="59.3263603768" lon="34.6982772775"><ele>160.281</ele><time>2026-08-17T03:16:52.652Z</time><hdop>3.0</hdop><vdop>2.5</vdop><extensions><gom:speed>0.06</gom:speed></extensions></trkpt>
   <trkpt lat="59.3263603768" lon="34.6982771937"><ele>160.284</ele><time>2026-08-17T03:16:53.647Z</time><hdop>3.0</hdop><vdop>2.5</vdop><extensions><gom:speed>0.061</gom:speed></extensions></trkpt>
   <trkpt lat="59.3263603768" lon="34.6982770261"><ele>160.285</ele><time>2026-08-17T03:16:54.659Z</time><hdop>3.0</hdop><vdop>2.5</vdop><extensions><gom:speed>0.061</gom:speed></extensions></trkpt>
   <trkpt lat="59.326360293" lon="34.6982770261"><ele>160.286</ele><time>2026-08-17T03:16:55.653Z</time><hdop>3.0</hdop><vdop>2.5</vdop><extensions><gom:speed>0.064</gom:speed></extensions></trkpt>
   <trkpt lat="59.326360293" lon="34.6982769422"><ele>160.287</ele><time>2026-08-17T03:16:56.646Z</time><hdop>3.0</hdop><vdop>2.5</vdop><extensions><gom:speed>0.063</gom:speed></extensions></trkpt>
   <trkpt lat="59.326360293" lon="34.6982768584"><ele>160.29</ele><time>2026-08-17T03:16:57.653Z</time><hdop>3.0</hdop><vdop>2.5</vdop><extensions><gom:speed>0.063</gom:speed></extensions></trkpt>
   <trkpt lat="59.3263601673" lon="34.6982767746"><ele>160.293</ele><time>2026-08-17T03:16:58.652Z</time><hdop>3.0</hdop><vdop>2.5</vdop><extensions><gom:speed>0.064</gom:speed></extensions></trkpt>
   <trkpt lat="59.326360293" lon="34.6982764393"><ele>160.296</ele><time>2026-08-17T03:16:59.652Z</time><hdop>3.0</hdop><vdop>2.5</vdop><extensions><gom:speed>0.066</gom:speed></extensions></trkpt>
   <trkpt lat="59.326360293" lon="34.6982762717"><ele>160.297</ele><time>2026-08-17T03:17:00.652Z</time><hdop>3.0</hdop><vdop>2.5</vdop><extensions><gom:speed>0.067</gom:speed></extensions></trkpt>
   <trkpt lat="59.326360293" lon="34.6982760202"><ele>160.299</ele><time>2026-08-17T03:17:01.652Z</time><hdop>3.0</hdop><vdop>2.5</vdop><extensions><gom:speed>0.067</gom:speed></extensions></trkpt>
   <trkpt lat="59.3263601673" lon="34.6982760202"><ele>160.3</ele><time>2026-08-17T03:17:02.646Z</time><hdop>3.0</hdop><vdop>2.5</vdop><extensions><gom:speed>0.067</gom:speed></extensions></trkpt>
   <trkpt lat="59.3263601673" lon="34.6982759364"><ele>160.304</ele><time>2026-08-17T03:17:03.652Z</time><hdop>3.0</hdop><vdop>2.5</vdop><extensions><gom:speed>0.068</gom:speed></extensions></trkpt>
   <trkpt lat="59.3263601673" lon="34.6982759364"><ele>160.306</ele><time>2026-08-17T03:17:04.652Z</time><hdop>3.0</hdop><vdop>2.5</vdop><extensions><gom:speed>0.065</gom:speed></extensions></trkpt>
   <trkpt lat="59.3263603768" lon="34.6982758526"><ele>160.308</ele><time>2026-08-17T03:17:05.646Z</time><hdop>3.0</hdop><vdop>2.5</vdop><extensions><gom:speed>0.07</gom:speed></extensions></trkpt>
   <trkpt lat="59.3263603768" lon="34.698275685"><ele>160.309</ele><time>2026-08-17T03:17:06.653Z</time><hdop>3.0</hdop><vdop>2.5</vdop><extensions><gom:speed>0.07</gom:speed></extensions></trkpt>
   <trkpt lat="59.3263605864" lon="34.6982755173"><ele>160.31</ele><time>2026-08-17T03:17:07.652Z</time><hdop>3.0</hdop><vdop>2.5</vdop><extensions><gom:speed>0.071</gom:speed></extensions></trkpt>
   <trkpt lat="59.3263606702" lon="34.6982755173"><ele>160.31</ele><time>2026-08-17T03:17:08.646Z</time><hdop>3.0</hdop><vdop>2.5</vdop><extensions><gom:speed>0.069</gom:speed></extensions></trkpt>
   <trkpt lat="59.3263606702" lon="34.6982754335"><ele>160.31</ele><time>2026-08-17T03:17:09.652Z</time><hdop>3.0</hdop><vdop>2.5</vdop><extensions><gom:speed>0.07</gom:speed></extensions></trkpt>
   <trkpt lat="59.3263607959" lon="34.6982754335"><ele>160.309</ele><time>2026-08-17T03:17:10.653Z</time><hdop>3.0</hdop><vdop>2.5</vdop><extensions><gom:speed>0.067</gom:speed></extensions></trkpt>
   <trkpt lat="59.3263607959" lon="34.6982753497"><ele>160.31</ele><time>2026-08-17T03:17:11.646Z</time><hdop>3.0</hdop><vdop>2.5</vdop><extensions><gom:speed>0.064</gom:speed></extensions></trkpt>
   <trkpt lat="59.3263606702" lon="34.6982752659"><ele>160.367</ele><time>2026-08-17T03:17:12.668Z</time><hdop>3.0</hdop><vdop>2.5</vdop><extensions><gom:speed>0.064</gom:speed></extensions></trkpt>
   <trkpt lat="59.3263603768" lon="34.6982753497"><ele>160.4</ele><time>2026-08-17T03:17:13.646Z</time><hdop>3.0</hdop><vdop>2.5</vdop><extensions><gom:speed>0.095</gom:speed></extensions></trkpt>
   <trkpt lat="59.326360293" lon="34.698275182"><ele>160.421</ele><time>2026-08-17T03:17:14.646Z</time><hdop>3.0</hdop><vdop>2.5</vdop><extensions><gom:speed>0.08</gom:speed></extensions></trkpt>
   <trkpt lat="59.326360293" lon="34.698275182"><ele>160.434</ele><time>2026-08-17T03:17:15.652Z</time><hdop>3.0</hdop><vdop>2.5</vdop><extensions><gom:speed>0.08</gom:speed></extensions></trkpt>
   <trkpt lat="59.326360293" lon="34.6982752659"><ele>160.465</ele><time>2026-08-17T03:17:16.652Z</time><hdop>3.0</hdop><vdop>2.5</vdop><extensions><gom:speed>0.075</gom:speed></extensions></trkpt>
   <trkpt lat="59.3263600834" lon="34.6982754335"><ele>160.5</ele><time>2026-08-17T03:17:17.645Z</time><hdop>3.0</hdop><vdop>2.5</vdop><extensions><gom:speed>0.068</gom:speed></extensions></trkpt>
   <trkpt lat="59.3263599996" lon="34.6982759364"><ele>160.531</ele><time>2026-08-17T03:17:18.646Z</time><hdop>3.0</hdop><vdop>2.5</vdop><extensions><gom:speed>0.067</gom:speed></extensions></trkpt>
   <trkpt lat="59.3263598739" lon="34.6982760202"><ele>160.562</ele><time>2026-08-17T03:17:19.646Z</time><hdop>3.0</hdop><vdop>2.5</vdop><extensions><gom:speed>0.064</gom:speed></extensions></trkpt>
   <trkpt lat="59.3263598739" lon="34.6982760202"><ele>160.581</ele><time>2026-08-17T03:17:20.662Z</time><hdop>3.0</hdop><vdop>2.5</vdop><extensions><gom:speed>0.065</gom:speed></extensions></trkpt>
   <trkpt lat="59.3263598739" lon="34.6982758526"><ele>160.604</ele><time>2026-08-17T03:17:21.653Z</time><hdop>3.0</hdop><vdop>2.5</vdop><extensions><gom:speed>0.066</gom:speed></extensions></trkpt>
   <trkpt lat="59.3263599996" lon="34.6982765231"><ele>160.789</ele><time>2026-08-17T03:17:22.646Z</time><hdop>3.0</hdop><vdop>2.625</vdop><extensions><gom:speed>0.325</gom:speed></extensions></trkpt>
   <trkpt lat="59.3263603768" lon="34.6982797921"><ele>160.868</ele><time>2026-08-17T03:17:23.645Z</time><hdop>3.0</hdop><vdop>2.5</vdop><extensions><gom:speed>0.082</gom:speed></extensions></trkpt>
   <trkpt lat="59.3263604606" lon="34.6982795406"><ele>160.916</ele><time>2026-08-17T03:17:24.652Z</time><hdop>3.0</hdop><vdop>2.5</vdop><extensions><gom:speed>0.081</gom:speed></extensions></trkpt>
   <trkpt lat="59.3263612988" lon="34.6982806303"><ele>160.945</ele><time>2026-08-17T03:17:25.645Z</time><hdop>3.0</hdop><vdop>2.5</vdop><extensions><gom:speed>0.06</gom:speed></extensions></trkpt>
   <trkpt lat="59.3263618856" lon="34.6982810494"><ele>160.965</ele><time>2026-08-17T03:17:26.646Z</time><hdop>3.0</hdop><vdop>2.5</vdop><extensions><gom:speed>0.057</gom:speed></extensions></trkpt>
   <trkpt lat="59.3263620951" lon="34.6982813847"><ele>160.978</ele><time>2026-08-17T03:17:27.652Z</time><hdop>3.0</hdop><vdop>2.5</vdop><extensions><gom:speed>0.057</gom:speed></extensions></trkpt>
   <trkpt lat="59.3263623885" lon="34.6982816361"><ele>160.985</ele><time>2026-08-17T03:17:28.652Z</time><hdop>3.0</hdop><vdop>2.5</vdop><extensions><gom:speed>0.056</gom:speed></extensions></trkpt>
   <trkpt lat="59.3263626818" lon="34.698282139"><ele>160.989</ele><time>2026-08-17T03:17:29.646Z</time><hdop>3.0</hdop><vdop>2.5</vdop><extensions><gom:speed>0.058</gom:speed></extensions></trkpt>
   <trkpt lat="59.3263628914" lon="34.6982823905"><ele>160.993</ele><time>2026-08-17T03:17:30.652Z</time><hdop>3.0</hdop><vdop>2.5</vdop><extensions><gom:speed>0.058</gom:speed></extensions></trkpt>
   <trkpt lat="59.3263629752" lon="34.6982828934"><ele>160.995</ele><time>2026-08-17T03:17:31.652Z</time><hdop>3.0</hdop><vdop>2.5</vdop><extensions><gom:speed>0.06</gom:speed></extensions></trkpt>
   <trkpt lat="59.3263632686" lon="34.6982834801"><ele>161.183</ele><time>2026-08-17T03:17:32.646Z</time><hdop>3.0</hdop><vdop>2.5</vdop><extensions><gom:speed>0.124</gom:speed></extensions></trkpt>
   <trkpt lat="59.3263635619" lon="34.698283983"><ele>161.295</ele><time>2026-08-17T03:17:33.267Z</time><hdop>3.0</hdop><vdop>2.5</vdop><extensions><gom:speed>0.126</gom:speed></extensions></trkpt>
   <trkpt lat="59.326363981" lon="34.6982842345"><ele>161.424</ele><time>2026-08-17T03:17:34.026Z</time><hdop>3.0</hdop><vdop>2.562</vdop><extensions><gom:speed>0.099</gom:speed></extensions></trkpt>
   <trkpt lat="59.3263641906" lon="34.698284486"><ele>161.543</ele><time>2026-08-17T03:17:34.652Z</time><hdop>3.0</hdop><vdop>2.75</vdop><extensions><gom:speed>0.099</gom:speed></extensions></trkpt>
   <trkpt lat="59.3263644839" lon="34.6982841507"><ele>161.614</ele><time>2026-08-17T03:17:35.665Z</time><hdop>3.0</hdop><vdop>2.75</vdop><extensions><gom:speed>0.079</gom:speed></extensions></trkpt>
   <trkpt lat="59.3263649869" lon="34.6982833963"><ele>161.659</ele><time>2026-08-17T03:17:36.585Z</time><hdop>3.0</hdop><vdop>3.0</vdop><extensions><gom:speed>0.308</gom:speed></extensions></trkpt>
   <trkpt lat="59.3263651964" lon="34.6982809656"><ele>161.593</ele><time>2026-08-17T03:17:37.386Z</time><hdop>3.0</hdop><vdop>2.937</vdop><extensions><gom:speed>0.163</gom:speed></extensions></trkpt>
   <trkpt lat="59.3263656993" lon="34.6982740924"><ele>161.52</ele><time>2026-08-17T03:17:38.042Z</time><hdop>3.0</hdop><vdop>3.125</vdop><extensions><gom:speed>0.264</gom:speed></extensions></trkpt>
   <trkpt lat="59.3263663699" lon="34.6982683927"><ele>161.445</ele><time>2026-08-17T03:17:38.652Z</time><hdop>3.0</hdop><vdop>3.187</vdop><extensions><gom:speed>0.234</gom:speed></extensions></trkpt>
   <trkpt lat="59.3263662861" lon="34.698246935"><ele>161.481</ele><time>2026-08-17T03:17:39.646Z</time><hdop>3.0</hdop><vdop>3.312</vdop><extensions><gom:speed>0.457</gom:speed></extensions></trkpt>
   <trkpt lat="59.3263661603" lon="34.6982359547"><ele>161.503</ele><time>2026-08-17T03:17:40.359Z</time><hdop>3.0</hdop><vdop>3.312</vdop><extensions><gom:speed>0.482</gom:speed></extensions></trkpt>
   <trkpt lat="59.3263648611" lon="34.6982197777"><ele>161.579</ele><time>2026-08-17T03:17:41.280Z</time><hdop>3.125</hdop><vdop>3.375</vdop><extensions><gom:speed>0.531</gom:speed></extensions></trkpt>
   <trkpt lat="59.3263622627" lon="34.6982082945"><ele>161.648</ele><time>2026-08-17T03:17:41.786Z</time><hdop>3.187</hdop><vdop>2.937</vdop><extensions><gom:speed>0.555</gom:speed></extensions></trkpt>
   <trkpt lat="59.3263590776" lon="34.6981974818"><ele>161.689</ele><time>2026-08-17T03:17:42.524Z</time><hdop>3.25</hdop><vdop>2.937</vdop><extensions><gom:speed>0.57</gom:speed></extensions></trkpt>
   <trkpt lat="59.3263526655" lon="34.6981828973"><ele>162.095</ele><time>2026-08-17T03:17:43.344Z</time><hdop>3.312</hdop><vdop>2.875</vdop><extensions><gom:speed>0.581</gom:speed></extensions></trkpt>
   <trkpt lat="59.3263479716" lon="34.6981673908"><ele>162.314</ele><time>2026-08-17T03:17:43.860Z</time><hdop>3.312</hdop><vdop>3.062</vdop><extensions><gom:speed>0.713</gom:speed></extensions></trkpt>
   <trkpt lat="59.3263446607" lon="34.6981517166"><ele>162.444</ele><time>2026-08-17T03:17:44.619Z</time><hdop>3.312</hdop><vdop>3.062</vdop><extensions><gom:speed>0.738</gom:speed></extensions></trkpt>
   <trkpt lat="59.3263419785" lon="34.6981343661"><ele>162.603</ele><time>2026-08-17T03:17:45.357Z</time><hdop>3.312</hdop><vdop>3.312</vdop><extensions><gom:speed>0.67</gom:speed></extensions></trkpt>
   <trkpt lat="59.3263406793" lon="34.6981134951"><ele>162.679</ele><time>2026-08-17T03:17:46.440Z</time><hdop>3.187</hdop><vdop>3.25</vdop><extensions><gom:speed>0.604</gom:speed></extensions></trkpt>
   <trkpt lat="59.3263400926" lon="34.698096396"><ele>163.458</ele><time>2026-08-17T03:17:47.259Z</time><hdop>3.125</hdop><vdop>2.937</vdop><extensions><gom:speed>0.576</gom:speed></extensions></trkpt>
   <trkpt lat="59.3263400926" lon="34.6980773691"><ele>163.924</ele><time>2026-08-17T03:17:48.038Z</time><hdop>3.062</hdop><vdop>2.875</vdop><extensions><gom:speed>0.568</gom:speed></extensions></trkpt>
   <trkpt lat="59.3263412661" lon="34.6980589289"><ele>164.069</ele><time>2026-08-17T03:17:48.646Z</time><hdop>3.0</hdop><vdop>2.812</vdop><extensions><gom:speed>0.699</gom:speed></extensions></trkpt>
   <trkpt lat="59.3263420624" lon="34.6980481163"><ele>164.102</ele><time>2026-08-17T03:17:49.652Z</time><hdop>3.0</hdop><vdop>3.0</vdop><extensions><gom:speed>0.366</gom:speed></extensions></trkpt>
   <trkpt lat="59.3263451637" lon="34.6980302628"><ele>164.122</ele><time>2026-08-17T03:17:50.507Z</time><hdop>3.0</hdop><vdop>3.0</vdop><extensions><gom:speed>0.465</gom:speed></extensions></trkpt>
   <trkpt lat="59.3263481811" lon="34.6980181929"><ele>164.231</ele><time>2026-08-17T03:17:51.327Z</time><hdop>3.0</hdop><vdop>3.25</vdop><extensions><gom:speed>0.45</gom:speed></extensions></trkpt>
   <trkpt lat="59.3263520787" lon="34.6980071288"><ele>164.232</ele><time>2026-08-17T03:17:52.237Z</time><hdop>3.0</hdop><vdop>3.437</vdop><extensions><gom:speed>0.367</gom:speed></extensions></trkpt>
   <trkpt lat="59.3263563954" lon="34.6979969867"><ele>164.302</ele><time>2026-08-17T03:17:53.279Z</time><hdop>3.0</hdop><vdop>3.437</vdop><extensions><gom:speed>0.363</gom:speed></extensions></trkpt>
   <trkpt lat="59.3263599996" lon="34.6979854197"><ele>164.59</ele><time>2026-08-17T03:17:54.099Z</time><hdop>3.0</hdop><vdop>3.375</vdop><extensions><gom:speed>0.472</gom:speed></extensions></trkpt>
   <trkpt lat="59.3263611731" lon="34.697980642"><ele>164.829</ele><time>2026-08-17T03:17:54.652Z</time><hdop>3.0</hdop><vdop>3.25</vdop><extensions><gom:speed>0.324</gom:speed></extensions></trkpt>
   <trkpt lat="59.3263640648" lon="34.6979705837"><ele>164.714</ele><time>2026-08-17T03:17:55.652Z</time><hdop>3.0</hdop><vdop>3.062</vdop><extensions><gom:speed>0.256</gom:speed></extensions></trkpt>
   <trkpt lat="59.3263659927" lon="34.6979666442"><ele>164.645</ele><time>2026-08-17T03:17:56.618Z</time><hdop>3.0</hdop><vdop>3.062</vdop><extensions><gom:speed>0.227</gom:speed></extensions></trkpt>
   <trkpt lat="59.3263671662" lon="34.6979571726"><ele>164.633</ele><time>2026-08-17T03:17:57.630Z</time><hdop>3.0</hdop><vdop>3.0</vdop><extensions><gom:speed>0.363</gom:speed></extensions></trkpt>
   <trkpt lat="59.3263683815" lon="34.6979530655"><ele>164.631</ele><time>2026-08-17T03:17:58.166Z</time><hdop>3.0</hdop><vdop>2.562</vdop><extensions><gom:speed>0.247</gom:speed></extensions></trkpt>
   <trkpt lat="59.3263687587" lon="34.6979528979"><ele>164.627</ele><time>2026-08-17T03:17:58.652Z</time><hdop>3.0</hdop><vdop>2.5</vdop><extensions><gom:speed>0.165</gom:speed></extensions></trkpt>
   <trkpt lat="59.3263697645" lon="34.6979444321"><ele>164.625</ele><time>2026-08-17T03:17:59.663Z</time><hdop>3.0</hdop><vdop>2.5</vdop><extensions><gom:speed>0.269</gom:speed></extensions></trkpt>
   <trkpt lat="59.326370477" lon="34.6979351282"><ele>164.674</ele><time>2026-08-17T03:18:00.443Z</time><hdop>3.0</hdop><vdop>2.5</vdop><extensions><gom:speed>0.317</gom:speed></extensions></trkpt>
   <trkpt lat="59.3263714828" lon="34.6979212981"><ele>164.56</ele><time>2026-08-17T03:18:01.221Z</time><hdop>3.0</hdop><vdop>2.687</vdop><extensions><gom:speed>0.379</gom:speed></extensions></trkpt>
   <trkpt lat="59.3263720696" lon="34.6979128324"><ele>164.466</ele><time>2026-08-17T03:18:01.920Z</time><hdop>3.0</hdop><vdop>2.562</vdop><extensions><gom:speed>0.385</gom:speed></extensions></trkpt>
   <trkpt lat="59.3263729916" lon="34.6979017683"><ele>164.471</ele><time>2026-08-17T03:18:02.646Z</time><hdop>3.0</hdop><vdop>2.5</vdop><extensions><gom:speed>0.451</gom:speed></extensions></trkpt>
   <trkpt lat="59.3263733688" lon="34.6978942245"><ele>164.473</ele><time>2026-08-17T03:18:03.538Z</time><hdop>3.0</hdop><vdop>2.5</vdop><extensions><gom:speed>0.356</gom:speed></extensions></trkpt>
   <trkpt lat="59.3263742908" lon="34.6978863456"><ele>164.63</ele><time>2026-08-17T03:18:04.398Z</time><hdop>3.0</hdop><vdop>2.812</vdop><extensions><gom:speed>0.348</gom:speed></extensions></trkpt>
   <trkpt lat="59.3263757995" lon="34.6978747785"><ele>165.023</ele><time>2026-08-17T03:18:05.106Z</time><hdop>3.0</hdop><vdop>2.812</vdop><extensions><gom:speed>0.331</gom:speed></extensions></trkpt>
   <trkpt lat="59.3263760929" lon="34.6978723478"><ele>165.097</ele><time>2026-08-17T03:18:05.653Z</time><hdop>3.0</hdop><vdop>3.0</vdop><extensions><gom:speed>0.233</gom:speed></extensions></trkpt>
   <trkpt lat="59.3263777693" lon="34.6978565898"><ele>165.142</ele><time>2026-08-17T03:18:06.583Z</time><hdop>3.0</hdop><vdop>3.0</vdop><extensions><gom:speed>0.337</gom:speed></extensions></trkpt>
   <trkpt lat="59.3263797809" lon="34.6978447713"><ele>165.338</ele><time>2026-08-17T03:18:07.565Z</time><hdop>3.0</hdop><vdop>3.187</vdop><extensions><gom:speed>0.317</gom:speed></extensions></trkpt>
   <trkpt lat="59.3263822955" lon="34.6978285942"><ele>165.487</ele><time>2026-08-17T03:18:08.446Z</time><hdop>3.0</hdop><vdop>3.0</vdop><extensions><gom:speed>0.334</gom:speed></extensions></trkpt>
   <trkpt lat="59.3263844748" lon="34.6978176978"><ele>165.354</ele><time>2026-08-17T03:18:09.305Z</time><hdop>3.0</hdop><vdop>2.875</vdop><extensions><gom:speed>0.334</gom:speed></extensions></trkpt>
   <trkpt lat="59.3263879952" lon="34.6978012692"><ele>165.236</ele><time>2026-08-17T03:18:10.640Z</time><hdop>3.0</hdop><vdop>2.937</vdop><extensions><gom:speed>0.409</gom:speed></extensions></trkpt>
   <trkpt lat="59.3263960837" lon="34.6977750339"><ele>165.526</ele><time>2026-08-17T03:18:11.703Z</time><hdop>3.0</hdop><vdop>2.625</vdop><extensions><gom:speed>0.333</gom:speed></extensions></trkpt>
   <trkpt lat="59.3264008614" lon="34.6977585215"><ele>165.665</ele><time>2026-08-17T03:18:12.522Z</time><hdop>3.0</hdop><vdop>2.75</vdop><extensions><gom:speed>0.45</gom:speed></extensions></trkpt>
   <trkpt lat="59.326405681" lon="34.6977428474"><ele>166.229</ele><time>2026-08-17T03:18:13.342Z</time><hdop>3.0</hdop><vdop>2.5</vdop><extensions><gom:speed>0.393</gom:speed></extensions></trkpt>
   <trkpt lat="59.3264097881" lon="34.6977268379"><ele>166.73</ele><time>2026-08-17T03:18:14.202Z</time><hdop>3.0</hdop><vdop>2.75</vdop><extensions><gom:speed>0.387</gom:speed></extensions></trkpt>
   <trkpt lat="59.3264109616" lon="34.6977215573"><ele>167.086</ele><time>2026-08-17T03:18:14.652Z</time><hdop>3.0</hdop><vdop>2.812</vdop><extensions><gom:speed>0.312</gom:speed></extensions></trkpt>
   <trkpt lat="59.3264131828" lon="34.6977123372"><ele>167.299</ele><time>2026-08-17T03:18:15.143Z</time><hdop>3.0</hdop><vdop>2.812</vdop><extensions><gom:speed>0.36</gom:speed></extensions></trkpt>
   <trkpt lat="59.3264140629" lon="34.6977073919"><ele>167.527</ele><time>2026-08-17T03:18:15.652Z</time><hdop>3.0</hdop><vdop>2.687</vdop><extensions><gom:speed>0.267</gom:speed></extensions></trkpt>
   <trkpt lat="59.32641817" lon="34.6976949867"><ele>167.663</ele><time>2026-08-17T03:18:16.660Z</time><hdop>3.0</hdop><vdop>2.687</vdop><extensions><gom:speed>0.301</gom:speed></extensions></trkpt>
   <trkpt lat="59.3264230734" lon="34.6976858504"><ele>167.989</ele><time>2026-08-17T03:18:17.439Z</time><hdop>3.0</hdop><vdop>2.75</vdop><extensions><gom:speed>0.313</gom:speed></extensions></trkpt>
   <trkpt lat="59.326429779" lon="34.6976759598"><ele>168.294</ele><time>2026-08-17T03:18:18.503Z</time><hdop>3.0</hdop><vdop>2.875</vdop><extensions><gom:speed>0.267</gom:speed></extensions></trkpt>
   <trkpt lat="59.3264347662" lon="34.6976669911"><ele>168.632</ele><time>2026-08-17T03:18:19.362Z</time><hdop>3.0</hdop><vdop>2.625</vdop><extensions><gom:speed>0.31</gom:speed></extensions></trkpt>
   <trkpt lat="59.3264381609" lon="34.6976587769"><ele>168.954</ele><time>2026-08-17T03:18:20.080Z</time><hdop>3.0</hdop><vdop>2.562</vdop><extensions><gom:speed>0.269</gom:speed></extensions></trkpt>
   <trkpt lat="59.3264406754" lon="34.6976519875"><ele>169.181</ele><time>2026-08-17T03:18:20.646Z</time><hdop>3.0</hdop><vdop>2.625</vdop><extensions><gom:speed>0.361</gom:speed></extensions></trkpt>
   <trkpt lat="59.3264433996" lon="34.6976463717"><ele>169.217</ele><time>2026-08-17T03:18:21.646Z</time><hdop>3.0</hdop><vdop>2.5</vdop><extensions><gom:speed>0.242</gom:speed></extensions></trkpt>
   <trkpt lat="59.3264446988" lon="34.6976458688"><ele>169.239</ele><time>2026-08-17T03:18:22.646Z</time><hdop>3.0</hdop><vdop>2.562</vdop><extensions><gom:speed>0.152</gom:speed></extensions></trkpt>
   <trkpt lat="59.3264452855" lon="34.6976460364"><ele>169.252</ele><time>2026-08-17T03:18:23.440Z</time><hdop>3.0</hdop><vdop>2.562</vdop><extensions><gom:speed>0.151</gom:speed></extensions></trkpt>
   <trkpt lat="59.3264466685" lon="34.6976468746"><ele>168.994</ele><time>2026-08-17T03:18:24.279Z</time><hdop>3.0</hdop><vdop>2.5</vdop><extensions><gom:speed>0.135</gom:speed></extensions></trkpt>
   <trkpt lat="59.3264484706" lon="34.6976464555"><ele>168.596</ele><time>2026-08-17T03:18:25.078Z</time><hdop>3.0</hdop><vdop>2.5</vdop><extensions><gom:speed>0.152</gom:speed></extensions></trkpt>
   <trkpt lat="59.3264494764" lon="34.6976453658"><ele>169.329</ele><time>2026-08-17T03:18:25.653Z</time><hdop>3.0</hdop><vdop>2.5</vdop><extensions><gom:speed>0.154</gom:speed></extensions></trkpt>
   <trkpt lat="59.3264544637" lon="34.6976435218"><ele>169.861</ele><time>2026-08-17T03:18:26.652Z</time><hdop>3.0</hdop><vdop>2.5</vdop><extensions><gom:speed>0.163</gom:speed></extensions></trkpt>
   <trkpt lat="59.3264590737" lon="34.6976431865"><ele>170.174</ele><time>2026-08-17T03:18:27.652Z</time><hdop>3.0</hdop><vdop>2.5</vdop><extensions><gom:speed>0.162</gom:speed></extensions></trkpt>
   <trkpt lat="59.3264636838" lon="34.6976442762"><ele>170.361</ele><time>2026-08-17T03:18:28.652Z</time><hdop>3.0</hdop><vdop>2.5</vdop><extensions><gom:speed>0.109</gom:speed></extensions></trkpt>
   <trkpt lat="59.3264673718" lon="34.6976470422"><ele>170.473</ele><time>2026-08-17T03:18:29.652Z</time><hdop>3.0</hdop><vdop>2.5</vdop><extensions><gom:speed>0.069</gom:speed></extensions></trkpt>
   <trkpt lat="59.3264705988" lon="34.6976496406"><ele>170.539</ele><time>2026-08-17T03:18:30.652Z</time><hdop>3.0</hdop><vdop>2.5</vdop><extensions><gom:speed>0.048</gom:speed></extensions></trkpt>
   <trkpt lat="59.3264754603" lon="34.697654083"><ele>170.578</ele><time>2026-08-17T03:18:31.646Z</time><hdop>3.0</hdop><vdop>2.5</vdop><extensions><gom:speed>0.098</gom:speed></extensions></trkpt>
   <trkpt lat="59.3264772625" lon="34.6976549212"><ele>170.57</ele><time>2026-08-17T03:18:32.652Z</time><hdop>3.0</hdop><vdop>2.5</vdop><extensions><gom:speed>0.027</gom:speed></extensions></trkpt>
   <trkpt lat="59.3264786874" lon="34.6976572681"><ele>170.668</ele><time>2026-08-17T03:18:33.652Z</time><hdop>3.0</hdop><vdop>2.5</vdop><extensions><gom:speed>0.028</gom:speed></extensions></trkpt>
   <trkpt lat="59.3264803638" lon="34.6976589445"><ele>170.7</ele><time>2026-08-17T03:18:34.659Z</time><hdop>3.0</hdop><vdop>2.5</vdop><extensions><gom:speed>0.033</gom:speed></extensions></trkpt>
   <trkpt lat="59.3264826688" lon="34.6976603694"><ele>170.721</ele><time>2026-08-17T03:18:35.646Z</time><hdop>3.0</hdop><vdop>2.5</vdop><extensions><gom:speed>0.071</gom:speed></extensions></trkpt>
   <trkpt lat="59.3264841775" lon="34.6976612915"><ele>170.73</ele><time>2026-08-17T03:18:36.646Z</time><hdop>3.0</hdop><vdop>2.5</vdop><extensions><gom:speed>0.098</gom:speed></extensions></trkpt>
   <trkpt lat="59.3264847643" lon="34.6976612915"><ele>170.418</ele><time>2026-08-17T03:18:37.654Z</time><hdop>3.0</hdop><vdop>2.5</vdop><extensions><gom:speed>0.051</gom:speed></extensions></trkpt>
   <trkpt lat="59.3264851833" lon="34.6976603694"><ele>169.592</ele><time>2026-08-17T03:18:38.666Z</time><hdop>3.0</hdop><vdop>2.5</vdop><extensions><gom:speed>0.101</gom:speed></extensions></trkpt>
   <trkpt lat="59.3264845966" lon="34.6976585254"><ele>168.448</ele><time>2026-08-17T03:18:39.652Z</time><hdop>3.0</hdop><vdop>2.5</vdop><extensions><gom:speed>0.096</gom:speed></extensions></trkpt>
   <trkpt lat="59.326482585" lon="34.6976579387"><ele>167.681</ele><time>2026-08-17T03:18:40.652Z</time><hdop>3.0</hdop><vdop>2.5</vdop><extensions><gom:speed>0.106</gom:speed></extensions></trkpt>
   <trkpt lat="59.3264803638" lon="34.6976577711"><ele>167.222</ele><time>2026-08-17T03:18:41.458Z</time><hdop>3.0</hdop><vdop>2.5</vdop><extensions><gom:speed>0.142</gom:speed></extensions></trkpt>
   <trkpt lat="59.3264771786" lon="34.6976563461"><ele>166.803</ele><time>2026-08-17T03:18:42.207Z</time><hdop>3.0</hdop><vdop>2.5</vdop><extensions><gom:speed>0.219</gom:speed></extensions></trkpt>
   <trkpt lat="59.3264733649" lon="34.6976525743"><ele>166.437</ele><time>2026-08-17T03:18:42.885Z</time><hdop>3.0</hdop><vdop>2.562</vdop><extensions><gom:speed>0.33</gom:speed></extensions></trkpt>
   <trkpt lat="59.3264731972" lon="34.6976477966"><ele>166.218</ele><time>2026-08-17T03:18:43.643Z</time><hdop>3.0</hdop><vdop>2.562</vdop><extensions><gom:speed>0.344</gom:speed></extensions></trkpt>
   <trkpt lat="59.3264708922" lon="34.6976422645"><ele>165.97</ele><time>2026-08-17T03:18:44.463Z</time><hdop>3.0</hdop><vdop>2.75</vdop><extensions><gom:speed>0.371</gom:speed></extensions></trkpt>
   <trkpt lat="59.3264682938" lon="34.6976394985"><ele>165.706</ele><time>2026-08-17T03:18:45.364Z</time><hdop>3.0</hdop><vdop>2.812</vdop><extensions><gom:speed>0.307</gom:speed></extensions></trkpt>
   <trkpt lat="59.3264641867" lon="34.6976372354"><ele>165.54</ele><time>2026-08-17T03:18:46.385Z</time><hdop>3.0</hdop><vdop>2.875</vdop><extensions><gom:speed>0.265</gom:speed></extensions></trkpt>
   <trkpt lat="59.3264639771" lon="34.6976281829"><ele>165.578</ele><time>2026-08-17T03:18:47.286Z</time><hdop>3.0</hdop><vdop>2.5</vdop><extensions><gom:speed>0.405</gom:speed></extensions></trkpt>
   <trkpt lat="59.3264645639" lon="34.6976196334"><ele>165.483</ele><time>2026-08-17T03:18:48.085Z</time><hdop>3.0</hdop><vdop>2.5</vdop><extensions><gom:speed>0.397</gom:speed></extensions></trkpt>
   <trkpt lat="59.3264651925" lon="34.6976156939"><ele>165.513</ele><time>2026-08-17T03:18:48.662Z</time><hdop>3.0</hdop><vdop>2.687</vdop><extensions><gom:speed>0.276</gom:speed></extensions></trkpt>
   <trkpt lat="59.3264658631" lon="34.6976033725"><ele>165.532</ele><time>2026-08-17T03:18:49.521Z</time><hdop>3.0</hdop><vdop>2.687</vdop><extensions><gom:speed>0.34</gom:speed></extensions></trkpt>
   <trkpt lat="59.326466366" lon="34.6975945715"><ele>165.571</ele><time>2026-08-17T03:18:50.139Z</time><hdop>3.0</hdop><vdop>2.937</vdop><extensions><gom:speed>0.329</gom:speed></extensions></trkpt>
   <trkpt lat="59.3264671623" lon="34.6975858543"><ele>165.527</ele><time>2026-08-17T03:18:50.647Z</time><hdop>3.0</hdop><vdop>3.062</vdop><extensions><gom:speed>0.259</gom:speed></extensions></trkpt>
   <trkpt lat="59.3264674975" lon="34.6975807414"><ele>165.501</ele><time>2026-08-17T03:18:51.707Z</time><hdop>3.0</hdop><vdop>3.062</vdop><extensions><gom:speed>0.08</gom:speed></extensions></trkpt>
   <trkpt lat="59.3264676652" lon="34.6975723595"><ele>165.843</ele><time>2026-08-17T03:18:52.652Z</time><hdop>3.0</hdop><vdop>3.437</vdop><extensions><gom:speed>0.093</gom:speed></extensions></trkpt>
   <trkpt lat="59.3264689644" lon="34.6975671627"><ele>166.2</ele><time>2026-08-17T03:18:53.660Z</time><hdop>3.0</hdop><vdop>3.625</vdop><extensions><gom:speed>0.126</gom:speed></extensions></trkpt>
   <trkpt lat="59.326476089" lon="34.6975604572"><ele>166.405</ele><time>2026-08-17T03:18:54.646Z</time><hdop>3.0</hdop><vdop>3.187</vdop><extensions><gom:speed>0.226</gom:speed></extensions></trkpt>
   <trkpt lat="59.3264784778" lon="34.6975575235"><ele>167.178</ele><time>2026-08-17T03:18:55.652Z</time><hdop>3.0</hdop><vdop>3.375</vdop><extensions><gom:speed>0.244</gom:speed></extensions></trkpt>
   <trkpt lat="59.3264924756" lon="34.6975469623"><ele>167.64</ele><time>2026-08-17T03:18:56.664Z</time><hdop>3.0</hdop><vdop>3.375</vdop><extensions><gom:speed>0.631</gom:speed></extensions></trkpt>
   <trkpt lat="59.3264976724" lon="34.6975450345"><ele>167.781</ele><time>2026-08-17T03:18:57.140Z</time><hdop>3.0</hdop><vdop>3.375</vdop><extensions><gom:speed>0.483</gom:speed></extensions></trkpt>
   <trkpt lat="59.326500187" lon="34.6975433581"><ele>168.0</ele><time>2026-08-17T03:18:57.653Z</time><hdop>3.0</hdop><vdop>3.437</vdop><extensions><gom:speed>0.401</gom:speed></extensions></trkpt>
   <trkpt lat="59.326504797" lon="34.6975397539"><ele>168.13</ele><time>2026-08-17T03:18:58.182Z</time><hdop>3.0</hdop><vdop>3.437</vdop><extensions><gom:speed>0.468</gom:speed></extensions></trkpt>
   <trkpt lat="59.3265069763" lon="34.6975370716"><ele>167.921</ele><time>2026-08-17T03:18:58.652Z</time><hdop>3.0</hdop><vdop>3.062</vdop><extensions><gom:speed>0.38</gom:speed></extensions></trkpt>
   <trkpt lat="59.3265098681" lon="34.697535982"><ele>167.805</ele><time>2026-08-17T03:18:59.652Z</time><hdop>3.0</hdop><vdop>3.0</vdop><extensions><gom:speed>0.239</gom:speed></extensions></trkpt>
   <trkpt lat="59.3265110834" lon="34.6975361496"><ele>167.735</ele><time>2026-08-17T03:19:00.661Z</time><hdop>3.0</hdop><vdop>3.062</vdop><extensions><gom:speed>0.134</gom:speed></extensions></trkpt>
   <trkpt lat="59.3265119635" lon="34.6975367364"><ele>167.692</ele><time>2026-08-17T03:19:01.339Z</time><hdop>3.0</hdop><vdop>3.062</vdop><extensions><gom:speed>0.143</gom:speed></extensions></trkpt>
   <trkpt lat="59.3265127598" lon="34.6975382451"><ele>167.543</ele><time>2026-08-17T03:19:01.987Z</time><hdop>3.0</hdop><vdop>3.062</vdop><extensions><gom:speed>0.153</gom:speed></extensions></trkpt>
   <trkpt lat="59.3265133885" lon="34.6975388318"><ele>167.538</ele><time>2026-08-17T03:19:02.652Z</time><hdop>3.0</hdop><vdop>3.062</vdop><extensions><gom:speed>0.114</gom:speed></extensions></trkpt>
   <trkpt lat="59.3265161964" lon="34.6975424361"><ele>167.546</ele><time>2026-08-17T03:19:03.652Z</time><hdop>3.0</hdop><vdop>3.0</vdop><extensions><gom:speed>0.144</gom:speed></extensions></trkpt>
   <trkpt lat="59.3265213932" lon="34.6975455374"><ele>167.671</ele><time>2026-08-17T03:19:04.647Z</time><hdop>3.0</hdop><vdop>2.687</vdop><extensions><gom:speed>0.248</gom:speed></extensions></trkpt>
   <trkpt lat="59.3265231953" lon="34.6975488901"><ele>167.903</ele><time>2026-08-17T03:19:05.659Z</time><hdop>3.0</hdop><vdop>2.625</vdop><extensions><gom:speed>0.188</gom:speed></extensions></trkpt>
   <trkpt lat="59.3265266738" lon="34.6975541707"><ele>168.042</ele><time>2026-08-17T03:19:06.660Z</time><hdop>3.0</hdop><vdop>2.625</vdop><extensions><gom:speed>0.221</gom:speed></extensions></trkpt>
   <trkpt lat="59.3265326668" lon="34.6975571882"><ele>168.219</ele><time>2026-08-17T03:19:07.642Z</time><hdop>3.0</hdop><vdop>2.75</vdop><extensions><gom:speed>0.335</gom:speed></extensions></trkpt>
   <trkpt lat="59.3265382827" lon="34.6975602895"><ele>168.934</ele><time>2026-08-17T03:19:08.117Z</time><hdop>3.0</hdop><vdop>2.5</vdop><extensions><gom:speed>0.305</gom:speed></extensions></trkpt>
   <trkpt lat="59.3265410906" lon="34.6975615468"><ele>169.362</ele><time>2026-08-17T03:19:08.643Z</time><hdop>3.0</hdop><vdop>2.5</vdop><extensions><gom:speed>0.324</gom:speed></extensions></trkpt>
   <trkpt lat="59.3265445691" lon="34.6975638937"><ele>169.479</ele><time>2026-08-17T03:19:09.564Z</time><hdop>3.0</hdop><vdop>2.562</vdop><extensions><gom:speed>0.23</gom:speed></extensions></trkpt>
   <trkpt lat="59.3265526996" lon="34.6975650672"><ele>169.742</ele><time>2026-08-17T03:19:10.363Z</time><hdop>3.0</hdop><vdop>2.687</vdop><extensions><gom:speed>0.393</gom:speed></extensions></trkpt>
   <trkpt lat="59.3265598661" lon="34.6975663245"><ele>169.722</ele><time>2026-08-17T03:19:11.203Z</time><hdop>3.0</hdop><vdop>2.875</vdop><extensions><gom:speed>0.338</gom:speed></extensions></trkpt>
   <trkpt lat="59.3265635961" lon="34.6975678332"><ele>169.72</ele><time>2026-08-17T03:19:11.719Z</time><hdop>3.0</hdop><vdop>2.875</vdop><extensions><gom:speed>0.228</gom:speed></extensions></trkpt>
   <trkpt lat="59.3265646857" lon="34.6975686714"><ele>169.672</ele><time>2026-08-17T03:19:12.652Z</time><hdop>3.0</hdop><vdop>3.0</vdop><extensions><gom:speed>0.149</gom:speed></extensions></trkpt>
   <trkpt lat="59.3265679966" lon="34.697569342"><ele>169.643</ele><time>2026-08-17T03:19:13.601Z</time><hdop>3.0</hdop><vdop>3.0</vdop><extensions><gom:speed>0.178</gom:speed></extensions></trkpt>
   <trkpt lat="59.3265718941" lon="34.6975695934"><ele>169.466</ele><time>2026-08-17T03:19:14.420Z</time><hdop>3.0</hdop><vdop>3.125</vdop><extensions><gom:speed>0.155</gom:speed></extensions></trkpt>
   <trkpt lat="59.3265737801" lon="34.697569342"><ele>169.234</ele><time>2026-08-17T03:19:15.280Z</time><hdop>3.0</hdop><vdop>2.812</vdop><extensions><gom:speed>0.183</gom:speed></extensions></trkpt>
   <trkpt lat="59.3265762946" lon="34.6975676656"><ele>169.202</ele><time>2026-08-17T03:19:16.140Z</time><hdop>3.0</hdop><vdop>2.875</vdop><extensions><gom:speed>0.158</gom:speed></extensions></trkpt>
   <trkpt lat="59.3265774681" lon="34.6975672465"><ele>169.141</ele><time>2026-08-17T03:19:16.652Z</time><hdop>3.0</hdop><vdop>2.562</vdop><extensions><gom:speed>0.14</gom:speed></extensions></trkpt>
   <trkpt lat="59.3265813657" lon="34.6975658216"><ele>169.08</ele><time>2026-08-17T03:19:17.659Z</time><hdop>3.0</hdop><vdop>2.5</vdop><extensions><gom:speed>0.201</gom:speed></extensions></trkpt>
   <trkpt lat="59.3265850956" lon="34.6975647319"><ele>168.789</ele><time>2026-08-17T03:19:18.652Z</time><hdop>3.0</hdop><vdop>2.5</vdop><extensions><gom:speed>0.155</gom:speed></extensions></trkpt>
   <trkpt lat="59.3265871911" lon="34.6975634746"><ele>168.615</ele><time>2026-08-17T03:19:19.398Z</time><hdop>3.0</hdop><vdop>2.5</vdop><extensions><gom:speed>0.154</gom:speed></extensions></trkpt>
   <trkpt lat="59.3265891609" lon="34.6975627203"><ele>168.42</ele><time>2026-08-17T03:19:20.147Z</time><hdop>3.0</hdop><vdop>2.562</vdop><extensions><gom:speed>0.175</gom:speed></extensions></trkpt>
   <trkpt lat="59.326589999" lon="34.6975627203"><ele>168.148</ele><time>2026-08-17T03:19:20.653Z</time><hdop>3.0</hdop><vdop>2.5</vdop><extensions><gom:speed>0.155</gom:speed></extensions></trkpt>
   <trkpt lat="59.3265927651" lon="34.6975624688"><ele>167.986</ele><time>2026-08-17T03:19:21.361Z</time><hdop>3.0</hdop><vdop>2.5</vdop><extensions><gom:speed>0.196</gom:speed></extensions></trkpt>
   <trkpt lat="59.3265949863" lon="34.6975616306"><ele>167.813</ele><time>2026-08-17T03:19:22.202Z</time><hdop>3.0</hdop><vdop>2.5</vdop><extensions><gom:speed>0.173</gom:speed></extensions></trkpt>
   <trkpt lat="59.3265957826" lon="34.6975615468"><ele>167.605</ele><time>2026-08-17T03:19:22.652Z</time><hdop>3.0</hdop><vdop>2.5</vdop><extensions><gom:speed>0.142</gom:speed></extensions></trkpt>
   <trkpt lat="59.3265968722" lon="34.697560541"><ele>167.48</ele><time>2026-08-17T03:19:23.121Z</time><hdop>3.0</hdop><vdop>2.5</vdop><extensions><gom:speed>0.165</gom:speed></extensions></trkpt>
   <trkpt lat="59.326597878" lon="34.6975602895"><ele>167.504</ele><time>2026-08-17T03:19:23.647Z</time><hdop>3.0</hdop><vdop>2.5</vdop><extensions><gom:speed>0.184</gom:speed></extensions></trkpt>
   <trkpt lat="59.3265989677" lon="34.6975591999"><ele>167.519</ele><time>2026-08-17T03:19:24.639Z</time><hdop>3.0</hdop><vdop>2.5</vdop><extensions><gom:speed>0.186</gom:speed></extensions></trkpt>
   <trkpt lat="59.3265996801" lon="34.6975567691"><ele>167.618</ele><time>2026-08-17T03:19:25.246Z</time><hdop>3.0</hdop><vdop>2.5</vdop><extensions><gom:speed>0.161</gom:speed></extensions></trkpt>
   <trkpt lat="59.3266010632" lon="34.6975543384"><ele>167.788</ele><time>2026-08-17T03:19:26.106Z</time><hdop>3.0</hdop><vdop>2.5</vdop><extensions><gom:speed>0.16</gom:speed></extensions></trkpt>
   <trkpt lat="59.3266018594" lon="34.697553584"><ele>167.625</ele><time>2026-08-17T03:19:26.653Z</time><hdop>3.0</hdop><vdop>2.5</vdop><extensions><gom:speed>0.13</gom:speed></extensions></trkpt>
   <trkpt lat="59.3266038711" lon="34.6975503989"><ele>167.528</ele><time>2026-08-17T03:19:27.158Z</time><hdop>3.0</hdop><vdop>2.5</vdop><extensions><gom:speed>0.168</gom:speed></extensions></trkpt>
   <trkpt lat="59.3266051703" lon="34.6975492254"><ele>167.466</ele><time>2026-08-17T03:19:27.654Z</time><hdop>3.0</hdop><vdop>2.5</vdop><extensions><gom:speed>0.171</gom:speed></extensions></trkpt>
   <trkpt lat="59.3266067629" lon="34.6975453697"><ele>167.429</ele><time>2026-08-17T03:19:28.139Z</time><hdop>3.0</hdop><vdop>2.5</vdop><extensions><gom:speed>0.16</gom:speed></extensions></trkpt>
   <trkpt lat="59.326608062" lon="34.6975443639"><ele>167.407</ele><time>2026-08-17T03:19:28.625Z</time><hdop>3.0</hdop><vdop>2.5</vdop><extensions><gom:speed>0.181</gom:speed></extensions></trkpt>
   <trkpt lat="59.3266105766" lon="34.6975367364"><ele>167.394</ele><time>2026-08-17T03:19:29.646Z</time><hdop>3.0</hdop><vdop>2.5</vdop><extensions><gom:speed>0.134</gom:speed></extensions></trkpt>
   <trkpt lat="59.3266110795" lon="34.69753506"><ele>167.388</ele><time>2026-08-17T03:19:30.652Z</time><hdop>3.0</hdop><vdop>2.5</vdop><extensions><gom:speed>0.063</gom:speed></extensions></trkpt>
   <trkpt lat="59.3266112891" lon="34.697531372"><ele>167.39</ele><time>2026-08-17T03:19:31.652Z</time><hdop>3.0</hdop><vdop>2.5</vdop><extensions><gom:speed>0.036</gom:speed></extensions></trkpt>
   <trkpt lat="59.3266126721" lon="34.6975272648"><ele>167.399</ele><time>2026-08-17T03:19:32.647Z</time><hdop>3.0</hdop><vdop>2.5</vdop><extensions><gom:speed>0.061</gom:speed></extensions></trkpt>
   <trkpt lat="59.3266135941" lon="34.6975246664"><ele>167.412</ele><time>2026-08-17T03:19:33.645Z</time><hdop>3.0</hdop><vdop>2.5</vdop><extensions><gom:speed>0.075</gom:speed></extensions></trkpt>
   <trkpt lat="59.3266129655" lon="34.6975226548"><ele>167.711</ele><time>2026-08-17T03:19:34.655Z</time><hdop>3.0</hdop><vdop>2.5</vdop><extensions><gom:speed>0.017</gom:speed></extensions></trkpt>
   <trkpt lat="59.3266139713" lon="34.6975209784"><ele>167.89</ele><time>2026-08-17T03:19:35.282Z</time><hdop>3.0</hdop><vdop>2.5</vdop><extensions><gom:speed>0.101</gom:speed></extensions></trkpt>
   <trkpt lat="59.3266166954" lon="34.6975207269"><ele>168.148</ele><time>2026-08-17T03:19:36.658Z</time><hdop>3.0</hdop><vdop>2.5</vdop><extensions><gom:speed>0.048</gom:speed></extensions></trkpt>
   <trkpt lat="59.3266187909" lon="34.6975197211"><ele>168.213</ele><time>2026-08-17T03:19:37.346Z</time><hdop>3.0</hdop><vdop>2.5</vdop><extensions><gom:speed>0.085</gom:speed></extensions></trkpt>
   <trkpt lat="59.3266201739" lon="34.6975182962"><ele>168.232</ele><time>2026-08-17T03:19:37.822Z</time><hdop>3.0</hdop><vdop>2.5</vdop><extensions><gom:speed>0.06</gom:speed></extensions></trkpt>
   <trkpt lat="59.3266212635" lon="34.6975175418"><ele>168.585</ele><time>2026-08-17T03:19:38.652Z</time><hdop>3.0</hdop><vdop>2.5</vdop><extensions><gom:speed>0.081</gom:speed></extensions></trkpt>
   <trkpt lat="59.3266245744" lon="34.6975159493"><ele>168.795</ele><time>2026-08-17T03:19:39.683Z</time><hdop>3.0</hdop><vdop>2.5</vdop><extensions><gom:speed>0.116</gom:speed></extensions></trkpt>
   <trkpt lat="59.3266280948" lon="34.6975149434"><ele>168.577</ele><time>2026-08-17T03:19:40.482Z</time><hdop>3.0</hdop><vdop>2.5</vdop><extensions><gom:speed>0.144</gom:speed></extensions></trkpt>
   <trkpt lat="59.3266308608" lon="34.6975148596"><ele>168.406</ele><time>2026-08-17T03:19:41.656Z</time><hdop>3.0</hdop><vdop>2.5</vdop><extensions><gom:speed>0.077</gom:speed></extensions></trkpt>
   <trkpt lat="59.3266347584" lon="34.6975139376"><ele>168.175</ele><time>2026-08-17T03:19:42.646Z</time><hdop>3.0</hdop><vdop>2.5</vdop><extensions><gom:speed>0.108</gom:speed></extensions></trkpt>
   <trkpt lat="59.3266365605" lon="34.6975131832"><ele>167.949</ele><time>2026-08-17T03:19:43.652Z</time><hdop>3.0</hdop><vdop>2.5</vdop><extensions><gom:speed>0.08</gom:speed></extensions></trkpt>
   <trkpt lat="59.3266393685" lon="34.697513267"><ele>167.814</ele><time>2026-08-17T03:19:44.480Z</time><hdop>3.0</hdop><vdop>2.5</vdop><extensions><gom:speed>0.104</gom:speed></extensions></trkpt>
   <trkpt lat="59.3266419668" lon="34.6975140214"><ele>167.756</ele><time>2026-08-17T03:19:45.652Z</time><hdop>3.0</hdop><vdop>2.5</vdop><extensions><gom:speed>0.103</gom:speed></extensions></trkpt>
   <trkpt lat="59.3266444814" lon="34.6975145243"><ele>167.722</ele><time>2026-08-17T03:19:46.421Z</time><hdop>3.0</hdop><vdop>2.5</vdop><extensions><gom:speed>0.124</gom:speed></extensions></trkpt>
   <trkpt lat="59.3266461997" lon="34.6975135185"><ele>167.409</ele><time>2026-08-17T03:19:47.161Z</time><hdop>3.0</hdop><vdop>2.5</vdop><extensions><gom:speed>0.171</gom:speed></extensions></trkpt>
   <trkpt lat="59.3266502649" lon="34.6975101657"><ele>167.164</ele><time>2026-08-17T03:19:47.646Z</time><hdop>3.0</hdop><vdop>2.5</vdop><extensions><gom:speed>0.211</gom:speed></extensions></trkpt>
   <trkpt lat="59.3266519832" lon="34.6975098305"><ele>167.017</ele><time>2026-08-17T03:19:48.283Z</time><hdop>3.0</hdop><vdop>2.5</vdop><extensions><gom:speed>0.264</gom:speed></extensions></trkpt>
   <trkpt lat="59.3266543721" lon="34.6975072321"><ele>166.7</ele><time>2026-08-17T03:19:49.345Z</time><hdop>3.0</hdop><vdop>2.5</vdop><extensions><gom:speed>0.207</gom:speed></extensions></trkpt>
   <trkpt lat="59.3266576829" lon="34.6975046337"><ele>166.655</ele><time>2026-08-17T03:19:50.286Z</time><hdop>3.0</hdop><vdop>2.5</vdop><extensions><gom:speed>0.236</gom:speed></extensions></trkpt>
   <trkpt lat="59.3266598622" lon="34.6975045499"><ele>166.485</ele><time>2026-08-17T03:19:51.005Z</time><hdop>3.0</hdop><vdop>2.5</vdop><extensions><gom:speed>0.222</gom:speed></extensions></trkpt>
   <trkpt lat="59.3266616643" lon="34.6975025382"><ele>166.241</ele><time>2026-08-17T03:19:51.646Z</time><hdop>3.0</hdop><vdop>2.5</vdop><extensions><gom:speed>0.181</gom:speed></extensions></trkpt>
   <trkpt lat="59.3266647656" lon="34.6975004427"><ele>166.097</ele><time>2026-08-17T03:19:52.646Z</time><hdop>3.0</hdop><vdop>2.5</vdop><extensions><gom:speed>0.154</gom:speed></extensions></trkpt>
   <trkpt lat="59.3266664839" lon="34.697498934"><ele>165.923</ele><time>2026-08-17T03:19:53.655Z</time><hdop>3.0</hdop><vdop>2.5</vdop><extensions><gom:speed>0.086</gom:speed></extensions></trkpt>
   <trkpt lat="59.3266677831" lon="34.6974967547"><ele>165.819</ele><time>2026-08-17T03:19:54.141Z</time><hdop>3.0</hdop><vdop>2.5</vdop><extensions><gom:speed>0.119</gom:speed></extensions></trkpt>
   <trkpt lat="59.3266692919" lon="34.6974943239"><ele>165.761</ele><time>2026-08-17T03:19:54.646Z</time><hdop>3.0</hdop><vdop>2.5</vdop><extensions><gom:speed>0.125</gom:speed></extensions></trkpt>
   <trkpt lat="59.326670172" lon="34.6974935696"><ele>165.753</ele><time>2026-08-17T03:19:55.679Z</time><hdop>3.0</hdop><vdop>2.5</vdop><extensions><gom:speed>0.086</gom:speed></extensions></trkpt>
   <trkpt lat="59.3266730637" lon="34.6974915579"><ele>165.749</ele><time>2026-08-17T03:19:56.579Z</time><hdop>3.0</hdop><vdop>2.5</vdop><extensions><gom:speed>0.157</gom:speed></extensions></trkpt>
   <trkpt lat="59.3266787634" lon="34.697491055"><ele>165.74</ele><time>2026-08-17T03:19:57.500Z</time><hdop>3.0</hdop><vdop>2.5</vdop><extensions><gom:speed>0.263</gom:speed></extensions></trkpt>
   <trkpt lat="59.3266841697" lon="34.6974914741"><ele>165.473</ele><time>2026-08-17T03:19:58.340Z</time><hdop>3.0</hdop><vdop>2.5</vdop><extensions><gom:speed>0.32</gom:speed></extensions></trkpt>
   <trkpt lat="59.3266897856" lon="34.6974909712"><ele>165.263</ele><time>2026-08-17T03:19:58.947Z</time><hdop>3.0</hdop><vdop>2.5</vdop><extensions><gom:speed>0.347</gom:speed></extensions></trkpt>
   <trkpt lat="59.326693767" lon="34.697490133"><ele>165.293</ele><time>2026-08-17T03:19:59.646Z</time><hdop>3.0</hdop><vdop>2.5</vdop><extensions><gom:speed>0.311</gom:speed></extensions></trkpt>
   <trkpt lat="59.3266996763" lon="34.6974893786"><ele>165.398</ele><time>2026-08-17T03:20:00.646Z</time><hdop>3.0</hdop><vdop>2.5</vdop><extensions><gom:speed>0.355</gom:speed></extensions></trkpt>
   <trkpt lat="59.3267045797" lon="34.6974877861"><ele>165.462</ele><time>2026-08-17T03:20:01.648Z</time><hdop>3.0</hdop><vdop>2.5</vdop><extensions><gom:speed>0.383</gom:speed></extensions></trkpt>
   <trkpt lat="59.3267085611" lon="34.6974803262"><ele>165.489</ele><time>2026-08-17T03:20:02.646Z</time><hdop>3.0</hdop><vdop>2.5</vdop><extensions><gom:speed>0.266</gom:speed></extensions></trkpt>
   <trkpt lat="59.3267104889" lon="34.6974760514"><ele>165.506</ele><time>2026-08-17T03:20:03.398Z</time><hdop>3.0</hdop><vdop>2.5</vdop><extensions><gom:speed>0.294</gom:speed></extensions></trkpt>
   <trkpt lat="59.3267125844" lon="34.6974731177"><ele>165.507</ele><time>2026-08-17T03:20:04.299Z</time><hdop>3.0</hdop><vdop>2.5</vdop><extensions><gom:speed>0.263</gom:speed></extensions></trkpt>
   <trkpt lat="59.3267157695" lon="34.6974707708"><ele>165.79</ele><time>2026-08-17T03:20:04.906Z</time><hdop>3.0</hdop><vdop>2.5</vdop><extensions><gom:speed>0.291</gom:speed></extensions></trkpt>
   <trkpt lat="59.3267192899" lon="34.6974677533"><ele>165.96</ele><time>2026-08-17T03:20:05.624Z</time><hdop>3.0</hdop><vdop>2.5</vdop><extensions><gom:speed>0.302</gom:speed></extensions></trkpt>
   <trkpt lat="59.3267234809" lon="34.6974657417"><ele>166.155</ele><time>2026-08-17T03:20:06.180Z</time><hdop>3.0</hdop><vdop>2.5</vdop><extensions><gom:speed>0.266</gom:speed></extensions></trkpt>
   <trkpt lat="59.3267255763" lon="34.6974647358"><ele>166.141</ele><time>2026-08-17T03:20:06.652Z</time><hdop>3.0</hdop><vdop>2.5</vdop><extensions><gom:speed>0.193</gom:speed></extensions></trkpt>
   <trkpt lat="59.3267300607" lon="34.697461886"><ele>166.122</ele><time>2026-08-17T03:20:07.652Z</time><hdop>3.0</hdop><vdop>2.5</vdop><extensions><gom:speed>0.144</gom:speed></extensions></trkpt>
   <trkpt lat="59.3267316951" lon="34.6974601258"><ele>166.111</ele><time>2026-08-17T03:20:08.652Z</time><hdop>3.0</hdop><vdop>2.5</vdop><extensions><gom:speed>0.057</gom:speed></extensions></trkpt>
   <trkpt lat="59.3267347964" lon="34.6974583656"><ele>166.103</ele><time>2026-08-17T03:20:09.645Z</time><hdop>3.0</hdop><vdop>2.5</vdop><extensions><gom:speed>0.089</gom:speed></extensions></trkpt>
   <trkpt lat="59.3267358861" lon="34.697457695"><ele>166.099</ele><time>2026-08-17T03:20:10.652Z</time><hdop>3.0</hdop><vdop>2.5</vdop><extensions><gom:speed>0.018</gom:speed></extensions></trkpt>
   <trkpt lat="59.3267374786" lon="34.6974571921"><ele>166.098</ele><time>2026-08-17T03:20:11.646Z</time><hdop>3.0</hdop><vdop>2.5</vdop><extensions><gom:speed>0.061</gom:speed></extensions></trkpt>
   <trkpt lat="59.3267383587" lon="34.6974578627"><ele>166.1</ele><time>2026-08-17T03:20:12.652Z</time><hdop>3.0</hdop><vdop>2.5</vdop><extensions><gom:speed>0.012</gom:speed></extensions></trkpt>
   <trkpt lat="59.3267387778" lon="34.6974571921"><ele>165.997</ele><time>2026-08-17T03:20:13.645Z</time><hdop>3.0</hdop><vdop>2.5</vdop><extensions><gom:speed>0.062</gom:speed></extensions></trkpt>
   <trkpt lat="59.3267385683" lon="34.6974569407"><ele>165.959</ele><time>2026-08-17T03:20:14.652Z</time><hdop>3.0</hdop><vdop>2.562</vdop><extensions><gom:speed>0.021</gom:speed></extensions></trkpt>
   <trkpt lat="59.3267388616" lon="34.697456773"><ele>165.933</ele><time>2026-08-17T03:20:15.653Z</time><hdop>3.0</hdop><vdop>2.5</vdop><extensions><gom:speed>0.024</gom:speed></extensions></trkpt>
   <trkpt lat="59.326740077" lon="34.6974572759"><ele>165.92</ele><time>2026-08-17T03:20:16.652Z</time><hdop>3.0</hdop><vdop>2.5</vdop><extensions><gom:speed>0.031</gom:speed></extensions></trkpt>
   <trkpt lat="59.3267412924" lon="34.6974562701"><ele>165.914</ele><time>2026-08-17T03:20:17.652Z</time><hdop>3.0</hdop><vdop>2.5</vdop><extensions><gom:speed>0.028</gom:speed></extensions></trkpt>
   <trkpt lat="59.326742382" lon="34.6974560186"><ele>165.914</ele><time>2026-08-17T03:20:18.652Z</time><hdop>3.0</hdop><vdop>2.5</vdop><extensions><gom:speed>0.017</gom:speed></extensions></trkpt>
   <trkpt lat="59.3267426754" lon="34.6974562701"><ele>165.914</ele><time>2026-08-17T03:20:19.657Z</time><hdop>3.0</hdop><vdop>2.5</vdop><extensions><gom:speed>0.016</gom:speed></extensions></trkpt>
   <trkpt lat="59.3267431783" lon="34.6974556834"><ele>165.917</ele><time>2026-08-17T03:20:20.647Z</time><hdop>3.0</hdop><vdop>2.5</vdop><extensions><gom:speed>0.061</gom:speed></extensions></trkpt>
   <trkpt lat="59.3267432621" lon="34.6974544261"><ele>165.604</ele><time>2026-08-17T03:20:21.646Z</time><hdop>3.0</hdop><vdop>2.5</vdop><extensions><gom:speed>0.099</gom:speed></extensions></trkpt>
   <trkpt lat="59.3267433879" lon="34.6974551805"><ele>165.416</ele><time>2026-08-17T03:20:22.318Z</time><hdop>3.0</hdop><vdop>2.5</vdop><extensions><gom:speed>0.075</gom:speed></extensions></trkpt>
   <trkpt lat="59.3267430945" lon="34.6974534203"><ele>165.503</ele><time>2026-08-17T03:20:23.137Z</time><hdop>3.0</hdop><vdop>2.5</vdop><extensions><gom:speed>0.079</gom:speed></extensions></trkpt>
   <trkpt lat="59.3267431783" lon="34.6974528335"><ele>165.363</ele><time>2026-08-17T03:20:23.652Z</time><hdop>3.0</hdop><vdop>2.5</vdop><extensions><gom:speed>0.093</gom:speed></extensions></trkpt>
   <trkpt lat="59.3267432621" lon="34.6974494808"><ele>165.28</ele><time>2026-08-17T03:20:24.523Z</time><hdop>3.0</hdop><vdop>2.5</vdop><extensions><gom:speed>0.126</gom:speed></extensions></trkpt>
   <trkpt lat="59.3267434717" lon="34.6974458765"><ele>165.057</ele><time>2026-08-17T03:20:25.302Z</time><hdop>3.0</hdop><vdop>2.5</vdop><extensions><gom:speed>0.136</gom:speed></extensions></trkpt>
   <trkpt lat="59.3267447709" lon="34.6974376623"><ele>165.128</ele><time>2026-08-17T03:20:26.658Z</time><hdop>3.0</hdop><vdop>2.5</vdop><extensions><gom:speed>0.174</gom:speed></extensions></trkpt>
   <trkpt lat="59.32674519" lon="34.6974288613"><ele>165.28</ele><time>2026-08-17T03:20:27.653Z</time><hdop>3.0</hdop><vdop>2.5</vdop><extensions><gom:speed>0.163</gom:speed></extensions></trkpt>
   <trkpt lat="59.3267447709" lon="34.6974189706"><ele>165.37</ele><time>2026-08-17T03:20:28.439Z</time><hdop>3.0</hdop><vdop>2.5</vdop><extensions><gom:speed>0.201</gom:speed></extensions></trkpt>
   <trkpt lat="59.3267430945" lon="34.6974122651"><ele>165.432</ele><time>2026-08-17T03:20:29.046Z</time><hdop>3.0</hdop><vdop>2.5</vdop><extensions><gom:speed>0.176</gom:speed></extensions></trkpt>
   <trkpt lat="59.3267425916" lon="34.6974093314"><ele>165.397</ele><time>2026-08-17T03:20:29.652Z</time><hdop>3.0</hdop><vdop>2.5</vdop><extensions><gom:speed>0.15</gom:speed></extensions></trkpt>
   <trkpt lat="59.3267394903" lon="34.6973990217"><ele>165.029</ele><time>2026-08-17T03:20:30.652Z</time><hdop>3.0</hdop><vdop>2.5</vdop><extensions><gom:speed>0.148</gom:speed></extensions></trkpt>
   <trkpt lat="59.3267375625" lon="34.6973915618"><ele>164.961</ele><time>2026-08-17T03:20:31.652Z</time><hdop>3.0</hdop><vdop>2.5</vdop><extensions><gom:speed>0.102</gom:speed></extensions></trkpt>
   <trkpt lat="59.3267349641" lon="34.697384521"><ele>164.92</ele><time>2026-08-17T03:20:32.243Z</time><hdop>3.0</hdop><vdop>2.5</vdop><extensions><gom:speed>0.13</gom:speed></extensions></trkpt>
   <trkpt lat="59.326732198" lon="34.6973783184"><ele>164.81</ele><time>2026-08-17T03:20:33.062Z</time><hdop>3.0</hdop><vdop>2.5</vdop><extensions><gom:speed>0.105</gom:speed></extensions></trkpt>
   <trkpt lat="59.3267317789" lon="34.6973767258"><ele>164.744</ele><time>2026-08-17T03:20:33.619Z</time><hdop>3.0</hdop><vdop>2.5</vdop><extensions><gom:speed>0.139</gom:speed></extensions></trkpt>
   <trkpt lat="59.3267323657" lon="34.6973642368"><ele>164.991</ele><time>2026-08-17T03:20:34.645Z</time><hdop>3.0</hdop><vdop>2.75</vdop><extensions><gom:speed>0.168</gom:speed></extensions></trkpt>
   <trkpt lat="59.3267339582" lon="34.6973527536"><ele>164.22</ele><time>2026-08-17T03:20:35.646Z</time><hdop>3.0</hdop><vdop>3.062</vdop><extensions><gom:speed>0.2</gom:speed></extensions></trkpt>
   <trkpt lat="59.3267349641" lon="34.6973482274"><ele>163.759</ele><time>2026-08-17T03:20:36.684Z</time><hdop>3.0</hdop><vdop>3.062</vdop><extensions><gom:speed>0.147</gom:speed></extensions></trkpt>
   <trkpt lat="59.3267332877" lon="34.6973363251"><ele>163.434</ele><time>2026-08-17T03:20:37.646Z</time><hdop>3.0</hdop><vdop>3.062</vdop><extensions><gom:speed>0.128</gom:speed></extensions></trkpt>
   <trkpt lat="59.3267327848" lon="34.6973329723"><ele>163.26</ele><time>2026-08-17T03:20:38.652Z</time><hdop>3.0</hdop><vdop>3.062</vdop><extensions><gom:speed>0.127</gom:speed></extensions></trkpt>
   <trkpt lat="59.3267306893" lon="34.6973282784"><ele>163.157</ele><time>2026-08-17T03:20:39.224Z</time><hdop>3.0</hdop><vdop>3.062</vdop><extensions><gom:speed>0.149</gom:speed></extensions></trkpt>
   <trkpt lat="59.326724361" lon="34.697317382"><ele>163.237</ele><time>2026-08-17T03:20:40.645Z</time><hdop>3.0</hdop><vdop>3.0</vdop><extensions><gom:speed>0.115</gom:speed></extensions></trkpt>
   <trkpt lat="59.3267234809" lon="34.6973155379"><ele>163.285</ele><time>2026-08-17T03:20:41.653Z</time><hdop>3.062</hdop><vdop>3.0</vdop><extensions><gom:speed>0.128</gom:speed></extensions></trkpt>
   <trkpt lat="59.3267173621" lon="34.697306234"><ele>162.687</ele><time>2026-08-17T03:20:42.646Z</time><hdop>3.062</hdop><vdop>3.375</vdop><extensions><gom:speed>0.145</gom:speed></extensions></trkpt>
   <trkpt lat="59.3267161886" lon="34.6973047253"><ele>162.33</ele><time>2026-08-17T03:20:43.180Z</time><hdop>3.062</hdop><vdop>3.375</vdop><extensions><gom:speed>0.143</gom:speed></extensions></trkpt>
   <trkpt lat="59.3267159791" lon="34.6973049768"><ele>161.778</ele><time>2026-08-17T03:20:43.653Z</time><hdop>3.0</hdop><vdop>3.625</vdop><extensions><gom:speed>0.099</gom:speed></extensions></trkpt>
   <trkpt lat="59.3267142608" lon="34.6973033842"><ele>161.449</ele><time>2026-08-17T03:20:44.303Z</time><hdop>3.0</hdop><vdop>3.625</vdop><extensions><gom:speed>0.162</gom:speed></extensions></trkpt>
   <trkpt lat="59.3267120815" lon="34.6973002829"><ele>161.042</ele><time>2026-08-17T03:20:44.859Z</time><hdop>3.0</hdop><vdop>4.062</vdop><extensions><gom:speed>0.125</gom:speed></extensions></trkpt>
   <trkpt lat="59.3267115786" lon="34.6972998638"><ele>160.8</ele><time>2026-08-17T03:20:45.658Z</time><hdop>3.0</hdop><vdop>4.062</vdop><extensions><gom:speed>0.158</gom:speed></extensions></trkpt>
   <trkpt lat="59.3267094831" lon="34.6972953376"><ele>160.528</ele><time>2026-08-17T03:20:46.518Z</time><hdop>3.0</hdop><vdop>4.375</vdop><extensions><gom:speed>0.145</gom:speed></extensions></trkpt>
   <trkpt lat="59.3267070942" lon="34.6972890511"><ele>160.132</ele><time>2026-08-17T03:20:47.399Z</time><hdop>3.0</hdop><vdop>4.625</vdop><extensions><gom:speed>0.144</gom:speed></extensions></trkpt>
   <trkpt lat="59.3267049988" lon="34.6972839382"><ele>159.844</ele><time>2026-08-17T03:20:47.925Z</time><hdop>3.0</hdop><vdop>4.125</vdop><extensions><gom:speed>0.124</gom:speed></extensions></trkpt>
   <trkpt lat="59.3267038672" lon="34.6972819265"><ele>159.675</ele><time>2026-08-17T03:20:48.652Z</time><hdop>3.0</hdop><vdop>3.812</vdop><extensions><gom:speed>0.098</gom:speed></extensions></trkpt>
   <trkpt lat="59.3267024842" lon="34.697277065"><ele>159.574</ele><time>2026-08-17T03:20:49.665Z</time><hdop>3.0</hdop><vdop>3.812</vdop><extensions><gom:speed>0.138</gom:speed></extensions></trkpt>
   <trkpt lat="59.3267005983" lon="34.6972703595"><ele>159.579</ele><time>2026-08-17T03:20:50.606Z</time><hdop>3.0</hdop><vdop>4.062</vdop><extensions><gom:speed>0.118</gom:speed></extensions></trkpt>
   <trkpt lat="59.3266986704" lon="34.6972639892"><ele>159.715</ele><time>2026-08-17T03:20:51.284Z</time><hdop>3.0</hdop><vdop>4.312</vdop><extensions><gom:speed>0.125</gom:speed></extensions></trkpt>
   <trkpt lat="59.3266973712" lon="34.6972558588"><ele>159.558</ele><time>2026-08-17T03:20:52.123Z</time><hdop>3.0</hdop><vdop>4.187</vdop><extensions><gom:speed>0.148</gom:speed></extensions></trkpt>
   <trkpt lat="59.3266972874" lon="34.697254853"><ele>159.367</ele><time>2026-08-17T03:20:52.659Z</time><hdop>3.0</hdop><vdop>4.312</vdop><extensions><gom:speed>0.1</gom:speed></extensions></trkpt>
   <trkpt lat="59.3266943957" lon="34.6972391788"><ele>158.894</ele><time>2026-08-17T03:20:53.646Z</time><hdop>3.0</hdop><vdop>4.25</vdop><extensions><gom:speed>0.123</gom:speed></extensions></trkpt>
   <trkpt lat="59.3266938927" lon="34.6972346526"><ele>159.004</ele><time>2026-08-17T03:20:54.653Z</time><hdop>3.0</hdop><vdop>4.0</vdop><extensions><gom:speed>0.092</gom:speed></extensions></trkpt>
   <trkpt lat="59.3266896599" lon="34.6972160448"><ele>159.127</ele><time>2026-08-17T03:20:55.654Z</time><hdop>3.0</hdop><vdop>3.5</vdop><extensions><gom:speed>0.135</gom:speed></extensions></trkpt>
   <trkpt lat="59.3266842955" lon="34.6971967664"><ele>159.406</ele><time>2026-08-17T03:20:56.646Z</time><hdop>3.0</hdop><vdop>3.375</vdop><extensions><gom:speed>0.111</gom:speed></extensions></trkpt>
   <trkpt lat="59.3266820743" lon="34.6971901447"><ele>159.546</ele><time>2026-08-17T03:20:57.652Z</time><hdop>3.0</hdop><vdop>3.125</vdop><extensions><gom:speed>0.045</gom:speed></extensions></trkpt>
   <trkpt lat="59.3266810684" lon="34.6971858699"><ele>159.636</ele><time>2026-08-17T03:20:58.646Z</time><hdop>3.0</hdop><vdop>3.062</vdop><extensions><gom:speed>0.076</gom:speed></extensions></trkpt>
   <trkpt lat="59.3266764584" lon="34.6971718721"><ele>159.693</ele><time>2026-08-17T03:20:59.646Z</time><hdop>3.062</hdop><vdop>3.062</vdop><extensions><gom:speed>0.088</gom:speed></extensions></trkpt>
   <trkpt lat="59.3266752849" lon="34.6971675974"><ele>159.731</ele><time>2026-08-17T03:21:00.652Z</time><hdop>3.187</hdop><vdop>2.937</vdop><extensions><gom:speed>0.038</gom:speed></extensions></trkpt>
   <trkpt lat="59.326662293" lon="34.6971261908"><ele>159.695</ele><time>2026-08-17T03:21:01.646Z</time><hdop>3.125</hdop><vdop>2.687</vdop><extensions><gom:speed>0.072</gom:speed></extensions></trkpt>
   <trkpt lat="59.3266596946" lon="34.6971180603"><ele>160.128</ele><time>2026-08-17T03:21:02.655Z</time><hdop>3.125</hdop><vdop>2.687</vdop><extensions><gom:speed>0.055</gom:speed></extensions></trkpt>
   <trkpt lat="59.3266541625" lon="34.6971043978"><ele>160.389</ele><time>2026-08-17T03:21:03.646Z</time><hdop>3.125</hdop><vdop>2.75</vdop><extensions><gom:speed>0.073</gom:speed></extensions></trkpt>
   <trkpt lat="59.3266526957" lon="34.6971005421"><ele>160.557</ele><time>2026-08-17T03:21:04.652Z</time><hdop>3.125</hdop><vdop>2.75</vdop><extensions><gom:speed>0.044</gom:speed></extensions></trkpt>
   <trkpt lat="59.3266502649" lon="34.6970946748"><ele>160.548</ele><time>2026-08-17T03:21:05.652Z</time><hdop>3.0</hdop><vdop>2.625</vdop><extensions><gom:speed>0.054</gom:speed></extensions></trkpt>
   <trkpt lat="59.3266447748" lon="34.6970827725"><ele>160.264</ele><time>2026-08-17T03:21:06.645Z</time><hdop>3.0</hdop><vdop>2.75</vdop><extensions><gom:speed>0.136</gom:speed></extensions></trkpt>
   <trkpt lat="59.3266431822" lon="34.6970801741"><ele>160.095</ele><time>2026-08-17T03:21:07.522Z</time><hdop>3.0</hdop><vdop>2.75</vdop><extensions><gom:speed>0.111</gom:speed></extensions></trkpt>
   <trkpt lat="59.3266407934" lon="34.6970773243"><ele>159.817</ele><time>2026-08-17T03:21:08.282Z</time><hdop>3.0</hdop><vdop>3.125</vdop><extensions><gom:speed>0.13</gom:speed></extensions></trkpt>
   <trkpt lat="59.3266387817" lon="34.6970750611"><ele>159.743</ele><time>2026-08-17T03:21:08.746Z</time><hdop>3.0</hdop><vdop>3.437</vdop><extensions><gom:speed>0.047</gom:speed></extensions></trkpt>
   <trkpt lat="59.3266373987" lon="34.6970735524"><ele>159.788</ele><time>2026-08-17T03:21:09.652Z</time><hdop>3.0</hdop><vdop>3.687</vdop><extensions><gom:speed>0.063</gom:speed></extensions></trkpt>
   <trkpt lat="59.3266370634" lon="34.6970947586"><ele>159.815</ele><time>2026-08-17T03:21:10.486Z</time><hdop>3.0</hdop><vdop>3.687</vdop><extensions><gom:speed>0.651</gom:speed></extensions></trkpt>
   <trkpt lat="59.3266337945" lon="34.6970961835"><ele>160.508</ele><time>2026-08-17T03:21:11.653Z</time><hdop>3.062</hdop><vdop>3.437</vdop><extensions><gom:speed>0.429</gom:speed></extensions></trkpt>
   <trkpt lat="59.3266428889" lon="34.6971328963"><ele>161.29</ele><time>2026-08-17T03:21:12.647Z</time><hdop>3.062</hdop><vdop>3.687</vdop><extensions><gom:speed>0.926</gom:speed></extensions></trkpt>
   <trkpt lat="59.3266450682" lon="34.6971503306"><ele>161.709</ele><time>2026-08-17T03:21:13.645Z</time><hdop>3.125</hdop><vdop>3.562</vdop><extensions><gom:speed>0.847</gom:speed></extensions></trkpt>
   <trkpt lat="59.3266363929" lon="34.6971358299"><ele>162.195</ele><time>2026-08-17T03:21:14.652Z</time><hdop>3.812</hdop><vdop>3.375</vdop><extensions><gom:speed>0.361</gom:speed></extensions></trkpt>
   <trkpt lat="59.3266341717" lon="34.697138596"><ele>162.525</ele><time>2026-08-17T03:21:15.652Z</time><hdop>4.875</hdop><vdop>3.5</vdop><extensions><gom:speed>0.465</gom:speed></extensions></trkpt>
   <trkpt lat="59.3266121692" lon="34.6970949263"><ele>163.112</ele><time>2026-08-17T03:21:16.652Z</time><hdop>5.062</hdop><vdop>3.437</vdop><extensions><gom:speed>0.15</gom:speed></extensions></trkpt>
   <trkpt lat="59.3265952796" lon="34.6970599737"><ele>163.463</ele><time>2026-08-17T03:21:17.659Z</time><hdop>5.25</hdop><vdop>3.437</vdop><extensions><gom:speed>0.159</gom:speed></extensions></trkpt>
   <trkpt lat="59.3265865625" lon="34.6970424555"><ele>163.423</ele><time>2026-08-17T03:21:18.460Z</time><hdop>4.937</hdop><vdop>3.687</vdop><extensions><gom:speed>0.092</gom:speed></extensions></trkpt>
   <trkpt lat="59.3265805694" lon="34.697030218"><ele>163.701</ele><time>2026-08-17T03:21:19.652Z</time><hdop>4.187</hdop><vdop>3.25</vdop><extensions><gom:speed>0.073</gom:speed></extensions></trkpt>
   <trkpt lat="59.3265777615" lon="34.6970253565"><ele>163.868</ele><time>2026-08-17T03:21:20.239Z</time><hdop>4.0</hdop><vdop>3.25</vdop><extensions><gom:speed>0.095</gom:speed></extensions></trkpt>
   <trkpt lat="59.3265747859" lon="34.6970201597"><ele>163.948</ele><time>2026-08-17T03:21:20.959Z</time><hdop>3.375</hdop><vdop>3.437</vdop><extensions><gom:speed>0.102</gom:speed></extensions></trkpt>
   <trkpt lat="59.326574283" lon="34.6970201597"><ele>164.038</ele><time>2026-08-17T03:21:21.652Z</time><hdop>3.0</hdop><vdop>3.375</vdop><extensions><gom:speed>0.088</gom:speed></extensions></trkpt>
   <trkpt lat="59.3265728581" lon="34.69701907"><ele>164.092</ele><time>2026-08-17T03:21:22.466Z</time><hdop>3.0</hdop><vdop>3.375</vdop><extensions><gom:speed>0.109</gom:speed></extensions></trkpt>
   <trkpt lat="59.3265712655" lon="34.6970183995"><ele>164.105</ele><time>2026-08-17T03:21:23.487Z</time><hdop>3.0</hdop><vdop>3.187</vdop><extensions><gom:speed>0.141</gom:speed></extensions></trkpt>
   <trkpt lat="59.326570092" lon="34.697017226"><ele>163.971</ele><time>2026-08-17T03:21:24.246Z</time><hdop>3.0</hdop><vdop>3.437</vdop><extensions><gom:speed>0.147</gom:speed></extensions></trkpt>
   <trkpt lat="59.3265681642" lon="34.6970141247"><ele>164.138</ele><time>2026-08-17T03:21:25.278Z</time><hdop>3.0</hdop><vdop>3.312</vdop><extensions><gom:speed>0.147</gom:speed></extensions></trkpt>
   <trkpt lat="59.3265670745" lon="34.6970130351"><ele>164.009</ele><time>2026-08-17T03:21:26.542Z</time><hdop>3.0</hdop><vdop>3.5</vdop><extensions><gom:speed>0.149</gom:speed></extensions></trkpt>
   <trkpt lat="59.3265648952" lon="34.6970039826"><ele>163.788</ele><time>2026-08-17T03:21:27.646Z</time><hdop>3.0</hdop><vdop>3.687</vdop><extensions><gom:speed>0.169</gom:speed></extensions></trkpt>
   <trkpt lat="59.3265639732" lon="34.6969988696"><ele>163.716</ele><time>2026-08-17T03:21:28.652Z</time><hdop>3.0</hdop><vdop>3.5</vdop><extensions><gom:speed>0.097</gom:speed></extensions></trkpt>
   <trkpt lat="59.3265628836" lon="34.6969906554"><ele>163.672</ele><time>2026-08-17T03:21:29.244Z</time><hdop>3.0</hdop><vdop>3.5</vdop><extensions><gom:speed>0.114</gom:speed></extensions></trkpt>
   <trkpt lat="59.3265607881" lon="34.6969804295"><ele>163.86</ele><time>2026-08-17T03:21:30.652Z</time><hdop>3.0</hdop><vdop>3.625</vdop><extensions><gom:speed>0.122</gom:speed></extensions></trkpt>
   <trkpt lat="59.3265597823" lon="34.6969760709"><ele>164.085</ele><time>2026-08-17T03:21:31.652Z</time><hdop>3.0</hdop><vdop>3.437</vdop><extensions><gom:speed>0.107</gom:speed></extensions></trkpt>
   <trkpt lat="59.3265605786" lon="34.6969664317"><ele>164.247</ele><time>2026-08-17T03:21:32.646Z</time><hdop>3.0</hdop><vdop>3.312</vdop><extensions><gom:speed>0.099</gom:speed></extensions></trkpt>
   <trkpt lat="59.3265607881" lon="34.6969651744"><ele>164.302</ele><time>2026-08-17T03:21:33.655Z</time><hdop>3.0</hdop><vdop>3.187</vdop><extensions><gom:speed>0.117</gom:speed></extensions></trkpt>
   <trkpt lat="59.3265617939" lon="34.6969617378"><ele>164.327</ele><time>2026-08-17T03:21:34.652Z</time><hdop>3.0</hdop><vdop>3.187</vdop><extensions><gom:speed>0.069</gom:speed></extensions></trkpt>
   <trkpt lat="59.3265641828" lon="34.6969550323"><ele>164.373</ele><time>2026-08-17T03:21:35.646Z</time><hdop>3.0</hdop><vdop>3.0</vdop><extensions><gom:speed>0.081</gom:speed></extensions></trkpt>
   <trkpt lat="59.3265653982" lon="34.6969511766"><ele>164.385</ele><time>2026-08-17T03:21:36.646Z</time><hdop>3.0</hdop><vdop>3.0</vdop><extensions><gom:speed>0.071</gom:speed></extensions></trkpt>
   <trkpt lat="59.3265666974" lon="34.6969506737"><ele>164.398</ele><time>2026-08-17T03:21:37.653Z</time><hdop>3.0</hdop><vdop>2.875</vdop><extensions><gom:speed>0.02</gom:speed></extensions></trkpt>
   <trkpt lat="59.3265684995" lon="34.6969454769"><ele>164.405</ele><time>2026-08-17T03:21:38.646Z</time><hdop>3.0</hdop><vdop>2.937</vdop><extensions><gom:speed>0.065</gom:speed></extensions></trkpt>
   <trkpt lat="59.3265696729" lon="34.6969416212"><ele>164.412</ele><time>2026-08-17T03:21:39.646Z</time><hdop>3.0</hdop><vdop>2.812</vdop><extensions><gom:speed>0.081</gom:speed></extensions></trkpt>
   <trkpt lat="59.3265695891" lon="34.6969408669"><ele>164.417</ele><time>2026-08-17T03:21:40.443Z</time><hdop>3.0</hdop><vdop>2.812</vdop><extensions><gom:speed>0.066</gom:speed></extensions></trkpt>
   <trkpt lat="59.3265712655" lon="34.6969384361"><ele>164.481</ele><time>2026-08-17T03:21:41.646Z</time><hdop>3.0</hdop><vdop>2.75</vdop><extensions><gom:speed>0.093</gom:speed></extensions></trkpt>
   <trkpt lat="59.3265715589" lon="34.6969372627"><ele>164.52</ele><time>2026-08-17T03:21:42.652Z</time><hdop>3.0</hdop><vdop>2.687</vdop><extensions><gom:speed>0.034</gom:speed></extensions></trkpt>
   <trkpt lat="59.3265728581" lon="34.6969359216"><ele>164.677</ele><time>2026-08-17T03:21:43.647Z</time><hdop>3.0</hdop><vdop>2.625</vdop><extensions><gom:speed>0.082</gom:speed></extensions></trkpt>
   <trkpt lat="59.3265729838" lon="34.6969360892"><ele>164.658</ele><time>2026-08-17T03:21:44.652Z</time><hdop>3.0</hdop><vdop>2.562</vdop><extensions><gom:speed>0.059</gom:speed></extensions></trkpt>
   <trkpt lat="59.3265741992" lon="34.696934329"><ele>164.613</ele><time>2026-08-17T03:21:45.652Z</time><hdop>3.0</hdop><vdop>2.625</vdop><extensions><gom:speed>0.044</gom:speed></extensions></trkpt>
   <trkpt lat="59.3265768814" lon="34.6969305571"><ele>164.588</ele><time>2026-08-17T03:21:46.646Z</time><hdop>3.0</hdop><vdop>2.562</vdop><extensions><gom:speed>0.106</gom:speed></extensions></trkpt>
   <trkpt lat="59.3265773843" lon="34.6969297189"><ele>164.576</ele><time>2026-08-17T03:21:47.657Z</time><hdop>3.0</hdop><vdop>2.562</vdop><extensions><gom:speed>0.015</gom:speed></extensions></trkpt>
   <trkpt lat="59.3265796893" lon="34.6969269529"><ele>164.565</ele><time>2026-08-17T03:21:48.646Z</time><hdop>3.0</hdop><vdop>2.5</vdop><extensions><gom:speed>0.058</gom:speed></extensions></trkpt>
   <trkpt lat="59.3265809885" lon="34.6969256956"><ele>164.56</ele><time>2026-08-17T03:21:49.652Z</time><hdop>3.0</hdop><vdop>2.5</vdop><extensions><gom:speed>0.012</gom:speed></extensions></trkpt>
   <trkpt lat="59.3265827906" lon="34.6969235163"><ele>164.387</ele><time>2026-08-17T03:21:50.646Z</time><hdop>3.0</hdop><vdop>2.5</vdop><extensions><gom:speed>0.0</gom:speed></extensions></trkpt>
   <trkpt lat="59.3265831678" lon="34.6969230972"><ele>164.438</ele><time>2026-08-17T03:21:51.652Z</time><hdop>3.0</hdop><vdop>2.5</vdop><extensions><gom:speed>0.002</gom:speed></extensions></trkpt>
   <trkpt lat="59.3265836707" lon="34.6969222591"><ele>164.449</ele><time>2026-08-17T03:21:52.652Z</time><hdop>3.0</hdop><vdop>2.5</vdop><extensions><gom:speed>0.015</gom:speed></extensions></trkpt>
   <trkpt lat="59.3265843832" lon="34.6969202474"><ele>164.471</ele><time>2026-08-17T03:21:53.646Z</time><hdop>3.0</hdop><vdop>2.5</vdop><extensions><gom:speed>0.032</gom:speed></extensions></trkpt>
   <trkpt lat="59.3265846765" lon="34.6969189901"><ele>164.474</ele><time>2026-08-17T03:21:54.646Z</time><hdop>3.0</hdop><vdop>2.5</vdop><extensions><gom:speed>0.037</gom:speed></extensions></trkpt>
   <trkpt lat="59.3265848861" lon="34.6969179843"><ele>164.48</ele><time>2026-08-17T03:21:55.646Z</time><hdop>3.0</hdop><vdop>2.5</vdop><extensions><gom:speed>0.042</gom:speed></extensions></trkpt>
   <trkpt lat="59.3265850956" lon="34.6969170623"><ele>164.489</ele><time>2026-08-17T03:21:56.646Z</time><hdop>3.0</hdop><vdop>2.5</vdop><extensions><gom:speed>0.047</gom:speed></extensions></trkpt>
   <trkpt lat="59.3265847604" lon="34.6969170623"><ele>164.497</ele><time>2026-08-17T03:21:57.652Z</time><hdop>3.0</hdop><vdop>2.5</vdop><extensions><gom:speed>0.047</gom:speed></extensions></trkpt>
   <trkpt lat="59.3265850956" lon="34.6969152183"><ele>164.504</ele><time>2026-08-17T03:21:58.646Z</time><hdop>3.0</hdop><vdop>2.5</vdop><extensions><gom:speed>0.053</gom:speed></extensions></trkpt>
   <trkpt lat="59.3265852633" lon="34.6969145477"><ele>164.504</ele><time>2026-08-17T03:21:59.646Z</time><hdop>3.0</hdop><vdop>2.5</vdop><extensions><gom:speed>0.137</gom:speed></extensions></trkpt>
   <trkpt lat="59.3265843832" lon="34.6969152183"><ele>164.356</ele><time>2026-08-17T03:22:00.652Z</time><hdop>3.0</hdop><vdop>2.5</vdop><extensions><gom:speed>0.141</gom:speed></extensions></trkpt>
   <trkpt lat="59.3265839641" lon="34.6969154697"><ele>164.27</ele><time>2026-08-17T03:22:01.659Z</time><hdop>3.0</hdop><vdop>2.5</vdop><extensions><gom:speed>0.115</gom:speed></extensions></trkpt>
   <trkpt lat="59.3265841736" lon="34.6969146315"><ele>164.218</ele><time>2026-08-17T03:22:02.645Z</time><hdop>3.0</hdop><vdop>2.5</vdop><extensions><gom:speed>0.132</gom:speed></extensions></trkpt>
   <trkpt lat="59.3265840898" lon="34.6969145477"><ele>163.974</ele><time>2026-08-17T03:22:03.646Z</time><hdop>3.0</hdop><vdop>2.5</vdop><extensions><gom:speed>0.232</gom:speed></extensions></trkpt>
   <trkpt lat="59.3265835869" lon="34.696914883"><ele>163.829</ele><time>2026-08-17T03:22:04.098Z</time><hdop>3.0</hdop><vdop>2.5</vdop><extensions><gom:speed>0.239</gom:speed></extensions></trkpt>
   <trkpt lat="59.3265826649" lon="34.6969153859"><ele>163.542</ele><time>2026-08-17T03:22:04.652Z</time><hdop>3.0</hdop><vdop>2.5</vdop><extensions><gom:speed>0.241</gom:speed></extensions></trkpt>
   <trkpt lat="59.3265820781" lon="34.6969159726"><ele>163.147</ele><time>2026-08-17T03:22:05.652Z</time><hdop>3.0</hdop><vdop>2.5</vdop><extensions><gom:speed>0.229</gom:speed></extensions></trkpt>
   <trkpt lat="59.3265815752" lon="34.6969168946"><ele>162.458</ele><time>2026-08-17T03:22:06.652Z</time><hdop>3.0</hdop><vdop>2.5</vdop><extensions><gom:speed>0.285</gom:speed></extensions></trkpt>
   <trkpt lat="59.3265823715" lon="34.6969183196"><ele>161.949</ele><time>2026-08-17T03:22:07.647Z</time><hdop>3.0</hdop><vdop>2.5</vdop><extensions><gom:speed>0.246</gom:speed></extensions></trkpt>
   <trkpt lat="59.3265817848" lon="34.6969197445"><ele>161.644</ele><time>2026-08-17T03:22:08.660Z</time><hdop>3.0</hdop><vdop>2.5</vdop><extensions><gom:speed>0.243</gom:speed></extensions></trkpt>
   <trkpt lat="59.3265847604" lon="34.6969217561"><ele>161.402</ele><time>2026-08-17T03:22:09.646Z</time><hdop>3.0</hdop><vdop>2.5</vdop><extensions><gom:speed>0.065</gom:speed></extensions></trkpt>
   <trkpt lat="59.3265860596" lon="34.6969223429"><ele>160.957</ele><time>2026-08-17T03:22:10.652Z</time><hdop>3.0</hdop><vdop>2.5</vdop><extensions><gom:speed>0.083</gom:speed></extensions></trkpt>
   <trkpt lat="59.3265897895" lon="34.6969242707"><ele>160.691</ele><time>2026-08-17T03:22:11.503Z</time><hdop>3.0</hdop><vdop>2.5</vdop><extensions><gom:speed>0.117</gom:speed></extensions></trkpt>
   <trkpt lat="59.3265949863" lon="34.6969235163"><ele>160.972</ele><time>2026-08-17T03:22:12.304Z</time><hdop>3.0</hdop><vdop>2.5</vdop><extensions><gom:speed>0.144</gom:speed></extensions></trkpt>
   <trkpt lat="59.326605296" lon="34.6969166432"><ele>161.072</ele><time>2026-08-17T03:22:13.163Z</time><hdop>3.0</hdop><vdop>2.5</vdop><extensions><gom:speed>0.231</gom:speed></extensions></trkpt>
   <trkpt lat="59.3266067629" lon="34.6969166432"><ele>160.506</ele><time>2026-08-17T03:22:13.658Z</time><hdop>3.0</hdop><vdop>2.687</vdop><extensions><gom:speed>0.198</gom:speed></extensions></trkpt>
   <trkpt lat="59.3266162763" lon="34.6969035674"><ele>160.162</ele><time>2026-08-17T03:22:14.652Z</time><hdop>3.0</hdop><vdop>2.625</vdop><extensions><gom:speed>0.243</gom:speed></extensions></trkpt>
   <trkpt lat="59.326617366" lon="34.6968950179"><ele>159.956</ele><time>2026-08-17T03:22:15.652Z</time><hdop>3.0</hdop><vdop>2.687</vdop><extensions><gom:speed>0.158</gom:speed></extensions></trkpt>
   <trkpt lat="59.3266176593" lon="34.6968870551"><ele>159.833</ele><time>2026-08-17T03:22:16.643Z</time><hdop>3.0</hdop><vdop>2.687</vdop><extensions><gom:speed>0.149</gom:speed></extensions></trkpt>
   <trkpt lat="59.326618288" lon="34.6968798466"><ele>160.061</ele><time>2026-08-17T03:22:17.523Z</time><hdop>3.0</hdop><vdop>2.625</vdop><extensions><gom:speed>0.149</gom:speed></extensions></trkpt>
   <trkpt lat="59.326618288" lon="34.6968726382"><ele>160.202</ele><time>2026-08-17T03:22:18.737Z</time><hdop>3.0</hdop><vdop>2.625</vdop><extensions><gom:speed>0.081</gom:speed></extensions></trkpt>
   <trkpt lat="59.3266183718" lon="34.6968638372"><ele>160.287</ele><time>2026-08-17T03:22:19.646Z</time><hdop>3.0</hdop><vdop>2.687</vdop><extensions><gom:speed>0.092</gom:speed></extensions></trkpt>
   <trkpt lat="59.3266179946" lon="34.6968622446"><ele>160.337</ele><time>2026-08-17T03:22:20.652Z</time><hdop>3.0</hdop><vdop>2.687</vdop><extensions><gom:speed>0.053</gom:speed></extensions></trkpt>
   <trkpt lat="59.3266178689" lon="34.6968558744"><ele>160.368</ele><time>2026-08-17T03:22:21.647Z</time><hdop>3.0</hdop><vdop>2.562</vdop><extensions><gom:speed>0.079</gom:speed></extensions></trkpt>
   <trkpt lat="59.3266176593" lon="34.6968537789"><ele>160.295</ele><time>2026-08-17T03:22:22.652Z</time><hdop>3.0</hdop><vdop>2.625</vdop><extensions><gom:speed>0.022</gom:speed></extensions></trkpt>
   <trkpt lat="59.3266178689" lon="34.6968491689"><ele>160.248</ele><time>2026-08-17T03:22:23.654Z</time><hdop>3.0</hdop><vdop>2.5</vdop><extensions><gom:speed>0.019</gom:speed></extensions></trkpt>
   <trkpt lat="59.3266180784" lon="34.6968455646"><ele>160.221</ele><time>2026-08-17T03:22:24.652Z</time><hdop>3.0</hdop><vdop>2.5</vdop><extensions><gom:speed>0.013</gom:speed></extensions></trkpt>
   <trkpt lat="59.3266184975" lon="34.6968409546"><ele>160.206</ele><time>2026-08-17T03:22:25.646Z</time><hdop>3.0</hdop><vdop>2.5</vdop><extensions><gom:speed>0.063</gom:speed></extensions></trkpt>
   <trkpt lat="59.3266180784" lon="34.6968398649"><ele>160.203</ele><time>2026-08-17T03:22:26.689Z</time><hdop>3.0</hdop><vdop>2.5</vdop><extensions><gom:speed>0.067</gom:speed></extensions></trkpt>
   <trkpt lat="59.3266183718" lon="34.6968377695"><ele>160.203</ele><time>2026-08-17T03:22:27.661Z</time><hdop>3.0</hdop><vdop>2.5</vdop><extensions><gom:speed>0.02</gom:speed></extensions></trkpt>
   <trkpt lat="59.3266184975" lon="34.6968352549"><ele>160.207</ele><time>2026-08-17T03:22:28.646Z</time><hdop>3.0</hdop><vdop>2.5</vdop><extensions><gom:speed>0.058</gom:speed></extensions></trkpt>
   <trkpt lat="59.3266186652" lon="34.6968352549"><ele>160.209</ele><time>2026-08-17T03:22:29.664Z</time><hdop>3.0</hdop><vdop>2.5</vdop><extensions><gom:speed>0.017</gom:speed></extensions></trkpt>
   <trkpt lat="59.3266189585" lon="34.6968340814"><ele>160.211</ele><time>2026-08-17T03:22:30.653Z</time><hdop>3.0</hdop><vdop>2.5</vdop><extensions><gom:speed>0.012</gom:speed></extensions></trkpt>
   <trkpt lat="59.3266191681" lon="34.6968337462"><ele>160.214</ele><time>2026-08-17T03:22:31.652Z</time><hdop>3.0</hdop><vdop>2.5</vdop><extensions><gom:speed>0.015</gom:speed></extensions></trkpt>
   <trkpt lat="59.3266191681" lon="34.6968329918"><ele>160.216</ele><time>2026-08-17T03:22:32.652Z</time><hdop>3.0</hdop><vdop>2.5</vdop><extensions><gom:speed>0.011</gom:speed></extensions></trkpt>
   <trkpt lat="59.3266191681" lon="34.6968332432"><ele>160.218</ele><time>2026-08-17T03:22:33.652Z</time><hdop>3.0</hdop><vdop>2.562</vdop><extensions><gom:speed>0.017</gom:speed></extensions></trkpt>
   <trkpt lat="59.3266191681" lon="34.6968329918"><ele>160.349</ele><time>2026-08-17T03:22:34.652Z</time><hdop>3.0</hdop><vdop>2.5</vdop><extensions><gom:speed>0.016</gom:speed></extensions></trkpt>
   <trkpt lat="59.3266191681" lon="34.6968322374"><ele>160.425</ele><time>2026-08-17T03:22:35.652Z</time><hdop>3.0</hdop><vdop>2.625</vdop><extensions><gom:speed>0.105</gom:speed></extensions></trkpt>
   <trkpt lat="59.3266194614" lon="34.6968312316"><ele>160.47</ele><time>2026-08-17T03:22:36.646Z</time><hdop>3.0</hdop><vdop>2.687</vdop><extensions><gom:speed>0.076</gom:speed></extensions></trkpt>
   <trkpt lat="59.326619671" lon="34.6968304772"><ele>160.498</ele><time>2026-08-17T03:22:37.646Z</time><hdop>3.0</hdop><vdop>2.687</vdop><extensions><gom:speed>0.069</gom:speed></extensions></trkpt>
   <trkpt lat="59.3266197967" lon="34.6968297228"><ele>160.514</ele><time>2026-08-17T03:22:38.646Z</time><hdop>3.0</hdop><vdop>2.625</vdop><extensions><gom:speed>0.062</gom:speed></extensions></trkpt>
   <trkpt lat="59.3266199644" lon="34.6968293876"><ele>160.39</ele><time>2026-08-17T03:22:39.741Z</time><hdop>3.0</hdop><vdop>2.562</vdop><extensions><gom:speed>0.062</gom:speed></extensions></trkpt>
   <trkpt lat="59.3266200901" lon="34.6968294714"><ele>160.308</ele><time>2026-08-17T03:22:40.651Z</time><hdop>3.0</hdop><vdop>2.562</vdop><extensions><gom:speed>0.118</gom:speed></extensions></trkpt>
   <trkpt lat="59.3266203834" lon="34.6968297228"><ele>160.262</ele><time>2026-08-17T03:22:41.663Z</time><hdop>3.0</hdop><vdop>2.5</vdop><extensions><gom:speed>0.097</gom:speed></extensions></trkpt>
   <trkpt lat="59.326620593" lon="34.6968300581"><ele>160.242</ele><time>2026-08-17T03:22:42.675Z</time><hdop>3.0</hdop><vdop>2.5</vdop><extensions><gom:speed>0.083</gom:speed></extensions></trkpt>
   <trkpt lat="59.3266209702" lon="34.6968306449"><ele>160.236</ele><time>2026-08-17T03:22:43.646Z</time><hdop>3.0</hdop><vdop>2.5</vdop><extensions><gom:speed>0.067</gom:speed></extensions></trkpt>
   <trkpt lat="59.3266211797" lon="34.6968299743"><ele>160.238</ele><time>2026-08-17T03:22:44.658Z</time><hdop>3.0</hdop><vdop>2.5</vdop><extensions><gom:speed>0.07</gom:speed></extensions></trkpt>
   <trkpt lat="59.3266214731" lon="34.6968300581"><ele>160.239</ele><time>2026-08-17T03:22:45.652Z</time><hdop>3.0</hdop><vdop>2.5</vdop><extensions><gom:speed>0.066</gom:speed></extensions></trkpt>
   <trkpt lat="59.3266216826" lon="34.6968304772"><ele>160.235</ele><time>2026-08-17T03:22:46.653Z</time><hdop>3.0</hdop><vdop>2.5</vdop><extensions><gom:speed>0.064</gom:speed></extensions></trkpt>
   <trkpt lat="59.3266218922" lon="34.6968307287"><ele>160.229</ele><time>2026-08-17T03:22:47.653Z</time><hdop>3.0</hdop><vdop>2.5</vdop><extensions><gom:speed>0.062</gom:speed></extensions></trkpt>
   <trkpt lat="59.3266222694" lon="34.6968313992"><ele>160.223</ele><time>2026-08-17T03:22:48.646Z</time><hdop>3.0</hdop><vdop>2.5</vdop><extensions><gom:speed>0.066</gom:speed></extensions></trkpt>
   <trkpt lat="59.3266224789" lon="34.696831483"><ele>160.217</ele><time>2026-08-17T03:22:49.652Z</time><hdop>3.0</hdop><vdop>2.5</vdop><extensions><gom:speed>0.066</gom:speed></extensions></trkpt>
   <trkpt lat="59.3266227723" lon="34.696831986"><ele>160.212</ele><time>2026-08-17T03:22:50.646Z</time><hdop>3.0</hdop><vdop>2.5</vdop><extensions><gom:speed>0.068</gom:speed></extensions></trkpt>
   <trkpt lat="59.326622898" lon="34.6968320698"><ele>160.207</ele><time>2026-08-17T03:22:51.659Z</time><hdop>3.0</hdop><vdop>2.5</vdop><extensions><gom:speed>0.069</gom:speed></extensions></trkpt>
   <trkpt lat="59.3266230657" lon="34.6968323212"><ele>160.203</ele><time>2026-08-17T03:22:52.647Z</time><hdop>3.0</hdop><vdop>2.5</vdop><extensions><gom:speed>0.069</gom:speed></extensions></trkpt>
   <trkpt lat="59.3266232752" lon="34.6968324889"><ele>160.2</ele><time>2026-08-17T03:22:53.662Z</time><hdop>3.0</hdop><vdop>2.5</vdop><extensions><gom:speed>0.069</gom:speed></extensions></trkpt>
   <trkpt lat="59.3266234848" lon="34.6968326565"><ele>160.197</ele><time>2026-08-17T03:22:54.653Z</time><hdop>3.0</hdop><vdop>2.5</vdop><extensions><gom:speed>0.07</gom:speed></extensions></trkpt>
   <trkpt lat="59.3266237781" lon="34.6968330756"><ele>160.196</ele><time>2026-08-17T03:22:55.646Z</time><hdop>3.0</hdop><vdop>2.5</vdop><extensions><gom:speed>0.07</gom:speed></extensions></trkpt>
   <trkpt lat="59.3266240715" lon="34.6968334947"><ele>160.194</ele><time>2026-08-17T03:22:56.645Z</time><hdop>3.0</hdop><vdop>2.5</vdop><extensions><gom:speed>0.069</gom:speed></extensions></trkpt>
   <trkpt lat="59.3266241972" lon="34.6968334947"><ele>160.191</ele><time>2026-08-17T03:22:57.652Z</time><hdop>3.0</hdop><vdop>2.5</vdop><extensions><gom:speed>0.07</gom:speed></extensions></trkpt>
   <trkpt lat="59.3266244906" lon="34.69683383"><ele>160.19</ele><time>2026-08-17T03:22:58.645Z</time><hdop>3.0</hdop><vdop>2.5</vdop><extensions><gom:speed>0.069</gom:speed></extensions></trkpt>
   <trkpt lat="59.3266246582" lon="34.6968345843"><ele>160.189</ele><time>2026-08-17T03:22:59.646Z</time><hdop>3.0</hdop><vdop>2.5</vdop><extensions><gom:speed>0.069</gom:speed></extensions></trkpt>
   <trkpt lat="59.3266249935" lon="34.6968348358"><ele>160.189</ele><time>2026-08-17T03:23:00.646Z</time><hdop>3.0</hdop><vdop>2.5</vdop><extensions><gom:speed>0.07</gom:speed></extensions></trkpt>
   <trkpt lat="59.3266250773" lon="34.6968350873"><ele>160.189</ele><time>2026-08-17T03:23:01.653Z</time><hdop>3.0</hdop><vdop>2.5</vdop><extensions><gom:speed>0.07</gom:speed></extensions></trkpt>
   <trkpt lat="59.3266252869" lon="34.6968351711"><ele>160.189</ele><time>2026-08-17T03:23:02.652Z</time><hdop>3.0</hdop><vdop>2.5</vdop><extensions><gom:speed>0.072</gom:speed></extensions></trkpt>
   <trkpt lat="59.3266254964" lon="34.6968352549"><ele>160.189</ele><time>2026-08-17T03:23:03.652Z</time><hdop>3.0</hdop><vdop>2.5</vdop><extensions><gom:speed>0.071</gom:speed></extensions></trkpt>
   <trkpt lat="59.326625664" lon="34.6968354225"><ele>160.189</ele><time>2026-08-17T03:23:04.652Z</time><hdop>3.0</hdop><vdop>2.5</vdop><extensions><gom:speed>0.071</gom:speed></extensions></trkpt>
   <trkpt lat="59.3266258736" lon="34.696835674"><ele>160.187</ele><time>2026-08-17T03:23:05.653Z</time><hdop>3.0</hdop><vdop>2.5</vdop><extensions><gom:speed>0.072</gom:speed></extensions></trkpt>
   <trkpt lat="59.3266260831" lon="34.6968358416"><ele>160.186</ele><time>2026-08-17T03:23:06.652Z</time><hdop>3.0</hdop><vdop>2.5</vdop><extensions><gom:speed>0.073</gom:speed></extensions></trkpt>
   <trkpt lat="59.3266260831" lon="34.6968361769"><ele>160.187</ele><time>2026-08-17T03:23:07.652Z</time><hdop>3.0</hdop><vdop>2.687</vdop><extensions><gom:speed>0.072</gom:speed></extensions></trkpt>
   <trkpt lat="59.3266262927" lon="34.6968364284"><ele>160.188</ele><time>2026-08-17T03:23:08.656Z</time><hdop>3.0</hdop><vdop>2.562</vdop><extensions><gom:speed>0.073</gom:speed></extensions></trkpt>
   <trkpt lat="59.3266266699" lon="34.6968369313"><ele>160.188</ele><time>2026-08-17T03:23:09.646Z</time><hdop>3.0</hdop><vdop>2.5</vdop><extensions><gom:speed>0.068</gom:speed></extensions></trkpt>
   <trkpt lat="59.3266268794" lon="34.6968371827"><ele>160.189</ele><time>2026-08-17T03:23:10.646Z</time><hdop>3.0</hdop><vdop>2.687</vdop><extensions><gom:speed>0.07</gom:speed></extensions></trkpt>
   <trkpt lat="59.3266269632" lon="34.6968372666"><ele>160.192</ele><time>2026-08-17T03:23:11.652Z</time><hdop>3.0</hdop><vdop>2.875</vdop><extensions><gom:speed>0.07</gom:speed></extensions></trkpt>
   <trkpt lat="59.3266271728" lon="34.6968374342"><ele>160.192</ele><time>2026-08-17T03:23:12.723Z</time><hdop>3.0</hdop><vdop>3.0</vdop><extensions><gom:speed>0.07</gom:speed></extensions></trkpt>
   <trkpt lat="59.3266272985" lon="34.6968377695"><ele>160.197</ele><time>2026-08-17T03:23:13.654Z</time><hdop>3.0</hdop><vdop>2.625</vdop><extensions><gom:speed>0.069</gom:speed></extensions></trkpt>
   <trkpt lat="59.3266274662" lon="34.6968380209"><ele>160.206</ele><time>2026-08-17T03:23:14.686Z</time><hdop>3.0</hdop><vdop>2.5</vdop><extensions><gom:speed>0.07</gom:speed></extensions></trkpt>
   <trkpt lat="59.3266275919" lon="34.6968381886"><ele>160.212</ele><time>2026-08-17T03:23:15.303Z</time><hdop>3.0</hdop><vdop>2.5</vdop><extensions><gom:speed>0.068</gom:speed></extensions></trkpt>
   <trkpt lat="59.3266277595" lon="34.6968382724"><ele>160.205</ele><time>2026-08-17T03:23:15.798Z</time><hdop>3.0</hdop><vdop>2.5</vdop><extensions><gom:speed>0.172</gom:speed></extensions></trkpt>
   <trkpt lat="59.3266287654" lon="34.6968380209"><ele>160.202</ele><time>2026-08-17T03:23:16.646Z</time><hdop>3.0</hdop><vdop>2.5</vdop><extensions><gom:speed>0.104</gom:speed></extensions></trkpt>
   <trkpt lat="59.3266288911" lon="34.6968381886"><ele>160.201</ele><time>2026-08-17T03:23:17.646Z</time><hdop>3.0</hdop><vdop>2.5</vdop><extensions><gom:speed>0.086</gom:speed></extensions></trkpt>
   <trkpt lat="59.3266290587" lon="34.69683844"><ele>160.2</ele><time>2026-08-17T03:23:18.646Z</time><hdop>3.0</hdop><vdop>2.5</vdop><extensions><gom:speed>0.076</gom:speed></extensions></trkpt>
   <trkpt lat="59.3266291844" lon="34.69683844"><ele>160.206</ele><time>2026-08-17T03:23:19.652Z</time><hdop>3.0</hdop><vdop>2.5</vdop><extensions><gom:speed>0.076</gom:speed></extensions></trkpt>
   <trkpt lat="59.3266294778" lon="34.6968391944"><ele>160.221</ele><time>2026-08-17T03:23:20.655Z</time><hdop>3.0</hdop><vdop>2.5</vdop><extensions><gom:speed>0.069</gom:speed></extensions></trkpt>
   <trkpt lat="59.3266295616" lon="34.6968404517"><ele>160.239</ele><time>2026-08-17T03:23:21.645Z</time><hdop>3.0</hdop><vdop>2.5</vdop><extensions><gom:speed>0.064</gom:speed></extensions></trkpt>
   <trkpt lat="59.3266297712" lon="34.6968415413"><ele>160.248</ele><time>2026-08-17T03:23:22.646Z</time><hdop>3.0</hdop><vdop>2.5</vdop><extensions><gom:speed>0.063</gom:speed></extensions></trkpt>
   <trkpt lat="59.3266299807" lon="34.6968419604"><ele>160.253</ele><time>2026-08-17T03:23:23.652Z</time><hdop>3.0</hdop><vdop>2.5</vdop><extensions><gom:speed>0.063</gom:speed></extensions></trkpt>
   <trkpt lat="59.3266301903" lon="34.6968429662"><ele>160.256</ele><time>2026-08-17T03:23:24.646Z</time><hdop>3.0</hdop><vdop>2.5</vdop><extensions><gom:speed>0.064</gom:speed></extensions></trkpt>
   <trkpt lat="59.3266303998" lon="34.696843553"><ele>160.257</ele><time>2026-08-17T03:23:25.653Z</time><hdop>3.0</hdop><vdop>2.5</vdop><extensions><gom:speed>0.064</gom:speed></extensions></trkpt>
   <trkpt lat="59.3266304836" lon="34.6968442235"><ele>160.259</ele><time>2026-08-17T03:23:26.652Z</time><hdop>3.0</hdop><vdop>2.5</vdop><extensions><gom:speed>0.067</gom:speed></extensions></trkpt>
   <trkpt lat="59.3266306932" lon="34.6968448941"><ele>160.259</ele><time>2026-08-17T03:23:27.652Z</time><hdop>3.0</hdop><vdop>2.5</vdop><extensions><gom:speed>0.068</gom:speed></extensions></trkpt>
   <trkpt lat="59.3266308608" lon="34.6968452294"><ele>160.258</ele><time>2026-08-17T03:23:28.652Z</time><hdop>3.0</hdop><vdop>2.5</vdop><extensions><gom:speed>0.075</gom:speed></extensions></trkpt>
   <trkpt lat="59.3266310704" lon="34.6968457323"><ele>160.255</ele><time>2026-08-17T03:23:29.652Z</time><hdop>3.0</hdop><vdop>2.5</vdop><extensions><gom:speed>0.078</gom:speed></extensions></trkpt>
   <trkpt lat="59.3266312799" lon="34.6968462352"><ele>160.255</ele><time>2026-08-17T03:23:30.652Z</time><hdop>3.0</hdop><vdop>2.5</vdop><extensions><gom:speed>0.083</gom:speed></extensions></trkpt>
   <trkpt lat="59.3266314895" lon="34.6968467381"><ele>160.264</ele><time>2026-08-17T03:23:31.652Z</time><hdop>3.0</hdop><vdop>2.5</vdop><extensions><gom:speed>0.085</gom:speed></extensions></trkpt>
   <trkpt lat="59.3266315733" lon="34.6968471572"><ele>160.27</ele><time>2026-08-17T03:23:32.654Z</time><hdop>3.0</hdop><vdop>2.5</vdop><extensions><gom:speed>0.084</gom:speed></extensions></trkpt>
   <trkpt lat="59.3266317828" lon="34.6968475763"><ele>160.277</ele><time>2026-08-17T03:23:33.646Z</time><hdop>3.0</hdop><vdop>2.5</vdop><extensions><gom:speed>0.091</gom:speed></extensions></trkpt>
   <trkpt lat="59.3266320762" lon="34.696848163"><ele>160.279</ele><time>2026-08-17T03:23:34.652Z</time><hdop>3.0</hdop><vdop>2.5</vdop><extensions><gom:speed>0.092</gom:speed></extensions></trkpt>
   <trkpt lat="59.32663216" lon="34.6968483307"><ele>160.295</ele><time>2026-08-17T03:23:35.653Z</time><hdop>3.0</hdop><vdop>2.5</vdop><extensions><gom:speed>0.09</gom:speed></extensions></trkpt>
   <trkpt lat="59.3266322857" lon="34.6968486659"><ele>160.307</ele><time>2026-08-17T03:23:36.646Z</time><hdop>3.0</hdop><vdop>2.5</vdop><extensions><gom:speed>0.095</gom:speed></extensions></trkpt>
   <trkpt lat="59.3266324953" lon="34.6968489174"><ele>160.315</ele><time>2026-08-17T03:23:37.646Z</time><hdop>3.0</hdop><vdop>2.5</vdop><extensions><gom:speed>0.097</gom:speed></extensions></trkpt>
   <trkpt lat="59.3266325791" lon="34.6968492527"><ele>160.323</ele><time>2026-08-17T03:23:38.646Z</time><hdop>3.062</hdop><vdop>2.5</vdop><extensions><gom:speed>0.098</gom:speed></extensions></trkpt>
   <trkpt lat="59.3266327887" lon="34.6968493365"><ele>160.336</ele><time>2026-08-17T03:23:39.652Z</time><hdop>3.125</hdop><vdop>2.5</vdop><extensions><gom:speed>0.098</gom:speed></extensions></trkpt>
   <trkpt lat="59.3266328725" lon="34.6968494203"><ele>160.349</ele><time>2026-08-17T03:23:40.646Z</time><hdop>3.187</hdop><vdop>2.5</vdop><extensions><gom:speed>0.102</gom:speed></extensions></trkpt>
   <trkpt lat="59.326633082" lon="34.6968497556"><ele>160.362</ele><time>2026-08-17T03:23:41.652Z</time><hdop>3.25</hdop><vdop>2.5</vdop><extensions><gom:speed>0.102</gom:speed></extensions></trkpt>
   <trkpt lat="59.3266332916" lon="34.6968498394"><ele>160.375</ele><time>2026-08-17T03:23:42.652Z</time><hdop>3.375</hdop><vdop>2.5</vdop><extensions><gom:speed>0.104</gom:speed></extensions></trkpt>
   <trkpt lat="59.3266333754" lon="34.6968499232"><ele>160.39</ele><time>2026-08-17T03:23:43.646Z</time><hdop>3.437</hdop><vdop>2.5</vdop><extensions><gom:speed>0.106</gom:speed></extensions></trkpt>
   <trkpt lat="59.3266334592" lon="34.6968501747"><ele>160.406</ele><time>2026-08-17T03:23:44.652Z</time><hdop>3.562</hdop><vdop>2.5</vdop><extensions><gom:speed>0.106</gom:speed></extensions></trkpt>
   <trkpt lat="59.3266336688" lon="34.6968504261"><ele>160.433</ele><time>2026-08-17T03:23:45.652Z</time><hdop>3.625</hdop><vdop>2.5</vdop><extensions><gom:speed>0.109</gom:speed></extensions></trkpt>
   <trkpt lat="59.3266336688" lon="34.6968505938"><ele>160.469</ele><time>2026-08-17T03:23:46.652Z</time><hdop>3.75</hdop><vdop>2.5</vdop><extensions><gom:speed>0.11</gom:speed></extensions></trkpt>
   <trkpt lat="59.3266337945" lon="34.6968506776"><ele>160.495</ele><time>2026-08-17T03:23:47.648Z</time><hdop>3.812</hdop><vdop>2.5</vdop><extensions><gom:speed>0.109</gom:speed></extensions></trkpt>
   <trkpt lat="59.3266337945" lon="34.6968510967"><ele>160.518</ele><time>2026-08-17T03:23:48.659Z</time><hdop>3.937</hdop><vdop>2.5</vdop><extensions><gom:speed>0.107</gom:speed></extensions></trkpt>
   <trkpt lat="59.3266338783" lon="34.6968513482"><ele>160.541</ele><time>2026-08-17T03:23:49.646Z</time><hdop>3.937</hdop><vdop>2.5</vdop><extensions><gom:speed>0.107</gom:speed></extensions></trkpt>
   <trkpt lat="59.3266338783" lon="34.6968515996"><ele>160.563</ele><time>2026-08-17T03:23:50.646Z</time><hdop>4.062</hdop><vdop>2.5</vdop><extensions><gom:speed>0.108</gom:speed></extensions></trkpt>
   <trkpt lat="59.3266337945" lon="34.6968515996"><ele>160.576</ele><time>2026-08-17T03:23:51.391Z</time><hdop>4.062</hdop><vdop>2.5</vdop><extensions><gom:speed>0.109</gom:speed></extensions></trkpt>
   <trkpt lat="59.3266339621" lon="34.6968521863"><ele>160.593</ele><time>2026-08-17T03:23:52.646Z</time><hdop>4.125</hdop><vdop>2.5</vdop><extensions><gom:speed>0.106</gom:speed></extensions></trkpt>
   <trkpt lat="59.3266340879" lon="34.696852354"><ele>160.611</ele><time>2026-08-17T03:23:53.652Z</time><hdop>4.125</hdop><vdop>2.5</vdop><extensions><gom:speed>0.106</gom:speed></extensions></trkpt>
   <trkpt lat="59.3266341717" lon="34.6968525216"><ele>160.627</ele><time>2026-08-17T03:23:54.646Z</time><hdop>4.187</hdop><vdop>2.5</vdop><extensions><gom:speed>0.106</gom:speed></extensions></trkpt>
   <trkpt lat="59.3266342974" lon="34.6968527731"><ele>160.645</ele><time>2026-08-17T03:23:55.653Z</time><hdop>4.187</hdop><vdop>2.5</vdop><extensions><gom:speed>0.106</gom:speed></extensions></trkpt>
   <trkpt lat="59.3266343812" lon="34.6968529407"><ele>160.665</ele><time>2026-08-17T03:23:56.652Z</time><hdop>4.25</hdop><vdop>2.5</vdop><extensions><gom:speed>0.105</gom:speed></extensions></trkpt>
   <trkpt lat="59.326634465" lon="34.6968531922"><ele>160.685</ele><time>2026-08-17T03:23:57.646Z</time><hdop>4.25</hdop><vdop>2.5</vdop><extensions><gom:speed>0.107</gom:speed></extensions></trkpt>
   <trkpt lat="59.3266345908" lon="34.696853276"><ele>160.701</ele><time>2026-08-17T03:23:58.652Z</time><hdop>4.312</hdop><vdop>2.5</vdop><extensions><gom:speed>0.107</gom:speed></extensions></trkpt>
   <trkpt lat="59.326634465" lon="34.696853276"><ele>160.79</ele><time>2026-08-17T03:23:59.646Z</time><hdop>4.312</hdop><vdop>2.5</vdop><extensions><gom:speed>0.292</gom:speed></extensions></trkpt>
   <trkpt lat="59.3266351775" lon="34.6968537789"><ele>160.869</ele><time>2026-08-17T03:24:00.646Z</time><hdop>4.312</hdop><vdop>2.5</vdop><extensions><gom:speed>0.236</gom:speed></extensions></trkpt>
   <trkpt lat="59.3266356804" lon="34.6968539465"><ele>160.824</ele><time>2026-08-17T03:24:01.646Z</time><hdop>4.437</hdop><vdop>2.5</vdop><extensions><gom:speed>0.2</gom:speed></extensions></trkpt>
   <trkpt lat="59.3266355966" lon="34.6968537789"><ele>160.797</ele><time>2026-08-17T03:24:02.520Z</time><hdop>4.5</hdop><vdop>2.5</vdop><extensions><gom:speed>0.198</gom:speed></extensions></trkpt>
   <trkpt lat="59.3266364767" lon="34.6968546171"><ele>160.715</ele><time>2026-08-17T03:24:03.652Z</time><hdop>4.625</hdop><vdop>2.5</vdop><extensions><gom:speed>0.176</gom:speed></extensions></trkpt>
   <trkpt lat="59.3266373987" lon="34.6968552876"><ele>160.67</ele><time>2026-08-17T03:24:04.647Z</time><hdop>4.75</hdop><vdop>2.5</vdop><extensions><gom:speed>0.147</gom:speed></extensions></trkpt>
   <trkpt lat="59.3266376921" lon="34.6968554553"><ele>160.645</ele><time>2026-08-17T03:24:05.656Z</time><hdop>4.812</hdop><vdop>2.5</vdop><extensions><gom:speed>0.145</gom:speed></extensions></trkpt>
   <trkpt lat="59.3266382788" lon="34.69685512"><ele>160.634</ele><time>2026-08-17T03:24:06.647Z</time><hdop>4.812</hdop><vdop>2.5</vdop><extensions><gom:speed>0.127</gom:speed></extensions></trkpt>
   <trkpt lat="59.3266385722" lon="34.6968552876"><ele>160.625</ele><time>2026-08-17T03:24:07.652Z</time><hdop>4.875</hdop><vdop>2.5</vdop><extensions><gom:speed>0.127</gom:speed></extensions></trkpt>
   <trkpt lat="59.3266392846" lon="34.6968549524"><ele>160.621</ele><time>2026-08-17T03:24:08.645Z</time><hdop>4.812</hdop><vdop>2.5</vdop><extensions><gom:speed>0.116</gom:speed></extensions></trkpt>
   <trkpt lat="59.3266394942" lon="34.6968548686"><ele>160.62</ele><time>2026-08-17T03:24:09.653Z</time><hdop>4.75</hdop><vdop>2.5</vdop><extensions><gom:speed>0.115</gom:speed></extensions></trkpt>
   <trkpt lat="59.3266398714" lon="34.6968540304"><ele>160.623</ele><time>2026-08-17T03:24:10.652Z</time><hdop>4.687</hdop><vdop>2.5</vdop><extensions><gom:speed>0.112</gom:speed></extensions></trkpt>
   <trkpt lat="59.3266404581" lon="34.696854198"><ele>160.77</ele><time>2026-08-17T03:24:11.727Z</time><hdop>4.687</hdop><vdop>2.5</vdop><extensions><gom:speed>0.191</gom:speed></extensions></trkpt>
   <trkpt lat="59.3266416735" lon="34.6968538627"><ele>160.865</ele><time>2026-08-17T03:24:12.646Z</time><hdop>4.625</hdop><vdop>2.5</vdop><extensions><gom:speed>0.175</gom:speed></extensions></trkpt>
   <trkpt lat="59.3266422602" lon="34.6968538627"><ele>160.927</ele><time>2026-08-17T03:24:13.649Z</time><hdop>4.625</hdop><vdop>2.5</vdop><extensions><gom:speed>0.175</gom:speed></extensions></trkpt>
   <trkpt lat="59.3266434756" lon="34.6968540304"><ele>160.962</ele><time>2026-08-17T03:24:14.645Z</time><hdop>4.562</hdop><vdop>2.5</vdop><extensions><gom:speed>0.156</gom:speed></extensions></trkpt>
   <trkpt lat="59.326643769" lon="34.6968543656"><ele>160.983</ele><time>2026-08-17T03:24:15.672Z</time><hdop>4.562</hdop><vdop>2.5</vdop><extensions><gom:speed>0.156</gom:speed></extensions></trkpt>
   <trkpt lat="59.3266442719" lon="34.6968547847"><ele>160.994</ele><time>2026-08-17T03:24:16.646Z</time><hdop>4.562</hdop><vdop>2.5</vdop><extensions><gom:speed>0.144</gom:speed></extensions></trkpt>
   <trkpt lat="59.326644691" lon="34.6968550362"><ele>161.013</ele><time>2026-08-17T03:24:17.652Z</time><hdop>4.625</hdop><vdop>2.5</vdop><extensions><gom:speed>0.143</gom:speed></extensions></trkpt>
   <trkpt lat="59.3266453615" lon="34.6968553715"><ele>161.032</ele><time>2026-08-17T03:24:18.646Z</time><hdop>4.625</hdop><vdop>2.5</vdop><extensions><gom:speed>0.124</gom:speed></extensions></trkpt>
   <trkpt lat="59.3266452777" lon="34.6968553715"><ele>161.044</ele><time>2026-08-17T03:24:19.213Z</time><hdop>4.562</hdop><vdop>2.5</vdop><extensions><gom:speed>0.124</gom:speed></extensions></trkpt>
   <trkpt lat="59.3266461997" lon="34.6968538627"><ele>161.077</ele><time>2026-08-17T03:24:20.387Z</time><hdop>4.625</hdop><vdop>2.5</vdop><extensions><gom:speed>0.4</gom:speed></extensions></trkpt>
   <trkpt lat="59.326646074" lon="34.6968499232"><ele>161.107</ele><time>2026-08-17T03:24:21.126Z</time><hdop>4.687</hdop><vdop>2.5</vdop><extensions><gom:speed>0.691</gom:speed></extensions></trkpt>
   <trkpt lat="59.3266464931" lon="34.6968475763"><ele>161.113</ele><time>2026-08-17T03:24:21.652Z</time><hdop>4.812</hdop><vdop>2.812</vdop><extensions><gom:speed>0.725</gom:speed></extensions></trkpt>
   <trkpt lat="59.326646074" lon="34.6968441397"><ele>161.116</ele><time>2026-08-17T03:24:22.542Z</time><hdop>5.0</hdop><vdop>2.812</vdop><extensions><gom:speed>0.648</gom:speed></extensions></trkpt>
   <trkpt lat="59.326643266" lon="34.6968369313"><ele>161.439</ele><time>2026-08-17T03:24:23.281Z</time><hdop>5.25</hdop><vdop>3.0</vdop><extensions><gom:speed>0.615</gom:speed></extensions></trkpt>
   <trkpt lat="59.326639578" lon="34.6968236879"><ele>161.609</ele><time>2026-08-17T03:24:24.120Z</time><hdop>5.5</hdop><vdop>3.125</vdop><extensions><gom:speed>0.666</gom:speed></extensions></trkpt>
   <trkpt lat="59.3266360995" lon="34.6968094386"><ele>161.021</ele><time>2026-08-17T03:24:24.645Z</time><hdop>5.562</hdop><vdop>3.187</vdop><extensions><gom:speed>0.704</gom:speed></extensions></trkpt>
   <trkpt lat="59.3266298969" lon="34.6967808563"><ele>160.941</ele><time>2026-08-17T03:24:25.646Z</time><hdop>5.75</hdop><vdop>3.187</vdop><extensions><gom:speed>0.717</gom:speed></extensions></trkpt>
   <trkpt lat="59.3266271728" lon="34.6967676968"><ele>160.892</ele><time>2026-08-17T03:24:26.437Z</time><hdop>5.937</hdop><vdop>3.187</vdop><extensions><gom:speed>0.731</gom:speed></extensions></trkpt>
   <trkpt lat="59.3266241972" lon="34.6967480831"><ele>160.903</ele><time>2026-08-17T03:24:27.338Z</time><hdop>6.0</hdop><vdop>3.187</vdop><extensions><gom:speed>0.664</gom:speed></extensions></trkpt>
   <trkpt lat="59.3266234848" lon="34.696727296"><ele>161.03</ele><time>2026-08-17T03:24:28.359Z</time><hdop>5.937</hdop><vdop>3.312</vdop><extensions><gom:speed>0.621</gom:speed></extensions></trkpt>
   <trkpt lat="59.326622898" lon="34.6967136335"><ele>161.255</ele><time>2026-08-17T03:24:29.138Z</time><hdop>5.75</hdop><vdop>3.437</vdop><extensions><gom:speed>0.61</gom:speed></extensions></trkpt>
   <trkpt lat="59.3266226885" lon="34.6967065927"><ele>161.558</ele><time>2026-08-17T03:24:29.652Z</time><hdop>5.687</hdop><vdop>3.437</vdop><extensions><gom:speed>0.595</gom:speed></extensions></trkpt>
   <trkpt lat="59.3266234848" lon="34.6966959477"><ele>161.739</ele><time>2026-08-17T03:24:30.140Z</time><hdop>5.625</hdop><vdop>3.437</vdop><extensions><gom:speed>0.607</gom:speed></extensions></trkpt>
   <trkpt lat="59.3266245744" lon="34.6966841292"><ele>162.624</ele><time>2026-08-17T03:24:30.646Z</time><hdop>5.562</hdop><vdop>3.25</vdop><extensions><gom:speed>0.613</gom:speed></extensions></trkpt>
   <trkpt lat="59.3266277595" lon="34.6966748253"><ele>162.129</ele><time>2026-08-17T03:24:31.658Z</time><hdop>5.375</hdop><vdop>3.125</vdop><extensions><gom:speed>0.515</gom:speed></extensions></trkpt>
   <trkpt lat="59.3266354709" lon="34.6966621686"><ele>162.6</ele><time>2026-08-17T03:24:32.646Z</time><hdop>5.25</hdop><vdop>2.937</vdop><extensions><gom:speed>0.553</gom:speed></extensions></trkpt>
   <trkpt lat="59.3266390751" lon="34.6966549602"><ele>162.712</ele><time>2026-08-17T03:24:33.652Z</time><hdop>5.125</hdop><vdop>3.0</vdop><extensions><gom:speed>0.438</gom:speed></extensions></trkpt>
   <trkpt lat="59.3266429727" lon="34.6966458239"><ele>161.743</ele><time>2026-08-17T03:24:34.653Z</time><hdop>4.937</hdop><vdop>3.125</vdop><extensions><gom:speed>0.357</gom:speed></extensions></trkpt>
   <trkpt lat="59.3266450682" lon="34.6966370229"><ele>161.164</ele><time>2026-08-17T03:24:35.381Z</time><hdop>4.875</hdop><vdop>3.125</vdop><extensions><gom:speed>0.4</gom:speed></extensions></trkpt>
   <trkpt lat="59.3266473732" lon="34.6966318261"><ele>160.836</ele><time>2026-08-17T03:24:36.008Z</time><hdop>4.812</hdop><vdop>2.812</vdop><extensions><gom:speed>0.352</gom:speed></extensions></trkpt>
   <trkpt lat="59.3266472894" lon="34.6966252882"><ele>160.64</ele><time>2026-08-17T03:24:36.646Z</time><hdop>4.75</hdop><vdop>2.812</vdop><extensions><gom:speed>0.317</gom:speed></extensions></trkpt>
   <trkpt lat="59.3266500973" lon="34.6966199238"><ele>160.737</ele><time>2026-08-17T03:24:37.645Z</time><hdop>4.625</hdop><vdop>2.625</vdop><extensions><gom:speed>0.297</gom:speed></extensions></trkpt>
   <trkpt lat="59.3266513965" lon="34.696617996"><ele>160.795</ele><time>2026-08-17T03:24:38.679Z</time><hdop>4.5</hdop><vdop>2.625</vdop><extensions><gom:speed>0.178</gom:speed></extensions></trkpt>
   <trkpt lat="59.32665257" lon="34.6966151461"><ele>160.768</ele><time>2026-08-17T03:24:39.358Z</time><hdop>4.5</hdop><vdop>2.562</vdop><extensions><gom:speed>0.2</gom:speed></extensions></trkpt>
   <trkpt lat="59.3266539949" lon="34.6966123801"><ele>160.472</ele><time>2026-08-17T03:24:39.843Z</time><hdop>4.375</hdop><vdop>2.5</vdop><extensions><gom:speed>0.16</gom:speed></extensions></trkpt>
   <trkpt lat="59.3266542882" lon="34.6966095302"><ele>160.295</ele><time>2026-08-17T03:24:40.541Z</time><hdop>4.375</hdop><vdop>2.5</vdop><extensions><gom:speed>0.195</gom:speed></extensions></trkpt>
   <trkpt lat="59.3266553779" lon="34.6966060937"><ele>160.09</ele><time>2026-08-17T03:24:41.360Z</time><hdop>4.312</hdop><vdop>2.5</vdop><extensions><gom:speed>0.159</gom:speed></extensions></trkpt>
   <trkpt lat="59.3266563837" lon="34.6966042496"><ele>159.752</ele><time>2026-08-17T03:24:42.018Z</time><hdop>4.187</hdop><vdop>2.5</vdop><extensions><gom:speed>0.122</gom:speed></extensions></trkpt>
   <trkpt lat="59.3266566771" lon="34.6966024894"><ele>159.505</ele><time>2026-08-17T03:24:42.652Z</time><hdop>4.187</hdop><vdop>2.562</vdop><extensions><gom:speed>0.133</gom:speed></extensions></trkpt>
   <trkpt lat="59.3266578925" lon="34.69659855"><ele>159.358</ele><time>2026-08-17T03:24:43.667Z</time><hdop>4.125</hdop><vdop>2.562</vdop><extensions><gom:speed>0.171</gom:speed></extensions></trkpt>
   <trkpt lat="59.3266587726" lon="34.696595281"><ele>159.216</ele><time>2026-08-17T03:24:44.345Z</time><hdop>4.062</hdop><vdop>2.812</vdop><extensions><gom:speed>0.168</gom:speed></extensions></trkpt>
   <trkpt lat="59.3266626701" lon="34.6965854742"><ele>159.117</ele><time>2026-08-17T03:24:45.647Z</time><hdop>3.875</hdop><vdop>2.562</vdop><extensions><gom:speed>0.14</gom:speed></extensions></trkpt>
   <trkpt lat="59.326663676" lon="34.6965826243"><ele>159.059</ele><time>2026-08-17T03:24:46.652Z</time><hdop>3.812</hdop><vdop>2.5</vdop><extensions><gom:speed>0.035</gom:speed></extensions></trkpt>
   <trkpt lat="59.3266655619" lon="34.6965798583"><ele>159.023</ele><time>2026-08-17T03:24:47.663Z</time><hdop>3.687</hdop><vdop>2.5</vdop><extensions><gom:speed>0.021</gom:speed></extensions></trkpt>
   <trkpt lat="59.3266674897" lon="34.6965766732"><ele>159.001</ele><time>2026-08-17T03:24:48.652Z</time><hdop>3.562</hdop><vdop>2.5</vdop><extensions><gom:speed>0.015</gom:speed></extensions></trkpt>
   <trkpt lat="59.3266687889" lon="34.6965713926"><ele>158.988</ele><time>2026-08-17T03:24:49.646Z</time><hdop>3.312</hdop><vdop>2.5</vdop><extensions><gom:speed>0.075</gom:speed></extensions></trkpt>
   <trkpt lat="59.3266686632" lon="34.6965710573"><ele>158.979</ele><time>2026-08-17T03:24:50.658Z</time><hdop>3.125</hdop><vdop>2.5</vdop><extensions><gom:speed>0.01</gom:speed></extensions></trkpt>
   <trkpt lat="59.3266689985" lon="34.6965684589"><ele>158.974</ele><time>2026-08-17T03:24:51.646Z</time><hdop>3.062</hdop><vdop>2.5</vdop><extensions><gom:speed>0.056</gom:speed></extensions></trkpt>
   <trkpt lat="59.3266687889" lon="34.6965666987"><ele>158.971</ele><time>2026-08-17T03:24:52.653Z</time><hdop>3.0</hdop><vdop>2.5</vdop><extensions><gom:speed>0.011</gom:speed></extensions></trkpt>
   <trkpt lat="59.3266693757" lon="34.6965655253"><ele>158.967</ele><time>2026-08-17T03:24:53.652Z</time><hdop>3.0</hdop><vdop>2.5</vdop><extensions><gom:speed>0.006</gom:speed></extensions></trkpt>
   <trkpt lat="59.3266702977" lon="34.696563346"><ele>158.962</ele><time>2026-08-17T03:24:54.646Z</time><hdop>3.0</hdop><vdop>2.5</vdop><extensions><gom:speed>0.074</gom:speed></extensions></trkpt>
   <trkpt lat="59.3266703815" lon="34.6965631783"><ele>158.957</ele><time>2026-08-17T03:24:55.656Z</time><hdop>3.0</hdop><vdop>2.5</vdop><extensions><gom:speed>0.006</gom:speed></extensions></trkpt>
   <trkpt lat="59.326671094" lon="34.6965639327"><ele>158.949</ele><time>2026-08-17T03:24:56.652Z</time><hdop>3.0</hdop><vdop>2.5</vdop><extensions><gom:speed>0.007</gom:speed></extensions></trkpt>
   <trkpt lat="59.3266714711" lon="34.696563346"><ele>158.94</ele><time>2026-08-17T03:24:57.652Z</time><hdop>3.0</hdop><vdop>2.5</vdop><extensions><gom:speed>0.01</gom:speed></extensions></trkpt>
   <trkpt lat="59.3266716807" lon="34.6965626754"><ele>158.93</ele><time>2026-08-17T03:24:58.646Z</time><hdop>3.0</hdop><vdop>2.5</vdop><extensions><gom:speed>0.056</gom:speed></extensions></trkpt>
   <trkpt lat="59.3266720998" lon="34.6965620887"><ele>158.92</ele><time>2026-08-17T03:24:59.652Z</time><hdop>3.0</hdop><vdop>2.5</vdop><extensions><gom:speed>0.005</gom:speed></extensions></trkpt>
   <trkpt lat="59.3266718902" lon="34.6965620887"><ele>158.913</ele><time>2026-08-17T03:25:00.652Z</time><hdop>3.0</hdop><vdop>2.5</vdop><extensions><gom:speed>0.007</gom:speed></extensions></trkpt>
   <trkpt lat="59.3266714711" lon="34.696562843"><ele>158.909</ele><time>2026-08-17T03:25:01.653Z</time><hdop>3.0</hdop><vdop>2.5</vdop><extensions><gom:speed>0.008</gom:speed></extensions></trkpt>
   <trkpt lat="59.326671094" lon="34.6965617534"><ele>159.036</ele><time>2026-08-17T03:25:02.652Z</time><hdop>3.0</hdop><vdop>2.5</vdop><extensions><gom:speed>0.014</gom:speed></extensions></trkpt>
   <trkpt lat="59.326671094" lon="34.6965606637"><ele>159.122</ele><time>2026-08-17T03:25:03.652Z</time><hdop>3.0</hdop><vdop>2.5</vdop><extensions><gom:speed>0.018</gom:speed></extensions></trkpt>
   <trkpt lat="59.3266709682" lon="34.6965586521"><ele>159.179</ele><time>2026-08-17T03:25:04.646Z</time><hdop>3.0</hdop><vdop>2.5</vdop><extensions><gom:speed>0.0</gom:speed></extensions></trkpt>
   <trkpt lat="59.3266709682" lon="34.6965581492"><ele>159.213</ele><time>2026-08-17T03:25:05.652Z</time><hdop>3.0</hdop><vdop>2.5</vdop><extensions><gom:speed>0.001</gom:speed></extensions></trkpt>
   <trkpt lat="59.3266709682" lon="34.6965573948"><ele>159.235</ele><time>2026-08-17T03:25:06.646Z</time><hdop>3.0</hdop><vdop>2.5</vdop><extensions><gom:speed>0.026</gom:speed></extensions></trkpt>
   <trkpt lat="59.3266709682" lon="34.6965566404"><ele>159.25</ele><time>2026-08-17T03:25:07.652Z</time><hdop>3.0</hdop><vdop>2.5</vdop><extensions><gom:speed>0.027</gom:speed></extensions></trkpt>
   <trkpt lat="59.326671094" lon="34.6965558861"><ele>159.263</ele><time>2026-08-17T03:25:08.667Z</time><hdop>3.0</hdop><vdop>2.5</vdop><extensions><gom:speed>0.034</gom:speed></extensions></trkpt>
   <trkpt lat="59.3266711778" lon="34.6965551317"><ele>159.27</ele><time>2026-08-17T03:25:09.652Z</time><hdop>3.0</hdop><vdop>2.5</vdop><extensions><gom:speed>0.04</gom:speed></extensions></trkpt>
   <trkpt lat="59.3266711778" lon="34.6965544611"><ele>159.276</ele><time>2026-08-17T03:25:10.652Z</time><hdop>3.0</hdop><vdop>2.5</vdop><extensions><gom:speed>0.045</gom:speed></extensions></trkpt>
   <trkpt lat="59.3266711778" lon="34.6965537906"><ele>159.283</ele><time>2026-08-17T03:25:11.652Z</time><hdop>3.0</hdop><vdop>2.5</vdop><extensions><gom:speed>0.05</gom:speed></extensions></trkpt>
   <trkpt lat="59.3266711778" lon="34.6965530362"><ele>159.294</ele><time>2026-08-17T03:25:12.652Z</time><hdop>3.0</hdop><vdop>2.5</vdop><extensions><gom:speed>0.055</gom:speed></extensions></trkpt>
   <trkpt lat="59.3266711778" lon="34.6965525333"><ele>159.305</ele><time>2026-08-17T03:25:13.647Z</time><hdop>3.0</hdop><vdop>2.5</vdop><extensions><gom:speed>0.058</gom:speed></extensions></trkpt>
   <trkpt lat="59.3266711778" lon="34.6965518628"><ele>159.317</ele><time>2026-08-17T03:25:14.652Z</time><hdop>3.0</hdop><vdop>2.5</vdop><extensions><gom:speed>0.058</gom:speed></extensions></trkpt>
   <trkpt lat="59.3266711778" lon="34.6965514437"><ele>159.216</ele><time>2026-08-17T03:25:15.646Z</time><hdop>3.0</hdop><vdop>2.5</vdop><extensions><gom:speed>0.107</gom:speed></extensions></trkpt>
   <trkpt lat="59.3266711778" lon="34.6965502702"><ele>159.156</ele><time>2026-08-17T03:25:16.558Z</time><hdop>3.0</hdop><vdop>2.5</vdop><extensions><gom:speed>0.11</gom:speed></extensions></trkpt>
   <trkpt lat="59.3266712616" lon="34.6965479233"><ele>159.035</ele><time>2026-08-17T03:25:17.418Z</time><hdop>3.0</hdop><vdop>2.5</vdop><extensions><gom:speed>0.305</gom:speed></extensions></trkpt>
   <trkpt lat="59.3266714711" lon="34.6965465822"><ele>159.357</ele><time>2026-08-17T03:25:18.460Z</time><hdop>3.0</hdop><vdop>2.5</vdop><extensions><gom:speed>0.111</gom:speed></extensions></trkpt>
   <trkpt lat="59.3266718902" lon="34.6965454925"><ele>159.624</ele><time>2026-08-17T03:25:19.652Z</time><hdop>3.0</hdop><vdop>2.5</vdop><extensions><gom:speed>0.144</gom:speed></extensions></trkpt>
   <trkpt lat="59.3266726865" lon="34.6965438999"><ele>159.74</ele><time>2026-08-17T03:25:20.652Z</time><hdop>3.0</hdop><vdop>2.5</vdop><extensions><gom:speed>0.166</gom:speed></extensions></trkpt>
   <trkpt lat="59.3266757878" lon="34.6965451572"><ele>159.809</ele><time>2026-08-17T03:25:21.617Z</time><hdop>3.0</hdop><vdop>2.5</vdop><extensions><gom:speed>0.161</gom:speed></extensions></trkpt>
   <trkpt lat="59.3266785958" lon="34.6965454925"><ele>159.688</ele><time>2026-08-17T03:25:22.578Z</time><hdop>3.0</hdop><vdop>2.562</vdop><extensions><gom:speed>0.165</gom:speed></extensions></trkpt>
   <trkpt lat="59.3266818647" lon="34.696546666"><ele>159.874</ele><time>2026-08-17T03:25:23.519Z</time><hdop>3.0</hdop><vdop>2.687</vdop><extensions><gom:speed>0.167</gom:speed></extensions></trkpt>
   <trkpt lat="59.3266850917" lon="34.6965483424"><ele>159.126</ele><time>2026-08-17T03:25:24.440Z</time><hdop>3.0</hdop><vdop>2.625</vdop><extensions><gom:speed>0.14</gom:speed></extensions></trkpt>
   <trkpt lat="59.326688193" lon="34.6965507731"><ele>158.868</ele><time>2026-08-17T03:25:25.401Z</time><hdop>3.0</hdop><vdop>2.625</vdop><extensions><gom:speed>0.12</gom:speed></extensions></trkpt>
   <trkpt lat="59.3266953596" lon="34.6965456601"><ele>159.151</ele><time>2026-08-17T03:25:26.200Z</time><hdop>3.0</hdop><vdop>2.75</vdop><extensions><gom:speed>0.351</gom:speed></extensions></trkpt>
   <trkpt lat="59.3266991733" lon="34.6965421397"><ele>159.562</ele><time>2026-08-17T03:25:26.655Z</time><hdop>3.0</hdop><vdop>3.0</vdop><extensions><gom:speed>0.393</gom:speed></extensions></trkpt>
   <trkpt lat="59.3267069685" lon="34.6965310756"><ele>159.807</ele><time>2026-08-17T03:25:27.628Z</time><hdop>3.0</hdop><vdop>3.0</vdop><extensions><gom:speed>0.393</gom:speed></extensions></trkpt>
   <trkpt lat="59.3267170687" lon="34.696518419"><ele>160.43</ele><time>2026-08-17T03:25:28.646Z</time><hdop>3.0</hdop><vdop>3.312</vdop><extensions><gom:speed>0.464</gom:speed></extensions></trkpt>
   <trkpt lat="59.326721092" lon="34.6965137251"><ele>161.003</ele><time>2026-08-17T03:25:29.653Z</time><hdop>3.0</hdop><vdop>3.437</vdop><extensions><gom:speed>0.229</gom:speed></extensions></trkpt>
   <trkpt lat="59.3267310665" lon="34.6965023257"><ele>161.096</ele><time>2026-08-17T03:25:30.646Z</time><hdop>3.0</hdop><vdop>3.5</vdop><extensions><gom:speed>0.478</gom:speed></extensions></trkpt>
   <trkpt lat="59.3267338744" lon="34.6964962907"><ele>161.151</ele><time>2026-08-17T03:25:31.562Z</time><hdop>3.0</hdop><vdop>3.5</vdop><extensions><gom:speed>0.348</gom:speed></extensions></trkpt>
   <trkpt lat="59.3267365985" lon="34.6964902558"><ele>161.387</ele><time>2026-08-17T03:25:32.322Z</time><hdop>3.0</hdop><vdop>3.687</vdop><extensions><gom:speed>0.285</gom:speed></extensions></trkpt>
   <trkpt lat="59.3267421725" lon="34.6964810357"><ele>162.619</ele><time>2026-08-17T03:25:32.918Z</time><hdop>3.0</hdop><vdop>3.562</vdop><extensions><gom:speed>0.303</gom:speed></extensions></trkpt>
   <trkpt lat="59.326742885" lon="34.6964789402"><ele>163.355</ele><time>2026-08-17T03:25:33.687Z</time><hdop>3.0</hdop><vdop>3.562</vdop><extensions><gom:speed>0.173</gom:speed></extensions></trkpt>
   <trkpt lat="59.32674519" lon="34.6964736596"><ele>164.02</ele><time>2026-08-17T03:25:34.652Z</time><hdop>3.0</hdop><vdop>3.187</vdop><extensions><gom:speed>0.159</gom:speed></extensions></trkpt>
   <trkpt lat="59.3267578886" lon="34.6964579854"><ele>164.417</ele><time>2026-08-17T03:25:35.407Z</time><hdop>3.0</hdop><vdop>3.187</vdop><extensions><gom:speed>0.546</gom:speed></extensions></trkpt>
   <trkpt lat="59.3267662705" lon="34.6964387909"><ele>162.39</ele><time>2026-08-17T03:25:36.646Z</time><hdop>3.0</hdop><vdop>3.25</vdop><extensions><gom:speed>0.59</gom:speed></extensions></trkpt>
   <trkpt lat="59.3267681983" lon="34.6964325883"><ele>161.179</ele><time>2026-08-17T03:25:37.198Z</time><hdop>3.0</hdop><vdop>3.25</vdop><extensions><gom:speed>0.43</gom:speed></extensions></trkpt>
   <trkpt lat="59.3267681983" lon="34.6964310795"><ele>159.793</ele><time>2026-08-17T03:25:37.652Z</time><hdop>3.0</hdop><vdop>3.375</vdop><extensions><gom:speed>0.294</gom:speed></extensions></trkpt>
   <trkpt lat="59.3267673601" lon="34.6964264695"><ele>158.113</ele><time>2026-08-17T03:25:38.652Z</time><hdop>3.0</hdop><vdop>3.375</vdop><extensions><gom:speed>0.191</gom:speed></extensions></trkpt>
   <trkpt lat="59.3267662705" lon="34.6964180876"><ele>157.109</ele><time>2026-08-17T03:25:39.182Z</time><hdop>3.0</hdop><vdop>3.375</vdop><extensions><gom:speed>0.242</gom:speed></extensions></trkpt>
   <trkpt lat="59.3267662705" lon="34.6964138966"><ele>157.201</ele><time>2026-08-17T03:25:39.646Z</time><hdop>3.0</hdop><vdop>3.187</vdop><extensions><gom:speed>0.256</gom:speed></extensions></trkpt>
   <trkpt lat="59.3267645941" lon="34.696404928"><ele>157.255</ele><time>2026-08-17T03:25:40.652Z</time><hdop>3.0</hdop><vdop>3.187</vdop><extensions><gom:speed>0.152</gom:speed></extensions></trkpt>
   <trkpt lat="59.3267626663" lon="34.6963998988"><ele>157.251</ele><time>2026-08-17T03:25:41.652Z</time><hdop>3.0</hdop><vdop>3.312</vdop><extensions><gom:speed>0.093</gom:speed></extensions></trkpt>
   <trkpt lat="59.3267606965" lon="34.6963958755"><ele>157.614</ele><time>2026-08-17T03:25:42.661Z</time><hdop>3.0</hdop><vdop>3.375</vdop><extensions><gom:speed>0.103</gom:speed></extensions></trkpt>
   <trkpt lat="59.3267589782" lon="34.6963910978"><ele>157.799</ele><time>2026-08-17T03:25:43.652Z</time><hdop>3.0</hdop><vdop>3.625</vdop><extensions><gom:speed>0.117</gom:speed></extensions></trkpt>
   <trkpt lat="59.3267555835" lon="34.6963827998"><ele>157.705</ele><time>2026-08-17T03:25:44.647Z</time><hdop>3.0</hdop><vdop>3.687</vdop><extensions><gom:speed>0.147</gom:speed></extensions></trkpt>
   <trkpt lat="59.3267545777" lon="34.6963804528"><ele>157.877</ele><time>2026-08-17T03:25:45.652Z</time><hdop>3.0</hdop><vdop>3.687</vdop><extensions><gom:speed>0.052</gom:speed></extensions></trkpt>
   <trkpt lat="59.3267528594" lon="34.6963772677"><ele>157.974</ele><time>2026-08-17T03:25:46.653Z</time><hdop>3.0</hdop><vdop>3.625</vdop><extensions><gom:speed>0.046</gom:speed></extensions></trkpt>
   <trkpt lat="59.3267505963" lon="34.6963738311"><ele>158.033</ele><time>2026-08-17T03:25:47.652Z</time><hdop>3.0</hdop><vdop>3.562</vdop><extensions><gom:speed>0.04</gom:speed></extensions></trkpt>
   <trkpt lat="59.3267479979" lon="34.6963708975"><ele>158.068</ele><time>2026-08-17T03:25:48.357Z</time><hdop>3.0</hdop><vdop>3.562</vdop><extensions><gom:speed>0.083</gom:speed></extensions></trkpt>
   <trkpt lat="59.3267452738" lon="34.6963687182"><ele>158.116</ele><time>2026-08-17T03:25:49.652Z</time><hdop>3.0</hdop><vdop>3.187</vdop><extensions><gom:speed>0.067</gom:speed></extensions></trkpt>
   <trkpt lat="59.3267430945" lon="34.696365533"><ele>158.143</ele><time>2026-08-17T03:25:50.654Z</time><hdop>3.0</hdop><vdop>2.812</vdop><extensions><gom:speed>0.087</gom:speed></extensions></trkpt>
   <trkpt lat="59.3267403704" lon="34.696361845"><ele>158.305</ele><time>2026-08-17T03:25:51.665Z</time><hdop>3.0</hdop><vdop>2.75</vdop><extensions><gom:speed>0.083</gom:speed></extensions></trkpt>
   <trkpt lat="59.3267357603" lon="34.6963577379"><ele>158.759</ele><time>2026-08-17T03:25:52.646Z</time><hdop>3.0</hdop><vdop>2.687</vdop><extensions><gom:speed>0.095</gom:speed></extensions></trkpt>
   <trkpt lat="59.3267351736" lon="34.6963561453"><ele>159.031</ele><time>2026-08-17T03:25:53.345Z</time><hdop>3.0</hdop><vdop>2.687</vdop><extensions><gom:speed>0.13</gom:speed></extensions></trkpt>
   <trkpt lat="59.3267333715" lon="34.6963550557"><ele>158.985</ele><time>2026-08-17T03:25:54.024Z</time><hdop>3.0</hdop><vdop>2.687</vdop><extensions><gom:speed>0.117</gom:speed></extensions></trkpt>
   <trkpt lat="59.3267324914" lon="34.6963547204"><ele>158.703</ele><time>2026-08-17T03:25:54.652Z</time><hdop>3.0</hdop><vdop>2.625</vdop><extensions><gom:speed>0.082</gom:speed></extensions></trkpt>
   <trkpt lat="59.3267302702" lon="34.6963540498"><ele>158.535</ele><time>2026-08-17T03:25:55.105Z</time><hdop>3.0</hdop><vdop>2.625</vdop><extensions><gom:speed>0.071</gom:speed></extensions></trkpt>
   <trkpt lat="59.3267293901" lon="34.6963535469"><ele>158.447</ele><time>2026-08-17T03:25:55.652Z</time><hdop>3.0</hdop><vdop>2.5</vdop><extensions><gom:speed>0.055</gom:speed></extensions></trkpt>
   <trkpt lat="59.3267258697" lon="34.6963518705"><ele>158.395</ele><time>2026-08-17T03:25:56.652Z</time><hdop>3.0</hdop><vdop>2.5</vdop><extensions><gom:speed>0.04</gom:speed></extensions></trkpt>
   <trkpt lat="59.3267234809" lon="34.6963503618"><ele>158.365</ele><time>2026-08-17T03:25:57.652Z</time><hdop>3.0</hdop><vdop>2.625</vdop><extensions><gom:speed>0.05</gom:speed></extensions></trkpt>
   <trkpt lat="59.3267220978" lon="34.6963482663"><ele>158.347</ele><time>2026-08-17T03:25:58.646Z</time><hdop>3.0</hdop><vdop>2.625</vdop><extensions><gom:speed>0.11</gom:speed></extensions></trkpt>
   <trkpt lat="59.32672017" lon="34.6963461708"><ele>158.443</ele><time>2026-08-17T03:25:59.466Z</time><hdop>3.0</hdop><vdop>3.0</vdop><extensions><gom:speed>0.094</gom:speed></extensions></trkpt>
   <trkpt lat="59.3267186613" lon="34.6963434886"><ele>158.5</ele><time>2026-08-17T03:26:00.609Z</time><hdop>3.0</hdop><vdop>3.375</vdop><extensions><gom:speed>0.134</gom:speed></extensions></trkpt>
   <trkpt lat="59.3267166915" lon="34.6963403873"><ele>158.547</ele><time>2026-08-17T03:26:01.287Z</time><hdop>3.0</hdop><vdop>2.937</vdop><extensions><gom:speed>0.132</gom:speed></extensions></trkpt>
   <trkpt lat="59.3267169849" lon="34.6963386271"><ele>158.466</ele><time>2026-08-17T03:26:02.501Z</time><hdop>3.0</hdop><vdop>3.062</vdop><extensions><gom:speed>0.16</gom:speed></extensions></trkpt>
   <trkpt lat="59.3267174878" lon="34.6963333465"><ele>159.309</ele><time>2026-08-17T03:26:03.646Z</time><hdop>3.0</hdop><vdop>2.937</vdop><extensions><gom:speed>0.191</gom:speed></extensions></trkpt>
   <trkpt lat="59.3267183679" lon="34.6963320892"><ele>159.813</ele><time>2026-08-17T03:26:04.484Z</time><hdop>3.0</hdop><vdop>2.937</vdop><extensions><gom:speed>0.193</gom:speed></extensions></trkpt>
   <trkpt lat="59.3267206729" lon="34.6963285689"><ele>160.123</ele><time>2026-08-17T03:26:05.566Z</time><hdop>3.0</hdop><vdop>3.062</vdop><extensions><gom:speed>0.201</gom:speed></extensions></trkpt>
   <trkpt lat="59.3267232713" lon="34.6963215281"><ele>160.769</ele><time>2026-08-17T03:26:06.244Z</time><hdop>3.0</hdop><vdop>3.125</vdop><extensions><gom:speed>0.214</gom:speed></extensions></trkpt>
   <trkpt lat="59.3267261631" lon="34.6963096257"><ele>160.97</ele><time>2026-08-17T03:26:07.652Z</time><hdop>3.0</hdop><vdop>3.062</vdop><extensions><gom:speed>0.127</gom:speed></extensions></trkpt>
   <trkpt lat="59.3267279652" lon="34.6962999866"><ele>161.105</ele><time>2026-08-17T03:26:08.653Z</time><hdop>3.0</hdop><vdop>2.875</vdop><extensions><gom:speed>0.088</gom:speed></extensions></trkpt>
   <trkpt lat="59.3267291806" lon="34.6962930296"><ele>161.097</ele><time>2026-08-17T03:26:09.652Z</time><hdop>3.0</hdop><vdop>3.062</vdop><extensions><gom:speed>0.055</gom:speed></extensions></trkpt>
   <trkpt lat="59.3267299768" lon="34.6962863241"><ele>161.093</ele><time>2026-08-17T03:26:10.200Z</time><hdop>3.0</hdop><vdop>3.062</vdop><extensions><gom:speed>0.11</gom:speed></extensions></trkpt>
   <trkpt lat="59.3267306893" lon="34.6962773554"><ele>161.088</ele><time>2026-08-17T03:26:11.283Z</time><hdop>3.0</hdop><vdop>2.812</vdop><extensions><gom:speed>0.134</gom:speed></extensions></trkpt>
   <trkpt lat="59.3267302702" lon="34.6962693926"><ele>161.126</ele><time>2026-08-17T03:26:12.645Z</time><hdop>3.0</hdop><vdop>3.125</vdop><extensions><gom:speed>0.123</gom:speed></extensions></trkpt>
   <trkpt lat="59.3267304797" lon="34.6962662913"><ele>161.791</ele><time>2026-08-17T03:26:13.652Z</time><hdop>3.0</hdop><vdop>3.125</vdop><extensions><gom:speed>0.107</gom:speed></extensions></trkpt>
   <trkpt lat="59.3267263726" lon="34.6962537185"><ele>162.214</ele><time>2026-08-17T03:26:14.646Z</time><hdop>3.0</hdop><vdop>3.125</vdop><extensions><gom:speed>0.16</gom:speed></extensions></trkpt>
   <trkpt lat="59.3267253668" lon="34.6962500304"><ele>162.466</ele><time>2026-08-17T03:26:15.320Z</time><hdop>3.0</hdop><vdop>3.125</vdop><extensions><gom:speed>0.142</gom:speed></extensions></trkpt>
   <trkpt lat="59.3267221817" lon="34.696242822"><ele>162.611</ele><time>2026-08-17T03:26:16.281Z</time><hdop>3.0</hdop><vdop>3.25</vdop><extensions><gom:speed>0.117</gom:speed></extensions></trkpt>
   <trkpt lat="59.3267189965" lon="34.6962335181"><ele>162.611</ele><time>2026-08-17T03:26:17.201Z</time><hdop>3.0</hdop><vdop>3.0</vdop><extensions><gom:speed>0.108</gom:speed></extensions></trkpt>
   <trkpt lat="59.3267181583" lon="34.6962306682"><ele>162.483</ele><time>2026-08-17T03:26:17.652Z</time><hdop>3.0</hdop><vdop>2.875</vdop><extensions><gom:speed>0.082</gom:speed></extensions></trkpt>
   <trkpt lat="59.3267158952" lon="34.6962222863"><ele>162.407</ele><time>2026-08-17T03:26:18.264Z</time><hdop>3.0</hdop><vdop>2.875</vdop><extensions><gom:speed>0.142</gom:speed></extensions></trkpt>
   <trkpt lat="59.3267106985" lon="34.6962058578"><ele>162.255</ele><time>2026-08-17T03:26:19.646Z</time><hdop>3.0</hdop><vdop>2.937</vdop><extensions><gom:speed>0.137</gom:speed></extensions></trkpt>
   <trkpt lat="59.3267074714" lon="34.6961962186"><ele>162.166</ele><time>2026-08-17T03:26:20.646Z</time><hdop>3.0</hdop><vdop>2.875</vdop><extensions><gom:speed>0.138</gom:speed></extensions></trkpt>
   <trkpt lat="59.3267061722" lon="34.6961941231"><ele>162.114</ele><time>2026-08-17T03:26:21.652Z</time><hdop>3.0</hdop><vdop>2.812</vdop><extensions><gom:speed>0.03</gom:speed></extensions></trkpt>
   <trkpt lat="59.32670349" lon="34.6961879205"><ele>162.082</ele><time>2026-08-17T03:26:22.646Z</time><hdop>3.0</hdop><vdop>2.75</vdop><extensions><gom:speed>0.063</gom:speed></extensions></trkpt>
   <trkpt lat="59.3267030709" lon="34.6961861603"><ele>162.063</ele><time>2026-08-17T03:26:23.423Z</time><hdop>3.0</hdop><vdop>2.75</vdop><extensions><gom:speed>0.079</gom:speed></extensions></trkpt>
   <trkpt lat="59.3267015622" lon="34.6961828914"><ele>162.243</ele><time>2026-08-17T03:26:24.364Z</time><hdop>3.0</hdop><vdop>2.625</vdop><extensions><gom:speed>0.082</gom:speed></extensions></trkpt>
   <trkpt lat="59.3266991733" lon="34.6961791195"><ele>162.472</ele><time>2026-08-17T03:26:25.265Z</time><hdop>3.0</hdop><vdop>2.875</vdop><extensions><gom:speed>0.087</gom:speed></extensions></trkpt>
   <trkpt lat="59.3266912943" lon="34.6961685583"><ele>162.796</ele><time>2026-08-17T03:26:26.646Z</time><hdop>3.0</hdop><vdop>3.062</vdop><extensions><gom:speed>0.321</gom:speed></extensions></trkpt>
   <trkpt lat="59.3266889893" lon="34.6961646188"><ele>162.989</ele><time>2026-08-17T03:26:27.258Z</time><hdop>3.0</hdop><vdop>3.062</vdop><extensions><gom:speed>0.246</gom:speed></extensions></trkpt>
   <trkpt lat="59.3266839602" lon="34.696157578"><ele>163.192</ele><time>2026-08-17T03:26:28.057Z</time><hdop>3.0</hdop><vdop>3.312</vdop><extensions><gom:speed>0.273</gom:speed></extensions></trkpt>
   <trkpt lat="59.3266813618" lon="34.6961543929"><ele>163.016</ele><time>2026-08-17T03:26:28.653Z</time><hdop>3.0</hdop><vdop>3.125</vdop><extensions><gom:speed>0.18</gom:speed></extensions></trkpt>
   <trkpt lat="59.3266642627" lon="34.6961359527"><ele>162.769</ele><time>2026-08-17T03:26:29.645Z</time><hdop>3.0</hdop><vdop>3.0</vdop><extensions><gom:speed>0.441</gom:speed></extensions></trkpt>
   <trkpt lat="59.3266507678" lon="34.6961208653"><ele>163.3</ele><time>2026-08-17T03:26:30.646Z</time><hdop>3.0</hdop><vdop>3.0</vdop><extensions><gom:speed>0.463</gom:speed></extensions></trkpt>
   <trkpt lat="59.3266475827" lon="34.6961166743"><ele>163.617</ele><time>2026-08-17T03:26:31.143Z</time><hdop>3.0</hdop><vdop>3.0</vdop><extensions><gom:speed>0.36</gom:speed></extensions></trkpt>
   <trkpt lat="59.3266443976" lon="34.6961129863"><ele>163.868</ele><time>2026-08-17T03:26:31.652Z</time><hdop>3.0</hdop><vdop>2.75</vdop><extensions><gom:speed>0.228</gom:speed></extensions></trkpt>
   <trkpt lat="59.3266332916" lon="34.6960961387"><ele>164.044</ele><time>2026-08-17T03:26:32.652Z</time><hdop>3.0</hdop><vdop>2.812</vdop><extensions><gom:speed>0.282</gom:speed></extensions></trkpt>
   <trkpt lat="59.3266197967" lon="34.6960760221"><ele>164.149</ele><time>2026-08-17T03:26:33.500Z</time><hdop>3.0</hdop><vdop>2.812</vdop><extensions><gom:speed>0.495</gom:speed></extensions></trkpt>
   <trkpt lat="59.3266110795" lon="34.6960627787"><ele>163.594</ele><time>2026-08-17T03:26:34.522Z</time><hdop>3.0</hdop><vdop>2.687</vdop><extensions><gom:speed>0.44</gom:speed></extensions></trkpt>
   <trkpt lat="59.3266057989" lon="34.6960500382"><ele>163.669</ele><time>2026-08-17T03:26:35.383Z</time><hdop>3.0</hdop><vdop>2.812</vdop><extensions><gom:speed>0.474</gom:speed></extensions></trkpt>
   <trkpt lat="59.3266033682" lon="34.6960375492"><ele>163.676</ele><time>2026-08-17T03:26:36.283Z</time><hdop>3.0</hdop><vdop>2.687</vdop><extensions><gom:speed>0.497</gom:speed></extensions></trkpt>
   <trkpt lat="59.3266024881" lon="34.6960220427"><ele>164.199</ele><time>2026-08-17T03:26:37.699Z</time><hdop>3.0</hdop><vdop>2.75</vdop><extensions><gom:speed>0.378</gom:speed></extensions></trkpt>
   <trkpt lat="59.3266045836" lon="34.696009386"><ele>164.502</ele><time>2026-08-17T03:26:38.652Z</time><hdop>3.0</hdop><vdop>2.5</vdop><extensions><gom:speed>0.314</gom:speed></extensions></trkpt>
   <trkpt lat="59.3266074753" lon="34.6960030995"><ele>164.782</ele><time>2026-08-17T03:26:39.662Z</time><hdop>3.0</hdop><vdop>2.5</vdop><extensions><gom:speed>0.199</gom:speed></extensions></trkpt>
   <trkpt lat="59.3266096965" lon="34.6959973999"><ele>164.95</ele><time>2026-08-17T03:26:40.157Z</time><hdop>3.0</hdop><vdop>2.5</vdop><extensions><gom:speed>0.274</gom:speed></extensions></trkpt>
   <trkpt lat="59.3266100737" lon="34.6959942986"><ele>164.849</ele><time>2026-08-17T03:26:40.652Z</time><hdop>3.0</hdop><vdop>2.5</vdop><extensions><gom:speed>0.232</gom:speed></extensions></trkpt>
   <trkpt lat="59.3266107862" lon="34.6959845755"><ele>164.789</ele><time>2026-08-17T03:26:41.382Z</time><hdop>3.0</hdop><vdop>2.5</vdop><extensions><gom:speed>0.337</gom:speed></extensions></trkpt>
   <trkpt lat="59.3266130912" lon="34.6959791273"><ele>164.709</ele><time>2026-08-17T03:26:42.653Z</time><hdop>3.0</hdop><vdop>2.5</vdop><extensions><gom:speed>0.082</gom:speed></extensions></trkpt>
   <trkpt lat="59.3266156896" lon="34.6959750202"><ele>164.669</ele><time>2026-08-17T03:26:43.652Z</time><hdop>3.0</hdop><vdop>2.5</vdop><extensions><gom:speed>0.073</gom:speed></extensions></trkpt>
   <trkpt lat="59.3266176593" lon="34.695969991"><ele>164.648</ele><time>2026-08-17T03:26:44.652Z</time><hdop>3.0</hdop><vdop>2.5</vdop><extensions><gom:speed>0.041</gom:speed></extensions></trkpt>
   <trkpt lat="59.3266189585" lon="34.6959636208"><ele>164.642</ele><time>2026-08-17T03:26:45.652Z</time><hdop>3.0</hdop><vdop>2.5</vdop><extensions><gom:speed>0.02</gom:speed></extensions></trkpt>
   <trkpt lat="59.3266204673" lon="34.6959575858"><ele>164.642</ele><time>2026-08-17T03:26:46.652Z</time><hdop>3.0</hdop><vdop>2.5</vdop><extensions><gom:speed>0.015</gom:speed></extensions></trkpt>
   <trkpt lat="59.3266217665" lon="34.695952389"><ele>164.644</ele><time>2026-08-17T03:26:47.652Z</time><hdop>3.0</hdop><vdop>2.5</vdop><extensions><gom:speed>0.014</gom:speed></extensions></trkpt>
   <trkpt lat="59.3266230657" lon="34.6959473599"><ele>164.644</ele><time>2026-08-17T03:26:48.666Z</time><hdop>3.0</hdop><vdop>2.5</vdop><extensions><gom:speed>0.013</gom:speed></extensions></trkpt>
   <trkpt lat="59.3266241972" lon="34.6959439233"><ele>164.646</ele><time>2026-08-17T03:26:49.652Z</time><hdop>3.0</hdop><vdop>2.5</vdop><extensions><gom:speed>0.019</gom:speed></extensions></trkpt>
   <trkpt lat="59.3266258736" lon="34.6959395647"><ele>164.645</ele><time>2026-08-17T03:26:50.646Z</time><hdop>3.0</hdop><vdop>2.5</vdop><extensions><gom:speed>0.063</gom:speed></extensions></trkpt>
   <trkpt lat="59.3266272985" lon="34.6959374692"><ele>164.644</ele><time>2026-08-17T03:26:51.646Z</time><hdop>3.0</hdop><vdop>2.5</vdop><extensions><gom:speed>0.05</gom:speed></extensions></trkpt>
   <trkpt lat="59.3266277595" lon="34.6959376369"><ele>164.646</ele><time>2026-08-17T03:26:52.652Z</time><hdop>3.0</hdop><vdop>2.5</vdop><extensions><gom:speed>0.028</gom:speed></extensions></trkpt>
   <trkpt lat="59.3266287654" lon="34.6959372178"><ele>164.653</ele><time>2026-08-17T03:26:53.664Z</time><hdop>3.0</hdop><vdop>2.5</vdop><extensions><gom:speed>0.02</gom:speed></extensions></trkpt>
   <trkpt lat="59.3266303998" lon="34.6959368825"><ele>164.685</ele><time>2026-08-17T03:26:54.652Z</time><hdop>3.0</hdop><vdop>2.5</vdop><extensions><gom:speed>0.015</gom:speed></extensions></trkpt>
   <trkpt lat="59.3266319924" lon="34.6959357929"><ele>164.409</ele><time>2026-08-17T03:26:55.652Z</time><hdop>3.0</hdop><vdop>2.5</vdop><extensions><gom:speed>0.034</gom:speed></extensions></trkpt>
   <trkpt lat="59.3266332916" lon="34.6959349547"><ele>164.244</ele><time>2026-08-17T03:26:56.122Z</time><hdop>3.0</hdop><vdop>2.5</vdop><extensions><gom:speed>0.03</gom:speed></extensions></trkpt>
   <trkpt lat="59.3266345908" lon="34.6959340327"><ele>164.05</ele><time>2026-08-17T03:26:56.647Z</time><hdop>3.0</hdop><vdop>2.5</vdop><extensions><gom:speed>0.077</gom:speed></extensions></trkpt>
   <trkpt lat="59.3266347584" lon="34.6959328592"><ele>163.822</ele><time>2026-08-17T03:26:57.652Z</time><hdop>3.0</hdop><vdop>2.5</vdop><extensions><gom:speed>0.077</gom:speed></extensions></trkpt>
   <trkpt lat="59.3266352613" lon="34.6959313505"><ele>163.685</ele><time>2026-08-17T03:26:58.186Z</time><hdop>3.0</hdop><vdop>2.5</vdop><extensions><gom:speed>0.115</gom:speed></extensions></trkpt>
   <trkpt lat="59.3266351775" lon="34.6959305961"><ele>163.523</ele><time>2026-08-17T03:26:58.652Z</time><hdop>3.0</hdop><vdop>2.562</vdop><extensions><gom:speed>0.1</gom:speed></extensions></trkpt>
   <trkpt lat="59.3266348841" lon="34.6959285844"><ele>163.425</ele><time>2026-08-17T03:26:59.279Z</time><hdop>3.0</hdop><vdop>2.562</vdop><extensions><gom:speed>0.155</gom:speed></extensions></trkpt>
   <trkpt lat="59.3266340879" lon="34.6959251479"><ele>163.221</ele><time>2026-08-17T03:27:00.038Z</time><hdop>3.0</hdop><vdop>2.75</vdop><extensions><gom:speed>0.179</gom:speed></extensions></trkpt>
   <trkpt lat="59.3266335849" lon="34.6959236391"><ele>163.482</ele><time>2026-08-17T03:27:00.652Z</time><hdop>3.0</hdop><vdop>2.687</vdop><extensions><gom:speed>0.141</gom:speed></extensions></trkpt>
   <trkpt lat="59.3266333754" lon="34.6959179394"><ele>163.595</ele><time>2026-08-17T03:27:01.652Z</time><hdop>3.0</hdop><vdop>2.687</vdop><extensions><gom:speed>0.164</gom:speed></extensions></trkpt>
   <trkpt lat="59.3266343812" lon="34.6959128265"><ele>163.663</ele><time>2026-08-17T03:27:02.618Z</time><hdop>3.0</hdop><vdop>2.687</vdop><extensions><gom:speed>0.188</gom:speed></extensions></trkpt>
   <trkpt lat="59.3266351775" lon="34.6959075459"><ele>163.429</ele><time>2026-08-17T03:27:03.661Z</time><hdop>3.0</hdop><vdop>2.5</vdop><extensions><gom:speed>0.191</gom:speed></extensions></trkpt>
   <trkpt lat="59.3266355966" lon="34.6959024329"><ele>163.301</ele><time>2026-08-17T03:27:04.661Z</time><hdop>3.0</hdop><vdop>2.5</vdop><extensions><gom:speed>0.171</gom:speed></extensions></trkpt>
   <trkpt lat="59.3266362672" lon="34.6958976552"><ele>163.205</ele><time>2026-08-17T03:27:05.602Z</time><hdop>3.0</hdop><vdop>2.5</vdop><extensions><gom:speed>0.159</gom:speed></extensions></trkpt>
   <trkpt lat="59.3266374825" lon="34.6958941348"><ele>163.409</ele><time>2026-08-17T03:27:06.300Z</time><hdop>3.0</hdop><vdop>2.5</vdop><extensions><gom:speed>0.165</gom:speed></extensions></trkpt>
   <trkpt lat="59.3266379854" lon="34.6958902791"><ele>163.981</ele><time>2026-08-17T03:27:07.120Z</time><hdop>3.0</hdop><vdop>2.5</vdop><extensions><gom:speed>0.146</gom:speed></extensions></trkpt>
   <trkpt lat="59.3266379854" lon="34.6958890218"><ele>164.033</ele><time>2026-08-17T03:27:07.652Z</time><hdop>3.0</hdop><vdop>2.5</vdop><extensions><gom:speed>0.102</gom:speed></extensions></trkpt>
   <trkpt lat="59.3266375663" lon="34.6958859205"><ele>164.047</ele><time>2026-08-17T03:27:08.652Z</time><hdop>3.0</hdop><vdop>2.5</vdop><extensions><gom:speed>0.063</gom:speed></extensions></trkpt>
   <trkpt lat="59.326637273" lon="34.6958826516"><ele>164.06</ele><time>2026-08-17T03:27:09.652Z</time><hdop>3.0</hdop><vdop>2.5</vdop><extensions><gom:speed>0.062</gom:speed></extensions></trkpt>
   <trkpt lat="59.3266367701" lon="34.6958790474"><ele>164.068</ele><time>2026-08-17T03:27:10.438Z</time><hdop>3.0</hdop><vdop>2.5</vdop><extensions><gom:speed>0.106</gom:speed></extensions></trkpt>
   <trkpt lat="59.3266363929" lon="34.6958786283"><ele>164.141</ele><time>2026-08-17T03:27:11.652Z</time><hdop>3.0</hdop><vdop>2.5</vdop><extensions><gom:speed>0.04</gom:speed></extensions></trkpt>
   <trkpt lat="59.3266371892" lon="34.6958726771"><ele>163.903</ele><time>2026-08-17T03:27:12.646Z</time><hdop>3.0</hdop><vdop>2.5</vdop><extensions><gom:speed>0.098</gom:speed></extensions></trkpt>
   <trkpt lat="59.3266374825" lon="34.6958699949"><ele>163.586</ele><time>2026-08-17T03:27:13.656Z</time><hdop>3.0</hdop><vdop>2.5</vdop><extensions><gom:speed>0.078</gom:speed></extensions></trkpt>
   <trkpt lat="59.3266383626" lon="34.6958652172"><ele>163.125</ele><time>2026-08-17T03:27:14.652Z</time><hdop>3.0</hdop><vdop>2.5</vdop><extensions><gom:speed>0.088</gom:speed></extensions></trkpt>
   <trkpt lat="59.3266387817" lon="34.6958584279"><ele>163.21</ele><time>2026-08-17T03:27:15.652Z</time><hdop>3.0</hdop><vdop>2.687</vdop><extensions><gom:speed>0.11</gom:speed></extensions></trkpt>
   <trkpt lat="59.3266396618" lon="34.6958451845"><ele>163.212</ele><time>2026-08-17T03:27:16.652Z</time><hdop>3.0</hdop><vdop>2.5</vdop><extensions><gom:speed>0.173</gom:speed></extensions></trkpt>
   <trkpt lat="59.3266417992" lon="34.6958265767"><ele>163.522</ele><time>2026-08-17T03:27:17.646Z</time><hdop>3.0</hdop><vdop>2.5</vdop><extensions><gom:speed>0.264</gom:speed></extensions></trkpt>
   <trkpt lat="59.3266423859" lon="34.6958221343"><ele>163.707</ele><time>2026-08-17T03:27:18.482Z</time><hdop>3.0</hdop><vdop>2.5</vdop><extensions><gom:speed>0.175</gom:speed></extensions></trkpt>
   <trkpt lat="59.3266440623" lon="34.6958091423"><ele>163.24</ele><time>2026-08-17T03:27:19.281Z</time><hdop>3.0</hdop><vdop>2.5</vdop><extensions><gom:speed>0.267</gom:speed></extensions></trkpt>
   <trkpt lat="59.3266458644" lon="34.6957909536"><ele>162.713</ele><time>2026-08-17T03:27:20.616Z</time><hdop>3.0</hdop><vdop>2.5</vdop><extensions><gom:speed>0.314</gom:speed></extensions></trkpt>
   <trkpt lat="59.3266531986" lon="34.6957520615"><ele>162.066</ele><time>2026-08-17T03:27:21.646Z</time><hdop>3.0</hdop><vdop>2.562</vdop><extensions><gom:speed>0.547</gom:speed></extensions></trkpt>
   <trkpt lat="59.3266577667" lon="34.6957335375"><ele>161.871</ele><time>2026-08-17T03:27:22.646Z</time><hdop>3.0</hdop><vdop>2.562</vdop><extensions><gom:speed>0.49</gom:speed></extensions></trkpt>
   <trkpt lat="59.3266593593" lon="34.6957255747"><ele>161.755</ele><time>2026-08-17T03:27:23.540Z</time><hdop>3.0</hdop><vdop>2.562</vdop><extensions><gom:speed>0.352</gom:speed></extensions></trkpt>
   <trkpt lat="59.3266625863" lon="34.6957177796"><ele>161.673</ele><time>2026-08-17T03:27:24.562Z</time><hdop>3.0</hdop><vdop>2.625</vdop><extensions><gom:speed>0.24</gom:speed></extensions></trkpt>
   <trkpt lat="59.3266657715" lon="34.6957102359"><ele>161.659</ele><time>2026-08-17T03:27:25.341Z</time><hdop>3.0</hdop><vdop>2.75</vdop><extensions><gom:speed>0.217</gom:speed></extensions></trkpt>
   <trkpt lat="59.3266680765" lon="34.6957069669"><ele>161.665</ele><time>2026-08-17T03:27:26.121Z</time><hdop>3.0</hdop><vdop>2.687</vdop><extensions><gom:speed>0.168</gom:speed></extensions></trkpt>
   <trkpt lat="59.3266690823" lon="34.6957054582"><ele>161.766</ele><time>2026-08-17T03:27:26.653Z</time><hdop>3.0</hdop><vdop>2.875</vdop><extensions><gom:speed>0.131</gom:speed></extensions></trkpt>
   <trkpt lat="59.326677087" lon="34.6956929691"><ele>161.821</ele><time>2026-08-17T03:27:27.646Z</time><hdop>3.0</hdop><vdop>3.25</vdop><extensions><gom:speed>0.435</gom:speed></extensions></trkpt>
   <trkpt lat="59.3266797692" lon="34.6956863474"><ele>161.854</ele><time>2026-08-17T03:27:28.346Z</time><hdop>3.0</hdop><vdop>3.25</vdop><extensions><gom:speed>0.342</gom:speed></extensions></trkpt>
   <trkpt lat="59.3266823676" lon="34.6956845872"><ele>161.754</ele><time>2026-08-17T03:27:29.460Z</time><hdop>3.0</hdop><vdop>3.75</vdop><extensions><gom:speed>0.243</gom:speed></extensions></trkpt>
   <trkpt lat="59.3266846726" lon="34.6956849225"><ele>161.627</ele><time>2026-08-17T03:27:30.460Z</time><hdop>3.0</hdop><vdop>4.062</vdop><extensions><gom:speed>0.188</gom:speed></extensions></trkpt>
   <trkpt lat="59.3266871872" lon="34.6956801448"><ele>161.622</ele><time>2026-08-17T03:27:31.340Z</time><hdop>3.0</hdop><vdop>3.875</vdop><extensions><gom:speed>0.139</gom:speed></extensions></trkpt>
   <trkpt lat="59.3266893665" lon="34.6956743613"><ele>161.411</ele><time>2026-08-17T03:27:31.998Z</time><hdop>3.0</hdop><vdop>4.125</vdop><extensions><gom:speed>0.143</gom:speed></extensions></trkpt>
   <trkpt lat="59.3266899952" lon="34.6956710924"><ele>161.295</ele><time>2026-08-17T03:27:32.652Z</time><hdop>3.0</hdop><vdop>3.75</vdop><extensions><gom:speed>0.1</gom:speed></extensions></trkpt>
   <trkpt lat="59.3266938927" lon="34.6956513949"><ele>161.228</ele><time>2026-08-17T03:27:33.646Z</time><hdop>3.0</hdop><vdop>3.5</vdop><extensions><gom:speed>0.141</gom:speed></extensions></trkpt>
   <trkpt lat="59.3266942699" lon="34.695647623"><ele>161.19</ele><time>2026-08-17T03:27:34.652Z</time><hdop>3.0</hdop><vdop>3.375</vdop><extensions><gom:speed>0.05</gom:speed></extensions></trkpt>
   <trkpt lat="59.3266963654" lon="34.6956365589"><ele>161.17</ele><time>2026-08-17T03:27:35.646Z</time><hdop>3.0</hdop><vdop>3.25</vdop><extensions><gom:speed>0.089</gom:speed></extensions></trkpt>
   <trkpt lat="59.326696994" lon="34.6956322842"><ele>161.158</ele><time>2026-08-17T03:27:36.581Z</time><hdop>3.0</hdop><vdop>3.25</vdop><extensions><gom:speed>0.096</gom:speed></extensions></trkpt>
   <trkpt lat="59.3266973712" lon="34.6956270874"><ele>161.581</ele><time>2026-08-17T03:27:37.117Z</time><hdop>3.0</hdop><vdop>3.0</vdop><extensions><gom:speed>0.078</gom:speed></extensions></trkpt>
   <trkpt lat="59.3266972874" lon="34.6956248243"><ele>161.566</ele><time>2026-08-17T03:27:37.652Z</time><hdop>3.0</hdop><vdop>3.187</vdop><extensions><gom:speed>0.039</gom:speed></extensions></trkpt>
   <trkpt lat="59.3266975808" lon="34.6956206333"><ele>161.557</ele><time>2026-08-17T03:27:38.139Z</time><hdop>3.0</hdop><vdop>3.187</vdop><extensions><gom:speed>0.037</gom:speed></extensions></trkpt>
   <trkpt lat="59.3266976646" lon="34.6956185378"><ele>161.538</ele><time>2026-08-17T03:27:38.652Z</time><hdop>3.0</hdop><vdop>3.5</vdop><extensions><gom:speed>0.039</gom:speed></extensions></trkpt>
   <trkpt lat="59.3266982932" lon="34.6956134249"><ele>161.41</ele><time>2026-08-17T03:27:39.652Z</time><hdop>3.0</hdop><vdop>3.5</vdop><extensions><gom:speed>0.044</gom:speed></extensions></trkpt>
   <trkpt lat="59.3266981675" lon="34.6956019417"><ele>160.906</ele><time>2026-08-17T03:27:40.646Z</time><hdop>3.0</hdop><vdop>3.562</vdop><extensions><gom:speed>0.206</gom:speed></extensions></trkpt>
   <trkpt lat="59.3266984609" lon="34.6955959905"><ele>160.604</ele><time>2026-08-17T03:27:41.640Z</time><hdop>3.0</hdop><vdop>3.562</vdop><extensions><gom:speed>0.199</gom:speed></extensions></trkpt>
   <trkpt lat="59.3266978741" lon="34.6955853455"><ele>160.574</ele><time>2026-08-17T03:27:42.520Z</time><hdop>3.0</hdop><vdop>3.5</vdop><extensions><gom:speed>0.189</gom:speed></extensions></trkpt>
   <trkpt lat="59.3266968683" lon="34.6955727726"><ele>160.277</ele><time>2026-08-17T03:27:43.299Z</time><hdop>3.0</hdop><vdop>3.312</vdop><extensions><gom:speed>0.21</gom:speed></extensions></trkpt>
   <trkpt lat="59.3266943957" lon="34.6955578529"><ele>160.256</ele><time>2026-08-17T03:27:44.646Z</time><hdop>3.0</hdop><vdop>2.812</vdop><extensions><gom:speed>0.173</gom:speed></extensions></trkpt>
   <trkpt lat="59.3266936832" lon="34.6955538295"><ele>160.243</ele><time>2026-08-17T03:27:45.141Z</time><hdop>3.0</hdop><vdop>2.812</vdop><extensions><gom:speed>0.178</gom:speed></extensions></trkpt>
   <trkpt lat="59.3266933898" lon="34.6955517341"><ele>160.083</ele><time>2026-08-17T03:27:45.652Z</time><hdop>3.0</hdop><vdop>3.0</vdop><extensions><gom:speed>0.184</gom:speed></extensions></trkpt>
   <trkpt lat="59.3266934736" lon="34.6955388259"><ele>159.987</ele><time>2026-08-17T03:27:46.698Z</time><hdop>3.0</hdop><vdop>3.0</vdop><extensions><gom:speed>0.169</gom:speed></extensions></trkpt>
   <trkpt lat="59.3266922583" lon="34.6955235709"><ele>159.918</ele><time>2026-08-17T03:27:47.646Z</time><hdop>3.0</hdop><vdop>3.312</vdop><extensions><gom:speed>0.223</gom:speed></extensions></trkpt>
   <trkpt lat="59.3266912943" lon="34.6955157757"><ele>159.871</ele><time>2026-08-17T03:27:48.646Z</time><hdop>3.0</hdop><vdop>3.25</vdop><extensions><gom:speed>0.132</gom:speed></extensions></trkpt>
   <trkpt lat="59.326691462" lon="34.6955123391"><ele>159.843</ele><time>2026-08-17T03:27:49.643Z</time><hdop>3.0</hdop><vdop>3.25</vdop><extensions><gom:speed>0.111</gom:speed></extensions></trkpt>
   <trkpt lat="59.3266916715" lon="34.6955060527"><ele>160.18</ele><time>2026-08-17T03:27:50.685Z</time><hdop>3.0</hdop><vdop>3.187</vdop><extensions><gom:speed>0.072</gom:speed></extensions></trkpt>
   <trkpt lat="59.3266917973" lon="34.6954988443"><ele>160.3</ele><time>2026-08-17T03:27:51.656Z</time><hdop>3.0</hdop><vdop>3.437</vdop><extensions><gom:speed>0.087</gom:speed></extensions></trkpt>
   <trkpt lat="59.3266906657" lon="34.6954848465"><ele>160.242</ele><time>2026-08-17T03:27:52.646Z</time><hdop>3.0</hdop><vdop>3.375</vdop><extensions><gom:speed>0.113</gom:speed></extensions></trkpt>
   <trkpt lat="59.3266905819" lon="34.6954825834"><ele>160.207</ele><time>2026-08-17T03:27:53.204Z</time><hdop>3.0</hdop><vdop>3.375</vdop><extensions><gom:speed>0.138</gom:speed></extensions></trkpt>
   <trkpt lat="59.3266904981" lon="34.6954800688"><ele>160.331</ele><time>2026-08-17T03:27:53.963Z</time><hdop>3.0</hdop><vdop>3.812</vdop><extensions><gom:speed>0.154</gom:speed></extensions></trkpt>
   <trkpt lat="59.3266898694" lon="34.695479063"><ele>160.434</ele><time>2026-08-17T03:27:54.647Z</time><hdop>3.0</hdop><vdop>3.625</vdop><extensions><gom:speed>0.137</gom:speed></extensions></trkpt>
   <trkpt lat="59.3266891989" lon="34.695479985"><ele>160.498</ele><time>2026-08-17T03:27:55.646Z</time><hdop>3.0</hdop><vdop>3.75</vdop><extensions><gom:speed>0.107</gom:speed></extensions></trkpt>
   <trkpt lat="59.3266889893" lon="34.695479985"><ele>160.538</ele><time>2026-08-17T03:27:56.654Z</time><hdop>3.0</hdop><vdop>3.812</vdop><extensions><gom:speed>0.063</gom:speed></extensions></trkpt>
   <trkpt lat="59.3266880673" lon="34.6954805717"><ele>160.56</ele><time>2026-08-17T03:27:57.646Z</time><hdop>3.0</hdop><vdop>3.812</vdop><extensions><gom:speed>0.079</gom:speed></extensions></trkpt>
   <trkpt lat="59.3266878997" lon="34.695481829"><ele>160.605</ele><time>2026-08-17T03:27:58.652Z</time><hdop>3.0</hdop><vdop>3.625</vdop><extensions><gom:speed>0.042</gom:speed></extensions></trkpt>
   <trkpt lat="59.326687271" lon="34.6954810746"><ele>160.891</ele><time>2026-08-17T03:27:59.645Z</time><hdop>3.0</hdop><vdop>3.312</vdop><extensions><gom:speed>0.075</gom:speed></extensions></trkpt>
   <trkpt lat="59.3266869777" lon="34.6954809908"><ele>161.062</ele><time>2026-08-17T03:28:00.620Z</time><hdop>3.0</hdop><vdop>3.312</vdop><extensions><gom:speed>0.083</gom:speed></extensions></trkpt>
   <trkpt lat="59.3266859718" lon="34.6954814937"><ele>161.169</ele><time>2026-08-17T03:28:01.646Z</time><hdop>3.0</hdop><vdop>3.312</vdop><extensions><gom:speed>0.085</gom:speed></extensions></trkpt>
   <trkpt lat="59.3266854689" lon="34.6954813261"><ele>161.258</ele><time>2026-08-17T03:28:02.645Z</time><hdop>3.0</hdop><vdop>3.312</vdop><extensions><gom:speed>0.097</gom:speed></extensions></trkpt>
   <trkpt lat="59.3266854689" lon="34.6954809908"><ele>161.311</ele><time>2026-08-17T03:28:03.483Z</time><hdop>3.0</hdop><vdop>3.312</vdop><extensions><gom:speed>0.09</gom:speed></extensions></trkpt>
   <trkpt lat="59.326684966" lon="34.6954823319"><ele>161.344</ele><time>2026-08-17T03:28:04.302Z</time><hdop>3.0</hdop><vdop>3.437</vdop><extensions><gom:speed>0.084</gom:speed></extensions></trkpt>
   <trkpt lat="59.3266845888" lon="34.6954828348"><ele>161.383</ele><time>2026-08-17T03:28:05.081Z</time><hdop>3.0</hdop><vdop>3.375</vdop><extensions><gom:speed>0.1</gom:speed></extensions></trkpt>
   <trkpt lat="59.3266845888" lon="34.6954823319"><ele>161.409</ele><time>2026-08-17T03:28:05.658Z</time><hdop>3.0</hdop><vdop>3.437</vdop><extensions><gom:speed>0.132</gom:speed></extensions></trkpt>
   <trkpt lat="59.3266840859" lon="34.6954797335"><ele>161.57</ele><time>2026-08-17T03:28:06.645Z</time><hdop>3.0</hdop><vdop>3.25</vdop><extensions><gom:speed>0.125</gom:speed></extensions></trkpt>
   <trkpt lat="59.3266840859" lon="34.6954778895"><ele>161.571</ele><time>2026-08-17T03:28:07.652Z</time><hdop>3.0</hdop><vdop>3.312</vdop><extensions><gom:speed>0.124</gom:speed></extensions></trkpt>
   <trkpt lat="59.3266837925" lon="34.6954740338"><ele>161.572</ele><time>2026-08-17T03:28:08.299Z</time><hdop>3.0</hdop><vdop>3.312</vdop><extensions><gom:speed>0.151</gom:speed></extensions></trkpt>
   <trkpt lat="59.3266832896" lon="34.6954712678"><ele>161.571</ele><time>2026-08-17T03:28:08.805Z</time><hdop>3.0</hdop><vdop>3.312</vdop><extensions><gom:speed>0.135</gom:speed></extensions></trkpt>
   <trkpt lat="59.3266829963" lon="34.6954681665"><ele>161.589</ele><time>2026-08-17T03:28:09.653Z</time><hdop>3.0</hdop><vdop>3.312</vdop><extensions><gom:speed>0.128</gom:speed></extensions></trkpt>
   <trkpt lat="59.3266822838" lon="34.6954631373"><ele>161.516</ele><time>2026-08-17T03:28:10.652Z</time><hdop>3.0</hdop><vdop>3.375</vdop><extensions><gom:speed>0.13</gom:speed></extensions></trkpt>
   <trkpt lat="59.3266813618" lon="34.6954590302"><ele>161.472</ele><time>2026-08-17T03:28:11.465Z</time><hdop>3.0</hdop><vdop>3.375</vdop><extensions><gom:speed>0.141</gom:speed></extensions></trkpt>
   <trkpt lat="59.3266803979" lon="34.6954538334"><ele>161.288</ele><time>2026-08-17T03:28:12.619Z</time><hdop>3.0</hdop><vdop>3.625</vdop><extensions><gom:speed>0.181</gom:speed></extensions></trkpt>
   <trkpt lat="59.3266792663" lon="34.6954469603"><ele>161.027</ele><time>2026-08-17T03:28:13.621Z</time><hdop>3.0</hdop><vdop>4.0</vdop><extensions><gom:speed>0.22</gom:speed></extensions></trkpt>
   <trkpt lat="59.3266780929" lon="34.6954418473"><ele>160.879</ele><time>2026-08-17T03:28:14.521Z</time><hdop>3.0</hdop><vdop>3.375</vdop><extensions><gom:speed>0.178</gom:speed></extensions></trkpt>
   <trkpt lat="59.3266765841" lon="34.6954369858"><ele>161.076</ele><time>2026-08-17T03:28:14.986Z</time><hdop>3.0</hdop><vdop>3.125</vdop><extensions><gom:speed>0.192</gom:speed></extensions></trkpt>
   <trkpt lat="59.3266759974" lon="34.6954339683"><ele>161.194</ele><time>2026-08-17T03:28:15.441Z</time><hdop>3.0</hdop><vdop>3.125</vdop><extensions><gom:speed>0.203</gom:speed></extensions></trkpt>
   <trkpt lat="59.3266736924" lon="34.6954261732"><ele>161.542</ele><time>2026-08-17T03:28:16.652Z</time><hdop>3.0</hdop><vdop>2.937</vdop><extensions><gom:speed>0.138</gom:speed></extensions></trkpt>
   <trkpt lat="59.3266703815" lon="34.6954126783"><ele>161.777</ele><time>2026-08-17T03:28:17.658Z</time><hdop>3.0</hdop><vdop>3.0</vdop><extensions><gom:speed>0.2</gom:speed></extensions></trkpt>
   <trkpt lat="59.3266662744" lon="34.6953981776"><ele>161.918</ele><time>2026-08-17T03:28:18.557Z</time><hdop>3.0</hdop><vdop>3.0</vdop><extensions><gom:speed>0.196</gom:speed></extensions></trkpt>
   <trkpt lat="59.3266628797" lon="34.6953867782"><ele>161.942</ele><time>2026-08-17T03:28:19.104Z</time><hdop>3.0</hdop><vdop>3.187</vdop><extensions><gom:speed>0.209</gom:speed></extensions></trkpt>
   <trkpt lat="59.3266607842" lon="34.6953773905"><ele>161.988</ele><time>2026-08-17T03:28:19.645Z</time><hdop>3.0</hdop><vdop>3.5</vdop><extensions><gom:speed>0.213</gom:speed></extensions></trkpt>
   <trkpt lat="59.3266593593" lon="34.695370182"><ele>162.041</ele><time>2026-08-17T03:28:20.652Z</time><hdop>3.0</hdop><vdop>3.437</vdop><extensions><gom:speed>0.171</gom:speed></extensions></trkpt>
   <trkpt lat="59.32665718" lon="34.6953597885"><ele>162.073</ele><time>2026-08-17T03:28:21.623Z</time><hdop>3.0</hdop><vdop>3.437</vdop><extensions><gom:speed>0.177</gom:speed></extensions></trkpt>
   <trkpt lat="59.3266563837" lon="34.6953469642"><ele>162.183</ele><time>2026-08-17T03:28:22.362Z</time><hdop>3.0</hdop><vdop>3.187</vdop><extensions><gom:speed>0.255</gom:speed></extensions></trkpt>
   <trkpt lat="59.3266554617" lon="34.6953276858"><ele>162.729</ele><time>2026-08-17T03:28:23.282Z</time><hdop>3.0</hdop><vdop>3.375</vdop><extensions><gom:speed>0.306</gom:speed></extensions></trkpt>
   <trkpt lat="59.326654875" lon="34.695303965"><ele>163.537</ele><time>2026-08-17T03:28:24.547Z</time><hdop>3.0</hdop><vdop>3.625</vdop><extensions><gom:speed>0.353</gom:speed></extensions></trkpt>
   <trkpt lat="59.3266555874" lon="34.6952971757"><ele>163.893</ele><time>2026-08-17T03:28:25.653Z</time><hdop>3.0</hdop><vdop>3.5</vdop><extensions><gom:speed>0.153</gom:speed></extensions></trkpt>
   <trkpt lat="59.3266573895" lon="34.6952836808"><ele>164.117</ele><time>2026-08-17T03:28:26.646Z</time><hdop>3.0</hdop><vdop>3.562</vdop><extensions><gom:speed>0.142</gom:speed></extensions></trkpt>
   <trkpt lat="59.3266582696" lon="34.6952810824"><ele>164.17</ele><time>2026-08-17T03:28:27.652Z</time><hdop>3.0</hdop><vdop>3.687</vdop><extensions><gom:speed>0.058</gom:speed></extensions></trkpt>
   <trkpt lat="59.3266604909" lon="34.6952643186"><ele>164.199</ele><time>2026-08-17T03:28:28.646Z</time><hdop>3.0</hdop><vdop>3.437</vdop><extensions><gom:speed>0.174</gom:speed></extensions></trkpt>
   <trkpt lat="59.3266614967" lon="34.6952639833"><ele>164.217</ele><time>2026-08-17T03:28:29.656Z</time><hdop>3.0</hdop><vdop>3.5</vdop><extensions><gom:speed>0.034</gom:speed></extensions></trkpt>
   <trkpt lat="59.3266638855" lon="34.6952540927"><ele>164.227</ele><time>2026-08-17T03:28:30.645Z</time><hdop>3.0</hdop><vdop>3.5</vdop><extensions><gom:speed>0.078</gom:speed></extensions></trkpt>
   <trkpt lat="59.3266646818" lon="34.695252081"><ele>164.233</ele><time>2026-08-17T03:28:31.652Z</time><hdop>3.0</hdop><vdop>3.437</vdop><extensions><gom:speed>0.038</gom:speed></extensions></trkpt>
   <trkpt lat="59.326667364" lon="34.6952446211"><ele>164.236</ele><time>2026-08-17T03:28:32.646Z</time><hdop>3.0</hdop><vdop>3.437</vdop><extensions><gom:speed>0.106</gom:speed></extensions></trkpt>
   <trkpt lat="59.3266676993" lon="34.6952437829"><ele>164.238</ele><time>2026-08-17T03:28:33.136Z</time><hdop>3.0</hdop><vdop>3.437</vdop><extensions><gom:speed>0.085</gom:speed></extensions></trkpt>
   <trkpt lat="59.3266686632" lon="34.695237748"><ele>164.237</ele><time>2026-08-17T03:28:33.645Z</time><hdop>3.0</hdop><vdop>3.437</vdop><extensions><gom:speed>0.093</gom:speed></extensions></trkpt>
   <trkpt lat="59.3266687889" lon="34.695236826"><ele>164.236</ele><time>2026-08-17T03:28:34.654Z</time><hdop>3.0</hdop><vdop>3.437</vdop><extensions><gom:speed>0.029</gom:speed></extensions></trkpt>
   <trkpt lat="59.3266698786" lon="34.6952312939"><ele>164.202</ele><time>2026-08-17T03:28:35.646Z</time><hdop>3.0</hdop><vdop>3.25</vdop><extensions><gom:speed>0.082</gom:speed></extensions></trkpt>
   <trkpt lat="59.326670591" lon="34.6952300366"><ele>164.064</ele><time>2026-08-17T03:28:36.652Z</time><hdop>3.0</hdop><vdop>3.0</vdop><extensions><gom:speed>0.018</gom:speed></extensions></trkpt>
   <trkpt lat="59.3266708844" lon="34.695227522"><ele>163.975</ele><time>2026-08-17T03:28:37.645Z</time><hdop>3.0</hdop><vdop>3.0</vdop><extensions><gom:speed>0.069</gom:speed></extensions></trkpt>
   <trkpt lat="59.3266709682" lon="34.6952272706"><ele>163.921</ele><time>2026-08-17T03:28:38.646Z</time><hdop>3.0</hdop><vdop>2.812</vdop><extensions><gom:speed>0.061</gom:speed></extensions></trkpt>
   <trkpt lat="59.326671094" lon="34.6952274382"><ele>163.889</ele><time>2026-08-17T03:28:39.652Z</time><hdop>3.0</hdop><vdop>2.5</vdop><extensions><gom:speed>0.037</gom:speed></extensions></trkpt>
   <trkpt lat="59.3266702977" lon="34.6952279411"><ele>163.762</ele><time>2026-08-17T03:28:40.652Z</time><hdop>3.0</hdop><vdop>2.5</vdop><extensions><gom:speed>0.021</gom:speed></extensions></trkpt>
   <trkpt lat="59.3266698786" lon="34.6952285279"><ele>163.684</ele><time>2026-08-17T03:28:41.655Z</time><hdop>3.0</hdop><vdop>2.5</vdop><extensions><gom:speed>0.033</gom:speed></extensions></trkpt>
   <trkpt lat="59.326669669" lon="34.6952283602"><ele>163.638</ele><time>2026-08-17T03:28:42.263Z</time><hdop>3.0</hdop><vdop>2.5</vdop><extensions><gom:speed>0.048</gom:speed></extensions></trkpt>
   <trkpt lat="59.3266703815" lon="34.6952274382"><ele>163.608</ele><time>2026-08-17T03:28:43.652Z</time><hdop>3.0</hdop><vdop>2.5</vdop><extensions><gom:speed>0.067</gom:speed></extensions></trkpt>
   <trkpt lat="59.3266702977" lon="34.6952271868"><ele>163.589</ele><time>2026-08-17T03:28:44.646Z</time><hdop>3.0</hdop><vdop>2.5</vdop><extensions><gom:speed>0.015</gom:speed></extensions></trkpt>
   <trkpt lat="59.3266700881" lon="34.6952272706"><ele>163.576</ele><time>2026-08-17T03:28:45.646Z</time><hdop>3.0</hdop><vdop>2.5</vdop><extensions><gom:speed>0.024</gom:speed></extensions></trkpt>
   <trkpt lat="59.326670172" lon="34.6952273544"><ele>163.568</ele><time>2026-08-17T03:28:46.652Z</time><hdop>3.0</hdop><vdop>2.5</vdop><extensions><gom:speed>0.024</gom:speed></extensions></trkpt>
   <trkpt lat="59.326670172" lon="34.6952273544"><ele>163.563</ele><time>2026-08-17T03:28:47.645Z</time><hdop>3.0</hdop><vdop>2.5</vdop><extensions><gom:speed>0.042</gom:speed></extensions></trkpt>
   <trkpt lat="59.326670591" lon="34.6952274382"><ele>163.559</ele><time>2026-08-17T03:28:48.652Z</time><hdop>3.0</hdop><vdop>2.5</vdop><extensions><gom:speed>0.043</gom:speed></extensions></trkpt>
   <trkpt lat="59.3266707587" lon="34.6952273544"><ele>163.556</ele><time>2026-08-17T03:28:49.648Z</time><hdop>3.0</hdop><vdop>2.5</vdop><extensions><gom:speed>0.047</gom:speed></extensions></trkpt>
   <trkpt lat="59.3266709682" lon="34.6952270191"><ele>163.555</ele><time>2026-08-17T03:28:50.646Z</time><hdop>3.0</hdop><vdop>2.5</vdop><extensions><gom:speed>0.057</gom:speed></extensions></trkpt>
   <trkpt lat="59.3266713873" lon="34.6952268515"><ele>163.555</ele><time>2026-08-17T03:28:51.646Z</time><hdop>3.0</hdop><vdop>2.5</vdop><extensions><gom:speed>0.061</gom:speed></extensions></trkpt>
   <trkpt lat="59.3266715969" lon="34.6952265162"><ele>163.556</ele><time>2026-08-17T03:28:52.646Z</time><hdop>3.0</hdop><vdop>2.5</vdop><extensions><gom:speed>0.063</gom:speed></extensions></trkpt>
   <trkpt lat="59.3266716807" lon="34.6952265162"><ele>163.556</ele><time>2026-08-17T03:28:53.492Z</time><hdop>3.0</hdop><vdop>2.5</vdop><extensions><gom:speed>0.063</gom:speed></extensions></trkpt>
   <trkpt lat="59.3266721836" lon="34.6952260971"><ele>163.559</ele><time>2026-08-17T03:28:54.646Z</time><hdop>3.0</hdop><vdop>2.5</vdop><extensions><gom:speed>0.064</gom:speed></extensions></trkpt>
   <trkpt lat="59.3266723932" lon="34.6952258457"><ele>163.562</ele><time>2026-08-17T03:28:55.652Z</time><hdop>3.0</hdop><vdop>2.5</vdop><extensions><gom:speed>0.064</gom:speed></extensions></trkpt>
   <trkpt lat="59.3266725608" lon="34.6952255942"><ele>163.564</ele><time>2026-08-17T03:28:56.652Z</time><hdop>3.0</hdop><vdop>2.5</vdop><extensions><gom:speed>0.067</gom:speed></extensions></trkpt>
   <trkpt lat="59.3266728961" lon="34.6952253428"><ele>163.566</ele><time>2026-08-17T03:28:57.652Z</time><hdop>3.0</hdop><vdop>2.5</vdop><extensions><gom:speed>0.067</gom:speed></extensions></trkpt>
   <trkpt lat="59.3266728961" lon="34.6952253428"><ele>163.569</ele><time>2026-08-17T03:28:58.646Z</time><hdop>3.0</hdop><vdop>2.5</vdop><extensions><gom:speed>0.067</gom:speed></extensions></trkpt>
   <trkpt lat="59.3266729799" lon="34.6952252589"><ele>163.572</ele><time>2026-08-17T03:28:59.646Z</time><hdop>3.0</hdop><vdop>2.5</vdop><extensions><gom:speed>0.069</gom:speed></extensions></trkpt>
   <trkpt lat="59.3266730637" lon="34.6952251751"><ele>163.574</ele><time>2026-08-17T03:29:00.646Z</time><hdop>3.0</hdop><vdop>2.5</vdop><extensions><gom:speed>0.07</gom:speed></extensions></trkpt>
   <trkpt lat="59.3266730637" lon="34.6952249237"><ele>163.575</ele><time>2026-08-17T03:29:01.646Z</time><hdop>3.0</hdop><vdop>2.5</vdop><extensions><gom:speed>0.071</gom:speed></extensions></trkpt>
   <trkpt lat="59.326673399" lon="34.6952246722"><ele>163.576</ele><time>2026-08-17T03:29:02.652Z</time><hdop>3.0</hdop><vdop>2.5</vdop><extensions><gom:speed>0.072</gom:speed></extensions></trkpt>
   <trkpt lat="59.3266735666" lon="34.6952242531"><ele>163.578</ele><time>2026-08-17T03:29:03.652Z</time><hdop>3.0</hdop><vdop>2.5</vdop><extensions><gom:speed>0.073</gom:speed></extensions></trkpt>
   <trkpt lat="59.3266735666" lon="34.6952240855"><ele>163.581</ele><time>2026-08-17T03:29:04.662Z</time><hdop>3.0</hdop><vdop>2.5</vdop><extensions><gom:speed>0.074</gom:speed></extensions></trkpt>
   <trkpt lat="59.3266735666" lon="34.6952236664"><ele>163.584</ele><time>2026-08-17T03:29:05.653Z</time><hdop>3.0</hdop><vdop>2.5</vdop><extensions><gom:speed>0.073</gom:speed></extensions></trkpt>
   <trkpt lat="59.3266737762" lon="34.6952231635"><ele>163.587</ele><time>2026-08-17T03:29:06.652Z</time><hdop>3.0</hdop><vdop>2.5</vdop><extensions><gom:speed>0.071</gom:speed></extensions></trkpt>
   <trkpt lat="59.3266737762" lon="34.6952228282"><ele>163.588</ele><time>2026-08-17T03:29:07.652Z</time><hdop>3.0</hdop><vdop>2.5</vdop><extensions><gom:speed>0.072</gom:speed></extensions></trkpt>
   <trkpt lat="59.3266736924" lon="34.6952224929"><ele>163.588</ele><time>2026-08-17T03:29:08.652Z</time><hdop>3.0</hdop><vdop>2.5</vdop><extensions><gom:speed>0.072</gom:speed></extensions></trkpt>
   <trkpt lat="59.3266735666" lon="34.6952222415"><ele>163.589</ele><time>2026-08-17T03:29:09.652Z</time><hdop>3.0</hdop><vdop>2.5</vdop><extensions><gom:speed>0.072</gom:speed></extensions></trkpt>
   <trkpt lat="59.3266735666" lon="34.69522199"><ele>163.59</ele><time>2026-08-17T03:29:10.652Z</time><hdop>3.0</hdop><vdop>2.5</vdop><extensions><gom:speed>0.073</gom:speed></extensions></trkpt>
   <trkpt lat="59.3266734828" lon="34.6952216547"><ele>163.59</ele><time>2026-08-17T03:29:11.663Z</time><hdop>3.0</hdop><vdop>2.5</vdop><extensions><gom:speed>0.072</gom:speed></extensions></trkpt>
   <trkpt lat="59.326673399" lon="34.6952214871"><ele>163.589</ele><time>2026-08-17T03:29:12.652Z</time><hdop>3.0</hdop><vdop>2.5</vdop><extensions><gom:speed>0.071</gom:speed></extensions></trkpt>
   <trkpt lat="59.3266732733" lon="34.6952212356"><ele>163.587</ele><time>2026-08-17T03:29:13.647Z</time><hdop>3.0</hdop><vdop>2.5</vdop><extensions><gom:speed>0.072</gom:speed></extensions></trkpt>
   <trkpt lat="59.326673399" lon="34.6952209842"><ele>163.585</ele><time>2026-08-17T03:29:14.657Z</time><hdop>3.0</hdop><vdop>2.5</vdop><extensions><gom:speed>0.073</gom:speed></extensions></trkpt>
   <trkpt lat="59.326673399" lon="34.6952207327"><ele>163.583</ele><time>2026-08-17T03:29:15.652Z</time><hdop>3.0</hdop><vdop>2.5</vdop><extensions><gom:speed>0.072</gom:speed></extensions></trkpt>
   <trkpt lat="59.3266732733" lon="34.6952206489"><ele>163.581</ele><time>2026-08-17T03:29:16.653Z</time><hdop>3.0</hdop><vdop>2.5</vdop><extensions><gom:speed>0.07</gom:speed></extensions></trkpt>
   <trkpt lat="59.3266732733" lon="34.6952204813"><ele>163.579</ele><time>2026-08-17T03:29:17.652Z</time><hdop>3.0</hdop><vdop>2.5</vdop><extensions><gom:speed>0.068</gom:speed></extensions></trkpt>
   <trkpt lat="59.3266729799" lon="34.6952204813"><ele>163.578</ele><time>2026-08-17T03:29:18.646Z</time><hdop>3.0</hdop><vdop>2.5</vdop><extensions><gom:speed>0.069</gom:speed></extensions></trkpt>
   <trkpt lat="59.3266729799" lon="34.6952203974"><ele>163.578</ele><time>2026-08-17T03:29:19.655Z</time><hdop>3.0</hdop><vdop>2.5</vdop><extensions><gom:speed>0.069</gom:speed></extensions></trkpt>
   <trkpt lat="59.3266730637" lon="34.6952205651"><ele>163.577</ele><time>2026-08-17T03:29:20.652Z</time><hdop>3.0</hdop><vdop>2.562</vdop><extensions><gom:speed>0.068</gom:speed></extensions></trkpt>
   <trkpt lat="59.3266729799" lon="34.6952205651"><ele>163.577</ele><time>2026-08-17T03:29:21.658Z</time><hdop>3.0</hdop><vdop>2.562</vdop><extensions><gom:speed>0.068</gom:speed></extensions></trkpt>
   <trkpt lat="59.3266727703" lon="34.6952202298"><ele>163.462</ele><time>2026-08-17T03:29:22.646Z</time><hdop>3.0</hdop><vdop>2.5</vdop><extensions><gom:speed>0.105</gom:speed></extensions></trkpt>
   <trkpt lat="59.3266728961" lon="34.6952196431"><ele>163.395</ele><time>2026-08-17T03:29:23.662Z</time><hdop>3.0</hdop><vdop>2.562</vdop><extensions><gom:speed>0.108</gom:speed></extensions></trkpt>
   <trkpt lat="59.3266727703" lon="34.6952193916"><ele>163.356</ele><time>2026-08-17T03:29:24.652Z</time><hdop>3.0</hdop><vdop>2.75</vdop><extensions><gom:speed>0.086</gom:speed></extensions></trkpt>
   <trkpt lat="59.3266722674" lon="34.6952187211"><ele>163.33</ele><time>2026-08-17T03:29:25.646Z</time><hdop>3.0</hdop><vdop>2.687</vdop><extensions><gom:speed>0.065</gom:speed></extensions></trkpt>
   <trkpt lat="59.3266722674" lon="34.6952186372"><ele>163.315</ele><time>2026-08-17T03:29:26.652Z</time><hdop>3.0</hdop><vdop>2.5</vdop><extensions><gom:speed>0.065</gom:speed></extensions></trkpt>
   <trkpt lat="59.3266721836" lon="34.6952185534"><ele>163.307</ele><time>2026-08-17T03:29:27.646Z</time><hdop>3.0</hdop><vdop>2.5</vdop><extensions><gom:speed>0.062</gom:speed></extensions></trkpt>
   <trkpt lat="59.3266719741" lon="34.6952185534"><ele>163.303</ele><time>2026-08-17T03:29:28.646Z</time><hdop>3.0</hdop><vdop>2.5</vdop><extensions><gom:speed>0.063</gom:speed></extensions></trkpt>
   <trkpt lat="59.3266719741" lon="34.6952184696"><ele>163.301</ele><time>2026-08-17T03:29:29.652Z</time><hdop>3.0</hdop><vdop>2.5</vdop><extensions><gom:speed>0.064</gom:speed></extensions></trkpt>
   <trkpt lat="59.3266719741" lon="34.6952182181"><ele>163.301</ele><time>2026-08-17T03:29:30.652Z</time><hdop>3.0</hdop><vdop>2.5</vdop><extensions><gom:speed>0.066</gom:speed></extensions></trkpt>
   <trkpt lat="59.3266719741" lon="34.6952181343"><ele>163.297</ele><time>2026-08-17T03:29:31.654Z</time><hdop>3.0</hdop><vdop>2.5</vdop><extensions><gom:speed>0.066</gom:speed></extensions></trkpt>
   <trkpt lat="59.3266719741" lon="34.6952178829"><ele>163.292</ele><time>2026-08-17T03:29:32.646Z</time><hdop>3.0</hdop><vdop>2.5</vdop><extensions><gom:speed>0.065</gom:speed></extensions></trkpt>
   <trkpt lat="59.3266719741" lon="34.6952178829"><ele>163.287</ele><time>2026-08-17T03:29:33.653Z</time><hdop>3.0</hdop><vdop>2.5</vdop><extensions><gom:speed>0.066</gom:speed></extensions></trkpt>
   <trkpt lat="59.3266718902" lon="34.6952176314"><ele>163.284</ele><time>2026-08-17T03:29:34.646Z</time><hdop>3.0</hdop><vdop>2.5</vdop><extensions><gom:speed>0.067</gom:speed></extensions></trkpt>
   <trkpt lat="59.3266719741" lon="34.6952173799"><ele>163.283</ele><time>2026-08-17T03:29:35.652Z</time><hdop>3.0</hdop><vdop>2.5</vdop><extensions><gom:speed>0.068</gom:speed></extensions></trkpt>
   <trkpt lat="59.3266719741" lon="34.6952169609"><ele>163.283</ele><time>2026-08-17T03:29:36.652Z</time><hdop>3.0</hdop><vdop>2.5</vdop><extensions><gom:speed>0.069</gom:speed></extensions></trkpt>
   <trkpt lat="59.3266718902" lon="34.6952169609"><ele>163.282</ele><time>2026-08-17T03:29:37.503Z</time><hdop>3.0</hdop><vdop>2.5</vdop><extensions><gom:speed>0.07</gom:speed></extensions></trkpt>
   <trkpt lat="59.3266717645" lon="34.6952165418"><ele>163.434</ele><time>2026-08-17T03:29:38.652Z</time><hdop>3.0</hdop><vdop>2.5</vdop><extensions><gom:speed>0.068</gom:speed></extensions></trkpt>
   <trkpt lat="59.3266714711" lon="34.6952157874"><ele>163.535</ele><time>2026-08-17T03:29:39.646Z</time><hdop>3.0</hdop><vdop>2.5</vdop><extensions><gom:speed>0.085</gom:speed></extensions></trkpt>
   <trkpt lat="59.3266713873" lon="34.6952151168"><ele>163.597</ele><time>2026-08-17T03:29:40.652Z</time><hdop>3.0</hdop><vdop>2.5</vdop><extensions><gom:speed>0.086</gom:speed></extensions></trkpt>
   <trkpt lat="59.3266709682" lon="34.6952145301"><ele>163.636</ele><time>2026-08-17T03:29:41.645Z</time><hdop>3.0</hdop><vdop>2.5</vdop><extensions><gom:speed>0.067</gom:speed></extensions></trkpt>
   <trkpt lat="59.3266706749" lon="34.6952141948"><ele>163.66</ele><time>2026-08-17T03:29:42.646Z</time><hdop>3.0</hdop><vdop>2.5</vdop><extensions><gom:speed>0.063</gom:speed></extensions></trkpt>
   <trkpt lat="59.326670591" lon="34.6952139434"><ele>163.679</ele><time>2026-08-17T03:29:43.652Z</time><hdop>3.0</hdop><vdop>2.5</vdop><extensions><gom:speed>0.063</gom:speed></extensions></trkpt>
   <trkpt lat="59.3266704653" lon="34.6952134405"><ele>163.692</ele><time>2026-08-17T03:29:44.653Z</time><hdop>3.0</hdop><vdop>2.5</vdop><extensions><gom:speed>0.059</gom:speed></extensions></trkpt>
   <trkpt lat="59.326670172" lon="34.6952129375"><ele>163.699</ele><time>2026-08-17T03:29:45.656Z</time><hdop>3.0</hdop><vdop>2.5</vdop><extensions><gom:speed>0.119</gom:speed></extensions></trkpt>
   <trkpt lat="59.3266697948" lon="34.6952124346"><ele>163.707</ele><time>2026-08-17T03:29:46.646Z</time><hdop>3.0</hdop><vdop>2.5</vdop><extensions><gom:speed>0.077</gom:speed></extensions></trkpt>
   <trkpt lat="59.3266694595" lon="34.6952121832"><ele>163.801</ele><time>2026-08-17T03:29:47.645Z</time><hdop>3.0</hdop><vdop>2.5</vdop><extensions><gom:speed>0.118</gom:speed></extensions></trkpt>
   <trkpt lat="59.3266691661" lon="34.6952114288"><ele>164.321</ele><time>2026-08-17T03:29:48.652Z</time><hdop>3.0</hdop><vdop>2.625</vdop><extensions><gom:speed>0.121</gom:speed></extensions></trkpt>
   <trkpt lat="59.3266683698" lon="34.6952108421"><ele>164.627</ele><time>2026-08-17T03:29:49.646Z</time><hdop>3.0</hdop><vdop>2.687</vdop><extensions><gom:speed>0.107</gom:speed></extensions></trkpt>
   <trkpt lat="59.3266678669" lon="34.6952105906"><ele>164.809</ele><time>2026-08-17T03:29:50.652Z</time><hdop>3.0</hdop><vdop>2.812</vdop><extensions><gom:speed>0.107</gom:speed></extensions></trkpt>
   <trkpt lat="59.3266672802" lon="34.695210423"><ele>164.918</ele><time>2026-08-17T03:29:51.261Z</time><hdop>3.0</hdop><vdop>2.812</vdop><extensions><gom:speed>0.088</gom:speed></extensions></trkpt>
   <trkpt lat="59.3266663582" lon="34.6952106744"><ele>164.982</ele><time>2026-08-17T03:29:52.040Z</time><hdop>3.0</hdop><vdop>2.875</vdop><extensions><gom:speed>0.076</gom:speed></extensions></trkpt>
   <trkpt lat="59.3266658972" lon="34.6952106744"><ele>165.021</ele><time>2026-08-17T03:29:52.652Z</time><hdop>3.0</hdop><vdop>2.812</vdop><extensions><gom:speed>0.076</gom:speed></extensions></trkpt>
   <trkpt lat="59.326664598" lon="34.6952102553"><ele>165.044</ele><time>2026-08-17T03:29:53.646Z</time><hdop>3.0</hdop><vdop>2.812</vdop><extensions><gom:speed>0.069</gom:speed></extensions></trkpt>
   <trkpt lat="59.326663676" lon="34.6952101715"><ele>165.058</ele><time>2026-08-17T03:29:54.646Z</time><hdop>3.0</hdop><vdop>2.812</vdop><extensions><gom:speed>0.068</gom:speed></extensions></trkpt>
   <trkpt lat="59.3266632988" lon="34.6952100877"><ele>165.066</ele><time>2026-08-17T03:29:55.653Z</time><hdop>3.0</hdop><vdop>2.75</vdop><extensions><gom:speed>0.068</gom:speed></extensions></trkpt>
   <trkpt lat="59.3266625863" lon="34.6952094171"><ele>165.071</ele><time>2026-08-17T03:29:56.652Z</time><hdop>3.0</hdop><vdop>2.75</vdop><extensions><gom:speed>0.128</gom:speed></extensions></trkpt>
   <trkpt lat="59.3266615805" lon="34.6952093333"><ele>165.073</ele><time>2026-08-17T03:29:57.652Z</time><hdop>3.0</hdop><vdop>2.875</vdop><extensions><gom:speed>0.107</gom:speed></extensions></trkpt>
   <trkpt lat="59.3266604909" lon="34.6952093333"><ele>165.073</ele><time>2026-08-17T03:29:58.646Z</time><hdop>3.0</hdop><vdop>3.0</vdop><extensions><gom:speed>0.078</gom:speed></extensions></trkpt>
   <trkpt lat="59.3266598622" lon="34.6952091657"><ele>165.072</ele><time>2026-08-17T03:29:59.646Z</time><hdop>3.0</hdop><vdop>3.062</vdop><extensions><gom:speed>0.071</gom:speed></extensions></trkpt>
   <trkpt lat="59.3266593593" lon="34.6952090819"><ele>165.073</ele><time>2026-08-17T03:30:00.646Z</time><hdop>3.0</hdop><vdop>3.125</vdop><extensions><gom:speed>0.067</gom:speed></extensions></trkpt>
   <trkpt lat="59.3266588983" lon="34.6952087466"><ele>164.948</ele><time>2026-08-17T03:30:01.646Z</time><hdop>3.0</hdop><vdop>3.187</vdop><extensions><gom:speed>0.113</gom:speed></extensions></trkpt>
   <trkpt lat="59.3266582696" lon="34.6952081599"><ele>164.871</ele><time>2026-08-17T03:30:02.653Z</time><hdop>3.0</hdop><vdop>3.062</vdop><extensions><gom:speed>0.116</gom:speed></extensions></trkpt>
   <trkpt lat="59.3266576829" lon="34.6952079922"><ele>164.824</ele><time>2026-08-17T03:30:03.652Z</time><hdop>3.0</hdop><vdop>3.062</vdop><extensions><gom:speed>0.093</gom:speed></extensions></trkpt>
   <trkpt lat="59.3266570962" lon="34.6952083275"><ele>164.797</ele><time>2026-08-17T03:30:04.652Z</time><hdop>3.0</hdop><vdop>3.125</vdop><extensions><gom:speed>0.08</gom:speed></extensions></trkpt>
   <trkpt lat="59.3266566771" lon="34.6952085789"><ele>164.783</ele><time>2026-08-17T03:30:05.653Z</time><hdop>3.0</hdop><vdop>3.125</vdop><extensions><gom:speed>0.074</gom:speed></extensions></trkpt>
   <trkpt lat="59.3266563837" lon="34.6952087466"><ele>164.776</ele><time>2026-08-17T03:30:06.660Z</time><hdop>3.0</hdop><vdop>2.937</vdop><extensions><gom:speed>0.07</gom:speed></extensions></trkpt>
   <trkpt lat="59.3266560904" lon="34.6952088304"><ele>164.773</ele><time>2026-08-17T03:30:07.652Z</time><hdop>3.0</hdop><vdop>2.875</vdop><extensions><gom:speed>0.067</gom:speed></extensions></trkpt>
   <trkpt lat="59.3266558808" lon="34.6952091657"><ele>164.771</ele><time>2026-08-17T03:30:08.652Z</time><hdop>3.0</hdop><vdop>2.812</vdop><extensions><gom:speed>0.063</gom:speed></extensions></trkpt>
   <trkpt lat="59.3266556713" lon="34.6952093333"><ele>164.767</ele><time>2026-08-17T03:30:09.652Z</time><hdop>3.0</hdop><vdop>2.875</vdop><extensions><gom:speed>0.065</gom:speed></extensions></trkpt>
   <trkpt lat="59.3266553779" lon="34.6952098362"><ele>164.765</ele><time>2026-08-17T03:30:10.645Z</time><hdop>3.0</hdop><vdop>2.687</vdop><extensions><gom:speed>0.064</gom:speed></extensions></trkpt>
   <trkpt lat="59.3266550845" lon="34.6952099201"><ele>164.763</ele><time>2026-08-17T03:30:11.652Z</time><hdop>3.0</hdop><vdop>2.687</vdop><extensions><gom:speed>0.064</gom:speed></extensions></trkpt>
   <trkpt lat="59.326654875" lon="34.6952103391"><ele>164.761</ele><time>2026-08-17T03:30:12.646Z</time><hdop>3.0</hdop><vdop>2.562</vdop><extensions><gom:speed>0.063</gom:speed></extensions></trkpt>
   <trkpt lat="59.3266547912" lon="34.695210423"><ele>164.759</ele><time>2026-08-17T03:30:13.307Z</time><hdop>3.0</hdop><vdop>2.562</vdop><extensions><gom:speed>0.063</gom:speed></extensions></trkpt>
   <trkpt lat="59.3266544978" lon="34.6952106744"><ele>164.822</ele><time>2026-08-17T03:30:14.652Z</time><hdop>3.0</hdop><vdop>2.687</vdop><extensions><gom:speed>0.061</gom:speed></extensions></trkpt>
   <trkpt lat="59.3266537853" lon="34.6952110935"><ele>164.827</ele><time>2026-08-17T03:30:15.652Z</time><hdop>3.0</hdop><vdop>2.75</vdop><extensions><gom:speed>0.241</gom:speed></extensions></trkpt>
   <trkpt lat="59.3266531986" lon="34.6952115964"><ele>164.834</ele><time>2026-08-17T03:30:16.652Z</time><hdop>3.0</hdop><vdop>2.5</vdop><extensions><gom:speed>0.126</gom:speed></extensions></trkpt>
   <trkpt lat="59.3266530729" lon="34.6952125184"><ele>164.864</ele><time>2026-08-17T03:30:17.646Z</time><hdop>3.0</hdop><vdop>2.687</vdop><extensions><gom:speed>0.077</gom:speed></extensions></trkpt>
   <trkpt lat="59.3266528633" lon="34.6952127699"><ele>165.084</ele><time>2026-08-17T03:30:18.659Z</time><hdop>3.0</hdop><vdop>2.812</vdop><extensions><gom:speed>0.076</gom:speed></extensions></trkpt>
   <trkpt lat="59.3266523604" lon="34.6952123508"><ele>165.169</ele><time>2026-08-17T03:30:19.645Z</time><hdop>3.0</hdop><vdop>3.062</vdop><extensions><gom:speed>0.206</gom:speed></extensions></trkpt>
   <trkpt lat="59.3266517737" lon="34.6952116803"><ele>165.219</ele><time>2026-08-17T03:30:20.399Z</time><hdop>3.0</hdop><vdop>3.062</vdop><extensions><gom:speed>0.221</gom:speed></extensions></trkpt>
   <trkpt lat="59.3266517737" lon="34.695210423"><ele>165.201</ele><time>2026-08-17T03:30:21.107Z</time><hdop>3.0</hdop><vdop>3.312</vdop><extensions><gom:speed>0.291</gom:speed></extensions></trkpt>
   <trkpt lat="59.3266516899" lon="34.6952096686"><ele>165.312</ele><time>2026-08-17T03:30:21.652Z</time><hdop>3.0</hdop><vdop>3.375</vdop><extensions><gom:speed>0.178</gom:speed></extensions></trkpt>
   <trkpt lat="59.3266538692" lon="34.6952007838"><ele>165.261</ele><time>2026-08-17T03:30:22.646Z</time><hdop>3.0</hdop><vdop>3.5</vdop><extensions><gom:speed>0.199</gom:speed></extensions></trkpt>
   <trkpt lat="59.326654875" lon="34.6951987721"><ele>165.411</ele><time>2026-08-17T03:30:23.697Z</time><hdop>3.0</hdop><vdop>3.437</vdop><extensions><gom:speed>0.139</gom:speed></extensions></trkpt>
   <trkpt lat="59.3266554617" lon="34.6951949164"><ele>165.657</ele><time>2026-08-17T03:30:24.648Z</time><hdop>3.0</hdop><vdop>3.312</vdop><extensions><gom:speed>0.173</gom:speed></extensions></trkpt>
   <trkpt lat="59.3266544978" lon="34.695186786"><ele>165.738</ele><time>2026-08-17T03:30:25.645Z</time><hdop>3.0</hdop><vdop>3.125</vdop><extensions><gom:speed>0.162</gom:speed></extensions></trkpt>
   <trkpt lat="59.3266540787" lon="34.6951861993"><ele>165.787</ele><time>2026-08-17T03:30:26.167Z</time><hdop>3.0</hdop><vdop>3.125</vdop><extensions><gom:speed>0.144</gom:speed></extensions></trkpt>
   <trkpt lat="59.3266532824" lon="34.6951814216"><ele>165.848</ele><time>2026-08-17T03:30:26.646Z</time><hdop>3.0</hdop><vdop>3.125</vdop><extensions><gom:speed>0.132</gom:speed></extensions></trkpt>
   <trkpt lat="59.3266528633" lon="34.6951815892"><ele>165.885</ele><time>2026-08-17T03:30:27.652Z</time><hdop>3.0</hdop><vdop>3.125</vdop><extensions><gom:speed>0.038</gom:speed></extensions></trkpt>
   <trkpt lat="59.3266526957" lon="34.6951785717"><ele>165.908</ele><time>2026-08-17T03:30:28.652Z</time><hdop>3.0</hdop><vdop>3.062</vdop><extensions><gom:speed>0.025</gom:speed></extensions></trkpt>
   <trkpt lat="59.3266523604" lon="34.6951743808"><ele>165.923</ele><time>2026-08-17T03:30:29.646Z</time><hdop>3.0</hdop><vdop>3.0</vdop><extensions><gom:speed>0.085</gom:speed></extensions></trkpt>
   <trkpt lat="59.32665257" lon="34.6951726206"><ele>165.932</ele><time>2026-08-17T03:30:30.652Z</time><hdop>3.0</hdop><vdop>2.937</vdop><extensions><gom:speed>0.011</gom:speed></extensions></trkpt>
   <trkpt lat="59.3266523604" lon="34.6951706927"><ele>165.938</ele><time>2026-08-17T03:30:31.645Z</time><hdop>3.0</hdop><vdop>2.812</vdop><extensions><gom:speed>0.095</gom:speed></extensions></trkpt>
   <trkpt lat="59.3266524861" lon="34.6951679267"><ele>165.942</ele><time>2026-08-17T03:30:32.646Z</time><hdop>3.0</hdop><vdop>2.625</vdop><extensions><gom:speed>0.099</gom:speed></extensions></trkpt>
   <trkpt lat="59.3266517737" lon="34.695166418"><ele>165.946</ele><time>2026-08-17T03:30:33.652Z</time><hdop>3.0</hdop><vdop>2.562</vdop><extensions><gom:speed>0.023</gom:speed></extensions></trkpt>
   <trkpt lat="59.3266513965" lon="34.695166418"><ele>165.948</ele><time>2026-08-17T03:30:34.646Z</time><hdop>3.0</hdop><vdop>2.5</vdop><extensions><gom:speed>0.097</gom:speed></extensions></trkpt>
   <trkpt lat="59.3266513965" lon="34.6951665856"><ele>165.897</ele><time>2026-08-17T03:30:35.652Z</time><hdop>3.0</hdop><vdop>2.5</vdop><extensions><gom:speed>0.027</gom:speed></extensions></trkpt>
   <trkpt lat="59.3266503907" lon="34.6951634843"><ele>165.948</ele><time>2026-08-17T03:30:36.646Z</time><hdop>3.0</hdop><vdop>2.5</vdop><extensions><gom:speed>0.131</gom:speed></extensions></trkpt>
   <trkpt lat="59.3266500973" lon="34.695162227"><ele>165.979</ele><time>2026-08-17T03:30:37.295Z</time><hdop>3.0</hdop><vdop>2.5</vdop><extensions><gom:speed>0.107</gom:speed></extensions></trkpt>
   <trkpt lat="59.3266489657" lon="34.6951574493"><ele>165.741</ele><time>2026-08-17T03:30:38.104Z</time><hdop>3.0</hdop><vdop>2.5</vdop><extensions><gom:speed>0.118</gom:speed></extensions></trkpt>
   <trkpt lat="59.3266490915" lon="34.6951540966"><ele>165.918</ele><time>2026-08-17T03:30:38.646Z</time><hdop>3.0</hdop><vdop>2.75</vdop><extensions><gom:speed>0.144</gom:speed></extensions></trkpt>
   <trkpt lat="59.3266499716" lon="34.695147894"><ele>165.781</ele><time>2026-08-17T03:30:39.646Z</time><hdop>3.0</hdop><vdop>2.625</vdop><extensions><gom:speed>0.169</gom:speed></extensions></trkpt>
   <trkpt lat="59.326650684" lon="34.6951439545"><ele>165.699</ele><time>2026-08-17T03:30:40.441Z</time><hdop>3.0</hdop><vdop>2.625</vdop><extensions><gom:speed>0.201</gom:speed></extensions></trkpt>
   <trkpt lat="59.3266526957" lon="34.69512937"><ele>165.22</ele><time>2026-08-17T03:30:41.159Z</time><hdop>3.0</hdop><vdop>2.562</vdop><extensions><gom:speed>0.499</gom:speed></extensions></trkpt>
   <trkpt lat="59.3266537853" lon="34.6951148693"><ele>164.841</ele><time>2026-08-17T03:30:41.646Z</time><hdop>3.0</hdop><vdop>2.812</vdop><extensions><gom:speed>0.603</gom:speed></extensions></trkpt>
   <trkpt lat="59.3266563837" lon="34.6951061521"><ele>164.638</ele><time>2026-08-17T03:30:42.658Z</time><hdop>3.0</hdop><vdop>2.687</vdop><extensions><gom:speed>0.403</gom:speed></extensions></trkpt>
   <trkpt lat="59.3266549588" lon="34.6950982731"><ele>164.521</ele><time>2026-08-17T03:30:43.646Z</time><hdop>3.0</hdop><vdop>2.562</vdop><extensions><gom:speed>0.242</gom:speed></extensions></trkpt>
   <trkpt lat="59.3266546654" lon="34.6950991951"><ele>164.61</ele><time>2026-08-17T03:30:44.646Z</time><hdop>3.0</hdop><vdop>2.562</vdop><extensions><gom:speed>0.137</gom:speed></extensions></trkpt>
   <trkpt lat="59.3266547912" lon="34.6951016259"><ele>164.64</ele><time>2026-08-17T03:30:45.646Z</time><hdop>3.0</hdop><vdop>2.687</vdop><extensions><gom:speed>0.118</gom:speed></extensions></trkpt>
   <trkpt lat="59.3266544978" lon="34.6951036375"><ele>164.744</ele><time>2026-08-17T03:30:46.646Z</time><hdop>3.0</hdop><vdop>2.687</vdop><extensions><gom:speed>0.097</gom:speed></extensions></trkpt>
   <trkpt lat="59.3266538692" lon="34.6951046433"><ele>164.913</ele><time>2026-08-17T03:30:47.652Z</time><hdop>3.0</hdop><vdop>2.875</vdop><extensions><gom:speed>0.021</gom:speed></extensions></trkpt>
   <trkpt lat="59.3266541625" lon="34.6951056492"><ele>165.014</ele><time>2026-08-17T03:30:48.423Z</time><hdop>3.0</hdop><vdop>2.875</vdop><extensions><gom:speed>0.035</gom:speed></extensions></trkpt>
   <trkpt lat="59.3266539949" lon="34.6951105945"><ele>165.088</ele><time>2026-08-17T03:30:49.652Z</time><hdop>3.0</hdop><vdop>2.75</vdop><extensions><gom:speed>0.018</gom:speed></extensions></trkpt>
   <trkpt lat="59.3266547912" lon="34.6951111812"><ele>165.132</ele><time>2026-08-17T03:30:50.649Z</time><hdop>3.0</hdop><vdop>2.625</vdop><extensions><gom:speed>0.105</gom:speed></extensions></trkpt>
   <trkpt lat="59.3266566771" lon="34.6951123547"><ele>165.161</ele><time>2026-08-17T03:30:51.646Z</time><hdop>3.0</hdop><vdop>2.5</vdop><extensions><gom:speed>0.098</gom:speed></extensions></trkpt>
   <trkpt lat="59.3266573895" lon="34.6951119356"><ele>165.178</ele><time>2026-08-17T03:30:52.319Z</time><hdop>3.0</hdop><vdop>2.5</vdop><extensions><gom:speed>0.117</gom:speed></extensions></trkpt>
   <trkpt lat="59.3266583954" lon="34.6951118518"><ele>165.156</ele><time>2026-08-17T03:30:53.098Z</time><hdop>3.0</hdop><vdop>2.5</vdop><extensions><gom:speed>0.106</gom:speed></extensions></trkpt>
   <trkpt lat="59.3266595688" lon="34.6951096725"><ele>165.417</ele><time>2026-08-17T03:30:53.646Z</time><hdop>3.0</hdop><vdop>2.5</vdop><extensions><gom:speed>0.161</gom:speed></extensions></trkpt>
   <trkpt lat="59.3266600718" lon="34.6951101754"><ele>165.573</ele><time>2026-08-17T03:30:54.423Z</time><hdop>3.0</hdop><vdop>2.5</vdop><extensions><gom:speed>0.136</gom:speed></extensions></trkpt>
   <trkpt lat="59.3266623768" lon="34.6951002848"><ele>165.4</ele><time>2026-08-17T03:30:55.162Z</time><hdop>3.0</hdop><vdop>2.625</vdop><extensions><gom:speed>0.275</gom:speed></extensions></trkpt>
   <trkpt lat="59.3266649752" lon="34.6950939983"><ele>165.366</ele><time>2026-08-17T03:30:55.646Z</time><hdop>3.0</hdop><vdop>2.625</vdop><extensions><gom:speed>0.321</gom:speed></extensions></trkpt>
   <trkpt lat="59.3266726865" lon="34.6950757258"><ele>165.633</ele><time>2026-08-17T03:30:56.646Z</time><hdop>3.0</hdop><vdop>2.625</vdop><extensions><gom:speed>0.713</gom:speed></extensions></trkpt>
   <trkpt lat="59.3266785958" lon="34.6950615604"><ele>165.793</ele><time>2026-08-17T03:30:57.438Z</time><hdop>3.0</hdop><vdop>2.625</vdop><extensions><gom:speed>0.77</gom:speed></extensions></trkpt>
   <trkpt lat="59.3266859718" lon="34.6950480655"><ele>165.893</ele><time>2026-08-17T03:30:58.166Z</time><hdop>3.0</hdop><vdop>2.687</vdop><extensions><gom:speed>0.868</gom:speed></extensions></trkpt>
   <trkpt lat="59.3266894922" lon="34.6950412762"><ele>165.853</ele><time>2026-08-17T03:30:58.646Z</time><hdop>3.0</hdop><vdop>2.625</vdop><extensions><gom:speed>0.755</gom:speed></extensions></trkpt>
   <trkpt lat="59.3266917973" lon="34.6950347383"><ele>165.829</ele><time>2026-08-17T03:30:59.552Z</time><hdop>3.0</hdop><vdop>2.625</vdop><extensions><gom:speed>0.757</gom:speed></extensions></trkpt>
   <trkpt lat="59.3266972874" lon="34.6950096764"><ele>165.716</ele><time>2026-08-17T03:31:00.584Z</time><hdop>3.0</hdop><vdop>2.75</vdop><extensions><gom:speed>0.846</gom:speed></extensions></trkpt>
   <trkpt lat="59.3267012688" lon="34.6950022165"><ele>165.623</ele><time>2026-08-17T03:31:01.505Z</time><hdop>3.0</hdop><vdop>2.687</vdop><extensions><gom:speed>0.561</gom:speed></extensions></trkpt>
   <trkpt lat="59.3267088963" lon="34.6949934993"><ele>165.467</ele><time>2026-08-17T03:31:02.365Z</time><hdop>3.0</hdop><vdop>2.937</vdop><extensions><gom:speed>0.741</gom:speed></extensions></trkpt>
   <trkpt lat="59.3267191642" lon="34.6949850336"><ele>165.439</ele><time>2026-08-17T03:31:03.043Z</time><hdop>3.0</hdop><vdop>3.25</vdop><extensions><gom:speed>0.846</gom:speed></extensions></trkpt>
   <trkpt lat="59.3267271689" lon="34.6949794177"><ele>165.527</ele><time>2026-08-17T03:31:03.646Z</time><hdop>3.0</hdop><vdop>3.687</vdop><extensions><gom:speed>0.936</gom:speed></extensions></trkpt>
   <trkpt lat="59.3267359699" lon="34.6949702814"><ele>165.58</ele><time>2026-08-17T03:31:04.641Z</time><hdop>3.0</hdop><vdop>3.687</vdop><extensions><gom:speed>0.888</gom:speed></extensions></trkpt>
   <trkpt lat="59.326737772" lon="34.6949696947"><ele>165.302</ele><time>2026-08-17T03:31:05.117Z</time><hdop>3.0</hdop><vdop>3.875</vdop><extensions><gom:speed>0.87</gom:speed></extensions></trkpt>
   <trkpt lat="59.3267443937" lon="34.6949592173"><ele>164.994</ele><time>2026-08-17T03:31:05.652Z</time><hdop>3.0</hdop><vdop>3.937</vdop><extensions><gom:speed>0.865</gom:speed></extensions></trkpt>
   <trkpt lat="59.3267493809" lon="34.6949498296"><ele>164.809</ele><time>2026-08-17T03:31:06.666Z</time><hdop>3.0</hdop><vdop>3.937</vdop><extensions><gom:speed>0.896</gom:speed></extensions></trkpt>
   <trkpt lat="59.3267544939" lon="34.6949420344"><ele>164.975</ele><time>2026-08-17T03:31:07.646Z</time><hdop>3.062</hdop><vdop>3.812</vdop><extensions><gom:speed>0.905</gom:speed></extensions></trkpt>
   <trkpt lat="59.3267566732" lon="34.694939436"><ele>164.711</ele><time>2026-08-17T03:31:08.284Z</time><hdop>3.062</hdop><vdop>4.062</vdop><extensions><gom:speed>0.875</gom:speed></extensions></trkpt>
   <trkpt lat="59.3267594811" lon="34.6949360833"><ele>165.205</ele><time>2026-08-17T03:31:08.982Z</time><hdop>3.062</hdop><vdop>3.5</vdop><extensions><gom:speed>0.844</gom:speed></extensions></trkpt>
   <trkpt lat="59.3267631692" lon="34.6949304674"><ele>165.5</ele><time>2026-08-17T03:31:09.659Z</time><hdop>3.062</hdop><vdop>3.5</vdop><extensions><gom:speed>0.85</gom:speed></extensions></trkpt>
   <trkpt lat="59.3267651808" lon="34.6949216664"><ele>165.834</ele><time>2026-08-17T03:31:10.540Z</time><hdop>3.062</hdop><vdop>3.437</vdop><extensions><gom:speed>0.784</gom:speed></extensions></trkpt>
   <trkpt lat="59.3267643845" lon="34.694914458"><ele>165.595</ele><time>2026-08-17T03:31:11.238Z</time><hdop>3.0</hdop><vdop>3.687</vdop><extensions><gom:speed>0.71</gom:speed></extensions></trkpt>
   <trkpt lat="59.3267626663" lon="34.6949078363"><ele>165.499</ele><time>2026-08-17T03:31:11.905Z</time><hdop>3.0</hdop><vdop>3.562</vdop><extensions><gom:speed>0.606</gom:speed></extensions></trkpt>
   <trkpt lat="59.326762792" lon="34.6949018851"><ele>165.041</ele><time>2026-08-17T03:31:12.652Z</time><hdop>3.0</hdop><vdop>3.812</vdop><extensions><gom:speed>0.476</gom:speed></extensions></trkpt>
   <trkpt lat="59.3267587687" lon="34.6948914916"><ele>164.767</ele><time>2026-08-17T03:31:13.383Z</time><hdop>3.0</hdop><vdop>3.812</vdop><extensions><gom:speed>0.485</gom:speed></extensions></trkpt>
   <trkpt lat="59.3267548711" lon="34.6948814333"><ele>164.422</ele><time>2026-08-17T03:31:14.182Z</time><hdop>3.0</hdop><vdop>3.875</vdop><extensions><gom:speed>0.429</gom:speed></extensions></trkpt>
   <trkpt lat="59.3267515602" lon="34.6948730514"><ele>163.117</ele><time>2026-08-17T03:31:14.646Z</time><hdop>3.0</hdop><vdop>3.937</vdop><extensions><gom:speed>0.429</gom:speed></extensions></trkpt>
   <trkpt lat="59.3267503868" lon="34.6948639989"><ele>162.337</ele><time>2026-08-17T03:31:15.487Z</time><hdop>3.0</hdop><vdop>3.937</vdop><extensions><gom:speed>0.399</gom:speed></extensions></trkpt>
   <trkpt lat="59.3267473693" lon="34.6948505879"><ele>161.139</ele><time>2026-08-17T03:31:16.145Z</time><hdop>3.0</hdop><vdop>3.875</vdop><extensions><gom:speed>0.472</gom:speed></extensions></trkpt>
   <trkpt lat="59.3267459863" lon="34.6948442176"><ele>160.423</ele><time>2026-08-17T03:31:16.652Z</time><hdop>3.0</hdop><vdop>3.937</vdop><extensions><gom:speed>0.337</gom:speed></extensions></trkpt>
   <trkpt lat="59.3267408733" lon="34.6948277891"><ele>159.995</ele><time>2026-08-17T03:31:17.623Z</time><hdop>3.0</hdop><vdop>3.937</vdop><extensions><gom:speed>0.379</gom:speed></extensions></trkpt>
   <trkpt lat="59.3267371853" lon="34.6948161382"><ele>159.706</ele><time>2026-08-17T03:31:18.502Z</time><hdop>3.0</hdop><vdop>4.0</vdop><extensions><gom:speed>0.354</gom:speed></extensions></trkpt>
   <trkpt lat="59.3267344611" lon="34.6948117797"><ele>159.311</ele><time>2026-08-17T03:31:19.139Z</time><hdop>3.0</hdop><vdop>3.937</vdop><extensions><gom:speed>0.251</gom:speed></extensions></trkpt>
   <trkpt lat="59.326732659" lon="34.6948047389"><ele>159.412</ele><time>2026-08-17T03:31:19.646Z</time><hdop>3.0</hdop><vdop>4.5</vdop><extensions><gom:speed>0.347</gom:speed></extensions></trkpt>
   <trkpt lat="59.3267324914" lon="34.6947996259"><ele>159.472</ele><time>2026-08-17T03:31:20.334Z</time><hdop>3.0</hdop><vdop>4.5</vdop><extensions><gom:speed>0.341</gom:speed></extensions></trkpt>
   <trkpt lat="59.326733162" lon="34.6947846223"><ele>158.94</ele><time>2026-08-17T03:31:21.446Z</time><hdop>3.0</hdop><vdop>3.875</vdop><extensions><gom:speed>0.498</gom:speed></extensions></trkpt>
   <trkpt lat="59.326733162" lon="34.694774564"><ele>159.327</ele><time>2026-08-17T03:31:22.083Z</time><hdop>3.0</hdop><vdop>3.5</vdop><extensions><gom:speed>0.512</gom:speed></extensions></trkpt>
   <trkpt lat="59.326733162" lon="34.6947698701"><ele>160.3</ele><time>2026-08-17T03:31:22.652Z</time><hdop>3.0</hdop><vdop>3.375</vdop><extensions><gom:speed>0.418</gom:speed></extensions></trkpt>
   <trkpt lat="59.3267336649" lon="34.6947524358"><ele>160.882</ele><time>2026-08-17T03:31:23.621Z</time><hdop>3.0</hdop><vdop>3.375</vdop><extensions><gom:speed>0.487</gom:speed></extensions></trkpt>
   <trkpt lat="59.3267328686" lon="34.6947269548"><ele>160.754</ele><time>2026-08-17T03:31:24.645Z</time><hdop>3.0</hdop><vdop>3.312</vdop><extensions><gom:speed>0.597</gom:speed></extensions></trkpt>
   <trkpt lat="59.326732659" lon="34.6947204169"><ele>160.678</ele><time>2026-08-17T03:31:25.655Z</time><hdop>3.0</hdop><vdop>3.312</vdop><extensions><gom:speed>0.323</gom:speed></extensions></trkpt>
   <trkpt lat="59.3267304797" lon="34.6947110292"><ele>160.729</ele><time>2026-08-17T03:31:26.646Z</time><hdop>3.0</hdop><vdop>3.125</vdop><extensions><gom:speed>0.27</gom:speed></extensions></trkpt>
   <trkpt lat="59.3267285938" lon="34.6946972829"><ele>161.29</ele><time>2026-08-17T03:31:27.102Z</time><hdop>3.0</hdop><vdop>2.937</vdop><extensions><gom:speed>0.431</gom:speed></extensions></trkpt>
   <trkpt lat="59.3267255763" lon="34.6946820278"><ele>161.857</ele><time>2026-08-17T03:31:27.647Z</time><hdop>3.0</hdop><vdop>2.937</vdop><extensions><gom:speed>0.47</gom:speed></extensions></trkpt>
   <trkpt lat="59.3267246962" lon="34.6946747355"><ele>162.196</ele><time>2026-08-17T03:31:28.164Z</time><hdop>3.0</hdop><vdop>2.937</vdop><extensions><gom:speed>0.438</gom:speed></extensions></trkpt>
   <trkpt lat="59.3267242771" lon="34.6946683653"><ele>162.46</ele><time>2026-08-17T03:31:28.652Z</time><hdop>3.0</hdop><vdop>3.0</vdop><extensions><gom:speed>0.407</gom:speed></extensions></trkpt>
   <trkpt lat="59.326721092" lon="34.6946510986"><ele>162.618</ele><time>2026-08-17T03:31:29.520Z</time><hdop>3.0</hdop><vdop>3.0</vdop><extensions><gom:speed>0.472</gom:speed></extensions></trkpt>
   <trkpt lat="59.3267179907" lon="34.6946373522"><ele>162.616</ele><time>2026-08-17T03:31:30.147Z</time><hdop>3.0</hdop><vdop>3.187</vdop><extensions><gom:speed>0.488</gom:speed></extensions></trkpt>
   <trkpt lat="59.326716482" lon="34.6946292218"><ele>163.483</ele><time>2026-08-17T03:31:30.654Z</time><hdop>3.0</hdop><vdop>3.125</vdop><extensions><gom:speed>0.491</gom:speed></extensions></trkpt>
   <trkpt lat="59.3267086868" lon="34.6945979573"><ele>164.061</ele><time>2026-08-17T03:31:31.646Z</time><hdop>3.0</hdop><vdop>3.5</vdop><extensions><gom:speed>0.68</gom:speed></extensions></trkpt>
   <trkpt lat="59.3267073876" lon="34.6945848815"><ele>164.405</ele><time>2026-08-17T03:31:32.687Z</time><hdop>3.0</hdop><vdop>3.5</vdop><extensions><gom:speed>0.393</gom:speed></extensions></trkpt>
   <trkpt lat="59.3267039929" lon="34.6945673634"><ele>164.476</ele><time>2026-08-17T03:31:33.465Z</time><hdop>3.0</hdop><vdop>3.875</vdop><extensions><gom:speed>0.479</gom:speed></extensions></trkpt>
   <trkpt lat="59.3267001792" lon="34.6945507672"><ele>164.795</ele><time>2026-08-17T03:31:34.265Z</time><hdop>3.0</hdop><vdop>3.75</vdop><extensions><gom:speed>0.47</gom:speed></extensions></trkpt>
   <trkpt lat="59.3266966588" lon="34.6945381943"><ele>165.082</ele><time>2026-08-17T03:31:34.922Z</time><hdop>3.0</hdop><vdop>3.0</vdop><extensions><gom:speed>0.401</gom:speed></extensions></trkpt>
   <trkpt lat="59.3266942699" lon="34.694528639"><ele>165.253</ele><time>2026-08-17T03:31:35.662Z</time><hdop>3.0</hdop><vdop>3.0</vdop><extensions><gom:speed>0.411</gom:speed></extensions></trkpt>
   <trkpt lat="59.3266901628" lon="34.6945155632"><ele>165.687</ele><time>2026-08-17T03:31:36.521Z</time><hdop>3.0</hdop><vdop>2.937</vdop><extensions><gom:speed>0.403</gom:speed></extensions></trkpt>
   <trkpt lat="59.3266856785" lon="34.6945030742"><ele>166.003</ele><time>2026-08-17T03:31:37.543Z</time><hdop>3.0</hdop><vdop>2.937</vdop><extensions><gom:speed>0.382</gom:speed></extensions></trkpt>
   <trkpt lat="59.3266816971" lon="34.6944917586"><ele>166.247</ele><time>2026-08-17T03:31:38.281Z</time><hdop>3.0</hdop><vdop>2.75</vdop><extensions><gom:speed>0.387</gom:speed></extensions></trkpt>
   <trkpt lat="59.3266758716" lon="34.6944769226"><ele>166.18</ele><time>2026-08-17T03:31:39.646Z</time><hdop>3.0</hdop><vdop>2.687</vdop><extensions><gom:speed>0.31</gom:speed></extensions></trkpt>
   <trkpt lat="59.3266735666" lon="34.6944714744"><ele>166.128</ele><time>2026-08-17T03:31:40.652Z</time><hdop>3.0</hdop><vdop>2.75</vdop><extensions><gom:speed>0.264</gom:speed></extensions></trkpt>
   <trkpt lat="59.3266714711" lon="34.6944643498"><ele>166.098</ele><time>2026-08-17T03:31:41.620Z</time><hdop>3.0</hdop><vdop>2.75</vdop><extensions><gom:speed>0.4</gom:speed></extensions></trkpt>
   <trkpt lat="59.3266698786" lon="34.6944544591"><ele>165.934</ele><time>2026-08-17T03:31:42.379Z</time><hdop>3.0</hdop><vdop>2.812</vdop><extensions><gom:speed>0.399</gom:speed></extensions></trkpt>
   <trkpt lat="59.326669669" lon="34.694447586"><ele>165.57</ele><time>2026-08-17T03:31:43.299Z</time><hdop>3.0</hdop><vdop>2.812</vdop><extensions><gom:speed>0.379</gom:speed></extensions></trkpt>
   <trkpt lat="59.326670172" lon="34.694443395"><ele>165.711</ele><time>2026-08-17T03:31:44.707Z</time><hdop>3.0</hdop><vdop>2.5</vdop><extensions><gom:speed>0.218</gom:speed></extensions></trkpt>
   <trkpt lat="59.3266708844" lon="34.6944400422"><ele>165.769</ele><time>2026-08-17T03:31:45.646Z</time><hdop>3.0</hdop><vdop>2.5</vdop><extensions><gom:speed>0.258</gom:speed></extensions></trkpt>
   <trkpt lat="59.3266713873" lon="34.6944347616"><ele>165.946</ele><time>2026-08-17T03:31:46.345Z</time><hdop>3.0</hdop><vdop>2.5</vdop><extensions><gom:speed>0.315</gom:speed></extensions></trkpt>
   <trkpt lat="59.326671094" lon="34.694431828"><ele>165.651</ele><time>2026-08-17T03:31:47.103Z</time><hdop>3.0</hdop><vdop>2.5</vdop><extensions><gom:speed>0.219</gom:speed></extensions></trkpt>
   <trkpt lat="59.3266671964" lon="34.6944244519"><ele>165.588</ele><time>2026-08-17T03:31:47.645Z</time><hdop>3.0</hdop><vdop>2.5</vdop><extensions><gom:speed>0.29</gom:speed></extensions></trkpt>
   <trkpt lat="59.3266574734" lon="34.6944119629"><ele>165.259</ele><time>2026-08-17T03:31:48.646Z</time><hdop>3.0</hdop><vdop>2.5</vdop><extensions><gom:speed>0.45</gom:speed></extensions></trkpt>
   <trkpt lat="59.3266512708" lon="34.6944025751"><ele>165.163</ele><time>2026-08-17T03:31:49.694Z</time><hdop>3.0</hdop><vdop>2.5</vdop><extensions><gom:speed>0.401</gom:speed></extensions></trkpt>
   <trkpt lat="59.3266367701" lon="34.6943796925"><ele>165.479</ele><time>2026-08-17T03:31:50.645Z</time><hdop>3.0</hdop><vdop>2.5</vdop><extensions><gom:speed>0.71</gom:speed></extensions></trkpt>
   <trkpt lat="59.3266343812" lon="34.6943673711"><ele>165.668</ele><time>2026-08-17T03:31:51.504Z</time><hdop>3.0</hdop><vdop>2.5</vdop><extensions><gom:speed>0.577</gom:speed></extensions></trkpt>
   <trkpt lat="59.3266339621" lon="34.6943609171"><ele>165.246</ele><time>2026-08-17T03:31:52.202Z</time><hdop>3.0</hdop><vdop>2.5</vdop><extensions><gom:speed>0.395</gom:speed></extensions></trkpt>
   <trkpt lat="59.3266341717" lon="34.6943578996"><ele>165.155</ele><time>2026-08-17T03:31:52.668Z</time><hdop>3.0</hdop><vdop>2.5</vdop><extensions><gom:speed>0.37</gom:speed></extensions></trkpt>
   <trkpt lat="59.3266346746" lon="34.6943415549"><ele>165.101</ele><time>2026-08-17T03:31:53.578Z</time><hdop>3.0</hdop><vdop>2.5</vdop><extensions><gom:speed>0.585</gom:speed></extensions></trkpt>
   <trkpt lat="59.3266366862" lon="34.6943326701"><ele>164.634</ele><time>2026-08-17T03:31:54.287Z</time><hdop>3.0</hdop><vdop>2.5</vdop><extensions><gom:speed>0.55</gom:speed></extensions></trkpt>
   <trkpt lat="59.3266401647" lon="34.6943233662"><ele>164.673</ele><time>2026-08-17T03:31:55.582Z</time><hdop>3.0</hdop><vdop>2.5</vdop><extensions><gom:speed>0.593</gom:speed></extensions></trkpt>
   <trkpt lat="59.3266452777" lon="34.6943152357"><ele>164.94</ele><time>2026-08-17T03:31:56.646Z</time><hdop>3.0</hdop><vdop>2.5</vdop><extensions><gom:speed>0.275</gom:speed></extensions></trkpt>
   <trkpt lat="59.3266456968" lon="34.6943133917"><ele>165.1</ele><time>2026-08-17T03:31:57.362Z</time><hdop>3.0</hdop><vdop>2.5</vdop><extensions><gom:speed>0.254</gom:speed></extensions></trkpt>
   <trkpt lat="59.3266465769" lon="34.6943130564"><ele>165.174</ele><time>2026-08-17T03:31:58.677Z</time><hdop>3.0</hdop><vdop>2.5</vdop><extensions><gom:speed>0.123</gom:speed></extensions></trkpt>
   <trkpt lat="59.3266471636" lon="34.6943117991"><ele>165.108</ele><time>2026-08-17T03:31:59.264Z</time><hdop>3.0</hdop><vdop>2.5</vdop><extensions><gom:speed>0.145</gom:speed></extensions></trkpt>
   <trkpt lat="59.3266486724" lon="34.6943107933"><ele>165.141</ele><time>2026-08-17T03:32:00.653Z</time><hdop>3.0</hdop><vdop>2.5</vdop><extensions><gom:speed>0.097</gom:speed></extensions></trkpt>
   <trkpt lat="59.3266499716" lon="34.6943094522"><ele>165.161</ele><time>2026-08-17T03:32:01.642Z</time><hdop>3.0</hdop><vdop>2.5</vdop><extensions><gom:speed>0.135</gom:speed></extensions></trkpt>
   <trkpt lat="59.3266515641" lon="34.6943093684"><ele>165.008</ele><time>2026-08-17T03:32:02.646Z</time><hdop>3.0</hdop><vdop>2.5</vdop><extensions><gom:speed>0.124</gom:speed></extensions></trkpt>
   <trkpt lat="59.326652067" lon="34.6943091169"><ele>164.916</ele><time>2026-08-17T03:32:03.210Z</time><hdop>3.0</hdop><vdop>2.5</vdop><extensions><gom:speed>0.122</gom:speed></extensions></trkpt>
   <trkpt lat="59.3266523604" lon="34.6943039201"><ele>164.297</ele><time>2026-08-17T03:32:03.878Z</time><hdop>3.0</hdop><vdop>2.5</vdop><extensions><gom:speed>0.176</gom:speed></extensions></trkpt>
   <trkpt lat="59.3266526957" lon="34.6942980528"><ele>163.927</ele><time>2026-08-17T03:32:04.647Z</time><hdop>3.0</hdop><vdop>2.5</vdop><extensions><gom:speed>0.213</gom:speed></extensions></trkpt>
   <trkpt lat="59.3266529891" lon="34.6942923531"><ele>163.611</ele><time>2026-08-17T03:32:05.233Z</time><hdop>3.0</hdop><vdop>2.75</vdop><extensions><gom:speed>0.242</gom:speed></extensions></trkpt>
   <trkpt lat="59.3266547912" lon="34.6942651957"><ele>162.876</ele><time>2026-08-17T03:32:06.650Z</time><hdop>3.0</hdop><vdop>2.5</vdop><extensions><gom:speed>0.396</gom:speed></extensions></trkpt>
   <trkpt lat="59.326654875" lon="34.6942549698"><ele>162.41</ele><time>2026-08-17T03:32:07.763Z</time><hdop>3.0</hdop><vdop>2.5</vdop><extensions><gom:speed>0.274</gom:speed></extensions></trkpt>
   <trkpt lat="59.3266543721" lon="34.6942520362"><ele>162.13</ele><time>2026-08-17T03:32:08.673Z</time><hdop>3.0</hdop><vdop>2.5</vdop><extensions><gom:speed>0.19</gom:speed></extensions></trkpt>
   <trkpt lat="59.3266541625" lon="34.6942520362"><ele>161.963</ele><time>2026-08-17T03:32:09.705Z</time><hdop>3.0</hdop><vdop>2.5</vdop><extensions><gom:speed>0.154</gom:speed></extensions></trkpt>
   <trkpt lat="59.3266527795" lon="34.694250276"><ele>162.04</ele><time>2026-08-17T03:32:10.646Z</time><hdop>3.0</hdop><vdop>2.5</vdop><extensions><gom:speed>0.147</gom:speed></extensions></trkpt>
   <trkpt lat="59.3266522766" lon="34.6942491863"><ele>162.086</ele><time>2026-08-17T03:32:11.284Z</time><hdop>3.0</hdop><vdop>2.5</vdop><extensions><gom:speed>0.122</gom:speed></extensions></trkpt>
   <trkpt lat="59.3266504745" lon="34.6942473423"><ele>161.757</ele><time>2026-08-17T03:32:12.103Z</time><hdop>3.0</hdop><vdop>2.5</vdop><extensions><gom:speed>0.16</gom:speed></extensions></trkpt>
   <trkpt lat="59.3266482952" lon="34.6942457497"><ele>161.264</ele><time>2026-08-17T03:32:12.645Z</time><hdop>3.0</hdop><vdop>2.5</vdop><extensions><gom:speed>0.142</gom:speed></extensions></trkpt>
   <trkpt lat="59.3266468703" lon="34.6942441572"><ele>160.97</ele><time>2026-08-17T03:32:13.267Z</time><hdop>3.0</hdop><vdop>2.5</vdop><extensions><gom:speed>0.139</gom:speed></extensions></trkpt>
   <trkpt lat="59.3266438947" lon="34.694244241"><ele>161.053</ele><time>2026-08-17T03:32:14.066Z</time><hdop>3.0</hdop><vdop>2.5</vdop><extensions><gom:speed>0.1</gom:speed></extensions></trkpt>
   <trkpt lat="59.326643266" lon="34.6942438219"><ele>161.186</ele><time>2026-08-17T03:32:14.653Z</time><hdop>3.0</hdop><vdop>2.5</vdop><extensions><gom:speed>0.14</gom:speed></extensions></trkpt>
   <trkpt lat="59.3266406677" lon="34.6942419779"><ele>161.265</ele><time>2026-08-17T03:32:15.341Z</time><hdop>3.0</hdop><vdop>2.5</vdop><extensions><gom:speed>0.151</gom:speed></extensions></trkpt>
   <trkpt lat="59.3266365605" lon="34.6942394633"><ele>160.78</ele><time>2026-08-17T03:32:16.160Z</time><hdop>3.0</hdop><vdop>2.5</vdop><extensions><gom:speed>0.189</gom:speed></extensions></trkpt>
   <trkpt lat="59.3266337945" lon="34.6942387928"><ele>160.333</ele><time>2026-08-17T03:32:16.646Z</time><hdop>3.0</hdop><vdop>2.562</vdop><extensions><gom:speed>0.192</gom:speed></extensions></trkpt>
   <trkpt lat="59.3266312799" lon="34.6942347694"><ele>160.065</ele><time>2026-08-17T03:32:17.101Z</time><hdop>3.0</hdop><vdop>2.562</vdop><extensions><gom:speed>0.307</gom:speed></extensions></trkpt>
   <trkpt lat="59.3266289749" lon="34.6942331769"><ele>159.794</ele><time>2026-08-17T03:32:17.646Z</time><hdop>3.0</hdop><vdop>2.562</vdop><extensions><gom:speed>0.303</gom:speed></extensions></trkpt>
   <trkpt lat="59.3266258736" lon="34.6942283992"><ele>159.632</ele><time>2026-08-17T03:32:18.386Z</time><hdop>3.0</hdop><vdop>2.562</vdop><extensions><gom:speed>0.436</gom:speed></extensions></trkpt>
   <trkpt lat="59.3266194614" lon="34.6942248788"><ele>159.417</ele><time>2026-08-17T03:32:19.479Z</time><hdop>3.0</hdop><vdop>2.812</vdop><extensions><gom:speed>0.388</gom:speed></extensions></trkpt>
   <trkpt lat="59.3266122949" lon="34.6942228671"><ele>159.087</ele><time>2026-08-17T03:32:20.602Z</time><hdop>3.0</hdop><vdop>3.062</vdop><extensions><gom:speed>0.376</gom:speed></extensions></trkpt>
   <trkpt lat="59.3266065952" lon="34.6942219451"><ele>158.974</ele><time>2026-08-17T03:32:21.482Z</time><hdop>3.0</hdop><vdop>2.937</vdop><extensions><gom:speed>0.332</gom:speed></extensions></trkpt>
   <trkpt lat="59.3265991772" lon="34.6942216937"><ele>159.167</ele><time>2026-08-17T03:32:22.676Z</time><hdop>3.0</hdop><vdop>2.875</vdop><extensions><gom:speed>0.233</gom:speed></extensions></trkpt>
   <trkpt lat="59.3265908791" lon="34.6942197658"><ele>159.297</ele><time>2026-08-17T03:32:23.646Z</time><hdop>3.0</hdop><vdop>3.062</vdop><extensions><gom:speed>0.174</gom:speed></extensions></trkpt>
   <trkpt lat="59.3265885741" lon="34.6942207717"><ele>159.298</ele><time>2026-08-17T03:32:24.652Z</time><hdop>3.0</hdop><vdop>3.312</vdop><extensions><gom:speed>0.087</gom:speed></extensions></trkpt>
   <trkpt lat="59.3265838803" lon="34.69421876"><ele>159.344</ele><time>2026-08-17T03:32:25.645Z</time><hdop>3.0</hdop><vdop>3.125</vdop><extensions><gom:speed>0.105</gom:speed></extensions></trkpt>
   <trkpt lat="59.326582162" lon="34.6942180895"><ele>159.392</ele><time>2026-08-17T03:32:26.652Z</time><hdop>3.0</hdop><vdop>3.0</vdop><extensions><gom:speed>0.1</gom:speed></extensions></trkpt>
   <trkpt lat="59.3265799827" lon="34.6942163293"><ele>159.313</ele><time>2026-08-17T03:32:27.653Z</time><hdop>3.0</hdop><vdop>3.187</vdop><extensions><gom:speed>0.096</gom:speed></extensions></trkpt>
   <trkpt lat="59.3265769652" lon="34.6942142338"><ele>159.265</ele><time>2026-08-17T03:32:28.585Z</time><hdop>3.0</hdop><vdop>3.187</vdop><extensions><gom:speed>0.14</gom:speed></extensions></trkpt>
   <trkpt lat="59.3265743668" lon="34.6942119707"><ele>159.155</ele><time>2026-08-17T03:32:29.383Z</time><hdop>3.0</hdop><vdop>3.25</vdop><extensions><gom:speed>0.141</gom:speed></extensions></trkpt>
   <trkpt lat="59.3265652724" lon="34.6942046784"><ele>159.078</ele><time>2026-08-17T03:32:30.646Z</time><hdop>3.0</hdop><vdop>3.375</vdop><extensions><gom:speed>0.245</gom:speed></extensions></trkpt>
   <trkpt lat="59.3265637637" lon="34.694204846"><ele>159.102</ele><time>2026-08-17T03:32:31.652Z</time><hdop>3.0</hdop><vdop>3.5</vdop><extensions><gom:speed>0.097</gom:speed></extensions></trkpt>
   <trkpt lat="59.326560369" lon="34.6942021638"><ele>159.125</ele><time>2026-08-17T03:32:32.646Z</time><hdop>3.0</hdop><vdop>3.375</vdop><extensions><gom:speed>0.11</gom:speed></extensions></trkpt>
   <trkpt lat="59.3265599918" lon="34.6942010742"><ele>159.037</ele><time>2026-08-17T03:32:33.652Z</time><hdop>3.0</hdop><vdop>3.062</vdop><extensions><gom:speed>0.042</gom:speed></extensions></trkpt>
   <trkpt lat="59.3265569743" lon="34.6941990625"><ele>158.985</ele><time>2026-08-17T03:32:34.543Z</time><hdop>3.0</hdop><vdop>3.062</vdop><extensions><gom:speed>0.074</gom:speed></extensions></trkpt>
   <trkpt lat="59.3265529929" lon="34.6941967994"><ele>158.751</ele><time>2026-08-17T03:32:35.504Z</time><hdop>3.0</hdop><vdop>3.187</vdop><extensions><gom:speed>0.104</gom:speed></extensions></trkpt>
   <trkpt lat="59.3265483829" lon="34.6941937819"><ele>159.102</ele><time>2026-08-17T03:32:36.244Z</time><hdop>3.0</hdop><vdop>2.937</vdop><extensions><gom:speed>0.107</gom:speed></extensions></trkpt>
   <trkpt lat="59.3265438986" lon="34.6941903454"><ele>159.287</ele><time>2026-08-17T03:32:36.759Z</time><hdop>3.0</hdop><vdop>2.687</vdop><extensions><gom:speed>0.088</gom:speed></extensions></trkpt>
   <trkpt lat="59.3265408811" lon="34.6941876631"><ele>159.409</ele><time>2026-08-17T03:32:37.652Z</time><hdop>3.0</hdop><vdop>2.5</vdop><extensions><gom:speed>0.074</gom:speed></extensions></trkpt>
   <trkpt lat="59.3265351814" lon="34.6941819634"><ele>159.8</ele><time>2026-08-17T03:32:38.661Z</time><hdop>3.0</hdop><vdop>2.5</vdop><extensions><gom:speed>0.077</gom:speed></extensions></trkpt>
   <trkpt lat="59.3265311581" lon="34.6941767667"><ele>160.112</ele><time>2026-08-17T03:32:39.652Z</time><hdop>3.0</hdop><vdop>2.5</vdop><extensions><gom:speed>0.128</gom:speed></extensions></trkpt>
   <trkpt lat="59.3265300684" lon="34.6941746712"><ele>160.193</ele><time>2026-08-17T03:32:40.664Z</time><hdop>3.0</hdop><vdop>2.5</vdop><extensions><gom:speed>0.111</gom:speed></extensions></trkpt>
   <trkpt lat="59.3265286854" lon="34.6941722404"><ele>160.241</ele><time>2026-08-17T03:32:41.565Z</time><hdop>3.0</hdop><vdop>2.5</vdop><extensions><gom:speed>0.143</gom:speed></extensions></trkpt>
   <trkpt lat="59.3265271767" lon="34.6941670437"><ele>160.256</ele><time>2026-08-17T03:32:42.364Z</time><hdop>3.0</hdop><vdop>2.5</vdop><extensions><gom:speed>0.128</gom:speed></extensions></trkpt>
   <trkpt lat="59.3265247878" lon="34.6941541355"><ele>160.231</ele><time>2026-08-17T03:32:43.062Z</time><hdop>3.0</hdop><vdop>2.5</vdop><extensions><gom:speed>0.28</gom:speed></extensions></trkpt>
   <trkpt lat="59.326525165" lon="34.6941507828"><ele>160.196</ele><time>2026-08-17T03:32:43.653Z</time><hdop>3.0</hdop><vdop>2.5</vdop><extensions><gom:speed>0.192</gom:speed></extensions></trkpt>
   <trkpt lat="59.3265282663" lon="34.6941384614"><ele>160.176</ele><time>2026-08-17T03:32:44.580Z</time><hdop>3.0</hdop><vdop>2.5</vdop><extensions><gom:speed>0.158</gom:speed></extensions></trkpt>
   <trkpt lat="59.3265283921" lon="34.6941247989"><ele>160.091</ele><time>2026-08-17T03:32:45.520Z</time><hdop>3.0</hdop><vdop>2.625</vdop><extensions><gom:speed>0.239</gom:speed></extensions></trkpt>
   <trkpt lat="59.3265284759" lon="34.6941121422"><ele>160.222</ele><time>2026-08-17T03:32:46.138Z</time><hdop>3.0</hdop><vdop>2.5</vdop><extensions><gom:speed>0.244</gom:speed></extensions></trkpt>
   <trkpt lat="59.3265285597" lon="34.6941086218"><ele>160.748</ele><time>2026-08-17T03:32:46.652Z</time><hdop>3.0</hdop><vdop>2.5</vdop><extensions><gom:speed>0.159</gom:speed></extensions></trkpt>
   <trkpt lat="59.3265272605" lon="34.6940903492"><ele>161.063</ele><time>2026-08-17T03:32:47.483Z</time><hdop>3.0</hdop><vdop>2.5</vdop><extensions><gom:speed>0.333</gom:speed></extensions></trkpt>
   <trkpt lat="59.3265256679" lon="34.6940679696"><ele>161.518</ele><time>2026-08-17T03:32:48.242Z</time><hdop>3.0</hdop><vdop>2.687</vdop><extensions><gom:speed>0.622</gom:speed></extensions></trkpt>
   <trkpt lat="59.3265250812" lon="34.6940494456"><ele>162.263</ele><time>2026-08-17T03:32:49.507Z</time><hdop>3.0</hdop><vdop>2.687</vdop><extensions><gom:speed>0.525</gom:speed></extensions></trkpt>
   <trkpt lat="59.3265267995" lon="34.69403813"><ele>163.35</ele><time>2026-08-17T03:32:50.043Z</time><hdop>3.0</hdop><vdop>2.75</vdop><extensions><gom:speed>0.504</gom:speed></extensions></trkpt>
   <trkpt lat="59.3265267995" lon="34.6940298319"><ele>163.887</ele><time>2026-08-17T03:32:50.652Z</time><hdop>3.0</hdop><vdop>2.5</vdop><extensions><gom:speed>0.402</gom:speed></extensions></trkpt>
   <trkpt lat="59.3265284759" lon="34.6940211985"><ele>164.208</ele><time>2026-08-17T03:32:51.125Z</time><hdop>3.0</hdop><vdop>2.5</vdop><extensions><gom:speed>0.378</gom:speed></extensions></trkpt>
   <trkpt lat="59.3265289788" lon="34.694016337"><ele>164.726</ele><time>2026-08-17T03:32:51.652Z</time><hdop>3.0</hdop><vdop>2.5</vdop><extensions><gom:speed>0.323</gom:speed></extensions></trkpt>
   <trkpt lat="59.3265317867" lon="34.6940070331"><ele>165.372</ele><time>2026-08-17T03:32:52.652Z</time><hdop>3.0</hdop><vdop>2.5</vdop><extensions><gom:speed>0.252</gom:speed></extensions></trkpt>
   <trkpt lat="59.3265345947" lon="34.6939999923"><ele>165.757</ele><time>2026-08-17T03:32:53.139Z</time><hdop>3.0</hdop><vdop>2.5</vdop><extensions><gom:speed>0.357</gom:speed></extensions></trkpt>
   <trkpt lat="59.3265358939" lon="34.6939961367"><ele>165.678</ele><time>2026-08-17T03:32:53.652Z</time><hdop>3.0</hdop><vdop>2.5</vdop><extensions><gom:speed>0.292</gom:speed></extensions></trkpt>
   <trkpt lat="59.3265384923" lon="34.6939911913"><ele>165.631</ele><time>2026-08-17T03:32:54.120Z</time><hdop>3.0</hdop><vdop>2.5</vdop><extensions><gom:speed>0.285</gom:speed></extensions></trkpt>
   <trkpt lat="59.3265395819" lon="34.6939891797"><ele>165.151</ele><time>2026-08-17T03:32:54.652Z</time><hdop>3.0</hdop><vdop>2.5</vdop><extensions><gom:speed>0.193</gom:speed></extensions></trkpt>
   <trkpt lat="59.3265437729" lon="34.6939841505"><ele>165.06</ele><time>2026-08-17T03:32:55.653Z</time><hdop>3.0</hdop><vdop>2.5</vdop><extensions><gom:speed>0.152</gom:speed></extensions></trkpt>
   <trkpt lat="59.3265490954" lon="34.6939767745"><ele>165.006</ele><time>2026-08-17T03:32:56.720Z</time><hdop>3.0</hdop><vdop>2.5</vdop><extensions><gom:speed>0.172</gom:speed></extensions></trkpt>
   <trkpt lat="59.326553873" lon="34.6939703204"><ele>164.769</ele><time>2026-08-17T03:32:57.398Z</time><hdop>3.0</hdop><vdop>2.5</vdop><extensions><gom:speed>0.222</gom:speed></extensions></trkpt>
   <trkpt lat="59.3265585669" lon="34.6939675544"><ele>164.701</ele><time>2026-08-17T03:32:58.654Z</time><hdop>3.0</hdop><vdop>2.5</vdop><extensions><gom:speed>0.14</gom:speed></extensions></trkpt>
   <trkpt lat="59.3265690862" lon="34.6939560712"><ele>165.114</ele><time>2026-08-17T03:32:59.381Z</time><hdop>3.0</hdop><vdop>2.5</vdop><extensions><gom:speed>0.343</gom:speed></extensions></trkpt>
   <trkpt lat="59.3265801922" lon="34.693948276"><ele>165.11</ele><time>2026-08-17T03:33:00.160Z</time><hdop>3.0</hdop><vdop>2.5</vdop><extensions><gom:speed>0.396</gom:speed></extensions></trkpt>
   <trkpt lat="59.3265820781" lon="34.6939456776"><ele>165.386</ele><time>2026-08-17T03:33:00.656Z</time><hdop>3.0</hdop><vdop>2.5</vdop><extensions><gom:speed>0.329</gom:speed></extensions></trkpt>
   <trkpt lat="59.326589999" lon="34.6939500362"><ele>165.676</ele><time>2026-08-17T03:33:01.645Z</time><hdop>3.0</hdop><vdop>2.5</vdop><extensions><gom:speed>0.266</gom:speed></extensions></trkpt>
   <trkpt lat="59.3265921783" lon="34.6939517964"><ele>165.922</ele><time>2026-08-17T03:33:02.652Z</time><hdop>3.0</hdop><vdop>2.5</vdop><extensions><gom:speed>0.162</gom:speed></extensions></trkpt>
   <trkpt lat="59.3265990934" lon="34.69395012"><ele>166.069</ele><time>2026-08-17T03:33:03.519Z</time><hdop>3.0</hdop><vdop>2.5</vdop><extensions><gom:speed>0.325</gom:speed></extensions></trkpt>
   <trkpt lat="59.3266048769" lon="34.6939526346"><ele>166.347</ele><time>2026-08-17T03:33:04.541Z</time><hdop>3.0</hdop><vdop>2.5</vdop><extensions><gom:speed>0.238</gom:speed></extensions></trkpt>
   <trkpt lat="59.3266081878" lon="34.6939567417"><ele>166.365</ele><time>2026-08-17T03:33:05.522Z</time><hdop>3.0</hdop><vdop>2.5</vdop><extensions><gom:speed>0.123</gom:speed></extensions></trkpt>
   <trkpt lat="59.3266135941" lon="34.6939546462"><ele>166.438</ele><time>2026-08-17T03:33:06.301Z</time><hdop>3.0</hdop><vdop>2.5</vdop><extensions><gom:speed>0.166</gom:speed></extensions></trkpt>
   <trkpt lat="59.3266211797" lon="34.6939484436"><ele>166.523</ele><time>2026-08-17T03:33:07.405Z</time><hdop>3.0</hdop><vdop>2.5</vdop><extensions><gom:speed>0.201</gom:speed></extensions></trkpt>
   <trkpt lat="59.3266255802" lon="34.6939444203"><ele>166.574</ele><time>2026-08-17T03:33:08.304Z</time><hdop>3.0</hdop><vdop>2.5</vdop><extensions><gom:speed>0.158</gom:speed></extensions></trkpt>
   <trkpt lat="59.3266352613" lon="34.6939268183"><ele>166.789</ele><time>2026-08-17T03:33:08.881Z</time><hdop>3.0</hdop><vdop>2.5</vdop><extensions><gom:speed>0.536</gom:speed></extensions></trkpt>
   <trkpt lat="59.3266442719" lon="34.6939159218"><ele>166.945</ele><time>2026-08-17T03:33:09.646Z</time><hdop>3.0</hdop><vdop>2.5</vdop><extensions><gom:speed>0.628</gom:speed></extensions></trkpt>
   <trkpt lat="59.3266511869" lon="34.6939132396"><ele>167.092</ele><time>2026-08-17T03:33:10.753Z</time><hdop>3.0</hdop><vdop>2.562</vdop><extensions><gom:speed>0.454</gom:speed></extensions></trkpt>
   <trkpt lat="59.3266620834" lon="34.6939134911"><ele>167.555</ele><time>2026-08-17T03:33:11.663Z</time><hdop>3.0</hdop><vdop>2.687</vdop><extensions><gom:speed>0.459</gom:speed></extensions></trkpt>
   <trkpt lat="59.3266719741" lon="34.6939150837"><ele>167.832</ele><time>2026-08-17T03:33:12.523Z</time><hdop>3.0</hdop><vdop>2.687</vdop><extensions><gom:speed>0.511</gom:speed></extensions></trkpt>
   <trkpt lat="59.326679392" lon="34.6939145807"><ele>168.089</ele><time>2026-08-17T03:33:13.464Z</time><hdop>3.0</hdop><vdop>3.0</vdop><extensions><gom:speed>0.515</gom:speed></extensions></trkpt>
   <trkpt lat="59.3266866843" lon="34.6939129882"><ele>168.189</ele><time>2026-08-17T03:33:14.243Z</time><hdop>3.0</hdop><vdop>2.875</vdop><extensions><gom:speed>0.57</gom:speed></extensions></trkpt>
   <trkpt lat="59.3266935994" lon="34.6939116471"><ele>167.963</ele><time>2026-08-17T03:33:15.002Z</time><hdop>3.0</hdop><vdop>2.812</vdop><extensions><gom:speed>0.574</gom:speed></extensions></trkpt>
   <trkpt lat="59.3266979999" lon="34.693913072"><ele>168.065</ele><time>2026-08-17T03:33:15.650Z</time><hdop>3.0</hdop><vdop>2.625</vdop><extensions><gom:speed>0.574</gom:speed></extensions></trkpt>
   <trkpt lat="59.3267018975" lon="34.693913072"><ele>168.127</ele><time>2026-08-17T03:33:16.499Z</time><hdop>3.0</hdop><vdop>2.625</vdop><extensions><gom:speed>0.526</gom:speed></extensions></trkpt>
   <trkpt lat="59.3267083934" lon="34.6939151675"><ele>168.739</ele><time>2026-08-17T03:33:17.026Z</time><hdop>3.0</hdop><vdop>2.562</vdop><extensions><gom:speed>0.493</gom:speed></extensions></trkpt>
   <trkpt lat="59.3267109918" lon="34.6939156704"><ele>169.133</ele><time>2026-08-17T03:33:17.652Z</time><hdop>3.0</hdop><vdop>2.75</vdop><extensions><gom:speed>0.356</gom:speed></extensions></trkpt>
   <trkpt lat="59.3267213854" lon="34.6939203642"><ele>169.657</ele><time>2026-08-17T03:33:18.646Z</time><hdop>3.0</hdop><vdop>2.562</vdop><extensions><gom:speed>0.46</gom:speed></extensions></trkpt>
   <trkpt lat="59.3267240676" lon="34.693920951"><ele>169.624</ele><time>2026-08-17T03:33:19.652Z</time><hdop>3.0</hdop><vdop>2.5</vdop><extensions><gom:speed>0.26</gom:speed></extensions></trkpt>
   <trkpt lat="59.3267262888" lon="34.6939214539"><ele>169.604</ele><time>2026-08-17T03:33:20.646Z</time><hdop>3.0</hdop><vdop>2.5</vdop><extensions><gom:speed>0.2</gom:speed></extensions></trkpt>
   <trkpt lat="59.3267264983" lon="34.6939228788"><ele>169.591</ele><time>2026-08-17T03:33:22.652Z</time><hdop>3.0</hdop><vdop>2.5</vdop><extensions><gom:speed>0.026</gom:speed></extensions></trkpt>
   <trkpt lat="59.3267262888" lon="34.6939219568"><ele>169.636</ele><time>2026-08-17T03:33:23.652Z</time><hdop>3.0</hdop><vdop>2.5</vdop><extensions><gom:speed>0.016</gom:speed></extensions></trkpt>
   <trkpt lat="59.3267263726" lon="34.6939207833"><ele>169.249</ele><time>2026-08-17T03:33:24.654Z</time><hdop>3.0</hdop><vdop>2.5</vdop><extensions><gom:speed>0.041</gom:speed></extensions></trkpt>
   <trkpt lat="59.3267265822" lon="34.6939197775"><ele>169.017</ele><time>2026-08-17T03:33:25.342Z</time><hdop>3.0</hdop><vdop>2.5</vdop><extensions><gom:speed>0.092</gom:speed></extensions></trkpt>
   <trkpt lat="59.3267258697" lon="34.6939185202"><ele>168.284</ele><time>2026-08-17T03:33:26.121Z</time><hdop>3.0</hdop><vdop>2.5</vdop><extensions><gom:speed>0.092</gom:speed></extensions></trkpt>
   <trkpt lat="59.3267258697" lon="34.6939185202"><ele>167.316</ele><time>2026-08-17T03:33:26.653Z</time><hdop>3.0</hdop><vdop>2.5</vdop><extensions><gom:speed>0.086</gom:speed></extensions></trkpt>
   <trkpt lat="59.3267259954" lon="34.6939187717"><ele>166.534</ele><time>2026-08-17T03:33:27.652Z</time><hdop>3.0</hdop><vdop>2.5</vdop><extensions><gom:speed>0.082</gom:speed></extensions></trkpt>
   <trkpt lat="59.3267273784" lon="34.6939202804"><ele>166.067</ele><time>2026-08-17T03:33:28.640Z</time><hdop>3.0</hdop><vdop>2.5</vdop><extensions><gom:speed>0.145</gom:speed></extensions></trkpt>
   <trkpt lat="59.3267308988" lon="34.6939223759"><ele>166.302</ele><time>2026-08-17T03:33:29.460Z</time><hdop>3.0</hdop><vdop>2.5</vdop><extensions><gom:speed>0.157</gom:speed></extensions></trkpt>
   <trkpt lat="59.3267364728" lon="34.6939231303"><ele>165.501</ele><time>2026-08-17T03:33:30.643Z</time><hdop>3.0</hdop><vdop>2.5</vdop><extensions><gom:speed>0.206</gom:speed></extensions></trkpt>
   <trkpt lat="59.3267408733" lon="34.6939229626"><ele>165.316</ele><time>2026-08-17T03:33:31.652Z</time><hdop>3.0</hdop><vdop>2.5</vdop><extensions><gom:speed>0.155</gom:speed></extensions></trkpt>
   <trkpt lat="59.3267469921" lon="34.693922795"><ele>165.205</ele><time>2026-08-17T03:33:32.606Z</time><hdop>3.0</hdop><vdop>2.5</vdop><extensions><gom:speed>0.221</gom:speed></extensions></trkpt>
   <trkpt lat="59.3267498839" lon="34.6939212863"><ele>164.95</ele><time>2026-08-17T03:33:33.527Z</time><hdop>3.0</hdop><vdop>2.5</vdop><extensions><gom:speed>0.166</gom:speed></extensions></trkpt>
   <trkpt lat="59.3267534881" lon="34.6939195261"><ele>164.766</ele><time>2026-08-17T03:33:34.367Z</time><hdop>3.0</hdop><vdop>2.5</vdop><extensions><gom:speed>0.169</gom:speed></extensions></trkpt>
   <trkpt lat="59.3267549968" lon="34.6939183526"><ele>164.466</ele><time>2026-08-17T03:33:34.923Z</time><hdop>3.0</hdop><vdop>2.5</vdop><extensions><gom:speed>0.154</gom:speed></extensions></trkpt>
   <trkpt lat="59.3267564636" lon="34.6939186879"><ele>164.286</ele><time>2026-08-17T03:33:35.581Z</time><hdop>3.0</hdop><vdop>2.5</vdop><extensions><gom:speed>0.166</gom:speed></extensions></trkpt>
   <trkpt lat="59.3267578886" lon="34.6939180173"><ele>164.322</ele><time>2026-08-17T03:33:36.066Z</time><hdop>3.0</hdop><vdop>2.5</vdop><extensions><gom:speed>0.127</gom:speed></extensions></trkpt>
   <trkpt lat="59.326759062" lon="34.6939183526"><ele>164.541</ele><time>2026-08-17T03:33:36.654Z</time><hdop>3.0</hdop><vdop>2.5</vdop><extensions><gom:speed>0.157</gom:speed></extensions></trkpt>
   <trkpt lat="59.3267603612" lon="34.6939152513"><ele>164.635</ele><time>2026-08-17T03:33:37.646Z</time><hdop>3.0</hdop><vdop>2.5</vdop><extensions><gom:speed>0.103</gom:speed></extensions></trkpt>
   <trkpt lat="59.3267612832" lon="34.6939149998"><ele>164.694</ele><time>2026-08-17T03:33:38.656Z</time><hdop>3.0</hdop><vdop>2.5</vdop><extensions><gom:speed>0.124</gom:speed></extensions></trkpt>
   <trkpt lat="59.3267619957" lon="34.693913994"><ele>164.731</ele><time>2026-08-17T03:33:39.653Z</time><hdop>3.0</hdop><vdop>2.5</vdop><extensions><gom:speed>0.019</gom:speed></extensions></trkpt>
   <trkpt lat="59.3267624986" lon="34.6939117309"><ele>164.753</ele><time>2026-08-17T03:33:40.652Z</time><hdop>3.0</hdop><vdop>2.5</vdop><extensions><gom:speed>0.026</gom:speed></extensions></trkpt>
   <trkpt lat="59.3267635883" lon="34.6939098869"><ele>164.767</ele><time>2026-08-17T03:33:41.645Z</time><hdop>3.0</hdop><vdop>2.5</vdop><extensions><gom:speed>0.065</gom:speed></extensions></trkpt>
   <trkpt lat="59.3267637978" lon="34.6939089649"><ele>164.782</ele><time>2026-08-17T03:33:42.653Z</time><hdop>3.0</hdop><vdop>2.5</vdop><extensions><gom:speed>0.014</gom:speed></extensions></trkpt>
   <trkpt lat="59.3267637978" lon="34.6939082943"><ele>164.791</ele><time>2026-08-17T03:33:43.158Z</time><hdop>3.0</hdop><vdop>2.5</vdop><extensions><gom:speed>0.063</gom:speed></extensions></trkpt>
   <trkpt lat="59.3267637978" lon="34.6939078752"><ele>164.51</ele><time>2026-08-17T03:33:43.652Z</time><hdop>3.0</hdop><vdop>2.5</vdop><extensions><gom:speed>0.024</gom:speed></extensions></trkpt>
   <trkpt lat="59.3267646779" lon="34.6939059474"><ele>164.359</ele><time>2026-08-17T03:33:44.652Z</time><hdop>3.0</hdop><vdop>2.5</vdop><extensions><gom:speed>0.04</gom:speed></extensions></trkpt>
   <trkpt lat="59.3267656837" lon="34.693903349"><ele>164.268</ele><time>2026-08-17T03:33:45.607Z</time><hdop>3.0</hdop><vdop>2.5</vdop><extensions><gom:speed>0.092</gom:speed></extensions></trkpt>
   <trkpt lat="59.32676648" lon="34.6939015888"><ele>164.073</ele><time>2026-08-17T03:33:46.517Z</time><hdop>3.0</hdop><vdop>2.5</vdop><extensions><gom:speed>0.079</gom:speed></extensions></trkpt>
   <trkpt lat="59.3267700842" lon="34.6939008344"><ele>163.803</ele><time>2026-08-17T03:33:47.003Z</time><hdop>3.0</hdop><vdop>2.5</vdop><extensions><gom:speed>0.143</gom:speed></extensions></trkpt>
   <trkpt lat="59.3267713834" lon="34.6939009182"><ele>163.927</ele><time>2026-08-17T03:33:47.652Z</time><hdop>3.0</hdop><vdop>2.5</vdop><extensions><gom:speed>0.163</gom:speed></extensions></trkpt>
   <trkpt lat="59.3267749877" lon="34.6939008344"><ele>164.001</ele><time>2026-08-17T03:33:48.652Z</time><hdop>3.0</hdop><vdop>2.5</vdop><extensions><gom:speed>0.177</gom:speed></extensions></trkpt>
   <trkpt lat="59.3267810645" lon="34.69390008"><ele>164.257</ele><time>2026-08-17T03:33:49.158Z</time><hdop>3.0</hdop><vdop>2.5</vdop><extensions><gom:speed>0.267</gom:speed></extensions></trkpt>
   <trkpt lat="59.3267830762" lon="34.6939004991"><ele>164.077</ele><time>2026-08-17T03:33:49.664Z</time><hdop>3.0</hdop><vdop>2.5</vdop><extensions><gom:speed>0.258</gom:speed></extensions></trkpt>
   <trkpt lat="59.3267926735" lon="34.6939010859"><ele>163.97</ele><time>2026-08-17T03:33:50.605Z</time><hdop>3.0</hdop><vdop>2.5</vdop><extensions><gom:speed>0.36</gom:speed></extensions></trkpt>
   <trkpt lat="59.3267982893" lon="34.6938992419"><ele>163.599</ele><time>2026-08-17T03:33:51.323Z</time><hdop>3.0</hdop><vdop>2.5</vdop><extensions><gom:speed>0.326</gom:speed></extensions></trkpt>
   <trkpt lat="59.3268043662" lon="34.6938970626"><ele>163.206</ele><time>2026-08-17T03:33:52.326Z</time><hdop>3.0</hdop><vdop>2.5</vdop><extensions><gom:speed>0.301</gom:speed></extensions></trkpt>
   <trkpt lat="59.3268098983" lon="34.6938953862"><ele>162.909</ele><time>2026-08-17T03:33:53.124Z</time><hdop>3.0</hdop><vdop>2.625</vdop><extensions><gom:speed>0.333</gom:speed></extensions></trkpt>
   <trkpt lat="59.3268129996" lon="34.6938955538"><ele>162.277</ele><time>2026-08-17T03:33:53.652Z</time><hdop>3.0</hdop><vdop>2.812</vdop><extensions><gom:speed>0.356</gom:speed></extensions></trkpt>
   <trkpt lat="59.3268189926" lon="34.6938923687"><ele>162.164</ele><time>2026-08-17T03:33:54.652Z</time><hdop>3.0</hdop><vdop>2.687</vdop><extensions><gom:speed>0.292</gom:speed></extensions></trkpt>
   <trkpt lat="59.3268263687" lon="34.6938867528"><ele>162.096</ele><time>2026-08-17T03:33:55.522Z</time><hdop>3.0</hdop><vdop>2.687</vdop><extensions><gom:speed>0.373</gom:speed></extensions></trkpt>
   <trkpt lat="59.3268314817" lon="34.6938817237"><ele>161.834</ele><time>2026-08-17T03:33:56.119Z</time><hdop>3.0</hdop><vdop>2.625</vdop><extensions><gom:speed>0.387</gom:speed></extensions></trkpt>
   <trkpt lat="59.3268343734" lon="34.6938797958"><ele>161.6</ele><time>2026-08-17T03:33:56.652Z</time><hdop>3.0</hdop><vdop>2.562</vdop><extensions><gom:speed>0.322</gom:speed></extensions></trkpt>
   <trkpt lat="59.3268407856" lon="34.6938750182"><ele>161.461</ele><time>2026-08-17T03:33:57.484Z</time><hdop>3.0</hdop><vdop>2.562</vdop><extensions><gom:speed>0.369</gom:speed></extensions></trkpt>
   <trkpt lat="59.3268489999" lon="34.6938731741"><ele>161.634</ele><time>2026-08-17T03:33:58.284Z</time><hdop>3.0</hdop><vdop>2.5</vdop><extensions><gom:speed>0.509</gom:speed></extensions></trkpt>
   <trkpt lat="59.3268583876" lon="34.6938755211"><ele>161.932</ele><time>2026-08-17T03:33:58.962Z</time><hdop>3.0</hdop><vdop>2.687</vdop><extensions><gom:speed>0.527</gom:speed></extensions></trkpt>
   <trkpt lat="59.3268626624" lon="34.6938761916"><ele>162.11</ele><time>2026-08-17T03:33:59.661Z</time><hdop>3.0</hdop><vdop>2.687</vdop><extensions><gom:speed>0.516</gom:speed></extensions></trkpt>
   <trkpt lat="59.3268687811" lon="34.6938768622"><ele>162.806</ele><time>2026-08-17T03:34:00.540Z</time><hdop>3.0</hdop><vdop>2.687</vdop><extensions><gom:speed>0.439</gom:speed></extensions></trkpt>
   <trkpt lat="59.3268737684" lon="34.6938724198"><ele>162.663</ele><time>2026-08-17T03:34:01.646Z</time><hdop>3.0</hdop><vdop>2.562</vdop><extensions><gom:speed>0.247</gom:speed></extensions></trkpt>
   <trkpt lat="59.3268739779" lon="34.6938708272"><ele>162.582</ele><time>2026-08-17T03:34:02.655Z</time><hdop>3.0</hdop><vdop>2.562</vdop><extensions><gom:speed>0.124</gom:speed></extensions></trkpt>
   <trkpt lat="59.3268752771" lon="34.6938678935"><ele>162.541</ele><time>2026-08-17T03:34:03.646Z</time><hdop>3.0</hdop><vdop>2.5</vdop><extensions><gom:speed>0.114</gom:speed></extensions></trkpt>
   <trkpt lat="59.3268754867" lon="34.6938678935"><ele>162.517</ele><time>2026-08-17T03:34:04.652Z</time><hdop>3.0</hdop><vdop>2.5</vdop><extensions><gom:speed>0.059</gom:speed></extensions></trkpt>
   <trkpt lat="59.32687578" lon="34.6938685641"><ele>162.504</ele><time>2026-08-17T03:34:05.653Z</time><hdop>3.0</hdop><vdop>2.5</vdop><extensions><gom:speed>0.021</gom:speed></extensions></trkpt>
   <trkpt lat="59.3268763668" lon="34.6938665524"><ele>162.503</ele><time>2026-08-17T03:34:06.646Z</time><hdop>3.0</hdop><vdop>2.5</vdop><extensions><gom:speed>0.064</gom:speed></extensions></trkpt>
   <trkpt lat="59.3268764925" lon="34.6938666362"><ele>162.512</ele><time>2026-08-17T03:34:07.652Z</time><hdop>3.0</hdop><vdop>2.5</vdop><extensions><gom:speed>0.012</gom:speed></extensions></trkpt>
   <trkpt lat="59.3268769954" lon="34.6938652951"><ele>162.52</ele><time>2026-08-17T03:34:08.646Z</time><hdop>3.0</hdop><vdop>2.5</vdop><extensions><gom:speed>0.092</gom:speed></extensions></trkpt>
   <trkpt lat="59.3268769954" lon="34.6938649599"><ele>162.523</ele><time>2026-08-17T03:34:09.652Z</time><hdop>3.0</hdop><vdop>2.5</vdop><extensions><gom:speed>0.011</gom:speed></extensions></trkpt>
   <trkpt lat="59.3268767859" lon="34.6938641217"><ele>162.523</ele><time>2026-08-17T03:34:10.652Z</time><hdop>3.0</hdop><vdop>2.5</vdop><extensions><gom:speed>0.008</gom:speed></extensions></trkpt>
   <trkpt lat="59.3268768697" lon="34.6938624453"><ele>162.524</ele><time>2026-08-17T03:34:11.652Z</time><hdop>3.0</hdop><vdop>2.5</vdop><extensions><gom:speed>0.011</gom:speed></extensions></trkpt>
   <trkpt lat="59.3268771631" lon="34.6938607689"><ele>162.526</ele><time>2026-08-17T03:34:12.646Z</time><hdop>3.0</hdop><vdop>2.5</vdop><extensions><gom:speed>0.064</gom:speed></extensions></trkpt>
   <trkpt lat="59.3268770792" lon="34.6938604336"><ele>162.532</ele><time>2026-08-17T03:34:13.652Z</time><hdop>3.0</hdop><vdop>2.5</vdop><extensions><gom:speed>0.015</gom:speed></extensions></trkpt>
   <trkpt lat="59.3268770792" lon="34.6938598469"><ele>162.539</ele><time>2026-08-17T03:34:14.653Z</time><hdop>3.0</hdop><vdop>2.5</vdop><extensions><gom:speed>0.015</gom:speed></extensions></trkpt>
   <trkpt lat="59.3268773726" lon="34.693858422"><ele>162.549</ele><time>2026-08-17T03:34:15.646Z</time><hdop>3.0</hdop><vdop>2.5</vdop><extensions><gom:speed>0.094</gom:speed></extensions></trkpt>
   <trkpt lat="59.3268768697" lon="34.6938581705"><ele>162.56</ele><time>2026-08-17T03:34:16.677Z</time><hdop>3.0</hdop><vdop>2.5</vdop><extensions><gom:speed>0.009</gom:speed></extensions></trkpt>
   <trkpt lat="59.3268770792" lon="34.6938567456"><ele>162.569</ele><time>2026-08-17T03:34:17.646Z</time><hdop>3.0</hdop><vdop>2.5</vdop><extensions><gom:speed>0.087</gom:speed></extensions></trkpt>
   <trkpt lat="59.3268777917" lon="34.6938561589"><ele>162.573</ele><time>2026-08-17T03:34:18.646Z</time><hdop>3.0</hdop><vdop>2.5</vdop><extensions><gom:speed>0.094</gom:speed></extensions></trkpt>
   <trkpt lat="59.3268782946" lon="34.6938554883"><ele>162.578</ele><time>2026-08-17T03:34:19.651Z</time><hdop>3.0</hdop><vdop>2.5</vdop><extensions><gom:speed>0.064</gom:speed></extensions></trkpt>
   <trkpt lat="59.3268782946" lon="34.693855153"><ele>162.583</ele><time>2026-08-17T03:34:20.646Z</time><hdop>3.0</hdop><vdop>2.5</vdop><extensions><gom:speed>0.016</gom:speed></extensions></trkpt>
   <trkpt lat="59.3268782946" lon="34.6938550692"><ele>162.646</ele><time>2026-08-17T03:34:21.646Z</time><hdop>3.0</hdop><vdop>2.5</vdop><extensions><gom:speed>0.147</gom:speed></extensions></trkpt>
   <trkpt lat="59.3268790909" lon="34.6938534767"><ele>162.289</ele><time>2026-08-17T03:34:22.647Z</time><hdop>3.0</hdop><vdop>2.5</vdop><extensions><gom:speed>0.296</gom:speed></extensions></trkpt>
   <trkpt lat="59.3268790909" lon="34.6938478608"><ele>162.139</ele><time>2026-08-17T03:34:23.652Z</time><hdop>3.0</hdop><vdop>2.5</vdop><extensions><gom:speed>0.331</gom:speed></extensions></trkpt>
   <trkpt lat="59.3268783784" lon="34.6938446757"><ele>161.704</ele><time>2026-08-17T03:34:24.646Z</time><hdop>3.0</hdop><vdop>2.5</vdop><extensions><gom:speed>0.272</gom:speed></extensions></trkpt>
   <trkpt lat="59.326877666" lon="34.6938410714"><ele>161.454</ele><time>2026-08-17T03:34:25.652Z</time><hdop>3.0</hdop><vdop>2.5</vdop><extensions><gom:speed>0.265</gom:speed></extensions></trkpt>
   <trkpt lat="59.3268767859" lon="34.6938384731"><ele>161.313</ele><time>2026-08-17T03:34:26.653Z</time><hdop>3.0</hdop><vdop>2.5</vdop><extensions><gom:speed>0.238</gom:speed></extensions></trkpt>
   <trkpt lat="59.3268755705" lon="34.6938365452"><ele>161.229</ele><time>2026-08-17T03:34:27.646Z</time><hdop>3.0</hdop><vdop>2.5</vdop><extensions><gom:speed>0.209</gom:speed></extensions></trkpt>
   <trkpt lat="59.3268749838" lon="34.6938342821"><ele>161.182</ele><time>2026-08-17T03:34:28.652Z</time><hdop>3.125</hdop><vdop>2.5</vdop><extensions><gom:speed>0.207</gom:speed></extensions></trkpt>
   <trkpt lat="59.3268740617" lon="34.693832941"><ele>161.151</ele><time>2026-08-17T03:34:29.652Z</time><hdop>3.187</hdop><vdop>2.5</vdop><extensions><gom:speed>0.195</gom:speed></extensions></trkpt>
   <trkpt lat="59.3268730978" lon="34.693832019"><ele>161.132</ele><time>2026-08-17T03:34:30.659Z</time><hdop>3.375</hdop><vdop>2.5</vdop><extensions><gom:speed>0.186</gom:speed></extensions></trkpt>
   <trkpt lat="59.326872092" lon="34.6938316837"><ele>161.122</ele><time>2026-08-17T03:34:31.652Z</time><hdop>3.562</hdop><vdop>2.5</vdop><extensions><gom:speed>0.174</gom:speed></extensions></trkpt>
   <trkpt lat="59.3268707928" lon="34.6938322704"><ele>161.117</ele><time>2026-08-17T03:34:32.646Z</time><hdop>3.625</hdop><vdop>2.5</vdop><extensions><gom:speed>0.221</gom:speed></extensions></trkpt>
   <trkpt lat="59.3268698708" lon="34.6938305941"><ele>161.179</ele><time>2026-08-17T03:34:33.653Z</time><hdop>3.812</hdop><vdop>2.5</vdop><extensions><gom:speed>0.225</gom:speed></extensions></trkpt>
   <trkpt lat="59.3268690745" lon="34.6938286662"><ele>161.213</ele><time>2026-08-17T03:34:34.652Z</time><hdop>3.937</hdop><vdop>2.5</vdop><extensions><gom:speed>0.256</gom:speed></extensions></trkpt>
   <trkpt lat="59.3268678591" lon="34.6938273251"><ele>161.238</ele><time>2026-08-17T03:34:35.653Z</time><hdop>4.062</hdop><vdop>2.5</vdop><extensions><gom:speed>0.238</gom:speed></extensions></trkpt>
   <trkpt lat="59.3268666857" lon="34.6938265708"><ele>161.253</ele><time>2026-08-17T03:34:36.652Z</time><hdop>4.25</hdop><vdop>2.5</vdop><extensions><gom:speed>0.216</gom:speed></extensions></trkpt>
   <trkpt lat="59.3268654703" lon="34.6938260678"><ele>161.266</ele><time>2026-08-17T03:34:37.653Z</time><hdop>4.437</hdop><vdop>2.5</vdop><extensions><gom:speed>0.199</gom:speed></extensions></trkpt>
   <trkpt lat="59.3268639616" lon="34.6938269898"><ele>161.281</ele><time>2026-08-17T03:34:38.647Z</time><hdop>4.5</hdop><vdop>2.5</vdop><extensions><gom:speed>0.173</gom:speed></extensions></trkpt>
   <trkpt lat="59.3268624947" lon="34.6938264869"><ele>161.296</ele><time>2026-08-17T03:34:39.646Z</time><hdop>4.562</hdop><vdop>2.5</vdop><extensions><gom:speed>0.167</gom:speed></extensions></trkpt>
   <trkpt lat="59.3268616984" lon="34.693825062"><ele>161.313</ele><time>2026-08-17T03:34:40.652Z</time><hdop>4.625</hdop><vdop>2.5</vdop><extensions><gom:speed>0.167</gom:speed></extensions></trkpt>
   <trkpt lat="59.3268607764" lon="34.6938246429"><ele>161.568</ele><time>2026-08-17T03:34:41.652Z</time><hdop>4.625</hdop><vdop>2.5</vdop><extensions><gom:speed>0.16</gom:speed></extensions></trkpt>
   <trkpt lat="59.3268601897" lon="34.6938233856"><ele>161.791</ele><time>2026-08-17T03:34:42.739Z</time><hdop>4.75</hdop><vdop>2.5</vdop><extensions><gom:speed>0.221</gom:speed></extensions></trkpt>
   <trkpt lat="59.3268598963" lon="34.6938216254"><ele>161.935</ele><time>2026-08-17T03:34:43.649Z</time><hdop>4.75</hdop><vdop>2.5</vdop><extensions><gom:speed>0.29</gom:speed></extensions></trkpt>
   <trkpt lat="59.3268595611" lon="34.6938207872"><ele>162.026</ele><time>2026-08-17T03:34:44.647Z</time><hdop>4.812</hdop><vdop>2.5</vdop><extensions><gom:speed>0.226</gom:speed></extensions></trkpt>
   <trkpt lat="59.3268593934" lon="34.693819027"><ele>161.964</ele><time>2026-08-17T03:34:45.652Z</time><hdop>4.875</hdop><vdop>2.5</vdop><extensions><gom:speed>0.222</gom:speed></extensions></trkpt>
   <trkpt lat="59.3268589743" lon="34.6938174345"><ele>161.814</ele><time>2026-08-17T03:34:46.652Z</time><hdop>4.937</hdop><vdop>2.5</vdop><extensions><gom:speed>0.257</gom:speed></extensions></trkpt>
   <trkpt lat="59.3268587648" lon="34.6938148361"><ele>161.724</ele><time>2026-08-17T03:34:47.656Z</time><hdop>5.0</hdop><vdop>2.5</vdop><extensions><gom:speed>0.309</gom:speed></extensions></trkpt>
   <trkpt lat="59.3268585971" lon="34.6938121539"><ele>161.343</ele><time>2026-08-17T03:34:48.652Z</time><hdop>5.062</hdop><vdop>2.5</vdop><extensions><gom:speed>0.319</gom:speed></extensions></trkpt>
   <trkpt lat="59.3268588905" lon="34.693810226"><ele>161.115</ele><time>2026-08-17T03:34:49.366Z</time><hdop>5.062</hdop><vdop>2.5</vdop><extensions><gom:speed>0.337</gom:speed></extensions></trkpt>
   <trkpt lat="59.3268597706" lon="34.6938051969"><ele>161.51</ele><time>2026-08-17T03:34:50.701Z</time><hdop>5.25</hdop><vdop>2.5</vdop><extensions><gom:speed>0.472</gom:speed></extensions></trkpt>
   <trkpt lat="59.3268603992" lon="34.6938036882"><ele>161.705</ele><time>2026-08-17T03:34:51.500Z</time><hdop>5.375</hdop><vdop>2.5</vdop><extensions><gom:speed>0.346</gom:speed></extensions></trkpt>
   <trkpt lat="59.3268595611" lon="34.6938099746"><ele>161.863</ele><time>2026-08-17T03:34:52.652Z</time><hdop>5.375</hdop><vdop>2.5</vdop><extensions><gom:speed>0.136</gom:speed></extensions></trkpt>
   <trkpt lat="59.3268605669" lon="34.6938135788"><ele>161.371</ele><time>2026-08-17T03:34:53.646Z</time><hdop>5.312</hdop><vdop>2.5</vdop><extensions><gom:speed>0.19</gom:speed></extensions></trkpt>
   <trkpt lat="59.3268601897" lon="34.6938151714"><ele>160.957</ele><time>2026-08-17T03:34:54.657Z</time><hdop>5.187</hdop><vdop>2.5</vdop><extensions><gom:speed>0.099</gom:speed></extensions></trkpt>
   <trkpt lat="59.3268617823" lon="34.6938198652"><ele>160.904</ele><time>2026-08-17T03:34:55.646Z</time><hdop>5.0</hdop><vdop>2.5</vdop><extensions><gom:speed>0.129</gom:speed></extensions></trkpt>
   <trkpt lat="59.3268628719" lon="34.6938233856"><ele>160.825</ele><time>2026-08-17T03:34:56.652Z</time><hdop>4.75</hdop><vdop>2.5</vdop><extensions><gom:speed>0.049</gom:speed></extensions></trkpt>
   <trkpt lat="59.3268647997" lon="34.6938273251"><ele>160.774</ele><time>2026-08-17T03:34:57.653Z</time><hdop>4.5</hdop><vdop>2.5</vdop><extensions><gom:speed>0.028</gom:speed></extensions></trkpt>
   <trkpt lat="59.3268661828" lon="34.6938311808"><ele>160.744</ele><time>2026-08-17T03:34:58.218Z</time><hdop>4.375</hdop><vdop>2.5</vdop><extensions><gom:speed>0.062</gom:speed></extensions></trkpt>
   <trkpt lat="59.3268672724" lon="34.6938331925"><ele>160.837</ele><time>2026-08-17T03:34:59.139Z</time><hdop>4.312</hdop><vdop>2.5</vdop><extensions><gom:speed>0.084</gom:speed></extensions></trkpt>
   <trkpt lat="59.3268678591" lon="34.6938334439"><ele>160.893</ele><time>2026-08-17T03:34:59.666Z</time><hdop>4.312</hdop><vdop>2.5</vdop><extensions><gom:speed>0.113</gom:speed></extensions></trkpt>
   <trkpt lat="59.3268691583" lon="34.693834785"><ele>161.204</ele><time>2026-08-17T03:35:00.242Z</time><hdop>4.25</hdop><vdop>2.5</vdop><extensions><gom:speed>0.102</gom:speed></extensions></trkpt>
   <trkpt lat="59.3268721758" lon="34.6938350365"><ele>161.065</ele><time>2026-08-17T03:35:01.652Z</time><hdop>4.25</hdop><vdop>2.5</vdop><extensions><gom:speed>0.054</gom:speed></extensions></trkpt>
   <trkpt lat="59.3268746904" lon="34.6938358747"><ele>160.982</ele><time>2026-08-17T03:35:02.660Z</time><hdop>4.187</hdop><vdop>2.5</vdop><extensions><gom:speed>0.093</gom:speed></extensions></trkpt>
   <trkpt lat="59.3268765763" lon="34.6938370481"><ele>160.584</ele><time>2026-08-17T03:35:03.479Z</time><hdop>4.125</hdop><vdop>2.5</vdop><extensions><gom:speed>0.122</gom:speed></extensions></trkpt>
   <trkpt lat="59.3268789652" lon="34.693838976"><ele>160.189</ele><time>2026-08-17T03:35:04.339Z</time><hdop>4.062</hdop><vdop>2.5</vdop><extensions><gom:speed>0.11</gom:speed></extensions></trkpt>
   <trkpt lat="59.3268818988" lon="34.6938406524"><ele>159.468</ele><time>2026-08-17T03:35:05.179Z</time><hdop>4.0</hdop><vdop>2.5</vdop><extensions><gom:speed>0.15</gom:speed></extensions></trkpt>
   <trkpt lat="59.3268843715" lon="34.6938430831"><ele>159.509</ele><time>2026-08-17T03:35:05.646Z</time><hdop>3.937</hdop><vdop>2.5</vdop><extensions><gom:speed>0.171</gom:speed></extensions></trkpt>
   <trkpt lat="59.3268866765" lon="34.6938448433"><ele>159.534</ele><time>2026-08-17T03:35:06.444Z</time><hdop>3.937</hdop><vdop>2.5</vdop><extensions><gom:speed>0.171</gom:speed></extensions></trkpt>
   <trkpt lat="59.3268925858" lon="34.6938513812"><ele>160.084</ele><time>2026-08-17T03:35:07.264Z</time><hdop>3.875</hdop><vdop>2.5</vdop><extensions><gom:speed>0.29</gom:speed></extensions></trkpt>
   <trkpt lat="59.3269017639" lon="34.6938629482"><ele>160.496</ele><time>2026-08-17T03:35:08.265Z</time><hdop>3.937</hdop><vdop>2.5</vdop><extensions><gom:speed>0.344</gom:speed></extensions></trkpt>
   <trkpt lat="59.3269076732" lon="34.6938701566"><ele>160.935</ele><time>2026-08-17T03:35:08.983Z</time><hdop>3.937</hdop><vdop>2.5</vdop><extensions><gom:speed>0.35</gom:speed></extensions></trkpt>
   <trkpt lat="59.326910984" lon="34.6938735932"><ele>161.431</ele><time>2026-08-17T03:35:09.652Z</time><hdop>4.0</hdop><vdop>2.5</vdop><extensions><gom:speed>0.291</gom:speed></extensions></trkpt>
   <trkpt lat="59.3269183601" lon="34.6938832324"><ele>161.727</ele><time>2026-08-17T03:35:10.561Z</time><hdop>4.062</hdop><vdop>2.5</vdop><extensions><gom:speed>0.328</gom:speed></extensions></trkpt>
   <trkpt lat="59.3269234731" lon="34.6938938774"><ele>162.845</ele><time>2026-08-17T03:35:11.421Z</time><hdop>4.187</hdop><vdop>2.5</vdop><extensions><gom:speed>0.285</gom:speed></extensions></trkpt>
   <trkpt lat="59.3269272868" lon="34.6939053606"><ele>163.559</ele><time>2026-08-17T03:35:12.018Z</time><hdop>4.312</hdop><vdop>2.5</vdop><extensions><gom:speed>0.247</gom:speed></extensions></trkpt>
   <trkpt lat="59.3269326932" lon="34.6939186879"><ele>163.503</ele><time>2026-08-17T03:35:12.646Z</time><hdop>4.375</hdop><vdop>2.5</vdop><extensions><gom:speed>0.311</gom:speed></extensions></trkpt>
   <trkpt lat="59.3269352915" lon="34.6939270698"><ele>163.47</ele><time>2026-08-17T03:35:13.566Z</time><hdop>4.562</hdop><vdop>2.5</vdop><extensions><gom:speed>0.253</gom:speed></extensions></trkpt>
   <trkpt lat="59.3269397759" lon="34.6939336915"><ele>163.644</ele><time>2026-08-17T03:35:14.204Z</time><hdop>4.75</hdop><vdop>2.562</vdop><extensions><gom:speed>0.312</gom:speed></extensions></trkpt>
   <trkpt lat="59.3269472777" lon="34.6939417381"><ele>164.105</ele><time>2026-08-17T03:35:15.084Z</time><hdop>5.0</hdop><vdop>2.625</vdop><extensions><gom:speed>0.315</gom:speed></extensions></trkpt>
   <trkpt lat="59.3269488702" lon="34.6939438336"><ele>164.386</ele><time>2026-08-17T03:35:15.652Z</time><hdop>5.125</hdop><vdop>2.5</vdop><extensions><gom:speed>0.265</gom:speed></extensions></trkpt>
   <trkpt lat="59.3269584675" lon="34.6939547301"><ele>164.89</ele><time>2026-08-17T03:35:16.646Z</time><hdop>5.437</hdop><vdop>2.5</vdop><extensions><gom:speed>0.391</gom:speed></extensions></trkpt>
   <trkpt lat="59.3269619879" lon="34.6939600945"><ele>165.19</ele><time>2026-08-17T03:35:17.320Z</time><hdop>5.75</hdop><vdop>2.5</vdop><extensions><gom:speed>0.335</gom:speed></extensions></trkpt>
   <trkpt lat="59.3269673942" lon="34.6939688955"><ele>165.289</ele><time>2026-08-17T03:35:17.997Z</time><hdop>6.062</hdop><vdop>2.562</vdop><extensions><gom:speed>0.401</gom:speed></extensions></trkpt>
   <trkpt lat="59.3269718786" lon="34.6939742599"><ele>165.764</ele><time>2026-08-17T03:35:18.653Z</time><hdop>6.312</hdop><vdop>2.625</vdop><extensions><gom:speed>0.466</gom:speed></extensions></trkpt>
   <trkpt lat="59.3269811825" lon="34.6939879224"><ele>166.002</ele><time>2026-08-17T03:35:19.652Z</time><hdop>6.625</hdop><vdop>2.687</vdop><extensions><gom:speed>0.446</gom:speed></extensions></trkpt>
   <trkpt lat="59.3269894806" lon="34.6939990703"><ele>166.144</ele><time>2026-08-17T03:35:20.264Z</time><hdop>6.812</hdop><vdop>2.687</vdop><extensions><gom:speed>0.486</gom:speed></extensions></trkpt>
   <trkpt lat="59.326995767" lon="34.6940125652"><ele>165.631</ele><time>2026-08-17T03:35:21.185Z</time><hdop>7.062</hdop><vdop>2.75</vdop><extensions><gom:speed>0.394</gom:speed></extensions></trkpt>
   <trkpt lat="59.3269984911" lon="34.6940180972"><ele>165.324</ele><time>2026-08-17T03:35:21.700Z</time><hdop>7.125</hdop><vdop>2.75</vdop><extensions><gom:speed>0.33</gom:speed></extensions></trkpt>
   <trkpt lat="59.3270023887" lon="34.694033939"><ele>165.289</ele><time>2026-08-17T03:35:22.652Z</time><hdop>7.187</hdop><vdop>2.625</vdop><extensions><gom:speed>0.207</gom:speed></extensions></trkpt>
   <trkpt lat="59.3270079626" lon="34.6940553967"><ele>165.268</ele><time>2026-08-17T03:35:23.522Z</time><hdop>6.875</hdop><vdop>2.625</vdop><extensions><gom:speed>0.253</gom:speed></extensions></trkpt>
   <trkpt lat="59.3270111897" lon="34.6940657903"><ele>165.675</ele><time>2026-08-17T03:35:24.139Z</time><hdop>6.5</hdop><vdop>2.562</vdop><extensions><gom:speed>0.189</gom:speed></extensions></trkpt>
   <trkpt lat="59.3270121955" lon="34.6940697298"><ele>166.044</ele><time>2026-08-17T03:35:24.652Z</time><hdop>6.375</hdop><vdop>2.5</vdop><extensions><gom:speed>0.149</gom:speed></extensions></trkpt>
   <trkpt lat="59.3270175599" lon="34.6940787822"><ele>166.264</ele><time>2026-08-17T03:35:25.626Z</time><hdop>5.625</hdop><vdop>2.5</vdop><extensions><gom:speed>0.186</gom:speed></extensions></trkpt>
   <trkpt lat="59.3270227986" lon="34.6940833923"><ele>166.041</ele><time>2026-08-17T03:35:26.324Z</time><hdop>4.0</hdop><vdop>2.5</vdop><extensions><gom:speed>0.221</gom:speed></extensions></trkpt>
   <trkpt lat="59.3270305938" lon="34.6940883376"><ele>166.486</ele><time>2026-08-17T03:35:27.083Z</time><hdop>3.937</hdop><vdop>2.5</vdop><extensions><gom:speed>0.223</gom:speed></extensions></trkpt>
   <trkpt lat="59.3270320606" lon="34.6940894272"><ele>167.05</ele><time>2026-08-17T03:35:27.652Z</time><hdop>4.0</hdop><vdop>2.5</vdop><extensions><gom:speed>0.208</gom:speed></extensions></trkpt>
   <trkpt lat="59.3270394786" lon="34.6940934505"><ele>167.386</ele><time>2026-08-17T03:35:28.560Z</time><hdop>4.0</hdop><vdop>2.5</vdop><extensions><gom:speed>0.249</gom:speed></extensions></trkpt>
   <trkpt lat="59.3270451783" lon="34.6940965519"><ele>167.014</ele><time>2026-08-17T03:35:29.379Z</time><hdop>3.937</hdop><vdop>2.5</vdop><extensions><gom:speed>0.26</gom:speed></extensions></trkpt>
   <trkpt lat="59.3270534764" lon="34.6941007428"><ele>166.776</ele><time>2026-08-17T03:35:30.280Z</time><hdop>3.937</hdop><vdop>2.5</vdop><extensions><gom:speed>0.283</gom:speed></extensions></trkpt>
   <trkpt lat="59.3270576673" lon="34.6941010781"><ele>166.291</ele><time>2026-08-17T03:35:31.018Z</time><hdop>3.937</hdop><vdop>2.5</vdop><extensions><gom:speed>0.242</gom:speed></extensions></trkpt>
   <trkpt lat="59.3270599724" lon="34.6941023354"><ele>166.594</ele><time>2026-08-17T03:35:31.652Z</time><hdop>3.937</hdop><vdop>2.562</vdop><extensions><gom:speed>0.209</gom:speed></extensions></trkpt>
   <trkpt lat="59.3270675999" lon="34.6941045985"><ele>166.775</ele><time>2026-08-17T03:35:32.587Z</time><hdop>3.937</hdop><vdop>2.562</vdop><extensions><gom:speed>0.244</gom:speed></extensions></trkpt>
   <trkpt lat="59.3270728805" lon="34.6941038441"><ele>166.605</ele><time>2026-08-17T03:35:33.264Z</time><hdop>3.937</hdop><vdop>2.5</vdop><extensions><gom:speed>0.229</gom:speed></extensions></trkpt>
   <trkpt lat="59.3270824778" lon="34.6941064425"><ele>166.523</ele><time>2026-08-17T03:35:34.165Z</time><hdop>4.0</hdop><vdop>2.625</vdop><extensions><gom:speed>0.265</gom:speed></extensions></trkpt>
   <trkpt lat="59.3270840703" lon="34.694106694"><ele>166.798</ele><time>2026-08-17T03:35:34.661Z</time><hdop>4.062</hdop><vdop>2.562</vdop><extensions><gom:speed>0.224</gom:speed></extensions></trkpt>
   <trkpt lat="59.3270915721" lon="34.6941095438"><ele>167.016</ele><time>2026-08-17T03:35:35.652Z</time><hdop>4.125</hdop><vdop>2.625</vdop><extensions><gom:speed>0.246</gom:speed></extensions></trkpt>
   <trkpt lat="59.3270988644" lon="34.6941132318"><ele>167.146</ele><time>2026-08-17T03:35:36.401Z</time><hdop>4.187</hdop><vdop>2.625</vdop><extensions><gom:speed>0.287</gom:speed></extensions></trkpt>
   <trkpt lat="59.3271039774" lon="34.6941155788"><ele>166.995</ele><time>2026-08-17T03:35:37.220Z</time><hdop>4.25</hdop><vdop>2.5</vdop><extensions><gom:speed>0.294</gom:speed></extensions></trkpt>
   <trkpt lat="59.3271094675" lon="34.694119183"><ele>166.72</ele><time>2026-08-17T03:35:38.019Z</time><hdop>4.312</hdop><vdop>2.5</vdop><extensions><gom:speed>0.337</gom:speed></extensions></trkpt>
   <trkpt lat="59.3271109762" lon="34.694121027"><ele>166.421</ele><time>2026-08-17T03:35:38.652Z</time><hdop>4.312</hdop><vdop>2.5</vdop><extensions><gom:speed>0.265</gom:speed></extensions></trkpt>
   <trkpt lat="59.3271140775" lon="34.6941250503"><ele>166.041</ele><time>2026-08-17T03:35:39.652Z</time><hdop>4.312</hdop><vdop>2.5</vdop><extensions><gom:speed>0.194</gom:speed></extensions></trkpt>
   <trkpt lat="59.3271169693" lon="34.6941285707"><ele>165.944</ele><time>2026-08-17T03:35:40.652Z</time><hdop>4.25</hdop><vdop>2.562</vdop><extensions><gom:speed>0.147</gom:speed></extensions></trkpt>
   <trkpt lat="59.3271213698" lon="34.6941321749"><ele>165.887</ele><time>2026-08-17T03:35:41.682Z</time><hdop>4.187</hdop><vdop>2.562</vdop><extensions><gom:speed>0.188</gom:speed></extensions></trkpt>
   <trkpt lat="59.3271245968" lon="34.6941327617"><ele>165.547</ele><time>2026-08-17T03:35:42.380Z</time><hdop>4.187</hdop><vdop>2.75</vdop><extensions><gom:speed>0.178</gom:speed></extensions></trkpt>
   <trkpt lat="59.3271293745" lon="34.694133097"><ele>165.507</ele><time>2026-08-17T03:35:43.159Z</time><hdop>4.125</hdop><vdop>2.875</vdop><extensions><gom:speed>0.197</gom:speed></extensions></trkpt>
   <trkpt lat="59.3271330626" lon="34.6941306662"><ele>165.185</ele><time>2026-08-17T03:35:43.647Z</time><hdop>4.062</hdop><vdop>3.312</vdop><extensions><gom:speed>0.288</gom:speed></extensions></trkpt>
   <trkpt lat="59.3271377983" lon="34.6941272296"><ele>164.992</ele><time>2026-08-17T03:35:44.646Z</time><hdop>4.062</hdop><vdop>3.25</vdop><extensions><gom:speed>0.275</gom:speed></extensions></trkpt>
   <trkpt lat="59.327141193" lon="34.6941258885"><ele>164.877</ele><time>2026-08-17T03:35:45.526Z</time><hdop>4.125</hdop><vdop>3.25</vdop><extensions><gom:speed>0.294</gom:speed></extensions></trkpt>
   <trkpt lat="59.3271440848" lon="34.6941153273"><ele>164.106</ele><time>2026-08-17T03:35:46.646Z</time><hdop>4.187</hdop><vdop>3.062</vdop><extensions><gom:speed>0.265</gom:speed></extensions></trkpt>
   <trkpt lat="59.3271452582" lon="34.6941076998"><ele>163.655</ele><time>2026-08-17T03:35:47.646Z</time><hdop>4.187</hdop><vdop>3.125</vdop><extensions><gom:speed>0.217</gom:speed></extensions></trkpt>
   <trkpt lat="59.3271449649" lon="34.6941008266"><ele>163.384</ele><time>2026-08-17T03:35:48.647Z</time><hdop>4.25</hdop><vdop>3.125</vdop><extensions><gom:speed>0.16</gom:speed></extensions></trkpt>
   <trkpt lat="59.3271442943" lon="34.6940936182"><ele>163.229</ele><time>2026-08-17T03:35:49.646Z</time><hdop>4.375</hdop><vdop>3.125</vdop><extensions><gom:speed>0.118</gom:speed></extensions></trkpt>
   <trkpt lat="59.3271443781" lon="34.6940871641"><ele>163.138</ele><time>2026-08-17T03:35:50.645Z</time><hdop>4.375</hdop><vdop>3.187</vdop><extensions><gom:speed>0.113</gom:speed></extensions></trkpt>
   <trkpt lat="59.3271440848" lon="34.6940855716"><ele>163.083</ele><time>2026-08-17T03:35:51.415Z</time><hdop>4.375</hdop><vdop>3.187</vdop><extensions><gom:speed>0.084</gom:speed></extensions></trkpt>
   <trkpt lat="59.3271456773" lon="34.6940736693"><ele>163.066</ele><time>2026-08-17T03:35:52.647Z</time><hdop>4.437</hdop><vdop>3.125</vdop><extensions><gom:speed>0.101</gom:speed></extensions></trkpt>
   <trkpt lat="59.3271459707" lon="34.6940693945"><ele>163.374</ele><time>2026-08-17T03:35:53.652Z</time><hdop>4.437</hdop><vdop>2.937</vdop><extensions><gom:speed>0.029</gom:speed></extensions></trkpt>
   <trkpt lat="59.3271458869" lon="34.6940646168"><ele>163.857</ele><time>2026-08-17T03:35:54.652Z</time><hdop>4.437</hdop><vdop>2.812</vdop><extensions><gom:speed>0.058</gom:speed></extensions></trkpt>
   <trkpt lat="59.3271459707" lon="34.6940614317"><ele>164.145</ele><time>2026-08-17T03:35:55.118Z</time><hdop>4.375</hdop><vdop>2.812</vdop><extensions><gom:speed>0.096</gom:speed></extensions></trkpt>
   <trkpt lat="59.3271459707" lon="34.6940589171"><ele>164.319</ele><time>2026-08-17T03:35:55.646Z</time><hdop>4.312</hdop><vdop>2.687</vdop><extensions><gom:speed>0.122</gom:speed></extensions></trkpt>
   <trkpt lat="59.327145384" lon="34.6940576598"><ele>164.443</ele><time>2026-08-17T03:35:56.646Z</time><hdop>4.312</hdop><vdop>2.562</vdop><extensions><gom:speed>0.144</gom:speed></extensions></trkpt>
   <trkpt lat="59.3271446715" lon="34.6940570731"><ele>164.517</ele><time>2026-08-17T03:35:57.385Z</time><hdop>4.25</hdop><vdop>2.562</vdop><extensions><gom:speed>0.142</gom:speed></extensions></trkpt>
   <trkpt lat="59.3271437914" lon="34.6940581627"><ele>164.543</ele><time>2026-08-17T03:35:58.345Z</time><hdop>4.187</hdop><vdop>2.562</vdop><extensions><gom:speed>0.22</gom:speed></extensions></trkpt>
   <trkpt lat="59.327143959" lon="34.694061767"><ele>164.585</ele><time>2026-08-17T03:35:59.165Z</time><hdop>4.125</hdop><vdop>2.687</vdop><extensions><gom:speed>0.315</gom:speed></extensions></trkpt>
   <trkpt lat="59.3271449649" lon="34.6940650359"><ele>164.91</ele><time>2026-08-17T03:35:59.646Z</time><hdop>4.125</hdop><vdop>2.625</vdop><extensions><gom:speed>0.341</gom:speed></extensions></trkpt>
   <trkpt lat="59.3271471861" lon="34.6940730825"><ele>164.736</ele><time>2026-08-17T03:36:00.646Z</time><hdop>4.125</hdop><vdop>2.75</vdop><extensions><gom:speed>0.522</gom:speed></extensions></trkpt>
   <trkpt lat="59.3271461802" lon="34.6940845657"><ele>164.632</ele><time>2026-08-17T03:36:01.583Z</time><hdop>4.125</hdop><vdop>2.75</vdop><extensions><gom:speed>0.609</gom:speed></extensions></trkpt>
   <trkpt lat="59.3271475632" lon="34.6940900978"><ele>164.776</ele><time>2026-08-17T03:36:02.382Z</time><hdop>4.125</hdop><vdop>2.75</vdop><extensions><gom:speed>0.643</gom:speed></extensions></trkpt>
   <trkpt lat="59.3271517961" lon="34.6940930315"><ele>164.689</ele><time>2026-08-17T03:36:03.323Z</time><hdop>4.125</hdop><vdop>2.812</vdop><extensions><gom:speed>0.603</gom:speed></extensions></trkpt>
   <trkpt lat="59.327154185" lon="34.6940937858"><ele>164.425</ele><time>2026-08-17T03:36:03.980Z</time><hdop>4.125</hdop><vdop>3.062</vdop><extensions><gom:speed>0.551</gom:speed></extensions></trkpt>
   <trkpt lat="59.32715649" lon="34.6940916904"><ele>163.98</ele><time>2026-08-17T03:36:04.646Z</time><hdop>4.062</hdop><vdop>2.875</vdop><extensions><gom:speed>0.543</gom:speed></extensions></trkpt>
   <trkpt lat="59.3271540592" lon="34.69409278"><ele>163.702</ele><time>2026-08-17T03:36:05.652Z</time><hdop>4.062</hdop><vdop>2.812</vdop><extensions><gom:speed>0.519</gom:speed></extensions></trkpt>
   <trkpt lat="59.3271583759" lon="34.6940903492"><ele>163.524</ele><time>2026-08-17T03:36:06.646Z</time><hdop>3.937</hdop><vdop>3.125</vdop><extensions><gom:speed>0.498</gom:speed></extensions></trkpt>
   <trkpt lat="59.3271617706" lon="34.69409278"><ele>163.417</ele><time>2026-08-17T03:36:07.360Z</time><hdop>3.937</hdop><vdop>3.125</vdop><extensions><gom:speed>0.404</gom:speed></extensions></trkpt>
   <trkpt lat="59.3271670931" lon="34.6940905169"><ele>163.976</ele><time>2026-08-17T03:36:08.220Z</time><hdop>3.875</hdop><vdop>3.0</vdop><extensions><gom:speed>0.363</gom:speed></extensions></trkpt>
   <trkpt lat="59.3271700687" lon="34.6940942887"><ele>164.357</ele><time>2026-08-17T03:36:09.302Z</time><hdop>3.812</hdop><vdop>3.312</vdop><extensions><gom:speed>0.382</gom:speed></extensions></trkpt>
   <trkpt lat="59.3271729604" lon="34.6940938696"><ele>164.73</ele><time>2026-08-17T03:36:10.223Z</time><hdop>3.812</hdop><vdop>3.187</vdop><extensions><gom:speed>0.319</gom:speed></extensions></trkpt>
   <trkpt lat="59.3271761874" lon="34.6940952946"><ele>164.768</ele><time>2026-08-17T03:36:11.124Z</time><hdop>3.75</hdop><vdop>3.062</vdop><extensions><gom:speed>0.341</gom:speed></extensions></trkpt>
   <trkpt lat="59.3271787858" lon="34.6940983959"><ele>164.684</ele><time>2026-08-17T03:36:11.646Z</time><hdop>3.75</hdop><vdop>3.125</vdop><extensions><gom:speed>0.358</gom:speed></extensions></trkpt>
   <trkpt lat="59.3271806718" lon="34.6941088733"><ele>164.634</ele><time>2026-08-17T03:36:12.560Z</time><hdop>3.812</hdop><vdop>3.125</vdop><extensions><gom:speed>0.449</gom:speed></extensions></trkpt>
   <trkpt lat="59.3271832702" lon="34.6941106335"><ele>164.686</ele><time>2026-08-17T03:36:13.258Z</time><hdop>3.937</hdop><vdop>3.187</vdop><extensions><gom:speed>0.394</gom:speed></extensions></trkpt>
   <trkpt lat="59.3271862876" lon="34.6941099629"><ele>164.863</ele><time>2026-08-17T03:36:14.652Z</time><hdop>4.0</hdop><vdop>3.437</vdop><extensions><gom:speed>0.219</gom:speed></extensions></trkpt>
   <trkpt lat="59.3271904786" lon="34.6941099629"><ele>165.333</ele><time>2026-08-17T03:36:15.652Z</time><hdop>4.0</hdop><vdop>3.125</vdop><extensions><gom:speed>0.169</gom:speed></extensions></trkpt>
   <trkpt lat="59.3271943762" lon="34.6941127289"><ele>165.614</ele><time>2026-08-17T03:36:16.526Z</time><hdop>4.0</hdop><vdop>3.125</vdop><extensions><gom:speed>0.213</gom:speed></extensions></trkpt>
   <trkpt lat="59.3271984833" lon="34.6941161655"><ele>165.624</ele><time>2026-08-17T03:36:17.386Z</time><hdop>4.0</hdop><vdop>3.187</vdop><extensions><gom:speed>0.247</gom:speed></extensions></trkpt>
   <trkpt lat="59.3272009979" lon="34.694117339"><ele>165.751</ele><time>2026-08-17T03:36:17.962Z</time><hdop>3.937</hdop><vdop>3.25</vdop><extensions><gom:speed>0.244</gom:speed></extensions></trkpt>
   <trkpt lat="59.3272021713" lon="34.6941183448"><ele>166.251</ele><time>2026-08-17T03:36:18.652Z</time><hdop>3.875</hdop><vdop>3.312</vdop><extensions><gom:speed>0.205</gom:speed></extensions></trkpt>
   <trkpt lat="59.3272057756" lon="34.6941232901"><ele>166.55</ele><time>2026-08-17T03:36:19.379Z</time><hdop>3.812</hdop><vdop>3.312</vdop><extensions><gom:speed>0.251</gom:speed></extensions></trkpt>
   <trkpt lat="59.3272088769" lon="34.6941294927"><ele>166.544</ele><time>2026-08-17T03:36:20.219Z</time><hdop>3.75</hdop><vdop>3.125</vdop><extensions><gom:speed>0.266</gom:speed></extensions></trkpt>
   <trkpt lat="59.3272125649" lon="34.6941383776"><ele>166.855</ele><time>2026-08-17T03:36:21.645Z</time><hdop>3.687</hdop><vdop>3.125</vdop><extensions><gom:speed>0.284</gom:speed></extensions></trkpt>
   <trkpt lat="59.3272182646" lon="34.6941494417"><ele>167.25</ele><time>2026-08-17T03:36:22.566Z</time><hdop>3.625</hdop><vdop>3.25</vdop><extensions><gom:speed>0.302</gom:speed></extensions></trkpt>
   <trkpt lat="59.3272225813" lon="34.6941553928"><ele>166.988</ele><time>2026-08-17T03:36:23.345Z</time><hdop>3.562</hdop><vdop>3.0</vdop><extensions><gom:speed>0.298</gom:speed></extensions></trkpt>
   <trkpt lat="59.3272283648" lon="34.6941644453"><ele>167.038</ele><time>2026-08-17T03:36:24.620Z</time><hdop>3.562</hdop><vdop>2.812</vdop><extensions><gom:speed>0.274</gom:speed></extensions></trkpt>
   <trkpt lat="59.3272337711" lon="34.6941716537"><ele>167.221</ele><time>2026-08-17T03:36:25.481Z</time><hdop>3.562</hdop><vdop>2.75</vdop><extensions><gom:speed>0.221</gom:speed></extensions></trkpt>
   <trkpt lat="59.3272386745" lon="34.6941776887"><ele>167.637</ele><time>2026-08-17T03:36:26.157Z</time><hdop>3.5</hdop><vdop>2.625</vdop><extensions><gom:speed>0.212</gom:speed></extensions></trkpt>
   <trkpt lat="59.3272394708" lon="34.6941790298"><ele>168.328</ele><time>2026-08-17T03:36:26.652Z</time><hdop>3.5</hdop><vdop>2.687</vdop><extensions><gom:speed>0.178</gom:speed></extensions></trkpt>
   <trkpt lat="59.327243075" lon="34.694183556"><ele>168.741</ele><time>2026-08-17T03:36:27.402Z</time><hdop>3.5</hdop><vdop>2.687</vdop><extensions><gom:speed>0.23</gom:speed></extensions></trkpt>
   <trkpt lat="59.3272488585" lon="34.6941889204"><ele>170.192</ele><time>2026-08-17T03:36:28.652Z</time><hdop>3.5</hdop><vdop>2.625</vdop><extensions><gom:speed>0.177</gom:speed></extensions></trkpt>
   <trkpt lat="59.3272598807" lon="34.694196548"><ele>171.06</ele><time>2026-08-17T03:36:29.243Z</time><hdop>3.562</hdop><vdop>2.625</vdop><extensions><gom:speed>0.238</gom:speed></extensions></trkpt>
   <trkpt lat="59.3272723698" lon="34.6942066901"><ele>171.708</ele><time>2026-08-17T03:36:30.104Z</time><hdop>3.687</hdop><vdop>2.687</vdop><extensions><gom:speed>0.293</gom:speed></extensions></trkpt>
   <trkpt lat="59.3272771894" lon="34.6942107972"><ele>171.803</ele><time>2026-08-17T03:36:30.670Z</time><hdop>3.75</hdop><vdop>2.625</vdop><extensions><gom:speed>0.282</gom:speed></extensions></trkpt>
   <trkpt lat="59.3272881697" lon="34.6942180895"><ele>171.667</ele><time>2026-08-17T03:36:31.652Z</time><hdop>3.625</hdop><vdop>2.75</vdop><extensions><gom:speed>0.249</gom:speed></extensions></trkpt>
   <trkpt lat="59.3272920673" lon="34.6942197658"><ele>171.586</ele><time>2026-08-17T03:36:32.653Z</time><hdop>3.625</hdop><vdop>2.75</vdop><extensions><gom:speed>0.234</gom:speed></extensions></trkpt>
   <trkpt lat="59.3272992757" lon="34.6942228671"><ele>171.697</ele><time>2026-08-17T03:36:33.260Z</time><hdop>3.562</hdop><vdop>2.687</vdop><extensions><gom:speed>0.243</gom:speed></extensions></trkpt>
   <trkpt lat="59.3273047658" lon="34.6942244597"><ele>171.909</ele><time>2026-08-17T03:36:33.978Z</time><hdop>3.375</hdop><vdop>2.75</vdop><extensions><gom:speed>0.252</gom:speed></extensions></trkpt>
   <trkpt lat="59.3273054783" lon="34.6942241244"><ele>171.982</ele><time>2026-08-17T03:36:34.653Z</time><hdop>3.25</hdop><vdop>2.812</vdop><extensions><gom:speed>0.191</gom:speed></extensions></trkpt>
   <trkpt lat="59.3273091663" lon="34.6942230348"><ele>172.376</ele><time>2026-08-17T03:36:35.652Z</time><hdop>3.062</hdop><vdop>2.875</vdop><extensions><gom:speed>0.18</gom:speed></extensions></trkpt>
   <trkpt lat="59.327313483" lon="34.6942237891"><ele>172.611</ele><time>2026-08-17T03:36:36.497Z</time><hdop>3.0</hdop><vdop>2.875</vdop><extensions><gom:speed>0.205</gom:speed></extensions></trkpt>
   <trkpt lat="59.327315788" lon="34.6942265552"><ele>172.57</ele><time>2026-08-17T03:36:37.226Z</time><hdop>3.0</hdop><vdop>2.75</vdop><extensions><gom:speed>0.264</gom:speed></extensions></trkpt>
   <trkpt lat="59.3273178835" lon="34.6942306623"><ele>172.497</ele><time>2026-08-17T03:36:38.025Z</time><hdop>3.062</hdop><vdop>2.812</vdop><extensions><gom:speed>0.306</gom:speed></extensions></trkpt>
   <trkpt lat="59.3273188893" lon="34.6942331769"><ele>172.366</ele><time>2026-08-17T03:36:38.652Z</time><hdop>3.125</hdop><vdop>2.812</vdop><extensions><gom:speed>0.274</gom:speed></extensions></trkpt>
   <trkpt lat="59.3273218649" lon="34.6942393795"><ele>172.287</ele><time>2026-08-17T03:36:39.704Z</time><hdop>3.25</hdop><vdop>2.812</vdop><extensions><gom:speed>0.272</gom:speed></extensions></trkpt>
   <trkpt lat="59.3273242957" lon="34.6942452468"><ele>172.266</ele><time>2026-08-17T03:36:40.463Z</time><hdop>3.375</hdop><vdop>2.687</vdop><extensions><gom:speed>0.364</gom:speed></extensions></trkpt>
   <trkpt lat="59.3273277742" lon="34.6942505274"><ele>172.025</ele><time>2026-08-17T03:36:41.485Z</time><hdop>3.625</hdop><vdop>2.562</vdop><extensions><gom:speed>0.379</gom:speed></extensions></trkpt>
   <trkpt lat="59.3273340606" lon="34.6942543831"><ele>171.783</ele><time>2026-08-17T03:36:42.466Z</time><hdop>4.062</hdop><vdop>2.5</vdop><extensions><gom:speed>0.366</gom:speed></extensions></trkpt>
   <trkpt lat="59.3273562726" lon="34.6942604181"><ele>171.741</ele><time>2026-08-17T03:36:43.124Z</time><hdop>4.625</hdop><vdop>2.562</vdop><extensions><gom:speed>0.491</gom:speed></extensions></trkpt>
   <trkpt lat="59.3273627686" lon="34.6942621783"><ele>172.229</ele><time>2026-08-17T03:36:43.652Z</time><hdop>4.75</hdop><vdop>2.5</vdop><extensions><gom:speed>0.467</gom:speed></extensions></trkpt>
   <trkpt lat="59.3273956676" lon="34.6942588255"><ele>172.52</ele><time>2026-08-17T03:36:44.419Z</time><hdop>4.812</hdop><vdop>2.5</vdop><extensions><gom:speed>0.547</gom:speed></extensions></trkpt>
   <trkpt lat="59.3274057678" lon="34.6942475937"><ele>171.706</ele><time>2026-08-17T03:36:44.986Z</time><hdop>4.625</hdop><vdop>2.5</vdop><extensions><gom:speed>0.441</gom:speed></extensions></trkpt>
   <trkpt lat="59.3274099587" lon="34.6942418941"><ele>171.217</ele><time>2026-08-17T03:36:45.652Z</time><hdop>4.562</hdop><vdop>2.562</vdop><extensions><gom:speed>0.299</gom:speed></extensions></trkpt>
   <trkpt lat="59.3274199751" lon="34.6942291536"><ele>170.931</ele><time>2026-08-17T03:36:46.645Z</time><hdop>4.437</hdop><vdop>2.562</vdop><extensions><gom:speed>0.27</gom:speed></extensions></trkpt>
   <trkpt lat="59.327423286" lon="34.6942265552"><ele>170.761</ele><time>2026-08-17T03:36:47.363Z</time><hdop>4.312</hdop><vdop>2.562</vdop><extensions><gom:speed>0.25</gom:speed></extensions></trkpt>
   <trkpt lat="59.3274260939" lon="34.6942249626"><ele>170.437</ele><time>2026-08-17T03:36:47.950Z</time><hdop>3.812</hdop><vdop>2.5</vdop><extensions><gom:speed>0.209</gom:speed></extensions></trkpt>
   <trkpt lat="59.3274272674" lon="34.6942243759"><ele>170.25</ele><time>2026-08-17T03:36:48.658Z</time><hdop>3.5</hdop><vdop>2.5</vdop><extensions><gom:speed>0.118</gom:speed></extensions></trkpt>
   <trkpt lat="59.3274330928" lon="34.6942227833"><ele>170.15</ele><time>2026-08-17T03:36:49.645Z</time><hdop>3.062</hdop><vdop>2.562</vdop><extensions><gom:speed>0.128</gom:speed></extensions></trkpt>
   <trkpt lat="59.3274359845" lon="34.694221526"><ele>170.094</ele><time>2026-08-17T03:36:50.646Z</time><hdop>3.0</hdop><vdop>2.562</vdop><extensions><gom:speed>0.097</gom:speed></extensions></trkpt>
   <trkpt lat="59.3274358588" lon="34.6942208555"><ele>170.062</ele><time>2026-08-17T03:36:51.653Z</time><hdop>3.0</hdop><vdop>2.5</vdop><extensions><gom:speed>0.032</gom:speed></extensions></trkpt>
   <trkpt lat="59.3274388763" lon="34.6942192629"><ele>170.043</ele><time>2026-08-17T03:36:52.646Z</time><hdop>3.0</hdop><vdop>2.5</vdop><extensions><gom:speed>0.064</gom:speed></extensions></trkpt>
   <trkpt lat="59.3274392954" lon="34.6942174189"><ele>170.034</ele><time>2026-08-17T03:36:53.652Z</time><hdop>3.0</hdop><vdop>2.5</vdop><extensions><gom:speed>0.014</gom:speed></extensions></trkpt>
   <trkpt lat="59.3274410975" lon="34.6942155749"><ele>170.028</ele><time>2026-08-17T03:36:54.647Z</time><hdop>3.0</hdop><vdop>2.5</vdop><extensions><gom:speed>0.058</gom:speed></extensions></trkpt>
   <trkpt lat="59.3274425643" lon="34.6942149881"><ele>170.025</ele><time>2026-08-17T03:36:55.645Z</time><hdop>3.0</hdop><vdop>2.5</vdop><extensions><gom:speed>0.092</gom:speed></extensions></trkpt>
   <trkpt lat="59.3274429834" lon="34.6942149881"><ele>170.024</ele><time>2026-08-17T03:36:56.691Z</time><hdop>3.0</hdop><vdop>2.5</vdop><extensions><gom:speed>0.063</gom:speed></extensions></trkpt>
   <trkpt lat="59.3274441988" lon="34.6942135632"><ele>170.023</ele><time>2026-08-17T03:36:57.646Z</time><hdop>3.0</hdop><vdop>2.5</vdop><extensions><gom:speed>0.092</gom:speed></extensions></trkpt>
   <trkpt lat="59.3274450789" lon="34.6942114677"><ele>170.03</ele><time>2026-08-17T03:36:58.646Z</time><hdop>3.0</hdop><vdop>2.5</vdop><extensions><gom:speed>0.093</gom:speed></extensions></trkpt>
   <trkpt lat="59.327445498" lon="34.6942093723"><ele>170.036</ele><time>2026-08-17T03:36:59.646Z</time><hdop>3.0</hdop><vdop>2.5</vdop><extensions><gom:speed>0.093</gom:speed></extensions></trkpt>
   <trkpt lat="59.3274455818" lon="34.6942084503"><ele>170.039</ele><time>2026-08-17T03:37:00.465Z</time><hdop>3.0</hdop><vdop>2.5</vdop><extensions><gom:speed>0.076</gom:speed></extensions></trkpt>
   <trkpt lat="59.3274460847" lon="34.6942077797"><ele>170.117</ele><time>2026-08-17T03:37:01.042Z</time><hdop>3.0</hdop><vdop>2.5</vdop><extensions><gom:speed>0.028</gom:speed></extensions></trkpt>
   <trkpt lat="59.3274473839" lon="34.6942081988"><ele>170.017</ele><time>2026-08-17T03:37:01.645Z</time><hdop>3.0</hdop><vdop>2.5</vdop><extensions><gom:speed>0.076</gom:speed></extensions></trkpt>
   <trkpt lat="59.3274484736" lon="34.6942080312"><ele>169.957</ele><time>2026-08-17T03:37:02.601Z</time><hdop>3.0</hdop><vdop>2.5</vdop><extensions><gom:speed>0.113</gom:speed></extensions></trkpt>
   <trkpt lat="59.3274509881" lon="34.6942100428"><ele>169.938</ele><time>2026-08-17T03:37:03.646Z</time><hdop>3.0</hdop><vdop>2.812</vdop><extensions><gom:speed>0.103</gom:speed></extensions></trkpt>
   <trkpt lat="59.3274520778" lon="34.6942110487"><ele>169.93</ele><time>2026-08-17T03:37:04.646Z</time><hdop>3.0</hdop><vdop>2.75</vdop><extensions><gom:speed>0.093</gom:speed></extensions></trkpt>
   <trkpt lat="59.327453377" lon="34.6942122221"><ele>169.928</ele><time>2026-08-17T03:37:05.646Z</time><hdop>3.0</hdop><vdop>2.75</vdop><extensions><gom:speed>0.102</gom:speed></extensions></trkpt>
   <trkpt lat="59.3274541733" lon="34.6942126412"><ele>169.927</ele><time>2026-08-17T03:37:06.646Z</time><hdop>3.0</hdop><vdop>2.687</vdop><extensions><gom:speed>0.091</gom:speed></extensions></trkpt>
   <trkpt lat="59.3274549695" lon="34.6942128927"><ele>169.929</ele><time>2026-08-17T03:37:07.646Z</time><hdop>3.0</hdop><vdop>2.75</vdop><extensions><gom:speed>0.089</gom:speed></extensions></trkpt>
   <trkpt lat="59.3274555982" lon="34.6942138985"><ele>169.933</ele><time>2026-08-17T03:37:08.651Z</time><hdop>3.0</hdop><vdop>2.75</vdop><extensions><gom:speed>0.104</gom:speed></extensions></trkpt>
   <trkpt lat="59.3274559754" lon="34.6942153234"><ele>169.941</ele><time>2026-08-17T03:37:09.645Z</time><hdop>3.0</hdop><vdop>2.812</vdop><extensions><gom:speed>0.085</gom:speed></extensions></trkpt>
   <trkpt lat="59.3274563945" lon="34.6942163293"><ele>169.952</ele><time>2026-08-17T03:37:10.646Z</time><hdop>3.0</hdop><vdop>2.875</vdop><extensions><gom:speed>0.084</gom:speed></extensions></trkpt>
   <trkpt lat="59.3274569812" lon="34.6942167483"><ele>169.968</ele><time>2026-08-17T03:37:12.393Z</time><hdop>3.0</hdop><vdop>2.875</vdop><extensions><gom:speed>0.101</gom:speed></extensions></trkpt>
   <trkpt lat="59.3274572746" lon="34.6942182571"><ele>169.986</ele><time>2026-08-17T03:37:13.652Z</time><hdop>3.0</hdop><vdop>2.812</vdop><extensions><gom:speed>0.015</gom:speed></extensions></trkpt>
   <trkpt lat="59.327457065" lon="34.6942188438"><ele>169.999</ele><time>2026-08-17T03:37:14.645Z</time><hdop>3.0</hdop><vdop>2.812</vdop><extensions><gom:speed>0.094</gom:speed></extensions></trkpt>
   <trkpt lat="59.3274562687" lon="34.694219682"><ele>170.014</ele><time>2026-08-17T03:37:15.652Z</time><hdop>3.0</hdop><vdop>2.875</vdop><extensions><gom:speed>0.022</gom:speed></extensions></trkpt>
   <trkpt lat="59.3274555982" lon="34.6942201849"><ele>169.844</ele><time>2026-08-17T03:37:16.652Z</time><hdop>3.0</hdop><vdop>2.875</vdop><extensions><gom:speed>0.032</gom:speed></extensions></trkpt>
   <trkpt lat="59.32745476" lon="34.6942197658"><ele>169.733</ele><time>2026-08-17T03:37:17.654Z</time><hdop>3.0</hdop><vdop>2.875</vdop><extensions><gom:speed>0.031</gom:speed></extensions></trkpt>
   <trkpt lat="59.3274540894" lon="34.694217838"><ele>169.667</ele><time>2026-08-17T03:37:18.646Z</time><hdop>3.0</hdop><vdop>2.937</vdop><extensions><gom:speed>0.065</gom:speed></extensions></trkpt>
   <trkpt lat="59.3274544666" lon="34.6942167483"><ele>169.629</ele><time>2026-08-17T03:37:19.658Z</time><hdop>3.0</hdop><vdop>2.812</vdop><extensions><gom:speed>0.098</gom:speed></extensions></trkpt>
   <trkpt lat="59.3274541733" lon="34.6942158263"><ele>169.612</ele><time>2026-08-17T03:37:20.646Z</time><hdop>3.0</hdop><vdop>2.875</vdop><extensions><gom:speed>0.094</gom:speed></extensions></trkpt>
   <trkpt lat="59.3274543828" lon="34.6942177542"><ele>169.602</ele><time>2026-08-17T03:37:21.681Z</time><hdop>3.0</hdop><vdop>2.875</vdop><extensions><gom:speed>0.095</gom:speed></extensions></trkpt>
   <trkpt lat="59.3274538799" lon="34.6942176704"><ele>169.596</ele><time>2026-08-17T03:37:22.646Z</time><hdop>3.0</hdop><vdop>2.875</vdop><extensions><gom:speed>0.084</gom:speed></extensions></trkpt>
   <trkpt lat="59.3274540894" lon="34.6942183409"><ele>169.594</ele><time>2026-08-17T03:37:23.652Z</time><hdop>3.0</hdop><vdop>2.812</vdop><extensions><gom:speed>0.084</gom:speed></extensions></trkpt>
   <trkpt lat="59.327454299" lon="34.69421876"><ele>169.64</ele><time>2026-08-17T03:37:24.656Z</time><hdop>3.0</hdop><vdop>2.937</vdop><extensions><gom:speed>0.081</gom:speed></extensions></trkpt>
   <trkpt lat="59.3274545924" lon="34.6942191791"><ele>169.67</ele><time>2026-08-17T03:37:25.653Z</time><hdop>3.0</hdop><vdop>2.75</vdop><extensions><gom:speed>0.114</gom:speed></extensions></trkpt>
   <trkpt lat="59.3274543828" lon="34.6942184247"><ele>169.695</ele><time>2026-08-17T03:37:26.646Z</time><hdop>3.0</hdop><vdop>2.625</vdop><extensions><gom:speed>0.077</gom:speed></extensions></trkpt>
   <trkpt lat="59.327454299" lon="34.6942180895"><ele>169.711</ele><time>2026-08-17T03:37:27.645Z</time><hdop>3.0</hdop><vdop>2.562</vdop><extensions><gom:speed>0.071</gom:speed></extensions></trkpt>
   <trkpt lat="59.3274544666" lon="34.6942184247"><ele>169.72</ele><time>2026-08-17T03:37:28.652Z</time><hdop>3.0</hdop><vdop>2.5</vdop><extensions><gom:speed>0.071</gom:speed></extensions></trkpt>
   <trkpt lat="59.3274546762" lon="34.6942185924"><ele>169.717</ele><time>2026-08-17T03:37:29.652Z</time><hdop>3.0</hdop><vdop>2.687</vdop><extensions><gom:speed>0.068</gom:speed></extensions></trkpt>
   <trkpt lat="59.32745476" lon="34.6942185924"><ele>169.712</ele><time>2026-08-17T03:37:30.652Z</time><hdop>3.0</hdop><vdop>2.687</vdop><extensions><gom:speed>0.07</gom:speed></extensions></trkpt>
   <trkpt lat="59.3274546762" lon="34.6942184247"><ele>169.709</ele><time>2026-08-17T03:37:31.658Z</time><hdop>3.0</hdop><vdop>2.562</vdop><extensions><gom:speed>0.069</gom:speed></extensions></trkpt>
   <trkpt lat="59.3274546762" lon="34.6942182571"><ele>169.708</ele><time>2026-08-17T03:37:32.652Z</time><hdop>3.0</hdop><vdop>2.625</vdop><extensions><gom:speed>0.068</gom:speed></extensions></trkpt>
   <trkpt lat="59.3274546762" lon="34.6942182571"><ele>169.707</ele><time>2026-08-17T03:37:33.660Z</time><hdop>3.0</hdop><vdop>2.75</vdop><extensions><gom:speed>0.068</gom:speed></extensions></trkpt>
   <trkpt lat="59.3274546762" lon="34.6942182571"><ele>169.697</ele><time>2026-08-17T03:37:34.672Z</time><hdop>3.0</hdop><vdop>2.812</vdop><extensions><gom:speed>0.066</gom:speed></extensions></trkpt>
   <trkpt lat="59.3274543828" lon="34.6942179218"><ele>169.686</ele><time>2026-08-17T03:37:35.646Z</time><hdop>3.0</hdop><vdop>2.875</vdop><extensions><gom:speed>0.07</gom:speed></extensions></trkpt>
   <trkpt lat="59.3274546762" lon="34.6942181733"><ele>169.68</ele><time>2026-08-17T03:37:36.652Z</time><hdop>3.0</hdop><vdop>3.0</vdop><extensions><gom:speed>0.07</gom:speed></extensions></trkpt>
   <trkpt lat="59.3274544666" lon="34.6942176704"><ele>169.676</ele><time>2026-08-17T03:37:37.646Z</time><hdop>3.0</hdop><vdop>3.062</vdop><extensions><gom:speed>0.07</gom:speed></extensions></trkpt>
   <trkpt lat="59.3274546762" lon="34.6942177542"><ele>169.673</ele><time>2026-08-17T03:37:38.652Z</time><hdop>3.0</hdop><vdop>3.062</vdop><extensions><gom:speed>0.071</gom:speed></extensions></trkpt>
   <trkpt lat="59.3274545924" lon="34.6942172513"><ele>169.674</ele><time>2026-08-17T03:37:39.647Z</time><hdop>3.0</hdop><vdop>2.875</vdop><extensions><gom:speed>0.071</gom:speed></extensions></trkpt>
   <trkpt lat="59.3274544666" lon="34.6942170836"><ele>169.674</ele><time>2026-08-17T03:37:40.646Z</time><hdop>3.0</hdop><vdop>2.75</vdop><extensions><gom:speed>0.07</gom:speed></extensions></trkpt>
   <trkpt lat="59.3274544666" lon="34.6942169998"><ele>169.673</ele><time>2026-08-17T03:37:41.646Z</time><hdop>3.0</hdop><vdop>2.687</vdop><extensions><gom:speed>0.071</gom:speed></extensions></trkpt>
   <trkpt lat="59.3274545924" lon="34.6942168322"><ele>169.672</ele><time>2026-08-17T03:37:42.647Z</time><hdop>3.0</hdop><vdop>2.625</vdop><extensions><gom:speed>0.068</gom:speed></extensions></trkpt>
   <trkpt lat="59.3274546762" lon="34.6942170836"><ele>169.669</ele><time>2026-08-17T03:37:43.652Z</time><hdop>3.0</hdop><vdop>2.562</vdop><extensions><gom:speed>0.068</gom:speed></extensions></trkpt>
   <trkpt lat="59.3274543828" lon="34.6942166645"><ele>169.667</ele><time>2026-08-17T03:37:44.646Z</time><hdop>3.0</hdop><vdop>2.5</vdop><extensions><gom:speed>0.074</gom:speed></extensions></trkpt>
   <trkpt lat="59.327454299" lon="34.6942165807"><ele>169.832</ele><time>2026-08-17T03:37:45.646Z</time><hdop>3.0</hdop><vdop>2.5</vdop><extensions><gom:speed>0.074</gom:speed></extensions></trkpt>
   <trkpt lat="59.3274541733" lon="34.6942165807"><ele>169.962</ele><time>2026-08-17T03:37:46.646Z</time><hdop>3.0</hdop><vdop>2.5</vdop><extensions><gom:speed>0.072</gom:speed></extensions></trkpt>
   <trkpt lat="59.327454299" lon="34.6942168322"><ele>170.045</ele><time>2026-08-17T03:37:47.652Z</time><hdop>3.0</hdop><vdop>2.5</vdop><extensions><gom:speed>0.073</gom:speed></extensions></trkpt>
   <trkpt lat="59.327454299" lon="34.6942170836"><ele>170.094</ele><time>2026-08-17T03:37:48.652Z</time><hdop>3.0</hdop><vdop>2.5</vdop><extensions><gom:speed>0.073</gom:speed></extensions></trkpt>
   <trkpt lat="59.3274539637" lon="34.6942169998"><ele>170.127</ele><time>2026-08-17T03:37:49.645Z</time><hdop>3.0</hdop><vdop>2.5</vdop><extensions><gom:speed>0.076</gom:speed></extensions></trkpt>
   <trkpt lat="59.3274539637" lon="34.6942171674"><ele>170.148</ele><time>2026-08-17T03:37:50.652Z</time><hdop>3.0</hdop><vdop>2.5</vdop><extensions><gom:speed>0.077</gom:speed></extensions></trkpt>
   <trkpt lat="59.3274539637" lon="34.6942172513"><ele>170.159</ele><time>2026-08-17T03:37:51.652Z</time><hdop>3.0</hdop><vdop>2.5</vdop><extensions><gom:speed>0.074</gom:speed></extensions></trkpt>
   <trkpt lat="59.3274539637" lon="34.6942173351"><ele>170.17</ele><time>2026-08-17T03:37:52.652Z</time><hdop>3.0</hdop><vdop>2.5</vdop><extensions><gom:speed>0.073</gom:speed></extensions></trkpt>
   <trkpt lat="59.3274539637" lon="34.6942174189"><ele>170.176</ele><time>2026-08-17T03:37:53.521Z</time><hdop>3.0</hdop><vdop>2.5</vdop><extensions><gom:speed>0.072</gom:speed></extensions></trkpt>
   <trkpt lat="59.3274538799" lon="34.6942173351"><ele>169.784</ele><time>2026-08-17T03:37:54.320Z</time><hdop>3.0</hdop><vdop>2.5</vdop><extensions><gom:speed>0.126</gom:speed></extensions></trkpt>
   <trkpt lat="59.327454299" lon="34.6942173351"><ele>169.736</ele><time>2026-08-17T03:37:54.906Z</time><hdop>3.0</hdop><vdop>2.5</vdop><extensions><gom:speed>0.261</gom:speed></extensions></trkpt>
   <trkpt lat="59.3274554725" lon="34.6942184247"><ele>169.707</ele><time>2026-08-17T03:37:55.665Z</time><hdop>3.0</hdop><vdop>2.5</vdop><extensions><gom:speed>0.382</gom:speed></extensions></trkpt>
   <trkpt lat="59.3274576937" lon="34.6942202687"><ele>169.516</ele><time>2026-08-17T03:37:56.444Z</time><hdop>3.0</hdop><vdop>2.5</vdop><extensions><gom:speed>0.551</gom:speed></extensions></trkpt>
   <trkpt lat="59.3274624713" lon="34.6942212746"><ele>169.394</ele><time>2026-08-17T03:37:57.304Z</time><hdop>3.0</hdop><vdop>2.562</vdop><extensions><gom:speed>0.45</gom:speed></extensions></trkpt>
   <trkpt lat="59.3274668718" lon="34.6942202687"><ele>169.16</ele><time>2026-08-17T03:37:58.144Z</time><hdop>3.062</hdop><vdop>2.625</vdop><extensions><gom:speed>0.389</gom:speed></extensions></trkpt>
   <trkpt lat="59.327473284" lon="34.6942182571"><ele>169.223</ele><time>2026-08-17T03:37:58.646Z</time><hdop>3.062</hdop><vdop>2.687</vdop><extensions><gom:speed>0.462</gom:speed></extensions></trkpt>
   <trkpt lat="59.3274789837" lon="34.6942168322"><ele>169.261</ele><time>2026-08-17T03:37:59.682Z</time><hdop>3.062</hdop><vdop>2.687</vdop><extensions><gom:speed>0.338</gom:speed></extensions></trkpt>
   <trkpt lat="59.3274846834" lon="34.6942168322"><ele>169.068</ele><time>2026-08-17T03:38:00.300Z</time><hdop>3.062</hdop><vdop>2.687</vdop><extensions><gom:speed>0.354</gom:speed></extensions></trkpt>
   <trkpt lat="59.3274905926" lon="34.6942184247"><ele>169.208</ele><time>2026-08-17T03:38:01.017Z</time><hdop>3.062</hdop><vdop>2.687</vdop><extensions><gom:speed>0.338</gom:speed></extensions></trkpt>
   <trkpt lat="59.3274958732" lon="34.6942218613"><ele>169.189</ele><time>2026-08-17T03:38:01.645Z</time><hdop>3.062</hdop><vdop>2.812</vdop><extensions><gom:speed>0.338</gom:speed></extensions></trkpt>
   <trkpt lat="59.3274984716" lon="34.6942237891"><ele>169.741</ele><time>2026-08-17T03:38:02.656Z</time><hdop>3.0</hdop><vdop>2.812</vdop><extensions><gom:speed>0.209</gom:speed></extensions></trkpt>
   <trkpt lat="59.3275048838" lon="34.6942293212"><ele>170.071</ele><time>2026-08-17T03:38:03.648Z</time><hdop>3.0</hdop><vdop>2.812</vdop><extensions><gom:speed>0.334</gom:speed></extensions></trkpt>
   <trkpt lat="59.3275101644" lon="34.6942353562"><ele>170.383</ele><time>2026-08-17T03:38:04.164Z</time><hdop>3.0</hdop><vdop>3.0</vdop><extensions><gom:speed>0.413</gom:speed></extensions></trkpt>
   <trkpt lat="59.3275122599" lon="34.6942376193"><ele>169.893</ele><time>2026-08-17T03:38:04.652Z</time><hdop>3.0</hdop><vdop>2.937</vdop><extensions><gom:speed>0.329</gom:speed></extensions></trkpt>
   <trkpt lat="59.3275219829" lon="34.6942476776"><ele>168.956</ele><time>2026-08-17T03:38:05.647Z</time><hdop>3.0</hdop><vdop>2.812</vdop><extensions><gom:speed>0.459</gom:speed></extensions></trkpt>
   <trkpt lat="59.3275254614" lon="34.6942512818"><ele>168.396</ele><time>2026-08-17T03:38:06.501Z</time><hdop>3.0</hdop><vdop>2.812</vdop><extensions><gom:speed>0.34</gom:speed></extensions></trkpt>
   <trkpt lat="59.3275317897" lon="34.6942569815"><ele>168.01</ele><time>2026-08-17T03:38:07.219Z</time><hdop>3.0</hdop><vdop>2.812</vdop><extensions><gom:speed>0.353</gom:speed></extensions></trkpt>
   <trkpt lat="59.3275358968" lon="34.694259999"><ele>167.48</ele><time>2026-08-17T03:38:07.959Z</time><hdop>3.0</hdop><vdop>2.75</vdop><extensions><gom:speed>0.31</gom:speed></extensions></trkpt>
   <trkpt lat="59.3275391658" lon="34.6942608372"><ele>167.397</ele><time>2026-08-17T03:38:08.646Z</time><hdop>3.0</hdop><vdop>2.937</vdop><extensions><gom:speed>0.329</gom:speed></extensions></trkpt>
   <trkpt lat="59.3275462904" lon="34.6942608372"><ele>167.347</ele><time>2026-08-17T03:38:09.637Z</time><hdop>3.0</hdop><vdop>2.937</vdop><extensions><gom:speed>0.387</gom:speed></extensions></trkpt>
   <trkpt lat="59.327555259" lon="34.6942592446"><ele>167.559</ele><time>2026-08-17T03:38:10.598Z</time><hdop>3.0</hdop><vdop>2.875</vdop><extensions><gom:speed>0.403</gom:speed></extensions></trkpt>
   <trkpt lat="59.3275613778" lon="34.6942582388"><ele>167.65</ele><time>2026-08-17T03:38:11.438Z</time><hdop>3.0</hdop><vdop>2.937</vdop><extensions><gom:speed>0.371</gom:speed></extensions></trkpt>
   <trkpt lat="59.3275711846" lon="34.6942561433"><ele>167.995</ele><time>2026-08-17T03:38:12.278Z</time><hdop>3.0</hdop><vdop>3.062</vdop><extensions><gom:speed>0.409</gom:speed></extensions></trkpt>
   <trkpt lat="59.327576088" lon="34.6942535449"><ele>168.664</ele><time>2026-08-17T03:38:12.947Z</time><hdop>3.0</hdop><vdop>2.937</vdop><extensions><gom:speed>0.475</gom:speed></extensions></trkpt>
   <trkpt lat="59.3275810753" lon="34.6942476776"><ele>168.931</ele><time>2026-08-17T03:38:13.646Z</time><hdop>3.0</hdop><vdop>2.937</vdop><extensions><gom:speed>0.372</gom:speed></extensions></trkpt>
   <trkpt lat="59.3275813686" lon="34.6942406368"><ele>168.817</ele><time>2026-08-17T03:38:14.677Z</time><hdop>3.0</hdop><vdop>2.875</vdop><extensions><gom:speed>0.292</gom:speed></extensions></trkpt>
   <trkpt lat="59.3275795665" lon="34.6942397986"><ele>168.66</ele><time>2026-08-17T03:38:15.646Z</time><hdop>3.0</hdop><vdop>2.937</vdop><extensions><gom:speed>0.196</gom:speed></extensions></trkpt>
   <trkpt lat="59.3275789798" lon="34.6942420617"><ele>168.576</ele><time>2026-08-17T03:38:16.652Z</time><hdop>3.0</hdop><vdop>2.875</vdop><extensions><gom:speed>0.12</gom:speed></extensions></trkpt>
   <trkpt lat="59.3275787703" lon="34.694242397"><ele>168.526</ele><time>2026-08-17T03:38:17.205Z</time><hdop>3.0</hdop><vdop>2.875</vdop><extensions><gom:speed>0.116</gom:speed></extensions></trkpt>
   <trkpt lat="59.327578896" lon="34.6942420617"><ele>168.495</ele><time>2026-08-17T03:38:17.711Z</time><hdop>3.0</hdop><vdop>2.812</vdop><extensions><gom:speed>0.069</gom:speed></extensions></trkpt>
   <trkpt lat="59.327578896" lon="34.6942415588"><ele>168.533</ele><time>2026-08-17T03:38:18.645Z</time><hdop>3.0</hdop><vdop>2.812</vdop><extensions><gom:speed>0.143</gom:speed></extensions></trkpt>
   <trkpt lat="59.3275792732" lon="34.6942424808"><ele>168.755</ele><time>2026-08-17T03:38:19.652Z</time><hdop>3.0</hdop><vdop>2.687</vdop><extensions><gom:speed>0.079</gom:speed></extensions></trkpt>
   <trkpt lat="59.3275803628" lon="34.6942438219"><ele>168.951</ele><time>2026-08-17T03:38:20.652Z</time><hdop>3.0</hdop><vdop>2.812</vdop><extensions><gom:speed>0.092</gom:speed></extensions></trkpt>
   <trkpt lat="59.3275826678" lon="34.6942450792"><ele>169.068</ele><time>2026-08-17T03:38:21.566Z</time><hdop>3.0</hdop><vdop>2.812</vdop><extensions><gom:speed>0.166</gom:speed></extensions></trkpt>
   <trkpt lat="59.3275852662" lon="34.6942468394"><ele>169.39</ele><time>2026-08-17T03:38:22.618Z</time><hdop>3.0</hdop><vdop>2.75</vdop><extensions><gom:speed>0.19</gom:speed></extensions></trkpt>
   <trkpt lat="59.327591385" lon="34.6942478452"><ele>169.633</ele><time>2026-08-17T03:38:23.437Z</time><hdop>3.0</hdop><vdop>2.937</vdop><extensions><gom:speed>0.264</gom:speed></extensions></trkpt>
   <trkpt lat="59.3276036645" lon="34.6942393795"><ele>169.727</ele><time>2026-08-17T03:38:24.338Z</time><hdop>3.0</hdop><vdop>3.0</vdop><extensions><gom:speed>0.721</gom:speed></extensions></trkpt>
   <trkpt lat="59.3276153992" lon="34.6942206878"><ele>169.546</ele><time>2026-08-17T03:38:25.646Z</time><hdop>3.0</hdop><vdop>2.75</vdop><extensions><gom:speed>0.62</gom:speed></extensions></trkpt>
   <trkpt lat="59.3276198835" lon="34.6942142338"><ele>169.438</ele><time>2026-08-17T03:38:26.483Z</time><hdop>3.0</hdop><vdop>2.75</vdop><extensions><gom:speed>0.518</gom:speed></extensions></trkpt>
   <trkpt lat="59.3276231943" lon="34.6942080312"><ele>169.171</ele><time>2026-08-17T03:38:27.101Z</time><hdop>3.0</hdop><vdop>2.687</vdop><extensions><gom:speed>0.506</gom:speed></extensions></trkpt>
   <trkpt lat="59.3276255832" lon="34.6942010742"><ele>169.02</ele><time>2026-08-17T03:38:27.646Z</time><hdop>3.0</hdop><vdop>2.812</vdop><extensions><gom:speed>0.575</gom:speed></extensions></trkpt>
   <trkpt lat="59.327627972" lon="34.6941963803"><ele>168.929</ele><time>2026-08-17T03:38:28.334Z</time><hdop>3.0</hdop><vdop>2.812</vdop><extensions><gom:speed>0.63</gom:speed></extensions></trkpt>
   <trkpt lat="59.3276348871" lon="34.694187747"><ele>168.391</ele><time>2026-08-17T03:38:29.204Z</time><hdop>3.0</hdop><vdop>2.687</vdop><extensions><gom:speed>0.634</gom:speed></extensions></trkpt>
   <trkpt lat="59.3276389942" lon="34.6941816282"><ele>168.059</ele><time>2026-08-17T03:38:29.902Z</time><hdop>3.0</hdop><vdop>2.812</vdop><extensions><gom:speed>0.775</gom:speed></extensions></trkpt>
   <trkpt lat="59.3276445682" lon="34.6941752579"><ele>167.861</ele><time>2026-08-17T03:38:30.681Z</time><hdop>3.0</hdop><vdop>2.812</vdop><extensions><gom:speed>0.809</gom:speed></extensions></trkpt>
   <trkpt lat="59.3276496812" lon="34.6941724919"><ele>167.797</ele><time>2026-08-17T03:38:31.440Z</time><hdop>3.0</hdop><vdop>3.0</vdop><extensions><gom:speed>0.785</gom:speed></extensions></trkpt>
   <trkpt lat="59.3276531596" lon="34.6941745874"><ele>167.572</ele><time>2026-08-17T03:38:32.098Z</time><hdop>3.0</hdop><vdop>2.937</vdop><extensions><gom:speed>0.681</gom:speed></extensions></trkpt>
   <trkpt lat="59.3276564705" lon="34.6941735815"><ele>167.331</ele><time>2026-08-17T03:38:32.646Z</time><hdop>3.0</hdop><vdop>3.0</vdop><extensions><gom:speed>0.904</gom:speed></extensions></trkpt>
   <trkpt lat="59.3276632598" lon="34.6941689715"><ele>167.187</ele><time>2026-08-17T03:38:33.544Z</time><hdop>3.0</hdop><vdop>3.0</vdop><extensions><gom:speed>0.854</gom:speed></extensions></trkpt>
   <trkpt lat="59.3276703845" lon="34.6941651996"><ele>166.883</ele><time>2026-08-17T03:38:34.303Z</time><hdop>3.0</hdop><vdop>3.0</vdop><extensions><gom:speed>0.884</gom:speed></extensions></trkpt>
   <trkpt lat="59.3276727733" lon="34.6941644453"><ele>166.407</ele><time>2026-08-17T03:38:34.961Z</time><hdop>3.0</hdop><vdop>3.125</vdop><extensions><gom:speed>0.859</gom:speed></extensions></trkpt>
   <trkpt lat="59.3276755812" lon="34.6941656187"><ele>166.335</ele><time>2026-08-17T03:38:35.646Z</time><hdop>3.0</hdop><vdop>3.062</vdop><extensions><gom:speed>0.757</gom:speed></extensions></trkpt>
   <trkpt lat="59.3276803589" lon="34.694165032"><ele>166.292</ele><time>2026-08-17T03:38:36.479Z</time><hdop>3.0</hdop><vdop>3.062</vdop><extensions><gom:speed>0.748</gom:speed></extensions></trkpt>
   <trkpt lat="59.3276824963" lon="34.6941637747"><ele>165.526</ele><time>2026-08-17T03:38:37.146Z</time><hdop>3.0</hdop><vdop>3.0</vdop><extensions><gom:speed>0.805</gom:speed></extensions></trkpt>
   <trkpt lat="59.3276827897" lon="34.6941652835"><ele>164.95</ele><time>2026-08-17T03:38:37.646Z</time><hdop>3.0</hdop><vdop>3.187</vdop><extensions><gom:speed>0.668</gom:speed></extensions></trkpt>
   <trkpt lat="59.3276870644" lon="34.6941621822"><ele>164.606</ele><time>2026-08-17T03:38:38.502Z</time><hdop>3.0</hdop><vdop>3.187</vdop><extensions><gom:speed>0.74</gom:speed></extensions></trkpt>
   <trkpt lat="59.3276890761" lon="34.6941614278"><ele>164.5</ele><time>2026-08-17T03:38:39.564Z</time><hdop>3.0</hdop><vdop>3.125</vdop><extensions><gom:speed>0.735</gom:speed></extensions></trkpt>
   <trkpt lat="59.3276934766" lon="34.6941647805"><ele>164.35</ele><time>2026-08-17T03:38:40.141Z</time><hdop>3.0</hdop><vdop>3.25</vdop><extensions><gom:speed>0.669</gom:speed></extensions></trkpt>
   <trkpt lat="59.3276957816" lon="34.6941640262"><ele>164.249</ele><time>2026-08-17T03:38:40.652Z</time><hdop>3.0</hdop><vdop>3.062</vdop><extensions><gom:speed>0.572</gom:speed></extensions></trkpt>
   <trkpt lat="59.3276956978" lon="34.6941766828"><ele>164.111</ele><time>2026-08-17T03:38:41.646Z</time><hdop>3.0</hdop><vdop>3.125</vdop><extensions><gom:speed>0.343</gom:speed></extensions></trkpt>
   <trkpt lat="59.3276935604" lon="34.6941856515"><ele>164.046</ele><time>2026-08-17T03:38:42.646Z</time><hdop>3.0</hdop><vdop>3.062</vdop><extensions><gom:speed>0.192</gom:speed></extensions></trkpt>
   <trkpt lat="59.3276913811" lon="34.6941903454"><ele>164.011</ele><time>2026-08-17T03:38:43.646Z</time><hdop>3.0</hdop><vdop>3.0</vdop><extensions><gom:speed>0.114</gom:speed></extensions></trkpt>
   <trkpt lat="59.327690962" lon="34.6941909321"><ele>163.991</ele><time>2026-08-17T03:38:44.603Z</time><hdop>3.0</hdop><vdop>3.0</vdop><extensions><gom:speed>0.127</gom:speed></extensions></trkpt>
   <trkpt lat="59.3276911716" lon="34.6941941172"><ele>164.073</ele><time>2026-08-17T03:38:45.129Z</time><hdop>3.0</hdop><vdop>2.812</vdop><extensions><gom:speed>0.129</gom:speed></extensions></trkpt>
   <trkpt lat="59.3276921774" lon="34.6941948716"><ele>164.161</ele><time>2026-08-17T03:38:45.652Z</time><hdop>3.0</hdop><vdop>2.812</vdop><extensions><gom:speed>0.119</gom:speed></extensions></trkpt>
   <trkpt lat="59.3276926803" lon="34.6941962965"><ele>164.213</ele><time>2026-08-17T03:38:46.383Z</time><hdop>3.0</hdop><vdop>2.812</vdop><extensions><gom:speed>0.172</gom:speed></extensions></trkpt>
   <trkpt lat="59.3276945662" lon="34.6941972185"><ele>164.199</ele><time>2026-08-17T03:38:47.284Z</time><hdop>3.0</hdop><vdop>2.562</vdop><extensions><gom:speed>0.232</gom:speed></extensions></trkpt>
   <trkpt lat="59.327699763" lon="34.6941926923"><ele>163.902</ele><time>2026-08-17T03:38:48.002Z</time><hdop>3.0</hdop><vdop>2.625</vdop><extensions><gom:speed>0.576</gom:speed></extensions></trkpt>
   <trkpt lat="59.3277043731" lon="34.6941890881"><ele>163.912</ele><time>2026-08-17T03:38:48.670Z</time><hdop>3.0</hdop><vdop>2.625</vdop><extensions><gom:speed>0.559</gom:speed></extensions></trkpt>
   <trkpt lat="59.3277104919" lon="34.6941797842"><ele>163.68</ele><time>2026-08-17T03:38:49.652Z</time><hdop>3.0</hdop><vdop>2.625</vdop><extensions><gom:speed>0.55</gom:speed></extensions></trkpt>
   <trkpt lat="59.3277151857" lon="34.6941749226"><ele>163.238</ele><time>2026-08-17T03:38:50.652Z</time><hdop>3.062</hdop><vdop>2.75</vdop><extensions><gom:speed>0.478</gom:speed></extensions></trkpt>
   <trkpt lat="59.3277218913" lon="34.6941783592"><ele>163.158</ele><time>2026-08-17T03:38:51.646Z</time><hdop>3.062</hdop><vdop>2.812</vdop><extensions><gom:speed>0.373</gom:speed></extensions></trkpt>
   <trkpt lat="59.3277251602" lon="34.6941771858"><ele>163.179</ele><time>2026-08-17T03:38:52.652Z</time><hdop>3.062</hdop><vdop>3.0</vdop><extensions><gom:speed>0.379</gom:speed></extensions></trkpt>
   <trkpt lat="59.3277458635" lon="34.694170145"><ele>163.595</ele><time>2026-08-17T03:38:53.646Z</time><hdop>3.062</hdop><vdop>3.187</vdop><extensions><gom:speed>1.03</gom:speed></extensions></trkpt>
   <trkpt lat="59.3277537844" lon="34.6941607572"><ele>163.843</ele><time>2026-08-17T03:38:54.305Z</time><hdop>3.062</hdop><vdop>3.187</vdop><extensions><gom:speed>0.931</gom:speed></extensions></trkpt>
   <trkpt lat="59.3277583944" lon="34.6941494417"><ele>163.602</ele><time>2026-08-17T03:38:55.145Z</time><hdop>3.062</hdop><vdop>3.187</vdop><extensions><gom:speed>0.764</gom:speed></extensions></trkpt>
   <trkpt lat="59.3277605737" lon="34.6941427361"><ele>163.647</ele><time>2026-08-17T03:38:55.651Z</time><hdop>3.062</hdop><vdop>3.375</vdop><extensions><gom:speed>0.749</gom:speed></extensions></trkpt>
   <trkpt lat="59.3277675726" lon="34.6941346895"><ele>163.388</ele><time>2026-08-17T03:38:56.646Z</time><hdop>3.062</hdop><vdop>3.125</vdop><extensions><gom:speed>0.56</gom:speed></extensions></trkpt>
   <trkpt lat="59.3277693747" lon="34.6941320911"><ele>163.214</ele><time>2026-08-17T03:38:57.652Z</time><hdop>3.062</hdop><vdop>3.25</vdop><extensions><gom:speed>0.341</gom:speed></extensions></trkpt>
   <trkpt lat="59.3277708835" lon="34.6941352762"><ele>163.12</ele><time>2026-08-17T03:38:58.646Z</time><hdop>3.062</hdop><vdop>3.25</vdop><extensions><gom:speed>0.21</gom:speed></extensions></trkpt>
   <trkpt lat="59.3277706739" lon="34.6941385452"><ele>163.059</ele><time>2026-08-17T03:38:59.652Z</time><hdop>3.062</hdop><vdop>3.25</vdop><extensions><gom:speed>0.043</gom:speed></extensions></trkpt>
   <trkpt lat="59.3277728951" lon="34.6941438258"><ele>163.015</ele><time>2026-08-17T03:39:00.646Z</time><hdop>3.0</hdop><vdop>3.125</vdop><extensions><gom:speed>0.103</gom:speed></extensions></trkpt>
   <trkpt lat="59.3277723922" lon="34.6941449993"><ele>162.989</ele><time>2026-08-17T03:39:01.653Z</time><hdop>3.0</hdop><vdop>3.25</vdop><extensions><gom:speed>0.02</gom:speed></extensions></trkpt>
   <trkpt lat="59.3277727694" lon="34.6941463404"><ele>162.977</ele><time>2026-08-17T03:39:02.652Z</time><hdop>3.0</hdop><vdop>3.312</vdop><extensions><gom:speed>0.015</gom:speed></extensions></trkpt>
   <trkpt lat="59.3277732723" lon="34.6941472624"><ele>162.963</ele><time>2026-08-17T03:39:03.652Z</time><hdop>3.0</hdop><vdop>3.187</vdop><extensions><gom:speed>0.022</gom:speed></extensions></trkpt>
   <trkpt lat="59.3277735657" lon="34.6941481844"><ele>162.834</ele><time>2026-08-17T03:39:04.655Z</time><hdop>3.0</hdop><vdop>3.312</vdop><extensions><gom:speed>0.034</gom:speed></extensions></trkpt>
   <trkpt lat="59.3277737752" lon="34.6941481844"><ele>162.757</ele><time>2026-08-17T03:39:05.466Z</time><hdop>3.0</hdop><vdop>3.312</vdop><extensions><gom:speed>0.047</gom:speed></extensions></trkpt>
   <trkpt lat="59.3277738591" lon="34.6941478491"><ele>162.503</ele><time>2026-08-17T03:39:06.652Z</time><hdop>3.0</hdop><vdop>3.312</vdop><extensions><gom:speed>0.027</gom:speed></extensions></trkpt>
   <trkpt lat="59.3277735657" lon="34.694148352"><ele>162.349</ele><time>2026-08-17T03:39:07.646Z</time><hdop>3.0</hdop><vdop>3.187</vdop><extensions><gom:speed>0.092</gom:speed></extensions></trkpt>
   <trkpt lat="59.3277735657" lon="34.694148352"><ele>162.258</ele><time>2026-08-17T03:39:08.646Z</time><hdop>3.0</hdop><vdop>3.062</vdop><extensions><gom:speed>0.091</gom:speed></extensions></trkpt>
   <trkpt lat="59.3277738591" lon="34.6941486873"><ele>162.203</ele><time>2026-08-17T03:39:09.646Z</time><hdop>3.0</hdop><vdop>2.937</vdop><extensions><gom:speed>0.097</gom:speed></extensions></trkpt>
   <trkpt lat="59.3277738591" lon="34.6941496931"><ele>162.171</ele><time>2026-08-17T03:39:10.647Z</time><hdop>3.0</hdop><vdop>3.0</vdop><extensions><gom:speed>0.087</gom:speed></extensions></trkpt>
   <trkpt lat="59.3277746972" lon="34.6941493578"><ele>162.153</ele><time>2026-08-17T03:39:11.653Z</time><hdop>3.0</hdop><vdop>2.875</vdop><extensions><gom:speed>0.023</gom:speed></extensions></trkpt>
   <trkpt lat="59.3277740686" lon="34.6941488549"><ele>162.144</ele><time>2026-08-17T03:39:12.649Z</time><hdop>3.0</hdop><vdop>2.875</vdop><extensions><gom:speed>0.116</gom:speed></extensions></trkpt>
   <trkpt lat="59.3277734819" lon="34.6941500284"><ele>162.141</ele><time>2026-08-17T03:39:13.646Z</time><hdop>3.0</hdop><vdop>2.875</vdop><extensions><gom:speed>0.062</gom:speed></extensions></trkpt>
   <trkpt lat="59.3277734819" lon="34.694150196"><ele>162.137</ele><time>2026-08-17T03:39:14.646Z</time><hdop>3.0</hdop><vdop>2.812</vdop><extensions><gom:speed>0.0</gom:speed></extensions></trkpt>
   <trkpt lat="59.3277736914" lon="34.6941508666"><ele>162.135</ele><time>2026-08-17T03:39:15.646Z</time><hdop>3.0</hdop><vdop>2.812</vdop><extensions><gom:speed>0.015</gom:speed></extensions></trkpt>
   <trkpt lat="59.3277735657" lon="34.6941508666"><ele>162.134</ele><time>2026-08-17T03:39:16.594Z</time><hdop>3.0</hdop><vdop>2.812</vdop><extensions><gom:speed>0.015</gom:speed></extensions></trkpt>
   <trkpt lat="59.3277735657" lon="34.6941510342"><ele>162.132</ele><time>2026-08-17T03:39:17.647Z</time><hdop>3.0</hdop><vdop>2.937</vdop><extensions><gom:speed>0.033</gom:speed></extensions></trkpt>
   <trkpt lat="59.327773398" lon="34.6941509504"><ele>162.128</ele><time>2026-08-17T03:39:18.645Z</time><hdop>3.0</hdop><vdop>3.062</vdop><extensions><gom:speed>0.04</gom:speed></extensions></trkpt>
   <trkpt lat="59.327773398" lon="34.6941506989"><ele>162.147</ele><time>2026-08-17T03:39:19.646Z</time><hdop>3.0</hdop><vdop>3.125</vdop><extensions><gom:speed>0.239</gom:speed></extensions></trkpt>
   <trkpt lat="59.327773398" lon="34.6941477653"><ele>162.187</ele><time>2026-08-17T03:39:20.646Z</time><hdop>3.0</hdop><vdop>3.5</vdop><extensions><gom:speed>0.095</gom:speed></extensions></trkpt>
   <trkpt lat="59.3277736914" lon="34.6941472624"><ele>162.21</ele><time>2026-08-17T03:39:21.258Z</time><hdop>3.0</hdop><vdop>3.5</vdop><extensions><gom:speed>0.093</gom:speed></extensions></trkpt>
   <trkpt lat="59.327774362" lon="34.6941461727"><ele>162.929</ele><time>2026-08-17T03:39:22.158Z</time><hdop>3.0</hdop><vdop>3.312</vdop><extensions><gom:speed>0.141</gom:speed></extensions></trkpt>
   <trkpt lat="59.3277764994" lon="34.6941414789"><ele>163.251</ele><time>2026-08-17T03:39:22.664Z</time><hdop>3.0</hdop><vdop>3.5</vdop><extensions><gom:speed>0.515</gom:speed></extensions></trkpt>
   <trkpt lat="59.3277778824" lon="34.694141898"><ele>163.722</ele><time>2026-08-17T03:39:23.652Z</time><hdop>3.0</hdop><vdop>3.312</vdop><extensions><gom:speed>0.112</gom:speed></extensions></trkpt>
   <trkpt lat="59.3277829953" lon="34.6941419818"><ele>164.919</ele><time>2026-08-17T03:39:24.645Z</time><hdop>3.0</hdop><vdop>3.312</vdop><extensions><gom:speed>1.197</gom:speed></extensions></trkpt>
   <trkpt lat="59.3277912934" lon="34.6941401378"><ele>165.654</ele><time>2026-08-17T03:39:25.652Z</time><hdop>3.0</hdop><vdop>2.875</vdop><extensions><gom:speed>1.079</gom:speed></extensions></trkpt>
   <trkpt lat="59.3277947719" lon="34.694151118"><ele>165.965</ele><time>2026-08-17T03:39:26.646Z</time><hdop>3.0</hdop><vdop>2.75</vdop><extensions><gom:speed>0.496</gom:speed></extensions></trkpt>
   <trkpt lat="59.3277969931" lon="34.6941557281"><ele>166.134</ele><time>2026-08-17T03:39:27.647Z</time><hdop>3.0</hdop><vdop>2.562</vdop><extensions><gom:speed>0.344</gom:speed></extensions></trkpt>
   <trkpt lat="59.3277972865" lon="34.6941581588"><ele>166.234</ele><time>2026-08-17T03:39:28.381Z</time><hdop>3.062</hdop><vdop>2.562</vdop><extensions><gom:speed>0.253</gom:speed></extensions></trkpt>
   <trkpt lat="59.3278028604" lon="34.6941554766"><ele>166.376</ele><time>2026-08-17T03:39:29.652Z</time><hdop>3.187</hdop><vdop>2.687</vdop><extensions><gom:speed>0.152</gom:speed></extensions></trkpt>
   <trkpt lat="59.3278088954" lon="34.6941532973"><ele>166.461</ele><time>2026-08-17T03:39:30.667Z</time><hdop>3.187</hdop><vdop>2.687</vdop><extensions><gom:speed>0.108</gom:speed></extensions></trkpt>
   <trkpt lat="59.3278143856" lon="34.6941510342"><ele>166.532</ele><time>2026-08-17T03:39:31.646Z</time><hdop>3.187</hdop><vdop>2.687</vdop><extensions><gom:speed>0.134</gom:speed></extensions></trkpt>
   <trkpt lat="59.3278160619" lon="34.6941506989"><ele>166.574</ele><time>2026-08-17T03:39:32.367Z</time><hdop>3.187</hdop><vdop>2.687</vdop><extensions><gom:speed>0.118</gom:speed></extensions></trkpt>
   <trkpt lat="59.3278176964" lon="34.6941486873"><ele>166.673</ele><time>2026-08-17T03:39:32.903Z</time><hdop>3.125</hdop><vdop>2.687</vdop><extensions><gom:speed>0.083</gom:speed></extensions></trkpt>
   <trkpt lat="59.3278199595" lon="34.694145586"><ele>166.614</ele><time>2026-08-17T03:39:33.646Z</time><hdop>3.062</hdop><vdop>2.937</vdop><extensions><gom:speed>0.16</gom:speed></extensions></trkpt>
   <trkpt lat="59.3278236895" lon="34.6941424847"><ele>166.668</ele><time>2026-08-17T03:39:34.646Z</time><hdop>3.0</hdop><vdop>3.125</vdop><extensions><gom:speed>0.196</gom:speed></extensions></trkpt>
   <trkpt lat="59.3278249887" lon="34.6941415627"><ele>166.7</ele><time>2026-08-17T03:39:35.180Z</time><hdop>3.0</hdop><vdop>3.125</vdop><extensions><gom:speed>0.17</gom:speed></extensions></trkpt>
   <trkpt lat="59.3278260783" lon="34.6941419818"><ele>166.704</ele><time>2026-08-17T03:39:35.653Z</time><hdop>3.0</hdop><vdop>3.0</vdop><extensions><gom:speed>0.175</gom:speed></extensions></trkpt>
   <trkpt lat="59.3278316942" lon="34.6941392996"><ele>166.61</ele><time>2026-08-17T03:39:36.647Z</time><hdop>3.0</hdop><vdop>2.812</vdop><extensions><gom:speed>0.159</gom:speed></extensions></trkpt>
   <trkpt lat="59.3278330772" lon="34.6941392996"><ele>166.554</ele><time>2026-08-17T03:39:37.122Z</time><hdop>3.0</hdop><vdop>2.812</vdop><extensions><gom:speed>0.185</gom:speed></extensions></trkpt>
   <trkpt lat="59.3278338735" lon="34.6941397187"><ele>166.606</ele><time>2026-08-17T03:39:37.652Z</time><hdop>3.0</hdop><vdop>2.812</vdop><extensions><gom:speed>0.186</gom:speed></extensions></trkpt>
   <trkpt lat="59.3278380644" lon="34.6941397187"><ele>166.641</ele><time>2026-08-17T03:39:38.650Z</time><hdop>3.0</hdop><vdop>2.687</vdop><extensions><gom:speed>0.21</gom:speed></extensions></trkpt>
   <trkpt lat="59.3278413753" lon="34.6941394672"><ele>166.66</ele><time>2026-08-17T03:39:39.661Z</time><hdop>3.0</hdop><vdop>2.687</vdop><extensions><gom:speed>0.111</gom:speed></extensions></trkpt>
   <trkpt lat="59.3278434708" lon="34.6941400539"><ele>166.672</ele><time>2026-08-17T03:39:40.319Z</time><hdop>3.0</hdop><vdop>2.687</vdop><extensions><gom:speed>0.12</gom:speed></extensions></trkpt>
   <trkpt lat="59.3278460691" lon="34.694140473"><ele>166.608</ele><time>2026-08-17T03:39:41.098Z</time><hdop>3.0</hdop><vdop>2.812</vdop><extensions><gom:speed>0.195</gom:speed></extensions></trkpt>
   <trkpt lat="59.327847997" lon="34.6941403892"><ele>166.421</ele><time>2026-08-17T03:39:41.652Z</time><hdop>3.0</hdop><vdop>2.687</vdop><extensions><gom:speed>0.242</gom:speed></extensions></trkpt>
   <trkpt lat="59.3278522718" lon="34.6941369526"><ele>166.361</ele><time>2026-08-17T03:39:42.652Z</time><hdop>3.0</hdop><vdop>2.687</vdop><extensions><gom:speed>0.241</gom:speed></extensions></trkpt>
   <trkpt lat="59.3278546606" lon="34.6941333484"><ele>166.325</ele><time>2026-08-17T03:39:43.142Z</time><hdop>3.0</hdop><vdop>2.687</vdop><extensions><gom:speed>0.22</gom:speed></extensions></trkpt>
   <trkpt lat="59.3278579715" lon="34.6941282354"><ele>166.461</ele><time>2026-08-17T03:39:43.646Z</time><hdop>3.0</hdop><vdop>2.625</vdop><extensions><gom:speed>0.239</gom:speed></extensions></trkpt>
   <trkpt lat="59.3278601927" lon="34.6941258885"><ele>166.543</ele><time>2026-08-17T03:39:44.417Z</time><hdop>3.0</hdop><vdop>2.625</vdop><extensions><gom:speed>0.3</gom:speed></extensions></trkpt>
   <trkpt lat="59.3278679878" lon="34.6941187639"><ele>166.981</ele><time>2026-08-17T03:39:45.317Z</time><hdop>3.0</hdop><vdop>2.75</vdop><extensions><gom:speed>0.365</gom:speed></extensions></trkpt>
   <trkpt lat="59.3278755734" lon="34.6941123937"><ele>166.981</ele><time>2026-08-17T03:39:46.086Z</time><hdop>3.0</hdop><vdop>2.812</vdop><extensions><gom:speed>0.363</gom:speed></extensions></trkpt>
   <trkpt lat="59.3278806864" lon="34.6941091247"><ele>167.013</ele><time>2026-08-17T03:39:46.647Z</time><hdop>3.0</hdop><vdop>2.687</vdop><extensions><gom:speed>0.3</gom:speed></extensions></trkpt>
   <trkpt lat="59.3278852965" lon="34.6941072807"><ele>167.212</ele><time>2026-08-17T03:39:47.654Z</time><hdop>3.0</hdop><vdop>2.687</vdop><extensions><gom:speed>0.329</gom:speed></extensions></trkpt>
   <trkpt lat="59.3278897808" lon="34.6941057719"><ele>167.33</ele><time>2026-08-17T03:39:48.221Z</time><hdop>3.0</hdop><vdop>2.687</vdop><extensions><gom:speed>0.335</gom:speed></extensions></trkpt>
   <trkpt lat="59.3278976598" lon="34.6941027545"><ele>167.725</ele><time>2026-08-17T03:39:49.121Z</time><hdop>3.0</hdop><vdop>2.812</vdop><extensions><gom:speed>0.418</gom:speed></extensions></trkpt>
   <trkpt lat="59.3279010963" lon="34.6941022515"><ele>168.226</ele><time>2026-08-17T03:39:49.653Z</time><hdop>3.0</hdop><vdop>2.625</vdop><extensions><gom:speed>0.452</gom:speed></extensions></trkpt>
   <trkpt lat="59.3279098973" lon="34.6940968871"><ele>168.926</ele><time>2026-08-17T03:39:50.646Z</time><hdop>3.0</hdop><vdop>2.562</vdop><extensions><gom:speed>0.323</gom:speed></extensions></trkpt>
   <trkpt lat="59.3279134596" lon="34.6940961328"><ele>169.344</ele><time>2026-08-17T03:39:51.519Z</time><hdop>3.0</hdop><vdop>2.562</vdop><extensions><gom:speed>0.39</gom:speed></extensions></trkpt>
   <trkpt lat="59.3279294691" lon="34.6940930315"><ele>169.375</ele><time>2026-08-17T03:39:52.652Z</time><hdop>3.0</hdop><vdop>2.5</vdop><extensions><gom:speed>0.713</gom:speed></extensions></trkpt>
   <trkpt lat="59.3279442631" lon="34.6940834761"><ele>169.485</ele><time>2026-08-17T03:39:53.646Z</time><hdop>3.0</hdop><vdop>2.562</vdop><extensions><gom:speed>0.801</gom:speed></extensions></trkpt>
   <trkpt lat="59.3279534832" lon="34.6940769382"><ele>169.146</ele><time>2026-08-17T03:39:54.653Z</time><hdop>3.0</hdop><vdop>2.937</vdop><extensions><gom:speed>0.73</gom:speed></extensions></trkpt>
   <trkpt lat="59.3279588896" lon="34.6940683887"><ele>168.943</ele><time>2026-08-17T03:39:55.242Z</time><hdop>3.0</hdop><vdop>2.937</vdop><extensions><gom:speed>0.685</gom:speed></extensions></trkpt>
   <trkpt lat="59.3279649664" lon="34.6940481883"><ele>168.495</ele><time>2026-08-17T03:39:55.779Z</time><hdop>3.0</hdop><vdop>3.0</vdop><extensions><gom:speed>0.917</gom:speed></extensions></trkpt>
   <trkpt lat="59.3279672715" lon="34.6940372918"><ele>168.227</ele><time>2026-08-17T03:39:56.507Z</time><hdop>3.0</hdop><vdop>3.0</vdop><extensions><gom:speed>0.928</gom:speed></extensions></trkpt>
   <trkpt lat="59.3279680677" lon="34.6940246351"><ele>168.168</ele><time>2026-08-17T03:39:57.206Z</time><hdop>3.0</hdop><vdop>2.875</vdop><extensions><gom:speed>0.786</gom:speed></extensions></trkpt>
   <trkpt lat="59.3279696603" lon="34.6940052729"><ele>168.132</ele><time>2026-08-17T03:39:58.045Z</time><hdop>3.0</hdop><vdop>2.75</vdop><extensions><gom:speed>0.838</gom:speed></extensions></trkpt>
   <trkpt lat="59.3279720911" lon="34.6939924486"><ele>168.158</ele><time>2026-08-17T03:39:58.646Z</time><hdop>3.0</hdop><vdop>2.937</vdop><extensions><gom:speed>0.889</gom:speed></extensions></trkpt>
   <trkpt lat="59.3279759886" lon="34.6939817198"><ele>168.024</ele><time>2026-08-17T03:39:59.653Z</time><hdop>3.0</hdop><vdop>2.75</vdop><extensions><gom:speed>0.633</gom:speed></extensions></trkpt>
   <trkpt lat="59.3279767849" lon="34.6939732541"><ele>167.945</ele><time>2026-08-17T03:40:00.544Z</time><hdop>3.0</hdop><vdop>2.75</vdop><extensions><gom:speed>0.571</gom:speed></extensions></trkpt>
   <trkpt lat="59.3279797605" lon="34.6939627767"><ele>168.24</ele><time>2026-08-17T03:40:01.282Z</time><hdop>3.0</hdop><vdop>2.687</vdop><extensions><gom:speed>0.653</gom:speed></extensions></trkpt>
   <trkpt lat="59.3279820655" lon="34.6939533889"><ele>167.889</ele><time>2026-08-17T03:40:02.163Z</time><hdop>3.0</hdop><vdop>2.687</vdop><extensions><gom:speed>0.51</gom:speed></extensions></trkpt>
   <trkpt lat="59.3279837838" lon="34.6939475216"><ele>167.623</ele><time>2026-08-17T03:40:02.646Z</time><hdop>3.0</hdop><vdop>2.75</vdop><extensions><gom:speed>0.541</gom:speed></extensions></trkpt>
   <trkpt lat="59.3279848735" lon="34.6939438336"><ele>167.464</ele><time>2026-08-17T03:40:03.104Z</time><hdop>3.0</hdop><vdop>2.75</vdop><extensions><gom:speed>0.456</gom:speed></extensions></trkpt>
   <trkpt lat="59.3279862984" lon="34.6939387206"><ele>166.811</ele><time>2026-08-17T03:40:03.646Z</time><hdop>3.0</hdop><vdop>2.875</vdop><extensions><gom:speed>0.486</gom:speed></extensions></trkpt>
   <trkpt lat="59.3279895673" lon="34.6939240523"><ele>166.692</ele><time>2026-08-17T03:40:04.646Z</time><hdop>3.0</hdop><vdop>3.062</vdop><extensions><gom:speed>0.604</gom:speed></extensions></trkpt>
   <trkpt lat="59.3279902798" lon="34.6939212863"><ele>166.621</ele><time>2026-08-17T03:40:05.137Z</time><hdop>3.0</hdop><vdop>3.062</vdop><extensions><gom:speed>0.492</gom:speed></extensions></trkpt>
   <trkpt lat="59.3279913694" lon="34.6939154189"><ele>166.642</ele><time>2026-08-17T03:40:05.646Z</time><hdop>3.0</hdop><vdop>2.937</vdop><extensions><gom:speed>0.449</gom:speed></extensions></trkpt>
   <trkpt lat="59.3279926686" lon="34.6939091325"><ele>166.654</ele><time>2026-08-17T03:40:06.280Z</time><hdop>3.0</hdop><vdop>2.937</vdop><extensions><gom:speed>0.445</gom:speed></extensions></trkpt>
   <trkpt lat="59.3279934649" lon="34.6938939613"><ele>166.119</ele><time>2026-08-17T03:40:07.444Z</time><hdop>3.0</hdop><vdop>3.0</vdop><extensions><gom:speed>0.487</gom:speed></extensions></trkpt>
   <trkpt lat="59.3279923753" lon="34.6938799635"><ele>165.768</ele><time>2026-08-17T03:40:08.646Z</time><hdop>3.0</hdop><vdop>3.0</vdop><extensions><gom:speed>0.292</gom:speed></extensions></trkpt>
   <trkpt lat="59.3279919981" lon="34.6938788738"><ele>165.558</ele><time>2026-08-17T03:40:09.508Z</time><hdop>3.0</hdop><vdop>3.0</vdop><extensions><gom:speed>0.277</gom:speed></extensions></trkpt>
   <trkpt lat="59.3279912856" lon="34.693873677"><ele>165.442</ele><time>2026-08-17T03:40:10.646Z</time><hdop>3.0</hdop><vdop>3.062</vdop><extensions><gom:speed>0.126</gom:speed></extensions></trkpt>
   <trkpt lat="59.3279916628" lon="34.6938749343"><ele>165.366</ele><time>2026-08-17T03:40:11.652Z</time><hdop>3.0</hdop><vdop>3.25</vdop><extensions><gom:speed>0.061</gom:speed></extensions></trkpt>
   <trkpt lat="59.3279922914" lon="34.6938731741"><ele>165.323</ele><time>2026-08-17T03:40:12.652Z</time><hdop>3.0</hdop><vdop>3.187</vdop><extensions><gom:speed>0.059</gom:speed></extensions></trkpt>
   <trkpt lat="59.327992962" lon="34.6938707434"><ele>165.3</ele><time>2026-08-17T03:40:13.656Z</time><hdop>3.0</hdop><vdop>3.187</vdop><extensions><gom:speed>0.046</gom:speed></extensions></trkpt>
   <trkpt lat="59.3279937583" lon="34.6938680612"><ele>165.285</ele><time>2026-08-17T03:40:14.646Z</time><hdop>3.0</hdop><vdop>3.25</vdop><extensions><gom:speed>0.105</gom:speed></extensions></trkpt>
   <trkpt lat="59.3279943869" lon="34.6938669715"><ele>165.277</ele><time>2026-08-17T03:40:15.646Z</time><hdop>3.0</hdop><vdop>3.25</vdop><extensions><gom:speed>0.105</gom:speed></extensions></trkpt>
   <trkpt lat="59.3279946803" lon="34.6938665524"><ele>165.272</ele><time>2026-08-17T03:40:16.646Z</time><hdop>3.0</hdop><vdop>3.187</vdop><extensions><gom:speed>0.111</gom:speed></extensions></trkpt>
   <trkpt lat="59.3279947641" lon="34.6938674744"><ele>165.272</ele><time>2026-08-17T03:40:17.662Z</time><hdop>3.0</hdop><vdop>3.125</vdop><extensions><gom:speed>0.022</gom:speed></extensions></trkpt>
   <trkpt lat="59.3279947641" lon="34.6938674744"><ele>165.272</ele><time>2026-08-17T03:40:18.654Z</time><hdop>3.0</hdop><vdop>3.125</vdop><extensions><gom:speed>0.014</gom:speed></extensions></trkpt>
   <trkpt lat="59.3279947641" lon="34.6938670553"><ele>165.274</ele><time>2026-08-17T03:40:19.652Z</time><hdop>3.0</hdop><vdop>3.25</vdop><extensions><gom:speed>0.018</gom:speed></extensions></trkpt>
   <trkpt lat="59.3279945965" lon="34.6938668877"><ele>165.277</ele><time>2026-08-17T03:40:20.652Z</time><hdop>3.0</hdop><vdop>3.312</vdop><extensions><gom:speed>0.015</gom:speed></extensions></trkpt>
   <trkpt lat="59.3279945965" lon="34.6938664686"><ele>165.28</ele><time>2026-08-17T03:40:21.652Z</time><hdop>3.0</hdop><vdop>3.125</vdop><extensions><gom:speed>0.013</gom:speed></extensions></trkpt>
   <trkpt lat="59.3279947641" lon="34.6938663848"><ele>165.284</ele><time>2026-08-17T03:40:22.646Z</time><hdop>3.0</hdop><vdop>3.125</vdop><extensions><gom:speed>0.078</gom:speed></extensions></trkpt>
   <trkpt lat="59.3279942612" lon="34.6938667201"><ele>165.287</ele><time>2026-08-17T03:40:23.646Z</time><hdop>3.0</hdop><vdop>2.937</vdop><extensions><gom:speed>0.066</gom:speed></extensions></trkpt>
   <trkpt lat="59.3279940936" lon="34.6938669715"><ele>165.292</ele><time>2026-08-17T03:40:24.646Z</time><hdop>3.0</hdop><vdop>3.0</vdop><extensions><gom:speed>0.092</gom:speed></extensions></trkpt>
   <trkpt lat="59.3279935906" lon="34.6938677259"><ele>165.299</ele><time>2026-08-17T03:40:25.652Z</time><hdop>3.0</hdop><vdop>3.187</vdop><extensions><gom:speed>0.007</gom:speed></extensions></trkpt>
   <trkpt lat="59.3279934649" lon="34.6938678935"><ele>165.308</ele><time>2026-08-17T03:40:26.652Z</time><hdop>3.0</hdop><vdop>3.375</vdop><extensions><gom:speed>0.007</gom:speed></extensions></trkpt>
   <trkpt lat="59.3279934649" lon="34.6938677259"><ele>165.317</ele><time>2026-08-17T03:40:27.652Z</time><hdop>3.0</hdop><vdop>3.625</vdop><extensions><gom:speed>0.001</gom:speed></extensions></trkpt>
   <trkpt lat="59.3279936745" lon="34.6938676421"><ele>165.322</ele><time>2026-08-17T03:40:28.652Z</time><hdop>3.0</hdop><vdop>3.375</vdop><extensions><gom:speed>0.016</gom:speed></extensions></trkpt>
   <trkpt lat="59.327993884" lon="34.6938674744"><ele>165.322</ele><time>2026-08-17T03:40:29.662Z</time><hdop>3.0</hdop><vdop>3.125</vdop><extensions><gom:speed>0.024</gom:speed></extensions></trkpt>
   <trkpt lat="59.3279941774" lon="34.6938671392"><ele>165.322</ele><time>2026-08-17T03:40:30.652Z</time><hdop>3.0</hdop><vdop>3.125</vdop><extensions><gom:speed>0.031</gom:speed></extensions></trkpt>
   <trkpt lat="59.3279944707" lon="34.6938669715"><ele>165.322</ele><time>2026-08-17T03:40:31.652Z</time><hdop>3.0</hdop><vdop>3.187</vdop><extensions><gom:speed>0.038</gom:speed></extensions></trkpt>
   <trkpt lat="59.3279947641" lon="34.6938667201"><ele>165.322</ele><time>2026-08-17T03:40:32.657Z</time><hdop>3.0</hdop><vdop>3.187</vdop><extensions><gom:speed>0.043</gom:speed></extensions></trkpt>
   <trkpt lat="59.327995267" lon="34.6938664686"><ele>165.321</ele><time>2026-08-17T03:40:33.646Z</time><hdop>3.0</hdop><vdop>3.0</vdop><extensions><gom:speed>0.052</gom:speed></extensions></trkpt>
   <trkpt lat="59.3279955604" lon="34.6938662172"><ele>165.318</ele><time>2026-08-17T03:40:34.646Z</time><hdop>3.0</hdop><vdop>3.062</vdop><extensions><gom:speed>0.058</gom:speed></extensions></trkpt>
   <trkpt lat="59.3279959795" lon="34.6938660495"><ele>165.318</ele><time>2026-08-17T03:40:35.646Z</time><hdop>3.0</hdop><vdop>3.062</vdop><extensions><gom:speed>0.061</gom:speed></extensions></trkpt>
   <trkpt lat="59.3279963986" lon="34.6938658819"><ele>165.322</ele><time>2026-08-17T03:40:36.663Z</time><hdop>3.0</hdop><vdop>3.312</vdop><extensions><gom:speed>0.062</gom:speed></extensions></trkpt>
   <trkpt lat="59.3279967758" lon="34.6938656304"><ele>165.326</ele><time>2026-08-17T03:40:37.652Z</time><hdop>3.0</hdop><vdop>3.312</vdop><extensions><gom:speed>0.065</gom:speed></extensions></trkpt>
   <trkpt lat="59.3279969853" lon="34.6938654628"><ele>165.328</ele><time>2026-08-17T03:40:38.652Z</time><hdop>3.0</hdop><vdop>3.312</vdop><extensions><gom:speed>0.066</gom:speed></extensions></trkpt>
   <trkpt lat="59.3279971949" lon="34.6938650437"><ele>165.331</ele><time>2026-08-17T03:40:39.646Z</time><hdop>3.0</hdop><vdop>3.312</vdop><extensions><gom:speed>0.069</gom:speed></extensions></trkpt>
   <trkpt lat="59.3279973625" lon="34.6938648761"><ele>165.333</ele><time>2026-08-17T03:40:40.645Z</time><hdop>3.0</hdop><vdop>3.187</vdop><extensions><gom:speed>0.07</gom:speed></extensions></trkpt>
   <trkpt lat="59.3279976978" lon="34.6938645408"><ele>165.335</ele><time>2026-08-17T03:40:41.652Z</time><hdop>3.0</hdop><vdop>3.125</vdop><extensions><gom:speed>0.07</gom:speed></extensions></trkpt>
   <trkpt lat="59.3279978654" lon="34.6938642893"><ele>165.339</ele><time>2026-08-17T03:40:42.653Z</time><hdop>3.0</hdop><vdop>3.125</vdop><extensions><gom:speed>0.072</gom:speed></extensions></trkpt>
   <trkpt lat="59.3279977816" lon="34.6938638702"><ele>165.345</ele><time>2026-08-17T03:40:43.645Z</time><hdop>3.0</hdop><vdop>3.062</vdop><extensions><gom:speed>0.077</gom:speed></extensions></trkpt>
   <trkpt lat="59.3279979911" lon="34.6938634511"><ele>165.35</ele><time>2026-08-17T03:40:44.646Z</time><hdop>3.0</hdop><vdop>3.062</vdop><extensions><gom:speed>0.076</gom:speed></extensions></trkpt>
   <trkpt lat="59.3279979911" lon="34.6938631997"><ele>165.353</ele><time>2026-08-17T03:40:45.646Z</time><hdop>3.0</hdop><vdop>3.0</vdop><extensions><gom:speed>0.075</gom:speed></extensions></trkpt>
   <trkpt lat="59.3279982845" lon="34.6938628644"><ele>165.355</ele><time>2026-08-17T03:40:46.659Z</time><hdop>3.0</hdop><vdop>2.812</vdop><extensions><gom:speed>0.075</gom:speed></extensions></trkpt>
   <trkpt lat="59.3279982845" lon="34.6938625291"><ele>165.355</ele><time>2026-08-17T03:40:47.647Z</time><hdop>3.0</hdop><vdop>2.75</vdop><extensions><gom:speed>0.078</gom:speed></extensions></trkpt>
   <trkpt lat="59.3279984941" lon="34.6938622777"><ele>165.355</ele><time>2026-08-17T03:40:48.601Z</time><hdop>3.0</hdop><vdop>2.75</vdop><extensions><gom:speed>0.078</gom:speed></extensions></trkpt>
   <trkpt lat="59.3279985779" lon="34.6938620262"><ele>165.355</ele><time>2026-08-17T03:40:49.633Z</time><hdop>3.0</hdop><vdop>2.875</vdop><extensions><gom:speed>0.073</gom:speed></extensions></trkpt>
   <trkpt lat="59.3279986617" lon="34.6938615233"><ele>165.354</ele><time>2026-08-17T03:40:50.653Z</time><hdop>3.0</hdop><vdop>3.0</vdop><extensions><gom:speed>0.071</gom:speed></extensions></trkpt>
   <trkpt lat="59.3279982845" lon="34.6938610204"><ele>165.506</ele><time>2026-08-17T03:40:51.646Z</time><hdop>3.0</hdop><vdop>2.5</vdop><extensions><gom:speed>0.118</gom:speed></extensions></trkpt>
   <trkpt lat="59.3279982845" lon="34.693860266"><ele>165.598</ele><time>2026-08-17T03:40:52.645Z</time><hdop>3.0</hdop><vdop>2.625</vdop><extensions><gom:speed>0.098</gom:speed></extensions></trkpt>
   <trkpt lat="59.3279985779" lon="34.6938597631"><ele>165.651</ele><time>2026-08-17T03:40:53.652Z</time><hdop>3.0</hdop><vdop>2.625</vdop><extensions><gom:speed>0.097</gom:speed></extensions></trkpt>
   <trkpt lat="59.327997572" lon="34.6938589249"><ele>165.683</ele><time>2026-08-17T03:40:54.647Z</time><hdop>3.0</hdop><vdop>2.625</vdop><extensions><gom:speed>0.071</gom:speed></extensions></trkpt>
   <trkpt lat="59.3279974882" lon="34.6938586734"><ele>165.702</ele><time>2026-08-17T03:40:55.652Z</time><hdop>3.0</hdop><vdop>2.562</vdop><extensions><gom:speed>0.071</gom:speed></extensions></trkpt>
   <trkpt lat="59.3279966919" lon="34.6938579191"><ele>165.713</ele><time>2026-08-17T03:40:56.646Z</time><hdop>3.0</hdop><vdop>2.687</vdop><extensions><gom:speed>0.063</gom:speed></extensions></trkpt>
   <trkpt lat="59.3279966919" lon="34.6938577514"><ele>165.72</ele><time>2026-08-17T03:40:57.646Z</time><hdop>3.0</hdop><vdop>2.5</vdop><extensions><gom:speed>0.063</gom:speed></extensions></trkpt>
   <trkpt lat="59.3279960633" lon="34.6938573323"><ele>165.726</ele><time>2026-08-17T03:40:58.645Z</time><hdop>3.0</hdop><vdop>2.5</vdop><extensions><gom:speed>0.067</gom:speed></extensions></trkpt>
   <trkpt lat="59.3279960633" lon="34.6938570809"><ele>165.73</ele><time>2026-08-17T03:40:59.652Z</time><hdop>3.0</hdop><vdop>2.5</vdop><extensions><gom:speed>0.067</gom:speed></extensions></trkpt>
   <trkpt lat="59.3279959795" lon="34.6938566618"><ele>165.731</ele><time>2026-08-17T03:41:00.652Z</time><hdop>3.0</hdop><vdop>2.5</vdop><extensions><gom:speed>0.068</gom:speed></extensions></trkpt>
   <trkpt lat="59.3279957699" lon="34.6938560751"><ele>165.731</ele><time>2026-08-17T03:41:01.653Z</time><hdop>3.0</hdop><vdop>2.5</vdop><extensions><gom:speed>0.126</gom:speed></extensions></trkpt>
   <trkpt lat="59.3279957699" lon="34.6938555721"><ele>165.732</ele><time>2026-08-17T03:41:02.652Z</time><hdop>3.0</hdop><vdop>2.5</vdop><extensions><gom:speed>0.098</gom:speed></extensions></trkpt>
   <trkpt lat="59.3279953928" lon="34.6938547339"><ele>165.734</ele><time>2026-08-17T03:41:03.652Z</time><hdop>3.0</hdop><vdop>2.5</vdop><extensions><gom:speed>0.085</gom:speed></extensions></trkpt>
   <trkpt lat="59.3279945965" lon="34.6938538958"><ele>165.738</ele><time>2026-08-17T03:41:04.646Z</time><hdop>3.0</hdop><vdop>2.5</vdop><extensions><gom:speed>0.075</gom:speed></extensions></trkpt>
   <trkpt lat="59.3279940936" lon="34.6938531414"><ele>165.743</ele><time>2026-08-17T03:41:05.646Z</time><hdop>3.0</hdop><vdop>2.5</vdop><extensions><gom:speed>0.071</gom:speed></extensions></trkpt>
   <trkpt lat="59.3279939678" lon="34.6938527223"><ele>165.747</ele><time>2026-08-17T03:41:06.652Z</time><hdop>3.0</hdop><vdop>2.5</vdop><extensions><gom:speed>0.071</gom:speed></extensions></trkpt>
   <trkpt lat="59.3279935906" lon="34.6938520517"><ele>165.75</ele><time>2026-08-17T03:41:07.646Z</time><hdop>3.0</hdop><vdop>2.5</vdop><extensions><gom:speed>0.07</gom:speed></extensions></trkpt>
   <trkpt lat="59.3279935906" lon="34.6938516326"><ele>165.753</ele><time>2026-08-17T03:41:08.653Z</time><hdop>3.0</hdop><vdop>2.5</vdop><extensions><gom:speed>0.071</gom:speed></extensions></trkpt>
   <trkpt lat="59.3279934649" lon="34.6938510459"><ele>165.752</ele><time>2026-08-17T03:41:09.652Z</time><hdop>3.0</hdop><vdop>2.5</vdop><extensions><gom:speed>0.071</gom:speed></extensions></trkpt>
   <trkpt lat="59.3279933811" lon="34.693850543"><ele>165.752</ele><time>2026-08-17T03:41:10.652Z</time><hdop>3.0</hdop><vdop>2.5</vdop><extensions><gom:speed>0.071</gom:speed></extensions></trkpt>
   <trkpt lat="59.3279932973" lon="34.6938500401"><ele>165.753</ele><time>2026-08-17T03:41:11.649Z</time><hdop>3.0</hdop><vdop>2.5</vdop><extensions><gom:speed>0.071</gom:speed></extensions></trkpt>
   <trkpt lat="59.3279931715" lon="34.6938495372"><ele>165.755</ele><time>2026-08-17T03:41:12.652Z</time><hdop>3.0</hdop><vdop>2.5</vdop><extensions><gom:speed>0.07</gom:speed></extensions></trkpt>
   <trkpt lat="59.3279930877" lon="34.6938491181"><ele>165.757</ele><time>2026-08-17T03:41:13.652Z</time><hdop>3.0</hdop><vdop>2.5</vdop><extensions><gom:speed>0.07</gom:speed></extensions></trkpt>
   <trkpt lat="59.3279927944" lon="34.6938489504"><ele>165.759</ele><time>2026-08-17T03:41:14.645Z</time><hdop>3.0</hdop><vdop>2.5</vdop><extensions><gom:speed>0.068</gom:speed></extensions></trkpt>
   <trkpt lat="59.3279928782" lon="34.693848699"><ele>165.763</ele><time>2026-08-17T03:41:15.655Z</time><hdop>3.0</hdop><vdop>2.5</vdop><extensions><gom:speed>0.068</gom:speed></extensions></trkpt>
   <trkpt lat="59.3279925848" lon="34.6938483637"><ele>165.769</ele><time>2026-08-17T03:41:16.646Z</time><hdop>3.0</hdop><vdop>2.5</vdop><extensions><gom:speed>0.066</gom:speed></extensions></trkpt>
   <trkpt lat="59.3279924591" lon="34.6938481961"><ele>165.776</ele><time>2026-08-17T03:41:17.652Z</time><hdop>3.0</hdop><vdop>2.5</vdop><extensions><gom:speed>0.066</gom:speed></extensions></trkpt>
   <trkpt lat="59.3279922914" lon="34.693847777"><ele>165.781</ele><time>2026-08-17T03:41:18.646Z</time><hdop>3.0</hdop><vdop>2.5</vdop><extensions><gom:speed>0.068</gom:speed></extensions></trkpt>
   <trkpt lat="59.3279922914" lon="34.6938473579"><ele>165.787</ele><time>2026-08-17T03:41:19.652Z</time><hdop>3.0</hdop><vdop>2.5</vdop><extensions><gom:speed>0.068</gom:speed></extensions></trkpt>
   <trkpt lat="59.3279922914" lon="34.6938471902"><ele>165.792</ele><time>2026-08-17T03:41:20.652Z</time><hdop>3.0</hdop><vdop>2.625</vdop><extensions><gom:speed>0.069</gom:speed></extensions></trkpt>
   <trkpt lat="59.3279922914" lon="34.6938469388"><ele>165.798</ele><time>2026-08-17T03:41:21.666Z</time><hdop>3.0</hdop><vdop>2.75</vdop><extensions><gom:speed>0.069</gom:speed></extensions></trkpt>
   <trkpt lat="59.3279921657" lon="34.6938467711"><ele>165.805</ele><time>2026-08-17T03:41:22.652Z</time><hdop>3.0</hdop><vdop>2.75</vdop><extensions><gom:speed>0.068</gom:speed></extensions></trkpt>
   <trkpt lat="59.3279920819" lon="34.6938465197"><ele>165.81</ele><time>2026-08-17T03:41:23.653Z</time><hdop>3.0</hdop><vdop>2.75</vdop><extensions><gom:speed>0.069</gom:speed></extensions></trkpt>
   <trkpt lat="59.3279917885" lon="34.6938462682"><ele>165.813</ele><time>2026-08-17T03:41:24.646Z</time><hdop>3.0</hdop><vdop>2.562</vdop><extensions><gom:speed>0.069</gom:speed></extensions></trkpt>
   <trkpt lat="59.3279916628" lon="34.6938458491"><ele>165.815</ele><time>2026-08-17T03:41:25.651Z</time><hdop>3.0</hdop><vdop>2.5</vdop><extensions><gom:speed>0.069</gom:speed></extensions></trkpt>
   <trkpt lat="59.327991579" lon="34.6938457653"><ele>165.816</ele><time>2026-08-17T03:41:26.663Z</time><hdop>3.0</hdop><vdop>2.5</vdop><extensions><gom:speed>0.07</gom:speed></extensions></trkpt>
   <trkpt lat="59.3279913694" lon="34.6938457653"><ele>165.818</ele><time>2026-08-17T03:41:27.646Z</time><hdop>3.0</hdop><vdop>2.5</vdop><extensions><gom:speed>0.071</gom:speed></extensions></trkpt>
   <trkpt lat="59.3279912856" lon="34.69384543"><ele>165.82</ele><time>2026-08-17T03:41:28.646Z</time><hdop>3.0</hdop><vdop>2.5</vdop><extensions><gom:speed>0.072</gom:speed></extensions></trkpt>
   <trkpt lat="59.3279912856" lon="34.6938450948"><ele>165.822</ele><time>2026-08-17T03:41:29.658Z</time><hdop>3.0</hdop><vdop>2.5</vdop><extensions><gom:speed>0.072</gom:speed></extensions></trkpt>
   <trkpt lat="59.3279911599" lon="34.6938447595"><ele>165.826</ele><time>2026-08-17T03:41:30.652Z</time><hdop>3.0</hdop><vdop>2.5</vdop><extensions><gom:speed>0.071</gom:speed></extensions></trkpt>
   <trkpt lat="59.3279910761" lon="34.6938444242"><ele>165.832</ele><time>2026-08-17T03:41:31.661Z</time><hdop>3.0</hdop><vdop>2.812</vdop><extensions><gom:speed>0.072</gom:speed></extensions></trkpt>
   <trkpt lat="59.3279908665" lon="34.6938440889"><ele>165.835</ele><time>2026-08-17T03:41:32.652Z</time><hdop>3.0</hdop><vdop>2.812</vdop><extensions><gom:speed>0.072</gom:speed></extensions></trkpt>
   <trkpt lat="59.3279905732" lon="34.6938436698"><ele>165.838</ele><time>2026-08-17T03:41:33.646Z</time><hdop>3.0</hdop><vdop>2.687</vdop><extensions><gom:speed>0.068</gom:speed></extensions></trkpt>
   <trkpt lat="59.3279904893" lon="34.6938434184"><ele>165.846</ele><time>2026-08-17T03:41:34.656Z</time><hdop>3.0</hdop><vdop>2.5</vdop><extensions><gom:speed>0.068</gom:speed></extensions></trkpt>
   <trkpt lat="59.3279903636" lon="34.6938431669"><ele>165.857</ele><time>2026-08-17T03:41:35.652Z</time><hdop>3.0</hdop><vdop>2.562</vdop><extensions><gom:speed>0.067</gom:speed></extensions></trkpt>
   <trkpt lat="59.3279902798" lon="34.6938428316"><ele>165.863</ele><time>2026-08-17T03:41:36.652Z</time><hdop>3.0</hdop><vdop>2.812</vdop><extensions><gom:speed>0.068</gom:speed></extensions></trkpt>
   <trkpt lat="59.3279902798" lon="34.6938427478"><ele>165.873</ele><time>2026-08-17T03:41:37.653Z</time><hdop>3.0</hdop><vdop>2.75</vdop><extensions><gom:speed>0.071</gom:speed></extensions></trkpt>
   <trkpt lat="59.3279902798" lon="34.6938430831"><ele>165.887</ele><time>2026-08-17T03:41:38.645Z</time><hdop>3.0</hdop><vdop>2.812</vdop><extensions><gom:speed>0.072</gom:speed></extensions></trkpt>
   <trkpt lat="59.3279904893" lon="34.6938431669"><ele>165.9</ele><time>2026-08-17T03:41:39.654Z</time><hdop>3.0</hdop><vdop>2.937</vdop><extensions><gom:speed>0.073</gom:speed></extensions></trkpt>
   <trkpt lat="59.3279904893" lon="34.6938433346"><ele>165.914</ele><time>2026-08-17T03:41:40.646Z</time><hdop>3.0</hdop><vdop>3.0</vdop><extensions><gom:speed>0.075</gom:speed></extensions></trkpt>
   <trkpt lat="59.3279906989" lon="34.6938433346"><ele>165.935</ele><time>2026-08-17T03:41:41.652Z</time><hdop>3.0</hdop><vdop>3.062</vdop><extensions><gom:speed>0.076</gom:speed></extensions></trkpt>
   <trkpt lat="59.3279907827" lon="34.693843586"><ele>165.959</ele><time>2026-08-17T03:41:42.646Z</time><hdop>3.0</hdop><vdop>3.187</vdop><extensions><gom:speed>0.077</gom:speed></extensions></trkpt>
   <trkpt lat="59.3279909923" lon="34.6938440889"><ele>166.024</ele><time>2026-08-17T03:41:43.646Z</time><hdop>3.0</hdop><vdop>3.062</vdop><extensions><gom:speed>0.308</gom:speed></extensions></trkpt>
   <trkpt lat="59.3279920819" lon="34.6938443404"><ele>166.323</ele><time>2026-08-17T03:41:44.652Z</time><hdop>3.0</hdop><vdop>3.0</vdop><extensions><gom:speed>0.334</gom:speed></extensions></trkpt>
   <trkpt lat="59.3279927944" lon="34.6938467711"><ele>166.532</ele><time>2026-08-17T03:41:45.646Z</time><hdop>3.0</hdop><vdop>3.187</vdop><extensions><gom:speed>0.239</gom:speed></extensions></trkpt>
   <trkpt lat="59.3279928782" lon="34.6938482799"><ele>166.69</ele><time>2026-08-17T03:41:46.652Z</time><hdop>3.0</hdop><vdop>3.062</vdop><extensions><gom:speed>0.232</gom:speed></extensions></trkpt>
   <trkpt lat="59.3279932973" lon="34.693851465"><ele>166.771</ele><time>2026-08-17T03:41:47.645Z</time><hdop>3.0</hdop><vdop>3.125</vdop><extensions><gom:speed>0.08</gom:speed></extensions></trkpt>
   <trkpt lat="59.3279931715" lon="34.693852387"><ele>166.777</ele><time>2026-08-17T03:41:48.652Z</time><hdop>3.0</hdop><vdop>3.125</vdop><extensions><gom:speed>0.079</gom:speed></extensions></trkpt>
   <trkpt lat="59.3279933811" lon="34.6938546501"><ele>166.78</ele><time>2026-08-17T03:41:49.645Z</time><hdop>3.0</hdop><vdop>3.125</vdop><extensions><gom:speed>0.072</gom:speed></extensions></trkpt>
   <trkpt lat="59.3279933811" lon="34.693855656"><ele>166.783</ele><time>2026-08-17T03:41:50.652Z</time><hdop>3.0</hdop><vdop>2.937</vdop><extensions><gom:speed>0.072</gom:speed></extensions></trkpt>
   <trkpt lat="59.3279934649" lon="34.6938569971"><ele>166.784</ele><time>2026-08-17T03:41:51.652Z</time><hdop>3.0</hdop><vdop>2.812</vdop><extensions><gom:speed>0.068</gom:speed></extensions></trkpt>
   <trkpt lat="59.3279933811" lon="34.6938579191"><ele>166.784</ele><time>2026-08-17T03:41:52.652Z</time><hdop>3.0</hdop><vdop>2.75</vdop><extensions><gom:speed>0.068</gom:speed></extensions></trkpt>
   <trkpt lat="59.3279932973" lon="34.6938588411"><ele>166.791</ele><time>2026-08-17T03:41:53.656Z</time><hdop>3.0</hdop><vdop>2.75</vdop><extensions><gom:speed>0.068</gom:speed></extensions></trkpt>
   <trkpt lat="59.3279931715" lon="34.6938595955"><ele>166.803</ele><time>2026-08-17T03:41:54.652Z</time><hdop>3.0</hdop><vdop>2.75</vdop><extensions><gom:speed>0.068</gom:speed></extensions></trkpt>
   <trkpt lat="59.3279932973" lon="34.6938603498"><ele>166.818</ele><time>2026-08-17T03:41:55.646Z</time><hdop>3.0</hdop><vdop>2.562</vdop><extensions><gom:speed>0.064</gom:speed></extensions></trkpt>
   <trkpt lat="59.3279932973" lon="34.693861188"><ele>166.866</ele><time>2026-08-17T03:41:56.646Z</time><hdop>3.0</hdop><vdop>2.687</vdop><extensions><gom:speed>0.328</gom:speed></extensions></trkpt>
   <trkpt lat="59.327991579" lon="34.6938627806"><ele>166.895</ele><time>2026-08-17T03:41:57.522Z</time><hdop>3.0</hdop><vdop>2.687</vdop><extensions><gom:speed>0.407</gom:speed></extensions></trkpt>
   <trkpt lat="59.3279871785" lon="34.6938689832"><ele>166.861</ele><time>2026-08-17T03:41:58.301Z</time><hdop>3.062</hdop><vdop>2.75</vdop><extensions><gom:speed>0.777</gom:speed></extensions></trkpt>
   <trkpt lat="59.3279822751" lon="34.6938773651"><ele>167.053</ele><time>2026-08-17T03:41:58.927Z</time><hdop>3.375</hdop><vdop>2.625</vdop><extensions><gom:speed>0.154</gom:speed></extensions></trkpt>
   <trkpt lat="59.3279783775" lon="34.6938838192"><ele>167.261</ele><time>2026-08-17T03:41:59.645Z</time><hdop>3.437</hdop><vdop>2.562</vdop><extensions><gom:speed>0.124</gom:speed></extensions></trkpt>
   <trkpt lat="59.3279767849" lon="34.6938849926"><ele>167.679</ele><time>2026-08-17T03:42:00.652Z</time><hdop>3.5</hdop><vdop>2.687</vdop><extensions><gom:speed>0.071</gom:speed></extensions></trkpt>
   <trkpt lat="59.3279718815" lon="34.6938872557"><ele>167.918</ele><time>2026-08-17T03:42:01.645Z</time><hdop>3.5</hdop><vdop>2.625</vdop><extensions><gom:speed>0.093</gom:speed></extensions></trkpt>
   <trkpt lat="59.3279695765" lon="34.6938878425"><ele>168.05</ele><time>2026-08-17T03:42:02.646Z</time><hdop>3.687</hdop><vdop>2.75</vdop><extensions><gom:speed>0.067</gom:speed></extensions></trkpt>
   <trkpt lat="59.3279693669" lon="34.6938878425"><ele>168.118</ele><time>2026-08-17T03:42:03.652Z</time><hdop>3.625</hdop><vdop>2.75</vdop><extensions><gom:speed>0.012</gom:speed></extensions></trkpt>
   <trkpt lat="59.3279677744" lon="34.6938893512"><ele>168.148</ele><time>2026-08-17T03:42:04.647Z</time><hdop>3.062</hdop><vdop>2.625</vdop><extensions><gom:speed>0.053</gom:speed></extensions></trkpt>
   <trkpt lat="59.3279676906" lon="34.693890357"><ele>168.157</ele><time>2026-08-17T03:42:05.652Z</time><hdop>3.0</hdop><vdop>2.625</vdop><extensions><gom:speed>0.012</gom:speed></extensions></trkpt>
   <trkpt lat="59.3279662656" lon="34.6938911952"><ele>168.157</ele><time>2026-08-17T03:42:06.646Z</time><hdop>3.0</hdop><vdop>2.5</vdop><extensions><gom:speed>0.053</gom:speed></extensions></trkpt>
   <trkpt lat="59.3279656789" lon="34.6938919496"><ele>168.039</ele><time>2026-08-17T03:42:07.652Z</time><hdop>3.0</hdop><vdop>2.5</vdop><extensions><gom:speed>0.018</gom:speed></extensions></trkpt>
   <trkpt lat="59.3279641702" lon="34.6938933745"><ele>167.977</ele><time>2026-08-17T03:42:08.646Z</time><hdop>3.0</hdop><vdop>2.687</vdop><extensions><gom:speed>0.097</gom:speed></extensions></trkpt>
   <trkpt lat="59.3279631643" lon="34.6938930392"><ele>167.935</ele><time>2026-08-17T03:42:09.652Z</time><hdop>3.0</hdop><vdop>2.812</vdop><extensions><gom:speed>0.051</gom:speed></extensions></trkpt>
   <trkpt lat="59.3279627871" lon="34.6938939613"><ele>167.649</ele><time>2026-08-17T03:42:10.653Z</time><hdop>3.0</hdop><vdop>2.875</vdop><extensions><gom:speed>0.05</gom:speed></extensions></trkpt>
   <trkpt lat="59.3279620747" lon="34.6938953862"><ele>167.478</ele><time>2026-08-17T03:42:11.665Z</time><hdop>3.0</hdop><vdop>3.062</vdop><extensions><gom:speed>0.035</gom:speed></extensions></trkpt>
   <trkpt lat="59.3279615718" lon="34.6938973978"><ele>167.373</ele><time>2026-08-17T03:42:12.652Z</time><hdop>3.0</hdop><vdop>3.125</vdop><extensions><gom:speed>0.032</gom:speed></extensions></trkpt>
   <trkpt lat="59.3279610689" lon="34.693900583"><ele>167.305</ele><time>2026-08-17T03:42:13.646Z</time><hdop>3.0</hdop><vdop>3.125</vdop><extensions><gom:speed>0.079</gom:speed></extensions></trkpt>
   <trkpt lat="59.3279618651" lon="34.6939026784"><ele>167.264</ele><time>2026-08-17T03:42:14.652Z</time><hdop>3.0</hdop><vdop>3.187</vdop><extensions><gom:speed>0.02</gom:speed></extensions></trkpt>
   <trkpt lat="59.3279616975" lon="34.6939044386"><ele>167.239</ele><time>2026-08-17T03:42:15.307Z</time><hdop>3.0</hdop><vdop>3.187</vdop><extensions><gom:speed>0.069</gom:speed></extensions></trkpt>
   <trkpt lat="59.3279613622" lon="34.6939062827"><ele>167.224</ele><time>2026-08-17T03:42:16.167Z</time><hdop>3.0</hdop><vdop>3.062</vdop><extensions><gom:speed>0.075</gom:speed></extensions></trkpt>
   <trkpt lat="59.3279613622" lon="34.693907037"><ele>167.214</ele><time>2026-08-17T03:42:16.652Z</time><hdop>3.0</hdop><vdop>2.875</vdop><extensions><gom:speed>0.029</gom:speed></extensions></trkpt>
   <trkpt lat="59.3279610689" lon="34.6939076238"><ele>167.208</ele><time>2026-08-17T03:42:17.652Z</time><hdop>3.0</hdop><vdop>2.562</vdop><extensions><gom:speed>0.036</gom:speed></extensions></trkpt>
   <trkpt lat="59.3279604821" lon="34.6939078752"><ele>167.205</ele><time>2026-08-17T03:42:18.666Z</time><hdop>3.0</hdop><vdop>2.5</vdop><extensions><gom:speed>0.052</gom:speed></extensions></trkpt>
   <trkpt lat="59.3279596858" lon="34.6939080429"><ele>167.203</ele><time>2026-08-17T03:42:19.445Z</time><hdop>3.0</hdop><vdop>2.5</vdop><extensions><gom:speed>0.095</gom:speed></extensions></trkpt>
   <trkpt lat="59.3279593925" lon="34.6939082943"><ele>167.201</ele><time>2026-08-17T03:42:20.264Z</time><hdop>3.0</hdop><vdop>2.5</vdop><extensions><gom:speed>0.09</gom:speed></extensions></trkpt>
   <trkpt lat="59.32795868" lon="34.6939085458"><ele>166.811</ele><time>2026-08-17T03:42:21.226Z</time><hdop>3.0</hdop><vdop>2.5</vdop><extensions><gom:speed>0.107</gom:speed></extensions></trkpt>
   <trkpt lat="59.3279575904" lon="34.6939094678"><ele>166.56</ele><time>2026-08-17T03:42:22.045Z</time><hdop>3.0</hdop><vdop>2.5</vdop><extensions><gom:speed>0.109</gom:speed></extensions></trkpt>
   <trkpt lat="59.3279568779" lon="34.6939091325"><ele>166.407</ele><time>2026-08-17T03:42:22.652Z</time><hdop>3.0</hdop><vdop>2.5</vdop><extensions><gom:speed>0.119</gom:speed></extensions></trkpt>
   <trkpt lat="59.3279545729" lon="34.6939115633"><ele>166.314</ele><time>2026-08-17T03:42:23.646Z</time><hdop>3.0</hdop><vdop>2.5</vdop><extensions><gom:speed>0.144</gom:speed></extensions></trkpt>
   <trkpt lat="59.3279532737" lon="34.6939118985"><ele>166.047</ele><time>2026-08-17T03:42:24.652Z</time><hdop>3.0</hdop><vdop>2.5</vdop><extensions><gom:speed>0.08</gom:speed></extensions></trkpt>
   <trkpt lat="59.327952184" lon="34.6939135749"><ele>165.888</ele><time>2026-08-17T03:42:25.242Z</time><hdop>3.0</hdop><vdop>2.5</vdop><extensions><gom:speed>0.13</gom:speed></extensions></trkpt>
   <trkpt lat="59.3279500886" lon="34.6939160895"><ele>165.544</ele><time>2026-08-17T03:42:26.618Z</time><hdop>3.0</hdop><vdop>2.5</vdop><extensions><gom:speed>0.166</gom:speed></extensions></trkpt>
   <trkpt lat="59.3279468615" lon="34.6939225435"><ele>164.967</ele><time>2026-08-17T03:42:27.438Z</time><hdop>3.0</hdop><vdop>2.5</vdop><extensions><gom:speed>0.165</gom:speed></extensions></trkpt>
   <trkpt lat="59.327943383" lon="34.6939311769"><ele>164.631</ele><time>2026-08-17T03:42:28.146Z</time><hdop>3.0</hdop><vdop>2.875</vdop><extensions><gom:speed>0.215</gom:speed></extensions></trkpt>
   <trkpt lat="59.3279417905" lon="34.6939342782"><ele>164.459</ele><time>2026-08-17T03:42:28.652Z</time><hdop>3.0</hdop><vdop>3.0</vdop><extensions><gom:speed>0.213</gom:speed></extensions></trkpt>
   <trkpt lat="59.3279374738" lon="34.69395012"><ele>164.356</ele><time>2026-08-17T03:42:29.623Z</time><hdop>3.0</hdop><vdop>3.0</vdop><extensions><gom:speed>0.267</gom:speed></extensions></trkpt>
   <trkpt lat="59.3279346659" lon="34.6939644531"><ele>164.346</ele><time>2026-08-17T03:42:30.341Z</time><hdop>3.0</hdop><vdop>3.187</vdop><extensions><gom:speed>0.29</gom:speed></extensions></trkpt>
   <trkpt lat="59.3279330733" lon="34.6939784508"><ele>164.16</ele><time>2026-08-17T03:42:30.999Z</time><hdop>3.0</hdop><vdop>3.187</vdop><extensions><gom:speed>0.305</gom:speed></extensions></trkpt>
   <trkpt lat="59.3279321932" lon="34.6939858269"><ele>164.049</ele><time>2026-08-17T03:42:31.717Z</time><hdop>3.0</hdop><vdop>3.187</vdop><extensions><gom:speed>0.279</gom:speed></extensions></trkpt>
   <trkpt lat="59.3279300977" lon="34.6940018363"><ele>164.011</ele><time>2026-08-17T03:42:32.658Z</time><hdop>3.0</hdop><vdop>3.437</vdop><extensions><gom:speed>0.38</gom:speed></extensions></trkpt>
   <trkpt lat="59.3279296786" lon="34.6940167561"><ele>163.728</ele><time>2026-08-17T03:42:33.437Z</time><hdop>3.0</hdop><vdop>3.625</vdop><extensions><gom:speed>0.402</gom:speed></extensions></trkpt>
   <trkpt lat="59.3279302654" lon="34.6940391358"><ele>163.664</ele><time>2026-08-17T03:42:34.246Z</time><hdop>3.0</hdop><vdop>3.5</vdop><extensions><gom:speed>0.395</gom:speed></extensions></trkpt>
   <trkpt lat="59.3279300977" lon="34.6940568216"><ele>163.668</ele><time>2026-08-17T03:42:35.086Z</time><hdop>3.0</hdop><vdop>3.562</vdop><extensions><gom:speed>0.454</gom:speed></extensions></trkpt>
   <trkpt lat="59.3279291757" lon="34.6940611802"><ele>163.924</ele><time>2026-08-17T03:42:35.652Z</time><hdop>3.0</hdop><vdop>3.687</vdop><extensions><gom:speed>0.436</gom:speed></extensions></trkpt>
   <trkpt lat="59.3279258649" lon="34.6940920256"><ele>164.105</ele><time>2026-08-17T03:42:36.652Z</time><hdop>3.0</hdop><vdop>4.0</vdop><extensions><gom:speed>0.518</gom:speed></extensions></trkpt>
   <trkpt lat="59.3279246914" lon="34.6941238769"><ele>164.536</ele><time>2026-08-17T03:42:37.652Z</time><hdop>3.0</hdop><vdop>4.062</vdop><extensions><gom:speed>0.529</gom:speed></extensions></trkpt>
   <trkpt lat="59.3279269964" lon="34.6941486873"><ele>164.793</ele><time>2026-08-17T03:42:38.526Z</time><hdop>3.0</hdop><vdop>4.062</vdop><extensions><gom:speed>0.559</gom:speed></extensions></trkpt>
   <trkpt lat="59.3279321932" lon="34.6941706479"><ele>165.172</ele><time>2026-08-17T03:42:39.366Z</time><hdop>3.0</hdop><vdop>3.937</vdop><extensions><gom:speed>0.584</gom:speed></extensions></trkpt>
   <trkpt lat="59.3279381863" lon="34.6941955421"><ele>165.32</ele><time>2026-08-17T03:42:40.074Z</time><hdop>3.0</hdop><vdop>4.25</vdop><extensions><gom:speed>0.664</gom:speed></extensions></trkpt>
   <trkpt lat="59.3279397788" lon="34.6942050975"><ele>165.415</ele><time>2026-08-17T03:42:40.661Z</time><hdop>3.0</hdop><vdop>4.312</vdop><extensions><gom:speed>0.603</gom:speed></extensions></trkpt>
   <trkpt lat="59.3279435926" lon="34.6942304947"><ele>165.472</ele><time>2026-08-17T03:42:41.460Z</time><hdop>3.0</hdop><vdop>4.312</vdop><extensions><gom:speed>0.726</gom:speed></extensions></trkpt>
   <trkpt lat="59.3279459814" lon="34.694250276"><ele>165.554</ele><time>2026-08-17T03:42:42.644Z</time><hdop>3.0</hdop><vdop>4.5</vdop><extensions><gom:speed>0.643</gom:speed></extensions></trkpt>
   <trkpt lat="59.327948496" lon="34.6942688838"><ele>165.741</ele><time>2026-08-17T03:42:43.686Z</time><hdop>3.0</hdop><vdop>4.25</vdop><extensions><gom:speed>0.417</gom:speed></extensions></trkpt>
   <trkpt lat="59.3279496695" lon="34.6942818757"><ele>165.75</ele><time>2026-08-17T03:42:44.505Z</time><hdop>3.0</hdop><vdop>4.625</vdop><extensions><gom:speed>0.443</gom:speed></extensions></trkpt>
   <trkpt lat="59.3279503819" lon="34.6942978852"><ele>165.46</ele><time>2026-08-17T03:42:45.466Z</time><hdop>3.0</hdop><vdop>4.25</vdop><extensions><gom:speed>0.37</gom:speed></extensions></trkpt>
   <trkpt lat="59.3279505915" lon="34.6943073567"><ele>165.292</ele><time>2026-08-17T03:42:46.104Z</time><hdop>3.0</hdop><vdop>4.062</vdop><extensions><gom:speed>0.342</gom:speed></extensions></trkpt>
   <trkpt lat="59.3279502981" lon="34.6943118829"><ele>165.287</ele><time>2026-08-17T03:42:46.652Z</time><hdop>3.0</hdop><vdop>3.437</vdop><extensions><gom:speed>0.237</gom:speed></extensions></trkpt>
   <trkpt lat="59.3279499628" lon="34.6943299879"><ele>165.284</ele><time>2026-08-17T03:42:47.702Z</time><hdop>3.0</hdop><vdop>3.437</vdop><extensions><gom:speed>0.186</gom:speed></extensions></trkpt>
   <trkpt lat="59.3279508848" lon="34.6943509426"><ele>165.458</ele><time>2026-08-17T03:42:48.522Z</time><hdop>3.0</hdop><vdop>3.187</vdop><extensions><gom:speed>0.31</gom:speed></extensions></trkpt>
   <trkpt lat="59.3279522679" lon="34.6943739928"><ele>165.55</ele><time>2026-08-17T03:42:49.220Z</time><hdop>3.0</hdop><vdop>2.875</vdop><extensions><gom:speed>0.378</gom:speed></extensions></trkpt>
   <trkpt lat="59.3279538604" lon="34.6943972945"><ele>165.78</ele><time>2026-08-17T03:42:50.657Z</time><hdop>3.0</hdop><vdop>2.875</vdop><extensions><gom:speed>0.299</gom:speed></extensions></trkpt>
   <trkpt lat="59.3279554949" lon="34.694431828"><ele>166.054</ele><time>2026-08-17T03:42:51.653Z</time><hdop>3.0</hdop><vdop>2.625</vdop><extensions><gom:speed>0.359</gom:speed></extensions></trkpt>
   <trkpt lat="59.3279560816" lon="34.6944541238"><ele>166.217</ele><time>2026-08-17T03:42:52.408Z</time><hdop>3.0</hdop><vdop>2.625</vdop><extensions><gom:speed>0.457</gom:speed></extensions></trkpt>
   <trkpt lat="59.3279560816" lon="34.6944722288"><ele>166.237</ele><time>2026-08-17T03:42:53.085Z</time><hdop>3.0</hdop><vdop>2.75</vdop><extensions><gom:speed>0.535</gom:speed></extensions></trkpt>
   <trkpt lat="59.3279560816" lon="34.6944819518"><ele>166.35</ele><time>2026-08-17T03:42:53.652Z</time><hdop>3.0</hdop><vdop>2.687</vdop><extensions><gom:speed>0.443</gom:speed></extensions></trkpt>
   <trkpt lat="59.3279553692" lon="34.694498967"><ele>166.418</ele><time>2026-08-17T03:42:54.198Z</time><hdop>3.0</hdop><vdop>2.687</vdop><extensions><gom:speed>0.504</gom:speed></extensions></trkpt>
   <trkpt lat="59.3279552853" lon="34.6945221849"><ele>166.384</ele><time>2026-08-17T03:42:55.655Z</time><hdop>3.125</hdop><vdop>2.687</vdop><extensions><gom:speed>0.348</gom:speed></extensions></trkpt>
   <trkpt lat="59.3279584705" lon="34.6945390325"><ele>166.197</ele><time>2026-08-17T03:42:56.652Z</time><hdop>3.187</hdop><vdop>2.5</vdop><extensions><gom:speed>0.332</gom:speed></extensions></trkpt>
   <trkpt lat="59.327963793" lon="34.6945546229"><ele>166.085</ele><time>2026-08-17T03:42:57.597Z</time><hdop>3.187</hdop><vdop>2.5</vdop><extensions><gom:speed>0.414</gom:speed></extensions></trkpt>
   <trkpt lat="59.3279685707" lon="34.6945676986"><ele>166.0</ele><time>2026-08-17T03:42:58.447Z</time><hdop>3.25</hdop><vdop>2.5</vdop><extensions><gom:speed>0.386</gom:speed></extensions></trkpt>
   <trkpt lat="59.3279735998" lon="34.6945791818"><ele>165.961</ele><time>2026-08-17T03:42:59.317Z</time><hdop>3.187</hdop><vdop>2.5</vdop><extensions><gom:speed>0.356</gom:speed></extensions></trkpt>
   <trkpt lat="59.3279774974" lon="34.6945886534"><ele>165.901</ele><time>2026-08-17T03:43:00.187Z</time><hdop>3.125</hdop><vdop>2.5</vdop><extensions><gom:speed>0.32</gom:speed></extensions></trkpt>
   <trkpt lat="59.3279784613" lon="34.6945903298"><ele>165.62</ele><time>2026-08-17T03:43:00.652Z</time><hdop>3.062</hdop><vdop>2.562</vdop><extensions><gom:speed>0.221</gom:speed></extensions></trkpt>
   <trkpt lat="59.3279829875" lon="34.6946026512"><ele>165.452</ele><time>2026-08-17T03:43:01.684Z</time><hdop>3.0</hdop><vdop>2.562</vdop><extensions><gom:speed>0.227</gom:speed></extensions></trkpt>
   <trkpt lat="59.327987388" lon="34.6946159784"><ele>165.297</ele><time>2026-08-17T03:43:02.484Z</time><hdop>3.0</hdop><vdop>2.75</vdop><extensions><gom:speed>0.337</gom:speed></extensions></trkpt>
   <trkpt lat="59.3279912856" lon="34.6946301438"><ele>165.216</ele><time>2026-08-17T03:43:03.384Z</time><hdop>3.0</hdop><vdop>2.812</vdop><extensions><gom:speed>0.33</gom:speed></extensions></trkpt>
   <trkpt lat="59.3279940936" lon="34.6946433872"><ele>165.022</ele><time>2026-08-17T03:43:04.224Z</time><hdop>3.0</hdop><vdop>3.062</vdop><extensions><gom:speed>0.343</gom:speed></extensions></trkpt>
   <trkpt lat="59.3279944707" lon="34.694653194"><ele>164.195</ele><time>2026-08-17T03:43:05.646Z</time><hdop>3.0</hdop><vdop>2.5</vdop><extensions><gom:speed>0.199</gom:speed></extensions></trkpt>
   <trkpt lat="59.3279943869" lon="34.6946550381"><ele>163.698</ele><time>2026-08-17T03:43:06.652Z</time><hdop>3.0</hdop><vdop>2.5</vdop><extensions><gom:speed>0.094</gom:speed></extensions></trkpt>
   <trkpt lat="59.3279940936" lon="34.6946569659"><ele>163.399</ele><time>2026-08-17T03:43:07.654Z</time><hdop>3.0</hdop><vdop>2.5</vdop><extensions><gom:speed>0.133</gom:speed></extensions></trkpt>
   <trkpt lat="59.3279933811" lon="34.6946569659"><ele>163.163</ele><time>2026-08-17T03:43:08.652Z</time><hdop>3.0</hdop><vdop>2.5</vdop><extensions><gom:speed>0.019</gom:speed></extensions></trkpt>
   <trkpt lat="59.3279928782" lon="34.6946565468"><ele>163.045</ele><time>2026-08-17T03:43:09.652Z</time><hdop>3.0</hdop><vdop>2.5</vdop><extensions><gom:speed>0.016</gom:speed></extensions></trkpt>
   <trkpt lat="59.3279925848" lon="34.6946561277"><ele>162.969</ele><time>2026-08-17T03:43:10.646Z</time><hdop>3.0</hdop><vdop>2.5</vdop><extensions><gom:speed>0.056</gom:speed></extensions></trkpt>
   <trkpt lat="59.3279921657" lon="34.6946554572"><ele>162.867</ele><time>2026-08-17T03:43:11.645Z</time><hdop>3.0</hdop><vdop>2.5</vdop><extensions><gom:speed>0.072</gom:speed></extensions></trkpt>
   <trkpt lat="59.3279921657" lon="34.6946547866"><ele>162.802</ele><time>2026-08-17T03:43:12.646Z</time><hdop>3.0</hdop><vdop>2.5</vdop><extensions><gom:speed>0.086</gom:speed></extensions></trkpt>
   <trkpt lat="59.3279924591" lon="34.6946548704"><ele>162.763</ele><time>2026-08-17T03:43:13.744Z</time><hdop>3.0</hdop><vdop>2.5</vdop><extensions><gom:speed>0.014</gom:speed></extensions></trkpt>
   <trkpt lat="59.3279928782" lon="34.6946548704"><ele>162.74</ele><time>2026-08-17T03:43:14.655Z</time><hdop>3.0</hdop><vdop>2.5</vdop><extensions><gom:speed>0.02</gom:speed></extensions></trkpt>
   <trkpt lat="59.327992962" lon="34.6946547866"><ele>162.725</ele><time>2026-08-17T03:43:15.343Z</time><hdop>3.0</hdop><vdop>2.5</vdop><extensions><gom:speed>0.032</gom:speed></extensions></trkpt>
   <trkpt lat="59.3279935906" lon="34.6946551219"><ele>162.716</ele><time>2026-08-17T03:43:16.658Z</time><hdop>3.0</hdop><vdop>2.5</vdop><extensions><gom:speed>0.029</gom:speed></extensions></trkpt>
   <trkpt lat="59.3279930877" lon="34.6946567983"><ele>162.711</ele><time>2026-08-17T03:43:17.670Z</time><hdop>3.0</hdop><vdop>2.5</vdop><extensions><gom:speed>0.029</gom:speed></extensions></trkpt>
   <trkpt lat="59.3279926686" lon="34.694656463"><ele>162.711</ele><time>2026-08-17T03:43:18.645Z</time><hdop>3.0</hdop><vdop>2.5</vdop><extensions><gom:speed>0.091</gom:speed></extensions></trkpt>
   <trkpt lat="59.3279920819" lon="34.6946569659"><ele>162.713</ele><time>2026-08-17T03:43:19.652Z</time><hdop>3.0</hdop><vdop>2.5</vdop><extensions><gom:speed>0.027</gom:speed></extensions></trkpt>
   <trkpt lat="59.3279916628" lon="34.6946561277"><ele>162.715</ele><time>2026-08-17T03:43:20.646Z</time><hdop>3.0</hdop><vdop>2.5</vdop><extensions><gom:speed>0.093</gom:speed></extensions></trkpt>
   <trkpt lat="59.3279918724" lon="34.6946545351"><ele>162.753</ele><time>2026-08-17T03:43:21.653Z</time><hdop>3.0</hdop><vdop>2.5</vdop><extensions><gom:speed>0.032</gom:speed></extensions></trkpt>
   <trkpt lat="59.3279907827" lon="34.6946571335"><ele>162.847</ele><time>2026-08-17T03:43:22.646Z</time><hdop>3.0</hdop><vdop>2.5</vdop><extensions><gom:speed>0.127</gom:speed></extensions></trkpt>
   <trkpt lat="59.3279902798" lon="34.6946579717"><ele>162.903</ele><time>2026-08-17T03:43:23.366Z</time><hdop>3.0</hdop><vdop>2.5</vdop><extensions><gom:speed>0.139</gom:speed></extensions></trkpt>
   <trkpt lat="59.3279884777" lon="34.6946597319"><ele>162.834</ele><time>2026-08-17T03:43:24.286Z</time><hdop>3.0</hdop><vdop>2.75</vdop><extensions><gom:speed>0.144</gom:speed></extensions></trkpt>
   <trkpt lat="59.3279858793" lon="34.694661995"><ele>162.412</ele><time>2026-08-17T03:43:24.964Z</time><hdop>3.0</hdop><vdop>2.75</vdop><extensions><gom:speed>0.212</gom:speed></extensions></trkpt>
   <trkpt lat="59.3279833647" lon="34.6946656831"><ele>162.191</ele><time>2026-08-17T03:43:25.662Z</time><hdop>3.0</hdop><vdop>2.625</vdop><extensions><gom:speed>0.335</gom:speed></extensions></trkpt>
   <trkpt lat="59.32797909" lon="34.6946688682"><ele>162.058</ele><time>2026-08-17T03:43:26.168Z</time><hdop>3.0</hdop><vdop>2.625</vdop><extensions><gom:speed>0.415</gom:speed></extensions></trkpt>
   <trkpt lat="59.3279747733" lon="34.6946741488"><ele>161.956</ele><time>2026-08-17T03:43:26.653Z</time><hdop>3.0</hdop><vdop>2.687</vdop><extensions><gom:speed>0.412</gom:speed></extensions></trkpt>
   <trkpt lat="59.3279639606" lon="34.6946772501"><ele>161.679</ele><time>2026-08-17T03:43:27.645Z</time><hdop>3.0</hdop><vdop>2.75</vdop><extensions><gom:speed>0.462</gom:speed></extensions></trkpt>
   <trkpt lat="59.3279593925" lon="34.6946815249"><ele>161.513</ele><time>2026-08-17T03:43:28.606Z</time><hdop>3.0</hdop><vdop>2.75</vdop><extensions><gom:speed>0.421</gom:speed></extensions></trkpt>
   <trkpt lat="59.327951262" lon="34.6946875598"><ele>161.47</ele><time>2026-08-17T03:43:29.406Z</time><hdop>3.0</hdop><vdop>2.812</vdop><extensions><gom:speed>0.598</gom:speed></extensions></trkpt>
   <trkpt lat="59.3279411618" lon="34.6946909964"><ele>161.399</ele><time>2026-08-17T03:43:30.226Z</time><hdop>3.062</hdop><vdop>3.062</vdop><extensions><gom:speed>0.595</gom:speed></extensions></trkpt>
   <trkpt lat="59.3279389825" lon="34.6946955227"><ele>161.227</ele><time>2026-08-17T03:43:30.965Z</time><hdop>3.125</hdop><vdop>2.937</vdop><extensions><gom:speed>0.561</gom:speed></extensions></trkpt>
   <trkpt lat="59.3279392759" lon="34.69470139"><ele>161.124</ele><time>2026-08-17T03:43:31.662Z</time><hdop>3.187</hdop><vdop>2.937</vdop><extensions><gom:speed>0.549</gom:speed></extensions></trkpt>
   <trkpt lat="59.3279435926" lon="34.6947166451"><ele>161.079</ele><time>2026-08-17T03:43:32.481Z</time><hdop>3.187</hdop><vdop>3.0</vdop><extensions><gom:speed>0.689</gom:speed></extensions></trkpt>
   <trkpt lat="59.3279460653" lon="34.694724524"><ele>160.752</ele><time>2026-08-17T03:43:33.301Z</time><hdop>3.25</hdop><vdop>3.0</vdop><extensions><gom:speed>0.652</gom:speed></extensions></trkpt>
   <trkpt lat="59.3279492923" lon="34.6947396953"><ele>161.094</ele><time>2026-08-17T03:43:34.181Z</time><hdop>3.25</hdop><vdop>2.875</vdop><extensions><gom:speed>0.754</gom:speed></extensions></trkpt>
   <trkpt lat="59.3279501724" lon="34.6947528549"><ele>161.404</ele><time>2026-08-17T03:43:34.645Z</time><hdop>3.187</hdop><vdop>3.062</vdop><extensions><gom:speed>0.896</gom:speed></extensions></trkpt>
   <trkpt lat="59.3279487894" lon="34.6947680261"><ele>161.589</ele><time>2026-08-17T03:43:35.679Z</time><hdop>3.125</hdop><vdop>3.062</vdop><extensions><gom:speed>0.712</gom:speed></extensions></trkpt>
   <trkpt lat="59.327947574" lon="34.6947794255"><ele>161.292</ele><time>2026-08-17T03:43:36.538Z</time><hdop>3.125</hdop><vdop>3.25</vdop><extensions><gom:speed>0.645</gom:speed></extensions></trkpt>
   <trkpt lat="59.3279442631" lon="34.6947953511"><ele>161.052</ele><time>2026-08-17T03:43:37.297Z</time><hdop>3.062</hdop><vdop>3.125</vdop><extensions><gom:speed>0.756</gom:speed></extensions></trkpt>
   <trkpt lat="59.327939695" lon="34.6948062476"><ele>160.748</ele><time>2026-08-17T03:43:38.086Z</time><hdop>3.0</hdop><vdop>3.062</vdop><extensions><gom:speed>0.702</gom:speed></extensions></trkpt>
   <trkpt lat="59.3279375995" lon="34.6948127855"><ele>160.378</ele><time>2026-08-17T03:43:38.652Z</time><hdop>3.0</hdop><vdop>2.937</vdop><extensions><gom:speed>0.638</gom:speed></extensions></trkpt>
   <trkpt lat="59.3279344982" lon="34.6948248554"><ele>160.158</ele><time>2026-08-17T03:43:39.624Z</time><hdop>3.0</hdop><vdop>2.937</vdop><extensions><gom:speed>0.652</gom:speed></extensions></trkpt>
   <trkpt lat="59.3279321932" lon="34.6948357519"><ele>159.842</ele><time>2026-08-17T03:43:40.383Z</time><hdop>3.0</hdop><vdop>2.875</vdop><extensions><gom:speed>0.673</gom:speed></extensions></trkpt>
   <trkpt lat="59.3279294691" lon="34.6948454749"><ele>159.938</ele><time>2026-08-17T03:43:41.142Z</time><hdop>3.0</hdop><vdop>2.812</vdop><extensions><gom:speed>0.646</gom:speed></extensions></trkpt>
   <trkpt lat="59.3279277927" lon="34.6948516775"><ele>160.336</ele><time>2026-08-17T03:43:41.648Z</time><hdop>3.0</hdop><vdop>2.625</vdop><extensions><gom:speed>0.64</gom:speed></extensions></trkpt>
   <trkpt lat="59.3279217996" lon="34.6948608976"><ele>160.559</ele><time>2026-08-17T03:43:42.646Z</time><hdop>3.0</hdop><vdop>2.687</vdop><extensions><gom:speed>0.595</gom:speed></extensions></trkpt>
   <trkpt lat="59.3279173991" lon="34.6948721294"><ele>160.846</ele><time>2026-08-17T03:43:43.645Z</time><hdop>3.0</hdop><vdop>2.625</vdop><extensions><gom:speed>0.612</gom:speed></extensions></trkpt>
   <trkpt lat="59.3279157647" lon="34.6948804274"><ele>161.018</ele><time>2026-08-17T03:43:44.399Z</time><hdop>3.0</hdop><vdop>2.625</vdop><extensions><gom:speed>0.617</gom:speed></extensions></trkpt>
   <trkpt lat="59.3279124957" lon="34.6948895637"><ele>161.14</ele><time>2026-08-17T03:43:45.158Z</time><hdop>3.0</hdop><vdop>2.812</vdop><extensions><gom:speed>0.643</gom:speed></extensions></trkpt>
   <trkpt lat="59.327910987" lon="34.6948948443"><ele>161.258</ele><time>2026-08-17T03:43:45.652Z</time><hdop>3.0</hdop><vdop>2.937</vdop><extensions><gom:speed>0.593</gom:speed></extensions></trkpt>
   <trkpt lat="59.3279075923" lon="34.6949073333"><ele>161.213</ele><time>2026-08-17T03:43:46.645Z</time><hdop>3.0</hdop><vdop>2.75</vdop><extensions><gom:speed>0.613</gom:speed></extensions></trkpt>
   <trkpt lat="59.3279066703" lon="34.6949131169"><ele>161.185</ele><time>2026-08-17T03:43:47.344Z</time><hdop>3.0</hdop><vdop>2.75</vdop><extensions><gom:speed>0.519</gom:speed></extensions></trkpt>
   <trkpt lat="59.327905874" lon="34.6949208282"><ele>161.118</ele><time>2026-08-17T03:43:48.183Z</time><hdop>3.0</hdop><vdop>2.937</vdop><extensions><gom:speed>0.478</gom:speed></extensions></trkpt>
   <trkpt lat="59.3279056645" lon="34.6949240972"><ele>161.134</ele><time>2026-08-17T03:43:48.652Z</time><hdop>3.0</hdop><vdop>2.75</vdop><extensions><gom:speed>0.385</gom:speed></extensions></trkpt>
   <trkpt lat="59.3279052873" lon="34.6949341554"><ele>161.143</ele><time>2026-08-17T03:43:49.600Z</time><hdop>3.0</hdop><vdop>2.75</vdop><extensions><gom:speed>0.408</gom:speed></extensions></trkpt>
   <trkpt lat="59.3279050777" lon="34.6949441299"><ele>161.017</ele><time>2026-08-17T03:43:50.339Z</time><hdop>3.0</hdop><vdop>2.875</vdop><extensions><gom:speed>0.423</gom:speed></extensions></trkpt>
   <trkpt lat="59.3279052873" lon="34.6949553617"><ele>160.836</ele><time>2026-08-17T03:43:51.097Z</time><hdop>3.0</hdop><vdop>3.0</vdop><extensions><gom:speed>0.42</gom:speed></extensions></trkpt>
   <trkpt lat="59.3279051616" lon="34.6949607261"><ele>160.295</ele><time>2026-08-17T03:43:51.652Z</time><hdop>3.0</hdop><vdop>3.0</vdop><extensions><gom:speed>0.365</gom:speed></extensions></trkpt>
   <trkpt lat="59.3279046587" lon="34.6949707844"><ele>159.972</ele><time>2026-08-17T03:43:52.503Z</time><hdop>3.0</hdop><vdop>3.0</vdop><extensions><gom:speed>0.364</gom:speed></extensions></trkpt>
   <trkpt lat="59.3279038624" lon="34.6949778252"><ele>159.705</ele><time>2026-08-17T03:43:53.080Z</time><hdop>3.0</hdop><vdop>2.937</vdop><extensions><gom:speed>0.388</gom:speed></extensions></trkpt>
   <trkpt lat="59.3279022698" lon="34.6949860394"><ele>159.618</ele><time>2026-08-17T03:43:53.644Z</time><hdop>3.0</hdop><vdop>2.812</vdop><extensions><gom:speed>0.409</gom:speed></extensions></trkpt>
   <trkpt lat="59.3279008868" lon="34.6949923258"><ele>159.566</ele><time>2026-08-17T03:43:54.638Z</time><hdop>3.0</hdop><vdop>2.812</vdop><extensions><gom:speed>0.399</gom:speed></extensions></trkpt>
   <trkpt lat="59.32789569" lon="34.6950077485"><ele>159.723</ele><time>2026-08-17T03:43:55.650Z</time><hdop>3.0</hdop><vdop>2.875</vdop><extensions><gom:speed>0.473</gom:speed></extensions></trkpt>
   <trkpt lat="59.3278934688" lon="34.6950119395"><ele>160.153</ele><time>2026-08-17T03:43:56.227Z</time><hdop>3.0</hdop><vdop>2.875</vdop><extensions><gom:speed>0.334</gom:speed></extensions></trkpt>
   <trkpt lat="59.3278909961" lon="34.695015879"><ele>160.383</ele><time>2026-08-17T03:43:57.652Z</time><hdop>3.0</hdop><vdop>2.875</vdop><extensions><gom:speed>0.117</gom:speed></extensions></trkpt>
   <trkpt lat="59.3278901999" lon="34.6950179745"><ele>160.522</ele><time>2026-08-17T03:43:58.652Z</time><hdop>3.0</hdop><vdop>2.875</vdop><extensions><gom:speed>0.033</gom:speed></extensions></trkpt>
   <trkpt lat="59.3278887749" lon="34.6950196509"><ele>160.616</ele><time>2026-08-17T03:43:59.644Z</time><hdop>3.0</hdop><vdop>2.75</vdop><extensions><gom:speed>0.068</gom:speed></extensions></trkpt>
   <trkpt lat="59.3278883978" lon="34.6950207405"><ele>160.673</ele><time>2026-08-17T03:44:00.658Z</time><hdop>3.0</hdop><vdop>2.75</vdop><extensions><gom:speed>0.086</gom:speed></extensions></trkpt>
   <trkpt lat="59.3278875596" lon="34.6950242609"><ele>160.901</ele><time>2026-08-17T03:44:01.285Z</time><hdop>3.0</hdop><vdop>2.625</vdop><extensions><gom:speed>0.113</gom:speed></extensions></trkpt>
   <trkpt lat="59.3278867633" lon="34.695029793"><ele>161.298</ele><time>2026-08-17T03:44:02.024Z</time><hdop>3.0</hdop><vdop>2.562</vdop><extensions><gom:speed>0.131</gom:speed></extensions></trkpt>
   <trkpt lat="59.3278853803" lon="34.6950391807"><ele>161.511</ele><time>2026-08-17T03:44:02.644Z</time><hdop>3.0</hdop><vdop>2.625</vdop><extensions><gom:speed>0.204</gom:speed></extensions></trkpt>
   <trkpt lat="59.3278847935" lon="34.6950446289"><ele>161.637</ele><time>2026-08-17T03:44:03.622Z</time><hdop>3.0</hdop><vdop>2.625</vdop><extensions><gom:speed>0.154</gom:speed></extensions></trkpt>
   <trkpt lat="59.3278824885" lon="34.6950586267"><ele>161.648</ele><time>2026-08-17T03:44:04.482Z</time><hdop>3.0</hdop><vdop>2.562</vdop><extensions><gom:speed>0.258</gom:speed></extensions></trkpt>
   <trkpt lat="59.3278809798" lon="34.6950658351"><ele>161.64</ele><time>2026-08-17T03:44:05.261Z</time><hdop>3.0</hdop><vdop>2.562</vdop><extensions><gom:speed>0.254</gom:speed></extensions></trkpt>
   <trkpt lat="59.3278752801" lon="34.6950916514"><ele>161.718</ele><time>2026-08-17T03:44:06.040Z</time><hdop>3.0</hdop><vdop>2.625</vdop><extensions><gom:speed>0.386</gom:speed></extensions></trkpt>
   <trkpt lat="59.3278736875" lon="34.6950980216"><ele>162.109</ele><time>2026-08-17T03:44:06.678Z</time><hdop>3.0</hdop><vdop>2.687</vdop><extensions><gom:speed>0.424</gom:speed></extensions></trkpt>
   <trkpt lat="59.3278698738" lon="34.6951172162"><ele>162.342</ele><time>2026-08-17T03:44:07.619Z</time><hdop>3.0</hdop><vdop>2.687</vdop><extensions><gom:speed>0.493</gom:speed></extensions></trkpt>
   <trkpt lat="59.3278667724" lon="34.6951366622"><ele>162.399</ele><time>2026-08-17T03:44:08.357Z</time><hdop>3.0</hdop><vdop>2.625</vdop><extensions><gom:speed>0.63</gom:speed></extensions></trkpt>
   <trkpt lat="59.3278629587" lon="34.6951570302"><ele>162.455</ele><time>2026-08-17T03:44:09.146Z</time><hdop>3.0</hdop><vdop>2.687</vdop><extensions><gom:speed>0.688</gom:speed></extensions></trkpt>
   <trkpt lat="59.3278600669" lon="34.6951637358"><ele>162.708</ele><time>2026-08-17T03:44:09.652Z</time><hdop>3.0</hdop><vdop>2.562</vdop><extensions><gom:speed>0.722</gom:speed></extensions></trkpt>
   <trkpt lat="59.3278542834" lon="34.6951788232"><ele>162.859</ele><time>2026-08-17T03:44:10.583Z</time><hdop>3.0</hdop><vdop>2.562</vdop><extensions><gom:speed>0.684</gom:speed></extensions></trkpt>
   <trkpt lat="59.3278460691" lon="34.6951938268"><ele>163.747</ele><time>2026-08-17T03:44:11.402Z</time><hdop>3.0</hdop><vdop>2.5</vdop><extensions><gom:speed>0.712</gom:speed></extensions></trkpt>
   <trkpt lat="59.3278411657" lon="34.6952038851"><ele>164.338</ele><time>2026-08-17T03:44:12.283Z</time><hdop>3.0</hdop><vdop>2.625</vdop><extensions><gom:speed>0.677</gom:speed></extensions></trkpt>
   <trkpt lat="59.3278343764" lon="34.6952149492"><ele>164.681</ele><time>2026-08-17T03:44:13.143Z</time><hdop>3.0</hdop><vdop>2.687</vdop><extensions><gom:speed>0.695</gom:speed></extensions></trkpt>
   <trkpt lat="59.3278300597" lon="34.6952203974"><ele>164.407</ele><time>2026-08-17T03:44:13.645Z</time><hdop>3.0</hdop><vdop>2.625</vdop><extensions><gom:speed>0.618</gom:speed></extensions></trkpt>
   <trkpt lat="59.3278248629" lon="34.6952301204"><ele>164.243</ele><time>2026-08-17T03:44:14.640Z</time><hdop>3.0</hdop><vdop>2.625</vdop><extensions><gom:speed>0.627</gom:speed></extensions></trkpt>
   <trkpt lat="59.3278200852" lon="34.6952392567"><ele>164.292</ele><time>2026-08-17T03:44:15.400Z</time><hdop>3.0</hdop><vdop>2.75</vdop><extensions><gom:speed>0.679</gom:speed></extensions></trkpt>
   <trkpt lat="59.3278115776" lon="34.6952482254"><ele>164.485</ele><time>2026-08-17T03:44:16.340Z</time><hdop>3.0</hdop><vdop>2.875</vdop><extensions><gom:speed>0.727</gom:speed></extensions></trkpt>
   <trkpt lat="59.3278085601" lon="34.6952495665"><ele>164.455</ele><time>2026-08-17T03:44:16.795Z</time><hdop>3.0</hdop><vdop>2.625</vdop><extensions><gom:speed>0.698</gom:speed></extensions></trkpt>
   <trkpt lat="59.3278003878" lon="34.6952564396"><ele>164.15</ele><time>2026-08-17T03:44:17.646Z</time><hdop>3.0</hdop><vdop>2.687</vdop><extensions><gom:speed>0.765</gom:speed></extensions></trkpt>
   <trkpt lat="59.3277948976" lon="34.6952665817"><ele>163.968</ele><time>2026-08-17T03:44:18.606Z</time><hdop>3.0</hdop><vdop>2.687</vdop><extensions><gom:speed>0.751</gom:speed></extensions></trkpt>
   <trkpt lat="59.3277924669" lon="34.6952745445"><ele>163.672</ele><time>2026-08-17T03:44:19.466Z</time><hdop>3.0</hdop><vdop>2.875</vdop><extensions><gom:speed>0.636</gom:speed></extensions></trkpt>
   <trkpt lat="59.3277902876" lon="34.6952844352"><ele>163.775</ele><time>2026-08-17T03:44:20.346Z</time><hdop>3.0</hdop><vdop>3.125</vdop><extensions><gom:speed>0.614</gom:speed></extensions></trkpt>
   <trkpt lat="59.3277890722" lon="34.6952926494"><ele>163.75</ele><time>2026-08-17T03:44:21.125Z</time><hdop>3.0</hdop><vdop>3.0</vdop><extensions><gom:speed>0.599</gom:speed></extensions></trkpt>
   <trkpt lat="59.3277875635" lon="34.6952976786"><ele>163.937</ele><time>2026-08-17T03:44:21.651Z</time><hdop>3.0</hdop><vdop>2.937</vdop><extensions><gom:speed>0.596</gom:speed></extensions></trkpt>
   <trkpt lat="59.3277855937" lon="34.6953052223"><ele>164.05</ele><time>2026-08-17T03:44:22.258Z</time><hdop>3.0</hdop><vdop>2.937</vdop><extensions><gom:speed>0.682</gom:speed></extensions></trkpt>
   <trkpt lat="59.3277799778" lon="34.6953183819"><ele>164.484</ele><time>2026-08-17T03:44:23.037Z</time><hdop>3.0</hdop><vdop>2.937</vdop><extensions><gom:speed>0.677</gom:speed></extensions></trkpt>
   <trkpt lat="59.3277771699" lon="34.6953220699"><ele>164.631</ele><time>2026-08-17T03:44:23.652Z</time><hdop>3.0</hdop><vdop>2.75</vdop><extensions><gom:speed>0.599</gom:speed></extensions></trkpt>
   <trkpt lat="59.3277746972" lon="34.6953308709"><ele>164.719</ele><time>2026-08-17T03:44:24.504Z</time><hdop>3.0</hdop><vdop>2.75</vdop><extensions><gom:speed>0.586</gom:speed></extensions></trkpt>
   <trkpt lat="59.3277725599" lon="34.6953409292"><ele>164.662</ele><time>2026-08-17T03:44:25.344Z</time><hdop>3.0</hdop><vdop>2.75</vdop><extensions><gom:speed>0.607</gom:speed></extensions></trkpt>
   <trkpt lat="59.3277686623" lon="34.6953541726"><ele>164.821</ele><time>2026-08-17T03:44:26.185Z</time><hdop>3.0</hdop><vdop>2.812</vdop><extensions><gom:speed>0.696</gom:speed></extensions></trkpt>
   <trkpt lat="59.3277660639" lon="34.6953633927"><ele>165.123</ele><time>2026-08-17T03:44:26.645Z</time><hdop>3.0</hdop><vdop>2.875</vdop><extensions><gom:speed>0.731</gom:speed></extensions></trkpt>
   <trkpt lat="59.3277605737" lon="34.695375295"><ele>165.304</ele><time>2026-08-17T03:44:27.540Z</time><hdop>3.0</hdop><vdop>2.875</vdop><extensions><gom:speed>0.76</gom:speed></extensions></trkpt>
   <trkpt lat="59.3277535748" lon="34.6953839284"><ele>165.039</ele><time>2026-08-17T03:44:28.379Z</time><hdop>3.0</hdop><vdop>2.812</vdop><extensions><gom:speed>0.69</gom:speed></extensions></trkpt>
   <trkpt lat="59.3277493839" lon="34.6953898795"><ele>164.849</ele><time>2026-08-17T03:44:29.280Z</time><hdop>3.0</hdop><vdop>2.75</vdop><extensions><gom:speed>0.65</gom:speed></extensions></trkpt>
   <trkpt lat="59.3277428879" lon="34.6954009436"><ele>165.261</ele><time>2026-08-17T03:44:30.201Z</time><hdop>3.0</hdop><vdop>2.75</vdop><extensions><gom:speed>0.685</gom:speed></extensions></trkpt>
   <trkpt lat="59.3277406667" lon="34.6954061404"><ele>165.755</ele><time>2026-08-17T03:44:30.656Z</time><hdop>3.0</hdop><vdop>2.75</vdop><extensions><gom:speed>0.671</gom:speed></extensions></trkpt>
   <trkpt lat="59.3277324944" lon="34.6954245806"><ele>165.997</ele><time>2026-08-17T03:44:31.644Z</time><hdop>3.0</hdop><vdop>2.875</vdop><extensions><gom:speed>0.692</gom:speed></extensions></trkpt>
   <trkpt lat="59.3277266689" lon="34.6954347227"><ele>166.141</ele><time>2026-08-17T03:44:32.659Z</time><hdop>3.0</hdop><vdop>2.875</vdop><extensions><gom:speed>0.664</gom:speed></extensions></trkpt>
   <trkpt lat="59.3277198796" lon="34.6954446972"><ele>166.629</ele><time>2026-08-17T03:44:33.590Z</time><hdop>3.0</hdop><vdop>2.875</vdop><extensions><gom:speed>0.724</gom:speed></extensions></trkpt>
   <trkpt lat="59.3277147666" lon="34.6954520732"><ele>166.465</ele><time>2026-08-17T03:44:34.318Z</time><hdop>3.062</hdop><vdop>2.75</vdop><extensions><gom:speed>0.654</gom:speed></extensions></trkpt>
   <trkpt lat="59.327710869" lon="34.6954604551"><ele>166.296</ele><time>2026-08-17T03:44:35.117Z</time><hdop>3.062</hdop><vdop>2.687</vdop><extensions><gom:speed>0.674</gom:speed></extensions></trkpt>
   <trkpt lat="59.327708564" lon="34.6954650652"><ele>165.947</ele><time>2026-08-17T03:44:35.652Z</time><hdop>3.062</hdop><vdop>2.562</vdop><extensions><gom:speed>0.681</gom:speed></extensions></trkpt>
   <trkpt lat="59.3277038702" lon="34.6954726927"><ele>165.673</ele><time>2026-08-17T03:44:36.644Z</time><hdop>3.062</hdop><vdop>2.812</vdop><extensions><gom:speed>0.636</gom:speed></extensions></trkpt>
   <trkpt lat="59.3276992601" lon="34.6954791468"><ele>165.491</ele><time>2026-08-17T03:44:37.652Z</time><hdop>3.0</hdop><vdop>2.625</vdop><extensions><gom:speed>0.534</gom:speed></extensions></trkpt>
   <trkpt lat="59.3276979609" lon="34.695481829"><ele>165.383</ele><time>2026-08-17T03:44:38.365Z</time><hdop>3.0</hdop><vdop>2.625</vdop><extensions><gom:speed>0.443</gom:speed></extensions></trkpt>
   <trkpt lat="59.3276961588" lon="34.6954830863"><ele>165.64</ele><time>2026-08-17T03:44:39.053Z</time><hdop>3.0</hdop><vdop>2.562</vdop><extensions><gom:speed>0.463</gom:speed></extensions></trkpt>
   <trkpt lat="59.327691884" lon="34.695486942"><ele>165.66</ele><time>2026-08-17T03:44:39.660Z</time><hdop>3.0</hdop><vdop>2.562</vdop><extensions><gom:speed>0.42</gom:speed></extensions></trkpt>
   <trkpt lat="59.3276896628" lon="34.6954917196"><ele>165.715</ele><time>2026-08-17T03:44:40.645Z</time><hdop>3.0</hdop><vdop>2.687</vdop><extensions><gom:speed>0.413</gom:speed></extensions></trkpt>
   <trkpt lat="59.3276889923" lon="34.6954948209"><ele>165.748</ele><time>2026-08-17T03:44:41.127Z</time><hdop>3.0</hdop><vdop>2.687</vdop><extensions><gom:speed>0.371</gom:speed></extensions></trkpt>
   <trkpt lat="59.3276886989" lon="34.6954979222"><ele>165.762</ele><time>2026-08-17T03:44:41.652Z</time><hdop>3.0</hdop><vdop>2.562</vdop><extensions><gom:speed>0.314</gom:speed></extensions></trkpt>
   <trkpt lat="59.3276883636" lon="34.6955042925"><ele>165.77</ele><time>2026-08-17T03:44:42.584Z</time><hdop>3.0</hdop><vdop>2.562</vdop><extensions><gom:speed>0.288</gom:speed></extensions></trkpt>
   <trkpt lat="59.3276875674" lon="34.6955116686"><ele>165.926</ele><time>2026-08-17T03:44:43.645Z</time><hdop>3.0</hdop><vdop>2.687</vdop><extensions><gom:speed>0.215</gom:speed></extensions></trkpt>
   <trkpt lat="59.3276862682" lon="34.6955159433"><ele>166.02</ele><time>2026-08-17T03:44:44.567Z</time><hdop>3.0</hdop><vdop>2.687</vdop><extensions><gom:speed>0.251</gom:speed></extensions></trkpt>
   <trkpt lat="59.3276842984" lon="34.6955222298"><ele>165.997</ele><time>2026-08-17T03:44:45.224Z</time><hdop>3.0</hdop><vdop>2.875</vdop><extensions><gom:speed>0.365</gom:speed></extensions></trkpt>
   <trkpt lat="59.3276758746" lon="34.6955435198"><ele>166.026</ele><time>2026-08-17T03:44:46.645Z</time><hdop>3.0</hdop><vdop>3.437</vdop><extensions><gom:speed>0.355</gom:speed></extensions></trkpt>
   <trkpt lat="59.327676168" lon="34.6955439389"><ele>166.066</ele><time>2026-08-17T03:44:47.653Z</time><hdop>3.0</hdop><vdop>3.125</vdop><extensions><gom:speed>0.115</gom:speed></extensions></trkpt>
   <trkpt lat="59.3276760842" lon="34.695547124"><ele>166.094</ele><time>2026-08-17T03:44:48.645Z</time><hdop>3.0</hdop><vdop>3.0</vdop><extensions><gom:speed>0.131</gom:speed></extensions></trkpt>
   <trkpt lat="59.3276760842" lon="34.6955495548"><ele>166.108</ele><time>2026-08-17T03:44:49.644Z</time><hdop>3.0</hdop><vdop>3.0</vdop><extensions><gom:speed>0.108</gom:speed></extensions></trkpt>
   <trkpt lat="59.3276757908" lon="34.6955509797"><ele>166.115</ele><time>2026-08-17T03:44:50.644Z</time><hdop>3.0</hdop><vdop>2.937</vdop><extensions><gom:speed>0.106</gom:speed></extensions></trkpt>
   <trkpt lat="59.3276759584" lon="34.6955514826"><ele>166.117</ele><time>2026-08-17T03:44:51.652Z</time><hdop>3.0</hdop><vdop>2.875</vdop><extensions><gom:speed>0.019</gom:speed></extensions></trkpt>
   <trkpt lat="59.3276758746" lon="34.6955525723"><ele>166.115</ele><time>2026-08-17T03:44:52.644Z</time><hdop>3.0</hdop><vdop>2.812</vdop><extensions><gom:speed>0.084</gom:speed></extensions></trkpt>
   <trkpt lat="59.3276758746" lon="34.695554081"><ele>166.112</ele><time>2026-08-17T03:44:53.645Z</time><hdop>3.0</hdop><vdop>2.687</vdop><extensions><gom:speed>0.095</gom:speed></extensions></trkpt>
   <trkpt lat="59.3276762937" lon="34.6955554221"><ele>166.107</ele><time>2026-08-17T03:44:54.652Z</time><hdop>3.0</hdop><vdop>2.687</vdop><extensions><gom:speed>0.027</gom:speed></extensions></trkpt>
   <trkpt lat="59.3276760842" lon="34.6955565956"><ele>166.363</ele><time>2026-08-17T03:44:55.645Z</time><hdop>3.0</hdop><vdop>2.5</vdop><extensions><gom:speed>0.111</gom:speed></extensions></trkpt>
   <trkpt lat="59.3276759584" lon="34.6955569308"><ele>166.515</ele><time>2026-08-17T03:44:56.354Z</time><hdop>3.0</hdop><vdop>2.5</vdop><extensions><gom:speed>0.08</gom:speed></extensions></trkpt>
   <trkpt lat="59.3276753717" lon="34.6955581881"><ele>166.614</ele><time>2026-08-17T03:44:57.646Z</time><hdop>3.0</hdop><vdop>2.812</vdop><extensions><gom:speed>0.103</gom:speed></extensions></trkpt>
   <trkpt lat="59.3276751621" lon="34.6955583558"><ele>166.68</ele><time>2026-08-17T03:44:58.645Z</time><hdop>3.0</hdop><vdop>3.0</vdop><extensions><gom:speed>0.101</gom:speed></extensions></trkpt>
   <trkpt lat="59.3276750783" lon="34.6955581881"><ele>166.723</ele><time>2026-08-17T03:44:59.652Z</time><hdop>3.0</hdop><vdop>2.937</vdop><extensions><gom:speed>0.05</gom:speed></extensions></trkpt>
   <trkpt lat="59.3276750783" lon="34.6955576852"><ele>166.746</ele><time>2026-08-17T03:45:00.652Z</time><hdop>3.0</hdop><vdop>3.0</vdop><extensions><gom:speed>0.023</gom:speed></extensions></trkpt>
   <trkpt lat="59.3276751621" lon="34.6955569308"><ele>166.757</ele><time>2026-08-17T03:45:01.652Z</time><hdop>3.0</hdop><vdop>3.125</vdop><extensions><gom:speed>0.011</gom:speed></extensions></trkpt>
   <trkpt lat="59.3276750783" lon="34.6955573499"><ele>166.764</ele><time>2026-08-17T03:45:02.645Z</time><hdop>3.0</hdop><vdop>3.125</vdop><extensions><gom:speed>0.065</gom:speed></extensions></trkpt>
   <trkpt lat="59.3276745754" lon="34.6955578529"><ele>166.769</ele><time>2026-08-17T03:45:03.652Z</time><hdop>3.0</hdop><vdop>2.812</vdop><extensions><gom:speed>0.017</gom:speed></extensions></trkpt>
   <trkpt lat="59.3276731924" lon="34.6955596969"><ele>166.77</ele><time>2026-08-17T03:45:04.650Z</time><hdop>3.0</hdop><vdop>2.937</vdop><extensions><gom:speed>0.22</gom:speed></extensions></trkpt>
   <trkpt lat="59.3276721866" lon="34.6955609542"><ele>166.769</ele><time>2026-08-17T03:45:05.661Z</time><hdop>3.0</hdop><vdop>2.937</vdop><extensions><gom:speed>0.089</gom:speed></extensions></trkpt>
   <trkpt lat="59.3276720608" lon="34.6955612894"><ele>166.767</ele><time>2026-08-17T03:45:06.653Z</time><hdop>3.0</hdop><vdop>2.875</vdop><extensions><gom:speed>0.076</gom:speed></extensions></trkpt>
   <trkpt lat="59.3276723961" lon="34.6955614571"><ele>166.765</ele><time>2026-08-17T03:45:07.645Z</time><hdop>3.0</hdop><vdop>2.875</vdop><extensions><gom:speed>0.07</gom:speed></extensions></trkpt>
   <trkpt lat="59.3276720608" lon="34.69556196"><ele>166.762</ele><time>2026-08-17T03:45:08.656Z</time><hdop>3.0</hdop><vdop>2.812</vdop><extensions><gom:speed>0.07</gom:speed></extensions></trkpt>
   <trkpt lat="59.3276718932" lon="34.6955623791"><ele>166.758</ele><time>2026-08-17T03:45:09.652Z</time><hdop>3.0</hdop><vdop>2.812</vdop><extensions><gom:speed>0.068</gom:speed></extensions></trkpt>
   <trkpt lat="59.327671977" lon="34.6955627982"><ele>166.755</ele><time>2026-08-17T03:45:10.645Z</time><hdop>3.0</hdop><vdop>2.75</vdop><extensions><gom:speed>0.068</gom:speed></extensions></trkpt>
   <trkpt lat="59.3276717675" lon="34.6955632173"><ele>166.753</ele><time>2026-08-17T03:45:11.652Z</time><hdop>3.0</hdop><vdop>2.75</vdop><extensions><gom:speed>0.068</gom:speed></extensions></trkpt>
   <trkpt lat="59.3276718932" lon="34.6955636364"><ele>166.751</ele><time>2026-08-17T03:45:12.645Z</time><hdop>3.0</hdop><vdop>2.75</vdop><extensions><gom:speed>0.066</gom:speed></extensions></trkpt>
   <trkpt lat="59.3276715998" lon="34.6955640555"><ele>166.75</ele><time>2026-08-17T03:45:13.654Z</time><hdop>3.0</hdop><vdop>2.75</vdop><extensions><gom:speed>0.066</gom:speed></extensions></trkpt>
   <trkpt lat="59.3276716837" lon="34.6955641393"><ele>166.749</ele><time>2026-08-17T03:45:14.464Z</time><hdop>3.0</hdop><vdop>2.75</vdop><extensions><gom:speed>0.066</gom:speed></extensions></trkpt>
   <trkpt lat="59.3276714741" lon="34.695564726"><ele>166.748</ele><time>2026-08-17T03:45:15.652Z</time><hdop>3.0</hdop><vdop>2.625</vdop><extensions><gom:speed>0.063</gom:speed></extensions></trkpt>
   <trkpt lat="59.3276711807" lon="34.6955652289"><ele>166.745</ele><time>2026-08-17T03:45:17.620Z</time><hdop>3.0</hdop><vdop>2.562</vdop><extensions><gom:speed>0.064</gom:speed></extensions></trkpt>
   <trkpt lat="59.3276712646" lon="34.6955655642"><ele>166.762</ele><time>2026-08-17T03:45:18.652Z</time><hdop>3.0</hdop><vdop>3.312</vdop><extensions><gom:speed>0.068</gom:speed></extensions></trkpt>
   <trkpt lat="59.3276711807" lon="34.6955658995"><ele>166.784</ele><time>2026-08-17T03:45:19.652Z</time><hdop>3.0</hdop><vdop>3.5</vdop><extensions><gom:speed>0.069</gom:speed></extensions></trkpt>
   <trkpt lat="59.3276713903" lon="34.6955663186"><ele>166.798</ele><time>2026-08-17T03:45:20.645Z</time><hdop>3.0</hdop><vdop>3.437</vdop><extensions><gom:speed>0.069</gom:speed></extensions></trkpt>
   <trkpt lat="59.3276712646" lon="34.6955668215"><ele>166.806</ele><time>2026-08-17T03:45:21.652Z</time><hdop>3.0</hdop><vdop>3.312</vdop><extensions><gom:speed>0.069</gom:speed></extensions></trkpt>
   <trkpt lat="59.3276712646" lon="34.6955671568"><ele>166.811</ele><time>2026-08-17T03:45:22.645Z</time><hdop>3.0</hdop><vdop>3.187</vdop><extensions><gom:speed>0.072</gom:speed></extensions></trkpt>
   <trkpt lat="59.3276710969" lon="34.6955675759"><ele>166.823</ele><time>2026-08-17T03:45:23.653Z</time><hdop>3.0</hdop><vdop>3.125</vdop><extensions><gom:speed>0.072</gom:speed></extensions></trkpt>
   <trkpt lat="59.3276710969" lon="34.6955677435"><ele>166.83</ele><time>2026-08-17T03:45:24.645Z</time><hdop>3.0</hdop><vdop>3.062</vdop><extensions><gom:speed>0.075</gom:speed></extensions></trkpt>
   <trkpt lat="59.3276709712" lon="34.6955680788"><ele>166.834</ele><time>2026-08-17T03:45:25.644Z</time><hdop>3.0</hdop><vdop>3.0</vdop><extensions><gom:speed>0.075</gom:speed></extensions></trkpt>
   <trkpt lat="59.3276708874" lon="34.6955686655"><ele>166.837</ele><time>2026-08-17T03:45:26.645Z</time><hdop>3.0</hdop><vdop>3.0</vdop><extensions><gom:speed>0.071</gom:speed></extensions></trkpt>
   <trkpt lat="59.3276708874" lon="34.6955686655"><ele>166.838</ele><time>2026-08-17T03:45:27.644Z</time><hdop>3.0</hdop><vdop>2.937</vdop><extensions><gom:speed>0.071</gom:speed></extensions></trkpt>
   <trkpt lat="59.3276706778" lon="34.695568917"><ele>166.838</ele><time>2026-08-17T03:45:28.652Z</time><hdop>3.0</hdop><vdop>2.875</vdop><extensions><gom:speed>0.072</gom:speed></extensions></trkpt>
   <trkpt lat="59.327670594" lon="34.6955691684"><ele>166.837</ele><time>2026-08-17T03:45:29.652Z</time><hdop>3.0</hdop><vdop>2.75</vdop><extensions><gom:speed>0.072</gom:speed></extensions></trkpt>
   <trkpt lat="59.3276704683" lon="34.6955693361"><ele>166.856</ele><time>2026-08-17T03:45:30.653Z</time><hdop>3.0</hdop><vdop>3.0</vdop><extensions><gom:speed>0.072</gom:speed></extensions></trkpt>
   <trkpt lat="59.3276704683" lon="34.6955695875"><ele>166.882</ele><time>2026-08-17T03:45:31.653Z</time><hdop>3.0</hdop><vdop>3.062</vdop><extensions><gom:speed>0.073</gom:speed></extensions></trkpt>
   <trkpt lat="59.3276704683" lon="34.6955697552"><ele>166.911</ele><time>2026-08-17T03:45:32.652Z</time><hdop>3.0</hdop><vdop>3.125</vdop><extensions><gom:speed>0.075</gom:speed></extensions></trkpt>
   <trkpt lat="59.3276704683" lon="34.6955700904"><ele>166.929</ele><time>2026-08-17T03:45:33.656Z</time><hdop>3.0</hdop><vdop>3.062</vdop><extensions><gom:speed>0.074</gom:speed></extensions></trkpt>
   <trkpt lat="59.3276704683" lon="34.6955704257"><ele>166.945</ele><time>2026-08-17T03:45:34.652Z</time><hdop>3.0</hdop><vdop>2.812</vdop><extensions><gom:speed>0.072</gom:speed></extensions></trkpt>
   <trkpt lat="59.3276704683" lon="34.6955710963"><ele>166.954</ele><time>2026-08-17T03:45:35.652Z</time><hdop>3.0</hdop><vdop>2.812</vdop><extensions><gom:speed>0.126</gom:speed></extensions></trkpt>
   <trkpt lat="59.327670594" lon="34.695571683"><ele>166.96</ele><time>2026-08-17T03:45:36.644Z</time><hdop>3.0</hdop><vdop>2.812</vdop><extensions><gom:speed>0.091</gom:speed></extensions></trkpt>
   <trkpt lat="59.3276708874" lon="34.6955719345"><ele>166.968</ele><time>2026-08-17T03:45:37.644Z</time><hdop>3.0</hdop><vdop>2.687</vdop><extensions><gom:speed>0.078</gom:speed></extensions></trkpt>
   <trkpt lat="59.3276707616" lon="34.6955720183"><ele>166.973</ele><time>2026-08-17T03:45:38.653Z</time><hdop>3.0</hdop><vdop>2.687</vdop><extensions><gom:speed>0.078</gom:speed></extensions></trkpt>
   <trkpt lat="59.3276707616" lon="34.695571683"><ele>166.975</ele><time>2026-08-17T03:45:39.652Z</time><hdop>3.0</hdop><vdop>2.625</vdop><extensions><gom:speed>0.069</gom:speed></extensions></trkpt>
   <trkpt lat="59.3276707616" lon="34.6955710963"><ele>166.977</ele><time>2026-08-17T03:45:40.652Z</time><hdop>3.0</hdop><vdop>2.5</vdop><extensions><gom:speed>0.067</gom:speed></extensions></trkpt>
   <trkpt lat="59.3276710969" lon="34.6955706772"><ele>166.978</ele><time>2026-08-17T03:45:41.645Z</time><hdop>3.0</hdop><vdop>2.5</vdop><extensions><gom:speed>0.064</gom:speed></extensions></trkpt>
   <trkpt lat="59.3276709712" lon="34.6955705933"><ele>166.973</ele><time>2026-08-17T03:45:42.653Z</time><hdop>3.0</hdop><vdop>2.562</vdop><extensions><gom:speed>0.065</gom:speed></extensions></trkpt>
   <trkpt lat="59.3276711807" lon="34.6955703419"><ele>166.967</ele><time>2026-08-17T03:45:43.645Z</time><hdop>3.0</hdop><vdop>2.687</vdop><extensions><gom:speed>0.068</gom:speed></extensions></trkpt>
   <trkpt lat="59.3276711807" lon="34.6955702581"><ele>166.955</ele><time>2026-08-17T03:45:44.645Z</time><hdop>3.0</hdop><vdop>2.875</vdop><extensions><gom:speed>0.071</gom:speed></extensions></trkpt>
   <trkpt lat="59.3276710969" lon="34.6955701743"><ele>166.952</ele><time>2026-08-17T03:45:45.655Z</time><hdop>3.0</hdop><vdop>2.812</vdop><extensions><gom:speed>0.071</gom:speed></extensions></trkpt>
   <trkpt lat="59.3276710969" lon="34.6955699228"><ele>166.949</ele><time>2026-08-17T03:45:46.652Z</time><hdop>3.0</hdop><vdop>2.812</vdop><extensions><gom:speed>0.071</gom:speed></extensions></trkpt>
   <trkpt lat="59.3276710969" lon="34.6955697552"><ele>166.948</ele><time>2026-08-17T03:45:47.645Z</time><hdop>3.0</hdop><vdop>2.875</vdop><extensions><gom:speed>0.073</gom:speed></extensions></trkpt>
   <trkpt lat="59.3276709712" lon="34.6955695875"><ele>166.95</ele><time>2026-08-17T03:45:48.652Z</time><hdop>3.0</hdop><vdop>2.937</vdop><extensions><gom:speed>0.073</gom:speed></extensions></trkpt>
   <trkpt lat="59.3276709712" lon="34.6955693361"><ele>166.952</ele><time>2026-08-17T03:45:49.652Z</time><hdop>3.0</hdop><vdop>3.0</vdop><extensions><gom:speed>0.072</gom:speed></extensions></trkpt>
   <trkpt lat="59.3276710969" lon="34.6955694199"><ele>166.953</ele><time>2026-08-17T03:45:50.652Z</time><hdop>3.0</hdop><vdop>3.062</vdop><extensions><gom:speed>0.07</gom:speed></extensions></trkpt>
   <trkpt lat="59.3276710969" lon="34.6955692522"><ele>166.955</ele><time>2026-08-17T03:45:51.652Z</time><hdop>3.0</hdop><vdop>3.125</vdop><extensions><gom:speed>0.069</gom:speed></extensions></trkpt>
   <trkpt lat="59.3276710969" lon="34.6955690846"><ele>166.956</ele><time>2026-08-17T03:45:52.652Z</time><hdop>3.0</hdop><vdop>3.125</vdop><extensions><gom:speed>0.07</gom:speed></extensions></trkpt>
   <trkpt lat="59.3276710969" lon="34.6955688331"><ele>166.958</ele><time>2026-08-17T03:45:53.653Z</time><hdop>3.0</hdop><vdop>3.062</vdop><extensions><gom:speed>0.069</gom:speed></extensions></trkpt>
   <trkpt lat="59.3276711807" lon="34.6955687493"><ele>166.958</ele><time>2026-08-17T03:45:54.659Z</time><hdop>3.0</hdop><vdop>2.937</vdop><extensions><gom:speed>0.07</gom:speed></extensions></trkpt>
   <trkpt lat="59.3276711807" lon="34.6955687493"><ele>166.959</ele><time>2026-08-17T03:45:55.652Z</time><hdop>3.0</hdop><vdop>2.75</vdop><extensions><gom:speed>0.067</gom:speed></extensions></trkpt>
   <trkpt lat="59.3276712646" lon="34.6955687493"><ele>166.959</ele><time>2026-08-17T03:45:56.663Z</time><hdop>3.0</hdop><vdop>2.625</vdop><extensions><gom:speed>0.067</gom:speed></extensions></trkpt>
   <trkpt lat="59.3276715998" lon="34.6955690846"><ele>166.959</ele><time>2026-08-17T03:45:57.652Z</time><hdop>3.0</hdop><vdop>2.5</vdop><extensions><gom:speed>0.064</gom:speed></extensions></trkpt>
   <trkpt lat="59.3276716837" lon="34.6955692522"><ele>166.959</ele><time>2026-08-17T03:45:58.652Z</time><hdop>3.0</hdop><vdop>2.562</vdop><extensions><gom:speed>0.065</gom:speed></extensions></trkpt>
   <trkpt lat="59.3276716837" lon="34.6955692522"><ele>166.96</ele><time>2026-08-17T03:45:59.652Z</time><hdop>3.0</hdop><vdop>2.75</vdop><extensions><gom:speed>0.068</gom:speed></extensions></trkpt>
   <trkpt lat="59.3276716837" lon="34.6955693361"><ele>166.959</ele><time>2026-08-17T03:46:00.649Z</time><hdop>3.0</hdop><vdop>2.937</vdop><extensions><gom:speed>0.069</gom:speed></extensions></trkpt>
   <trkpt lat="59.3276717675" lon="34.6955694199"><ele>166.959</ele><time>2026-08-17T03:46:01.662Z</time><hdop>3.0</hdop><vdop>2.812</vdop><extensions><gom:speed>0.072</gom:speed></extensions></trkpt>
   <trkpt lat="59.3276717675" lon="34.6955693361"><ele>166.959</ele><time>2026-08-17T03:46:02.653Z</time><hdop>3.0</hdop><vdop>2.75</vdop><extensions><gom:speed>0.073</gom:speed></extensions></trkpt>
   <trkpt lat="59.3276716837" lon="34.6955693361"><ele>166.958</ele><time>2026-08-17T03:46:03.664Z</time><hdop>3.0</hdop><vdop>2.875</vdop><extensions><gom:speed>0.071</gom:speed></extensions></trkpt>
   <trkpt lat="59.3276716837" lon="34.6955693361"><ele>166.957</ele><time>2026-08-17T03:46:04.655Z</time><hdop>3.0</hdop><vdop>2.812</vdop><extensions><gom:speed>0.071</gom:speed></extensions></trkpt>
   <trkpt lat="59.3276717675" lon="34.695568917"><ele>166.95</ele><time>2026-08-17T03:46:05.652Z</time><hdop>3.0</hdop><vdop>2.75</vdop><extensions><gom:speed>0.069</gom:speed></extensions></trkpt>
   <trkpt lat="59.3276718932" lon="34.6955688331"><ele>166.946</ele><time>2026-08-17T03:46:06.659Z</time><hdop>3.0</hdop><vdop>2.5</vdop><extensions><gom:speed>0.069</gom:speed></extensions></trkpt>
   <trkpt lat="59.327671977" lon="34.6955692522"><ele>166.945</ele><time>2026-08-17T03:46:07.652Z</time><hdop>3.0</hdop><vdop>2.5</vdop><extensions><gom:speed>0.072</gom:speed></extensions></trkpt>
   <trkpt lat="59.3276720608" lon="34.6955694199"><ele>166.944</ele><time>2026-08-17T03:46:08.652Z</time><hdop>3.0</hdop><vdop>2.5</vdop><extensions><gom:speed>0.068</gom:speed></extensions></trkpt>
   <trkpt lat="59.3276721866" lon="34.6955695875"><ele>166.943</ele><time>2026-08-17T03:46:09.652Z</time><hdop>3.0</hdop><vdop>2.5</vdop><extensions><gom:speed>0.069</gom:speed></extensions></trkpt>
   <trkpt lat="59.3276721866" lon="34.6955695875"><ele>166.941</ele><time>2026-08-17T03:46:10.652Z</time><hdop>3.0</hdop><vdop>2.5</vdop><extensions><gom:speed>0.068</gom:speed></extensions></trkpt>
   <trkpt lat="59.3276722704" lon="34.6955696713"><ele>166.94</ele><time>2026-08-17T03:46:11.652Z</time><hdop>3.0</hdop><vdop>2.5</vdop><extensions><gom:speed>0.067</gom:speed></extensions></trkpt>
   <trkpt lat="59.3276723961" lon="34.6955696713"><ele>166.933</ele><time>2026-08-17T03:46:12.652Z</time><hdop>3.0</hdop><vdop>2.5</vdop><extensions><gom:speed>0.067</gom:speed></extensions></trkpt>
   <trkpt lat="59.3276724799" lon="34.6955696713"><ele>166.924</ele><time>2026-08-17T03:46:13.645Z</time><hdop>3.0</hdop><vdop>2.5</vdop><extensions><gom:speed>0.068</gom:speed></extensions></trkpt>
   <trkpt lat="59.3276725638" lon="34.6955695875"><ele>166.915</ele><time>2026-08-17T03:46:14.652Z</time><hdop>3.0</hdop><vdop>2.5</vdop><extensions><gom:speed>0.068</gom:speed></extensions></trkpt>
   <trkpt lat="59.3276726895" lon="34.6955696713"><ele>166.907</ele><time>2026-08-17T03:46:15.652Z</time><hdop>3.0</hdop><vdop>2.5</vdop><extensions><gom:speed>0.068</gom:speed></extensions></trkpt>
   <trkpt lat="59.3276727733" lon="34.6955696713"><ele>166.897</ele><time>2026-08-17T03:46:16.652Z</time><hdop>3.0</hdop><vdop>2.5</vdop><extensions><gom:speed>0.069</gom:speed></extensions></trkpt>
   <trkpt lat="59.327672899" lon="34.6955697552"><ele>166.888</ele><time>2026-08-17T03:46:17.652Z</time><hdop>3.0</hdop><vdop>2.5</vdop><extensions><gom:speed>0.069</gom:speed></extensions></trkpt>
   <trkpt lat="59.3276731924" lon="34.695569839"><ele>166.879</ele><time>2026-08-17T03:46:18.652Z</time><hdop>3.0</hdop><vdop>2.5</vdop><extensions><gom:speed>0.068</gom:speed></extensions></trkpt>
   <trkpt lat="59.3276732762" lon="34.6955700904"><ele>166.871</ele><time>2026-08-17T03:46:19.653Z</time><hdop>3.0</hdop><vdop>2.5</vdop><extensions><gom:speed>0.068</gom:speed></extensions></trkpt>
   <trkpt lat="59.3276734858" lon="34.6955701743"><ele>166.86</ele><time>2026-08-17T03:46:20.652Z</time><hdop>3.0</hdop><vdop>2.5</vdop><extensions><gom:speed>0.069</gom:speed></extensions></trkpt>
   <trkpt lat="59.3276735696" lon="34.6955703419"><ele>166.853</ele><time>2026-08-17T03:46:21.652Z</time><hdop>3.0</hdop><vdop>2.5</vdop><extensions><gom:speed>0.07</gom:speed></extensions></trkpt>
   <trkpt lat="59.3276736953" lon="34.6955706772"><ele>166.846</ele><time>2026-08-17T03:46:22.652Z</time><hdop>3.0</hdop><vdop>2.5</vdop><extensions><gom:speed>0.07</gom:speed></extensions></trkpt>
   <trkpt lat="59.3276737791" lon="34.6955708448"><ele>166.844</ele><time>2026-08-17T03:46:23.653Z</time><hdop>3.0</hdop><vdop>2.5</vdop><extensions><gom:speed>0.071</gom:speed></extensions></trkpt>
   <trkpt lat="59.3276741982" lon="34.6955714315"><ele>166.841</ele><time>2026-08-17T03:46:24.652Z</time><hdop>3.0</hdop><vdop>2.5</vdop><extensions><gom:speed>0.071</gom:speed></extensions></trkpt>
   <trkpt lat="59.327674282" lon="34.695571683"><ele>166.837</ele><time>2026-08-17T03:46:25.652Z</time><hdop>3.0</hdop><vdop>2.5</vdop><extensions><gom:speed>0.068</gom:speed></extensions></trkpt>
   <trkpt lat="59.3276743659" lon="34.6955717668"><ele>166.832</ele><time>2026-08-17T03:46:26.644Z</time><hdop>3.0</hdop><vdop>2.5</vdop><extensions><gom:speed>0.066</gom:speed></extensions></trkpt>
   <trkpt lat="59.3276744916" lon="34.6955720183"><ele>166.83</ele><time>2026-08-17T03:46:27.652Z</time><hdop>3.0</hdop><vdop>2.5</vdop><extensions><gom:speed>0.066</gom:speed></extensions></trkpt>
   <trkpt lat="59.3276746592" lon="34.6955723535"><ele>166.83</ele><time>2026-08-17T03:46:28.652Z</time><hdop>3.0</hdop><vdop>2.5</vdop><extensions><gom:speed>0.067</gom:speed></extensions></trkpt>
   <trkpt lat="59.327674785" lon="34.6955724374"><ele>166.831</ele><time>2026-08-17T03:46:29.652Z</time><hdop>3.0</hdop><vdop>2.5</vdop><extensions><gom:speed>0.066</gom:speed></extensions></trkpt>
   <trkpt lat="59.3276748688" lon="34.6955726888"><ele>166.83</ele><time>2026-08-17T03:46:30.657Z</time><hdop>3.0</hdop><vdop>2.5</vdop><extensions><gom:speed>0.11</gom:speed></extensions></trkpt>
   <trkpt lat="59.3276752879" lon="34.6955734432"><ele>166.822</ele><time>2026-08-17T03:46:31.645Z</time><hdop>3.0</hdop><vdop>2.5</vdop><extensions><gom:speed>0.075</gom:speed></extensions></trkpt>
   <trkpt lat="59.3276753717" lon="34.6955736947"><ele>166.828</ele><time>2026-08-17T03:46:32.652Z</time><hdop>3.0</hdop><vdop>2.5</vdop><extensions><gom:speed>0.074</gom:speed></extensions></trkpt>
   <trkpt lat="59.3276756651" lon="34.6955742814"><ele>166.828</ele><time>2026-08-17T03:46:33.652Z</time><hdop>3.0</hdop><vdop>2.5</vdop><extensions><gom:speed>0.07</gom:speed></extensions></trkpt>
   <trkpt lat="59.3276759584" lon="34.6955749519"><ele>166.832</ele><time>2026-08-17T03:46:34.652Z</time><hdop>3.0</hdop><vdop>2.5</vdop><extensions><gom:speed>0.065</gom:speed></extensions></trkpt>
   <trkpt lat="59.327676168" lon="34.695575371"><ele>166.833</ele><time>2026-08-17T03:46:35.652Z</time><hdop>3.0</hdop><vdop>2.5</vdop><extensions><gom:speed>0.066</gom:speed></extensions></trkpt>
   <trkpt lat="59.3276763775" lon="34.6955758739"><ele>166.841</ele><time>2026-08-17T03:46:36.652Z</time><hdop>3.0</hdop><vdop>2.5</vdop><extensions><gom:speed>0.064</gom:speed></extensions></trkpt>
   <trkpt lat="59.3276767966" lon="34.695576796"><ele>166.846</ele><time>2026-08-17T03:46:37.652Z</time><hdop>3.0</hdop><vdop>2.5</vdop><extensions><gom:speed>0.218</gom:speed></extensions></trkpt>
   <trkpt lat="59.3276774672" lon="34.6955781371"><ele>166.85</ele><time>2026-08-17T03:46:38.652Z</time><hdop>3.0</hdop><vdop>2.5</vdop><extensions><gom:speed>0.085</gom:speed></extensions></trkpt>
   <trkpt lat="59.3276775929" lon="34.6955791429"><ele>166.849</ele><time>2026-08-17T03:46:39.644Z</time><hdop>3.0</hdop><vdop>2.5</vdop><extensions><gom:speed>0.064</gom:speed></extensions></trkpt>
   <trkpt lat="59.3276777605" lon="34.6955794782"><ele>166.845</ele><time>2026-08-17T03:46:40.652Z</time><hdop>3.0</hdop><vdop>2.5</vdop><extensions><gom:speed>0.064</gom:speed></extensions></trkpt>
   <trkpt lat="59.3276779701" lon="34.6955799811"><ele>166.843</ele><time>2026-08-17T03:46:41.652Z</time><hdop>3.0</hdop><vdop>2.5</vdop><extensions><gom:speed>0.062</gom:speed></extensions></trkpt>
   <trkpt lat="59.3276782634" lon="34.6955803164"><ele>166.841</ele><time>2026-08-17T03:46:42.676Z</time><hdop>3.0</hdop><vdop>2.5</vdop><extensions><gom:speed>0.061</gom:speed></extensions></trkpt>
   <trkpt lat="59.3276786825" lon="34.6955810707"><ele>166.791</ele><time>2026-08-17T03:46:43.645Z</time><hdop>3.0</hdop><vdop>2.5</vdop><extensions><gom:speed>0.314</gom:speed></extensions></trkpt>
   <trkpt lat="59.3276802751" lon="34.6955817413"><ele>166.76</ele><time>2026-08-17T03:46:44.652Z</time><hdop>3.0</hdop><vdop>2.5</vdop><extensions><gom:speed>0.344</gom:speed></extensions></trkpt>
   <trkpt lat="59.3276811971" lon="34.6955824956"><ele>166.742</ele><time>2026-08-17T03:46:45.600Z</time><hdop>3.0</hdop><vdop>2.5</vdop><extensions><gom:speed>0.098</gom:speed></extensions></trkpt>
   <trkpt lat="59.3276814905" lon="34.6955831662"><ele>166.569</ele><time>2026-08-17T03:46:46.419Z</time><hdop>3.0</hdop><vdop>2.5</vdop><extensions><gom:speed>0.205</gom:speed></extensions></trkpt>
   <trkpt lat="59.3276832926" lon="34.6955849264"><ele>166.307</ele><time>2026-08-17T03:46:47.087Z</time><hdop>3.0</hdop><vdop>2.5</vdop><extensions><gom:speed>0.367</gom:speed></extensions></trkpt>
   <trkpt lat="59.327684969" lon="34.6955868542"><ele>166.178</ele><time>2026-08-17T03:46:47.652Z</time><hdop>3.0</hdop><vdop>2.5</vdop><extensions><gom:speed>0.422</gom:speed></extensions></trkpt>
   <trkpt lat="59.3276891599" lon="34.6955942303"><ele>166.114</ele><time>2026-08-17T03:46:48.645Z</time><hdop>3.0</hdop><vdop>2.5</vdop><extensions><gom:speed>0.07</gom:speed></extensions></trkpt>
   <trkpt lat="59.3276902915" lon="34.6955967449"><ele>166.076</ele><time>2026-08-17T03:46:49.545Z</time><hdop>3.0</hdop><vdop>2.5</vdop><extensions><gom:speed>0.107</gom:speed></extensions></trkpt>
   <trkpt lat="59.3276934766" lon="34.695603618"><ele>166.131</ele><time>2026-08-17T03:46:50.203Z</time><hdop>3.0</hdop><vdop>2.5</vdop><extensions><gom:speed>0.143</gom:speed></extensions></trkpt>
   <trkpt lat="59.3276973742" lon="34.6956128381"><ele>166.027</ele><time>2026-08-17T03:46:50.921Z</time><hdop>3.0</hdop><vdop>2.5</vdop><extensions><gom:speed>0.18</gom:speed></extensions></trkpt>
   <trkpt lat="59.3276996792" lon="34.6956183702"><ele>165.667</ele><time>2026-08-17T03:46:51.652Z</time><hdop>3.0</hdop><vdop>2.5</vdop><extensions><gom:speed>0.184</gom:speed></extensions></trkpt>
   <trkpt lat="59.3277064686" lon="34.6956355531"><ele>165.441</ele><time>2026-08-17T03:46:52.652Z</time><hdop>3.0</hdop><vdop>2.5</vdop><extensions><gom:speed>0.205</gom:speed></extensions></trkpt>
   <trkpt lat="59.3277130903" lon="34.6956500538"><ele>165.307</ele><time>2026-08-17T03:46:53.542Z</time><hdop>3.0</hdop><vdop>2.5</vdop><extensions><gom:speed>0.216</gom:speed></extensions></trkpt>
   <trkpt lat="59.3277177841" lon="34.6956590224"><ele>165.361</ele><time>2026-08-17T03:46:54.321Z</time><hdop>3.0</hdop><vdop>2.5</vdop><extensions><gom:speed>0.201</gom:speed></extensions></trkpt>
   <trkpt lat="59.3277221846" lon="34.6956687454"><ele>165.267</ele><time>2026-08-17T03:46:55.221Z</time><hdop>3.0</hdop><vdop>2.5</vdop><extensions><gom:speed>0.207</gom:speed></extensions></trkpt>
   <trkpt lat="59.3277260822" lon="34.6956803963"><ele>164.957</ele><time>2026-08-17T03:46:55.900Z</time><hdop>3.0</hdop><vdop>2.5</vdop><extensions><gom:speed>0.221</gom:speed></extensions></trkpt>
   <trkpt lat="59.3277271719" lon="34.695684671"><ele>164.771</ele><time>2026-08-17T03:46:56.658Z</time><hdop>3.0</hdop><vdop>2.5</vdop><extensions><gom:speed>0.241</gom:speed></extensions></trkpt>
   <trkpt lat="59.3277296864" lon="34.695694897"><ele>164.574</ele><time>2026-08-17T03:46:57.620Z</time><hdop>3.0</hdop><vdop>2.562</vdop><extensions><gom:speed>0.246</gom:speed></extensions></trkpt>
   <trkpt lat="59.3277329973" lon="34.6957058773"><ele>164.654</ele><time>2026-08-17T03:46:58.661Z</time><hdop>3.0</hdop><vdop>2.5</vdop><extensions><gom:speed>0.244</gom:speed></extensions></trkpt>
   <trkpt lat="59.3277366853" lon="34.6957173605"><ele>164.724</ele><time>2026-08-17T03:46:59.319Z</time><hdop>3.0</hdop><vdop>2.5</vdop><extensions><gom:speed>0.301</gom:speed></extensions></trkpt>
   <trkpt lat="59.3277416725" lon="34.6957346272"><ele>164.609</ele><time>2026-08-17T03:47:00.482Z</time><hdop>3.0</hdop><vdop>2.75</vdop><extensions><gom:speed>0.366</gom:speed></extensions></trkpt>
   <trkpt lat="59.3277453606" lon="34.6957497984"><ele>164.372</ele><time>2026-08-17T03:47:01.342Z</time><hdop>3.0</hdop><vdop>2.937</vdop><extensions><gom:speed>0.378</gom:speed></extensions></trkpt>
   <trkpt lat="59.3277469951" lon="34.6957577612"><ele>164.157</ele><time>2026-08-17T03:47:01.839Z</time><hdop>3.0</hdop><vdop>3.125</vdop><extensions><gom:speed>0.349</gom:speed></extensions></trkpt>
   <trkpt lat="59.3277495934" lon="34.6957707532"><ele>164.029</ele><time>2026-08-17T03:47:02.445Z</time><hdop>3.0</hdop><vdop>3.125</vdop><extensions><gom:speed>0.392</gom:speed></extensions></trkpt>
   <trkpt lat="59.3277524852" lon="34.6957846672"><ele>163.951</ele><time>2026-08-17T03:47:03.204Z</time><hdop>3.0</hdop><vdop>3.25</vdop><extensions><gom:speed>0.5</gom:speed></extensions></trkpt>
   <trkpt lat="59.3277541616" lon="34.6957915403"><ele>163.756</ele><time>2026-08-17T03:47:03.659Z</time><hdop>3.0</hdop><vdop>3.25</vdop><extensions><gom:speed>0.508</gom:speed></extensions></trkpt>
   <trkpt lat="59.327759987" lon="34.6958124951"><ele>163.675</ele><time>2026-08-17T03:47:04.645Z</time><hdop>3.0</hdop><vdop>3.5</vdop><extensions><gom:speed>0.57</gom:speed></extensions></trkpt>
   <trkpt lat="59.3277624597" lon="34.6958200388"><ele>163.627</ele><time>2026-08-17T03:47:05.561Z</time><hdop>3.0</hdop><vdop>3.5</vdop><extensions><gom:speed>0.438</gom:speed></extensions></trkpt>
   <trkpt lat="59.3277644713" lon="34.6958301809"><ele>163.282</ele><time>2026-08-17T03:47:06.654Z</time><hdop>3.0</hdop><vdop>3.625</vdop><extensions><gom:speed>0.348</gom:speed></extensions></trkpt>
   <trkpt lat="59.3277661896" lon="34.6958448492"><ele>163.32</ele><time>2026-08-17T03:47:07.200Z</time><hdop>3.0</hdop><vdop>3.687</vdop><extensions><gom:speed>0.44</gom:speed></extensions></trkpt>
   <trkpt lat="59.3277668602" lon="34.6958497945"><ele>162.834</ele><time>2026-08-17T03:47:07.652Z</time><hdop>3.0</hdop><vdop>3.687</vdop><extensions><gom:speed>0.37</gom:speed></extensions></trkpt>
   <trkpt lat="59.3277677822" lon="34.6958622836"><ele>162.544</ele><time>2026-08-17T03:47:08.567Z</time><hdop>3.0</hdop><vdop>3.687</vdop><extensions><gom:speed>0.414</gom:speed></extensions></trkpt>
   <trkpt lat="59.3277676984" lon="34.695871336"><ele>162.345</ele><time>2026-08-17T03:47:09.183Z</time><hdop>3.0</hdop><vdop>3.312</vdop><extensions><gom:speed>0.412</gom:speed></extensions></trkpt>
   <trkpt lat="59.327767866" lon="34.6958756946"><ele>162.533</ele><time>2026-08-17T03:47:09.652Z</time><hdop>3.0</hdop><vdop>3.0</vdop><extensions><gom:speed>0.351</gom:speed></extensions></trkpt>
   <trkpt lat="59.3277682851" lon="34.695884328"><ele>162.619</ele><time>2026-08-17T03:47:10.652Z</time><hdop>3.0</hdop><vdop>3.062</vdop><extensions><gom:speed>0.296</gom:speed></extensions></trkpt>
   <trkpt lat="59.3277693747" lon="34.6958962303"><ele>162.67</ele><time>2026-08-17T03:47:11.651Z</time><hdop>3.0</hdop><vdop>3.062</vdop><extensions><gom:speed>0.417</gom:speed></extensions></trkpt>
   <trkpt lat="59.3277684946" lon="34.6959032711"><ele>163.15</ele><time>2026-08-17T03:47:12.652Z</time><hdop>3.0</hdop><vdop>2.875</vdop><extensions><gom:speed>0.223</gom:speed></extensions></trkpt>
   <trkpt lat="59.3277679917" lon="34.6959158439"><ele>163.436</ele><time>2026-08-17T03:47:13.624Z</time><hdop>3.0</hdop><vdop>2.875</vdop><extensions><gom:speed>0.338</gom:speed></extensions></trkpt>
   <trkpt lat="59.3277670697" lon="34.695925064"><ele>163.319</ele><time>2026-08-17T03:47:14.585Z</time><hdop>3.0</hdop><vdop>2.937</vdop><extensions><gom:speed>0.271</gom:speed></extensions></trkpt>
   <trkpt lat="59.3277668602" lon="34.695938056"><ele>163.539</ele><time>2026-08-17T03:47:15.263Z</time><hdop>3.0</hdop><vdop>2.937</vdop><extensions><gom:speed>0.351</gom:speed></extensions></trkpt>
   <trkpt lat="59.3277659801" lon="34.6959562447"><ele>163.505</ele><time>2026-08-17T03:47:16.610Z</time><hdop>3.0</hdop><vdop>3.062</vdop><extensions><gom:speed>0.376</gom:speed></extensions></trkpt>
   <trkpt lat="59.3277650581" lon="34.6959759422"><ele>163.704</ele><time>2026-08-17T03:47:17.661Z</time><hdop>3.0</hdop><vdop>3.0</vdop><extensions><gom:speed>0.316</gom:speed></extensions></trkpt>
   <trkpt lat="59.3277651838" lon="34.6960013394"><ele>164.012</ele><time>2026-08-17T03:47:18.481Z</time><hdop>3.0</hdop><vdop>3.062</vdop><extensions><gom:speed>0.544</gom:speed></extensions></trkpt>
   <trkpt lat="59.3277659801" lon="34.6960213721"><ele>164.185</ele><time>2026-08-17T03:47:19.260Z</time><hdop>3.0</hdop><vdop>3.062</vdop><extensions><gom:speed>0.496</gom:speed></extensions></trkpt>
   <trkpt lat="59.3277683689" lon="34.6960425783"><ele>164.217</ele><time>2026-08-17T03:47:19.998Z</time><hdop>3.0</hdop><vdop>2.937</vdop><extensions><gom:speed>0.458</gom:speed></extensions></trkpt>
   <trkpt lat="59.327767866" lon="34.6960442547"><ele>164.212</ele><time>2026-08-17T03:47:20.652Z</time><hdop>3.0</hdop><vdop>2.875</vdop><extensions><gom:speed>0.234</gom:speed></extensions></trkpt>
   <trkpt lat="59.3277688718" lon="34.6960548997"><ele>164.209</ele><time>2026-08-17T03:47:21.647Z</time><hdop>3.0</hdop><vdop>2.875</vdop><extensions><gom:speed>0.309</gom:speed></extensions></trkpt>
   <trkpt lat="59.3277720989" lon="34.6960705739"><ele>164.336</ele><time>2026-08-17T03:47:22.517Z</time><hdop>3.0</hdop><vdop>2.875</vdop><extensions><gom:speed>0.234</gom:speed></extensions></trkpt>
   <trkpt lat="59.327773398" lon="34.6960817218"><ele>164.478</ele><time>2026-08-17T03:47:23.225Z</time><hdop>3.0</hdop><vdop>2.812</vdop><extensions><gom:speed>0.289</gom:speed></extensions></trkpt>
   <trkpt lat="59.3277747811" lon="34.69609924"><ele>164.694</ele><time>2026-08-17T03:47:24.045Z</time><hdop>3.0</hdop><vdop>2.937</vdop><extensions><gom:speed>0.429</gom:speed></extensions></trkpt>
   <trkpt lat="59.3277749906" lon="34.6961067837"><ele>165.043</ele><time>2026-08-17T03:47:24.652Z</time><hdop>3.0</hdop><vdop>3.0</vdop><extensions><gom:speed>0.322</gom:speed></extensions></trkpt>
   <trkpt lat="59.3277767927" lon="34.6961308398"><ele>165.251</ele><time>2026-08-17T03:47:25.623Z</time><hdop>3.0</hdop><vdop>3.0</vdop><extensions><gom:speed>0.469</gom:speed></extensions></trkpt>
   <trkpt lat="59.3277788882" lon="34.6961457595"><ele>165.45</ele><time>2026-08-17T03:47:26.301Z</time><hdop>3.0</hdop><vdop>3.062</vdop><extensions><gom:speed>0.486</gom:speed></extensions></trkpt>
   <trkpt lat="59.3277804808" lon="34.6961573266"><ele>165.648</ele><time>2026-08-17T03:47:26.827Z</time><hdop>3.0</hdop><vdop>3.25</vdop><extensions><gom:speed>0.477</gom:speed></extensions></trkpt>
   <trkpt lat="59.3277815704" lon="34.6961758506"><ele>165.857</ele><time>2026-08-17T03:47:27.652Z</time><hdop>3.0</hdop><vdop>3.187</vdop><extensions><gom:speed>0.502</gom:speed></extensions></trkpt>
   <trkpt lat="59.3277823667" lon="34.6961933688"><ele>165.982</ele><time>2026-08-17T03:47:28.486Z</time><hdop>3.0</hdop><vdop>3.187</vdop><extensions><gom:speed>0.593</gom:speed></extensions></trkpt>
   <trkpt lat="59.3277839592" lon="34.6962061931"><ele>166.147</ele><time>2026-08-17T03:47:29.205Z</time><hdop>3.0</hdop><vdop>3.125</vdop><extensions><gom:speed>0.579</gom:speed></extensions></trkpt>
   <trkpt lat="59.3277867672" lon="34.696221029"><ele>166.05</ele><time>2026-08-17T03:47:29.984Z</time><hdop>3.0</hdop><vdop>3.187</vdop><extensions><gom:speed>0.552</gom:speed></extensions></trkpt>
   <trkpt lat="59.3277889884" lon="34.6962308359"><ele>166.066</ele><time>2026-08-17T03:47:30.645Z</time><hdop>3.0</hdop><vdop>3.187</vdop><extensions><gom:speed>0.576</gom:speed></extensions></trkpt>
   <trkpt lat="59.3277902876" lon="34.6962378767"><ele>165.976</ele><time>2026-08-17T03:47:31.652Z</time><hdop>3.0</hdop><vdop>3.187</vdop><extensions><gom:speed>0.369</gom:speed></extensions></trkpt>
   <trkpt lat="59.3277924669" lon="34.6962434925"><ele>165.923</ele><time>2026-08-17T03:47:32.656Z</time><hdop>3.0</hdop><vdop>3.187</vdop><extensions><gom:speed>0.309</gom:speed></extensions></trkpt>
   <trkpt lat="59.3277976637" lon="34.6962553948"><ele>165.908</ele><time>2026-08-17T03:47:33.652Z</time><hdop>3.0</hdop><vdop>3.0</vdop><extensions><gom:speed>0.267</gom:speed></extensions></trkpt>
   <trkpt lat="59.3278018965" lon="34.6962660399"><ele>165.793</ele><time>2026-08-17T03:47:34.652Z</time><hdop>3.0</hdop><vdop>3.0</vdop><extensions><gom:speed>0.277</gom:speed></extensions></trkpt>
   <trkpt lat="59.3278057941" lon="34.6962758467"><ele>165.724</ele><time>2026-08-17T03:47:35.245Z</time><hdop>3.0</hdop><vdop>3.0</vdop><extensions><gom:speed>0.373</gom:speed></extensions></trkpt>
   <trkpt lat="59.3278083925" lon="34.6962817978"><ele>165.696</ele><time>2026-08-17T03:47:35.761Z</time><hdop>3.0</hdop><vdop>2.687</vdop><extensions><gom:speed>0.317</gom:speed></extensions></trkpt>
   <trkpt lat="59.3278102784" lon="34.6962884195"><ele>165.679</ele><time>2026-08-17T03:47:36.580Z</time><hdop>3.0</hdop><vdop>2.687</vdop><extensions><gom:speed>0.349</gom:speed></extensions></trkpt>
   <trkpt lat="59.3278119967" lon="34.6962930296"><ele>166.005</ele><time>2026-08-17T03:47:37.239Z</time><hdop>3.0</hdop><vdop>2.562</vdop><extensions><gom:speed>0.268</gom:speed></extensions></trkpt>
   <trkpt lat="59.3278131702" lon="34.6962980587"><ele>166.088</ele><time>2026-08-17T03:47:37.956Z</time><hdop>3.0</hdop><vdop>2.5</vdop><extensions><gom:speed>0.24</gom:speed></extensions></trkpt>
   <trkpt lat="59.327816481" lon="34.6963101287"><ele>166.097</ele><time>2026-08-17T03:47:38.645Z</time><hdop>3.0</hdop><vdop>2.5</vdop><extensions><gom:speed>0.334</gom:speed></extensions></trkpt>
   <trkpt lat="59.327818367" lon="34.6963155769"><ele>166.395</ele><time>2026-08-17T03:47:39.657Z</time><hdop>3.0</hdop><vdop>2.5</vdop><extensions><gom:speed>0.269</gom:speed></extensions></trkpt>
   <trkpt lat="59.3278227675" lon="34.6963241264"><ele>166.572</ele><time>2026-08-17T03:47:40.566Z</time><hdop>3.0</hdop><vdop>2.5</vdop><extensions><gom:speed>0.333</gom:speed></extensions></trkpt>
   <trkpt lat="59.327826665" lon="34.6963287365"><ele>166.765</ele><time>2026-08-17T03:47:41.163Z</time><hdop>3.0</hdop><vdop>2.5</vdop><extensions><gom:speed>0.369</gom:speed></extensions></trkpt>
   <trkpt lat="59.3278285929" lon="34.6963312511"><ele>167.192</ele><time>2026-08-17T03:47:41.652Z</time><hdop>3.0</hdop><vdop>2.75</vdop><extensions><gom:speed>0.311</gom:speed></extensions></trkpt>
   <trkpt lat="59.3278334963" lon="34.6963399682"><ele>167.447</ele><time>2026-08-17T03:47:42.610Z</time><hdop>3.0</hdop><vdop>2.75</vdop><extensions><gom:speed>0.421</gom:speed></extensions></trkpt>
   <trkpt lat="59.3278423811" lon="34.6963514514"><ele>167.658</ele><time>2026-08-17T03:47:43.500Z</time><hdop>3.0</hdop><vdop>2.625</vdop><extensions><gom:speed>0.363</gom:speed></extensions></trkpt>
   <trkpt lat="59.3278467816" lon="34.6963545527"><ele>167.374</ele><time>2026-08-17T03:47:44.340Z</time><hdop>3.0</hdop><vdop>2.687</vdop><extensions><gom:speed>0.343</gom:speed></extensions></trkpt>
   <trkpt lat="59.3278521879" lon="34.6963584922"><ele>167.464</ele><time>2026-08-17T03:47:45.099Z</time><hdop>3.0</hdop><vdop>2.812</vdop><extensions><gom:speed>0.344</gom:speed></extensions></trkpt>
   <trkpt lat="59.3278537805" lon="34.6963599172"><ele>167.43</ele><time>2026-08-17T03:47:45.652Z</time><hdop>3.0</hdop><vdop>3.062</vdop><extensions><gom:speed>0.222</gom:speed></extensions></trkpt>
   <trkpt lat="59.3278589773" lon="34.6963652816"><ele>167.553</ele><time>2026-08-17T03:47:46.652Z</time><hdop>3.0</hdop><vdop>3.125</vdop><extensions><gom:speed>0.191</gom:speed></extensions></trkpt>
   <trkpt lat="59.3278684907" lon="34.6963729929"><ele>167.606</ele><time>2026-08-17T03:47:47.645Z</time><hdop>3.0</hdop><vdop>3.25</vdop><extensions><gom:speed>0.372</gom:speed></extensions></trkpt>
   <trkpt lat="59.3278753639" lon="34.6963788603"><ele>168.025</ele><time>2026-08-17T03:47:48.645Z</time><hdop>3.0</hdop><vdop>3.375</vdop><extensions><gom:speed>0.361</gom:speed></extensions></trkpt>
   <trkpt lat="59.3278773756" lon="34.6963800337"><ele>168.275</ele><time>2026-08-17T03:47:49.247Z</time><hdop>3.0</hdop><vdop>3.375</vdop><extensions><gom:speed>0.283</gom:speed></extensions></trkpt>
   <trkpt lat="59.3278852965" lon="34.6963865716"><ele>168.477</ele><time>2026-08-17T03:47:49.925Z</time><hdop>3.0</hdop><vdop>3.875</vdop><extensions><gom:speed>0.349</gom:speed></extensions></trkpt>
   <trkpt lat="59.3278898646" lon="34.69638917"><ele>168.309</ele><time>2026-08-17T03:47:50.644Z</time><hdop>3.0</hdop><vdop>3.625</vdop><extensions><gom:speed>0.377</gom:speed></extensions></trkpt>
   <trkpt lat="59.3278977855" lon="34.6963937801"><ele>168.076</ele><time>2026-08-17T03:47:51.645Z</time><hdop>3.0</hdop><vdop>3.562</vdop><extensions><gom:speed>0.521</gom:speed></extensions></trkpt>
   <trkpt lat="59.3279036947" lon="34.6963977196"><ele>167.936</ele><time>2026-08-17T03:47:52.606Z</time><hdop>3.0</hdop><vdop>3.562</vdop><extensions><gom:speed>0.507</gom:speed></extensions></trkpt>
   <trkpt lat="59.3279087658" lon="34.696403084"><ele>167.894</ele><time>2026-08-17T03:47:53.244Z</time><hdop>3.0</hdop><vdop>3.437</vdop><extensions><gom:speed>0.526</gom:speed></extensions></trkpt>
   <trkpt lat="59.3279173991" lon="34.6964119688"><ele>167.075</ele><time>2026-08-17T03:47:54.558Z</time><hdop>3.0</hdop><vdop>3.125</vdop><extensions><gom:speed>0.508</gom:speed></extensions></trkpt>
   <trkpt lat="59.3279259906" lon="34.696416495"><ele>167.152</ele><time>2026-08-17T03:47:55.440Z</time><hdop>3.0</hdop><vdop>3.0</vdop><extensions><gom:speed>0.527</gom:speed></extensions></trkpt>
   <trkpt lat="59.327933199" lon="34.6964195963"><ele>167.297</ele><time>2026-08-17T03:47:56.258Z</time><hdop>3.0</hdop><vdop>2.937</vdop><extensions><gom:speed>0.617</gom:speed></extensions></trkpt>
   <trkpt lat="59.3279383958" lon="34.6964242902"><ele>167.614</ele><time>2026-08-17T03:47:56.764Z</time><hdop>3.0</hdop><vdop>3.0</vdop><extensions><gom:speed>0.691</gom:speed></extensions></trkpt>
   <trkpt lat="59.3279419581" lon="34.696428565"><ele>167.804</ele><time>2026-08-17T03:47:57.219Z</time><hdop>3.0</hdop><vdop>3.0</vdop><extensions><gom:speed>0.703</gom:speed></extensions></trkpt>
   <trkpt lat="59.3279446822" lon="34.6964317501"><ele>168.631</ele><time>2026-08-17T03:47:57.745Z</time><hdop>3.0</hdop><vdop>3.062</vdop><extensions><gom:speed>0.606</gom:speed></extensions></trkpt>
   <trkpt lat="59.3279492923" lon="34.6964355219"><ele>169.419</ele><time>2026-08-17T03:47:58.657Z</time><hdop>3.0</hdop><vdop>3.0</vdop><extensions><gom:speed>0.403</gom:speed></extensions></trkpt>
   <trkpt lat="59.3279567941" lon="34.6964422275"><ele>170.088</ele><time>2026-08-17T03:47:59.645Z</time><hdop>3.0</hdop><vdop>3.062</vdop><extensions><gom:speed>0.483</gom:speed></extensions></trkpt>
   <trkpt lat="59.3279577999" lon="34.6964422275"><ele>170.487</ele><time>2026-08-17T03:48:00.377Z</time><hdop>3.0</hdop><vdop>3.062</vdop><extensions><gom:speed>0.419</gom:speed></extensions></trkpt>
   <trkpt lat="59.3279608593" lon="34.6964448258"><ele>170.304</ele><time>2026-08-17T03:48:01.681Z</time><hdop>3.0</hdop><vdop>2.812</vdop><extensions><gom:speed>0.258</gom:speed></extensions></trkpt>
   <trkpt lat="59.327960985" lon="34.6964499388"><ele>170.345</ele><time>2026-08-17T03:48:02.652Z</time><hdop>3.0</hdop><vdop>2.687</vdop><extensions><gom:speed>0.235</gom:speed></extensions></trkpt>
   <trkpt lat="59.3279610689" lon="34.6964542974"><ele>170.369</ele><time>2026-08-17T03:48:03.401Z</time><hdop>3.0</hdop><vdop>2.687</vdop><extensions><gom:speed>0.229</gom:speed></extensions></trkpt>
   <trkpt lat="59.3279643797" lon="34.6964656968"><ele>170.217</ele><time>2026-08-17T03:48:04.644Z</time><hdop>3.0</hdop><vdop>2.875</vdop><extensions><gom:speed>0.37</gom:speed></extensions></trkpt>
   <trkpt lat="59.327968864" lon="34.6964721509"><ele>169.806</ele><time>2026-08-17T03:48:05.652Z</time><hdop>3.0</hdop><vdop>3.0</vdop><extensions><gom:speed>0.434</gom:speed></extensions></trkpt>
   <trkpt lat="59.3279769945" lon="34.6964743301"><ele>169.203</ele><time>2026-08-17T03:48:06.652Z</time><hdop>3.0</hdop><vdop>2.937</vdop><extensions><gom:speed>0.468</gom:speed></extensions></trkpt>
   <trkpt lat="59.327980473" lon="34.696475336"><ele>169.253</ele><time>2026-08-17T03:48:07.660Z</time><hdop>3.0</hdop><vdop>2.875</vdop><extensions><gom:speed>0.35</gom:speed></extensions></trkpt>
   <trkpt lat="59.327984161" lon="34.6964750845"><ele>169.727</ele><time>2026-08-17T03:48:08.645Z</time><hdop>3.0</hdop><vdop>2.875</vdop><extensions><gom:speed>0.239</gom:speed></extensions></trkpt>
   <trkpt lat="59.3279861727" lon="34.6964747492"><ele>170.01</ele><time>2026-08-17T03:48:09.320Z</time><hdop>3.0</hdop><vdop>2.875</vdop><extensions><gom:speed>0.246</gom:speed></extensions></trkpt>
   <trkpt lat="59.3279891901" lon="34.6964738272"><ele>170.314</ele><time>2026-08-17T03:48:10.382Z</time><hdop>3.0</hdop><vdop>2.937</vdop><extensions><gom:speed>0.241</gom:speed></extensions></trkpt>
   <trkpt lat="59.3279930877" lon="34.6964728214"><ele>170.484</ele><time>2026-08-17T03:48:11.565Z</time><hdop>3.0</hdop><vdop>2.75</vdop><extensions><gom:speed>0.25</gom:speed></extensions></trkpt>
   <trkpt lat="59.3279966919" lon="34.6964736596"><ele>170.613</ele><time>2026-08-17T03:48:12.652Z</time><hdop>3.0</hdop><vdop>2.625</vdop><extensions><gom:speed>0.185</gom:speed></extensions></trkpt>
   <trkpt lat="59.3279995837" lon="34.6964758389"><ele>170.703</ele><time>2026-08-17T03:48:13.644Z</time><hdop>3.0</hdop><vdop>2.625</vdop><extensions><gom:speed>0.167</gom:speed></extensions></trkpt>
   <trkpt lat="59.3280005895" lon="34.6964757551"><ele>170.764</ele><time>2026-08-17T03:48:14.645Z</time><hdop>3.0</hdop><vdop>2.625</vdop><extensions><gom:speed>0.126</gom:speed></extensions></trkpt>
   <trkpt lat="59.3280004638" lon="34.6964742463"><ele>170.803</ele><time>2026-08-17T03:48:15.653Z</time><hdop>3.0</hdop><vdop>2.5</vdop><extensions><gom:speed>0.034</gom:speed></extensions></trkpt>
   <trkpt lat="59.3280007991" lon="34.6964752522"><ele>170.452</ele><time>2026-08-17T03:48:16.645Z</time><hdop>3.0</hdop><vdop>2.5</vdop><extensions><gom:speed>0.097</gom:speed></extensions></trkpt>
   <trkpt lat="59.3280008829" lon="34.6964760903"><ele>170.225</ele><time>2026-08-17T03:48:17.652Z</time><hdop>3.0</hdop><vdop>2.5</vdop><extensions><gom:speed>0.026</gom:speed></extensions></trkpt>
   <trkpt lat="59.3280009667" lon="34.6964772638"><ele>170.1</ele><time>2026-08-17T03:48:18.644Z</time><hdop>3.0</hdop><vdop>2.5</vdop><extensions><gom:speed>0.093</gom:speed></extensions></trkpt>
   <trkpt lat="59.3280008829" lon="34.6964767609"><ele>170.031</ele><time>2026-08-17T03:48:19.652Z</time><hdop>3.0</hdop><vdop>2.5</vdop><extensions><gom:speed>0.03</gom:speed></extensions></trkpt>
   <trkpt lat="59.3280007991" lon="34.6964782696"><ele>170.002</ele><time>2026-08-17T03:48:20.645Z</time><hdop>3.0</hdop><vdop>2.5</vdop><extensions><gom:speed>0.097</gom:speed></extensions></trkpt>
   <trkpt lat="59.3280010924" lon="34.6964794431"><ele>169.995</ele><time>2026-08-17T03:48:21.652Z</time><hdop>3.0</hdop><vdop>2.5</vdop><extensions><gom:speed>0.026</gom:speed></extensions></trkpt>
   <trkpt lat="59.3280010924" lon="34.6964802813"><ele>169.992</ele><time>2026-08-17T03:48:22.653Z</time><hdop>3.0</hdop><vdop>2.5</vdop><extensions><gom:speed>0.017</gom:speed></extensions></trkpt>
   <trkpt lat="59.3280015954" lon="34.6964811195"><ele>169.991</ele><time>2026-08-17T03:48:23.645Z</time><hdop>3.0</hdop><vdop>2.5</vdop><extensions><gom:speed>0.103</gom:speed></extensions></trkpt>
   <trkpt lat="59.3280008829" lon="34.6964824606"><ele>169.994</ele><time>2026-08-17T03:48:24.645Z</time><hdop>3.0</hdop><vdop>2.5</vdop><extensions><gom:speed>0.093</gom:speed></extensions></trkpt>
   <trkpt lat="59.32800038" lon="34.6964845561"><ele>169.994</ele><time>2026-08-17T03:48:25.645Z</time><hdop>3.0</hdop><vdop>2.5</vdop><extensions><gom:speed>0.1</gom:speed></extensions></trkpt>
   <trkpt lat="59.3279994999" lon="34.6964853943"><ele>169.672</ele><time>2026-08-17T03:48:26.652Z</time><hdop>3.0</hdop><vdop>2.5</vdop><extensions><gom:speed>0.042</gom:speed></extensions></trkpt>
   <trkpt lat="59.3279988712" lon="34.6964865677"><ele>169.48</ele><time>2026-08-17T03:48:27.358Z</time><hdop>3.0</hdop><vdop>2.5</vdop><extensions><gom:speed>0.079</gom:speed></extensions></trkpt>
   <trkpt lat="59.3279977816" lon="34.6964890823"><ele>168.989</ele><time>2026-08-17T03:48:28.380Z</time><hdop>3.0</hdop><vdop>2.5</vdop><extensions><gom:speed>0.116</gom:speed></extensions></trkpt>
   <trkpt lat="59.3279959795" lon="34.6964914292"><ele>168.378</ele><time>2026-08-17T03:48:28.886Z</time><hdop>3.0</hdop><vdop>2.5</vdop><extensions><gom:speed>0.081</gom:speed></extensions></trkpt>
   <trkpt lat="59.3279957699" lon="34.6964921836"><ele>168.013</ele><time>2026-08-17T03:48:29.341Z</time><hdop>3.0</hdop><vdop>2.5</vdop><extensions><gom:speed>0.12</gom:speed></extensions></trkpt>
   <trkpt lat="59.3279922914" lon="34.6964957878"><ele>167.573</ele><time>2026-08-17T03:48:30.282Z</time><hdop>3.0</hdop><vdop>2.5</vdop><extensions><gom:speed>0.119</gom:speed></extensions></trkpt>
   <trkpt lat="59.3279854602" lon="34.6965069357"><ele>167.448</ele><time>2026-08-17T03:48:31.122Z</time><hdop>3.0</hdop><vdop>2.5</vdop><extensions><gom:speed>0.246</gom:speed></extensions></trkpt>
   <trkpt lat="59.3279842867" lon="34.6965100371"><ele>167.193</ele><time>2026-08-17T03:48:31.652Z</time><hdop>3.0</hdop><vdop>2.625</vdop><extensions><gom:speed>0.282</gom:speed></extensions></trkpt>
   <trkpt lat="59.3279696603" lon="34.6965276391"><ele>167.04</ele><time>2026-08-17T03:48:32.599Z</time><hdop>3.0</hdop><vdop>2.625</vdop><extensions><gom:speed>0.547</gom:speed></extensions></trkpt>
   <trkpt lat="59.3279533994" lon="34.6965346798"><ele>166.821</ele><time>2026-08-17T03:48:33.318Z</time><hdop>3.0</hdop><vdop>2.937</vdop><extensions><gom:speed>0.692</gom:speed></extensions></trkpt>
   <trkpt lat="59.3279380605" lon="34.6965382841"><ele>166.269</ele><time>2026-08-17T03:48:34.107Z</time><hdop>3.0</hdop><vdop>3.25</vdop><extensions><gom:speed>0.666</gom:speed></extensions></trkpt>
   <trkpt lat="59.3279318998" lon="34.6965398766"><ele>166.164</ele><time>2026-08-17T03:48:34.652Z</time><hdop>3.0</hdop><vdop>3.25</vdop><extensions><gom:speed>0.671</gom:speed></extensions></trkpt>
   <trkpt lat="59.3279092687" lon="34.6965442352"><ele>165.798</ele><time>2026-08-17T03:48:35.645Z</time><hdop>3.0</hdop><vdop>3.25</vdop><extensions><gom:speed>0.723</gom:speed></extensions></trkpt>
   <trkpt lat="59.3279031918" lon="34.6965473365"><ele>165.579</ele><time>2026-08-17T03:48:36.566Z</time><hdop>3.0</hdop><vdop>3.25</vdop><extensions><gom:speed>0.696</gom:speed></extensions></trkpt>
   <trkpt lat="59.3278941813" lon="34.6965519466"><ele>165.362</ele><time>2026-08-17T03:48:37.284Z</time><hdop>3.0</hdop><vdop>3.312</vdop><extensions><gom:speed>0.711</gom:speed></extensions></trkpt>
   <trkpt lat="59.3278801835" lon="34.696558233"><ele>165.218</ele><time>2026-08-17T03:48:38.042Z</time><hdop>3.0</hdop><vdop>3.312</vdop><extensions><gom:speed>0.717</gom:speed></extensions></trkpt>
   <trkpt lat="59.3278697899" lon="34.696564268"><ele>165.298</ele><time>2026-08-17T03:48:38.645Z</time><hdop>3.0</hdop><vdop>3.312</vdop><extensions><gom:speed>0.729</gom:speed></extensions></trkpt>
   <trkpt lat="59.3278566723" lon="34.6965764217"><ele>165.633</ele><time>2026-08-17T03:48:39.645Z</time><hdop>3.0</hdop><vdop>3.25</vdop><extensions><gom:speed>0.714</gom:speed></extensions></trkpt>
   <trkpt lat="59.3278505954" lon="34.6965833787"><ele>165.833</ele><time>2026-08-17T03:48:40.278Z</time><hdop>3.0</hdop><vdop>3.25</vdop><extensions><gom:speed>0.748</gom:speed></extensions></trkpt>
   <trkpt lat="59.3278373939" lon="34.6965927664"><ele>166.275</ele><time>2026-08-17T03:48:41.098Z</time><hdop>3.0</hdop><vdop>3.187</vdop><extensions><gom:speed>0.751</gom:speed></extensions></trkpt>
   <trkpt lat="59.3278343764" lon="34.6965941914"><ele>166.428</ele><time>2026-08-17T03:48:41.654Z</time><hdop>3.0</hdop><vdop>3.25</vdop><extensions><gom:speed>0.694</gom:speed></extensions></trkpt>
   <trkpt lat="59.3278210911" lon="34.6965996396"><ele>166.54</ele><time>2026-08-17T03:48:42.645Z</time><hdop>3.0</hdop><vdop>3.187</vdop><extensions><gom:speed>0.752</gom:speed></extensions></trkpt>
   <trkpt lat="59.3278130864" lon="34.69660316"><ele>167.067</ele><time>2026-08-17T03:48:43.678Z</time><hdop>3.0</hdop><vdop>2.937</vdop><extensions><gom:speed>0.578</gom:speed></extensions></trkpt>
   <trkpt lat="59.3278050816" lon="34.6966056746"><ele>167.029</ele><time>2026-08-17T03:48:44.645Z</time><hdop>3.0</hdop><vdop>2.937</vdop><extensions><gom:speed>0.53</gom:speed></extensions></trkpt>
   <trkpt lat="59.3278005973" lon="34.6966094464"><ele>166.462</ele><time>2026-08-17T03:48:45.645Z</time><hdop>3.0</hdop><vdop>2.812</vdop><extensions><gom:speed>0.458</gom:speed></extensions></trkpt>
   <trkpt lat="59.3278004716" lon="34.6966103684"><ele>166.123</ele><time>2026-08-17T03:48:46.207Z</time><hdop>3.0</hdop><vdop>2.812</vdop><extensions><gom:speed>0.367</gom:speed></extensions></trkpt>
   <trkpt lat="59.3277992981" lon="34.6966163196"><ele>165.611</ele><time>2026-08-17T03:48:47.652Z</time><hdop>3.062</hdop><vdop>2.812</vdop><extensions><gom:speed>0.176</gom:speed></extensions></trkpt>
   <trkpt lat="59.3277997591" lon="34.6966194209"><ele>165.305</ele><time>2026-08-17T03:48:48.463Z</time><hdop>3.187</hdop><vdop>2.812</vdop><extensions><gom:speed>0.219</gom:speed></extensions></trkpt>
   <trkpt lat="59.3277989629" lon="34.6966228575"><ele>165.485</ele><time>2026-08-17T03:48:49.080Z</time><hdop>3.312</hdop><vdop>2.812</vdop><extensions><gom:speed>0.245</gom:speed></extensions></trkpt>
   <trkpt lat="59.3277979989" lon="34.6966249529"><ele>165.267</ele><time>2026-08-17T03:48:49.647Z</time><hdop>3.375</hdop><vdop>2.812</vdop><extensions><gom:speed>0.256</gom:speed></extensions></trkpt>
   <trkpt lat="59.3277950653" lon="34.6966285572"><ele>165.136</ele><time>2026-08-17T03:48:50.487Z</time><hdop>3.5</hdop><vdop>2.812</vdop><extensions><gom:speed>0.308</gom:speed></extensions></trkpt>
   <trkpt lat="59.3277923831" lon="34.6966311556"><ele>164.796</ele><time>2026-08-17T03:48:51.367Z</time><hdop>3.625</hdop><vdop>2.687</vdop><extensions><gom:speed>0.312</gom:speed></extensions></trkpt>
   <trkpt lat="59.3277859709" lon="34.6966342569"><ele>164.657</ele><time>2026-08-17T03:48:52.227Z</time><hdop>3.75</hdop><vdop>2.75</vdop><extensions><gom:speed>0.403</gom:speed></extensions></trkpt>
   <trkpt lat="59.3277815704" lon="34.6966347598"><ele>164.597</ele><time>2026-08-17T03:48:53.117Z</time><hdop>3.875</hdop><vdop>2.812</vdop><extensions><gom:speed>0.469</gom:speed></extensions></trkpt>
   <trkpt lat="59.3277780919" lon="34.696635598"><ele>164.343</ele><time>2026-08-17T03:48:53.652Z</time><hdop>3.937</hdop><vdop>3.125</vdop><extensions><gom:speed>0.536</gom:speed></extensions></trkpt>
   <trkpt lat="59.3277671954" lon="34.6966377773"><ele>164.166</ele><time>2026-08-17T03:48:54.645Z</time><hdop>4.0</hdop><vdop>3.062</vdop><extensions><gom:speed>0.598</gom:speed></extensions></trkpt>
   <trkpt lat="59.3277612862" lon="34.6966385316"><ele>164.158</ele><time>2026-08-17T03:48:55.652Z</time><hdop>4.125</hdop><vdop>3.0</vdop><extensions><gom:speed>0.467</gom:speed></extensions></trkpt>
   <trkpt lat="59.327755377" lon="34.6966396213"><ele>164.154</ele><time>2026-08-17T03:48:56.577Z</time><hdop>4.125</hdop><vdop>3.0</vdop><extensions><gom:speed>0.454</gom:speed></extensions></trkpt>
   <trkpt lat="59.3277498868" lon="34.6966405433"><ele>163.984</ele><time>2026-08-17T03:48:57.184Z</time><hdop>4.187</hdop><vdop>3.062</vdop><extensions><gom:speed>0.504</gom:speed></extensions></trkpt>
   <trkpt lat="59.3277429717" lon="34.6966402918"><ele>163.958</ele><time>2026-08-17T03:48:57.645Z</time><hdop>4.187</hdop><vdop>3.312</vdop><extensions><gom:speed>0.518</gom:speed></extensions></trkpt>
   <trkpt lat="59.3277403733" lon="34.6966403756"><ele>163.942</ele><time>2026-08-17T03:48:58.166Z</time><hdop>4.25</hdop><vdop>3.312</vdop><extensions><gom:speed>0.509</gom:speed></extensions></trkpt>
   <trkpt lat="59.3277379845" lon="34.6966400404"><ele>163.935</ele><time>2026-08-17T03:48:58.652Z</time><hdop>4.312</hdop><vdop>3.125</vdop><extensions><gom:speed>0.512</gom:speed></extensions></trkpt>
   <trkpt lat="59.3277272976" lon="34.6966381964"><ele>164.013</ele><time>2026-08-17T03:48:59.644Z</time><hdop>4.312</hdop><vdop>3.0</vdop><extensions><gom:speed>0.601</gom:speed></extensions></trkpt>
   <trkpt lat="59.3277203825" lon="34.6966381964"><ele>164.059</ele><time>2026-08-17T03:49:00.605Z</time><hdop>4.437</hdop><vdop>3.0</vdop><extensions><gom:speed>0.576</gom:speed></extensions></trkpt>
   <trkpt lat="59.3277137608" lon="34.6966386993"><ele>164.307</ele><time>2026-08-17T03:49:01.221Z</time><hdop>4.5</hdop><vdop>2.875</vdop><extensions><gom:speed>0.646</gom:speed></extensions></trkpt>
   <trkpt lat="59.3277043731" lon="34.6966405433"><ele>164.433</ele><time>2026-08-17T03:49:02.101Z</time><hdop>4.562</hdop><vdop>2.812</vdop><extensions><gom:speed>0.674</gom:speed></extensions></trkpt>
   <trkpt lat="59.32769838" lon="34.6966422197"><ele>164.723</ele><time>2026-08-17T03:49:02.645Z</time><hdop>4.562</hdop><vdop>2.812</vdop><extensions><gom:speed>0.688</gom:speed></extensions></trkpt>
   <trkpt lat="59.3276889923" lon="34.6966449857"><ele>164.896</ele><time>2026-08-17T03:49:03.639Z</time><hdop>4.625</hdop><vdop>2.812</vdop><extensions><gom:speed>0.662</gom:speed></extensions></trkpt>
   <trkpt lat="59.327683083" lon="34.6966463268"><ele>164.918</ele><time>2026-08-17T03:49:04.438Z</time><hdop>4.625</hdop><vdop>2.812</vdop><extensions><gom:speed>0.66</gom:speed></extensions></trkpt>
   <trkpt lat="59.3276767966" lon="34.6966490928"><ele>165.046</ele><time>2026-08-17T03:49:05.106Z</time><hdop>4.625</hdop><vdop>2.937</vdop><extensions><gom:speed>0.638</gom:speed></extensions></trkpt>
   <trkpt lat="59.3276739887" lon="34.6966486737"><ele>165.083</ele><time>2026-08-17T03:49:05.653Z</time><hdop>4.687</hdop><vdop>2.812</vdop><extensions><gom:speed>0.547</gom:speed></extensions></trkpt>
   <trkpt lat="59.3276664869" lon="34.6966472488"><ele>165.22</ele><time>2026-08-17T03:49:06.645Z</time><hdop>4.687</hdop><vdop>2.875</vdop><extensions><gom:speed>0.524</gom:speed></extensions></trkpt>
   <trkpt lat="59.327667367" lon="34.6966488414"><ele>165.3</ele><time>2026-08-17T03:49:07.656Z</time><hdop>4.75</hdop><vdop>2.75</vdop><extensions><gom:speed>0.096</gom:speed></extensions></trkpt>
   <trkpt lat="59.3276670736" lon="34.6966487576"><ele>165.347</ele><time>2026-08-17T03:49:08.465Z</time><hdop>4.75</hdop><vdop>2.75</vdop><extensions><gom:speed>0.103</gom:speed></extensions></trkpt>
   <trkpt lat="59.327665984" lon="34.6966477517"><ele>165.376</ele><time>2026-08-17T03:49:09.143Z</time><hdop>4.75</hdop><vdop>2.75</vdop><extensions><gom:speed>0.078</gom:speed></extensions></trkpt>
   <trkpt lat="59.3276664869" lon="34.6966479194"><ele>165.388</ele><time>2026-08-17T03:49:09.652Z</time><hdop>4.687</hdop><vdop>2.875</vdop><extensions><gom:speed>0.032</gom:speed></extensions></trkpt>
   <trkpt lat="59.3276649781" lon="34.6966484223"><ele>165.395</ele><time>2026-08-17T03:49:10.519Z</time><hdop>4.625</hdop><vdop>2.875</vdop><extensions><gom:speed>0.079</gom:speed></extensions></trkpt>
   <trkpt lat="59.3276623797" lon="34.6966481708"><ele>165.282</ele><time>2026-08-17T03:49:11.399Z</time><hdop>4.5</hdop><vdop>3.187</vdop><extensions><gom:speed>0.106</gom:speed></extensions></trkpt>
   <trkpt lat="59.3276589851" lon="34.6966487576"><ele>165.362</ele><time>2026-08-17T03:49:12.583Z</time><hdop>4.437</hdop><vdop>3.5</vdop><extensions><gom:speed>0.137</gom:speed></extensions></trkpt>
   <trkpt lat="59.3276518605" lon="34.6966495957"><ele>165.196</ele><time>2026-08-17T03:49:13.645Z</time><hdop>4.312</hdop><vdop>3.687</vdop><extensions><gom:speed>0.205</gom:speed></extensions></trkpt>
   <trkpt lat="59.3276499745" lon="34.6966501825"><ele>165.097</ele><time>2026-08-17T03:49:14.131Z</time><hdop>4.375</hdop><vdop>3.687</vdop><extensions><gom:speed>0.22</gom:speed></extensions></trkpt>
   <trkpt lat="59.3276481724" lon="34.6966519427"><ele>165.363</ele><time>2026-08-17T03:49:14.652Z</time><hdop>4.375</hdop><vdop>3.437</vdop><extensions><gom:speed>0.169</gom:speed></extensions></trkpt>
   <trkpt lat="59.3276466637" lon="34.6966556307"><ele>165.608</ele><time>2026-08-17T03:49:15.648Z</time><hdop>4.375</hdop><vdop>3.312</vdop><extensions><gom:speed>0.208</gom:speed></extensions></trkpt>
   <trkpt lat="59.3276465799" lon="34.6966576424"><ele>165.752</ele><time>2026-08-17T03:49:16.660Z</time><hdop>4.375</hdop><vdop>3.187</vdop><extensions><gom:speed>0.095</gom:speed></extensions></trkpt>
   <trkpt lat="59.3276458674" lon="34.6966612466"><ele>165.812</ele><time>2026-08-17T03:49:17.645Z</time><hdop>4.375</hdop><vdop>3.187</vdop><extensions><gom:speed>0.123</gom:speed></extensions></trkpt>
   <trkpt lat="59.3276448616" lon="34.6966635935"><ele>165.867</ele><time>2026-08-17T03:49:18.645Z</time><hdop>4.25</hdop><vdop>3.687</vdop><extensions><gom:speed>0.126</gom:speed></extensions></trkpt>
   <trkpt lat="59.3276449873" lon="34.6966626715"><ele>165.924</ele><time>2026-08-17T03:49:19.652Z</time><hdop>4.187</hdop><vdop>3.937</vdop><extensions><gom:speed>0.028</gom:speed></extensions></trkpt>
   <trkpt lat="59.3276446939" lon="34.6966644317"><ele>165.825</ele><time>2026-08-17T03:49:20.607Z</time><hdop>4.125</hdop><vdop>4.312</vdop><extensions><gom:speed>0.106</gom:speed></extensions></trkpt>
   <trkpt lat="59.3276453645" lon="34.6966648508"><ele>165.76</ele><time>2026-08-17T03:49:21.652Z</time><hdop>4.125</hdop><vdop>4.25</vdop><extensions><gom:speed>0.029</gom:speed></extensions></trkpt>
   <trkpt lat="59.3276457836" lon="34.6966692932"><ele>165.735</ele><time>2026-08-17T03:49:22.645Z</time><hdop>4.125</hdop><vdop>4.062</vdop><extensions><gom:speed>0.104</gom:speed></extensions></trkpt>
   <trkpt lat="59.3276450711" lon="34.6966730651"><ele>165.716</ele><time>2026-08-17T03:49:23.645Z</time><hdop>4.187</hdop><vdop>3.937</vdop><extensions><gom:speed>0.117</gom:speed></extensions></trkpt>
   <trkpt lat="59.3276446939" lon="34.6966733165"><ele>165.721</ele><time>2026-08-17T03:49:24.653Z</time><hdop>4.187</hdop><vdop>3.875</vdop><extensions><gom:speed>0.044</gom:speed></extensions></trkpt>
   <trkpt lat="59.3276446939" lon="34.6966740709"><ele>165.725</ele><time>2026-08-17T03:49:25.260Z</time><hdop>4.187</hdop><vdop>3.875</vdop><extensions><gom:speed>0.063</gom:speed></extensions></trkpt>
   <trkpt lat="59.3276452807" lon="34.6966752444"><ele>165.738</ele><time>2026-08-17T03:49:26.652Z</time><hdop>4.187</hdop><vdop>3.812</vdop><extensions><gom:speed>0.027</gom:speed></extensions></trkpt>
   <trkpt lat="59.3276456998" lon="34.6966766693"><ele>165.757</ele><time>2026-08-17T03:49:27.645Z</time><hdop>4.187</hdop><vdop>3.812</vdop><extensions><gom:speed>0.097</gom:speed></extensions></trkpt>
   <trkpt lat="59.3276451968" lon="34.696677256"><ele>165.777</ele><time>2026-08-17T03:49:28.645Z</time><hdop>4.125</hdop><vdop>3.812</vdop><extensions><gom:speed>0.111</gom:speed></extensions></trkpt>
   <trkpt lat="59.327644191" lon="34.6966779266"><ele>165.79</ele><time>2026-08-17T03:49:29.645Z</time><hdop>4.125</hdop><vdop>3.812</vdop><extensions><gom:speed>0.107</gom:speed></extensions></trkpt>
   <trkpt lat="59.3276433947" lon="34.6966787648"><ele>165.814</ele><time>2026-08-17T03:49:30.644Z</time><hdop>4.062</hdop><vdop>3.75</vdop><extensions><gom:speed>0.11</gom:speed></extensions></trkpt>
   <trkpt lat="59.3276438976" lon="34.6966822852"><ele>165.828</ele><time>2026-08-17T03:49:31.652Z</time><hdop>4.062</hdop><vdop>3.75</vdop><extensions><gom:speed>0.02</gom:speed></extensions></trkpt>
   <trkpt lat="59.3276439815" lon="34.6966829557"><ele>165.838</ele><time>2026-08-17T03:49:32.647Z</time><hdop>3.937</hdop><vdop>3.625</vdop><extensions><gom:speed>0.021</gom:speed></extensions></trkpt>
   <trkpt lat="59.3276438976" lon="34.696683291"><ele>165.845</ele><time>2026-08-17T03:49:33.657Z</time><hdop>3.812</hdop><vdop>3.562</vdop><extensions><gom:speed>0.031</gom:speed></extensions></trkpt>
   <trkpt lat="59.3276436881" lon="34.6966836263"><ele>165.851</ele><time>2026-08-17T03:49:34.645Z</time><hdop>3.75</hdop><vdop>3.437</vdop><extensions><gom:speed>0.046</gom:speed></extensions></trkpt>
   <trkpt lat="59.3276433947" lon="34.6966840454"><ele>165.856</ele><time>2026-08-17T03:49:35.645Z</time><hdop>3.625</hdop><vdop>3.437</vdop><extensions><gom:speed>0.055</gom:speed></extensions></trkpt>
   <trkpt lat="59.327643269" lon="34.6966841292"><ele>165.859</ele><time>2026-08-17T03:49:36.389Z</time><hdop>3.625</hdop><vdop>3.437</vdop><extensions><gom:speed>0.056</gom:speed></extensions></trkpt>
   <trkpt lat="59.3276425984" lon="34.6966846321"><ele>165.864</ele><time>2026-08-17T03:49:37.645Z</time><hdop>3.5</hdop><vdop>3.312</vdop><extensions><gom:speed>0.064</gom:speed></extensions></trkpt>
   <trkpt lat="59.3276421794" lon="34.6966849674"><ele>165.867</ele><time>2026-08-17T03:49:38.652Z</time><hdop>3.5</hdop><vdop>3.25</vdop><extensions><gom:speed>0.064</gom:speed></extensions></trkpt>
   <trkpt lat="59.3276419698" lon="34.6966852188"><ele>165.876</ele><time>2026-08-17T03:49:39.645Z</time><hdop>3.437</hdop><vdop>3.375</vdop><extensions><gom:speed>0.074</gom:speed></extensions></trkpt>
   <trkpt lat="59.3276416764" lon="34.6966855541"><ele>165.891</ele><time>2026-08-17T03:49:40.644Z</time><hdop>3.375</hdop><vdop>3.437</vdop><extensions><gom:speed>0.077</gom:speed></extensions></trkpt>
   <trkpt lat="59.3276411735" lon="34.6966858894"><ele>165.901</ele><time>2026-08-17T03:49:41.650Z</time><hdop>3.375</hdop><vdop>3.312</vdop><extensions><gom:speed>0.077</gom:speed></extensions></trkpt>
   <trkpt lat="59.3276408802" lon="34.696686057"><ele>165.906</ele><time>2026-08-17T03:49:42.645Z</time><hdop>3.312</hdop><vdop>3.25</vdop><extensions><gom:speed>0.08</gom:speed></extensions></trkpt>
   <trkpt lat="59.3276405868" lon="34.6966862247"><ele>165.91</ele><time>2026-08-17T03:49:43.652Z</time><hdop>3.312</hdop><vdop>3.125</vdop><extensions><gom:speed>0.08</gom:speed></extensions></trkpt>
   <trkpt lat="59.3276403772" lon="34.6966865599"><ele>165.913</ele><time>2026-08-17T03:49:44.645Z</time><hdop>3.312</hdop><vdop>3.0</vdop><extensions><gom:speed>0.084</gom:speed></extensions></trkpt>
   <trkpt lat="59.3276400839" lon="34.696686979"><ele>165.915</ele><time>2026-08-17T03:49:45.652Z</time><hdop>3.312</hdop><vdop>2.875</vdop><extensions><gom:speed>0.084</gom:speed></extensions></trkpt>
   <trkpt lat="59.3276399581" lon="34.6966872305"><ele>165.917</ele><time>2026-08-17T03:49:46.644Z</time><hdop>3.312</hdop><vdop>2.875</vdop><extensions><gom:speed>0.087</gom:speed></extensions></trkpt>
   <trkpt lat="59.3276398743" lon="34.6966873981"><ele>165.919</ele><time>2026-08-17T03:49:47.519Z</time><hdop>3.312</hdop><vdop>2.875</vdop><extensions><gom:speed>0.088</gom:speed></extensions></trkpt>
   <trkpt lat="59.3276394971" lon="34.6966879849"><ele>165.938</ele><time>2026-08-17T03:49:48.645Z</time><hdop>3.375</hdop><vdop>3.187</vdop><extensions><gom:speed>0.095</gom:speed></extensions></trkpt>
   <trkpt lat="59.3276393714" lon="34.6966881525"><ele>165.95</ele><time>2026-08-17T03:49:49.645Z</time><hdop>3.375</hdop><vdop>3.312</vdop><extensions><gom:speed>0.096</gom:speed></extensions></trkpt>
   <trkpt lat="59.3276388685" lon="34.6966884878"><ele>165.958</ele><time>2026-08-17T03:49:50.655Z</time><hdop>3.375</hdop><vdop>3.437</vdop><extensions><gom:speed>0.096</gom:speed></extensions></trkpt>
   <trkpt lat="59.3276389942" lon="34.6966886554"><ele>165.961</ele><time>2026-08-17T03:49:51.645Z</time><hdop>3.437</hdop><vdop>3.562</vdop><extensions><gom:speed>0.1</gom:speed></extensions></trkpt>
   <trkpt lat="59.3276388685" lon="34.696688823"><ele>165.963</ele><time>2026-08-17T03:49:52.644Z</time><hdop>3.437</hdop><vdop>3.625</vdop><extensions><gom:speed>0.099</gom:speed></extensions></trkpt>
   <trkpt lat="59.327638659" lon="34.6966892421"><ele>165.962</ele><time>2026-08-17T03:49:53.646Z</time><hdop>3.5</hdop><vdop>3.687</vdop><extensions><gom:speed>0.1</gom:speed></extensions></trkpt>
   <trkpt lat="59.327638659" lon="34.696689326"><ele>165.974</ele><time>2026-08-17T03:49:54.646Z</time><hdop>3.5</hdop><vdop>3.812</vdop><extensions><gom:speed>0.099</gom:speed></extensions></trkpt>
   <trkpt lat="59.3276384913" lon="34.6966895774"><ele>166.01</ele><time>2026-08-17T03:49:55.653Z</time><hdop>3.5</hdop><vdop>3.437</vdop><extensions><gom:speed>0.099</gom:speed></extensions></trkpt>
   <trkpt lat="59.3276382818" lon="34.6966907509"><ele>166.03</ele><time>2026-08-17T03:49:56.644Z</time><hdop>3.562</hdop><vdop>3.5</vdop><extensions><gom:speed>0.148</gom:speed></extensions></trkpt>
   <trkpt lat="59.3276380722" lon="34.6966921758"><ele>166.04</ele><time>2026-08-17T03:49:57.652Z</time><hdop>3.625</hdop><vdop>3.5</vdop><extensions><gom:speed>0.153</gom:speed></extensions></trkpt>
   <trkpt lat="59.3276382818" lon="34.6966934331"><ele>166.044</ele><time>2026-08-17T03:49:58.647Z</time><hdop>3.687</hdop><vdop>3.562</vdop><extensions><gom:speed>0.149</gom:speed></extensions></trkpt>
   <trkpt lat="59.3276391619" lon="34.6966947742"><ele>166.046</ele><time>2026-08-17T03:49:59.645Z</time><hdop>3.75</hdop><vdop>3.625</vdop><extensions><gom:speed>0.131</gom:speed></extensions></trkpt>
   <trkpt lat="59.3276393714" lon="34.6966952771"><ele>166.054</ele><time>2026-08-17T03:50:00.644Z</time><hdop>3.812</hdop><vdop>3.125</vdop><extensions><gom:speed>0.128</gom:speed></extensions></trkpt>
   <trkpt lat="59.3276392876" lon="34.6966956962"><ele>166.06</ele><time>2026-08-17T03:50:01.645Z</time><hdop>3.875</hdop><vdop>3.0</vdop><extensions><gom:speed>0.122</gom:speed></extensions></trkpt>
   <trkpt lat="59.3276389942" lon="34.6966956962"><ele>166.064</ele><time>2026-08-17T03:50:02.652Z</time><hdop>4.0</hdop><vdop>2.875</vdop><extensions><gom:speed>0.123</gom:speed></extensions></trkpt>
   <trkpt lat="59.3276389942" lon="34.6966958638"><ele>166.065</ele><time>2026-08-17T03:50:03.644Z</time><hdop>3.937</hdop><vdop>3.0</vdop><extensions><gom:speed>0.115</gom:speed></extensions></trkpt>
   <trkpt lat="59.327639078" lon="34.69669578"><ele>166.066</ele><time>2026-08-17T03:50:04.212Z</time><hdop>3.937</hdop><vdop>3.0</vdop><extensions><gom:speed>0.115</gom:speed></extensions></trkpt>
   <trkpt lat="59.3276387847" lon="34.6966958638"><ele>166.061</ele><time>2026-08-17T03:50:05.645Z</time><hdop>3.937</hdop><vdop>2.937</vdop><extensions><gom:speed>0.109</gom:speed></extensions></trkpt>
   <trkpt lat="59.327638659" lon="34.6966960315"><ele>166.055</ele><time>2026-08-17T03:50:06.645Z</time><hdop>3.937</hdop><vdop>2.937</vdop><extensions><gom:speed>0.106</gom:speed></extensions></trkpt>
   <trkpt lat="59.3276383656" lon="34.6966960315"><ele>166.05</ele><time>2026-08-17T03:50:07.652Z</time><hdop>3.937</hdop><vdop>2.937</vdop><extensions><gom:speed>0.106</gom:speed></extensions></trkpt>
   <trkpt lat="59.3276383656" lon="34.6966962829"><ele>166.049</ele><time>2026-08-17T03:50:08.645Z</time><hdop>3.875</hdop><vdop>3.0</vdop><extensions><gom:speed>0.105</gom:speed></extensions></trkpt>
   <trkpt lat="59.3276382818" lon="34.6966966182"><ele>166.05</ele><time>2026-08-17T03:50:09.652Z</time><hdop>3.875</hdop><vdop>2.937</vdop><extensions><gom:speed>0.105</gom:speed></extensions></trkpt>
   <trkpt lat="59.3276385751" lon="34.6966972888"><ele>166.048</ele><time>2026-08-17T03:50:10.646Z</time><hdop>3.812</hdop><vdop>3.062</vdop><extensions><gom:speed>0.102</gom:speed></extensions></trkpt>
   <trkpt lat="59.3276384913" lon="34.696697624"><ele>166.046</ele><time>2026-08-17T03:50:11.652Z</time><hdop>3.812</hdop><vdop>2.937</vdop><extensions><gom:speed>0.101</gom:speed></extensions></trkpt>
   <trkpt lat="59.3276383656" lon="34.6966977917"><ele>166.043</ele><time>2026-08-17T03:50:12.644Z</time><hdop>3.812</hdop><vdop>3.0</vdop><extensions><gom:speed>0.1</gom:speed></extensions></trkpt>
   <trkpt lat="59.3276383656" lon="34.6966978755"><ele>166.041</ele><time>2026-08-17T03:50:13.645Z</time><hdop>3.812</hdop><vdop>3.0</vdop><extensions><gom:speed>0.103</gom:speed></extensions></trkpt>
   <trkpt lat="59.3276381979" lon="34.6966980431"><ele>166.039</ele><time>2026-08-17T03:50:14.652Z</time><hdop>3.812</hdop><vdop>2.937</vdop><extensions><gom:speed>0.104</gom:speed></extensions></trkpt>
   <trkpt lat="59.3276382818" lon="34.6966980431"><ele>166.037</ele><time>2026-08-17T03:50:15.442Z</time><hdop>3.812</hdop><vdop>2.937</vdop><extensions><gom:speed>0.103</gom:speed></extensions></trkpt>
   <trkpt lat="59.3276387847" lon="34.6966985461"><ele>166.033</ele><time>2026-08-17T03:50:16.656Z</time><hdop>3.687</hdop><vdop>2.812</vdop><extensions><gom:speed>0.089</gom:speed></extensions></trkpt>
   <trkpt lat="59.327639581" lon="34.6966994681"><ele>166.03</ele><time>2026-08-17T03:50:17.645Z</time><hdop>3.5</hdop><vdop>2.687</vdop><extensions><gom:speed>0.077</gom:speed></extensions></trkpt>
   <trkpt lat="59.3276397905" lon="34.6966997195"><ele>166.03</ele><time>2026-08-17T03:50:18.652Z</time><hdop>3.437</hdop><vdop>3.0</vdop><extensions><gom:speed>0.077</gom:speed></extensions></trkpt>
   <trkpt lat="59.3276403772" lon="34.6967000548"><ele>166.026</ele><time>2026-08-17T03:50:19.645Z</time><hdop>3.125</hdop><vdop>2.875</vdop><extensions><gom:speed>0.076</gom:speed></extensions></trkpt>
   <trkpt lat="59.3276407963" lon="34.6967004739"><ele>166.021</ele><time>2026-08-17T03:50:20.645Z</time><hdop>3.062</hdop><vdop>2.812</vdop><extensions><gom:speed>0.079</gom:speed></extensions></trkpt>
   <trkpt lat="59.3276408802" lon="34.6967007254"><ele>166.018</ele><time>2026-08-17T03:50:21.652Z</time><hdop>3.0</hdop><vdop>2.75</vdop><extensions><gom:speed>0.079</gom:speed></extensions></trkpt>
   <trkpt lat="59.3276411735" lon="34.6967010606"><ele>166.014</ele><time>2026-08-17T03:50:22.645Z</time><hdop>3.0</hdop><vdop>2.625</vdop><extensions><gom:speed>0.075</gom:speed></extensions></trkpt>
   <trkpt lat="59.3276413831" lon="34.6967013959"><ele>166.013</ele><time>2026-08-17T03:50:23.644Z</time><hdop>3.0</hdop><vdop>2.625</vdop><extensions><gom:speed>0.076</gom:speed></extensions></trkpt>
   <trkpt lat="59.3276413831" lon="34.6967015635"><ele>166.009</ele><time>2026-08-17T03:50:24.649Z</time><hdop>3.0</hdop><vdop>2.562</vdop><extensions><gom:speed>0.076</gom:speed></extensions></trkpt>
   <trkpt lat="59.3276413831" lon="34.6967021503"><ele>166.005</ele><time>2026-08-17T03:50:25.645Z</time><hdop>3.0</hdop><vdop>2.5</vdop><extensions><gom:speed>0.073</gom:speed></extensions></trkpt>
   <trkpt lat="59.3276413831" lon="34.6967022341"><ele>166.002</ele><time>2026-08-17T03:50:26.571Z</time><hdop>3.0</hdop><vdop>2.5</vdop><extensions><gom:speed>0.074</gom:speed></extensions></trkpt>
   <trkpt lat="59.3276415926" lon="34.6967028208"><ele>165.997</ele><time>2026-08-17T03:50:27.645Z</time><hdop>3.0</hdop><vdop>2.5</vdop><extensions><gom:speed>0.075</gom:speed></extensions></trkpt>
   <trkpt lat="59.3276415926" lon="34.6967031561"><ele>165.991</ele><time>2026-08-17T03:50:28.652Z</time><hdop>3.0</hdop><vdop>2.5</vdop><extensions><gom:speed>0.076</gom:speed></extensions></trkpt>
   <trkpt lat="59.327641886" lon="34.6967033237"><ele>165.986</ele><time>2026-08-17T03:50:29.645Z</time><hdop>3.0</hdop><vdop>2.5</vdop><extensions><gom:speed>0.077</gom:speed></extensions></trkpt>
   <trkpt lat="59.3276419698" lon="34.6967034914"><ele>165.991</ele><time>2026-08-17T03:50:30.645Z</time><hdop>3.0</hdop><vdop>2.5</vdop><extensions><gom:speed>0.075</gom:speed></extensions></trkpt>
   <trkpt lat="59.3276422632" lon="34.696703659"><ele>165.994</ele><time>2026-08-17T03:50:31.645Z</time><hdop>3.0</hdop><vdop>2.5</vdop><extensions><gom:speed>0.072</gom:speed></extensions></trkpt>
   <trkpt lat="59.3276422632" lon="34.6967035752"><ele>165.997</ele><time>2026-08-17T03:50:32.136Z</time><hdop>3.0</hdop><vdop>2.5</vdop><extensions><gom:speed>0.072</gom:speed></extensions></trkpt>
   <trkpt lat="59.3276422632" lon="34.6967037428"><ele>166.001</ele><time>2026-08-17T03:50:32.645Z</time><hdop>3.0</hdop><vdop>2.625</vdop><extensions><gom:speed>0.073</gom:speed></extensions></trkpt>
   <trkpt lat="59.3276424727" lon="34.6967038267"><ele>166.002</ele><time>2026-08-17T03:50:33.654Z</time><hdop>3.0</hdop><vdop>2.562</vdop><extensions><gom:speed>0.073</gom:speed></extensions></trkpt>
   <trkpt lat="59.3276424727" lon="34.696703659"><ele>166.012</ele><time>2026-08-17T03:50:34.645Z</time><hdop>3.0</hdop><vdop>2.687</vdop><extensions><gom:speed>0.07</gom:speed></extensions></trkpt>
   <trkpt lat="59.3276424727" lon="34.696703659"><ele>166.022</ele><time>2026-08-17T03:50:35.658Z</time><hdop>3.0</hdop><vdop>2.75</vdop><extensions><gom:speed>0.071</gom:speed></extensions></trkpt>
   <trkpt lat="59.3276423889" lon="34.696703659"><ele>166.039</ele><time>2026-08-17T03:50:36.645Z</time><hdop>3.0</hdop><vdop>2.812</vdop><extensions><gom:speed>0.069</gom:speed></extensions></trkpt>
   <trkpt lat="59.3276423889" lon="34.6967037428"><ele>166.054</ele><time>2026-08-17T03:50:37.652Z</time><hdop>3.0</hdop><vdop>2.937</vdop><extensions><gom:speed>0.069</gom:speed></extensions></trkpt>
   <trkpt lat="59.3276422632" lon="34.6967037428"><ele>166.071</ele><time>2026-08-17T03:50:38.645Z</time><hdop>3.0</hdop><vdop>2.937</vdop><extensions><gom:speed>0.07</gom:speed></extensions></trkpt>
   <trkpt lat="59.3276421794" lon="34.6967038267"><ele>166.084</ele><time>2026-08-17T03:50:39.663Z</time><hdop>3.0</hdop><vdop>2.937</vdop><extensions><gom:speed>0.07</gom:speed></extensions></trkpt>
   <trkpt lat="59.3276421794" lon="34.6967039943"><ele>166.093</ele><time>2026-08-17T03:50:40.645Z</time><hdop>3.0</hdop><vdop>2.812</vdop><extensions><gom:speed>0.067</gom:speed></extensions></trkpt>
   <trkpt lat="59.3276421794" lon="34.6967039943"><ele>166.101</ele><time>2026-08-17T03:50:41.645Z</time><hdop>3.0</hdop><vdop>2.75</vdop><extensions><gom:speed>0.066</gom:speed></extensions></trkpt>
   <trkpt lat="59.3276421794" lon="34.6967039943"><ele>166.113</ele><time>2026-08-17T03:50:42.644Z</time><hdop>3.0</hdop><vdop>2.75</vdop><extensions><gom:speed>0.069</gom:speed></extensions></trkpt>
   <trkpt lat="59.3276421794" lon="34.6967039943"><ele>166.119</ele><time>2026-08-17T03:50:43.652Z</time><hdop>3.0</hdop><vdop>2.687</vdop><extensions><gom:speed>0.07</gom:speed></extensions></trkpt>
   <trkpt lat="59.3276420955" lon="34.6967035752"><ele>166.135</ele><time>2026-08-17T03:50:44.661Z</time><hdop>3.0</hdop><vdop>2.687</vdop><extensions><gom:speed>0.119</gom:speed></extensions></trkpt>
   <trkpt lat="59.3276420955" lon="34.6967037428"><ele>166.121</ele><time>2026-08-17T03:50:45.652Z</time><hdop>3.0</hdop><vdop>2.812</vdop><extensions><gom:speed>0.095</gom:speed></extensions></trkpt>
   <trkpt lat="59.3276420955" lon="34.6967037428"><ele>166.109</ele><time>2026-08-17T03:50:46.652Z</time><hdop>3.0</hdop><vdop>3.0</vdop><extensions><gom:speed>0.083</gom:speed></extensions></trkpt>
   <trkpt lat="59.3276421794" lon="34.696703659"><ele>166.115</ele><time>2026-08-17T03:50:47.652Z</time><hdop>3.0</hdop><vdop>3.0</vdop><extensions><gom:speed>0.073</gom:speed></extensions></trkpt>
   <trkpt lat="59.3276422632" lon="34.6967037428"><ele>166.115</ele><time>2026-08-17T03:50:48.644Z</time><hdop>3.0</hdop><vdop>3.125</vdop><extensions><gom:speed>0.066</gom:speed></extensions></trkpt>
   <trkpt lat="59.3276423889" lon="34.6967037428"><ele>165.939</ele><time>2026-08-17T03:50:49.652Z</time><hdop>3.0</hdop><vdop>3.0</vdop><extensions><gom:speed>0.066</gom:speed></extensions></trkpt>
   <trkpt lat="59.3276421794" lon="34.6967038267"><ele>166.231</ele><time>2026-08-17T03:50:50.645Z</time><hdop>3.0</hdop><vdop>2.75</vdop><extensions><gom:speed>0.299</gom:speed></extensions></trkpt>
   <trkpt lat="59.3276416764" lon="34.6967055869"><ele>166.406</ele><time>2026-08-17T03:50:51.645Z</time><hdop>3.0</hdop><vdop>2.625</vdop><extensions><gom:speed>0.106</gom:speed></extensions></trkpt>
   <trkpt lat="59.3276415926" lon="34.6967041619"><ele>166.51</ele><time>2026-08-17T03:50:52.361Z</time><hdop>3.0</hdop><vdop>2.625</vdop><extensions><gom:speed>0.103</gom:speed></extensions></trkpt>
   <trkpt lat="59.3276412993" lon="34.6967043296"><ele>166.532</ele><time>2026-08-17T03:50:53.652Z</time><hdop>3.0</hdop><vdop>2.5</vdop><extensions><gom:speed>0.088</gom:speed></extensions></trkpt>
   <trkpt lat="59.3276407963" lon="34.6967043296"><ele>166.545</ele><time>2026-08-17T03:50:54.652Z</time><hdop>3.0</hdop><vdop>2.562</vdop><extensions><gom:speed>0.077</gom:speed></extensions></trkpt>
   <trkpt lat="59.3276403772" lon="34.696704581"><ele>166.549</ele><time>2026-08-17T03:50:55.653Z</time><hdop>3.0</hdop><vdop>2.5</vdop><extensions><gom:speed>0.074</gom:speed></extensions></trkpt>
   <trkpt lat="59.3276399581" lon="34.6967050839"><ele>166.552</ele><time>2026-08-17T03:50:56.652Z</time><hdop>3.0</hdop><vdop>2.5</vdop><extensions><gom:speed>0.071</gom:speed></extensions></trkpt>
   <trkpt lat="59.327639581" lon="34.6967054192"><ele>166.558</ele><time>2026-08-17T03:50:57.652Z</time><hdop>3.0</hdop><vdop>2.5</vdop><extensions><gom:speed>0.07</gom:speed></extensions></trkpt>
   <trkpt lat="59.3276392876" lon="34.6967060898"><ele>166.4</ele><time>2026-08-17T03:50:58.645Z</time><hdop>3.0</hdop><vdop>2.5</vdop><extensions><gom:speed>0.252</gom:speed></extensions></trkpt>
   <trkpt lat="59.327639078" lon="34.6967070956"><ele>166.305</ele><time>2026-08-17T03:50:59.220Z</time><hdop>3.0</hdop><vdop>2.5</vdop><extensions><gom:speed>0.268</gom:speed></extensions></trkpt>
   <trkpt lat="59.3276391619" lon="34.6967081852"><ele>166.154</ele><time>2026-08-17T03:50:59.939Z</time><hdop>3.0</hdop><vdop>2.5</vdop><extensions><gom:speed>0.309</gom:speed></extensions></trkpt>
   <trkpt lat="59.3276392876" lon="34.6967080176"><ele>166.064</ele><time>2026-08-17T03:51:00.697Z</time><hdop>3.0</hdop><vdop>2.5</vdop><extensions><gom:speed>0.097</gom:speed></extensions></trkpt>
   <trkpt lat="59.3276399581" lon="34.6967099454"><ele>166.013</ele><time>2026-08-17T03:51:01.578Z</time><hdop>3.0</hdop><vdop>2.5</vdop><extensions><gom:speed>0.113</gom:speed></extensions></trkpt>
   <trkpt lat="59.3276398743" lon="34.6967210934"><ele>165.596</ele><time>2026-08-17T03:51:02.387Z</time><hdop>3.0</hdop><vdop>2.5</vdop><extensions><gom:speed>0.145</gom:speed></extensions></trkpt>
   <trkpt lat="59.327641886" lon="34.6967313193"><ele>164.403</ele><time>2026-08-17T03:51:02.903Z</time><hdop>3.0</hdop><vdop>2.5</vdop><extensions><gom:speed>0.149</gom:speed></extensions></trkpt>
   <trkpt lat="59.3276444844" lon="34.6967403718"><ele>163.716</ele><time>2026-08-17T03:51:03.646Z</time><hdop>3.0</hdop><vdop>2.5</vdop><extensions><gom:speed>0.154</gom:speed></extensions></trkpt>
   <trkpt lat="59.3276460769" lon="34.6967442274"><ele>163.281</ele><time>2026-08-17T03:51:04.653Z</time><hdop>3.0</hdop><vdop>2.562</vdop><extensions><gom:speed>0.122</gom:speed></extensions></trkpt>
   <trkpt lat="59.327647879" lon="34.6967719715"><ele>163.554</ele><time>2026-08-17T03:51:05.652Z</time><hdop>3.0</hdop><vdop>2.625</vdop><extensions><gom:speed>0.367</gom:speed></extensions></trkpt>
   <trkpt lat="59.3276476695" lon="34.6968071755"><ele>163.717</ele><time>2026-08-17T03:51:06.586Z</time><hdop>3.0</hdop><vdop>2.625</vdop><extensions><gom:speed>0.634</gom:speed></extensions></trkpt>
   <trkpt lat="59.3276485915" lon="34.6968276274"><ele>164.107</ele><time>2026-08-17T03:51:07.653Z</time><hdop>3.0</hdop><vdop>2.875</vdop><extensions><gom:speed>0.488</gom:speed></extensions></trkpt>
   <trkpt lat="59.3276490944" lon="34.696849085"><ele>164.046</ele><time>2026-08-17T03:51:08.653Z</time><hdop>3.0</hdop><vdop>2.625</vdop><extensions><gom:speed>0.458</gom:speed></extensions></trkpt>
   <trkpt lat="59.3276491782" lon="34.6968583889"><ele>164.01</ele><time>2026-08-17T03:51:09.378Z</time><hdop>3.0</hdop><vdop>2.625</vdop><extensions><gom:speed>0.394</gom:speed></extensions></trkpt>
   <trkpt lat="59.3276494716" lon="34.6968669385"><ele>164.264</ele><time>2026-08-17T03:51:10.623Z</time><hdop>3.0</hdop><vdop>2.562</vdop><extensions><gom:speed>0.369</gom:speed></extensions></trkpt>
   <trkpt lat="59.3276493878" lon="34.6968755719"><ele>164.424</ele><time>2026-08-17T03:51:11.361Z</time><hdop>3.0</hdop><vdop>2.5</vdop><extensions><gom:speed>0.27</gom:speed></extensions></trkpt>
   <trkpt lat="59.3276494716" lon="34.6968849596"><ele>164.565</ele><time>2026-08-17T03:51:12.040Z</time><hdop>3.0</hdop><vdop>2.5</vdop><extensions><gom:speed>0.414</gom:speed></extensions></trkpt>
   <trkpt lat="59.3276496812" lon="34.6968908269"><ele>164.647</ele><time>2026-08-17T03:51:12.652Z</time><hdop>3.0</hdop><vdop>2.5</vdop><extensions><gom:speed>0.373</gom:speed></extensions></trkpt>
   <trkpt lat="59.3276492621" lon="34.696897281"><ele>164.697</ele><time>2026-08-17T03:51:13.486Z</time><hdop>3.0</hdop><vdop>2.5</vdop><extensions><gom:speed>0.328</gom:speed></extensions></trkpt>
   <trkpt lat="59.3276488849" lon="34.6969047409"><ele>164.627</ele><time>2026-08-17T03:51:14.185Z</time><hdop>3.0</hdop><vdop>2.5</vdop><extensions><gom:speed>0.353</gom:speed></extensions></trkpt>
   <trkpt lat="59.3276488849" lon="34.6969085965"><ele>164.321</ele><time>2026-08-17T03:51:14.669Z</time><hdop>3.0</hdop><vdop>2.5</vdop><extensions><gom:speed>0.299</gom:speed></extensions></trkpt>
   <trkpt lat="59.327647879" lon="34.6969179843"><ele>164.138</ele><time>2026-08-17T03:51:15.145Z</time><hdop>3.0</hdop><vdop>2.5</vdop><extensions><gom:speed>0.407</gom:speed></extensions></trkpt>
   <trkpt lat="59.3276477952" lon="34.6969225943"><ele>163.839</ele><time>2026-08-17T03:51:15.652Z</time><hdop>3.0</hdop><vdop>2.5</vdop><extensions><gom:speed>0.305</gom:speed></extensions></trkpt>
   <trkpt lat="59.3276466637" lon="34.6969329879"><ele>163.661</ele><time>2026-08-17T03:51:16.126Z</time><hdop>3.0</hdop><vdop>2.5</vdop><extensions><gom:speed>0.418</gom:speed></extensions></trkpt>
   <trkpt lat="59.327646496" lon="34.6969376818"><ele>163.384</ele><time>2026-08-17T03:51:16.652Z</time><hdop>3.0</hdop><vdop>2.5</vdop><extensions><gom:speed>0.291</gom:speed></extensions></trkpt>
   <trkpt lat="59.3276445682" lon="34.6969530206"><ele>163.218</ele><time>2026-08-17T03:51:17.502Z</time><hdop>3.0</hdop><vdop>2.5</vdop><extensions><gom:speed>0.406</gom:speed></extensions></trkpt>
   <trkpt lat="59.3276429756" lon="34.6969617378"><ele>163.126</ele><time>2026-08-17T03:51:18.615Z</time><hdop>3.0</hdop><vdop>2.5</vdop><extensions><gom:speed>0.336</gom:speed></extensions></trkpt>
   <trkpt lat="59.3276415926" lon="34.696965342"><ele>162.905</ele><time>2026-08-17T03:51:19.323Z</time><hdop>3.0</hdop><vdop>2.5</vdop><extensions><gom:speed>0.194</gom:speed></extensions></trkpt>
   <trkpt lat="59.3276394971" lon="34.6969770767"><ele>162.994</ele><time>2026-08-17T03:51:20.365Z</time><hdop>3.0</hdop><vdop>2.5</vdop><extensions><gom:speed>0.252</gom:speed></extensions></trkpt>
   <trkpt lat="59.3276361863" lon="34.6969934214"><ele>163.021</ele><time>2026-08-17T03:51:21.347Z</time><hdop>3.0</hdop><vdop>2.562</vdop><extensions><gom:speed>0.296</gom:speed></extensions></trkpt>
   <trkpt lat="59.3276332945" lon="34.6970003784"><ele>163.029</ele><time>2026-08-17T03:51:22.166Z</time><hdop>3.0</hdop><vdop>2.875</vdop><extensions><gom:speed>0.28</gom:speed></extensions></trkpt>
   <trkpt lat="59.3276320792" lon="34.6970033959"><ele>163.409</ele><time>2026-08-17T03:51:22.663Z</time><hdop>3.0</hdop><vdop>2.812</vdop><extensions><gom:speed>0.244</gom:speed></extensions></trkpt>
   <trkpt lat="59.3276266728" lon="34.6970110234"><ele>163.637</ele><time>2026-08-17T03:51:23.199Z</time><hdop>3.0</hdop><vdop>2.812</vdop><extensions><gom:speed>0.4</gom:speed></extensions></trkpt>
   <trkpt lat="59.3276244935" lon="34.6970149629"><ele>163.515</ele><time>2026-08-17T03:51:23.652Z</time><hdop>3.0</hdop><vdop>2.625</vdop><extensions><gom:speed>0.308</gom:speed></extensions></trkpt>
   <trkpt lat="59.3276179976" lon="34.6970182318"><ele>163.442</ele><time>2026-08-17T03:51:24.645Z</time><hdop>3.0</hdop><vdop>2.625</vdop><extensions><gom:speed>0.29</gom:speed></extensions></trkpt>
   <trkpt lat="59.3276082746" lon="34.6970139571"><ele>163.687</ele><time>2026-08-17T03:51:25.646Z</time><hdop>3.0</hdop><vdop>2.625</vdop><extensions><gom:speed>0.195</gom:speed></extensions></trkpt>
   <trkpt lat="59.3276048799" lon="34.6970140409"><ele>163.833</ele><time>2026-08-17T03:51:26.325Z</time><hdop>3.0</hdop><vdop>2.625</vdop><extensions><gom:speed>0.186</gom:speed></extensions></trkpt>
   <trkpt lat="59.327602491" lon="34.6970132865"><ele>164.318</ele><time>2026-08-17T03:51:27.063Z</time><hdop>3.0</hdop><vdop>2.5</vdop><extensions><gom:speed>0.159</gom:speed></extensions></trkpt>
   <trkpt lat="59.3276009823" lon="34.6970131189"><ele>164.6</ele><time>2026-08-17T03:51:27.652Z</time><hdop>3.0</hdop><vdop>2.625</vdop><extensions><gom:speed>0.092</gom:speed></extensions></trkpt>
   <trkpt lat="59.3275990964" lon="34.6970123645"><ele>164.768</ele><time>2026-08-17T03:51:28.206Z</time><hdop>3.0</hdop><vdop>2.625</vdop><extensions><gom:speed>0.114</gom:speed></extensions></trkpt>
   <trkpt lat="59.3275974619" lon="34.6970118616"><ele>164.846</ele><time>2026-08-17T03:51:28.905Z</time><hdop>3.0</hdop><vdop>2.625</vdop><extensions><gom:speed>0.102</gom:speed></extensions></trkpt>
   <trkpt lat="59.327596498" lon="34.6970126998"><ele>165.036</ele><time>2026-08-17T03:51:29.652Z</time><hdop>3.0</hdop><vdop>2.687</vdop><extensions><gom:speed>0.083</gom:speed></extensions></trkpt>
   <trkpt lat="59.327596498" lon="34.6970142923"><ele>165.149</ele><time>2026-08-17T03:51:30.301Z</time><hdop>3.0</hdop><vdop>2.687</vdop><extensions><gom:speed>0.122</gom:speed></extensions></trkpt>
   <trkpt lat="59.3275968752" lon="34.6970180642"><ele>164.885</ele><time>2026-08-17T03:51:31.652Z</time><hdop>3.0</hdop><vdop>2.75</vdop><extensions><gom:speed>0.161</gom:speed></extensions></trkpt>
   <trkpt lat="59.3275976714" lon="34.6970243506"><ele>164.915</ele><time>2026-08-17T03:51:32.652Z</time><hdop>3.0</hdop><vdop>2.625</vdop><extensions><gom:speed>0.192</gom:speed></extensions></trkpt>
   <trkpt lat="59.3275985935" lon="34.6970313914"><ele>164.933</ele><time>2026-08-17T03:51:33.386Z</time><hdop>3.0</hdop><vdop>2.625</vdop><extensions><gom:speed>0.225</gom:speed></extensions></trkpt>
   <trkpt lat="59.3276016948" lon="34.6970452216"><ele>165.142</ele><time>2026-08-17T03:51:34.652Z</time><hdop>3.0</hdop><vdop>2.5</vdop><extensions><gom:speed>0.253</gom:speed></extensions></trkpt>
   <trkpt lat="59.3276062629" lon="34.6970539388"><ele>165.266</ele><time>2026-08-17T03:51:35.147Z</time><hdop>3.0</hdop><vdop>2.5</vdop><extensions><gom:speed>0.299</gom:speed></extensions></trkpt>
   <trkpt lat="59.3276075621" lon="34.6970588841"><ele>165.111</ele><time>2026-08-17T03:51:35.652Z</time><hdop>3.0</hdop><vdop>2.5</vdop><extensions><gom:speed>0.273</gom:speed></extensions></trkpt>
   <trkpt lat="59.3276128846" lon="34.6970666792"><ele>165.019</ele><time>2026-08-17T03:51:36.482Z</time><hdop>3.0</hdop><vdop>2.5</vdop><extensions><gom:speed>0.277</gom:speed></extensions></trkpt>
   <trkpt lat="59.3276179976" lon="34.6970775757"><ele>164.852</ele><time>2026-08-17T03:51:37.504Z</time><hdop>3.0</hdop><vdop>2.687</vdop><extensions><gom:speed>0.346</gom:speed></extensions></trkpt>
   <trkpt lat="59.3276215599" lon="34.6970916573"><ele>164.685</ele><time>2026-08-17T03:51:38.506Z</time><hdop>3.0</hdop><vdop>3.062</vdop><extensions><gom:speed>0.406</gom:speed></extensions></trkpt>
   <trkpt lat="59.3276248707" lon="34.6970958483"><ele>164.559</ele><time>2026-08-17T03:51:38.961Z</time><hdop>3.0</hdop><vdop>2.812</vdop><extensions><gom:speed>0.288</gom:speed></extensions></trkpt>
   <trkpt lat="59.3276258766" lon="34.6970986981"><ele>164.61</ele><time>2026-08-17T03:51:39.659Z</time><hdop>3.0</hdop><vdop>3.0</vdop><extensions><gom:speed>0.262</gom:speed></extensions></trkpt>
   <trkpt lat="59.3276310733" lon="34.6971021347"><ele>164.486</ele><time>2026-08-17T03:51:40.645Z</time><hdop>3.0</hdop><vdop>3.312</vdop><extensions><gom:speed>0.273</gom:speed></extensions></trkpt>
   <trkpt lat="59.3276349709" lon="34.6971084211"><ele>164.346</ele><time>2026-08-17T03:51:41.645Z</time><hdop>3.0</hdop><vdop>3.812</vdop><extensions><gom:speed>0.285</gom:speed></extensions></trkpt>
   <trkpt lat="59.3276354738" lon="34.697114037"><ele>164.262</ele><time>2026-08-17T03:51:42.583Z</time><hdop>3.0</hdop><vdop>3.812</vdop><extensions><gom:speed>0.33</gom:speed></extensions></trkpt>
   <trkpt lat="59.3276371921" lon="34.6971175574"><ele>164.036</ele><time>2026-08-17T03:51:43.403Z</time><hdop>3.0</hdop><vdop>3.937</vdop><extensions><gom:speed>0.297</gom:speed></extensions></trkpt>
   <trkpt lat="59.3276400839" lon="34.6971247658"><ele>164.316</ele><time>2026-08-17T03:51:44.364Z</time><hdop>3.0</hdop><vdop>3.875</vdop><extensions><gom:speed>0.323</gom:speed></extensions></trkpt>
   <trkpt lat="59.3276440653" lon="34.697138596"><ele>164.741</ele><time>2026-08-17T03:51:45.447Z</time><hdop>3.0</hdop><vdop>3.75</vdop><extensions><gom:speed>0.4</gom:speed></extensions></trkpt>
   <trkpt lat="59.3276536626" lon="34.6971511688"><ele>165.206</ele><time>2026-08-17T03:51:46.653Z</time><hdop>3.0</hdop><vdop>3.625</vdop><extensions><gom:speed>0.281</gom:speed></extensions></trkpt>
   <trkpt lat="59.3276634694" lon="34.6971595507"><ele>165.484</ele><time>2026-08-17T03:51:47.278Z</time><hdop>3.0</hdop><vdop>3.625</vdop><extensions><gom:speed>0.318</gom:speed></extensions></trkpt>
   <trkpt lat="59.3276745754" lon="34.697168687"><ele>165.887</ele><time>2026-08-17T03:51:48.643Z</time><hdop>3.0</hdop><vdop>3.687</vdop><extensions><gom:speed>0.398</gom:speed></extensions></trkpt>
   <trkpt lat="59.3276853881" lon="34.6971769851"><ele>166.366</ele><time>2026-08-17T03:51:49.656Z</time><hdop>3.0</hdop><vdop>3.937</vdop><extensions><gom:speed>0.282</gom:speed></extensions></trkpt>
   <trkpt lat="59.3276928899" lon="34.6971848641"><ele>166.804</ele><time>2026-08-17T03:51:50.652Z</time><hdop>3.0</hdop><vdop>3.687</vdop><extensions><gom:speed>0.284</gom:speed></extensions></trkpt>
   <trkpt lat="59.3276979609" lon="34.6971925754"><ele>166.916</ele><time>2026-08-17T03:51:51.653Z</time><hdop>3.0</hdop><vdop>3.125</vdop><extensions><gom:speed>0.205</gom:speed></extensions></trkpt>
   <trkpt lat="59.327702571" lon="34.6972013764"><ele>166.98</ele><time>2026-08-17T03:51:52.651Z</time><hdop>3.0</hdop><vdop>2.625</vdop><extensions><gom:speed>0.227</gom:speed></extensions></trkpt>
   <trkpt lat="59.3277032834" lon="34.6972058188"><ele>167.016</ele><time>2026-08-17T03:51:53.652Z</time><hdop>3.0</hdop><vdop>2.5</vdop><extensions><gom:speed>0.03</gom:speed></extensions></trkpt>
   <trkpt lat="59.3277055885" lon="34.6972092554"><ele>167.037</ele><time>2026-08-17T03:51:54.654Z</time><hdop>3.0</hdop><vdop>2.5</vdop><extensions><gom:speed>0.023</gom:speed></extensions></trkpt>
   <trkpt lat="59.3277073906" lon="34.697212692"><ele>167.053</ele><time>2026-08-17T03:51:55.652Z</time><hdop>3.0</hdop><vdop>2.5</vdop><extensions><gom:speed>0.021</gom:speed></extensions></trkpt>
   <trkpt lat="59.3277081868" lon="34.6972144522"><ele>167.049</ele><time>2026-08-17T03:51:56.652Z</time><hdop>3.0</hdop><vdop>2.5</vdop><extensions><gom:speed>0.019</gom:speed></extensions></trkpt>
   <trkpt lat="59.3277087736" lon="34.6972162962"><ele>166.52</ele><time>2026-08-17T03:51:57.648Z</time><hdop>3.0</hdop><vdop>2.625</vdop><extensions><gom:speed>0.11</gom:speed></extensions></trkpt>
   <trkpt lat="59.3277087736" lon="34.6972176373"><ele>166.223</ele><time>2026-08-17T03:51:58.680Z</time><hdop>3.0</hdop><vdop>2.687</vdop><extensions><gom:speed>0.015</gom:speed></extensions></trkpt>
   <trkpt lat="59.3277069715" lon="34.6972179726"><ele>166.043</ele><time>2026-08-17T03:51:59.645Z</time><hdop>3.0</hdop><vdop>2.687</vdop><extensions><gom:speed>0.088</gom:speed></extensions></trkpt>
   <trkpt lat="59.3277067619" lon="34.6972173859"><ele>165.935</ele><time>2026-08-17T03:52:00.197Z</time><hdop>3.0</hdop><vdop>2.687</vdop><extensions><gom:speed>0.077</gom:speed></extensions></trkpt>
   <trkpt lat="59.3277068876" lon="34.6972168829"><ele>165.868</ele><time>2026-08-17T03:52:01.652Z</time><hdop>3.0</hdop><vdop>2.625</vdop><extensions><gom:speed>0.021</gom:speed></extensions></trkpt>
   <trkpt lat="59.3277056723" lon="34.6972185593"><ele>166.053</ele><time>2026-08-17T03:52:02.645Z</time><hdop>3.0</hdop><vdop>2.562</vdop><extensions><gom:speed>0.115</gom:speed></extensions></trkpt>
   <trkpt lat="59.3277058818" lon="34.6972190622"><ele>166.164</ele><time>2026-08-17T03:52:03.141Z</time><hdop>3.0</hdop><vdop>2.562</vdop><extensions><gom:speed>0.081</gom:speed></extensions></trkpt>
   <trkpt lat="59.3277063847" lon="34.6972193975"><ele>166.251</ele><time>2026-08-17T03:52:03.652Z</time><hdop>3.0</hdop><vdop>2.625</vdop><extensions><gom:speed>0.06</gom:speed></extensions></trkpt>
   <trkpt lat="59.3277060914" lon="34.6972200681"><ele>166.303</ele><time>2026-08-17T03:52:04.103Z</time><hdop>3.0</hdop><vdop>2.625</vdop><extensions><gom:speed>0.105</gom:speed></extensions></trkpt>
   <trkpt lat="59.3277061752" lon="34.6972204872"><ele>166.523</ele><time>2026-08-17T03:52:04.652Z</time><hdop>3.0</hdop><vdop>2.687</vdop><extensions><gom:speed>0.105</gom:speed></extensions></trkpt>
   <trkpt lat="59.3277053789" lon="34.6972239237"><ele>166.95</ele><time>2026-08-17T03:52:05.644Z</time><hdop>3.0</hdop><vdop>2.625</vdop><extensions><gom:speed>0.255</gom:speed></extensions></trkpt>
   <trkpt lat="59.3277055885" lon="34.6972247619"><ele>167.206</ele><time>2026-08-17T03:52:06.247Z</time><hdop>3.0</hdop><vdop>2.625</vdop><extensions><gom:speed>0.241</gom:speed></extensions></trkpt>
   <trkpt lat="59.3277083964" lon="34.6972333953"><ele>167.408</ele><time>2026-08-17T03:52:07.664Z</time><hdop>3.0</hdop><vdop>2.75</vdop><extensions><gom:speed>0.296</gom:speed></extensions></trkpt>
   <trkpt lat="59.3277091927" lon="34.6972403523"><ele>167.27</ele><time>2026-08-17T03:52:08.652Z</time><hdop>3.0</hdop><vdop>2.75</vdop><extensions><gom:speed>0.208</gom:speed></extensions></trkpt>
   <trkpt lat="59.3277087736" lon="34.6972461358"><ele>166.968</ele><time>2026-08-17T03:52:09.646Z</time><hdop>3.0</hdop><vdop>2.75</vdop><extensions><gom:speed>0.198</gom:speed></extensions></trkpt>
   <trkpt lat="59.3277100728" lon="34.6972477284"><ele>166.755</ele><time>2026-08-17T03:52:10.652Z</time><hdop>3.0</hdop><vdop>2.937</vdop><extensions><gom:speed>0.18</gom:speed></extensions></trkpt>
   <trkpt lat="59.3277105757" lon="34.6972549368"><ele>166.615</ele><time>2026-08-17T03:52:11.645Z</time><hdop>3.0</hdop><vdop>2.875</vdop><extensions><gom:speed>0.184</gom:speed></extensions></trkpt>
   <trkpt lat="59.3277110786" lon="34.6972579543"><ele>166.53</ele><time>2026-08-17T03:52:12.105Z</time><hdop>3.0</hdop><vdop>2.875</vdop><extensions><gom:speed>0.213</gom:speed></extensions></trkpt>
   <trkpt lat="59.3277112881" lon="34.6972601336"><ele>166.411</ele><time>2026-08-17T03:52:12.644Z</time><hdop>3.0</hdop><vdop>3.062</vdop><extensions><gom:speed>0.189</gom:speed></extensions></trkpt>
   <trkpt lat="59.3277126712" lon="34.697262229"><ele>166.336</ele><time>2026-08-17T03:52:13.653Z</time><hdop>3.0</hdop><vdop>3.125</vdop><extensions><gom:speed>0.237</gom:speed></extensions></trkpt>
   <trkpt lat="59.3277132998" lon="34.6972660847"><ele>166.243</ele><time>2026-08-17T03:52:14.646Z</time><hdop>3.0</hdop><vdop>3.312</vdop><extensions><gom:speed>0.223</gom:speed></extensions></trkpt>
   <trkpt lat="59.3277167783" lon="34.6972698566"><ele>166.186</ele><time>2026-08-17T03:52:15.656Z</time><hdop>3.0</hdop><vdop>3.375</vdop><extensions><gom:speed>0.341</gom:speed></extensions></trkpt>
   <trkpt lat="59.3277202987" lon="34.6972796634"><ele>166.077</ele><time>2026-08-17T03:52:16.644Z</time><hdop>3.0</hdop><vdop>3.687</vdop><extensions><gom:speed>0.475</gom:speed></extensions></trkpt>
   <trkpt lat="59.3277212626" lon="34.6972831838"><ele>166.011</ele><time>2026-08-17T03:52:17.478Z</time><hdop>3.0</hdop><vdop>3.687</vdop><extensions><gom:speed>0.427</gom:speed></extensions></trkpt>
   <trkpt lat="59.3277248668" lon="34.6973032166"><ele>166.464</ele><time>2026-08-17T03:52:18.661Z</time><hdop>3.0</hdop><vdop>3.5</vdop><extensions><gom:speed>0.478</gom:speed></extensions></trkpt>
   <trkpt lat="59.3277255793" lon="34.6973222435"><ele>166.758</ele><time>2026-08-17T03:52:19.645Z</time><hdop>3.0</hdop><vdop>3.875</vdop><extensions><gom:speed>0.387</gom:speed></extensions></trkpt>
   <trkpt lat="59.3277254955" lon="34.6973295357"><ele>166.933</ele><time>2026-08-17T03:52:20.482Z</time><hdop>3.0</hdop><vdop>3.875</vdop><extensions><gom:speed>0.329</gom:speed></extensions></trkpt>
   <trkpt lat="59.3277236934" lon="34.6973378338"><ele>166.909</ele><time>2026-08-17T03:52:21.464Z</time><hdop>3.0</hdop><vdop>3.437</vdop><extensions><gom:speed>0.282</gom:speed></extensions></trkpt>
   <trkpt lat="59.3277198796" lon="34.6973491494"><ele>166.459</ele><time>2026-08-17T03:52:22.324Z</time><hdop>3.0</hdop><vdop>3.5</vdop><extensions><gom:speed>0.281</gom:speed></extensions></trkpt>
   <trkpt lat="59.3277183709" lon="34.6973550167"><ele>166.094</ele><time>2026-08-17T03:52:23.042Z</time><hdop>3.0</hdop><vdop>3.5</vdop><extensions><gom:speed>0.328</gom:speed></extensions></trkpt>
   <trkpt lat="59.3277166945" lon="34.6973653265"><ele>165.554</ele><time>2026-08-17T03:52:23.650Z</time><hdop>3.0</hdop><vdop>3.187</vdop><extensions><gom:speed>0.352</gom:speed></extensions></trkpt>
   <trkpt lat="59.3277111624" lon="34.6973793242"><ele>165.318</ele><time>2026-08-17T03:52:24.645Z</time><hdop>3.0</hdop><vdop>3.125</vdop><extensions><gom:speed>0.511</gom:speed></extensions></trkpt>
   <trkpt lat="59.3277114977" lon="34.6973890472"><ele>165.394</ele><time>2026-08-17T03:52:25.653Z</time><hdop>3.0</hdop><vdop>3.0</vdop><extensions><gom:speed>0.502</gom:speed></extensions></trkpt>
   <trkpt lat="59.3277070972" lon="34.6974049729"><ele>165.38</ele><time>2026-08-17T03:52:26.645Z</time><hdop>3.0</hdop><vdop>3.062</vdop><extensions><gom:speed>0.565</gom:speed></extensions></trkpt>
   <trkpt lat="59.3277044988" lon="34.6974186354"><ele>165.289</ele><time>2026-08-17T03:52:27.646Z</time><hdop>3.0</hdop><vdop>3.062</vdop><extensions><gom:speed>0.484</gom:speed></extensions></trkpt>
   <trkpt lat="59.3277018585" lon="34.6974320464"><ele>165.108</ele><time>2026-08-17T03:52:28.645Z</time><hdop>3.0</hdop><vdop>3.125</vdop><extensions><gom:speed>0.447</gom:speed></extensions></trkpt>
   <trkpt lat="59.3277012718" lon="34.6974374946"><ele>165.0</ele><time>2026-08-17T03:52:29.214Z</time><hdop>3.0</hdop><vdop>3.125</vdop><extensions><gom:speed>0.43</gom:speed></extensions></trkpt>
   <trkpt lat="59.3276990925" lon="34.6974533364"><ele>165.066</ele><time>2026-08-17T03:52:29.760Z</time><hdop>3.0</hdop><vdop>3.0</vdop><extensions><gom:speed>0.461</gom:speed></extensions></trkpt>
   <trkpt lat="59.3276971646" lon="34.6974666637"><ele>164.847</ele><time>2026-08-17T03:52:30.645Z</time><hdop>3.0</hdop><vdop>3.0</vdop><extensions><gom:speed>0.522</gom:speed></extensions></trkpt>
   <trkpt lat="59.3276958654" lon="34.6974722795"><ele>164.716</ele><time>2026-08-17T03:52:31.227Z</time><hdop>3.0</hdop><vdop>3.0</vdop><extensions><gom:speed>0.455</gom:speed></extensions></trkpt>
   <trkpt lat="59.3276900819" lon="34.6974858582"><ele>164.638</ele><time>2026-08-17T03:52:32.655Z</time><hdop>3.0</hdop><vdop>2.812</vdop><extensions><gom:speed>0.351</gom:speed></extensions></trkpt>
   <trkpt lat="59.327685891" lon="34.6974903844"><ele>164.591</ele><time>2026-08-17T03:52:33.626Z</time><hdop>3.0</hdop><vdop>2.812</vdop><extensions><gom:speed>0.316</gom:speed></extensions></trkpt>
   <trkpt lat="59.3276836698" lon="34.6974915579"><ele>164.392</ele><time>2026-08-17T03:52:34.141Z</time><hdop>3.0</hdop><vdop>2.937</vdop><extensions><gom:speed>0.265</gom:speed></extensions></trkpt>
   <trkpt lat="59.327682161" lon="34.6974924799"><ele>164.224</ele><time>2026-08-17T03:52:34.652Z</time><hdop>3.0</hdop><vdop>3.25</vdop><extensions><gom:speed>0.239</gom:speed></extensions></trkpt>
   <trkpt lat="59.3276771738" lon="34.6974946592"><ele>163.864</ele><time>2026-08-17T03:52:35.653Z</time><hdop>3.0</hdop><vdop>3.5</vdop><extensions><gom:speed>0.272</gom:speed></extensions></trkpt>
   <trkpt lat="59.3276735696" lon="34.697495246"><ele>163.648</ele><time>2026-08-17T03:52:36.104Z</time><hdop>3.0</hdop><vdop>3.5</vdop><extensions><gom:speed>0.315</gom:speed></extensions></trkpt>
   <trkpt lat="59.3276712646" lon="34.6974960841"><ele>163.345</ele><time>2026-08-17T03:52:36.653Z</time><hdop>3.0</hdop><vdop>3.187</vdop><extensions><gom:speed>0.229</gom:speed></extensions></trkpt>
   <trkpt lat="59.3276679956" lon="34.6974958327"><ele>163.291</ele><time>2026-08-17T03:52:37.652Z</time><hdop>3.0</hdop><vdop>3.375</vdop><extensions><gom:speed>0.156</gom:speed></extensions></trkpt>
   <trkpt lat="59.3276649781" lon="34.6974951621"><ele>163.264</ele><time>2026-08-17T03:52:38.652Z</time><hdop>3.0</hdop><vdop>3.625</vdop><extensions><gom:speed>0.069</gom:speed></extensions></trkpt>
   <trkpt lat="59.3276620864" lon="34.6974958327"><ele>163.246</ele><time>2026-08-17T03:52:39.652Z</time><hdop>3.0</hdop><vdop>3.562</vdop><extensions><gom:speed>0.023</gom:speed></extensions></trkpt>
   <trkpt lat="59.3276590689" lon="34.6974958327"><ele>163.235</ele><time>2026-08-17T03:52:40.424Z</time><hdop>3.0</hdop><vdop>3.562</vdop><extensions><gom:speed>0.069</gom:speed></extensions></trkpt>
   <trkpt lat="59.3276570991" lon="34.697495665"><ele>163.159</ele><time>2026-08-17T03:52:40.940Z</time><hdop>3.0</hdop><vdop>3.25</vdop><extensions><gom:speed>0.069</gom:speed></extensions></trkpt>
   <trkpt lat="59.3276556742" lon="34.6974953298"><ele>162.965</ele><time>2026-08-17T03:52:41.653Z</time><hdop>3.0</hdop><vdop>3.375</vdop><extensions><gom:speed>0.041</gom:speed></extensions></trkpt>
   <trkpt lat="59.3276531596" lon="34.6974951621"><ele>162.849</ele><time>2026-08-17T03:52:42.650Z</time><hdop>3.0</hdop><vdop>3.375</vdop><extensions><gom:speed>0.099</gom:speed></extensions></trkpt>
   <trkpt lat="59.3276480886" lon="34.6974946592"><ele>162.655</ele><time>2026-08-17T03:52:43.418Z</time><hdop>3.0</hdop><vdop>3.562</vdop><extensions><gom:speed>0.102</gom:speed></extensions></trkpt>
   <trkpt lat="59.3276415926" lon="34.6974946592"><ele>162.688</ele><time>2026-08-17T03:52:44.177Z</time><hdop>3.0</hdop><vdop>3.437</vdop><extensions><gom:speed>0.132</gom:speed></extensions></trkpt>
   <trkpt lat="59.3276393714" lon="34.6974948269"><ele>162.501</ele><time>2026-08-17T03:52:44.652Z</time><hdop>3.0</hdop><vdop>3.75</vdop><extensions><gom:speed>0.071</gom:speed></extensions></trkpt>
   <trkpt lat="59.3276315762" lon="34.6974946592"><ele>162.291</ele><time>2026-08-17T03:52:45.653Z</time><hdop>3.0</hdop><vdop>4.187</vdop><extensions><gom:speed>0.091</gom:speed></extensions></trkpt>
   <trkpt lat="59.3276234877" lon="34.6974937372"><ele>162.166</ele><time>2026-08-17T03:52:46.646Z</time><hdop>3.0</hdop><vdop>4.187</vdop><extensions><gom:speed>0.185</gom:speed></extensions></trkpt>
   <trkpt lat="59.3276138904" lon="34.6974926476"><ele>162.314</ele><time>2026-08-17T03:52:47.645Z</time><hdop>3.0</hdop><vdop>3.875</vdop><extensions><gom:speed>0.232</gom:speed></extensions></trkpt>
   <trkpt lat="59.3276116692" lon="34.6974924799"><ele>162.605</ele><time>2026-08-17T03:52:48.659Z</time><hdop>3.0</hdop><vdop>3.562</vdop><extensions><gom:speed>0.058</gom:speed></extensions></trkpt>
   <trkpt lat="59.327608065" lon="34.6974918932"><ele>162.663</ele><time>2026-08-17T03:52:49.652Z</time><hdop>3.0</hdop><vdop>3.812</vdop><extensions><gom:speed>0.024</gom:speed></extensions></trkpt>
   <trkpt lat="59.3276044608" lon="34.6974925637"><ele>162.688</ele><time>2026-08-17T03:52:50.652Z</time><hdop>3.0</hdop><vdop>3.625</vdop><extensions><gom:speed>0.027</gom:speed></extensions></trkpt>
   <trkpt lat="59.3276016948" lon="34.6974925637"><ele>162.702</ele><time>2026-08-17T03:52:51.652Z</time><hdop>3.0</hdop><vdop>3.562</vdop><extensions><gom:speed>0.017</gom:speed></extensions></trkpt>
   <trkpt lat="59.3276000603" lon="34.697491977"><ele>162.718</ele><time>2026-08-17T03:52:52.666Z</time><hdop>3.0</hdop><vdop>3.562</vdop><extensions><gom:speed>0.016</gom:speed></extensions></trkpt>
   <trkpt lat="59.3275983839" lon="34.6974915579"><ele>162.727</ele><time>2026-08-17T03:52:53.652Z</time><hdop>3.0</hdop><vdop>3.5</vdop><extensions><gom:speed>0.013</gom:speed></extensions></trkpt>
   <trkpt lat="59.3275965818" lon="34.6974911388"><ele>162.734</ele><time>2026-08-17T03:52:54.652Z</time><hdop>3.0</hdop><vdop>3.5</vdop><extensions><gom:speed>0.017</gom:speed></extensions></trkpt>
   <trkpt lat="59.3275952826" lon="34.697491055"><ele>162.742</ele><time>2026-08-17T03:52:55.652Z</time><hdop>3.0</hdop><vdop>3.25</vdop><extensions><gom:speed>0.02</gom:speed></extensions></trkpt>
   <trkpt lat="59.3275932709" lon="34.6974909712"><ele>162.747</ele><time>2026-08-17T03:52:56.645Z</time><hdop>3.0</hdop><vdop>3.062</vdop><extensions><gom:speed>0.093</gom:speed></extensions></trkpt>
   <trkpt lat="59.3275912593" lon="34.6974913903"><ele>162.749</ele><time>2026-08-17T03:52:57.652Z</time><hdop>3.0</hdop><vdop>3.062</vdop><extensions><gom:speed>0.021</gom:speed></extensions></trkpt>
   <trkpt lat="59.327590463" lon="34.6974913903"><ele>162.752</ele><time>2026-08-17T03:52:58.652Z</time><hdop>3.0</hdop><vdop>2.875</vdop><extensions><gom:speed>0.022</gom:speed></extensions></trkpt>
   <trkpt lat="59.3275897925" lon="34.6974912226"><ele>162.754</ele><time>2026-08-17T03:52:59.652Z</time><hdop>3.0</hdop><vdop>2.812</vdop><extensions><gom:speed>0.018</gom:speed></extensions></trkpt>
   <trkpt lat="59.3275896667" lon="34.697491055"><ele>162.755</ele><time>2026-08-17T03:53:00.645Z</time><hdop>3.0</hdop><vdop>2.75</vdop><extensions><gom:speed>0.1</gom:speed></extensions></trkpt>
   <trkpt lat="59.3275899601" lon="34.6974905521"><ele>162.754</ele><time>2026-08-17T03:53:01.653Z</time><hdop>3.0</hdop><vdop>2.687</vdop><extensions><gom:speed>0.011</gom:speed></extensions></trkpt>
   <trkpt lat="59.327590463" lon="34.6974903844"><ele>162.753</ele><time>2026-08-17T03:53:02.652Z</time><hdop>3.0</hdop><vdop>2.625</vdop><extensions><gom:speed>0.013</gom:speed></extensions></trkpt>
   <trkpt lat="59.3275899601" lon="34.6974907197"><ele>162.633</ele><time>2026-08-17T03:53:03.654Z</time><hdop>3.0</hdop><vdop>2.5</vdop><extensions><gom:speed>0.09</gom:speed></extensions></trkpt>
   <trkpt lat="59.3275897925" lon="34.6974913903"><ele>162.563</ele><time>2026-08-17T03:53:04.665Z</time><hdop>3.0</hdop><vdop>2.5</vdop><extensions><gom:speed>0.018</gom:speed></extensions></trkpt>
   <trkpt lat="59.3275898763" lon="34.6974923961"><ele>162.551</ele><time>2026-08-17T03:53:05.652Z</time><hdop>3.0</hdop><vdop>2.5</vdop><extensions><gom:speed>0.018</gom:speed></extensions></trkpt>
   <trkpt lat="59.3275898763" lon="34.6974929828"><ele>162.543</ele><time>2026-08-17T03:53:06.652Z</time><hdop>3.0</hdop><vdop>2.5</vdop><extensions><gom:speed>0.001</gom:speed></extensions></trkpt>
   <trkpt lat="59.3275898763" lon="34.6974935696"><ele>162.234</ele><time>2026-08-17T03:53:07.660Z</time><hdop>3.0</hdop><vdop>2.5</vdop><extensions><gom:speed>0.015</gom:speed></extensions></trkpt>
   <trkpt lat="59.3275884933" lon="34.697493821"><ele>162.049</ele><time>2026-08-17T03:53:08.499Z</time><hdop>3.0</hdop><vdop>2.5</vdop><extensions><gom:speed>0.19</gom:speed></extensions></trkpt>
   <trkpt lat="59.327585392" lon="34.6974939887"><ele>161.929</ele><time>2026-08-17T03:53:09.278Z</time><hdop>3.0</hdop><vdop>2.75</vdop><extensions><gom:speed>0.519</gom:speed></extensions></trkpt>
   <trkpt lat="59.3275821649" lon="34.697493821"><ele>161.875</ele><time>2026-08-17T03:53:10.482Z</time><hdop>3.0</hdop><vdop>2.75</vdop><extensions><gom:speed>0.11</gom:speed></extensions></trkpt>
   <trkpt lat="59.3275827936" lon="34.6974948269"><ele>161.849</ele><time>2026-08-17T03:53:11.653Z</time><hdop>3.0</hdop><vdop>2.875</vdop><extensions><gom:speed>0.084</gom:speed></extensions></trkpt>
   <trkpt lat="59.3275807819" lon="34.6974997722"><ele>161.834</ele><time>2026-08-17T03:53:12.566Z</time><hdop>3.0</hdop><vdop>2.875</vdop><extensions><gom:speed>0.489</gom:speed></extensions></trkpt>
   <trkpt lat="59.327581662" lon="34.6975016162"><ele>161.581</ele><time>2026-08-17T03:53:13.478Z</time><hdop>3.0</hdop><vdop>2.75</vdop><extensions><gom:speed>0.328</gom:speed></extensions></trkpt>
   <trkpt lat="59.32758447" lon="34.697499856"><ele>161.03</ele><time>2026-08-17T03:53:14.074Z</time><hdop>3.0</hdop><vdop>2.812</vdop><extensions><gom:speed>0.302</gom:speed></extensions></trkpt>
   <trkpt lat="59.3275891638" lon="34.6974974252"><ele>160.406</ele><time>2026-08-17T03:53:14.645Z</time><hdop>3.0</hdop><vdop>2.812</vdop><extensions><gom:speed>0.246</gom:speed></extensions></trkpt>
   <trkpt lat="59.3275907983" lon="34.69749709"><ele>160.034</ele><time>2026-08-17T03:53:15.278Z</time><hdop>3.0</hdop><vdop>2.812</vdop><extensions><gom:speed>0.294</gom:speed></extensions></trkpt>
   <trkpt lat="59.3275950731" lon="34.6974942401"><ele>159.82</ele><time>2026-08-17T03:53:15.885Z</time><hdop>3.0</hdop><vdop>2.75</vdop><extensions><gom:speed>0.282</gom:speed></extensions></trkpt>
   <trkpt lat="59.3276056762" lon="34.6974905521"><ele>159.592</ele><time>2026-08-17T03:53:16.645Z</time><hdop>3.0</hdop><vdop>2.812</vdop><extensions><gom:speed>0.332</gom:speed></extensions></trkpt>
   <trkpt lat="59.3276113759" lon="34.6974923961"><ele>159.456</ele><time>2026-08-17T03:53:17.544Z</time><hdop>3.062</hdop><vdop>2.812</vdop><extensions><gom:speed>0.399</gom:speed></extensions></trkpt>
   <trkpt lat="59.3276234877" lon="34.697499856"><ele>159.601</ele><time>2026-08-17T03:53:18.364Z</time><hdop>3.062</hdop><vdop>2.937</vdop><extensions><gom:speed>0.45</gom:speed></extensions></trkpt>
   <trkpt lat="59.3276301932" lon="34.6975154463"><ele>159.703</ele><time>2026-08-17T03:53:19.244Z</time><hdop>3.062</hdop><vdop>3.312</vdop><extensions><gom:speed>0.586</gom:speed></extensions></trkpt>
   <trkpt lat="59.3276318696" lon="34.6975263428"><ele>159.37</ele><time>2026-08-17T03:53:20.377Z</time><hdop>3.062</hdop><vdop>3.25</vdop><extensions><gom:speed>0.446</gom:speed></extensions></trkpt>
   <trkpt lat="59.3276317858" lon="34.6975381613"><ele>159.037</ele><time>2026-08-17T03:53:21.663Z</time><hdop>3.062</hdop><vdop>3.812</vdop><extensions><gom:speed>0.4</gom:speed></extensions></trkpt>
   <trkpt lat="59.3276331688" lon="34.6975463756"><ele>158.838</ele><time>2026-08-17T03:53:22.603Z</time><hdop>3.0</hdop><vdop>3.812</vdop><extensions><gom:speed>0.38</gom:speed></extensions></trkpt>
   <trkpt lat="59.3276343842" lon="34.697555428"><ele>158.714</ele><time>2026-08-17T03:53:23.645Z</time><hdop>3.0</hdop><vdop>3.687</vdop><extensions><gom:speed>0.379</gom:speed></extensions></trkpt>
   <trkpt lat="59.3276372759" lon="34.6975617983"><ele>158.719</ele><time>2026-08-17T03:53:24.667Z</time><hdop>3.0</hdop><vdop>3.562</vdop><extensions><gom:speed>0.176</gom:speed></extensions></trkpt>
   <trkpt lat="59.3276388685" lon="34.6975707669"><ele>158.747</ele><time>2026-08-17T03:53:25.486Z</time><hdop>3.0</hdop><vdop>3.312</vdop><extensions><gom:speed>0.24</gom:speed></extensions></trkpt>
   <trkpt lat="59.3276406706" lon="34.6975806575"><ele>158.784</ele><time>2026-08-17T03:53:26.518Z</time><hdop>3.0</hdop><vdop>3.125</vdop><extensions><gom:speed>0.23</gom:speed></extensions></trkpt>
   <trkpt lat="59.3276420955" lon="34.6975873631"><ele>158.989</ele><time>2026-08-17T03:53:27.652Z</time><hdop>3.0</hdop><vdop>3.125</vdop><extensions><gom:speed>0.098</gom:speed></extensions></trkpt>
   <trkpt lat="59.327643269" lon="34.697593398"><ele>159.112</ele><time>2026-08-17T03:53:28.652Z</time><hdop>3.0</hdop><vdop>2.937</vdop><extensions><gom:speed>0.077</gom:speed></extensions></trkpt>
   <trkpt lat="59.3276438976" lon="34.6976002712"><ele>159.186</ele><time>2026-08-17T03:53:29.523Z</time><hdop>3.0</hdop><vdop>2.937</vdop><extensions><gom:speed>0.112</gom:speed></extensions></trkpt>
   <trkpt lat="59.3276439815" lon="34.6976083178"><ele>159.555</ele><time>2026-08-17T03:53:30.383Z</time><hdop>3.0</hdop><vdop>2.562</vdop><extensions><gom:speed>0.147</gom:speed></extensions></trkpt>
   <trkpt lat="59.3276433947" lon="34.697617035"><ele>160.134</ele><time>2026-08-17T03:53:31.142Z</time><hdop>3.0</hdop><vdop>2.5</vdop><extensions><gom:speed>0.186</gom:speed></extensions></trkpt>
   <trkpt lat="59.3276427661" lon="34.6976205554"><ele>160.479</ele><time>2026-08-17T03:53:31.658Z</time><hdop>3.0</hdop><vdop>2.562</vdop><extensions><gom:speed>0.2</gom:speed></extensions></trkpt>
   <trkpt lat="59.3276419698" lon="34.6976264227"><ele>160.682</ele><time>2026-08-17T03:53:32.652Z</time><hdop>3.0</hdop><vdop>2.625</vdop><extensions><gom:speed>0.219</gom:speed></extensions></trkpt>
   <trkpt lat="59.3276414669" lon="34.6976325415"><ele>160.803</ele><time>2026-08-17T03:53:33.581Z</time><hdop>3.0</hdop><vdop>2.625</vdop><extensions><gom:speed>0.212</gom:speed></extensions></trkpt>
   <trkpt lat="59.3276398743" lon="34.6976402529"><ele>160.82</ele><time>2026-08-17T03:53:34.359Z</time><hdop>3.0</hdop><vdop>2.875</vdop><extensions><gom:speed>0.321</gom:speed></extensions></trkpt>
   <trkpt lat="59.3276384913" lon="34.6976461202"><ele>160.987</ele><time>2026-08-17T03:53:35.340Z</time><hdop>3.0</hdop><vdop>3.0</vdop><extensions><gom:speed>0.294</gom:speed></extensions></trkpt>
   <trkpt lat="59.3276368988" lon="34.6976500597"><ele>161.301</ele><time>2026-08-17T03:53:36.059Z</time><hdop>3.0</hdop><vdop>3.25</vdop><extensions><gom:speed>0.291</gom:speed></extensions></trkpt>
   <trkpt lat="59.3276359767" lon="34.6976529934"><ele>161.145</ele><time>2026-08-17T03:53:36.652Z</time><hdop>3.0</hdop><vdop>3.312</vdop><extensions><gom:speed>0.253</gom:speed></extensions></trkpt>
   <trkpt lat="59.3276340908" lon="34.6976547536"><ele>161.052</ele><time>2026-08-17T03:53:37.263Z</time><hdop>3.0</hdop><vdop>3.312</vdop><extensions><gom:speed>0.26</gom:speed></extensions></trkpt>
   <trkpt lat="59.3276317858" lon="34.6976558432"><ele>160.983</ele><time>2026-08-17T03:53:38.163Z</time><hdop>3.0</hdop><vdop>3.687</vdop><extensions><gom:speed>0.225</gom:speed></extensions></trkpt>
   <trkpt lat="59.3276310733" lon="34.6976562623"><ele>161.267</ele><time>2026-08-17T03:53:38.660Z</time><hdop>3.0</hdop><vdop>3.187</vdop><extensions><gom:speed>0.171</gom:speed></extensions></trkpt>
   <trkpt lat="59.3276275948" lon="34.6976575196"><ele>161.427</ele><time>2026-08-17T03:53:39.652Z</time><hdop>3.0</hdop><vdop>3.25</vdop><extensions><gom:speed>0.182</gom:speed></extensions></trkpt>
   <trkpt lat="59.3276254994" lon="34.6976596989"><ele>161.522</ele><time>2026-08-17T03:53:40.622Z</time><hdop>3.0</hdop><vdop>3.25</vdop><extensions><gom:speed>0.215</gom:speed></extensions></trkpt>
   <trkpt lat="59.3276221885" lon="34.6976622973"><ele>161.752</ele><time>2026-08-17T03:53:41.401Z</time><hdop>3.0</hdop><vdop>3.187</vdop><extensions><gom:speed>0.204</gom:speed></extensions></trkpt>
   <trkpt lat="59.3276198835" lon="34.697667075"><ele>161.818</ele><time>2026-08-17T03:53:42.653Z</time><hdop>3.0</hdop><vdop>3.312</vdop><extensions><gom:speed>0.211</gom:speed></extensions></trkpt>
   <trkpt lat="59.3276171594" lon="34.6976732776"><ele>161.857</ele><time>2026-08-17T03:53:43.181Z</time><hdop>3.0</hdop><vdop>3.312</vdop><extensions><gom:speed>0.297</gom:speed></extensions></trkpt>
   <trkpt lat="59.3276161955" lon="34.6976756245"><ele>161.903</ele><time>2026-08-17T03:53:43.652Z</time><hdop>3.0</hdop><vdop>3.5</vdop><extensions><gom:speed>0.233</gom:speed></extensions></trkpt>
   <trkpt lat="59.3276137647" lon="34.6976798993"><ele>161.931</ele><time>2026-08-17T03:53:44.406Z</time><hdop>3.0</hdop><vdop>3.5</vdop><extensions><gom:speed>0.246</gom:speed></extensions></trkpt>
   <trkpt lat="59.32761037" lon="34.697688365"><ele>162.078</ele><time>2026-08-17T03:53:45.326Z</time><hdop>3.0</hdop><vdop>3.562</vdop><extensions><gom:speed>0.306</gom:speed></extensions></trkpt>
   <trkpt lat="59.3276076878" lon="34.6976944838"><ele>162.039</ele><time>2026-08-17T03:53:46.652Z</time><hdop>3.0</hdop><vdop>3.312</vdop><extensions><gom:speed>0.197</gom:speed></extensions></trkpt>
   <trkpt lat="59.3276042932" lon="34.6977004349"><ele>161.704</ele><time>2026-08-17T03:53:47.652Z</time><hdop>3.0</hdop><vdop>3.0</vdop><extensions><gom:speed>0.177</gom:speed></extensions></trkpt>
   <trkpt lat="59.3276018624" lon="34.6977053803"><ele>161.296</ele><time>2026-08-17T03:53:48.652Z</time><hdop>3.0</hdop><vdop>2.812</vdop><extensions><gom:speed>0.167</gom:speed></extensions></trkpt>
   <trkpt lat="59.3276011918" lon="34.6977083978"><ele>160.932</ele><time>2026-08-17T03:53:49.652Z</time><hdop>3.0</hdop><vdop>2.687</vdop><extensions><gom:speed>0.105</gom:speed></extensions></trkpt>
   <trkpt lat="59.3275994736" lon="34.6977120858"><ele>160.643</ele><time>2026-08-17T03:53:50.658Z</time><hdop>3.0</hdop><vdop>2.75</vdop><extensions><gom:speed>0.11</gom:speed></extensions></trkpt>
   <trkpt lat="59.3275980905" lon="34.6977145165"><ele>160.473</ele><time>2026-08-17T03:53:51.652Z</time><hdop>3.0</hdop><vdop>2.5</vdop><extensions><gom:speed>0.068</gom:speed></extensions></trkpt>
   <trkpt lat="59.3275972943" lon="34.6977166958"><ele>160.372</ele><time>2026-08-17T03:53:52.646Z</time><hdop>3.0</hdop><vdop>2.5</vdop><extensions><gom:speed>0.089</gom:speed></extensions></trkpt>
   <trkpt lat="59.3275970847" lon="34.6977169473"><ele>160.31</ele><time>2026-08-17T03:53:53.653Z</time><hdop>3.0</hdop><vdop>2.5</vdop><extensions><gom:speed>0.055</gom:speed></extensions></trkpt>
   <trkpt lat="59.3275967913" lon="34.6977167797"><ele>160.259</ele><time>2026-08-17T03:53:54.652Z</time><hdop>3.0</hdop><vdop>2.5</vdop><extensions><gom:speed>0.047</gom:speed></extensions></trkpt>
   <trkpt lat="59.3275966656" lon="34.6977172826"><ele>160.232</ele><time>2026-08-17T03:53:55.652Z</time><hdop>3.0</hdop><vdop>2.5</vdop><extensions><gom:speed>0.038</gom:speed></extensions></trkpt>
   <trkpt lat="59.327596498" lon="34.6977172826"><ele>160.218</ele><time>2026-08-17T03:53:56.652Z</time><hdop>3.0</hdop><vdop>2.5</vdop><extensions><gom:speed>0.031</gom:speed></extensions></trkpt>
   <trkpt lat="59.327596498" lon="34.6977168635"><ele>160.21</ele><time>2026-08-17T03:53:57.579Z</time><hdop>3.0</hdop><vdop>2.5</vdop><extensions><gom:speed>0.075</gom:speed></extensions></trkpt>
   <trkpt lat="59.3275965818" lon="34.6977169473"><ele>160.251</ele><time>2026-08-17T03:53:58.337Z</time><hdop>3.0</hdop><vdop>2.5</vdop><extensions><gom:speed>0.083</gom:speed></extensions></trkpt>
   <trkpt lat="59.3275966656" lon="34.6977173664"><ele>160.491</ele><time>2026-08-17T03:53:59.652Z</time><hdop>3.0</hdop><vdop>2.5</vdop><extensions><gom:speed>0.018</gom:speed></extensions></trkpt>
   <trkpt lat="59.3275959951" lon="34.6977187913"><ele>160.635</ele><time>2026-08-17T03:54:00.654Z</time><hdop>3.0</hdop><vdop>2.5</vdop><extensions><gom:speed>0.017</gom:speed></extensions></trkpt>
   <trkpt lat="59.3275954922" lon="34.6977203839"><ele>160.722</ele><time>2026-08-17T03:54:01.652Z</time><hdop>3.0</hdop><vdop>2.5</vdop><extensions><gom:speed>0.025</gom:speed></extensions></trkpt>
   <trkpt lat="59.3275952826" lon="34.6977218926"><ele>160.775</ele><time>2026-08-17T03:54:02.652Z</time><hdop>3.0</hdop><vdop>2.5</vdop><extensions><gom:speed>0.018</gom:speed></extensions></trkpt>
   <trkpt lat="59.3275947797" lon="34.6977233175"><ele>160.806</ele><time>2026-08-17T03:54:03.649Z</time><hdop>3.0</hdop><vdop>2.5</vdop><extensions><gom:speed>0.105</gom:speed></extensions></trkpt>
   <trkpt lat="59.3275946959" lon="34.6977239881"><ele>160.823</ele><time>2026-08-17T03:54:04.652Z</time><hdop>3.0</hdop><vdop>2.5</vdop><extensions><gom:speed>0.019</gom:speed></extensions></trkpt>
   <trkpt lat="59.3275942768" lon="34.6977237366"><ele>160.835</ele><time>2026-08-17T03:54:05.645Z</time><hdop>3.0</hdop><vdop>2.5</vdop><extensions><gom:speed>0.062</gom:speed></extensions></trkpt>
   <trkpt lat="59.3275943606" lon="34.6977241557"><ele>160.841</ele><time>2026-08-17T03:54:06.652Z</time><hdop>3.0</hdop><vdop>2.5</vdop><extensions><gom:speed>0.03</gom:speed></extensions></trkpt>
   <trkpt lat="59.3275939834" lon="34.697724491"><ele>160.845</ele><time>2026-08-17T03:54:07.655Z</time><hdop>3.0</hdop><vdop>2.5</vdop><extensions><gom:speed>0.033</gom:speed></extensions></trkpt>
   <trkpt lat="59.3275939834" lon="34.6977243234"><ele>160.849</ele><time>2026-08-17T03:54:08.653Z</time><hdop>3.0</hdop><vdop>2.5</vdop><extensions><gom:speed>0.024</gom:speed></extensions></trkpt>
   <trkpt lat="59.3275938996" lon="34.6977246586"><ele>160.853</ele><time>2026-08-17T03:54:09.658Z</time><hdop>3.0</hdop><vdop>2.5</vdop><extensions><gom:speed>0.062</gom:speed></extensions></trkpt>
   <trkpt lat="59.3275935643" lon="34.6977256645"><ele>160.856</ele><time>2026-08-17T03:54:10.652Z</time><hdop>3.0</hdop><vdop>2.5</vdop><extensions><gom:speed>0.058</gom:speed></extensions></trkpt>
   <trkpt lat="59.3275933967" lon="34.6977259997"><ele>160.642</ele><time>2026-08-17T03:54:11.652Z</time><hdop>3.0</hdop><vdop>2.5</vdop><extensions><gom:speed>0.001</gom:speed></extensions></trkpt>
   <trkpt lat="59.3275932709" lon="34.6977270894"><ele>160.514</ele><time>2026-08-17T03:54:12.299Z</time><hdop>3.0</hdop><vdop>2.5</vdop><extensions><gom:speed>0.169</gom:speed></extensions></trkpt>
   <trkpt lat="59.3275930614" lon="34.6977304422"><ele>160.342</ele><time>2026-08-17T03:54:13.260Z</time><hdop>3.0</hdop><vdop>2.5</vdop><extensions><gom:speed>0.229</gom:speed></extensions></trkpt>
   <trkpt lat="59.3275930614" lon="34.6977334596"><ele>160.679</ele><time>2026-08-17T03:54:14.652Z</time><hdop>3.0</hdop><vdop>2.5</vdop><extensions><gom:speed>0.116</gom:speed></extensions></trkpt>
   <trkpt lat="59.3275934805" lon="34.6977343817"><ele>160.88</ele><time>2026-08-17T03:54:15.617Z</time><hdop>3.0</hdop><vdop>2.5</vdop><extensions><gom:speed>0.134</gom:speed></extensions></trkpt>
   <trkpt lat="59.3275952826" lon="34.6977377344"><ele>161.067</ele><time>2026-08-17T03:54:16.659Z</time><hdop>3.0</hdop><vdop>2.5</vdop><extensions><gom:speed>0.155</gom:speed></extensions></trkpt>
   <trkpt lat="59.3275966656" lon="34.6977399975"><ele>160.966</ele><time>2026-08-17T03:54:17.337Z</time><hdop>3.0</hdop><vdop>2.5</vdop><extensions><gom:speed>0.14</gom:speed></extensions></trkpt>
   <trkpt lat="59.3275988868" lon="34.6977412548"><ele>160.993</ele><time>2026-08-17T03:54:18.652Z</time><hdop>3.0</hdop><vdop>2.5</vdop><extensions><gom:speed>0.089</gom:speed></extensions></trkpt>
   <trkpt lat="59.3276021977" lon="34.6977427636"><ele>161.009</ele><time>2026-08-17T03:54:19.482Z</time><hdop>3.0</hdop><vdop>2.5</vdop><extensions><gom:speed>0.137</gom:speed></extensions></trkpt>
   <trkpt lat="59.3276047961" lon="34.6977437694"><ele>160.902</ele><time>2026-08-17T03:54:20.652Z</time><hdop>3.0</hdop><vdop>2.5</vdop><extensions><gom:speed>0.095</gom:speed></extensions></trkpt>
   <trkpt lat="59.3276067658" lon="34.6977451943"><ele>160.839</ele><time>2026-08-17T03:54:21.617Z</time><hdop>3.0</hdop><vdop>2.5</vdop><extensions><gom:speed>0.129</gom:speed></extensions></trkpt>
   <trkpt lat="59.3276107891" lon="34.6977472898"><ele>160.65</ele><time>2026-08-17T03:54:22.264Z</time><hdop>3.0</hdop><vdop>2.5</vdop><extensions><gom:speed>0.117</gom:speed></extensions></trkpt>
   <trkpt lat="59.3276133875" lon="34.6977479603"><ele>160.591</ele><time>2026-08-17T03:54:23.652Z</time><hdop>3.0</hdop><vdop>2.5</vdop><extensions><gom:speed>0.059</gom:speed></extensions></trkpt>
   <trkpt lat="59.3276165726" lon="34.6977505587"><ele>160.687</ele><time>2026-08-17T03:54:24.652Z</time><hdop>3.0</hdop><vdop>2.5</vdop><extensions><gom:speed>0.069</gom:speed></extensions></trkpt>
   <trkpt lat="59.3276214761" lon="34.6977602817"><ele>160.943</ele><time>2026-08-17T03:54:25.645Z</time><hdop>3.0</hdop><vdop>2.5</vdop><extensions><gom:speed>0.184</gom:speed></extensions></trkpt>
   <trkpt lat="59.3276227752" lon="34.6977644727"><ele>161.096</ele><time>2026-08-17T03:54:26.342Z</time><hdop>3.0</hdop><vdop>2.5</vdop><extensions><gom:speed>0.173</gom:speed></extensions></trkpt>
   <trkpt lat="59.3276257927" lon="34.6977722679"><ele>161.295</ele><time>2026-08-17T03:54:27.645Z</time><hdop>3.0</hdop><vdop>2.5</vdop><extensions><gom:speed>0.136</gom:speed></extensions></trkpt>
   <trkpt lat="59.3276268824" lon="34.6977741957"><ele>161.528</ele><time>2026-08-17T03:54:28.652Z</time><hdop>3.0</hdop><vdop>2.5</vdop><extensions><gom:speed>0.092</gom:speed></extensions></trkpt>
   <trkpt lat="59.3276301932" lon="34.6977847569"><ele>161.625</ele><time>2026-08-17T03:54:29.645Z</time><hdop>3.0</hdop><vdop>2.5</vdop><extensions><gom:speed>0.213</gom:speed></extensions></trkpt>
   <trkpt lat="59.3276318696" lon="34.6977883611"><ele>161.691</ele><time>2026-08-17T03:54:30.652Z</time><hdop>3.0</hdop><vdop>2.5</vdop><extensions><gom:speed>0.159</gom:speed></extensions></trkpt>
   <trkpt lat="59.327634468" lon="34.6977973297"><ele>161.593</ele><time>2026-08-17T03:54:31.652Z</time><hdop>3.0</hdop><vdop>2.5</vdop><extensions><gom:speed>0.144</gom:speed></extensions></trkpt>
   <trkpt lat="59.3276365635" lon="34.6978030294"><ele>161.535</ele><time>2026-08-17T03:54:32.645Z</time><hdop>3.0</hdop><vdop>2.5</vdop><extensions><gom:speed>0.2</gom:speed></extensions></trkpt>
   <trkpt lat="59.3276403772" lon="34.6978130877"><ele>161.615</ele><time>2026-08-17T03:54:33.464Z</time><hdop>3.0</hdop><vdop>2.5</vdop><extensions><gom:speed>0.209</gom:speed></extensions></trkpt>
   <trkpt lat="59.3276442748" lon="34.6978220564"><ele>161.566</ele><time>2026-08-17T03:54:34.597Z</time><hdop>3.0</hdop><vdop>2.5</vdop><extensions><gom:speed>0.243</gom:speed></extensions></trkpt>
   <trkpt lat="59.3276476695" lon="34.6978281751"><ele>161.444</ele><time>2026-08-17T03:54:35.559Z</time><hdop>3.0</hdop><vdop>2.5</vdop><extensions><gom:speed>0.229</gom:speed></extensions></trkpt>
   <trkpt lat="59.3276510642" lon="34.6978318632"><ele>161.013</ele><time>2026-08-17T03:54:36.652Z</time><hdop>3.0</hdop><vdop>2.5</vdop><extensions><gom:speed>0.215</gom:speed></extensions></trkpt>
   <trkpt lat="59.3276533692" lon="34.6978344616"><ele>160.708</ele><time>2026-08-17T03:54:37.652Z</time><hdop>3.0</hdop><vdop>2.5</vdop><extensions><gom:speed>0.207</gom:speed></extensions></trkpt>
   <trkpt lat="59.3276556742" lon="34.6978410833"><ele>160.631</ele><time>2026-08-17T03:54:38.654Z</time><hdop>3.0</hdop><vdop>2.5</vdop><extensions><gom:speed>0.27</gom:speed></extensions></trkpt>
   <trkpt lat="59.3276569734" lon="34.6978454419"><ele>160.629</ele><time>2026-08-17T03:54:39.652Z</time><hdop>3.0</hdop><vdop>2.5</vdop><extensions><gom:speed>0.21</gom:speed></extensions></trkpt>
   <trkpt lat="59.3276578954" lon="34.6978491299"><ele>160.627</ele><time>2026-08-17T03:54:40.222Z</time><hdop>3.0</hdop><vdop>2.5</vdop><extensions><gom:speed>0.246</gom:speed></extensions></trkpt>
   <trkpt lat="59.3276586917" lon="34.6978544943"><ele>160.414</ele><time>2026-08-17T03:54:41.062Z</time><hdop>3.0</hdop><vdop>2.5</vdop><extensions><gom:speed>0.238</gom:speed></extensions></trkpt>
   <trkpt lat="59.3276590689" lon="34.6978575956"><ele>160.295</ele><time>2026-08-17T03:54:41.652Z</time><hdop>3.0</hdop><vdop>2.5</vdop><extensions><gom:speed>0.257</gom:speed></extensions></trkpt>
   <trkpt lat="59.3276586917" lon="34.6978614513"><ele>160.214</ele><time>2026-08-17T03:54:42.661Z</time><hdop>3.0</hdop><vdop>2.5</vdop><extensions><gom:speed>0.111</gom:speed></extensions></trkpt>
   <trkpt lat="59.3276579792" lon="34.6978605293"><ele>160.165</ele><time>2026-08-17T03:54:43.652Z</time><hdop>3.0</hdop><vdop>2.5</vdop><extensions><gom:speed>0.043</gom:speed></extensions></trkpt>
   <trkpt lat="59.3276569734" lon="34.6978608646"><ele>160.137</ele><time>2026-08-17T03:54:44.652Z</time><hdop>3.0</hdop><vdop>2.5</vdop><extensions><gom:speed>0.044</gom:speed></extensions></trkpt>
   <trkpt lat="59.3276564705" lon="34.6978618704"><ele>160.122</ele><time>2026-08-17T03:54:45.655Z</time><hdop>3.0</hdop><vdop>2.5</vdop><extensions><gom:speed>0.021</gom:speed></extensions></trkpt>
   <trkpt lat="59.327655297" lon="34.6978641335"><ele>160.115</ele><time>2026-08-17T03:54:46.645Z</time><hdop>3.0</hdop><vdop>2.5</vdop><extensions><gom:speed>0.064</gom:speed></extensions></trkpt>
   <trkpt lat="59.3276554647" lon="34.6978644688"><ele>160.108</ele><time>2026-08-17T03:54:47.652Z</time><hdop>3.0</hdop><vdop>2.5</vdop><extensions><gom:speed>0.015</gom:speed></extensions></trkpt>
   <trkpt lat="59.327654375" lon="34.6978658937"><ele>160.109</ele><time>2026-08-17T03:54:48.645Z</time><hdop>3.0</hdop><vdop>2.5</vdop><extensions><gom:speed>0.058</gom:speed></extensions></trkpt>
   <trkpt lat="59.3276539978" lon="34.6978655584"><ele>160.117</ele><time>2026-08-17T03:54:49.653Z</time><hdop>3.0</hdop><vdop>2.5</vdop><extensions><gom:speed>0.02</gom:speed></extensions></trkpt>
   <trkpt lat="59.3276535787" lon="34.6978665643"><ele>160.124</ele><time>2026-08-17T03:54:50.652Z</time><hdop>3.0</hdop><vdop>2.5</vdop><extensions><gom:speed>0.019</gom:speed></extensions></trkpt>
   <trkpt lat="59.3276532854" lon="34.6978676539"><ele>160.133</ele><time>2026-08-17T03:54:51.652Z</time><hdop>3.0</hdop><vdop>2.5</vdop><extensions><gom:speed>0.022</gom:speed></extensions></trkpt>
   <trkpt lat="59.3276527825" lon="34.6978682406"><ele>160.135</ele><time>2026-08-17T03:54:52.652Z</time><hdop>3.0</hdop><vdop>2.5</vdop><extensions><gom:speed>0.016</gom:speed></extensions></trkpt>
   <trkpt lat="59.3276522795" lon="34.6978691627"><ele>160.142</ele><time>2026-08-17T03:54:53.648Z</time><hdop>3.0</hdop><vdop>2.5</vdop><extensions><gom:speed>0.108</gom:speed></extensions></trkpt>
   <trkpt lat="59.3276513994" lon="34.6978688274"><ele>160.149</ele><time>2026-08-17T03:54:54.652Z</time><hdop>3.0</hdop><vdop>2.5</vdop><extensions><gom:speed>0.01</gom:speed></extensions></trkpt>
   <trkpt lat="59.3276507708" lon="34.6978685759"><ele>160.155</ele><time>2026-08-17T03:54:55.652Z</time><hdop>3.0</hdop><vdop>2.5</vdop><extensions><gom:speed>0.015</gom:speed></extensions></trkpt>
   <trkpt lat="59.3276502679" lon="34.6978687436"><ele>160.161</ele><time>2026-08-17T03:54:56.652Z</time><hdop>3.0</hdop><vdop>2.5</vdop><extensions><gom:speed>0.009</gom:speed></extensions></trkpt>
   <trkpt lat="59.3276500583" lon="34.6978695817"><ele>160.171</ele><time>2026-08-17T03:54:57.653Z</time><hdop>3.0</hdop><vdop>2.5</vdop><extensions><gom:speed>0.01</gom:speed></extensions></trkpt>
   <trkpt lat="59.3276500583" lon="34.6978702523"><ele>160.177</ele><time>2026-08-17T03:54:58.645Z</time><hdop>3.0</hdop><vdop>2.5</vdop><extensions><gom:speed>0.032</gom:speed></extensions></trkpt>
   <trkpt lat="59.3276502679" lon="34.697870839"><ele>160.183</ele><time>2026-08-17T03:54:59.652Z</time><hdop>3.0</hdop><vdop>2.5</vdop><extensions><gom:speed>0.032</gom:speed></extensions></trkpt>
   <trkpt lat="59.3276503936" lon="34.6978715934"><ele>160.186</ele><time>2026-08-17T03:55:00.650Z</time><hdop>3.0</hdop><vdop>2.5</vdop><extensions><gom:speed>0.039</gom:speed></extensions></trkpt>
   <trkpt lat="59.3276505613" lon="34.6978721801"><ele>160.345</ele><time>2026-08-17T03:55:01.652Z</time><hdop>3.0</hdop><vdop>2.5</vdop><extensions><gom:speed>0.04</gom:speed></extensions></trkpt>
   <trkpt lat="59.3276517766" lon="34.6978748623"><ele>160.958</ele><time>2026-08-17T03:55:02.652Z</time><hdop>3.0</hdop><vdop>2.5</vdop><extensions><gom:speed>0.26</gom:speed></extensions></trkpt>
   <trkpt lat="59.3276528663" lon="34.6978769578"><ele>161.299</ele><time>2026-08-17T03:55:03.645Z</time><hdop>3.0</hdop><vdop>2.5</vdop><extensions><gom:speed>0.087</gom:speed></extensions></trkpt>
   <trkpt lat="59.3276532854" lon="34.6978775446"><ele>161.502</ele><time>2026-08-17T03:55:04.644Z</time><hdop>3.0</hdop><vdop>2.5</vdop><extensions><gom:speed>0.079</gom:speed></extensions></trkpt>
   <trkpt lat="59.3276536626" lon="34.6978782989"><ele>161.621</ele><time>2026-08-17T03:55:05.647Z</time><hdop>3.0</hdop><vdop>2.5</vdop><extensions><gom:speed>0.079</gom:speed></extensions></trkpt>
   <trkpt lat="59.3276540817" lon="34.6978791371"><ele>161.666</ele><time>2026-08-17T03:55:06.645Z</time><hdop>3.0</hdop><vdop>2.5</vdop><extensions><gom:speed>0.111</gom:speed></extensions></trkpt>
   <trkpt lat="59.3276545846" lon="34.6978804782"><ele>161.693</ele><time>2026-08-17T03:55:07.652Z</time><hdop>3.0</hdop><vdop>2.5</vdop><extensions><gom:speed>0.113</gom:speed></extensions></trkpt>
   <trkpt lat="59.3276550875" lon="34.6978820708"><ele>161.71</ele><time>2026-08-17T03:55:08.645Z</time><hdop>3.0</hdop><vdop>2.5</vdop><extensions><gom:speed>0.094</gom:speed></extensions></trkpt>
   <trkpt lat="59.327655297" lon="34.6978834957"><ele>161.72</ele><time>2026-08-17T03:55:09.652Z</time><hdop>3.0</hdop><vdop>2.5</vdop><extensions><gom:speed>0.094</gom:speed></extensions></trkpt>
   <trkpt lat="59.327655297" lon="34.6978842501"><ele>161.726</ele><time>2026-08-17T03:55:10.644Z</time><hdop>3.0</hdop><vdop>2.5</vdop><extensions><gom:speed>0.079</gom:speed></extensions></trkpt>
   <trkpt lat="59.3276553809" lon="34.6978851721"><ele>161.729</ele><time>2026-08-17T03:55:11.657Z</time><hdop>3.0</hdop><vdop>2.5</vdop><extensions><gom:speed>0.079</gom:speed></extensions></trkpt>
   <trkpt lat="59.3276553809" lon="34.6978859265"><ele>161.729</ele><time>2026-08-17T03:55:12.652Z</time><hdop>3.0</hdop><vdop>2.5</vdop><extensions><gom:speed>0.077</gom:speed></extensions></trkpt>
   <trkpt lat="59.3276553809" lon="34.6978866808"><ele>161.728</ele><time>2026-08-17T03:55:13.645Z</time><hdop>3.0</hdop><vdop>2.5</vdop><extensions><gom:speed>0.073</gom:speed></extensions></trkpt>
   <trkpt lat="59.3276554647" lon="34.6978873514"><ele>161.728</ele><time>2026-08-17T03:55:14.645Z</time><hdop>3.0</hdop><vdop>2.5</vdop><extensions><gom:speed>0.072</gom:speed></extensions></trkpt>
   <trkpt lat="59.3276553809" lon="34.6978879381"><ele>161.728</ele><time>2026-08-17T03:55:15.645Z</time><hdop>3.0</hdop><vdop>2.5</vdop><extensions><gom:speed>0.071</gom:speed></extensions></trkpt>
   <trkpt lat="59.3276553809" lon="34.6978886925"><ele>161.728</ele><time>2026-08-17T03:55:16.645Z</time><hdop>3.0</hdop><vdop>2.5</vdop><extensions><gom:speed>0.072</gom:speed></extensions></trkpt>
   <trkpt lat="59.3276555904" lon="34.6978892792"><ele>161.728</ele><time>2026-08-17T03:55:17.646Z</time><hdop>3.0</hdop><vdop>2.5</vdop><extensions><gom:speed>0.073</gom:speed></extensions></trkpt>
   <trkpt lat="59.3276559676" lon="34.6978895307"><ele>161.727</ele><time>2026-08-17T03:55:18.644Z</time><hdop>3.0</hdop><vdop>2.5</vdop><extensions><gom:speed>0.076</gom:speed></extensions></trkpt>
   <trkpt lat="59.3276564705" lon="34.6978897821"><ele>161.733</ele><time>2026-08-17T03:55:19.645Z</time><hdop>3.0</hdop><vdop>2.5</vdop><extensions><gom:speed>0.076</gom:speed></extensions></trkpt>
   <trkpt lat="59.3276568896" lon="34.6978895307"><ele>161.733</ele><time>2026-08-17T03:55:20.644Z</time><hdop>3.0</hdop><vdop>2.5</vdop><extensions><gom:speed>0.076</gom:speed></extensions></trkpt>
   <trkpt lat="59.3276572668" lon="34.6978888601"><ele>161.734</ele><time>2026-08-17T03:55:21.645Z</time><hdop>3.0</hdop><vdop>2.5</vdop><extensions><gom:speed>0.077</gom:speed></extensions></trkpt>
   <trkpt lat="59.3276574763" lon="34.6978886925"><ele>161.735</ele><time>2026-08-17T03:55:22.645Z</time><hdop>3.0</hdop><vdop>2.5</vdop><extensions><gom:speed>0.076</gom:speed></extensions></trkpt>
   <trkpt lat="59.3276577697" lon="34.6978886925"><ele>161.735</ele><time>2026-08-17T03:55:23.646Z</time><hdop>3.0</hdop><vdop>2.5</vdop><extensions><gom:speed>0.075</gom:speed></extensions></trkpt>
   <trkpt lat="59.3276581888" lon="34.6978889439"><ele>161.737</ele><time>2026-08-17T03:55:24.648Z</time><hdop>3.0</hdop><vdop>2.5</vdop><extensions><gom:speed>0.075</gom:speed></extensions></trkpt>
   <trkpt lat="59.3276582726" lon="34.6978892792"><ele>161.737</ele><time>2026-08-17T03:55:25.644Z</time><hdop>3.0</hdop><vdop>2.5</vdop><extensions><gom:speed>0.075</gom:speed></extensions></trkpt>
   <trkpt lat="59.3276583983" lon="34.6978892792"><ele>161.738</ele><time>2026-08-17T03:55:26.367Z</time><hdop>3.0</hdop><vdop>2.5</vdop><extensions><gom:speed>0.075</gom:speed></extensions></trkpt>
   <trkpt lat="59.3276587755" lon="34.6978896983"><ele>161.737</ele><time>2026-08-17T03:55:27.652Z</time><hdop>3.0</hdop><vdop>2.5</vdop><extensions><gom:speed>0.075</gom:speed></extensions></trkpt>
   <trkpt lat="59.3276587755" lon="34.6978897821"><ele>161.737</ele><time>2026-08-17T03:55:28.645Z</time><hdop>3.0</hdop><vdop>2.5</vdop><extensions><gom:speed>0.076</gom:speed></extensions></trkpt>
   <trkpt lat="59.3276588593" lon="34.6978899498"><ele>161.737</ele><time>2026-08-17T03:55:29.645Z</time><hdop>3.0</hdop><vdop>2.5</vdop><extensions><gom:speed>0.074</gom:speed></extensions></trkpt>
   <trkpt lat="59.3276591946" lon="34.6978900336"><ele>161.736</ele><time>2026-08-17T03:55:30.645Z</time><hdop>3.0</hdop><vdop>2.5</vdop><extensions><gom:speed>0.074</gom:speed></extensions></trkpt>
   <trkpt lat="59.3276592784" lon="34.6978901174"><ele>161.735</ele><time>2026-08-17T03:55:31.646Z</time><hdop>3.0</hdop><vdop>2.5</vdop><extensions><gom:speed>0.075</gom:speed></extensions></trkpt>
   <trkpt lat="59.327659488" lon="34.6978903689"><ele>161.735</ele><time>2026-08-17T03:55:32.652Z</time><hdop>3.0</hdop><vdop>2.5</vdop><extensions><gom:speed>0.076</gom:speed></extensions></trkpt>
   <trkpt lat="59.3276595718" lon="34.6978904527"><ele>161.734</ele><time>2026-08-17T03:55:33.651Z</time><hdop>3.0</hdop><vdop>2.5</vdop><extensions><gom:speed>0.076</gom:speed></extensions></trkpt>
   <trkpt lat="59.3276595718" lon="34.6978906203"><ele>161.733</ele><time>2026-08-17T03:55:34.645Z</time><hdop>3.0</hdop><vdop>2.5</vdop><extensions><gom:speed>0.076</gom:speed></extensions></trkpt>
   <trkpt lat="59.3276596975" lon="34.6978908718"><ele>161.732</ele><time>2026-08-17T03:55:35.675Z</time><hdop>3.0</hdop><vdop>2.5</vdop><extensions><gom:speed>0.077</gom:speed></extensions></trkpt>
   <trkpt lat="59.3276596975" lon="34.6978910394"><ele>161.731</ele><time>2026-08-17T03:55:36.646Z</time><hdop>3.0</hdop><vdop>2.5</vdop><extensions><gom:speed>0.076</gom:speed></extensions></trkpt>
   <trkpt lat="59.3276595718" lon="34.6978910394"><ele>161.73</ele><time>2026-08-17T03:55:37.496Z</time><hdop>3.0</hdop><vdop>2.5</vdop><extensions><gom:speed>0.076</gom:speed></extensions></trkpt>
   <trkpt lat="59.3276596975" lon="34.6978915423"><ele>161.728</ele><time>2026-08-17T03:55:38.645Z</time><hdop>3.0</hdop><vdop>2.5</vdop><extensions><gom:speed>0.077</gom:speed></extensions></trkpt>
   <trkpt lat="59.3276596975" lon="34.6978918776"><ele>161.725</ele><time>2026-08-17T03:55:39.645Z</time><hdop>3.0</hdop><vdop>2.5</vdop><extensions><gom:speed>0.075</gom:speed></extensions></trkpt>
   <trkpt lat="59.3276597814" lon="34.6978921291"><ele>161.724</ele><time>2026-08-17T03:55:40.652Z</time><hdop>3.0</hdop><vdop>2.5</vdop><extensions><gom:speed>0.075</gom:speed></extensions></trkpt>
   <trkpt lat="59.3276597814" lon="34.6978923805"><ele>161.723</ele><time>2026-08-17T03:55:41.645Z</time><hdop>3.0</hdop><vdop>2.5</vdop><extensions><gom:speed>0.072</gom:speed></extensions></trkpt>
   <trkpt lat="59.3276599909" lon="34.697892632"><ele>161.722</ele><time>2026-08-17T03:55:42.656Z</time><hdop>3.0</hdop><vdop>2.5</vdop><extensions><gom:speed>0.073</gom:speed></extensions></trkpt>
   <trkpt lat="59.3276599909" lon="34.6978928834"><ele>161.722</ele><time>2026-08-17T03:55:43.652Z</time><hdop>3.0</hdop><vdop>2.5</vdop><extensions><gom:speed>0.073</gom:speed></extensions></trkpt>
   <trkpt lat="59.3276599909" lon="34.6978932187"><ele>161.721</ele><time>2026-08-17T03:55:44.659Z</time><hdop>3.0</hdop><vdop>2.5</vdop><extensions><gom:speed>0.072</gom:speed></extensions></trkpt>
   <trkpt lat="59.3276598652" lon="34.697893554"><ele>161.72</ele><time>2026-08-17T03:55:45.645Z</time><hdop>3.0</hdop><vdop>2.5</vdop><extensions><gom:speed>0.068</gom:speed></extensions></trkpt>
   <trkpt lat="59.3276597814" lon="34.6978936378"><ele>161.728</ele><time>2026-08-17T03:55:46.645Z</time><hdop>3.0</hdop><vdop>2.5</vdop><extensions><gom:speed>0.064</gom:speed></extensions></trkpt>
   <trkpt lat="59.3276598652" lon="34.6978936378"><ele>161.733</ele><time>2026-08-17T03:55:47.646Z</time><hdop>3.0</hdop><vdop>2.5</vdop><extensions><gom:speed>0.067</gom:speed></extensions></trkpt>
   <trkpt lat="59.3276598652" lon="34.6978936378"><ele>161.736</ele><time>2026-08-17T03:55:48.645Z</time><hdop>3.0</hdop><vdop>2.5</vdop><extensions><gom:speed>0.068</gom:speed></extensions></trkpt>
   <trkpt lat="59.3276600747" lon="34.6978937216"><ele>161.737</ele><time>2026-08-17T03:55:49.652Z</time><hdop>3.0</hdop><vdop>2.5</vdop><extensions><gom:speed>0.068</gom:speed></extensions></trkpt>
   <trkpt lat="59.3276601585" lon="34.6978934702"><ele>161.737</ele><time>2026-08-17T03:55:50.645Z</time><hdop>3.0</hdop><vdop>2.5</vdop><extensions><gom:speed>0.068</gom:speed></extensions></trkpt>
   <trkpt lat="59.3276603681" lon="34.6978934702"><ele>161.737</ele><time>2026-08-17T03:55:51.652Z</time><hdop>3.0</hdop><vdop>2.5</vdop><extensions><gom:speed>0.069</gom:speed></extensions></trkpt>
   <trkpt lat="59.3276603681" lon="34.6978936378"><ele>161.737</ele><time>2026-08-17T03:55:52.652Z</time><hdop>3.0</hdop><vdop>2.5</vdop><extensions><gom:speed>0.069</gom:speed></extensions></trkpt>
   <trkpt lat="59.3276602843" lon="34.6978937216"><ele>161.737</ele><time>2026-08-17T03:55:53.645Z</time><hdop>3.0</hdop><vdop>2.5</vdop><extensions><gom:speed>0.067</gom:speed></extensions></trkpt>
   <trkpt lat="59.3276602843" lon="34.6978937216"><ele>161.737</ele><time>2026-08-17T03:55:54.652Z</time><hdop>3.0</hdop><vdop>2.5</vdop><extensions><gom:speed>0.068</gom:speed></extensions></trkpt>
   <trkpt lat="59.3276602843" lon="34.6978939731"><ele>161.736</ele><time>2026-08-17T03:55:55.645Z</time><hdop>3.0</hdop><vdop>2.5</vdop><extensions><gom:speed>0.067</gom:speed></extensions></trkpt>
   <trkpt lat="59.3276601585" lon="34.6978940569"><ele>161.736</ele><time>2026-08-17T03:55:56.645Z</time><hdop>3.0</hdop><vdop>2.5</vdop><extensions><gom:speed>0.068</gom:speed></extensions></trkpt>
   <trkpt lat="59.3276601585" lon="34.6978946436"><ele>161.736</ele><time>2026-08-17T03:55:57.644Z</time><hdop>3.0</hdop><vdop>2.5</vdop><extensions><gom:speed>0.068</gom:speed></extensions></trkpt>
   <trkpt lat="59.3276601585" lon="34.6978949789"><ele>161.735</ele><time>2026-08-17T03:55:58.645Z</time><hdop>3.0</hdop><vdop>2.5</vdop><extensions><gom:speed>0.07</gom:speed></extensions></trkpt>
   <trkpt lat="59.3276602843" lon="34.6978951466"><ele>161.734</ele><time>2026-08-17T03:55:59.652Z</time><hdop>3.0</hdop><vdop>2.5</vdop><extensions><gom:speed>0.07</gom:speed></extensions></trkpt>
   <trkpt lat="59.3276602843" lon="34.6978951466"><ele>161.734</ele><time>2026-08-17T03:56:00.645Z</time><hdop>3.0</hdop><vdop>2.5</vdop><extensions><gom:speed>0.071</gom:speed></extensions></trkpt>
   <trkpt lat="59.3276602843" lon="34.6978951466"><ele>161.734</ele><time>2026-08-17T03:56:01.645Z</time><hdop>3.0</hdop><vdop>2.5</vdop><extensions><gom:speed>0.069</gom:speed></extensions></trkpt>
   <trkpt lat="59.3276601585" lon="34.6978950627"><ele>161.734</ele><time>2026-08-17T03:56:02.645Z</time><hdop>3.0</hdop><vdop>2.5</vdop><extensions><gom:speed>0.07</gom:speed></extensions></trkpt>
   <trkpt lat="59.3276601585" lon="34.6978949789"><ele>161.734</ele><time>2026-08-17T03:56:03.645Z</time><hdop>3.0</hdop><vdop>2.5</vdop><extensions><gom:speed>0.068</gom:speed></extensions></trkpt>
   <trkpt lat="59.3276600747" lon="34.6978949789"><ele>161.734</ele><time>2026-08-17T03:56:04.644Z</time><hdop>3.0</hdop><vdop>2.5</vdop><extensions><gom:speed>0.072</gom:speed></extensions></trkpt>
   <trkpt lat="59.3276599909" lon="34.6978948951"><ele>161.735</ele><time>2026-08-17T03:56:05.645Z</time><hdop>3.0</hdop><vdop>2.5</vdop><extensions><gom:speed>0.073</gom:speed></extensions></trkpt>
   <trkpt lat="59.3276597814" lon="34.6978950627"><ele>161.735</ele><time>2026-08-17T03:56:06.652Z</time><hdop>3.0</hdop><vdop>2.5</vdop><extensions><gom:speed>0.073</gom:speed></extensions></trkpt>
   <trkpt lat="59.3276595718" lon="34.6978949789"><ele>161.737</ele><time>2026-08-17T03:56:07.645Z</time><hdop>3.0</hdop><vdop>2.5</vdop><extensions><gom:speed>0.07</gom:speed></extensions></trkpt>
   <trkpt lat="59.3276595718" lon="34.6978947275"><ele>161.739</ele><time>2026-08-17T03:56:08.652Z</time><hdop>3.0</hdop><vdop>2.5</vdop><extensions><gom:speed>0.069</gom:speed></extensions></trkpt>
   <trkpt lat="59.3276596975" lon="34.6978941407"><ele>161.741</ele><time>2026-08-17T03:56:09.649Z</time><hdop>3.0</hdop><vdop>2.5</vdop><extensions><gom:speed>0.07</gom:speed></extensions></trkpt>
   <trkpt lat="59.3276596975" lon="34.6978938893"><ele>161.742</ele><time>2026-08-17T03:56:10.645Z</time><hdop>3.0</hdop><vdop>2.5</vdop><extensions><gom:speed>0.068</gom:speed></extensions></trkpt>
   <trkpt lat="59.3276595718" lon="34.6978941407"><ele>161.744</ele><time>2026-08-17T03:56:11.645Z</time><hdop>3.0</hdop><vdop>2.5</vdop><extensions><gom:speed>0.069</gom:speed></extensions></trkpt>
   <trkpt lat="59.327659488" lon="34.6978942245"><ele>161.744</ele><time>2026-08-17T03:56:12.279Z</time><hdop>3.0</hdop><vdop>2.5</vdop><extensions><gom:speed>0.069</gom:speed></extensions></trkpt>
   <trkpt lat="59.327659488" lon="34.6978942245"><ele>161.747</ele><time>2026-08-17T03:56:13.652Z</time><hdop>3.0</hdop><vdop>2.5</vdop><extensions><gom:speed>0.071</gom:speed></extensions></trkpt>
   <trkpt lat="59.327659488" lon="34.6978942245"><ele>161.75</ele><time>2026-08-17T03:56:14.708Z</time><hdop>3.0</hdop><vdop>2.5</vdop><extensions><gom:speed>0.076</gom:speed></extensions></trkpt>
   <trkpt lat="59.3276593623" lon="34.6978942245"><ele>161.751</ele><time>2026-08-17T03:56:15.653Z</time><hdop>3.0</hdop><vdop>2.5</vdop><extensions><gom:speed>0.08</gom:speed></extensions></trkpt>
   <trkpt lat="59.3276592784" lon="34.697894476"><ele>161.753</ele><time>2026-08-17T03:56:16.644Z</time><hdop>3.0</hdop><vdop>2.5</vdop><extensions><gom:speed>0.081</gom:speed></extensions></trkpt>
   <trkpt lat="59.3276592784" lon="34.697894476"><ele>161.755</ele><time>2026-08-17T03:56:17.652Z</time><hdop>3.0</hdop><vdop>2.5</vdop><extensions><gom:speed>0.081</gom:speed></extensions></trkpt>
   <trkpt lat="59.3276593623" lon="34.6978943922"><ele>161.756</ele><time>2026-08-17T03:56:18.652Z</time><hdop>3.0</hdop><vdop>2.5</vdop><extensions><gom:speed>0.084</gom:speed></extensions></trkpt>
   <trkpt lat="59.3276592784" lon="34.6978943922"><ele>161.757</ele><time>2026-08-17T03:56:19.652Z</time><hdop>3.0</hdop><vdop>2.5</vdop><extensions><gom:speed>0.084</gom:speed></extensions></trkpt>
   <trkpt lat="59.3276593623" lon="34.6978942245"><ele>161.759</ele><time>2026-08-17T03:56:20.652Z</time><hdop>3.0</hdop><vdop>2.5</vdop><extensions><gom:speed>0.086</gom:speed></extensions></trkpt>
   <trkpt lat="59.3276593623" lon="34.6978942245"><ele>161.761</ele><time>2026-08-17T03:56:21.644Z</time><hdop>3.0</hdop><vdop>2.5</vdop><extensions><gom:speed>0.09</gom:speed></extensions></trkpt>
   <trkpt lat="59.3276593623" lon="34.6978941407"><ele>161.765</ele><time>2026-08-17T03:56:22.652Z</time><hdop>3.0</hdop><vdop>2.5</vdop><extensions><gom:speed>0.09</gom:speed></extensions></trkpt>
   <trkpt lat="59.327659488" lon="34.6978939731"><ele>161.769</ele><time>2026-08-17T03:56:23.645Z</time><hdop>3.0</hdop><vdop>2.5</vdop><extensions><gom:speed>0.081</gom:speed></extensions></trkpt>
   <trkpt lat="59.327659488" lon="34.6978939731"><ele>161.772</ele><time>2026-08-17T03:56:24.652Z</time><hdop>3.0</hdop><vdop>2.5</vdop><extensions><gom:speed>0.082</gom:speed></extensions></trkpt>
   <trkpt lat="59.3276591946" lon="34.6978939731"><ele>161.775</ele><time>2026-08-17T03:56:25.652Z</time><hdop>3.0</hdop><vdop>2.5</vdop><extensions><gom:speed>0.077</gom:speed></extensions></trkpt>
   <trkpt lat="59.3276591946" lon="34.6978941407"><ele>161.778</ele><time>2026-08-17T03:56:26.652Z</time><hdop>3.0</hdop><vdop>2.5</vdop><extensions><gom:speed>0.073</gom:speed></extensions></trkpt>
   <trkpt lat="59.3276591946" lon="34.6978942245"><ele>161.781</ele><time>2026-08-17T03:56:27.652Z</time><hdop>3.0</hdop><vdop>2.5</vdop><extensions><gom:speed>0.071</gom:speed></extensions></trkpt>
   <trkpt lat="59.3276591946" lon="34.697894476"><ele>161.786</ele><time>2026-08-17T03:56:28.652Z</time><hdop>3.0</hdop><vdop>2.5</vdop><extensions><gom:speed>0.072</gom:speed></extensions></trkpt>
   <trkpt lat="59.3276590689" lon="34.6978945598"><ele>161.787</ele><time>2026-08-17T03:56:29.652Z</time><hdop>3.0</hdop><vdop>2.5</vdop><extensions><gom:speed>0.071</gom:speed></extensions></trkpt>
   <trkpt lat="59.3276589851" lon="34.6978939731"><ele>161.786</ele><time>2026-08-17T03:56:30.652Z</time><hdop>3.0</hdop><vdop>2.5</vdop><extensions><gom:speed>0.069</gom:speed></extensions></trkpt>
   <trkpt lat="59.3276589851" lon="34.6978941407"><ele>161.785</ele><time>2026-08-17T03:56:31.652Z</time><hdop>3.0</hdop><vdop>2.5</vdop><extensions><gom:speed>0.067</gom:speed></extensions></trkpt>
   <trkpt lat="59.3276589851" lon="34.6978943922"><ele>161.783</ele><time>2026-08-17T03:56:32.656Z</time><hdop>3.0</hdop><vdop>2.5</vdop><extensions><gom:speed>0.07</gom:speed></extensions></trkpt>
   <trkpt lat="59.3276588593" lon="34.6978943922"><ele>161.781</ele><time>2026-08-17T03:56:33.667Z</time><hdop>3.0</hdop><vdop>2.5</vdop><extensions><gom:speed>0.069</gom:speed></extensions></trkpt>
   <trkpt lat="59.3276587755" lon="34.6978942245"><ele>161.781</ele><time>2026-08-17T03:56:34.645Z</time><hdop>3.0</hdop><vdop>2.5</vdop><extensions><gom:speed>0.066</gom:speed></extensions></trkpt>
   <trkpt lat="59.3276587755" lon="34.6978941407"><ele>161.783</ele><time>2026-08-17T03:56:35.652Z</time><hdop>3.0</hdop><vdop>2.5</vdop><extensions><gom:speed>0.066</gom:speed></extensions></trkpt>
   <trkpt lat="59.327658566" lon="34.6978938893"><ele>161.786</ele><time>2026-08-17T03:56:36.652Z</time><hdop>3.0</hdop><vdop>2.5</vdop><extensions><gom:speed>0.063</gom:speed></extensions></trkpt>
   <trkpt lat="59.3276584822" lon="34.6978934702"><ele>161.79</ele><time>2026-08-17T03:56:37.652Z</time><hdop>3.0</hdop><vdop>2.5</vdop><extensions><gom:speed>0.063</gom:speed></extensions></trkpt>
   <trkpt lat="59.327658566" lon="34.6978932187"><ele>161.793</ele><time>2026-08-17T03:56:38.652Z</time><hdop>3.0</hdop><vdop>2.5</vdop><extensions><gom:speed>0.063</gom:speed></extensions></trkpt>
   <trkpt lat="59.327658566" lon="34.6978931349"><ele>161.797</ele><time>2026-08-17T03:56:39.653Z</time><hdop>3.0</hdop><vdop>2.5</vdop><extensions><gom:speed>0.062</gom:speed></extensions></trkpt>
   <trkpt lat="59.3276586917" lon="34.6978930511"><ele>161.801</ele><time>2026-08-17T03:56:40.652Z</time><hdop>3.0</hdop><vdop>2.5</vdop><extensions><gom:speed>0.063</gom:speed></extensions></trkpt>
   <trkpt lat="59.3276588593" lon="34.6978931349"><ele>161.803</ele><time>2026-08-17T03:56:41.644Z</time><hdop>3.0</hdop><vdop>2.5</vdop><extensions><gom:speed>0.066</gom:speed></extensions></trkpt>
   <trkpt lat="59.3276589851" lon="34.6978928834"><ele>161.804</ele><time>2026-08-17T03:56:42.652Z</time><hdop>3.0</hdop><vdop>2.5</vdop><extensions><gom:speed>0.066</gom:speed></extensions></trkpt>
   <trkpt lat="59.3276589851" lon="34.6978927996"><ele>161.804</ele><time>2026-08-17T03:56:43.645Z</time><hdop>3.0</hdop><vdop>2.5</vdop><extensions><gom:speed>0.068</gom:speed></extensions></trkpt>
   <trkpt lat="59.3276589851" lon="34.6978925482"><ele>161.805</ele><time>2026-08-17T03:56:44.675Z</time><hdop>3.0</hdop><vdop>2.5</vdop><extensions><gom:speed>0.069</gom:speed></extensions></trkpt>
   <trkpt lat="59.3276588593" lon="34.6978924643"><ele>161.805</ele><time>2026-08-17T03:56:45.645Z</time><hdop>3.0</hdop><vdop>2.5</vdop><extensions><gom:speed>0.068</gom:speed></extensions></trkpt>
   <trkpt lat="59.3276588593" lon="34.697892632"><ele>161.804</ele><time>2026-08-17T03:56:46.652Z</time><hdop>3.0</hdop><vdop>2.5</vdop><extensions><gom:speed>0.069</gom:speed></extensions></trkpt>
   <trkpt lat="59.3276589851" lon="34.6978922967"><ele>161.802</ele><time>2026-08-17T03:56:47.652Z</time><hdop>3.0</hdop><vdop>2.5</vdop><extensions><gom:speed>0.071</gom:speed></extensions></trkpt>
   <trkpt lat="59.3276591946" lon="34.6978921291"><ele>161.798</ele><time>2026-08-17T03:56:48.652Z</time><hdop>3.0</hdop><vdop>2.5</vdop><extensions><gom:speed>0.07</gom:speed></extensions></trkpt>
   <trkpt lat="59.3276591946" lon="34.6978921291"><ele>161.796</ele><time>2026-08-17T03:56:49.652Z</time><hdop>3.0</hdop><vdop>2.5</vdop><extensions><gom:speed>0.07</gom:speed></extensions></trkpt>
   <trkpt lat="59.3276590689" lon="34.6978924643"><ele>161.795</ele><time>2026-08-17T03:56:50.644Z</time><hdop>3.0</hdop><vdop>2.5</vdop><extensions><gom:speed>0.065</gom:speed></extensions></trkpt>
   <trkpt lat="59.3276589851" lon="34.6978927996"><ele>161.795</ele><time>2026-08-17T03:56:51.652Z</time><hdop>3.0</hdop><vdop>2.5</vdop><extensions><gom:speed>0.065</gom:speed></extensions></trkpt>
   <trkpt lat="59.3276588593" lon="34.697892632"><ele>161.796</ele><time>2026-08-17T03:56:52.652Z</time><hdop>3.0</hdop><vdop>2.5</vdop><extensions><gom:speed>0.066</gom:speed></extensions></trkpt>
   <trkpt lat="59.3276587755" lon="34.6978927996"><ele>161.797</ele><time>2026-08-17T03:56:53.653Z</time><hdop>3.0</hdop><vdop>2.5</vdop><extensions><gom:speed>0.063</gom:speed></extensions></trkpt>
   <trkpt lat="59.3276586917" lon="34.6978930511"><ele>161.798</ele><time>2026-08-17T03:56:54.652Z</time><hdop>3.0</hdop><vdop>2.5</vdop><extensions><gom:speed>0.061</gom:speed></extensions></trkpt>
   <trkpt lat="59.3276584822" lon="34.6978933864"><ele>161.8</ele><time>2026-08-17T03:56:55.645Z</time><hdop>3.0</hdop><vdop>2.5</vdop><extensions><gom:speed>0.064</gom:speed></extensions></trkpt>
   <trkpt lat="59.327658566" lon="34.6978933864"><ele>161.803</ele><time>2026-08-17T03:56:56.654Z</time><hdop>3.0</hdop><vdop>2.5</vdop><extensions><gom:speed>0.064</gom:speed></extensions></trkpt>
   <trkpt lat="59.3276584822" lon="34.6978934702"><ele>161.807</ele><time>2026-08-17T03:56:57.652Z</time><hdop>3.0</hdop><vdop>2.5</vdop><extensions><gom:speed>0.065</gom:speed></extensions></trkpt>
   <trkpt lat="59.3276583983" lon="34.697893554"><ele>161.812</ele><time>2026-08-17T03:56:58.653Z</time><hdop>3.0</hdop><vdop>2.5</vdop><extensions><gom:speed>0.066</gom:speed></extensions></trkpt>
   <trkpt lat="59.3276582726" lon="34.697893554"><ele>161.817</ele><time>2026-08-17T03:56:59.645Z</time><hdop>3.0</hdop><vdop>2.5</vdop><extensions><gom:speed>0.07</gom:speed></extensions></trkpt>
   <trkpt lat="59.3276581888" lon="34.6978934702"><ele>161.822</ele><time>2026-08-17T03:57:00.652Z</time><hdop>3.0</hdop><vdop>2.5</vdop><extensions><gom:speed>0.07</gom:speed></extensions></trkpt>
   <trkpt lat="59.3276582726" lon="34.6978929673"><ele>161.827</ele><time>2026-08-17T03:57:01.653Z</time><hdop>3.0</hdop><vdop>2.5</vdop><extensions><gom:speed>0.073</gom:speed></extensions></trkpt>
   <trkpt lat="59.3276581888" lon="34.6978929673"><ele>161.835</ele><time>2026-08-17T03:57:02.652Z</time><hdop>3.0</hdop><vdop>2.5</vdop><extensions><gom:speed>0.071</gom:speed></extensions></trkpt>
   <trkpt lat="59.3276581888" lon="34.6978930511"><ele>161.838</ele><time>2026-08-17T03:57:03.656Z</time><hdop>3.0</hdop><vdop>2.5</vdop><extensions><gom:speed>0.072</gom:speed></extensions></trkpt>
   <trkpt lat="59.3276579792" lon="34.6978934702"><ele>161.84</ele><time>2026-08-17T03:57:04.645Z</time><hdop>3.0</hdop><vdop>2.5</vdop><extensions><gom:speed>0.069</gom:speed></extensions></trkpt>
   <trkpt lat="59.3276580631" lon="34.6978934702"><ele>161.84</ele><time>2026-08-17T03:57:05.653Z</time><hdop>3.0</hdop><vdop>2.5</vdop><extensions><gom:speed>0.069</gom:speed></extensions></trkpt>
   <trkpt lat="59.3276579792" lon="34.697893554"><ele>161.838</ele><time>2026-08-17T03:57:06.650Z</time><hdop>3.0</hdop><vdop>2.5</vdop><extensions><gom:speed>0.069</gom:speed></extensions></trkpt>
   <trkpt lat="59.3276579792" lon="34.697893554"><ele>161.838</ele><time>2026-08-17T03:57:07.459Z</time><hdop>3.0</hdop><vdop>2.5</vdop><extensions><gom:speed>0.069</gom:speed></extensions></trkpt>
   <trkpt lat="59.3276577697" lon="34.697893554"><ele>161.834</ele><time>2026-08-17T03:57:08.673Z</time><hdop>3.0</hdop><vdop>2.5</vdop><extensions><gom:speed>0.069</gom:speed></extensions></trkpt>
   <trkpt lat="59.3276575601" lon="34.6978937216"><ele>161.832</ele><time>2026-08-17T03:57:09.685Z</time><hdop>3.0</hdop><vdop>2.5</vdop><extensions><gom:speed>0.067</gom:speed></extensions></trkpt>
   <trkpt lat="59.3276575601" lon="34.6978941407"><ele>161.83</ele><time>2026-08-17T03:57:10.652Z</time><hdop>3.0</hdop><vdop>2.5</vdop><extensions><gom:speed>0.066</gom:speed></extensions></trkpt>
   <trkpt lat="59.3276575601" lon="34.6978945598"><ele>161.829</ele><time>2026-08-17T03:57:11.645Z</time><hdop>3.0</hdop><vdop>2.5</vdop><extensions><gom:speed>0.067</gom:speed></extensions></trkpt>
   <trkpt lat="59.3276575601" lon="34.6978947275"><ele>161.829</ele><time>2026-08-17T03:57:12.646Z</time><hdop>3.0</hdop><vdop>2.5</vdop><extensions><gom:speed>0.069</gom:speed></extensions></trkpt>
   <trkpt lat="59.3276574763" lon="34.6978948951"><ele>161.829</ele><time>2026-08-17T03:57:13.645Z</time><hdop>3.0</hdop><vdop>2.5</vdop><extensions><gom:speed>0.068</gom:speed></extensions></trkpt>
   <trkpt lat="59.3276572668" lon="34.6978947275"><ele>161.829</ele><time>2026-08-17T03:57:14.645Z</time><hdop>3.0</hdop><vdop>2.5</vdop><extensions><gom:speed>0.07</gom:speed></extensions></trkpt>
   <trkpt lat="59.327657183" lon="34.6978946436"><ele>161.83</ele><time>2026-08-17T03:57:15.652Z</time><hdop>3.0</hdop><vdop>2.5</vdop><extensions><gom:speed>0.071</gom:speed></extensions></trkpt>
   <trkpt lat="59.327657183" lon="34.6978945598"><ele>161.83</ele><time>2026-08-17T03:57:16.652Z</time><hdop>3.0</hdop><vdop>2.5</vdop><extensions><gom:speed>0.071</gom:speed></extensions></trkpt>
   <trkpt lat="59.327657183" lon="34.6978945598"><ele>161.828</ele><time>2026-08-17T03:57:17.652Z</time><hdop>3.0</hdop><vdop>2.5</vdop><extensions><gom:speed>0.07</gom:speed></extensions></trkpt>
   <trkpt lat="59.327657183" lon="34.6978946436"><ele>161.828</ele><time>2026-08-17T03:57:18.652Z</time><hdop>3.0</hdop><vdop>2.5</vdop><extensions><gom:speed>0.069</gom:speed></extensions></trkpt>
   <trkpt lat="59.327657183" lon="34.6978947275"><ele>161.828</ele><time>2026-08-17T03:57:19.652Z</time><hdop>3.0</hdop><vdop>2.5</vdop><extensions><gom:speed>0.068</gom:speed></extensions></trkpt>
   <trkpt lat="59.3276570991" lon="34.6978947275"><ele>161.829</ele><time>2026-08-17T03:57:20.652Z</time><hdop>3.0</hdop><vdop>2.5</vdop><extensions><gom:speed>0.067</gom:speed></extensions></trkpt>
   <trkpt lat="59.3276569734" lon="34.697894476"><ele>161.83</ele><time>2026-08-17T03:57:21.646Z</time><hdop>3.0</hdop><vdop>2.5</vdop><extensions><gom:speed>0.07</gom:speed></extensions></trkpt>
   <trkpt lat="59.3276570991" lon="34.697894476"><ele>161.83</ele><time>2026-08-17T03:57:22.149Z</time><hdop>3.0</hdop><vdop>2.5</vdop><extensions><gom:speed>0.07</gom:speed></extensions></trkpt>
   <trkpt lat="59.3276569734" lon="34.6978945598"><ele>161.831</ele><time>2026-08-17T03:57:22.652Z</time><hdop>3.0</hdop><vdop>2.5</vdop><extensions><gom:speed>0.07</gom:speed></extensions></trkpt>
   <trkpt lat="59.3276569734" lon="34.697894476"><ele>161.831</ele><time>2026-08-17T03:57:23.644Z</time><hdop>3.0</hdop><vdop>2.5</vdop><extensions><gom:speed>0.071</gom:speed></extensions></trkpt>
   <trkpt lat="59.3276568896" lon="34.6978945598"><ele>161.835</ele><time>2026-08-17T03:57:24.652Z</time><hdop>3.0</hdop><vdop>2.5</vdop><extensions><gom:speed>0.072</gom:speed></extensions></trkpt>
   <trkpt lat="59.3276568896" lon="34.6978945598"><ele>161.838</ele><time>2026-08-17T03:57:25.652Z</time><hdop>3.0</hdop><vdop>2.5</vdop><extensions><gom:speed>0.07</gom:speed></extensions></trkpt>
   <trkpt lat="59.3276568896" lon="34.6978946436"><ele>161.838</ele><time>2026-08-17T03:57:26.652Z</time><hdop>3.0</hdop><vdop>2.5</vdop><extensions><gom:speed>0.069</gom:speed></extensions></trkpt>
   <trkpt lat="59.32765668" lon="34.6978947275"><ele>161.839</ele><time>2026-08-17T03:57:27.652Z</time><hdop>3.0</hdop><vdop>2.5</vdop><extensions><gom:speed>0.069</gom:speed></extensions></trkpt>
   <trkpt lat="59.3276567639" lon="34.6978949789"><ele>161.841</ele><time>2026-08-17T03:57:28.645Z</time><hdop>3.0</hdop><vdop>2.5</vdop><extensions><gom:speed>0.066</gom:speed></extensions></trkpt>
   <trkpt lat="59.32765668" lon="34.6978950627"><ele>161.843</ele><time>2026-08-17T03:57:29.652Z</time><hdop>3.0</hdop><vdop>2.5</vdop><extensions><gom:speed>0.066</gom:speed></extensions></trkpt>
   <trkpt lat="59.32765668" lon="34.6978951466"><ele>161.85</ele><time>2026-08-17T03:57:30.652Z</time><hdop>3.0</hdop><vdop>2.5</vdop><extensions><gom:speed>0.065</gom:speed></extensions></trkpt>
   <trkpt lat="59.3276565962" lon="34.6978952304"><ele>161.852</ele><time>2026-08-17T03:57:31.652Z</time><hdop>3.0</hdop><vdop>2.5</vdop><extensions><gom:speed>0.066</gom:speed></extensions></trkpt>
   <trkpt lat="59.3276564705" lon="34.697895398"><ele>161.853</ele><time>2026-08-17T03:57:32.652Z</time><hdop>3.0</hdop><vdop>2.5</vdop><extensions><gom:speed>0.067</gom:speed></extensions></trkpt>
   <trkpt lat="59.32765668" lon="34.697895398"><ele>161.856</ele><time>2026-08-17T03:57:33.645Z</time><hdop>3.0</hdop><vdop>2.5</vdop><extensions><gom:speed>0.064</gom:speed></extensions></trkpt>
   <trkpt lat="59.3276565962" lon="34.6978954818"><ele>162.003</ele><time>2026-08-17T03:57:34.652Z</time><hdop>3.0</hdop><vdop>2.5</vdop><extensions><gom:speed>0.065</gom:speed></extensions></trkpt>
   <trkpt lat="59.3276569734" lon="34.6978956495"><ele>162.045</ele><time>2026-08-17T03:57:35.645Z</time><hdop>3.0</hdop><vdop>2.5</vdop><extensions><gom:speed>0.08</gom:speed></extensions></trkpt>
   <trkpt lat="59.3276569734" lon="34.6978959847"><ele>162.091</ele><time>2026-08-17T03:57:36.652Z</time><hdop>3.0</hdop><vdop>2.5</vdop><extensions><gom:speed>0.081</gom:speed></extensions></trkpt>
   <trkpt lat="59.3276573925" lon="34.6978956495"><ele>162.119</ele><time>2026-08-17T03:57:37.426Z</time><hdop>3.0</hdop><vdop>2.5</vdop><extensions><gom:speed>0.069</gom:speed></extensions></trkpt>
   <trkpt lat="59.3276578954" lon="34.6978955656"><ele>161.921</ele><time>2026-08-17T03:57:38.165Z</time><hdop>3.0</hdop><vdop>2.5</vdop><extensions><gom:speed>0.131</gom:speed></extensions></trkpt>
   <trkpt lat="59.3276579792" lon="34.6978956495"><ele>161.806</ele><time>2026-08-17T03:57:38.652Z</time><hdop>3.0</hdop><vdop>2.5</vdop><extensions><gom:speed>0.131</gom:speed></extensions></trkpt>
   <trkpt lat="59.3276584822" lon="34.6978949789"><ele>161.738</ele><time>2026-08-17T03:57:39.652Z</time><hdop>3.0</hdop><vdop>2.5</vdop><extensions><gom:speed>0.102</gom:speed></extensions></trkpt>
   <trkpt lat="59.3276587755" lon="34.6978943922"><ele>161.695</ele><time>2026-08-17T03:57:40.652Z</time><hdop>3.0</hdop><vdop>2.5</vdop><extensions><gom:speed>0.091</gom:speed></extensions></trkpt>
   <trkpt lat="59.3276591946" lon="34.6978937216"><ele>161.667</ele><time>2026-08-17T03:57:41.652Z</time><hdop>3.0</hdop><vdop>2.5</vdop><extensions><gom:speed>0.08</gom:speed></extensions></trkpt>
   <trkpt lat="59.3276600747" lon="34.6978928834"><ele>161.649</ele><time>2026-08-17T03:57:42.645Z</time><hdop>3.0</hdop><vdop>2.5</vdop><extensions><gom:speed>0.069</gom:speed></extensions></trkpt>
   <trkpt lat="59.3276603681" lon="34.6978923805"><ele>161.642</ele><time>2026-08-17T03:57:43.645Z</time><hdop>3.0</hdop><vdop>2.5</vdop><extensions><gom:speed>0.067</gom:speed></extensions></trkpt>
   <trkpt lat="59.3276605776" lon="34.6978922967"><ele>161.637</ele><time>2026-08-17T03:57:44.652Z</time><hdop>3.0</hdop><vdop>2.5</vdop><extensions><gom:speed>0.067</gom:speed></extensions></trkpt>
   <trkpt lat="59.327660871" lon="34.6978918776"><ele>161.632</ele><time>2026-08-17T03:57:45.662Z</time><hdop>3.0</hdop><vdop>2.5</vdop><extensions><gom:speed>0.067</gom:speed></extensions></trkpt>
   <trkpt lat="59.3276611644" lon="34.6978915423"><ele>161.628</ele><time>2026-08-17T03:57:46.653Z</time><hdop>3.0</hdop><vdop>2.5</vdop><extensions><gom:speed>0.065</gom:speed></extensions></trkpt>
   <trkpt lat="59.3276614996" lon="34.6978913747"><ele>161.626</ele><time>2026-08-17T03:57:47.665Z</time><hdop>3.0</hdop><vdop>2.5</vdop><extensions><gom:speed>0.062</gom:speed></extensions></trkpt>
   <trkpt lat="59.3276616673" lon="34.6978910394"><ele>161.623</ele><time>2026-08-17T03:57:48.652Z</time><hdop>3.0</hdop><vdop>2.5</vdop><extensions><gom:speed>0.061</gom:speed></extensions></trkpt>
   <trkpt lat="59.327661793" lon="34.6978911232"><ele>161.62</ele><time>2026-08-17T03:57:49.646Z</time><hdop>3.0</hdop><vdop>2.5</vdop><extensions><gom:speed>0.062</gom:speed></extensions></trkpt>
   <trkpt lat="59.3276619606" lon="34.6978911232"><ele>161.617</ele><time>2026-08-17T03:57:50.661Z</time><hdop>3.0</hdop><vdop>2.5</vdop><extensions><gom:speed>0.063</gom:speed></extensions></trkpt>
   <trkpt lat="59.3276621702" lon="34.6978905365"><ele>161.615</ele><time>2026-08-17T03:57:51.644Z</time><hdop>3.0</hdop><vdop>2.5</vdop><extensions><gom:speed>0.063</gom:speed></extensions></trkpt>
   <trkpt lat="59.3276622959" lon="34.6978904527"><ele>161.612</ele><time>2026-08-17T03:57:52.652Z</time><hdop>3.0</hdop><vdop>2.5</vdop><extensions><gom:speed>0.063</gom:speed></extensions></trkpt>
   <trkpt lat="59.3276624636" lon="34.6978901174"><ele>161.61</ele><time>2026-08-17T03:57:53.652Z</time><hdop>3.0</hdop><vdop>2.5</vdop><extensions><gom:speed>0.064</gom:speed></extensions></trkpt>
   <trkpt lat="59.3276626731" lon="34.697889866"><ele>161.609</ele><time>2026-08-17T03:57:54.652Z</time><hdop>3.0</hdop><vdop>2.5</vdop><extensions><gom:speed>0.065</gom:speed></extensions></trkpt>
   <trkpt lat="59.3276627988" lon="34.6978895307"><ele>161.607</ele><time>2026-08-17T03:57:55.658Z</time><hdop>3.0</hdop><vdop>2.5</vdop><extensions><gom:speed>0.068</gom:speed></extensions></trkpt>
   <trkpt lat="59.3276628827" lon="34.6978896983"><ele>161.605</ele><time>2026-08-17T03:57:56.669Z</time><hdop>3.0</hdop><vdop>2.5</vdop><extensions><gom:speed>0.07</gom:speed></extensions></trkpt>
   <trkpt lat="59.327663176" lon="34.6978894469"><ele>161.604</ele><time>2026-08-17T03:57:57.681Z</time><hdop>3.0</hdop><vdop>2.5</vdop><extensions><gom:speed>0.072</gom:speed></extensions></trkpt>
   <trkpt lat="59.3276633856" lon="34.6978890278"><ele>161.607</ele><time>2026-08-17T03:57:58.652Z</time><hdop>3.0</hdop><vdop>2.5</vdop><extensions><gom:speed>0.073</gom:speed></extensions></trkpt>
   <trkpt lat="59.3276633856" lon="34.6978886925"><ele>161.608</ele><time>2026-08-17T03:57:59.652Z</time><hdop>3.0</hdop><vdop>2.5</vdop><extensions><gom:speed>0.074</gom:speed></extensions></trkpt>
   <trkpt lat="59.3276633856" lon="34.6978881896"><ele>161.608</ele><time>2026-08-17T03:58:00.652Z</time><hdop>3.0</hdop><vdop>2.5</vdop><extensions><gom:speed>0.074</gom:speed></extensions></trkpt>
   <trkpt lat="59.3276634694" lon="34.6978878543"><ele>161.606</ele><time>2026-08-17T03:58:01.652Z</time><hdop>3.0</hdop><vdop>2.5</vdop><extensions><gom:speed>0.075</gom:speed></extensions></trkpt>
   <trkpt lat="59.3276635951" lon="34.6978874352"><ele>161.604</ele><time>2026-08-17T03:58:02.652Z</time><hdop>3.0</hdop><vdop>2.5</vdop><extensions><gom:speed>0.076</gom:speed></extensions></trkpt>
   <trkpt lat="59.3276636789" lon="34.6978871837"><ele>161.605</ele><time>2026-08-17T03:58:03.646Z</time><hdop>3.0</hdop><vdop>2.5</vdop><extensions><gom:speed>0.079</gom:speed></extensions></trkpt>
   <trkpt lat="59.3276638885" lon="34.6978868485"><ele>161.605</ele><time>2026-08-17T03:58:04.682Z</time><hdop>3.0</hdop><vdop>2.5</vdop><extensions><gom:speed>0.079</gom:speed></extensions></trkpt>
   <trkpt lat="59.327664098" lon="34.6978869323"><ele>161.603</ele><time>2026-08-17T03:58:05.652Z</time><hdop>3.0</hdop><vdop>2.5</vdop><extensions><gom:speed>0.078</gom:speed></extensions></trkpt>
   <trkpt lat="59.3276642657" lon="34.6978869323"><ele>161.602</ele><time>2026-08-17T03:58:06.665Z</time><hdop>3.0</hdop><vdop>2.5</vdop><extensions><gom:speed>0.076</gom:speed></extensions></trkpt>
   <trkpt lat="59.3276643914" lon="34.6978871837"><ele>161.601</ele><time>2026-08-17T03:58:07.652Z</time><hdop>3.0</hdop><vdop>2.5</vdop><extensions><gom:speed>0.072</gom:speed></extensions></trkpt>
   <trkpt lat="59.3276643914" lon="34.6978872676"><ele>161.601</ele><time>2026-08-17T03:58:08.646Z</time><hdop>3.0</hdop><vdop>2.5</vdop><extensions><gom:speed>0.073</gom:speed></extensions></trkpt>
   <trkpt lat="59.327664559" lon="34.6978873514"><ele>161.601</ele><time>2026-08-17T03:58:09.652Z</time><hdop>3.0</hdop><vdop>2.5</vdop><extensions><gom:speed>0.073</gom:speed></extensions></trkpt>
   <trkpt lat="59.3276646848" lon="34.697887519"><ele>161.602</ele><time>2026-08-17T03:58:10.652Z</time><hdop>3.0</hdop><vdop>2.5</vdop><extensions><gom:speed>0.071</gom:speed></extensions></trkpt>
   <trkpt lat="59.3276647686" lon="34.697887519"><ele>161.606</ele><time>2026-08-17T03:58:11.652Z</time><hdop>3.0</hdop><vdop>2.5</vdop><extensions><gom:speed>0.072</gom:speed></extensions></trkpt>
   <trkpt lat="59.3276648943" lon="34.6978876867"><ele>161.611</ele><time>2026-08-17T03:58:12.656Z</time><hdop>3.0</hdop><vdop>2.5</vdop><extensions><gom:speed>0.072</gom:speed></extensions></trkpt>
   <trkpt lat="59.3276647686" lon="34.6978877705"><ele>161.614</ele><time>2026-08-17T03:58:13.262Z</time><hdop>3.0</hdop><vdop>2.5</vdop><extensions><gom:speed>0.071</gom:speed></extensions></trkpt>
   <trkpt lat="59.3276647686" lon="34.6978876867"><ele>161.627</ele><time>2026-08-17T03:58:14.678Z</time><hdop>3.0</hdop><vdop>2.5</vdop><extensions><gom:speed>0.07</gom:speed></extensions></trkpt>
   <trkpt lat="59.327664559" lon="34.6978880219"><ele>161.634</ele><time>2026-08-17T03:58:15.645Z</time><hdop>3.0</hdop><vdop>2.5</vdop><extensions><gom:speed>0.067</gom:speed></extensions></trkpt>
   <trkpt lat="59.3276646848" lon="34.6978881896"><ele>161.639</ele><time>2026-08-17T03:58:16.652Z</time><hdop>3.0</hdop><vdop>2.5</vdop><extensions><gom:speed>0.067</gom:speed></extensions></trkpt>
   <trkpt lat="59.3276646848" lon="34.6978882734"><ele>161.64</ele><time>2026-08-17T03:58:17.652Z</time><hdop>3.0</hdop><vdop>2.5</vdop><extensions><gom:speed>0.068</gom:speed></extensions></trkpt>
   <trkpt lat="59.3276648943" lon="34.6978878543"><ele>161.451</ele><time>2026-08-17T03:58:18.645Z</time><hdop>3.0</hdop><vdop>2.5</vdop><extensions><gom:speed>0.108</gom:speed></extensions></trkpt>
   <trkpt lat="59.3276649781" lon="34.697887519"><ele>161.459</ele><time>2026-08-17T03:58:19.652Z</time><hdop>3.0</hdop><vdop>2.5</vdop><extensions><gom:speed>0.109</gom:speed></extensions></trkpt>
   <trkpt lat="59.3276651877" lon="34.6978869323"><ele>161.464</ele><time>2026-08-17T03:58:20.162Z</time><hdop>3.0</hdop><vdop>2.5</vdop><extensions><gom:speed>0.13</gom:speed></extensions></trkpt>
   <trkpt lat="59.3276651877" lon="34.6978868485"><ele>161.525</ele><time>2026-08-17T03:58:20.647Z</time><hdop>3.0</hdop><vdop>2.5</vdop><extensions><gom:speed>0.13</gom:speed></extensions></trkpt>
   <trkpt lat="59.3276655649" lon="34.6978863456"><ele>161.562</ele><time>2026-08-17T03:58:21.326Z</time><hdop>3.0</hdop><vdop>2.5</vdop><extensions><gom:speed>0.258</gom:speed></extensions></trkpt>
   <trkpt lat="59.3276662773" lon="34.6978860941"><ele>161.615</ele><time>2026-08-17T03:58:22.651Z</time><hdop>3.0</hdop><vdop>2.5</vdop><extensions><gom:speed>0.101</gom:speed></extensions></trkpt>
   <trkpt lat="59.3276670736" lon="34.697886597"><ele>161.648</ele><time>2026-08-17T03:58:23.645Z</time><hdop>3.0</hdop><vdop>2.5</vdop><extensions><gom:speed>0.081</gom:speed></extensions></trkpt>
   <trkpt lat="59.3276677861" lon="34.6978869323"><ele>161.667</ele><time>2026-08-17T03:58:24.645Z</time><hdop>3.0</hdop><vdop>2.5</vdop><extensions><gom:speed>0.074</gom:speed></extensions></trkpt>
   <trkpt lat="59.3276678699" lon="34.6978869323"><ele>161.679</ele><time>2026-08-17T03:58:25.282Z</time><hdop>3.0</hdop><vdop>2.5</vdop><extensions><gom:speed>0.074</gom:speed></extensions></trkpt>
   <trkpt lat="59.3276684985" lon="34.6978870999"><ele>161.691</ele><time>2026-08-17T03:58:26.658Z</time><hdop>3.0</hdop><vdop>2.5</vdop><extensions><gom:speed>0.069</gom:speed></extensions></trkpt>
   <trkpt lat="59.3276686662" lon="34.6978872676"><ele>161.704</ele><time>2026-08-17T03:58:27.652Z</time><hdop>3.0</hdop><vdop>2.5</vdop><extensions><gom:speed>0.065</gom:speed></extensions></trkpt>
   <trkpt lat="59.3276692948" lon="34.6978874352"><ele>161.716</ele><time>2026-08-17T03:58:28.652Z</time><hdop>3.0</hdop><vdop>2.5</vdop><extensions><gom:speed>0.064</gom:speed></extensions></trkpt>
   <trkpt lat="59.3276697977" lon="34.6978874352"><ele>161.727</ele><time>2026-08-17T03:58:29.652Z</time><hdop>3.0</hdop><vdop>2.5</vdop><extensions><gom:speed>0.061</gom:speed></extensions></trkpt>
   <trkpt lat="59.3276704683" lon="34.6978876867"><ele>161.737</ele><time>2026-08-17T03:58:30.645Z</time><hdop>3.0</hdop><vdop>2.5</vdop><extensions><gom:speed>0.064</gom:speed></extensions></trkpt>
   <trkpt lat="59.3276706778" lon="34.6978877705"><ele>161.746</ele><time>2026-08-17T03:58:31.675Z</time><hdop>3.0</hdop><vdop>2.5</vdop><extensions><gom:speed>0.064</gom:speed></extensions></trkpt>
   <trkpt lat="59.3276712646" lon="34.6978877705"><ele>161.756</ele><time>2026-08-17T03:58:32.644Z</time><hdop>3.0</hdop><vdop>2.5</vdop><extensions><gom:speed>0.069</gom:speed></extensions></trkpt>
   <trkpt lat="59.3276713903" lon="34.6978877705"><ele>161.762</ele><time>2026-08-17T03:58:33.294Z</time><hdop>3.0</hdop><vdop>2.5</vdop><extensions><gom:speed>0.07</gom:speed></extensions></trkpt>
   <trkpt lat="59.3276718932" lon="34.6978873514"><ele>161.771</ele><time>2026-08-17T03:58:34.652Z</time><hdop>3.0</hdop><vdop>2.5</vdop><extensions><gom:speed>0.07</gom:speed></extensions></trkpt>
   <trkpt lat="59.3276721866" lon="34.6978873514"><ele>161.778</ele><time>2026-08-17T03:58:35.652Z</time><hdop>3.0</hdop><vdop>2.5</vdop><extensions><gom:speed>0.071</gom:speed></extensions></trkpt>
   <trkpt lat="59.3276725638" lon="34.6978874352"><ele>161.787</ele><time>2026-08-17T03:58:36.652Z</time><hdop>3.0</hdop><vdop>2.5</vdop><extensions><gom:speed>0.07</gom:speed></extensions></trkpt>
   <trkpt lat="59.3276729828" lon="34.6978874352"><ele>161.793</ele><time>2026-08-17T03:58:37.652Z</time><hdop>3.0</hdop><vdop>2.5</vdop><extensions><gom:speed>0.071</gom:speed></extensions></trkpt>
   <trkpt lat="59.3276732762" lon="34.6978874352"><ele>161.795</ele><time>2026-08-17T03:58:38.652Z</time><hdop>3.0</hdop><vdop>2.5</vdop><extensions><gom:speed>0.071</gom:speed></extensions></trkpt>
   <trkpt lat="59.32767336" lon="34.6978878543"><ele>161.797</ele><time>2026-08-17T03:58:39.645Z</time><hdop>3.0</hdop><vdop>2.5</vdop><extensions><gom:speed>0.069</gom:speed></extensions></trkpt>
   <trkpt lat="59.3276735696" lon="34.6978877705"><ele>161.798</ele><time>2026-08-17T03:58:40.653Z</time><hdop>3.0</hdop><vdop>2.5</vdop><extensions><gom:speed>0.07</gom:speed></extensions></trkpt>
   <trkpt lat="59.3276738629" lon="34.6978877705"><ele>161.801</ele><time>2026-08-17T03:58:41.645Z</time><hdop>3.0</hdop><vdop>2.5</vdop><extensions><gom:speed>0.071</gom:speed></extensions></trkpt>
   <trkpt lat="59.3276740725" lon="34.697887519"><ele>161.941</ele><time>2026-08-17T03:58:42.645Z</time><hdop>3.0</hdop><vdop>2.5</vdop><extensions><gom:speed>0.219</gom:speed></extensions></trkpt>
   <trkpt lat="59.3276748688" lon="34.6978866808"><ele>162.205</ele><time>2026-08-17T03:58:43.644Z</time><hdop>3.0</hdop><vdop>2.5</vdop><extensions><gom:speed>0.383</gom:speed></extensions></trkpt>
   <trkpt lat="59.327676168" lon="34.6978860941"><ele>162.714</ele><time>2026-08-17T03:58:44.653Z</time><hdop>3.0</hdop><vdop>2.5</vdop><extensions><gom:speed>0.384</gom:speed></extensions></trkpt>
   <trkpt lat="59.32767709" lon="34.6978854235"><ele>163.018</ele><time>2026-08-17T03:58:45.141Z</time><hdop>3.0</hdop><vdop>2.5</vdop><extensions><gom:speed>0.193</gom:speed></extensions></trkpt>
   <trkpt lat="59.3276772995" lon="34.697885675"><ele>163.207</ele><time>2026-08-17T03:58:45.658Z</time><hdop>3.0</hdop><vdop>2.5</vdop><extensions><gom:speed>0.193</gom:speed></extensions></trkpt>
   <trkpt lat="59.3276787664" lon="34.6978849206"><ele>163.322</ele><time>2026-08-17T03:58:46.645Z</time><hdop>3.0</hdop><vdop>2.5</vdop><extensions><gom:speed>0.072</gom:speed></extensions></trkpt>
   <trkpt lat="59.3276790597" lon="34.6978850883"><ele>163.126</ele><time>2026-08-17T03:58:47.652Z</time><hdop>3.0</hdop><vdop>2.5</vdop><extensions><gom:speed>0.072</gom:speed></extensions></trkpt>
   <trkpt lat="59.3276810714" lon="34.697888441"><ele>162.994</ele><time>2026-08-17T03:58:48.645Z</time><hdop>3.0</hdop><vdop>2.5</vdop><extensions><gom:speed>0.329</gom:speed></extensions></trkpt>
   <trkpt lat="59.327682161" lon="34.6978909556"><ele>162.914</ele><time>2026-08-17T03:58:49.421Z</time><hdop>3.0</hdop><vdop>2.5</vdop><extensions><gom:speed>0.33</gom:speed></extensions></trkpt>
   <trkpt lat="59.3276837955" lon="34.6978958171"><ele>162.882</ele><time>2026-08-17T03:58:50.281Z</time><hdop>3.0</hdop><vdop>2.5</vdop><extensions><gom:speed>0.53</gom:speed></extensions></trkpt>
   <trkpt lat="59.3276852623" lon="34.6979035285"><ele>162.83</ele><time>2026-08-17T03:58:51.343Z</time><hdop>3.062</hdop><vdop>2.5</vdop><extensions><gom:speed>0.442</gom:speed></extensions></trkpt>
   <trkpt lat="59.3276864777" lon="34.6979128324"><ele>162.758</ele><time>2026-08-17T03:58:52.203Z</time><hdop>3.125</hdop><vdop>2.5</vdop><extensions><gom:speed>0.6</gom:speed></extensions></trkpt>
   <trkpt lat="59.3276862682" lon="34.6979238965"><ele>162.528</ele><time>2026-08-17T03:58:53.245Z</time><hdop>3.25</hdop><vdop>2.5</vdop><extensions><gom:speed>0.368</gom:speed></extensions></trkpt>
   <trkpt lat="59.3276859748" lon="34.6979348768"><ele>162.236</ele><time>2026-08-17T03:58:53.964Z</time><hdop>3.25</hdop><vdop>2.5</vdop><extensions><gom:speed>0.334</gom:speed></extensions></trkpt>
   <trkpt lat="59.3276859748" lon="34.6979388163"><ele>162.011</ele><time>2026-08-17T03:58:54.652Z</time><hdop>3.25</hdop><vdop>2.5</vdop><extensions><gom:speed>0.239</gom:speed></extensions></trkpt>
   <trkpt lat="59.3276846756" lon="34.6979468629"><ele>161.876</ele><time>2026-08-17T03:58:55.653Z</time><hdop>3.25</hdop><vdop>2.5</vdop><extensions><gom:speed>0.183</gom:speed></extensions></trkpt>
   <trkpt lat="59.3276822868" lon="34.697960693"><ele>161.759</ele><time>2026-08-17T03:58:56.645Z</time><hdop>3.187</hdop><vdop>2.5</vdop><extensions><gom:speed>0.296</gom:speed></extensions></trkpt>
   <trkpt lat="59.3276798979" lon="34.6979638782"><ele>161.69</ele><time>2026-08-17T03:58:57.424Z</time><hdop>3.125</hdop><vdop>2.5</vdop><extensions><gom:speed>0.202</gom:speed></extensions></trkpt>
   <trkpt lat="59.3276771738" lon="34.6979701646"><ele>161.63</ele><time>2026-08-17T03:58:58.264Z</time><hdop>3.0</hdop><vdop>2.5</vdop><extensions><gom:speed>0.254</gom:speed></extensions></trkpt>
   <trkpt lat="59.3276744916" lon="34.6979757805"><ele>161.595</ele><time>2026-08-17T03:58:58.921Z</time><hdop>3.0</hdop><vdop>2.5</vdop><extensions><gom:speed>0.266</gom:speed></extensions></trkpt>
   <trkpt lat="59.32767336" lon="34.6979794685"><ele>161.67</ele><time>2026-08-17T03:58:59.652Z</time><hdop>3.0</hdop><vdop>2.5</vdop><extensions><gom:speed>0.223</gom:speed></extensions></trkpt>
   <trkpt lat="59.3276689595" lon="34.6979896944"><ele>161.536</ele><time>2026-08-17T03:59:00.645Z</time><hdop>3.0</hdop><vdop>2.5</vdop><extensions><gom:speed>0.239</gom:speed></extensions></trkpt>
   <trkpt lat="59.3276681633" lon="34.6979916223"><ele>161.456</ele><time>2026-08-17T03:59:01.704Z</time><hdop>3.0</hdop><vdop>2.5</vdop><extensions><gom:speed>0.16</gom:speed></extensions></trkpt>
   <trkpt lat="59.3276658582" lon="34.697997322"><ele>161.63</ele><time>2026-08-17T03:59:02.655Z</time><hdop>3.0</hdop><vdop>2.812</vdop><extensions><gom:speed>0.093</gom:speed></extensions></trkpt>
   <trkpt lat="59.3276616673" lon="34.6980064582"><ele>161.737</ele><time>2026-08-17T03:59:03.645Z</time><hdop>3.0</hdop><vdop>2.875</vdop><extensions><gom:speed>0.104</gom:speed></extensions></trkpt>
   <trkpt lat="59.3276609967" lon="34.6980082184"><ele>161.808</ele><time>2026-08-17T03:59:04.652Z</time><hdop>3.0</hdop><vdop>2.812</vdop><extensions><gom:speed>0.032</gom:speed></extensions></trkpt>
   <trkpt lat="59.3276584822" lon="34.6980131637"><ele>161.861</ele><time>2026-08-17T03:59:05.644Z</time><hdop>3.0</hdop><vdop>2.75</vdop><extensions><gom:speed>0.074</gom:speed></extensions></trkpt>
   <trkpt lat="59.3276579792" lon="34.6980137505"><ele>161.893</ele><time>2026-08-17T03:59:06.652Z</time><hdop>3.0</hdop><vdop>2.875</vdop><extensions><gom:speed>0.035</gom:speed></extensions></trkpt>
   <trkpt lat="59.32765668" lon="34.6980159298"><ele>161.912</ele><time>2026-08-17T03:59:07.480Z</time><hdop>3.0</hdop><vdop>2.875</vdop><extensions><gom:speed>0.078</gom:speed></extensions></trkpt>
   <trkpt lat="59.3276549618" lon="34.6980175223"><ele>161.76</ele><time>2026-08-17T03:59:08.118Z</time><hdop>3.0</hdop><vdop>3.0</vdop><extensions><gom:speed>0.093</gom:speed></extensions></trkpt>
   <trkpt lat="59.327654375" lon="34.6980169356"><ele>161.289</ele><time>2026-08-17T03:59:08.652Z</time><hdop>3.0</hdop><vdop>3.0</vdop><extensions><gom:speed>0.074</gom:speed></extensions></trkpt>
   <trkpt lat="59.3276522795" lon="34.6980189473"><ele>161.008</ele><time>2026-08-17T03:59:09.665Z</time><hdop>3.0</hdop><vdop>3.0</vdop><extensions><gom:speed>0.067</gom:speed></extensions></trkpt>
   <trkpt lat="59.3276505613" lon="34.6980207913"><ele>160.485</ele><time>2026-08-17T03:59:10.652Z</time><hdop>3.0</hdop><vdop>3.125</vdop><extensions><gom:speed>0.063</gom:speed></extensions></trkpt>
   <trkpt lat="59.3276480886" lon="34.6980238926"><ele>160.173</ele><time>2026-08-17T03:59:11.325Z</time><hdop>3.0</hdop><vdop>3.125</vdop><extensions><gom:speed>0.099</gom:speed></extensions></trkpt>
   <trkpt lat="59.3276439815" lon="34.6980277483"><ele>159.86</ele><time>2026-08-17T03:59:12.225Z</time><hdop>3.0</hdop><vdop>3.25</vdop><extensions><gom:speed>0.112</gom:speed></extensions></trkpt>
   <trkpt lat="59.327639078" lon="34.6980328612"><ele>159.836</ele><time>2026-08-17T03:59:13.065Z</time><hdop>3.0</hdop><vdop>3.312</vdop><extensions><gom:speed>0.166</gom:speed></extensions></trkpt>
   <trkpt lat="59.327633085" lon="34.6980387286"><ele>159.956</ele><time>2026-08-17T03:59:13.645Z</time><hdop>3.0</hdop><vdop>3.625</vdop><extensions><gom:speed>0.273</gom:speed></extensions></trkpt>
   <trkpt lat="59.3276312829" lon="34.6980400697"><ele>160.159</ele><time>2026-08-17T03:59:14.652Z</time><hdop>3.0</hdop><vdop>4.0</vdop><extensions><gom:speed>0.148</gom:speed></extensions></trkpt>
   <trkpt lat="59.3276248707" lon="34.6980478648"><ele>160.281</ele><time>2026-08-17T03:59:15.645Z</time><hdop>3.0</hdop><vdop>4.0</vdop><extensions><gom:speed>0.24</gom:speed></extensions></trkpt>
   <trkpt lat="59.3276167822" lon="34.6980578393"><ele>160.349</ele><time>2026-08-17T03:59:16.652Z</time><hdop>3.0</hdop><vdop>4.062</vdop><extensions><gom:speed>0.168</gom:speed></extensions></trkpt>
   <trkpt lat="59.3276054666" lon="34.6980771177"><ele>160.35</ele><time>2026-08-17T03:59:17.645Z</time><hdop>3.0</hdop><vdop>4.062</vdop><extensions><gom:speed>0.389</gom:speed></extensions></trkpt>
   <trkpt lat="59.3276025749" lon="34.6980821468"><ele>160.351</ele><time>2026-08-17T03:59:18.427Z</time><hdop>3.0</hdop><vdop>4.062</vdop><extensions><gom:speed>0.324</gom:speed></extensions></trkpt>
   <trkpt lat="59.3275968752" lon="34.6980947197"><ele>160.295</ele><time>2026-08-17T03:59:19.297Z</time><hdop>3.0</hdop><vdop>4.312</vdop><extensions><gom:speed>0.318</gom:speed></extensions></trkpt>
   <trkpt lat="59.3275919718" lon="34.698108466"><ele>160.238</ele><time>2026-08-17T03:59:20.278Z</time><hdop>3.0</hdop><vdop>4.5</vdop><extensions><gom:speed>0.352</gom:speed></extensions></trkpt>
   <trkpt lat="59.3275883675" lon="34.6981231343"><ele>160.594</ele><time>2026-08-17T03:59:21.159Z</time><hdop>3.0</hdop><vdop>3.812</vdop><extensions><gom:speed>0.366</gom:speed></extensions></trkpt>
   <trkpt lat="59.3275871941" lon="34.6981278282"><ele>160.967</ele><time>2026-08-17T03:59:21.652Z</time><hdop>3.0</hdop><vdop>3.875</vdop><extensions><gom:speed>0.318</gom:speed></extensions></trkpt>
   <trkpt lat="59.3275822907" lon="34.6981491182"><ele>161.218</ele><time>2026-08-17T03:59:22.646Z</time><hdop>3.0</hdop><vdop>3.687</vdop><extensions><gom:speed>0.409</gom:speed></extensions></trkpt>
   <trkpt lat="59.3275803628" lon="34.6981630322"><ele>161.367</ele><time>2026-08-17T03:59:23.121Z</time><hdop>3.0</hdop><vdop>3.687</vdop><extensions><gom:speed>0.428</gom:speed></extensions></trkpt>
   <trkpt lat="59.3275775968" lon="34.698180718"><ele>161.613</ele><time>2026-08-17T03:59:23.645Z</time><hdop>3.0</hdop><vdop>3.562</vdop><extensions><gom:speed>0.545</gom:speed></extensions></trkpt>
   <trkpt lat="59.3275763814" lon="34.6981859986"><ele>161.759</ele><time>2026-08-17T03:59:24.265Z</time><hdop>3.0</hdop><vdop>3.562</vdop><extensions><gom:speed>0.49</gom:speed></extensions></trkpt>
   <trkpt lat="59.3275738668" lon="34.6982026786"><ele>161.665</ele><time>2026-08-17T03:59:24.781Z</time><hdop>3.0</hdop><vdop>3.312</vdop><extensions><gom:speed>0.502</gom:speed></extensions></trkpt>
   <trkpt lat="59.3275716875" lon="34.6982176822"><ele>161.713</ele><time>2026-08-17T03:59:25.645Z</time><hdop>3.0</hdop><vdop>3.187</vdop><extensions><gom:speed>0.59</gom:speed></extensions></trkpt>
   <trkpt lat="59.3275707655" lon="34.6982271537"><ele>161.561</ele><time>2026-08-17T03:59:26.653Z</time><hdop>3.0</hdop><vdop>3.312</vdop><extensions><gom:speed>0.511</gom:speed></extensions></trkpt>
   <trkpt lat="59.3275689634" lon="34.698240481"><ele>161.471</ele><time>2026-08-17T03:59:27.441Z</time><hdop>3.0</hdop><vdop>3.312</vdop><extensions><gom:speed>0.53</gom:speed></extensions></trkpt>
   <trkpt lat="59.3275664908" lon="34.6982548978"><ele>161.408</ele><time>2026-08-17T03:59:28.362Z</time><hdop>3.0</hdop><vdop>3.437</vdop><extensions><gom:speed>0.499</gom:speed></extensions></trkpt>
   <trkpt lat="59.327562677" lon="34.6982648723"><ele>161.639</ele><time>2026-08-17T03:59:29.101Z</time><hdop>3.0</hdop><vdop>3.437</vdop><extensions><gom:speed>0.508</gom:speed></extensions></trkpt>
   <trkpt lat="59.3275570611" lon="34.6982768584"><ele>162.195</ele><time>2026-08-17T03:59:29.645Z</time><hdop>3.0</hdop><vdop>3.187</vdop><extensions><gom:speed>0.575</gom:speed></extensions></trkpt>
   <trkpt lat="59.327553876" lon="34.6982835639"><ele>162.526</ele><time>2026-08-17T03:59:30.638Z</time><hdop>3.0</hdop><vdop>3.187</vdop><extensions><gom:speed>0.544</gom:speed></extensions></trkpt>
   <trkpt lat="59.3275454941" lon="34.6982992381"><ele>162.623</ele><time>2026-08-17T03:59:31.652Z</time><hdop>3.0</hdop><vdop>3.125</vdop><extensions><gom:speed>0.41</gom:speed></extensions></trkpt>
   <trkpt lat="59.3275350586" lon="34.6983135712"><ele>162.21</ele><time>2026-08-17T03:59:32.652Z</time><hdop>3.0</hdop><vdop>3.25</vdop><extensions><gom:speed>0.399</gom:speed></extensions></trkpt>
   <trkpt lat="59.3275267605" lon="34.6983274851"><ele>161.963</ele><time>2026-08-17T03:59:33.623Z</time><hdop>3.0</hdop><vdop>3.25</vdop><extensions><gom:speed>0.482</gom:speed></extensions></trkpt>
   <trkpt lat="59.3275165765" lon="34.698349781"><ele>161.761</ele><time>2026-08-17T03:59:34.646Z</time><hdop>3.0</hdop><vdop>3.25</vdop><extensions><gom:speed>0.654</gom:speed></extensions></trkpt>
   <trkpt lat="59.3275141877" lon="34.6983584982"><ele>161.64</ele><time>2026-08-17T03:59:35.586Z</time><hdop>3.0</hdop><vdop>3.25</vdop><extensions><gom:speed>0.469</gom:speed></extensions></trkpt>
   <trkpt lat="59.327512176" lon="34.6983680535"><ele>161.586</ele><time>2026-08-17T03:59:36.365Z</time><hdop>3.0</hdop><vdop>3.187</vdop><extensions><gom:speed>0.423</gom:speed></extensions></trkpt>
   <trkpt lat="59.327510793" lon="34.6983803749"><ele>161.467</ele><time>2026-08-17T03:59:37.103Z</time><hdop>3.0</hdop><vdop>3.062</vdop><extensions><gom:speed>0.403</gom:speed></extensions></trkpt>
   <trkpt lat="59.3275108768" lon="34.6983903494"><ele>161.319</ele><time>2026-08-17T03:59:37.645Z</time><hdop>3.0</hdop><vdop>2.937</vdop><extensions><gom:speed>0.478</gom:speed></extensions></trkpt>
   <trkpt lat="59.3275103739" lon="34.6983984798"><ele>161.231</ele><time>2026-08-17T03:59:38.641Z</time><hdop>3.0</hdop><vdop>2.937</vdop><extensions><gom:speed>0.412</gom:speed></extensions></trkpt>
   <trkpt lat="59.3275111702" lon="34.6984135673"><ele>161.232</ele><time>2026-08-17T03:59:39.562Z</time><hdop>3.0</hdop><vdop>3.0</vdop><extensions><gom:speed>0.436</gom:speed></extensions></trkpt>
   <trkpt lat="59.3275133914" lon="34.6984255534"><ele>161.228</ele><time>2026-08-17T03:59:40.261Z</time><hdop>3.0</hdop><vdop>2.75</vdop><extensions><gom:speed>0.409</gom:speed></extensions></trkpt>
   <trkpt lat="59.3275157803" lon="34.6984379586"><ele>161.582</ele><time>2026-08-17T03:59:40.999Z</time><hdop>3.0</hdop><vdop>2.562</vdop><extensions><gom:speed>0.41</gom:speed></extensions></trkpt>
   <trkpt lat="59.3275197617" lon="34.6984526269"><ele>161.704</ele><time>2026-08-17T03:59:41.645Z</time><hdop>3.0</hdop><vdop>2.5</vdop><extensions><gom:speed>0.467</gom:speed></extensions></trkpt>
   <trkpt lat="59.3275214799" lon="34.6984630205"><ele>161.777</ele><time>2026-08-17T03:59:42.445Z</time><hdop>3.0</hdop><vdop>2.5</vdop><extensions><gom:speed>0.478</gom:speed></extensions></trkpt>
   <trkpt lat="59.3275281855" lon="34.6984780241"><ele>162.233</ele><time>2026-08-17T03:59:43.477Z</time><hdop>3.0</hdop><vdop>2.5</vdop><extensions><gom:speed>0.547</gom:speed></extensions></trkpt>
   <trkpt lat="59.3275373637" lon="34.6984937821"><ele>162.539</ele><time>2026-08-17T03:59:44.165Z</time><hdop>3.0</hdop><vdop>2.5</vdop><extensions><gom:speed>0.586</gom:speed></extensions></trkpt>
   <trkpt lat="59.3275397944" lon="34.6984981407"><ele>162.696</ele><time>2026-08-17T03:59:44.652Z</time><hdop>3.0</hdop><vdop>2.5</vdop><extensions><gom:speed>0.545</gom:speed></extensions></trkpt>
   <trkpt lat="59.3275491821" lon="34.6985090371"><ele>162.791</ele><time>2026-08-17T03:59:45.562Z</time><hdop>3.0</hdop><vdop>2.5</vdop><extensions><gom:speed>0.598</gom:speed></extensions></trkpt>
   <trkpt lat="59.3275562648" lon="34.6985173352"><ele>162.959</ele><time>2026-08-17T03:59:46.340Z</time><hdop>3.0</hdop><vdop>2.5</vdop><extensions><gom:speed>0.508</gom:speed></extensions></trkpt>
   <trkpt lat="59.3275669937" lon="34.6985246275"><ele>163.109</ele><time>2026-08-17T03:59:47.645Z</time><hdop>3.0</hdop><vdop>2.5</vdop><extensions><gom:speed>0.379</gom:speed></extensions></trkpt>
   <trkpt lat="59.3275701788" lon="34.69852622"><ele>163.176</ele><time>2026-08-17T03:59:48.645Z</time><hdop>3.0</hdop><vdop>2.5</vdop><extensions><gom:speed>0.274</gom:speed></extensions></trkpt>
   <trkpt lat="59.3275702626" lon="34.6985279802"><ele>163.217</ele><time>2026-08-17T03:59:49.183Z</time><hdop>3.0</hdop><vdop>2.5</vdop><extensions><gom:speed>0.274</gom:speed></extensions></trkpt>
   <trkpt lat="59.3275730706" lon="34.6985286508"><ele>163.583</ele><time>2026-08-17T03:59:49.645Z</time><hdop>3.0</hdop><vdop>2.5</vdop><extensions><gom:speed>0.26</gom:speed></extensions></trkpt>
   <trkpt lat="59.3275742859" lon="34.6985309977"><ele>163.802</ele><time>2026-08-17T03:59:50.124Z</time><hdop>3.0</hdop><vdop>2.5</vdop><extensions><gom:speed>0.274</gom:speed></extensions></trkpt>
   <trkpt lat="59.3275774711" lon="34.6985305786"><ele>163.729</ele><time>2026-08-17T03:59:50.645Z</time><hdop>3.0</hdop><vdop>2.5</vdop><extensions><gom:speed>0.219</gom:speed></extensions></trkpt>
   <trkpt lat="59.3275787703" lon="34.6985307463"><ele>163.685</ele><time>2026-08-17T03:59:51.237Z</time><hdop>3.0</hdop><vdop>2.5</vdop><extensions><gom:speed>0.21</gom:speed></extensions></trkpt>
   <trkpt lat="59.3275829612" lon="34.6985306625"><ele>163.572</ele><time>2026-08-17T03:59:52.026Z</time><hdop>3.0</hdop><vdop>2.5</vdop><extensions><gom:speed>0.208</gom:speed></extensions></trkpt>
   <trkpt lat="59.3275845957" lon="34.6985314168"><ele>163.787</ele><time>2026-08-17T03:59:52.652Z</time><hdop>3.0</hdop><vdop>2.5</vdop><extensions><gom:speed>0.236</gom:speed></extensions></trkpt>
   <trkpt lat="59.3275921813" lon="34.6985337638"><ele>164.078</ele><time>2026-08-17T03:59:53.645Z</time><hdop>3.0</hdop><vdop>2.5</vdop><extensions><gom:speed>0.301</gom:speed></extensions></trkpt>
   <trkpt lat="59.3275952826" lon="34.6985388767"><ele>164.372</ele><time>2026-08-17T03:59:54.652Z</time><hdop>3.0</hdop><vdop>2.5</vdop><extensions><gom:speed>0.297</gom:speed></extensions></trkpt>
   <trkpt lat="59.3275999765" lon="34.698546169"><ele>164.839</ele><time>2026-08-17T03:59:55.645Z</time><hdop>3.0</hdop><vdop>2.5</vdop><extensions><gom:speed>0.319</gom:speed></extensions></trkpt>
   <trkpt lat="59.3276044608" lon="34.6985521201"><ele>165.233</ele><time>2026-08-17T03:59:56.645Z</time><hdop>3.0</hdop><vdop>2.5</vdop><extensions><gom:speed>0.325</gom:speed></extensions></trkpt>
   <trkpt lat="59.3276067658" lon="34.6985551376"><ele>165.468</ele><time>2026-08-17T03:59:57.186Z</time><hdop>3.0</hdop><vdop>2.5</vdop><extensions><gom:speed>0.313</gom:speed></extensions></trkpt>
   <trkpt lat="59.3276075621" lon="34.6985562273"><ele>165.28</ele><time>2026-08-17T03:59:57.672Z</time><hdop>3.0</hdop><vdop>2.687</vdop><extensions><gom:speed>0.283</gom:speed></extensions></trkpt>
   <trkpt lat="59.3276124655" lon="34.6985617593"><ele>165.315</ele><time>2026-08-17T03:59:58.652Z</time><hdop>3.0</hdop><vdop>2.75</vdop><extensions><gom:speed>0.304</gom:speed></extensions></trkpt>
   <trkpt lat="59.3276158602" lon="34.6985643577"><ele>165.328</ele><time>2026-08-17T03:59:59.652Z</time><hdop>3.0</hdop><vdop>2.687</vdop><extensions><gom:speed>0.189</gom:speed></extensions></trkpt>
   <trkpt lat="59.3276202607" lon="34.6985701412"><ele>165.639</ele><time>2026-08-17T04:00:00.645Z</time><hdop>3.0</hdop><vdop>2.812</vdop><extensions><gom:speed>0.191</gom:speed></extensions></trkpt>
   <trkpt lat="59.3276232782" lon="34.6985739969"><ele>166.236</ele><time>2026-08-17T04:00:01.645Z</time><hdop>3.0</hdop><vdop>2.75</vdop><extensions><gom:speed>0.162</gom:speed></extensions></trkpt>
   <trkpt lat="59.3276236973" lon="34.6985750865"><ele>166.592</ele><time>2026-08-17T04:00:02.427Z</time><hdop>3.0</hdop><vdop>2.75</vdop><extensions><gom:speed>0.16</gom:speed></extensions></trkpt>
   <trkpt lat="59.3276264633" lon="34.6985829655"><ele>166.652</ele><time>2026-08-17T04:00:03.337Z</time><hdop>3.0</hdop><vdop>2.625</vdop><extensions><gom:speed>0.243</gom:speed></extensions></trkpt>
   <trkpt lat="59.3276280978" lon="34.6985886652"><ele>166.662</ele><time>2026-08-17T04:00:04.654Z</time><hdop>3.0</hdop><vdop>2.5</vdop><extensions><gom:speed>0.125</gom:speed></extensions></trkpt>
   <trkpt lat="59.3276290617" lon="34.6985921856"><ele>166.669</ele><time>2026-08-17T04:00:05.199Z</time><hdop>3.0</hdop><vdop>2.5</vdop><extensions><gom:speed>0.145</gom:speed></extensions></trkpt>
   <trkpt lat="59.3276305704" lon="34.6985967957"><ele>166.689</ele><time>2026-08-17T04:00:05.868Z</time><hdop>3.0</hdop><vdop>2.5</vdop><extensions><gom:speed>0.151</gom:speed></extensions></trkpt>
   <trkpt lat="59.3276309895" lon="34.6985990588"><ele>166.77</ele><time>2026-08-17T04:00:06.652Z</time><hdop>3.0</hdop><vdop>2.5</vdop><extensions><gom:speed>0.145</gom:speed></extensions></trkpt>
   <trkpt lat="59.3276324983" lon="34.6986033336"><ele>166.892</ele><time>2026-08-17T04:00:07.645Z</time><hdop>3.0</hdop><vdop>2.687</vdop><extensions><gom:speed>0.174</gom:speed></extensions></trkpt>
   <trkpt lat="59.3276322887" lon="34.6986055967"><ele>167.11</ele><time>2026-08-17T04:00:08.652Z</time><hdop>3.0</hdop><vdop>2.625</vdop><extensions><gom:speed>0.117</gom:speed></extensions></trkpt>
   <trkpt lat="59.3276310733" lon="34.6986065187"><ele>167.24</ele><time>2026-08-17T04:00:09.327Z</time><hdop>3.0</hdop><vdop>2.625</vdop><extensions><gom:speed>0.155</gom:speed></extensions></trkpt>
   <trkpt lat="59.3276284749" lon="34.698605429"><ele>167.362</ele><time>2026-08-17T04:00:09.924Z</time><hdop>3.0</hdop><vdop>2.687</vdop><extensions><gom:speed>0.132</gom:speed></extensions></trkpt>
   <trkpt lat="59.3276257927" lon="34.6986028306"><ele>167.431</ele><time>2026-08-17T04:00:10.645Z</time><hdop>3.0</hdop><vdop>2.937</vdop><extensions><gom:speed>0.146</gom:speed></extensions></trkpt>
   <trkpt lat="59.3276226914" lon="34.6985997293"><ele>167.541</ele><time>2026-08-17T04:00:11.645Z</time><hdop>3.0</hdop><vdop>3.125</vdop><extensions><gom:speed>0.149</gom:speed></extensions></trkpt>
   <trkpt lat="59.3276218951" lon="34.6986005675"><ele>167.544</ele><time>2026-08-17T04:00:12.646Z</time><hdop>3.0</hdop><vdop>3.25</vdop><extensions><gom:speed>0.16</gom:speed></extensions></trkpt>
   <trkpt lat="59.327616866" lon="34.6986023277"><ele>167.481</ele><time>2026-08-17T04:00:13.645Z</time><hdop>3.0</hdop><vdop>3.562</vdop><extensions><gom:speed>0.215</gom:speed></extensions></trkpt>
   <trkpt lat="59.3276160697" lon="34.6986038365"><ele>167.443</ele><time>2026-08-17T04:00:14.386Z</time><hdop>3.0</hdop><vdop>3.562</vdop><extensions><gom:speed>0.198</gom:speed></extensions></trkpt>
   <trkpt lat="59.3276150639" lon="34.6986055967"><ele>167.2</ele><time>2026-08-17T04:00:15.266Z</time><hdop>3.0</hdop><vdop>3.312</vdop><extensions><gom:speed>0.182</gom:speed></extensions></trkpt>
   <trkpt lat="59.3276143933" lon="34.6986091171"><ele>167.12</ele><time>2026-08-17T04:00:16.601Z</time><hdop>3.0</hdop><vdop>3.187</vdop><extensions><gom:speed>0.204</gom:speed></extensions></trkpt>
   <trkpt lat="59.3276149801" lon="34.6986150682"><ele>167.346</ele><time>2026-08-17T04:00:17.645Z</time><hdop>3.0</hdop><vdop>2.875</vdop><extensions><gom:speed>0.239</gom:speed></extensions></trkpt>
   <trkpt lat="59.3276158602" lon="34.6986196783"><ele>167.322</ele><time>2026-08-17T04:00:18.652Z</time><hdop>3.0</hdop><vdop>2.875</vdop><extensions><gom:speed>0.221</gom:speed></extensions></trkpt>
   <trkpt lat="59.3276158602" lon="34.6986209355"><ele>167.307</ele><time>2026-08-17T04:00:19.121Z</time><hdop>3.0</hdop><vdop>2.875</vdop><extensions><gom:speed>0.209</gom:speed></extensions></trkpt>
   <trkpt lat="59.3276159859" lon="34.6986270543"><ele>166.938</ele><time>2026-08-17T04:00:19.645Z</time><hdop>3.0</hdop><vdop>2.75</vdop><extensions><gom:speed>0.233</gom:speed></extensions></trkpt>
   <trkpt lat="59.3276158602" lon="34.6986295689"><ele>166.881</ele><time>2026-08-17T04:00:20.652Z</time><hdop>3.0</hdop><vdop>2.687</vdop><extensions><gom:speed>0.166</gom:speed></extensions></trkpt>
   <trkpt lat="59.3276159859" lon="34.6986324188"><ele>166.847</ele><time>2026-08-17T04:00:21.164Z</time><hdop>3.0</hdop><vdop>2.687</vdop><extensions><gom:speed>0.183</gom:speed></extensions></trkpt>
   <trkpt lat="59.3276162793" lon="34.6986344304"><ele>166.717</ele><time>2026-08-17T04:00:21.650Z</time><hdop>3.0</hdop><vdop>2.812</vdop><extensions><gom:speed>0.19</gom:speed></extensions></trkpt>
   <trkpt lat="59.3276190872" lon="34.6986411359"><ele>166.621</ele><time>2026-08-17T04:00:22.662Z</time><hdop>3.0</hdop><vdop>3.125</vdop><extensions><gom:speed>0.222</gom:speed></extensions></trkpt>
   <trkpt lat="59.3276208893" lon="34.6986470871"><ele>166.563</ele><time>2026-08-17T04:00:23.218Z</time><hdop>3.0</hdop><vdop>3.125</vdop><extensions><gom:speed>0.265</gom:speed></extensions></trkpt>
   <trkpt lat="59.3276236973" lon="34.6986540441"><ele>166.594</ele><time>2026-08-17T04:00:24.645Z</time><hdop>3.0</hdop><vdop>3.0</vdop><extensions><gom:speed>0.182</gom:speed></extensions></trkpt>
   <trkpt lat="59.3276239906" lon="34.6986551337"><ele>166.612</ele><time>2026-08-17T04:00:25.221Z</time><hdop>3.0</hdop><vdop>3.0</vdop><extensions><gom:speed>0.153</gom:speed></extensions></trkpt>
   <trkpt lat="59.3276255832" lon="34.6986584865"><ele>166.165</ele><time>2026-08-17T04:00:25.859Z</time><hdop>3.0</hdop><vdop>3.0</vdop><extensions><gom:speed>0.138</gom:speed></extensions></trkpt>
   <trkpt lat="59.3276278882" lon="34.698665192"><ele>165.715</ele><time>2026-08-17T04:00:26.645Z</time><hdop>3.0</hdop><vdop>2.937</vdop><extensions><gom:speed>0.173</gom:speed></extensions></trkpt>
   <trkpt lat="59.327628894" lon="34.6986683771"><ele>165.257</ele><time>2026-08-17T04:00:27.652Z</time><hdop>3.0</hdop><vdop>3.0</vdop><extensions><gom:speed>0.133</gom:speed></extensions></trkpt>
   <trkpt lat="59.3276297741" lon="34.6986734901"><ele>164.983</ele><time>2026-08-17T04:00:28.267Z</time><hdop>3.0</hdop><vdop>3.0</vdop><extensions><gom:speed>0.169</gom:speed></extensions></trkpt>
   <trkpt lat="59.3276299837" lon="34.6986821234"><ele>164.898</ele><time>2026-08-17T04:00:29.086Z</time><hdop>3.0</hdop><vdop>2.937</vdop><extensions><gom:speed>0.207</gom:speed></extensions></trkpt>
   <trkpt lat="59.3276302771" lon="34.698688829"><ele>164.782</ele><time>2026-08-17T04:00:29.644Z</time><hdop>3.0</hdop><vdop>2.875</vdop><extensions><gom:speed>0.24</gom:speed></extensions></trkpt>
   <trkpt lat="59.3276303609" lon="34.6986927685"><ele>164.713</ele><time>2026-08-17T04:00:30.219Z</time><hdop>3.0</hdop><vdop>2.875</vdop><extensions><gom:speed>0.269</gom:speed></extensions></trkpt>
   <trkpt lat="59.3276304866" lon="34.6987029944"><ele>164.786</ele><time>2026-08-17T04:00:31.323Z</time><hdop>3.0</hdop><vdop>2.937</vdop><extensions><gom:speed>0.258</gom:speed></extensions></trkpt>
   <trkpt lat="59.32763078" lon="34.6987142261"><ele>164.596</ele><time>2026-08-17T04:00:32.202Z</time><hdop>3.0</hdop><vdop>3.062</vdop><extensions><gom:speed>0.276</gom:speed></extensions></trkpt>
   <trkpt lat="59.3276303609" lon="34.6987172436"><ele>164.409</ele><time>2026-08-17T04:00:32.652Z</time><hdop>3.0</hdop><vdop>2.875</vdop><extensions><gom:speed>0.341</gom:speed></extensions></trkpt>
   <trkpt lat="59.3276286845" lon="34.6987377793"><ele>163.832</ele><time>2026-08-17T04:00:33.644Z</time><hdop>3.0</hdop><vdop>2.812</vdop><extensions><gom:speed>0.363</gom:speed></extensions></trkpt>
   <trkpt lat="59.3276269662" lon="34.6987528667"><ele>163.39</ele><time>2026-08-17T04:00:34.646Z</time><hdop>3.0</hdop><vdop>2.75</vdop><extensions><gom:speed>0.351</gom:speed></extensions></trkpt>
   <trkpt lat="59.3276271757" lon="34.6987599913"><ele>163.126</ele><time>2026-08-17T04:00:35.561Z</time><hdop>3.0</hdop><vdop>2.75</vdop><extensions><gom:speed>0.361</gom:speed></extensions></trkpt>
   <trkpt lat="59.327625667" lon="34.6987710554"><ele>162.87</ele><time>2026-08-17T04:00:36.522Z</time><hdop>3.0</hdop><vdop>2.812</vdop><extensions><gom:speed>0.352</gom:speed></extensions></trkpt>
   <trkpt lat="59.3276222723" lon="34.6987820357"><ele>162.708</ele><time>2026-08-17T04:00:37.625Z</time><hdop>3.0</hdop><vdop>3.125</vdop><extensions><gom:speed>0.318</gom:speed></extensions></trkpt>
   <trkpt lat="59.3276178718" lon="34.6987923455"><ele>162.444</ele><time>2026-08-17T04:00:38.647Z</time><hdop>3.0</hdop><vdop>3.062</vdop><extensions><gom:speed>0.362</gom:speed></extensions></trkpt>
   <trkpt lat="59.3276172851" lon="34.6987941895"><ele>162.286</ele><time>2026-08-17T04:00:39.163Z</time><hdop>3.0</hdop><vdop>3.062</vdop><extensions><gom:speed>0.278</gom:speed></extensions></trkpt>
   <trkpt lat="59.3276161955" lon="34.6987975422"><ele>162.211</ele><time>2026-08-17T04:00:39.644Z</time><hdop>3.0</hdop><vdop>3.062</vdop><extensions><gom:speed>0.297</gom:speed></extensions></trkpt>
   <trkpt lat="59.3276155668" lon="34.698798129"><ele>162.165</ele><time>2026-08-17T04:00:40.306Z</time><hdop>3.0</hdop><vdop>3.062</vdop><extensions><gom:speed>0.257</gom:speed></extensions></trkpt>
   <trkpt lat="59.3276149801" lon="34.6988013979"><ele>162.134</ele><time>2026-08-17T04:00:41.167Z</time><hdop>3.062</hdop><vdop>3.062</vdop><extensions><gom:speed>0.22</gom:speed></extensions></trkpt>
   <trkpt lat="59.3276150639" lon="34.698804583"><ele>162.022</ele><time>2026-08-17T04:00:42.117Z</time><hdop>3.125</hdop><vdop>3.312</vdop><extensions><gom:speed>0.24</gom:speed></extensions></trkpt>
   <trkpt lat="59.3276151896" lon="34.6988057565"><ele>161.717</ele><time>2026-08-17T04:00:42.652Z</time><hdop>3.187</hdop><vdop>3.375</vdop><extensions><gom:speed>0.206</gom:speed></extensions></trkpt>
   <trkpt lat="59.3276144772" lon="34.6988093607"><ele>161.534</ele><time>2026-08-17T04:00:43.402Z</time><hdop>3.25</hdop><vdop>3.375</vdop><extensions><gom:speed>0.239</gom:speed></extensions></trkpt>
   <trkpt lat="59.3276143933" lon="34.6988116238"><ele>161.376</ele><time>2026-08-17T04:00:44.323Z</time><hdop>3.5</hdop><vdop>3.687</vdop><extensions><gom:speed>0.225</gom:speed></extensions></trkpt>
   <trkpt lat="59.3276141838" lon="34.6988170721"><ele>161.208</ele><time>2026-08-17T04:00:45.122Z</time><hdop>3.625</hdop><vdop>4.125</vdop><extensions><gom:speed>0.257</gom:speed></extensions></trkpt>
   <trkpt lat="59.3276130941" lon="34.698821263"><ele>161.137</ele><time>2026-08-17T04:00:45.645Z</time><hdop>3.687</hdop><vdop>4.312</vdop><extensions><gom:speed>0.278</gom:speed></extensions></trkpt>
   <trkpt lat="59.3276111663" lon="34.6988255378"><ele>161.02</ele><time>2026-08-17T04:00:46.652Z</time><hdop>3.875</hdop><vdop>3.875</vdop><extensions><gom:speed>0.251</gom:speed></extensions></trkpt>
   <trkpt lat="59.3276069754" lon="34.6988348417"><ele>161.617</ele><time>2026-08-17T04:00:47.651Z</time><hdop>4.0</hdop><vdop>3.625</vdop><extensions><gom:speed>0.293</gom:speed></extensions></trkpt>
   <trkpt lat="59.3276028682" lon="34.6988452353"><ele>162.275</ele><time>2026-08-17T04:00:48.663Z</time><hdop>4.125</hdop><vdop>3.437</vdop><extensions><gom:speed>0.286</gom:speed></extensions></trkpt>
   <trkpt lat="59.3275994736" lon="34.6988563832"><ele>162.668</ele><time>2026-08-17T04:00:49.523Z</time><hdop>4.187</hdop><vdop>3.437</vdop><extensions><gom:speed>0.311</gom:speed></extensions></trkpt>
   <trkpt lat="59.3275916784" lon="34.698879182"><ele>163.724</ele><time>2026-08-17T04:00:50.645Z</time><hdop>4.187</hdop><vdop>3.25</vdop><extensions><gom:speed>0.341</gom:speed></extensions></trkpt>
   <trkpt lat="59.3275894991" lon="34.6988850493"><ele>164.355</ele><time>2026-08-17T04:00:51.567Z</time><hdop>4.25</hdop><vdop>3.25</vdop><extensions><gom:speed>0.312</gom:speed></extensions></trkpt>
   <trkpt lat="59.3275849729" lon="34.6988964487"><ele>164.623</ele><time>2026-08-17T04:00:52.599Z</time><hdop>4.312</hdop><vdop>3.312</vdop><extensions><gom:speed>0.335</gom:speed></extensions></trkpt>
   <trkpt lat="59.3275735735" lon="34.6989207562"><ele>164.519</ele><time>2026-08-17T04:00:53.317Z</time><hdop>4.187</hdop><vdop>3.312</vdop><extensions><gom:speed>0.351</gom:speed></extensions></trkpt>
   <trkpt lat="59.3275511938" lon="34.698943555"><ele>164.685</ele><time>2026-08-17T04:00:54.319Z</time><hdop>4.062</hdop><vdop>3.437</vdop><extensions><gom:speed>0.67</gom:speed></extensions></trkpt>
   <trkpt lat="59.3275383695" lon="34.6989468239"><ele>164.608</ele><time>2026-08-17T04:00:55.158Z</time><hdop>3.875</hdop><vdop>3.812</vdop><extensions><gom:speed>0.73</gom:speed></extensions></trkpt>
   <trkpt lat="59.3275346814" lon="34.69894959"><ele>164.485</ele><time>2026-08-17T04:00:55.652Z</time><hdop>3.812</hdop><vdop>3.625</vdop><extensions><gom:speed>0.63</gom:speed></extensions></trkpt>
   <trkpt lat="59.3275249584" lon="34.6989600674"><ele>164.187</ele><time>2026-08-17T04:00:56.656Z</time><hdop>3.5</hdop><vdop>3.75</vdop><extensions><gom:speed>0.655</gom:speed></extensions></trkpt>
   <trkpt lat="59.3275166604" lon="34.6989684493"><ele>164.224</ele><time>2026-08-17T04:00:57.668Z</time><hdop>3.25</hdop><vdop>3.687</vdop><extensions><gom:speed>0.57</gom:speed></extensions></trkpt>
   <trkpt lat="59.3275106673" lon="34.6989733946"><ele>164.246</ele><time>2026-08-17T04:00:58.265Z</time><hdop>3.25</hdop><vdop>3.687</vdop><extensions><gom:speed>0.605</gom:speed></extensions></trkpt>
   <trkpt lat="59.3275035846" lon="34.6989791781"><ele>164.292</ele><time>2026-08-17T04:00:58.882Z</time><hdop>3.062</hdop><vdop>3.5</vdop><extensions><gom:speed>0.658</gom:speed></extensions></trkpt>
   <trkpt lat="59.3274962923" lon="34.6989829499"><ele>164.32</ele><time>2026-08-17T04:00:59.519Z</time><hdop>3.0</hdop><vdop>3.5</vdop><extensions><gom:speed>0.664</gom:speed></extensions></trkpt>
   <trkpt lat="59.3274874913" lon="34.6989937626"><ele>164.422</ele><time>2026-08-17T04:01:00.339Z</time><hdop>3.0</hdop><vdop>3.75</vdop><extensions><gom:speed>0.683</gom:speed></extensions></trkpt>
   <trkpt lat="59.3274850606" lon="34.6990044914"><ele>164.032</ele><time>2026-08-17T04:01:01.320Z</time><hdop>3.0</hdop><vdop>3.5</vdop><extensions><gom:speed>0.491</gom:speed></extensions></trkpt>
   <trkpt lat="59.3274845996" lon="34.6990276255"><ele>164.263</ele><time>2026-08-17T04:01:02.119Z</time><hdop>3.0</hdop><vdop>3.25</vdop><extensions><gom:speed>0.671</gom:speed></extensions></trkpt>
   <trkpt lat="59.3274883714" lon="34.6990446408"><ele>164.247</ele><time>2026-08-17T04:01:02.645Z</time><hdop>3.0</hdop><vdop>3.062</vdop><extensions><gom:speed>0.599</gom:speed></extensions></trkpt>
   <trkpt lat="59.3274902993" lon="34.6990581356"><ele>164.276</ele><time>2026-08-17T04:01:03.652Z</time><hdop>3.0</hdop><vdop>2.937</vdop><extensions><gom:speed>0.516</gom:speed></extensions></trkpt>
   <trkpt lat="59.327493191" lon="34.6990744803"><ele>164.293</ele><time>2026-08-17T04:01:04.446Z</time><hdop>3.0</hdop><vdop>2.937</vdop><extensions><gom:speed>0.557</gom:speed></extensions></trkpt>
   <trkpt lat="59.3274929815" lon="34.6990954351"><ele>163.994</ele><time>2026-08-17T04:01:05.266Z</time><hdop>3.0</hdop><vdop>2.75</vdop><extensions><gom:speed>0.574</gom:speed></extensions></trkpt>
   <trkpt lat="59.3274916823" lon="34.6991132885"><ele>163.914</ele><time>2026-08-17T04:01:06.126Z</time><hdop>3.0</hdop><vdop>2.75</vdop><extensions><gom:speed>0.678</gom:speed></extensions></trkpt>
   <trkpt lat="59.3274911794" lon="34.6991218381"><ele>163.61</ele><time>2026-08-17T04:01:06.645Z</time><hdop>3.0</hdop><vdop>2.812</vdop><extensions><gom:speed>0.702</gom:speed></extensions></trkpt>
   <trkpt lat="59.3274909698" lon="34.6991319802"><ele>163.209</ele><time>2026-08-17T04:01:07.645Z</time><hdop>3.0</hdop><vdop>2.687</vdop><extensions><gom:speed>0.553</gom:speed></extensions></trkpt>
   <trkpt lat="59.3274909698" lon="34.6991425414"><ele>162.759</ele><time>2026-08-17T04:01:08.645Z</time><hdop>3.0</hdop><vdop>2.75</vdop><extensions><gom:speed>0.58</gom:speed></extensions></trkpt>
   <trkpt lat="59.3274910955" lon="34.6991520968"><ele>162.489</ele><time>2026-08-17T04:01:09.586Z</time><hdop>3.0</hdop><vdop>2.75</vdop><extensions><gom:speed>0.534</gom:speed></extensions></trkpt>
   <trkpt lat="59.3274929815" lon="34.6991623227"><ele>162.559</ele><time>2026-08-17T04:01:10.425Z</time><hdop>3.0</hdop><vdop>2.625</vdop><extensions><gom:speed>0.491</gom:speed></extensions></trkpt>
   <trkpt lat="59.3274957894" lon="34.6991702855"><ele>162.269</ele><time>2026-08-17T04:01:11.285Z</time><hdop>3.0</hdop><vdop>2.875</vdop><extensions><gom:speed>0.487</gom:speed></extensions></trkpt>
   <trkpt lat="59.3274977592" lon="34.6991781645"><ele>162.08</ele><time>2026-08-17T04:01:11.984Z</time><hdop>3.0</hdop><vdop>2.812</vdop><extensions><gom:speed>0.464</gom:speed></extensions></trkpt>
   <trkpt lat="59.3274981783" lon="34.6991854567"><ele>161.843</ele><time>2026-08-17T04:01:12.652Z</time><hdop>3.0</hdop><vdop>2.625</vdop><extensions><gom:speed>0.497</gom:speed></extensions></trkpt>
   <trkpt lat="59.3274975915" lon="34.6991967723"><ele>161.702</ele><time>2026-08-17T04:01:13.602Z</time><hdop>3.0</hdop><vdop>2.625</vdop><extensions><gom:speed>0.501</gom:speed></extensions></trkpt>
   <trkpt lat="59.3274955799" lon="34.6992138714"><ele>161.334</ele><time>2026-08-17T04:01:14.644Z</time><hdop>3.0</hdop><vdop>2.875</vdop><extensions><gom:speed>0.592</gom:speed></extensions></trkpt>
   <trkpt lat="59.3274951608" lon="34.6992216665"><ele>161.115</ele><time>2026-08-17T04:01:15.525Z</time><hdop>3.0</hdop><vdop>2.875</vdop><extensions><gom:speed>0.49</gom:speed></extensions></trkpt>
   <trkpt lat="59.3274967952" lon="34.6992322277"><ele>161.294</ele><time>2026-08-17T04:01:16.324Z</time><hdop>3.0</hdop><vdop>2.812</vdop><extensions><gom:speed>0.486</gom:speed></extensions></trkpt>
   <trkpt lat="59.3275000642" lon="34.6992438786"><ele>161.459</ele><time>2026-08-17T04:01:17.103Z</time><hdop>3.0</hdop><vdop>2.812</vdop><extensions><gom:speed>0.593</gom:speed></extensions></trkpt>
   <trkpt lat="59.3275031655" lon="34.6992512547"><ele>161.933</ele><time>2026-08-17T04:01:17.645Z</time><hdop>3.0</hdop><vdop>2.625</vdop><extensions><gom:speed>0.602</gom:speed></extensions></trkpt>
   <trkpt lat="59.3275063925" lon="34.6992603909"><ele>162.216</ele><time>2026-08-17T04:01:18.479Z</time><hdop>3.0</hdop><vdop>2.625</vdop><extensions><gom:speed>0.591</gom:speed></extensions></trkpt>
   <trkpt lat="59.3275049676" lon="34.6992771547"><ele>162.413</ele><time>2026-08-17T04:01:19.339Z</time><hdop>3.0</hdop><vdop>2.625</vdop><extensions><gom:speed>0.67</gom:speed></extensions></trkpt>
   <trkpt lat="59.3274981783" lon="34.6992861234"><ele>162.583</ele><time>2026-08-17T04:01:20.401Z</time><hdop>3.0</hdop><vdop>2.5</vdop><extensions><gom:speed>0.533</gom:speed></extensions></trkpt>
   <trkpt lat="59.3274933587" lon="34.69929417"><ele>162.662</ele><time>2026-08-17T04:01:21.261Z</time><hdop>3.0</hdop><vdop>2.5</vdop><extensions><gom:speed>0.509</gom:speed></extensions></trkpt>
   <trkpt lat="59.3274904669" lon="34.6992991992"><ele>162.738</ele><time>2026-08-17T04:01:21.848Z</time><hdop>3.0</hdop><vdop>2.562</vdop><extensions><gom:speed>0.484</gom:speed></extensions></trkpt>
   <trkpt lat="59.3274875751" lon="34.6993065752"><ele>163.213</ele><time>2026-08-17T04:01:22.657Z</time><hdop>3.0</hdop><vdop>2.562</vdop><extensions><gom:speed>0.376</gom:speed></extensions></trkpt>
   <trkpt lat="59.3274865693" lon="34.6993111853"><ele>163.496</ele><time>2026-08-17T04:01:23.124Z</time><hdop>3.0</hdop><vdop>2.562</vdop><extensions><gom:speed>0.365</gom:speed></extensions></trkpt>
   <trkpt lat="59.3274863598" lon="34.699316885"><ele>164.017</ele><time>2026-08-17T04:01:23.645Z</time><hdop>3.0</hdop><vdop>2.5</vdop><extensions><gom:speed>0.387</gom:speed></extensions></trkpt>
   <trkpt lat="59.3274863598" lon="34.6993219979"><ele>164.241</ele><time>2026-08-17T04:01:24.645Z</time><hdop>3.0</hdop><vdop>2.5</vdop><extensions><gom:speed>0.237</gom:speed></extensions></trkpt>
   <trkpt lat="59.3274861921" lon="34.6993229199"><ele>164.229</ele><time>2026-08-17T04:01:25.652Z</time><hdop>3.0</hdop><vdop>2.5</vdop><extensions><gom:speed>0.094</gom:speed></extensions></trkpt>
   <trkpt lat="59.3274860664" lon="34.6993253507"><ele>164.123</ele><time>2026-08-17T04:01:26.645Z</time><hdop>3.0</hdop><vdop>2.5</vdop><extensions><gom:speed>0.131</gom:speed></extensions></trkpt>
   <trkpt lat="59.327485773" lon="34.6993266918"><ele>164.053</ele><time>2026-08-17T04:01:27.652Z</time><hdop>3.0</hdop><vdop>2.5</vdop><extensions><gom:speed>0.081</gom:speed></extensions></trkpt>
   <trkpt lat="59.3274860664" lon="34.6993283682"><ele>164.008</ele><time>2026-08-17T04:01:28.645Z</time><hdop>3.0</hdop><vdop>2.5</vdop><extensions><gom:speed>0.112</gom:speed></extensions></trkpt>
   <trkpt lat="59.3274855635" lon="34.6993287873"><ele>163.981</ele><time>2026-08-17T04:01:29.487Z</time><hdop>3.0</hdop><vdop>2.5</vdop><extensions><gom:speed>0.126</gom:speed></extensions></trkpt>
   <trkpt lat="59.3274852701" lon="34.6993289549"><ele>164.03</ele><time>2026-08-17T04:01:30.266Z</time><hdop>3.0</hdop><vdop>2.5</vdop><extensions><gom:speed>0.144</gom:speed></extensions></trkpt>
   <trkpt lat="59.32748439" lon="34.6993328944"><ele>163.907</ele><time>2026-08-17T04:01:31.227Z</time><hdop>3.0</hdop><vdop>2.5</vdop><extensions><gom:speed>0.207</gom:speed></extensions></trkpt>
   <trkpt lat="59.3274828813" lon="34.6993388456"><ele>163.778</ele><time>2026-08-17T04:01:32.117Z</time><hdop>3.0</hdop><vdop>2.5</vdop><extensions><gom:speed>0.28</gom:speed></extensions></trkpt>
   <trkpt lat="59.3274828813" lon="34.6993422821"><ele>163.889</ele><time>2026-08-17T04:01:32.652Z</time><hdop>3.0</hdop><vdop>2.5</vdop><extensions><gom:speed>0.323</gom:speed></extensions></trkpt>
   <trkpt lat="59.3274823784" lon="34.6993487362"><ele>163.955</ele><time>2026-08-17T04:01:33.179Z</time><hdop>3.0</hdop><vdop>2.5</vdop><extensions><gom:speed>0.359</gom:speed></extensions></trkpt>
   <trkpt lat="59.3274826717" lon="34.6993535977"><ele>163.746</ele><time>2026-08-17T04:01:33.645Z</time><hdop>3.0</hdop><vdop>2.5</vdop><extensions><gom:speed>0.358</gom:speed></extensions></trkpt>
   <trkpt lat="59.3274836776" lon="34.6993622311"><ele>163.621</ele><time>2026-08-17T04:01:34.586Z</time><hdop>3.0</hdop><vdop>2.5</vdop><extensions><gom:speed>0.419</gom:speed></extensions></trkpt>
   <trkpt lat="59.3274881619" lon="34.6993847784"><ele>163.677</ele><time>2026-08-17T04:01:35.645Z</time><hdop>3.0</hdop><vdop>2.5</vdop><extensions><gom:speed>0.557</gom:speed></extensions></trkpt>
   <trkpt lat="59.3274893773" lon="34.6993938308"><ele>163.752</ele><time>2026-08-17T04:01:36.645Z</time><hdop>3.0</hdop><vdop>2.5</vdop><extensions><gom:speed>0.423</gom:speed></extensions></trkpt>
   <trkpt lat="59.3274890839" lon="34.6994017936"><ele>163.653</ele><time>2026-08-17T04:01:37.645Z</time><hdop>3.0</hdop><vdop>2.5</vdop><extensions><gom:speed>0.349</gom:speed></extensions></trkpt>
   <trkpt lat="59.3274887905" lon="34.6994053979"><ele>163.595</ele><time>2026-08-17T04:01:38.157Z</time><hdop>3.0</hdop><vdop>2.5</vdop><extensions><gom:speed>0.337</gom:speed></extensions></trkpt>
   <trkpt lat="59.327487659" lon="34.6994098403"><ele>163.547</ele><time>2026-08-17T04:01:38.645Z</time><hdop>3.0</hdop><vdop>2.5</vdop><extensions><gom:speed>0.336</gom:speed></extensions></trkpt>
   <trkpt lat="59.3274868627" lon="34.6994129416"><ele>163.518</ele><time>2026-08-17T04:01:39.199Z</time><hdop>3.0</hdop><vdop>2.5</vdop><extensions><gom:speed>0.272</gom:speed></extensions></trkpt>
   <trkpt lat="59.3274865693" lon="34.699413193"><ele>163.618</ele><time>2026-08-17T04:01:39.655Z</time><hdop>3.0</hdop><vdop>2.562</vdop><extensions><gom:speed>0.196</gom:speed></extensions></trkpt>
   <trkpt lat="59.3274839709" lon="34.6994300407"><ele>163.678</ele><time>2026-08-17T04:01:40.646Z</time><hdop>3.0</hdop><vdop>2.562</vdop><extensions><gom:speed>0.333</gom:speed></extensions></trkpt>
   <trkpt lat="59.3274819593" lon="34.6994452957"><ele>163.593</ele><time>2026-08-17T04:01:41.638Z</time><hdop>3.0</hdop><vdop>2.5</vdop><extensions><gom:speed>0.326</gom:speed></extensions></trkpt>
   <trkpt lat="59.3274800733" lon="34.6994561922"><ele>163.542</ele><time>2026-08-17T04:01:42.103Z</time><hdop>3.0</hdop><vdop>2.5</vdop><extensions><gom:speed>0.371</gom:speed></extensions></trkpt>
   <trkpt lat="59.3274776845" lon="34.6994661667"><ele>163.531</ele><time>2026-08-17T04:01:42.645Z</time><hdop>3.0</hdop><vdop>2.5</vdop><extensions><gom:speed>0.299</gom:speed></extensions></trkpt>
   <trkpt lat="59.3274752957" lon="34.699475722"><ele>163.521</ele><time>2026-08-17T04:01:43.645Z</time><hdop>3.0</hdop><vdop>2.5</vdop><extensions><gom:speed>0.212</gom:speed></extensions></trkpt>
   <trkpt lat="59.3274751699" lon="34.6994792424"><ele>163.513</ele><time>2026-08-17T04:01:44.652Z</time><hdop>3.0</hdop><vdop>2.5</vdop><extensions><gom:speed>0.094</gom:speed></extensions></trkpt>
   <trkpt lat="59.3274735774" lon="34.6994848583"><ele>163.506</ele><time>2026-08-17T04:01:45.645Z</time><hdop>3.0</hdop><vdop>2.5</vdop><extensions><gom:speed>0.108</gom:speed></extensions></trkpt>
   <trkpt lat="59.3274727811" lon="34.699485445"><ele>163.309</ele><time>2026-08-17T04:01:46.652Z</time><hdop>3.0</hdop><vdop>2.5</vdop><extensions><gom:speed>0.045</gom:speed></extensions></trkpt>
   <trkpt lat="59.3274726973" lon="34.6994872891"><ele>163.073</ele><time>2026-08-17T04:01:47.647Z</time><hdop>3.0</hdop><vdop>2.5</vdop><extensions><gom:speed>0.116</gom:speed></extensions></trkpt>
   <trkpt lat="59.3274734936" lon="34.6994897198"><ele>162.96</ele><time>2026-08-17T04:01:48.645Z</time><hdop>3.0</hdop><vdop>2.5</vdop><extensions><gom:speed>0.104</gom:speed></extensions></trkpt>
   <trkpt lat="59.3274733678" lon="34.6994917315"><ele>162.892</ele><time>2026-08-17T04:01:49.671Z</time><hdop>3.0</hdop><vdop>2.5</vdop><extensions><gom:speed>0.03</gom:speed></extensions></trkpt>
   <trkpt lat="59.3274736612" lon="34.6994916477"><ele>162.851</ele><time>2026-08-17T04:01:50.379Z</time><hdop>3.0</hdop><vdop>2.5</vdop><extensions><gom:speed>0.04</gom:speed></extensions></trkpt>
   <trkpt lat="59.3274745832" lon="34.6994928211"><ele>162.83</ele><time>2026-08-17T04:01:51.652Z</time><hdop>3.0</hdop><vdop>2.5</vdop><extensions><gom:speed>0.047</gom:speed></extensions></trkpt>
   <trkpt lat="59.3274760919" lon="34.6994938269"><ele>162.816</ele><time>2026-08-17T04:01:52.645Z</time><hdop>3.0</hdop><vdop>2.5</vdop><extensions><gom:speed>0.107</gom:speed></extensions></trkpt>
   <trkpt lat="59.3274773911" lon="34.6994941622"><ele>162.809</ele><time>2026-08-17T04:01:53.645Z</time><hdop>3.0</hdop><vdop>2.5</vdop><extensions><gom:speed>0.108</gom:speed></extensions></trkpt>
   <trkpt lat="59.3274779779" lon="34.6994941622"><ele>162.803</ele><time>2026-08-17T04:01:54.645Z</time><hdop>3.0</hdop><vdop>2.562</vdop><extensions><gom:speed>0.098</gom:speed></extensions></trkpt>
   <trkpt lat="59.3274791932" lon="34.6994949166"><ele>162.627</ele><time>2026-08-17T04:01:55.645Z</time><hdop>3.0</hdop><vdop>2.5</vdop><extensions><gom:speed>0.09</gom:speed></extensions></trkpt>
   <trkpt lat="59.3274795704" lon="34.6994950842"><ele>162.52</ele><time>2026-08-17T04:01:56.651Z</time><hdop>3.0</hdop><vdop>2.5</vdop><extensions><gom:speed>0.104</gom:speed></extensions></trkpt>
   <trkpt lat="59.3274802829" lon="34.699496593"><ele>162.458</ele><time>2026-08-17T04:01:57.645Z</time><hdop>3.0</hdop><vdop>2.5</vdop><extensions><gom:speed>0.078</gom:speed></extensions></trkpt>
   <trkpt lat="59.3274801991" lon="34.6994962577"><ele>162.423</ele><time>2026-08-17T04:01:58.652Z</time><hdop>3.0</hdop><vdop>2.5</vdop><extensions><gom:speed>0.029</gom:speed></extensions></trkpt>
   <trkpt lat="59.3274807858" lon="34.6994961739"><ele>162.401</ele><time>2026-08-17T04:01:59.645Z</time><hdop>3.0</hdop><vdop>2.5</vdop><extensions><gom:speed>0.096</gom:speed></extensions></trkpt>
   <trkpt lat="59.3274808696" lon="34.6994964253"><ele>162.192</ele><time>2026-08-17T04:02:00.652Z</time><hdop>3.0</hdop><vdop>2.5</vdop><extensions><gom:speed>0.054</gom:speed></extensions></trkpt>
   <trkpt lat="59.3274806601" lon="34.6994958386"><ele>162.066</ele><time>2026-08-17T04:02:01.609Z</time><hdop>3.0</hdop><vdop>2.5</vdop><extensions><gom:speed>0.063</gom:speed></extensions></trkpt>
   <trkpt lat="59.3274800733" lon="34.6994939946"><ele>161.987</ele><time>2026-08-17T04:02:02.653Z</time><hdop>3.0</hdop><vdop>2.5</vdop><extensions><gom:speed>0.042</gom:speed></extensions></trkpt>
   <trkpt lat="59.3274793609" lon="34.6994920667"><ele>161.937</ele><time>2026-08-17T04:02:03.652Z</time><hdop>3.0</hdop><vdop>2.5</vdop><extensions><gom:speed>0.123</gom:speed></extensions></trkpt>
   <trkpt lat="59.3274790675" lon="34.6994912286"><ele>161.904</ele><time>2026-08-17T04:02:04.645Z</time><hdop>3.0</hdop><vdop>2.5</vdop><extensions><gom:speed>0.002</gom:speed></extensions></trkpt>
   <trkpt lat="59.3274791932" lon="34.6994911447"><ele>161.879</ele><time>2026-08-17T04:02:05.656Z</time><hdop>3.0</hdop><vdop>2.5</vdop><extensions><gom:speed>0.015</gom:speed></extensions></trkpt>
   <trkpt lat="59.3274791932" lon="34.6994909771"><ele>161.863</ele><time>2026-08-17T04:02:06.646Z</time><hdop>3.0</hdop><vdop>2.5</vdop><extensions><gom:speed>0.035</gom:speed></extensions></trkpt>
   <trkpt lat="59.3274787742" lon="34.6994913962"><ele>161.856</ele><time>2026-08-17T04:02:07.645Z</time><hdop>3.0</hdop><vdop>2.5</vdop><extensions><gom:speed>0.043</gom:speed></extensions></trkpt>
   <trkpt lat="59.3274786903" lon="34.6994918991"><ele>161.851</ele><time>2026-08-17T04:02:08.645Z</time><hdop>3.0</hdop><vdop>2.5</vdop><extensions><gom:speed>0.048</gom:speed></extensions></trkpt>
   <trkpt lat="59.3274787742" lon="34.6994925697"><ele>161.845</ele><time>2026-08-17T04:02:09.645Z</time><hdop>3.0</hdop><vdop>2.5</vdop><extensions><gom:speed>0.055</gom:speed></extensions></trkpt>
   <trkpt lat="59.3274789837" lon="34.6994932402"><ele>161.839</ele><time>2026-08-17T04:02:10.645Z</time><hdop>3.0</hdop><vdop>2.5</vdop><extensions><gom:speed>0.059</gom:speed></extensions></trkpt>
   <trkpt lat="59.3274791932" lon="34.6994939946"><ele>161.834</ele><time>2026-08-17T04:02:11.645Z</time><hdop>3.0</hdop><vdop>2.5</vdop><extensions><gom:speed>0.063</gom:speed></extensions></trkpt>
   <trkpt lat="59.3274793609" lon="34.699494749"><ele>161.831</ele><time>2026-08-17T04:02:12.652Z</time><hdop>3.0</hdop><vdop>2.5</vdop><extensions><gom:speed>0.063</gom:speed></extensions></trkpt>
   <trkpt lat="59.3274795704" lon="34.6994955871"><ele>161.831</ele><time>2026-08-17T04:02:13.649Z</time><hdop>3.0</hdop><vdop>2.5</vdop><extensions><gom:speed>0.07</gom:speed></extensions></trkpt>
   <trkpt lat="59.32747978" lon="34.6994962577"><ele>161.832</ele><time>2026-08-17T04:02:14.645Z</time><hdop>3.0</hdop><vdop>2.5</vdop><extensions><gom:speed>0.076</gom:speed></extensions></trkpt>
   <trkpt lat="59.3274799895" lon="34.6994970959"><ele>161.832</ele><time>2026-08-17T04:02:15.645Z</time><hdop>3.0</hdop><vdop>2.5</vdop><extensions><gom:speed>0.078</gom:speed></extensions></trkpt>
   <trkpt lat="59.3274799895" lon="34.6994978503"><ele>161.831</ele><time>2026-08-17T04:02:16.645Z</time><hdop>3.0</hdop><vdop>2.5</vdop><extensions><gom:speed>0.079</gom:speed></extensions></trkpt>
   <trkpt lat="59.3274800733" lon="34.6994985208"><ele>161.83</ele><time>2026-08-17T04:02:17.645Z</time><hdop>3.0</hdop><vdop>2.5</vdop><extensions><gom:speed>0.082</gom:speed></extensions></trkpt>
   <trkpt lat="59.3274801991" lon="34.6994986884"><ele>161.829</ele><time>2026-08-17T04:02:18.203Z</time><hdop>3.0</hdop><vdop>2.5</vdop><extensions><gom:speed>0.082</gom:speed></extensions></trkpt>
   <trkpt lat="59.3274803667" lon="34.6995000296"><ele>161.825</ele><time>2026-08-17T04:02:19.652Z</time><hdop>3.0</hdop><vdop>2.5</vdop><extensions><gom:speed>0.084</gom:speed></extensions></trkpt>
   <trkpt lat="59.3274804924" lon="34.6995003648"><ele>161.823</ele><time>2026-08-17T04:02:20.645Z</time><hdop>3.0</hdop><vdop>2.5</vdop><extensions><gom:speed>0.088</gom:speed></extensions></trkpt>
   <trkpt lat="59.3274804924" lon="34.6995012868"><ele>161.82</ele><time>2026-08-17T04:02:21.645Z</time><hdop>3.0</hdop><vdop>2.5</vdop><extensions><gom:speed>0.092</gom:speed></extensions></trkpt>
   <trkpt lat="59.3274805763" lon="34.6995018736"><ele>161.817</ele><time>2026-08-17T04:02:22.645Z</time><hdop>3.0</hdop><vdop>2.5</vdop><extensions><gom:speed>0.092</gom:speed></extensions></trkpt>
   <trkpt lat="59.3274806601" lon="34.6995022927"><ele>161.813</ele><time>2026-08-17T04:02:23.645Z</time><hdop>3.0</hdop><vdop>2.5</vdop><extensions><gom:speed>0.097</gom:speed></extensions></trkpt>
   <trkpt lat="59.3274807858" lon="34.6995027956"><ele>161.81</ele><time>2026-08-17T04:02:24.645Z</time><hdop>3.0</hdop><vdop>2.5</vdop><extensions><gom:speed>0.099</gom:speed></extensions></trkpt>
   <trkpt lat="59.3274807858" lon="34.6995028794"><ele>161.807</ele><time>2026-08-17T04:02:25.645Z</time><hdop>3.0</hdop><vdop>2.5</vdop><extensions><gom:speed>0.103</gom:speed></extensions></trkpt>
   <trkpt lat="59.3274807858" lon="34.6995031309"><ele>161.806</ele><time>2026-08-17T04:02:26.645Z</time><hdop>3.0</hdop><vdop>2.5</vdop><extensions><gom:speed>0.104</gom:speed></extensions></trkpt>
   <trkpt lat="59.3274809954" lon="34.6995034661"><ele>161.806</ele><time>2026-08-17T04:02:27.645Z</time><hdop>3.062</hdop><vdop>2.5</vdop><extensions><gom:speed>0.104</gom:speed></extensions></trkpt>
   <trkpt lat="59.3274810792" lon="34.6995040529"><ele>161.809</ele><time>2026-08-17T04:02:28.653Z</time><hdop>3.125</hdop><vdop>2.5</vdop><extensions><gom:speed>0.104</gom:speed></extensions></trkpt>
   <trkpt lat="59.3274810792" lon="34.6995038852"><ele>161.811</ele><time>2026-08-17T04:02:29.331Z</time><hdop>3.187</hdop><vdop>2.5</vdop><extensions><gom:speed>0.103</gom:speed></extensions></trkpt>
   <trkpt lat="59.3274812887" lon="34.699504472"><ele>161.809</ele><time>2026-08-17T04:02:30.647Z</time><hdop>3.312</hdop><vdop>2.5</vdop><extensions><gom:speed>0.105</gom:speed></extensions></trkpt>
   <trkpt lat="59.3274813725" lon="34.6995040529"><ele>161.808</ele><time>2026-08-17T04:02:31.645Z</time><hdop>3.312</hdop><vdop>2.5</vdop><extensions><gom:speed>0.106</gom:speed></extensions></trkpt>
   <trkpt lat="59.3274816659" lon="34.6995038852"><ele>161.809</ele><time>2026-08-17T04:02:32.645Z</time><hdop>3.437</hdop><vdop>2.5</vdop><extensions><gom:speed>0.109</gom:speed></extensions></trkpt>
   <trkpt lat="59.3274819593" lon="34.6995036338"><ele>161.81</ele><time>2026-08-17T04:02:33.645Z</time><hdop>3.437</hdop><vdop>2.5</vdop><extensions><gom:speed>0.108</gom:speed></extensions></trkpt>
   <trkpt lat="59.3274821688" lon="34.699503969"><ele>161.816</ele><time>2026-08-17T04:02:34.652Z</time><hdop>3.5</hdop><vdop>2.5</vdop><extensions><gom:speed>0.109</gom:speed></extensions></trkpt>
   <trkpt lat="59.3274824622" lon="34.6995034661"><ele>161.824</ele><time>2026-08-17T04:02:35.644Z</time><hdop>3.562</hdop><vdop>2.5</vdop><extensions><gom:speed>0.11</gom:speed></extensions></trkpt>
   <trkpt lat="59.3274824622" lon="34.6995029632"><ele>161.834</ele><time>2026-08-17T04:02:36.645Z</time><hdop>3.562</hdop><vdop>2.5</vdop><extensions><gom:speed>0.114</gom:speed></extensions></trkpt>
   <trkpt lat="59.3274825879" lon="34.6995029632"><ele>161.845</ele><time>2026-08-17T04:02:37.645Z</time><hdop>3.625</hdop><vdop>2.5</vdop><extensions><gom:speed>0.112</gom:speed></extensions></trkpt>
   <trkpt lat="59.3274826717" lon="34.6995033823"><ele>161.854</ele><time>2026-08-17T04:02:38.653Z</time><hdop>3.687</hdop><vdop>2.5</vdop><extensions><gom:speed>0.113</gom:speed></extensions></trkpt>
   <trkpt lat="59.3274827975" lon="34.6995033823"><ele>161.864</ele><time>2026-08-17T04:02:39.651Z</time><hdop>3.75</hdop><vdop>2.5</vdop><extensions><gom:speed>0.112</gom:speed></extensions></trkpt>
   <trkpt lat="59.3274826717" lon="34.6995031309"><ele>161.87</ele><time>2026-08-17T04:02:40.562Z</time><hdop>3.812</hdop><vdop>2.5</vdop><extensions><gom:speed>0.111</gom:speed></extensions></trkpt>
   <trkpt lat="59.3274829651" lon="34.6995031309"><ele>161.877</ele><time>2026-08-17T04:02:41.652Z</time><hdop>3.937</hdop><vdop>2.5</vdop><extensions><gom:speed>0.108</gom:speed></extensions></trkpt>
   <trkpt lat="59.3274829651" lon="34.6995026279"><ele>161.882</ele><time>2026-08-17T04:02:42.645Z</time><hdop>3.937</hdop><vdop>2.5</vdop><extensions><gom:speed>0.109</gom:speed></extensions></trkpt>
   <trkpt lat="59.3274830908" lon="34.6995022927"><ele>161.886</ele><time>2026-08-17T04:02:43.645Z</time><hdop>4.0</hdop><vdop>2.562</vdop><extensions><gom:speed>0.108</gom:speed></extensions></trkpt>
   <trkpt lat="59.3274831747" lon="34.6995019574"><ele>161.89</ele><time>2026-08-17T04:02:44.644Z</time><hdop>4.0</hdop><vdop>2.625</vdop><extensions><gom:speed>0.107</gom:speed></extensions></trkpt>
   <trkpt lat="59.3274833842" lon="34.6995014545"><ele>161.894</ele><time>2026-08-17T04:02:45.645Z</time><hdop>4.062</hdop><vdop>2.625</vdop><extensions><gom:speed>0.103</gom:speed></extensions></trkpt>
   <trkpt lat="59.3274832585" lon="34.6995013707"><ele>161.896</ele><time>2026-08-17T04:02:46.126Z</time><hdop>4.062</hdop><vdop>2.625</vdop><extensions><gom:speed>0.103</gom:speed></extensions></trkpt>
   <trkpt lat="59.3274835937" lon="34.6995013707"><ele>161.9</ele><time>2026-08-17T04:02:46.652Z</time><hdop>4.125</hdop><vdop>2.687</vdop><extensions><gom:speed>0.103</gom:speed></extensions></trkpt>
   <trkpt lat="59.3274833842" lon="34.6995003648"><ele>161.906</ele><time>2026-08-17T04:02:47.645Z</time><hdop>4.125</hdop><vdop>2.687</vdop><extensions><gom:speed>0.104</gom:speed></extensions></trkpt>
   <trkpt lat="59.3274833842" lon="34.6995000296"><ele>161.911</ele><time>2026-08-17T04:02:48.656Z</time><hdop>4.187</hdop><vdop>2.687</vdop><extensions><gom:speed>0.105</gom:speed></extensions></trkpt>
   <trkpt lat="59.3274833842" lon="34.699499359"><ele>161.916</ele><time>2026-08-17T04:02:49.646Z</time><hdop>4.25</hdop><vdop>2.75</vdop><extensions><gom:speed>0.103</gom:speed></extensions></trkpt>
   <trkpt lat="59.327483468" lon="34.6994987723"><ele>161.919</ele><time>2026-08-17T04:02:50.644Z</time><hdop>4.25</hdop><vdop>2.687</vdop><extensions><gom:speed>0.103</gom:speed></extensions></trkpt>
   <trkpt lat="59.327483468" lon="34.6994982694"><ele>161.927</ele><time>2026-08-17T04:02:51.645Z</time><hdop>4.25</hdop><vdop>2.687</vdop><extensions><gom:speed>0.104</gom:speed></extensions></trkpt>
   <trkpt lat="59.3274833842" lon="34.6994981855"><ele>161.932</ele><time>2026-08-17T04:02:52.298Z</time><hdop>4.312</hdop><vdop>2.687</vdop><extensions><gom:speed>0.105</gom:speed></extensions></trkpt>
   <trkpt lat="59.3274835937" lon="34.6994973473"><ele>161.936</ele><time>2026-08-17T04:02:53.645Z</time><hdop>4.25</hdop><vdop>2.687</vdop><extensions><gom:speed>0.106</gom:speed></extensions></trkpt>
   <trkpt lat="59.3274835937" lon="34.6994970959"><ele>161.938</ele><time>2026-08-17T04:02:54.645Z</time><hdop>4.312</hdop><vdop>2.75</vdop><extensions><gom:speed>0.107</gom:speed></extensions></trkpt>
   <trkpt lat="59.3274836776" lon="34.6994971797"><ele>161.94</ele><time>2026-08-17T04:02:55.652Z</time><hdop>4.312</hdop><vdop>2.75</vdop><extensions><gom:speed>0.108</gom:speed></extensions></trkpt>
   <trkpt lat="59.3274836776" lon="34.6994971797"><ele>161.941</ele><time>2026-08-17T04:02:56.649Z</time><hdop>4.375</hdop><vdop>2.75</vdop><extensions><gom:speed>0.109</gom:speed></extensions></trkpt>
   <trkpt lat="59.3274836776" lon="34.6994968444"><ele>161.942</ele><time>2026-08-17T04:02:57.499Z</time><hdop>4.375</hdop><vdop>2.75</vdop><extensions><gom:speed>0.108</gom:speed></extensions></trkpt>
   <trkpt lat="59.3274833842" lon="34.6994970959"><ele>161.943</ele><time>2026-08-17T04:02:58.227Z</time><hdop>4.375</hdop><vdop>2.812</vdop><extensions><gom:speed>0.188</gom:speed></extensions></trkpt>
   <trkpt lat="59.3274829651" lon="34.6994971797"><ele>161.943</ele><time>2026-08-17T04:02:59.644Z</time><hdop>4.375</hdop><vdop>2.75</vdop><extensions><gom:speed>0.171</gom:speed></extensions></trkpt>
   <trkpt lat="59.3274830908" lon="34.6994973473"><ele>161.944</ele><time>2026-08-17T04:03:00.652Z</time><hdop>4.375</hdop><vdop>2.687</vdop><extensions><gom:speed>0.171</gom:speed></extensions></trkpt>
   <trkpt lat="59.3274827975" lon="34.6994973473"><ele>161.946</ele><time>2026-08-17T04:03:01.645Z</time><hdop>4.375</hdop><vdop>2.562</vdop><extensions><gom:speed>0.154</gom:speed></extensions></trkpt>
   <trkpt lat="59.3274825879" lon="34.6994974312"><ele>161.947</ele><time>2026-08-17T04:03:02.646Z</time><hdop>4.375</hdop><vdop>2.5</vdop><extensions><gom:speed>0.147</gom:speed></extensions></trkpt>
   <trkpt lat="59.3274824622" lon="34.6994970959"><ele>161.948</ele><time>2026-08-17T04:03:03.428Z</time><hdop>4.437</hdop><vdop>2.5</vdop><extensions><gom:speed>0.147</gom:speed></extensions></trkpt>
   <trkpt lat="59.327482085" lon="34.6994974312"><ele>161.949</ele><time>2026-08-17T04:03:04.644Z</time><hdop>4.437</hdop><vdop>2.5</vdop><extensions><gom:speed>0.135</gom:speed></extensions></trkpt>
   <trkpt lat="59.3274819593" lon="34.6994976826"><ele>161.95</ele><time>2026-08-17T04:03:05.653Z</time><hdop>4.437</hdop><vdop>2.5</vdop><extensions><gom:speed>0.135</gom:speed></extensions></trkpt>
   <trkpt lat="59.3274813725" lon="34.6994967606"><ele>161.951</ele><time>2026-08-17T04:03:06.645Z</time><hdop>4.375</hdop><vdop>2.5</vdop><extensions><gom:speed>0.124</gom:speed></extensions></trkpt>
   <trkpt lat="59.3274807858" lon="34.6994949166"><ele>161.951</ele><time>2026-08-17T04:03:07.644Z</time><hdop>4.25</hdop><vdop>2.5</vdop><extensions><gom:speed>0.1</gom:speed></extensions></trkpt>
   <trkpt lat="59.3274802829" lon="34.6994926535"><ele>161.952</ele><time>2026-08-17T04:03:08.645Z</time><hdop>4.0</hdop><vdop>2.5</vdop><extensions><gom:speed>0.09</gom:speed></extensions></trkpt>
   <trkpt lat="59.3274798638" lon="34.6994917315"><ele>161.952</ele><time>2026-08-17T04:03:09.652Z</time><hdop>3.75</hdop><vdop>2.5</vdop><extensions><gom:speed>0.093</gom:speed></extensions></trkpt>
   <trkpt lat="59.3274795704" lon="34.6994906418"><ele>161.951</ele><time>2026-08-17T04:03:10.645Z</time><hdop>3.625</hdop><vdop>2.5</vdop><extensions><gom:speed>0.08</gom:speed></extensions></trkpt>
   <trkpt lat="59.3274792771" lon="34.6994892169"><ele>161.951</ele><time>2026-08-17T04:03:11.645Z</time><hdop>3.25</hdop><vdop>2.5</vdop><extensions><gom:speed>0.082</gom:speed></extensions></trkpt>
   <trkpt lat="59.3274790675" lon="34.6994887978"><ele>161.948</ele><time>2026-08-17T04:03:12.652Z</time><hdop>3.125</hdop><vdop>2.5</vdop><extensions><gom:speed>0.083</gom:speed></extensions></trkpt>
   <trkpt lat="59.3274790675" lon="34.6994882949"><ele>161.945</ele><time>2026-08-17T04:03:13.646Z</time><hdop>3.062</hdop><vdop>2.5</vdop><extensions><gom:speed>0.08</gom:speed></extensions></trkpt>
   <trkpt lat="59.3274789837" lon="34.6994880434"><ele>161.943</ele><time>2026-08-17T04:03:14.557Z</time><hdop>3.062</hdop><vdop>2.5</vdop><extensions><gom:speed>0.08</gom:speed></extensions></trkpt>
   <trkpt lat="59.3274784808" lon="34.6994863671"><ele>161.94</ele><time>2026-08-17T04:03:15.644Z</time><hdop>3.0</hdop><vdop>2.5</vdop><extensions><gom:speed>0.079</gom:speed></extensions></trkpt>
   <trkpt lat="59.3274782712" lon="34.6994857803"><ele>161.936</ele><time>2026-08-17T04:03:16.645Z</time><hdop>3.0</hdop><vdop>2.5</vdop><extensions><gom:speed>0.076</gom:speed></extensions></trkpt>
   <trkpt lat="59.3274781874" lon="34.6994853612"><ele>161.933</ele><time>2026-08-17T04:03:17.652Z</time><hdop>3.0</hdop><vdop>2.5</vdop><extensions><gom:speed>0.076</gom:speed></extensions></trkpt>
   <trkpt lat="59.3274778941" lon="34.6994847745"><ele>161.929</ele><time>2026-08-17T04:03:18.645Z</time><hdop>3.0</hdop><vdop>2.5</vdop><extensions><gom:speed>0.073</gom:speed></extensions></trkpt>
   <trkpt lat="59.3274777683" lon="34.6994843554"><ele>161.926</ele><time>2026-08-17T04:03:19.644Z</time><hdop>3.0</hdop><vdop>2.5</vdop><extensions><gom:speed>0.071</gom:speed></extensions></trkpt>
   <trkpt lat="59.3274777683" lon="34.6994844392"><ele>161.923</ele><time>2026-08-17T04:03:20.121Z</time><hdop>3.0</hdop><vdop>2.5</vdop><extensions><gom:speed>0.071</gom:speed></extensions></trkpt>
   <trkpt lat="59.3274775588" lon="34.6994838525"><ele>161.921</ele><time>2026-08-17T04:03:20.645Z</time><hdop>3.0</hdop><vdop>2.5</vdop><extensions><gom:speed>0.071</gom:speed></extensions></trkpt>
   <trkpt lat="59.3274775588" lon="34.6994836848"><ele>161.919</ele><time>2026-08-17T04:03:21.645Z</time><hdop>3.0</hdop><vdop>2.5</vdop><extensions><gom:speed>0.072</gom:speed></extensions></trkpt>
   <trkpt lat="59.327477475" lon="34.6994834334"><ele>161.917</ele><time>2026-08-17T04:03:22.651Z</time><hdop>3.0</hdop><vdop>2.5</vdop><extensions><gom:speed>0.072</gom:speed></extensions></trkpt>
   <trkpt lat="59.327477475" lon="34.6994836848"><ele>161.914</ele><time>2026-08-17T04:03:23.644Z</time><hdop>3.0</hdop><vdop>2.5</vdop><extensions><gom:speed>0.071</gom:speed></extensions></trkpt>
   <trkpt lat="59.3274773911" lon="34.6994834334"><ele>161.911</ele><time>2026-08-17T04:03:24.645Z</time><hdop>3.0</hdop><vdop>2.5</vdop><extensions><gom:speed>0.071</gom:speed></extensions></trkpt>
   <trkpt lat="59.3274772654" lon="34.6994832657"><ele>161.908</ele><time>2026-08-17T04:03:25.645Z</time><hdop>3.0</hdop><vdop>2.5</vdop><extensions><gom:speed>0.071</gom:speed></extensions></trkpt>
   <trkpt lat="59.3274771816" lon="34.6994830981"><ele>161.906</ele><time>2026-08-17T04:03:26.644Z</time><hdop>3.0</hdop><vdop>2.5</vdop><extensions><gom:speed>0.072</gom:speed></extensions></trkpt>
   <trkpt lat="59.3274771816" lon="34.6994831819"><ele>161.905</ele><time>2026-08-17T04:03:27.645Z</time><hdop>3.0</hdop><vdop>2.5</vdop><extensions><gom:speed>0.07</gom:speed></extensions></trkpt>
   <trkpt lat="59.3274770978" lon="34.6994831819"><ele>161.905</ele><time>2026-08-17T04:03:28.645Z</time><hdop>3.0</hdop><vdop>2.5</vdop><extensions><gom:speed>0.072</gom:speed></extensions></trkpt>
   <trkpt lat="59.327476972" lon="34.6994830981"><ele>161.905</ele><time>2026-08-17T04:03:29.645Z</time><hdop>3.0</hdop><vdop>2.5</vdop><extensions><gom:speed>0.071</gom:speed></extensions></trkpt>
   <trkpt lat="59.3274768882" lon="34.6994836848"><ele>161.905</ele><time>2026-08-17T04:03:30.645Z</time><hdop>3.0</hdop><vdop>2.5</vdop><extensions><gom:speed>0.072</gom:speed></extensions></trkpt>
   <trkpt lat="59.327476972" lon="34.6994838525"><ele>161.906</ele><time>2026-08-17T04:03:31.352Z</time><hdop>3.0</hdop><vdop>2.5</vdop><extensions><gom:speed>0.072</gom:speed></extensions></trkpt>
   <trkpt lat="59.3274766787" lon="34.6994834334"><ele>161.908</ele><time>2026-08-17T04:03:32.645Z</time><hdop>3.0</hdop><vdop>2.5</vdop><extensions><gom:speed>0.07</gom:speed></extensions></trkpt>
   <trkpt lat="59.3274765949" lon="34.6994832657"><ele>161.953</ele><time>2026-08-17T04:03:33.652Z</time><hdop>3.0</hdop><vdop>2.5</vdop><extensions><gom:speed>0.07</gom:speed></extensions></trkpt>
   <trkpt lat="59.3274764691" lon="34.6994827628"><ele>161.937</ele><time>2026-08-17T04:03:34.645Z</time><hdop>3.0</hdop><vdop>2.5</vdop><extensions><gom:speed>0.13</gom:speed></extensions></trkpt>
   <trkpt lat="59.3274765949" lon="34.6994822599"><ele>161.971</ele><time>2026-08-17T04:03:35.645Z</time><hdop>3.0</hdop><vdop>2.5</vdop><extensions><gom:speed>0.111</gom:speed></extensions></trkpt>
   <trkpt lat="59.3274767625" lon="34.6994821761"><ele>161.944</ele><time>2026-08-17T04:03:36.644Z</time><hdop>3.0</hdop><vdop>2.5</vdop><extensions><gom:speed>0.095</gom:speed></extensions></trkpt>
   <trkpt lat="59.3274771816" lon="34.6994820923"><ele>161.929</ele><time>2026-08-17T04:03:37.645Z</time><hdop>3.0</hdop><vdop>2.5</vdop><extensions><gom:speed>0.087</gom:speed></extensions></trkpt>
   <trkpt lat="59.3274776845" lon="34.6994820923"><ele>161.92</ele><time>2026-08-17T04:03:38.644Z</time><hdop>3.0</hdop><vdop>2.5</vdop><extensions><gom:speed>0.081</gom:speed></extensions></trkpt>
   <trkpt lat="59.3274777683" lon="34.6994819246"><ele>161.915</ele><time>2026-08-17T04:03:39.648Z</time><hdop>3.0</hdop><vdop>2.5</vdop><extensions><gom:speed>0.079</gom:speed></extensions></trkpt>
   <trkpt lat="59.3274782712" lon="34.6994830981"><ele>161.913</ele><time>2026-08-17T04:03:40.645Z</time><hdop>3.0</hdop><vdop>2.5</vdop><extensions><gom:speed>0.072</gom:speed></extensions></trkpt>
   <trkpt lat="59.3274786903" lon="34.6994834334"><ele>161.911</ele><time>2026-08-17T04:03:41.645Z</time><hdop>3.0</hdop><vdop>2.5</vdop><extensions><gom:speed>0.069</gom:speed></extensions></trkpt>
   <trkpt lat="59.3274786903" lon="34.6994833496"><ele>161.91</ele><time>2026-08-17T04:03:42.481Z</time><hdop>3.0</hdop><vdop>2.5</vdop><extensions><gom:speed>0.069</gom:speed></extensions></trkpt>
   <trkpt lat="59.3274792771" lon="34.6994835172"><ele>161.911</ele><time>2026-08-17T04:03:43.645Z</time><hdop>3.0</hdop><vdop>2.5</vdop><extensions><gom:speed>0.066</gom:speed></extensions></trkpt>
   <trkpt lat="59.3274794866" lon="34.6994836848"><ele>161.912</ele><time>2026-08-17T04:03:44.645Z</time><hdop>3.0</hdop><vdop>2.5</vdop><extensions><gom:speed>0.067</gom:speed></extensions></trkpt>
   <trkpt lat="59.3274795704" lon="34.6994835172"><ele>161.916</ele><time>2026-08-17T04:03:45.652Z</time><hdop>3.0</hdop><vdop>2.5</vdop><extensions><gom:speed>0.067</gom:speed></extensions></trkpt>
   <trkpt lat="59.3274799895" lon="34.6994838525"><ele>161.919</ele><time>2026-08-17T04:03:46.644Z</time><hdop>3.0</hdop><vdop>2.5</vdop><extensions><gom:speed>0.067</gom:speed></extensions></trkpt>
   <trkpt lat="59.3274803667" lon="34.6994840201"><ele>161.921</ele><time>2026-08-17T04:03:47.645Z</time><hdop>3.0</hdop><vdop>2.5</vdop><extensions><gom:speed>0.066</gom:speed></extensions></trkpt>
   <trkpt lat="59.3274805763" lon="34.6994838525"><ele>161.922</ele><time>2026-08-17T04:03:48.653Z</time><hdop>3.0</hdop><vdop>2.5</vdop><extensions><gom:speed>0.069</gom:speed></extensions></trkpt>
   <trkpt lat="59.3274806601" lon="34.6994840201"><ele>161.923</ele><time>2026-08-17T04:03:49.442Z</time><hdop>3.0</hdop><vdop>2.5</vdop><extensions><gom:speed>0.067</gom:speed></extensions></trkpt>
   <trkpt lat="59.3274807858" lon="34.6994844392"><ele>161.924</ele><time>2026-08-17T04:03:50.160Z</time><hdop>3.0</hdop><vdop>2.5</vdop><extensions><gom:speed>0.107</gom:speed></extensions></trkpt>
   <trkpt lat="59.3274807858" lon="34.6994849421"><ele>161.919</ele><time>2026-08-17T04:03:50.645Z</time><hdop>3.0</hdop><vdop>2.5</vdop><extensions><gom:speed>0.475</gom:speed></extensions></trkpt>
   <trkpt lat="59.3274816659" lon="34.6994888816"><ele>161.777</ele><time>2026-08-17T04:03:51.645Z</time><hdop>3.0</hdop><vdop>2.5</vdop><extensions><gom:speed>0.412</gom:speed></extensions></trkpt>
   <trkpt lat="59.3274825879" lon="34.6994885463"><ele>161.693</ele><time>2026-08-17T04:03:52.517Z</time><hdop>3.0</hdop><vdop>2.5</vdop><extensions><gom:speed>0.362</gom:speed></extensions></trkpt>
   <trkpt lat="59.3274827975" lon="34.6994972635"><ele>161.564</ele><time>2026-08-17T04:03:53.327Z</time><hdop>3.062</hdop><vdop>2.5</vdop><extensions><gom:speed>0.345</gom:speed></extensions></trkpt>
   <trkpt lat="59.3274827975" lon="34.6995240856"><ele>161.578</ele><time>2026-08-17T04:03:54.237Z</time><hdop>3.125</hdop><vdop>2.5</vdop><extensions><gom:speed>0.529</gom:speed></extensions></trkpt>
   <trkpt lat="59.3274831747" lon="34.6995300368"><ele>161.175</ele><time>2026-08-17T04:03:54.865Z</time><hdop>3.125</hdop><vdop>2.5</vdop><extensions><gom:speed>0.441</gom:speed></extensions></trkpt>
   <trkpt lat="59.3274855635" lon="34.6995332219"><ele>160.466</ele><time>2026-08-17T04:03:55.652Z</time><hdop>3.187</hdop><vdop>2.5</vdop><extensions><gom:speed>0.431</gom:speed></extensions></trkpt>
   <trkpt lat="59.3274894611" lon="34.6995338924"><ele>159.828</ele><time>2026-08-17T04:03:56.645Z</time><hdop>3.187</hdop><vdop>2.5</vdop><extensions><gom:speed>0.404</gom:speed></extensions></trkpt>
   <trkpt lat="59.3274929815" lon="34.6995355688"><ele>159.446</ele><time>2026-08-17T04:03:57.283Z</time><hdop>3.187</hdop><vdop>2.5</vdop><extensions><gom:speed>0.389</gom:speed></extensions></trkpt>
   <trkpt lat="59.3274990584" lon="34.6995377481"><ele>159.059</ele><time>2026-08-17T04:03:58.446Z</time><hdop>3.125</hdop><vdop>2.5</vdop><extensions><gom:speed>0.336</gom:speed></extensions></trkpt>
   <trkpt lat="59.3275037941" lon="34.6995397598"><ele>158.829</ele><time>2026-08-17T04:03:59.175Z</time><hdop>3.062</hdop><vdop>2.5</vdop><extensions><gom:speed>0.31</gom:speed></extensions></trkpt>
   <trkpt lat="59.3275070631" lon="34.6995419391"><ele>158.824</ele><time>2026-08-17T04:03:59.652Z</time><hdop>3.062</hdop><vdop>2.5</vdop><extensions><gom:speed>0.285</gom:speed></extensions></trkpt>
   <trkpt lat="59.3275127628" lon="34.6995451242"><ele>158.82</ele><time>2026-08-17T04:04:00.662Z</time><hdop>3.0</hdop><vdop>2.5</vdop><extensions><gom:speed>0.294</gom:speed></extensions></trkpt>
   <trkpt lat="59.3275216895" lon="34.6995537576"><ele>159.106</ele><time>2026-08-17T04:04:01.482Z</time><hdop>3.0</hdop><vdop>2.625</vdop><extensions><gom:speed>0.481</gom:speed></extensions></trkpt>
   <trkpt lat="59.3275307839" lon="34.6995677553"><ele>159.406</ele><time>2026-08-17T04:04:02.282Z</time><hdop>3.0</hdop><vdop>2.937</vdop><extensions><gom:speed>0.525</gom:speed></extensions></trkpt>
   <trkpt lat="59.327537196" lon="34.6995835971"><ele>159.947</ele><time>2026-08-17T04:04:03.141Z</time><hdop>3.0</hdop><vdop>2.687</vdop><extensions><gom:speed>0.555</gom:speed></extensions></trkpt>
   <trkpt lat="59.3275398782" lon="34.6995914761"><ele>160.457</ele><time>2026-08-17T04:04:03.652Z</time><hdop>3.0</hdop><vdop>2.687</vdop><extensions><gom:speed>0.555</gom:speed></extensions></trkpt>
   <trkpt lat="59.3275426862" lon="34.6996071503"><ele>160.761</ele><time>2026-08-17T04:04:04.264Z</time><hdop>3.0</hdop><vdop>2.687</vdop><extensions><gom:speed>0.625</gom:speed></extensions></trkpt>
   <trkpt lat="59.3275426862" lon="34.6996218186"><ele>161.245</ele><time>2026-08-17T04:04:04.739Z</time><hdop>3.0</hdop><vdop>2.687</vdop><extensions><gom:speed>0.589</gom:speed></extensions></trkpt>
   <trkpt lat="59.3275423928" lon="34.6996329665"><ele>161.534</ele><time>2026-08-17T04:04:05.347Z</time><hdop>3.0</hdop><vdop>2.687</vdop><extensions><gom:speed>0.521</gom:speed></extensions></trkpt>
   <trkpt lat="59.3275390819" lon="34.699642019"><ele>161.62</ele><time>2026-08-17T04:04:06.065Z</time><hdop>3.0</hdop><vdop>2.625</vdop><extensions><gom:speed>0.481</gom:speed></extensions></trkpt>
   <trkpt lat="59.327536274" lon="34.6996529993"><ele>161.623</ele><time>2026-08-17T04:04:06.645Z</time><hdop>3.0</hdop><vdop>2.5</vdop><extensions><gom:speed>0.527</gom:speed></extensions></trkpt>
   <trkpt lat="59.3275343881" lon="34.6996629738"><ele>161.812</ele><time>2026-08-17T04:04:07.652Z</time><hdop>3.0</hdop><vdop>2.5</vdop><extensions><gom:speed>0.405</gom:speed></extensions></trkpt>
   <trkpt lat="59.3275253775" lon="34.6996805757"><ele>161.573</ele><time>2026-08-17T04:04:08.645Z</time><hdop>3.0</hdop><vdop>2.5</vdop><extensions><gom:speed>0.521</gom:speed></extensions></trkpt>
   <trkpt lat="59.3275211866" lon="34.6996911369"><ele>161.429</ele><time>2026-08-17T04:04:09.626Z</time><hdop>3.0</hdop><vdop>2.5</vdop><extensions><gom:speed>0.504</gom:speed></extensions></trkpt>
   <trkpt lat="59.3275168699" lon="34.6996937353"><ele>161.502</ele><time>2026-08-17T04:04:10.305Z</time><hdop>3.0</hdop><vdop>2.5</vdop><extensions><gom:speed>0.498</gom:speed></extensions></trkpt>
   <trkpt lat="59.3275082785" lon="34.6997112535"><ele>161.87</ele><time>2026-08-17T04:04:11.652Z</time><hdop>3.0</hdop><vdop>2.5</vdop><extensions><gom:speed>0.427</gom:speed></extensions></trkpt>
   <trkpt lat="59.3275009862" lon="34.6997248322"><ele>161.942</ele><time>2026-08-17T04:04:12.645Z</time><hdop>3.0</hdop><vdop>2.5</vdop><extensions><gom:speed>0.502</gom:speed></extensions></trkpt>
   <trkpt lat="59.327498765" lon="34.6997340523"><ele>161.986</ele><time>2026-08-17T04:04:13.643Z</time><hdop>3.0</hdop><vdop>2.5</vdop><extensions><gom:speed>0.441</gom:speed></extensions></trkpt>
   <trkpt lat="59.3274965857" lon="34.6997458708"><ele>162.087</ele><time>2026-08-17T04:04:14.523Z</time><hdop>3.0</hdop><vdop>2.5</vdop><extensions><gom:speed>0.59</gom:speed></extensions></trkpt>
   <trkpt lat="59.3274953703" lon="34.699756432"><ele>162.147</ele><time>2026-08-17T04:04:15.302Z</time><hdop>3.0</hdop><vdop>2.5</vdop><extensions><gom:speed>0.568</gom:speed></extensions></trkpt>
   <trkpt lat="59.3274944902" lon="34.6997631375"><ele>161.643</ele><time>2026-08-17T04:04:15.970Z</time><hdop>3.0</hdop><vdop>2.5</vdop><extensions><gom:speed>0.57</gom:speed></extensions></trkpt>
   <trkpt lat="59.3274943645" lon="34.6997753751"><ele>161.609</ele><time>2026-08-17T04:04:16.652Z</time><hdop>3.0</hdop><vdop>2.5</vdop><extensions><gom:speed>0.584</gom:speed></extensions></trkpt>
   <trkpt lat="59.3274917661" lon="34.6997875288"><ele>161.672</ele><time>2026-08-17T04:04:17.645Z</time><hdop>3.0</hdop><vdop>2.5</vdop><extensions><gom:speed>0.61</gom:speed></extensions></trkpt>
   <trkpt lat="59.3274924786" lon="34.69979809"><ele>161.709</ele><time>2026-08-17T04:04:18.621Z</time><hdop>3.0</hdop><vdop>2.5</vdop><extensions><gom:speed>0.548</gom:speed></extensions></trkpt>
   <trkpt lat="59.327493191" lon="34.6998074778"><ele>161.239</ele><time>2026-08-17T04:04:19.645Z</time><hdop>3.0</hdop><vdop>2.5</vdop><extensions><gom:speed>0.504</gom:speed></extensions></trkpt>
   <trkpt lat="59.3274926881" lon="34.6998113334"><ele>160.957</ele><time>2026-08-17T04:04:20.239Z</time><hdop>3.062</hdop><vdop>2.5</vdop><extensions><gom:speed>0.434</gom:speed></extensions></trkpt>
   <trkpt lat="59.3274919756" lon="34.6998145186"><ele>161.186</ele><time>2026-08-17T04:04:20.806Z</time><hdop>3.062</hdop><vdop>2.5</vdop><extensions><gom:speed>0.352</gom:speed></extensions></trkpt>
   <trkpt lat="59.3274915985" lon="34.6998163626"><ele>161.66</ele><time>2026-08-17T04:04:21.652Z</time><hdop>3.125</hdop><vdop>2.5</vdop><extensions><gom:speed>0.246</gom:speed></extensions></trkpt>
   <trkpt lat="59.3274917661" lon="34.6998174522"><ele>161.943</ele><time>2026-08-17T04:04:22.141Z</time><hdop>3.312</hdop><vdop>2.5</vdop><extensions><gom:speed>0.241</gom:speed></extensions></trkpt>
   <trkpt lat="59.3274918918" lon="34.6998206374"><ele>162.618</ele><time>2026-08-17T04:04:22.647Z</time><hdop>3.375</hdop><vdop>2.5</vdop><extensions><gom:speed>0.26</gom:speed></extensions></trkpt>
   <trkpt lat="59.3274919756" lon="34.6998187933"><ele>163.022</ele><time>2026-08-17T04:04:23.103Z</time><hdop>3.437</hdop><vdop>2.5</vdop><extensions><gom:speed>0.176</gom:speed></extensions></trkpt>
   <trkpt lat="59.3274924786" lon="34.6998216432"><ele>164.08</ele><time>2026-08-17T04:04:23.645Z</time><hdop>3.5</hdop><vdop>2.5</vdop><extensions><gom:speed>0.213</gom:speed></extensions></trkpt>
   <trkpt lat="59.3274926881" lon="34.6998279296"><ele>164.934</ele><time>2026-08-17T04:04:24.645Z</time><hdop>3.625</hdop><vdop>2.5</vdop><extensions><gom:speed>0.238</gom:speed></extensions></trkpt>
   <trkpt lat="59.327493191" lon="34.6998342999"><ele>165.412</ele><time>2026-08-17T04:04:25.645Z</time><hdop>3.75</hdop><vdop>2.5</vdop><extensions><gom:speed>0.225</gom:speed></extensions></trkpt>
   <trkpt lat="59.3274936939" lon="34.6998387423"><ele>165.697</ele><time>2026-08-17T04:04:26.583Z</time><hdop>3.812</hdop><vdop>2.5</vdop><extensions><gom:speed>0.264</gom:speed></extensions></trkpt>
   <trkpt lat="59.3274948674" lon="34.6998537459"><ele>166.765</ele><time>2026-08-17T04:04:27.645Z</time><hdop>3.875</hdop><vdop>2.5</vdop><extensions><gom:speed>0.387</gom:speed></extensions></trkpt>
   <trkpt lat="59.3274946998" lon="34.6998610381"><ele>167.731</ele><time>2026-08-17T04:04:28.652Z</time><hdop>3.937</hdop><vdop>2.562</vdop><extensions><gom:speed>0.306</gom:speed></extensions></trkpt>
   <trkpt lat="59.3274926881" lon="34.6998788916"><ele>167.553</ele><time>2026-08-17T04:04:29.646Z</time><hdop>4.0</hdop><vdop>2.625</vdop><extensions><gom:speed>0.39</gom:speed></extensions></trkpt>
   <trkpt lat="59.3274915985" lon="34.699884256"><ele>167.447</ele><time>2026-08-17T04:04:30.165Z</time><hdop>4.0</hdop><vdop>2.625</vdop><extensions><gom:speed>0.316</gom:speed></extensions></trkpt>
   <trkpt lat="59.3274903831" lon="34.6998903748"><ele>167.301</ele><time>2026-08-17T04:04:30.645Z</time><hdop>4.062</hdop><vdop>2.75</vdop><extensions><gom:speed>0.317</gom:speed></extensions></trkpt>
   <trkpt lat="59.3274890839" lon="34.6998972479"><ele>167.358</ele><time>2026-08-17T04:04:31.652Z</time><hdop>4.187</hdop><vdop>2.75</vdop><extensions><gom:speed>0.309</gom:speed></extensions></trkpt>
   <trkpt lat="59.3274850606" lon="34.6999129221"><ele>167.438</ele><time>2026-08-17T04:04:32.644Z</time><hdop>4.25</hdop><vdop>2.625</vdop><extensions><gom:speed>0.382</gom:speed></extensions></trkpt>
   <trkpt lat="59.3274835937" lon="34.6999171969"><ele>167.485</ele><time>2026-08-17T04:04:33.271Z</time><hdop>4.375</hdop><vdop>2.625</vdop><extensions><gom:speed>0.381</gom:speed></extensions></trkpt>
   <trkpt lat="59.327481163" lon="34.699928261"><ele>167.5</ele><time>2026-08-17T04:04:33.807Z</time><hdop>4.437</hdop><vdop>2.812</vdop><extensions><gom:speed>0.451</gom:speed></extensions></trkpt>
   <trkpt lat="59.3274770978" lon="34.6999405824"><ele>167.526</ele><time>2026-08-17T04:04:34.645Z</time><hdop>4.5</hdop><vdop>3.062</vdop><extensions><gom:speed>0.484</gom:speed></extensions></trkpt>
   <trkpt lat="59.327473284" lon="34.6999514789"><ele>167.541</ele><time>2026-08-17T04:04:35.618Z</time><hdop>4.687</hdop><vdop>3.062</vdop><extensions><gom:speed>0.529</gom:speed></extensions></trkpt>
   <trkpt lat="59.3274696798" lon="34.6999595255"><ele>167.215</ele><time>2026-08-17T04:04:36.367Z</time><hdop>4.812</hdop><vdop>2.875</vdop><extensions><gom:speed>0.513</gom:speed></extensions></trkpt>
   <trkpt lat="59.3274637705" lon="34.6999712602"><ele>167.008</ele><time>2026-08-17T04:04:37.318Z</time><hdop>4.875</hdop><vdop>2.875</vdop><extensions><gom:speed>0.528</gom:speed></extensions></trkpt>
   <trkpt lat="59.3274597891" lon="34.6999788877"><ele>166.901</ele><time>2026-08-17T04:04:37.985Z</time><hdop>4.937</hdop><vdop>3.125</vdop><extensions><gom:speed>0.55</gom:speed></extensions></trkpt>
   <trkpt lat="59.3274577775" lon="34.6999857608"><ele>166.803</ele><time>2026-08-17T04:04:38.652Z</time><hdop>4.937</hdop><vdop>3.375</vdop><extensions><gom:speed>0.588</gom:speed></extensions></trkpt>
   <trkpt lat="59.3274530836" lon="34.6999997586"><ele>166.745</ele><time>2026-08-17T04:04:39.403Z</time><hdop>4.937</hdop><vdop>3.375</vdop><extensions><gom:speed>0.615</gom:speed></extensions></trkpt>
   <trkpt lat="59.3274501919" lon="34.7000057936"><ele>166.228</ele><time>2026-08-17T04:04:40.202Z</time><hdop>4.937</hdop><vdop>3.25</vdop><extensions><gom:speed>0.605</gom:speed></extensions></trkpt>
   <trkpt lat="59.3274485993" lon="34.700010236"><ele>165.821</ele><time>2026-08-17T04:04:40.656Z</time><hdop>4.937</hdop><vdop>3.562</vdop><extensions><gom:speed>0.616</gom:speed></extensions></trkpt>
   <trkpt lat="59.3274439893" lon="34.7000192885"><ele>166.108</ele><time>2026-08-17T04:04:41.645Z</time><hdop>4.875</hdop><vdop>3.375</vdop><extensions><gom:speed>0.623</gom:speed></extensions></trkpt>
   <trkpt lat="59.327442271" lon="34.7000228927"><ele>166.279</ele><time>2026-08-17T04:04:42.184Z</time><hdop>4.875</hdop><vdop>3.375</vdop><extensions><gom:speed>0.559</gom:speed></extensions></trkpt>
   <trkpt lat="59.3274399659" lon="34.7000272513"><ele>166.533</ele><time>2026-08-17T04:04:42.645Z</time><hdop>4.75</hdop><vdop>3.312</vdop><extensions><gom:speed>0.59</gom:speed></extensions></trkpt>
   <trkpt lat="59.3274378705" lon="34.7000359684"><ele>166.72</ele><time>2026-08-17T04:04:43.645Z</time><hdop>4.437</hdop><vdop>3.375</vdop><extensions><gom:speed>0.485</gom:speed></extensions></trkpt>
   <trkpt lat="59.3274374933" lon="34.7000401594"><ele>166.831</ele><time>2026-08-17T04:04:44.127Z</time><hdop>4.25</hdop><vdop>3.375</vdop><extensions><gom:speed>0.452</gom:speed></extensions></trkpt>
   <trkpt lat="59.3274362779" lon="34.7000496309"><ele>166.855</ele><time>2026-08-17T04:04:44.645Z</time><hdop>3.937</hdop><vdop>3.375</vdop><extensions><gom:speed>0.552</gom:speed></extensions></trkpt>
   <trkpt lat="59.3274368646" lon="34.7000539895"><ele>166.869</ele><time>2026-08-17T04:04:45.261Z</time><hdop>3.75</hdop><vdop>3.375</vdop><extensions><gom:speed>0.459</gom:speed></extensions></trkpt>
   <trkpt lat="59.3274369904" lon="34.7000651375"><ele>167.07</ele><time>2026-08-17T04:04:46.221Z</time><hdop>3.437</hdop><vdop>3.375</vdop><extensions><gom:speed>0.503</gom:speed></extensions></trkpt>
   <trkpt lat="59.3274359845" lon="34.700073687"><ele>167.28</ele><time>2026-08-17T04:04:46.980Z</time><hdop>3.25</hdop><vdop>3.5</vdop><extensions><gom:speed>0.443</gom:speed></extensions></trkpt>
   <trkpt lat="59.3274352721" lon="34.7000782971"><ele>167.406</ele><time>2026-08-17T04:04:47.486Z</time><hdop>3.062</hdop><vdop>3.5</vdop><extensions><gom:speed>0.446</gom:speed></extensions></trkpt>
   <trkpt lat="59.3274331766" lon="34.700090367"><ele>167.383</ele><time>2026-08-17T04:04:48.649Z</time><hdop>3.0</hdop><vdop>3.562</vdop><extensions><gom:speed>0.488</gom:speed></extensions></trkpt>
   <trkpt lat="59.3274322965" lon="34.7000972402"><ele>167.37</ele><time>2026-08-17T04:04:49.226Z</time><hdop>3.0</hdop><vdop>3.562</vdop><extensions><gom:speed>0.503</gom:speed></extensions></trkpt>
   <trkpt lat="59.327431584" lon="34.700106125"><ele>167.494</ele><time>2026-08-17T04:04:49.965Z</time><hdop>3.0</hdop><vdop>3.937</vdop><extensions><gom:speed>0.558</gom:speed></extensions></trkpt>
   <trkpt lat="59.327431584" lon="34.7001169376"><ele>167.585</ele><time>2026-08-17T04:04:50.673Z</time><hdop>3.0</hdop><vdop>3.875</vdop><extensions><gom:speed>0.492</gom:speed></extensions></trkpt>
   <trkpt lat="59.3274325899" lon="34.7001234755"><ele>167.56</ele><time>2026-08-17T04:04:51.652Z</time><hdop>3.0</hdop><vdop>4.125</vdop><extensions><gom:speed>0.371</gom:speed></extensions></trkpt>
   <trkpt lat="59.3274361941" lon="34.7001455199"><ele>167.496</ele><time>2026-08-17T04:04:52.653Z</time><hdop>3.0</hdop><vdop>4.187</vdop><extensions><gom:speed>0.569</gom:speed></extensions></trkpt>
   <trkpt lat="59.3274413909" lon="34.7001615294"><ele>167.367</ele><time>2026-08-17T04:04:53.645Z</time><hdop>3.0</hdop><vdop>4.312</vdop><extensions><gom:speed>0.512</gom:speed></extensions></trkpt>
   <trkpt lat="59.3274416842" lon="34.7001711685"><ele>167.289</ele><time>2026-08-17T04:04:54.679Z</time><hdop>3.0</hdop><vdop>4.312</vdop><extensions><gom:speed>0.451</gom:speed></extensions></trkpt>
   <trkpt lat="59.3274424805" lon="34.7001790475"><ele>167.393</ele><time>2026-08-17T04:04:55.600Z</time><hdop>3.0</hdop><vdop>3.812</vdop><extensions><gom:speed>0.448</gom:speed></extensions></trkpt>
   <trkpt lat="59.3274442826" lon="34.7001858369"><ele>167.503</ele><time>2026-08-17T04:04:56.645Z</time><hdop>3.0</hdop><vdop>3.812</vdop><extensions><gom:speed>0.271</gom:speed></extensions></trkpt>
   <trkpt lat="59.3274447855" lon="34.7001867589"><ele>167.571</ele><time>2026-08-17T04:04:57.654Z</time><hdop>3.0</hdop><vdop>3.687</vdop><extensions><gom:speed>0.143</gom:speed></extensions></trkpt>
   <trkpt lat="59.3274457914" lon="34.7001857531"><ele>167.615</ele><time>2026-08-17T04:04:58.645Z</time><hdop>3.0</hdop><vdop>3.625</vdop><extensions><gom:speed>0.134</gom:speed></extensions></trkpt>
   <trkpt lat="59.3274464619" lon="34.7001855854"><ele>167.644</ele><time>2026-08-17T04:04:59.646Z</time><hdop>3.0</hdop><vdop>3.687</vdop><extensions><gom:speed>0.11</gom:speed></extensions></trkpt>
   <trkpt lat="59.3274464619" lon="34.7001857531"><ele>167.658</ele><time>2026-08-17T04:05:00.646Z</time><hdop>3.0</hdop><vdop>3.312</vdop><extensions><gom:speed>0.09</gom:speed></extensions></trkpt>
   <trkpt lat="59.3274464619" lon="34.7001860883"><ele>167.666</ele><time>2026-08-17T04:05:01.196Z</time><hdop>3.0</hdop><vdop>3.312</vdop><extensions><gom:speed>0.078</gom:speed></extensions></trkpt>
   <trkpt lat="59.3274462943" lon="34.700187178"><ele>167.672</ele><time>2026-08-17T04:05:01.646Z</time><hdop>3.0</hdop><vdop>3.125</vdop><extensions><gom:speed>0.092</gom:speed></extensions></trkpt>
   <trkpt lat="59.3274461685" lon="34.7001882676"><ele>167.679</ele><time>2026-08-17T04:05:02.645Z</time><hdop>3.0</hdop><vdop>2.937</vdop><extensions><gom:speed>0.094</gom:speed></extensions></trkpt>
   <trkpt lat="59.3274458752" lon="34.7001889382"><ele>167.683</ele><time>2026-08-17T04:05:03.178Z</time><hdop>3.0</hdop><vdop>2.937</vdop><extensions><gom:speed>0.068</gom:speed></extensions></trkpt>
   <trkpt lat="59.3274457914" lon="34.7001898602"><ele>167.685</ele><time>2026-08-17T04:05:03.664Z</time><hdop>3.0</hdop><vdop>2.937</vdop><extensions><gom:speed>0.103</gom:speed></extensions></trkpt>
   <trkpt lat="59.327445959" lon="34.7001900278"><ele>167.665</ele><time>2026-08-17T04:05:04.544Z</time><hdop>3.0</hdop><vdop>3.0</vdop><extensions><gom:speed>0.116</gom:speed></extensions></trkpt>
   <trkpt lat="59.3274460847" lon="34.7001925424"><ele>167.676</ele><time>2026-08-17T04:05:05.323Z</time><hdop>3.0</hdop><vdop>3.25</vdop><extensions><gom:speed>0.138</gom:speed></extensions></trkpt>
   <trkpt lat="59.3274467972" lon="34.7002016787"><ele>167.959</ele><time>2026-08-17T04:05:06.184Z</time><hdop>3.0</hdop><vdop>3.062</vdop><extensions><gom:speed>0.297</gom:speed></extensions></trkpt>
   <trkpt lat="59.3274484736" lon="34.7002085518"><ele>168.043</ele><time>2026-08-17T04:05:06.645Z</time><hdop>3.0</hdop><vdop>2.812</vdop><extensions><gom:speed>0.369</gom:speed></extensions></trkpt>
   <trkpt lat="59.327454299" lon="34.7002169337"><ele>167.971</ele><time>2026-08-17T04:05:07.646Z</time><hdop>3.0</hdop><vdop>2.562</vdop><extensions><gom:speed>0.434</gom:speed></extensions></trkpt>
   <trkpt lat="59.3274592862" lon="34.7002212923"><ele>167.928</ele><time>2026-08-17T04:05:08.662Z</time><hdop>3.0</hdop><vdop>2.562</vdop><extensions><gom:speed>0.482</gom:speed></extensions></trkpt>
   <trkpt lat="59.3274660756" lon="34.7002239745"><ele>167.755</ele><time>2026-08-17T04:05:09.501Z</time><hdop>3.0</hdop><vdop>2.5</vdop><extensions><gom:speed>0.513</gom:speed></extensions></trkpt>
   <trkpt lat="59.3274725715" lon="34.7002303448"><ele>167.696</ele><time>2026-08-17T04:05:10.260Z</time><hdop>3.0</hdop><vdop>2.5</vdop><extensions><gom:speed>0.591</gom:speed></extensions></trkpt>
   <trkpt lat="59.3274782712" lon="34.7002433367"><ele>167.771</ele><time>2026-08-17T04:05:11.262Z</time><hdop>3.0</hdop><vdop>2.562</vdop><extensions><gom:speed>0.568</gom:speed></extensions></trkpt>
   <trkpt lat="59.3274806601" lon="34.700256161"><ele>167.565</ele><time>2026-08-17T04:05:12.102Z</time><hdop>3.0</hdop><vdop>2.5</vdop><extensions><gom:speed>0.595</gom:speed></extensions></trkpt>
   <trkpt lat="59.3274830908" lon="34.700266387"><ele>167.822</ele><time>2026-08-17T04:05:12.645Z</time><hdop>3.0</hdop><vdop>2.5</vdop><extensions><gom:speed>0.571</gom:speed></extensions></trkpt>
   <trkpt lat="59.3274846834" lon="34.7002727572"><ele>168.213</ele><time>2026-08-17T04:05:13.652Z</time><hdop>3.0</hdop><vdop>2.5</vdop><extensions><gom:speed>0.526</gom:speed></extensions></trkpt>
   <trkpt lat="59.3274849768" lon="34.7002878446"><ele>168.347</ele><time>2026-08-17T04:05:14.651Z</time><hdop>3.0</hdop><vdop>2.5</vdop><extensions><gom:speed>0.628</gom:speed></extensions></trkpt>
   <trkpt lat="59.32748439" lon="34.7002898563"><ele>168.427</ele><time>2026-08-17T04:05:15.198Z</time><hdop>3.0</hdop><vdop>2.5</vdop><extensions><gom:speed>0.435</gom:speed></extensions></trkpt>
   <trkpt lat="59.3274844738" lon="34.7002911974"><ele>168.578</ele><time>2026-08-17T04:05:15.663Z</time><hdop>3.0</hdop><vdop>2.5</vdop><extensions><gom:speed>0.375</gom:speed></extensions></trkpt>
   <trkpt lat="59.3274845996" lon="34.7002951369"><ele>168.668</ele><time>2026-08-17T04:05:16.199Z</time><hdop>3.0</hdop><vdop>2.5</vdop><extensions><gom:speed>0.417</gom:speed></extensions></trkpt>
   <trkpt lat="59.3274851863" lon="34.700298322"><ele>169.044</ele><time>2026-08-17T04:05:16.652Z</time><hdop>3.0</hdop><vdop>2.562</vdop><extensions><gom:speed>0.422</gom:speed></extensions></trkpt>
   <trkpt lat="59.3274850606" lon="34.7003092185"><ele>169.634</ele><time>2026-08-17T04:05:17.645Z</time><hdop>3.0</hdop><vdop>2.562</vdop><extensions><gom:speed>0.419</gom:speed></extensions></trkpt>
   <trkpt lat="59.327485773" lon="34.7003171813"><ele>169.78</ele><time>2026-08-17T04:05:18.652Z</time><hdop>3.0</hdop><vdop>2.5</vdop><extensions><gom:speed>0.363</gom:speed></extensions></trkpt>
   <trkpt lat="59.3274835937" lon="34.7003277425"><ele>169.769</ele><time>2026-08-17T04:05:19.646Z</time><hdop>3.0</hdop><vdop>2.562</vdop><extensions><gom:speed>0.529</gom:speed></extensions></trkpt>
   <trkpt lat="59.3274838871" lon="34.7003367949"><ele>169.725</ele><time>2026-08-17T04:05:20.652Z</time><hdop>3.0</hdop><vdop>2.562</vdop><extensions><gom:speed>0.432</gom:speed></extensions></trkpt>
   <trkpt lat="59.3274817916" lon="34.7003453445"><ele>169.699</ele><time>2026-08-17T04:05:21.582Z</time><hdop>3.0</hdop><vdop>2.562</vdop><extensions><gom:speed>0.435</gom:speed></extensions></trkpt>
   <trkpt lat="59.3274798638" lon="34.7003575821"><ele>169.848</ele><time>2026-08-17T04:05:22.664Z</time><hdop>3.0</hdop><vdop>2.75</vdop><extensions><gom:speed>0.459</gom:speed></extensions></trkpt>
   <trkpt lat="59.3274782712" lon="34.7003625274"><ele>170.11</ele><time>2026-08-17T04:05:23.453Z</time><hdop>3.0</hdop><vdop>2.687</vdop><extensions><gom:speed>0.442</gom:speed></extensions></trkpt>
   <trkpt lat="59.3274750861" lon="34.7003742621"><ele>170.236</ele><time>2026-08-17T04:05:24.645Z</time><hdop>3.0</hdop><vdop>2.5</vdop><extensions><gom:speed>0.242</gom:speed></extensions></trkpt>
   <trkpt lat="59.3274748766" lon="34.7003757708"><ele>170.31</ele><time>2026-08-17T04:05:25.406Z</time><hdop>3.0</hdop><vdop>2.5</vdop><extensions><gom:speed>0.188</gom:speed></extensions></trkpt>
   <trkpt lat="59.3274748766" lon="34.7003769443"><ele>170.146</ele><time>2026-08-17T04:05:26.645Z</time><hdop>3.0</hdop><vdop>2.5</vdop><extensions><gom:speed>0.141</gom:speed></extensions></trkpt>
   <trkpt lat="59.3274752957" lon="34.7003774472"><ele>170.048</ele><time>2026-08-17T04:05:27.420Z</time><hdop>3.0</hdop><vdop>2.5</vdop><extensions><gom:speed>0.123</gom:speed></extensions></trkpt>
   <trkpt lat="59.3274753795" lon="34.7003773634"><ele>169.896</ele><time>2026-08-17T04:05:27.946Z</time><hdop>3.0</hdop><vdop>2.562</vdop><extensions><gom:speed>0.102</gom:speed></extensions></trkpt>
   <trkpt lat="59.3274753795" lon="34.7003777825"><ele>170.289</ele><time>2026-08-17T04:05:28.652Z</time><hdop>3.0</hdop><vdop>2.5</vdop><extensions><gom:speed>0.141</gom:speed></extensions></trkpt>
   <trkpt lat="59.3274766787" lon="34.7003825601"><ele>170.525</ele><time>2026-08-17T04:05:29.463Z</time><hdop>3.0</hdop><vdop>2.5</vdop><extensions><gom:speed>0.168</gom:speed></extensions></trkpt>
   <trkpt lat="59.3274778941" lon="34.7003903553"><ele>170.685</ele><time>2026-08-17T04:05:30.343Z</time><hdop>3.0</hdop><vdop>2.5</vdop><extensions><gom:speed>0.26</gom:speed></extensions></trkpt>
   <trkpt lat="59.3274787742" lon="34.7004028443"><ele>170.615</ele><time>2026-08-17T04:05:31.224Z</time><hdop>3.0</hdop><vdop>2.5</vdop><extensions><gom:speed>0.339</gom:speed></extensions></trkpt>
   <trkpt lat="59.327478397" lon="34.7004179318"><ele>170.671</ele><time>2026-08-17T04:05:32.003Z</time><hdop>3.0</hdop><vdop>2.5</vdop><extensions><gom:speed>0.466</gom:speed></extensions></trkpt>
   <trkpt lat="59.3274764691" lon="34.7004333545"><ele>170.684</ele><time>2026-08-17T04:05:32.644Z</time><hdop>3.0</hdop><vdop>2.625</vdop><extensions><gom:speed>0.541</gom:speed></extensions></trkpt>
   <trkpt lat="59.327475589" lon="34.7004424907"><ele>170.693</ele><time>2026-08-17T04:05:33.238Z</time><hdop>3.0</hdop><vdop>2.625</vdop><extensions><gom:speed>0.517</gom:speed></extensions></trkpt>
   <trkpt lat="59.3274745832" lon="34.700454393"><ele>170.342</ele><time>2026-08-17T04:05:34.239Z</time><hdop>3.0</hdop><vdop>2.562</vdop><extensions><gom:speed>0.406</gom:speed></extensions></trkpt>
   <trkpt lat="59.3274734936" lon="34.7004648704"><ele>169.945</ele><time>2026-08-17T04:05:35.342Z</time><hdop>3.0</hdop><vdop>2.812</vdop><extensions><gom:speed>0.351</gom:speed></extensions></trkpt>
   <trkpt lat="59.3274714819" lon="34.7004681394"><ele>169.513</ele><time>2026-08-17T04:05:36.424Z</time><hdop>3.0</hdop><vdop>2.75</vdop><extensions><gom:speed>0.233</gom:speed></extensions></trkpt>
   <trkpt lat="59.3274688835" lon="34.7004726656"><ele>169.24</ele><time>2026-08-17T04:05:37.507Z</time><hdop>3.0</hdop><vdop>2.937</vdop><extensions><gom:speed>0.23</gom:speed></extensions></trkpt>
   <trkpt lat="59.3274668718" lon="34.7004756831"><ele>169.008</ele><time>2026-08-17T04:05:38.083Z</time><hdop>3.0</hdop><vdop>3.25</vdop><extensions><gom:speed>0.247</gom:speed></extensions></trkpt>
   <trkpt lat="59.3274654888" lon="34.7004813828"><ele>169.132</ele><time>2026-08-17T04:05:38.645Z</time><hdop>3.0</hdop><vdop>3.187</vdop><extensions><gom:speed>0.353</gom:speed></extensions></trkpt>
   <trkpt lat="59.3274647764" lon="34.7004906867"><ele>168.997</ele><time>2026-08-17T04:05:39.645Z</time><hdop>3.0</hdop><vdop>3.0</vdop><extensions><gom:speed>0.356</gom:speed></extensions></trkpt>
   <trkpt lat="59.3274655727" lon="34.7004995715"><ele>168.92</ele><time>2026-08-17T04:05:40.653Z</time><hdop>3.0</hdop><vdop>2.937</vdop><extensions><gom:speed>0.379</gom:speed></extensions></trkpt>
   <trkpt lat="59.3274653631" lon="34.7005140722"><ele>168.874</ele><time>2026-08-17T04:05:41.604Z</time><hdop>3.0</hdop><vdop>2.937</vdop><extensions><gom:speed>0.421</gom:speed></extensions></trkpt>
   <trkpt lat="59.3274641896" lon="34.7005230408"><ele>169.29</ele><time>2026-08-17T04:05:42.444Z</time><hdop>3.0</hdop><vdop>3.0</vdop><extensions><gom:speed>0.415</gom:speed></extensions></trkpt>
   <trkpt lat="59.3274629743" lon="34.7005291596"><ele>169.293</ele><time>2026-08-17T04:05:43.243Z</time><hdop>3.0</hdop><vdop>3.0</vdop><extensions><gom:speed>0.386</gom:speed></extensions></trkpt>
   <trkpt lat="59.3274590767" lon="34.7005439956"><ele>169.819</ele><time>2026-08-17T04:05:44.285Z</time><hdop>3.0</hdop><vdop>3.125</vdop><extensions><gom:speed>0.459</gom:speed></extensions></trkpt>
   <trkpt lat="59.3274557658" lon="34.7005524613"><ele>170.007</ele><time>2026-08-17T04:05:45.024Z</time><hdop>3.0</hdop><vdop>2.937</vdop><extensions><gom:speed>0.438</gom:speed></extensions></trkpt>
   <trkpt lat="59.3274516587" lon="34.7005588316"><ele>169.853</ele><time>2026-08-17T04:05:45.646Z</time><hdop>3.0</hdop><vdop>2.75</vdop><extensions><gom:speed>0.394</gom:speed></extensions></trkpt>
   <trkpt lat="59.3274498985" lon="34.7005607594"><ele>169.761</ele><time>2026-08-17T04:05:46.319Z</time><hdop>3.0</hdop><vdop>2.75</vdop><extensions><gom:speed>0.363</gom:speed></extensions></trkpt>
   <trkpt lat="59.3274412651" lon="34.7005630225"><ele>169.278</ele><time>2026-08-17T04:05:47.503Z</time><hdop>3.0</hdop><vdop>2.562</vdop><extensions><gom:speed>0.361</gom:speed></extensions></trkpt>
   <trkpt lat="59.3274361941" lon="34.7005602565"><ele>168.516</ele><time>2026-08-17T04:05:48.181Z</time><hdop>3.0</hdop><vdop>2.625</vdop><extensions><gom:speed>0.396</gom:speed></extensions></trkpt>
   <trkpt lat="59.32743347" lon="34.7005589992"><ele>168.414</ele><time>2026-08-17T04:05:48.646Z</time><hdop>3.0</hdop><vdop>2.625</vdop><extensions><gom:speed>0.4</gom:speed></extensions></trkpt>
   <trkpt lat="59.3274239984" lon="34.7005580772"><ele>168.501</ele><time>2026-08-17T04:05:49.645Z</time><hdop>3.0</hdop><vdop>2.687</vdop><extensions><gom:speed>0.383</gom:speed></extensions></trkpt>
   <trkpt lat="59.3274198913" lon="34.7005622681"><ele>168.552</ele><time>2026-08-17T04:05:50.639Z</time><hdop>3.0</hdop><vdop>2.687</vdop><extensions><gom:speed>0.378</gom:speed></extensions></trkpt>
   <trkpt lat="59.3274164966" lon="34.7005637769"><ele>168.971</ele><time>2026-08-17T04:05:51.358Z</time><hdop>3.0</hdop><vdop>2.75</vdop><extensions><gom:speed>0.379</gom:speed></extensions></trkpt>
   <trkpt lat="59.327414485" lon="34.7005626872"><ele>169.225</ele><time>2026-08-17T04:05:51.884Z</time><hdop>3.0</hdop><vdop>2.625</vdop><extensions><gom:speed>0.303</gom:speed></extensions></trkpt>
   <trkpt lat="59.3274117608" lon="34.7005649504"><ele>169.377</ele><time>2026-08-17T04:05:52.460Z</time><hdop>3.0</hdop><vdop>2.625</vdop><extensions><gom:speed>0.315</gom:speed></extensions></trkpt>
   <trkpt lat="59.3274104616" lon="34.7005659562"><ele>169.627</ele><time>2026-08-17T04:05:53.341Z</time><hdop>3.0</hdop><vdop>2.687</vdop><extensions><gom:speed>0.278</gom:speed></extensions></trkpt>
   <trkpt lat="59.3274083662" lon="34.7005728293"><ele>170.236</ele><time>2026-08-17T04:05:54.099Z</time><hdop>3.0</hdop><vdop>2.875</vdop><extensions><gom:speed>0.41</gom:speed></extensions></trkpt>
   <trkpt lat="59.3274076956" lon="34.7005768527"><ele>170.719</ele><time>2026-08-17T04:05:54.645Z</time><hdop>3.0</hdop><vdop>2.75</vdop><extensions><gom:speed>0.307</gom:speed></extensions></trkpt>
   <trkpt lat="59.3274071927" lon="34.7005795349"><ele>171.007</ele><time>2026-08-17T04:05:55.141Z</time><hdop>3.0</hdop><vdop>2.75</vdop><extensions><gom:speed>0.284</gom:speed></extensions></trkpt>
   <trkpt lat="59.327405181" lon="34.7005824685"><ele>171.568</ele><time>2026-08-17T04:05:55.644Z</time><hdop>3.0</hdop><vdop>2.875</vdop><extensions><gom:speed>0.366</gom:speed></extensions></trkpt>
   <trkpt lat="59.3274012835" lon="34.7005843964"><ele>171.903</ele><time>2026-08-17T04:05:56.640Z</time><hdop>3.0</hdop><vdop>2.875</vdop><extensions><gom:speed>0.334</gom:speed></extensions></trkpt>
   <trkpt lat="59.3273978888" lon="34.7005814627"><ele>172.066</ele><time>2026-08-17T04:05:57.418Z</time><hdop>3.0</hdop><vdop>2.937</vdop><extensions><gom:speed>0.297</gom:speed></extensions></trkpt>
   <trkpt lat="59.3273905965" lon="34.700569728"><ele>171.894</ele><time>2026-08-17T04:05:58.126Z</time><hdop>3.0</hdop><vdop>2.937</vdop><extensions><gom:speed>0.655</gom:speed></extensions></trkpt>
   <trkpt lat="59.3273850645" lon="34.7005600888"><ele>171.22</ele><time>2026-08-17T04:05:58.646Z</time><hdop>3.0</hdop><vdop>2.812</vdop><extensions><gom:speed>0.623</gom:speed></extensions></trkpt>
   <trkpt lat="59.3273759701" lon="34.7005574905"><ele>170.587</ele><time>2026-08-17T04:05:59.652Z</time><hdop>3.0</hdop><vdop>2.75</vdop><extensions><gom:speed>0.672</gom:speed></extensions></trkpt>
   <trkpt lat="59.32737048" lon="34.7005653694"><ele>170.208</ele><time>2026-08-17T04:06:00.666Z</time><hdop>3.0</hdop><vdop>2.75</vdop><extensions><gom:speed>0.716</gom:speed></extensions></trkpt>
   <trkpt lat="59.3273709829" lon="34.7005772717"><ele>169.735</ele><time>2026-08-17T04:06:01.465Z</time><hdop>3.0</hdop><vdop>2.812</vdop><extensions><gom:speed>0.745</gom:speed></extensions></trkpt>
   <trkpt lat="59.3273763892" lon="34.7005897608"><ele>169.496</ele><time>2026-08-17T04:06:02.644Z</time><hdop>3.0</hdop><vdop>3.25</vdop><extensions><gom:speed>0.671</gom:speed></extensions></trkpt>
   <trkpt lat="59.3273794905" lon="34.700598478"><ele>169.139</ele><time>2026-08-17T04:06:03.645Z</time><hdop>3.0</hdop><vdop>2.937</vdop><extensions><gom:speed>0.439</gom:speed></extensions></trkpt>
   <trkpt lat="59.3273790714" lon="34.700601244"><ele>168.925</ele><time>2026-08-17T04:06:04.460Z</time><hdop>3.0</hdop><vdop>2.937</vdop><extensions><gom:speed>0.373</gom:speed></extensions></trkpt>
   <trkpt lat="59.3273790714" lon="34.7006125596"><ele>168.864</ele><time>2026-08-17T04:06:05.138Z</time><hdop>3.0</hdop><vdop>3.062</vdop><extensions><gom:speed>0.549</gom:speed></extensions></trkpt>
   <trkpt lat="59.3273798677" lon="34.7006184269"><ele>168.826</ele><time>2026-08-17T04:06:05.645Z</time><hdop>3.0</hdop><vdop>3.062</vdop><extensions><gom:speed>0.409</gom:speed></extensions></trkpt>
   <trkpt lat="59.3273788619" lon="34.7006212767"><ele>168.807</ele><time>2026-08-17T04:06:06.655Z</time><hdop>3.0</hdop><vdop>3.0</vdop><extensions><gom:speed>0.176</gom:speed></extensions></trkpt>
   <trkpt lat="59.3273820889" lon="34.7006226178"><ele>168.791</ele><time>2026-08-17T04:06:07.645Z</time><hdop>3.0</hdop><vdop>3.0</vdop><extensions><gom:speed>0.146</gom:speed></extensions></trkpt>
   <trkpt lat="59.3273833881" lon="34.7006223664"><ele>168.779</ele><time>2026-08-17T04:06:08.679Z</time><hdop>3.0</hdop><vdop>3.0</vdop><extensions><gom:speed>0.031</gom:speed></extensions></trkpt>
   <trkpt lat="59.3273862798" lon="34.7006236237"><ele>168.768</ele><time>2026-08-17T04:06:09.645Z</time><hdop>3.0</hdop><vdop>2.937</vdop><extensions><gom:speed>0.089</gom:speed></extensions></trkpt>
   <trkpt lat="59.3273881658" lon="34.700624881"><ele>168.759</ele><time>2026-08-17T04:06:10.645Z</time><hdop>3.0</hdop><vdop>2.812</vdop><extensions><gom:speed>0.089</gom:speed></extensions></trkpt>
   <trkpt lat="59.3273889621" lon="34.7006256353"><ele>168.753</ele><time>2026-08-17T04:06:11.646Z</time><hdop>3.0</hdop><vdop>2.812</vdop><extensions><gom:speed>0.094</gom:speed></extensions></trkpt>
   <trkpt lat="59.3273896745" lon="34.7006278984"><ele>168.749</ele><time>2026-08-17T04:06:12.645Z</time><hdop>3.0</hdop><vdop>2.75</vdop><extensions><gom:speed>0.09</gom:speed></extensions></trkpt>
   <trkpt lat="59.3273896745" lon="34.700629491"><ele>168.746</ele><time>2026-08-17T04:06:13.343Z</time><hdop>3.0</hdop><vdop>2.75</vdop><extensions><gom:speed>0.07</gom:speed></extensions></trkpt>
   <trkpt lat="59.3273900936" lon="34.7006306645"><ele>168.843</ele><time>2026-08-17T04:06:13.940Z</time><hdop>3.0</hdop><vdop>2.562</vdop><extensions><gom:speed>0.052</gom:speed></extensions></trkpt>
   <trkpt lat="59.327390387" lon="34.7006321732"><ele>168.5</ele><time>2026-08-17T04:06:14.648Z</time><hdop>3.0</hdop><vdop>2.562</vdop><extensions><gom:speed>0.119</gom:speed></extensions></trkpt>
   <trkpt lat="59.3273932787" lon="34.700636448"><ele>168.098</ele><time>2026-08-17T04:06:15.646Z</time><hdop>3.0</hdop><vdop>2.562</vdop><extensions><gom:speed>0.137</gom:speed></extensions></trkpt>
   <trkpt lat="59.3273966734" lon="34.7006426506"><ele>168.198</ele><time>2026-08-17T04:06:16.645Z</time><hdop>3.0</hdop><vdop>2.5</vdop><extensions><gom:speed>0.155</gom:speed></extensions></trkpt>
   <trkpt lat="59.3273986851" lon="34.700647093"><ele>168.257</ele><time>2026-08-17T04:06:17.501Z</time><hdop>3.0</hdop><vdop>2.5</vdop><extensions><gom:speed>0.196</gom:speed></extensions></trkpt>
   <trkpt lat="59.3274059773" lon="34.7006614261"><ele>168.502</ele><time>2026-08-17T04:06:18.341Z</time><hdop>3.0</hdop><vdop>2.562</vdop><extensions><gom:speed>0.471</gom:speed></extensions></trkpt>
   <trkpt lat="59.3274152812" lon="34.7006786928"><ele>168.196</ele><time>2026-08-17T04:06:19.322Z</time><hdop>3.0</hdop><vdop>2.5</vdop><extensions><gom:speed>0.446</gom:speed></extensions></trkpt>
   <trkpt lat="59.3274191788" lon="34.7006887511"><ele>168.009</ele><time>2026-08-17T04:06:19.808Z</time><hdop>3.0</hdop><vdop>2.5</vdop><extensions><gom:speed>0.529</gom:speed></extensions></trkpt>
   <trkpt lat="59.327421861" lon="34.700698055"><ele>167.904</ele><time>2026-08-17T04:06:20.652Z</time><hdop>3.0</hdop><vdop>2.5</vdop><extensions><gom:speed>0.361</gom:speed></extensions></trkpt>
   <trkpt lat="59.3274239984" lon="34.7007112984"><ele>167.899</ele><time>2026-08-17T04:06:21.645Z</time><hdop>3.0</hdop><vdop>2.5</vdop><extensions><gom:speed>0.46</gom:speed></extensions></trkpt>
   <trkpt lat="59.3274247947" lon="34.7007149864"><ele>167.896</ele><time>2026-08-17T04:06:22.358Z</time><hdop>3.0</hdop><vdop>2.5</vdop><extensions><gom:speed>0.33</gom:speed></extensions></trkpt>
   <trkpt lat="59.327425591" lon="34.7007217758"><ele>167.632</ele><time>2026-08-17T04:06:23.127Z</time><hdop>3.0</hdop><vdop>2.5</vdop><extensions><gom:speed>0.33</gom:speed></extensions></trkpt>
   <trkpt lat="59.3274265968" lon="34.700723536"><ele>167.507</ele><time>2026-08-17T04:06:23.653Z</time><hdop>3.0</hdop><vdop>2.5</vdop><extensions><gom:speed>0.321</gom:speed></extensions></trkpt>
   <trkpt lat="59.3274294886" lon="34.7007282298"><ele>167.763</ele><time>2026-08-17T04:06:24.645Z</time><hdop>3.0</hdop><vdop>2.5</vdop><extensions><gom:speed>0.37</gom:speed></extensions></trkpt>
   <trkpt lat="59.3274308716" lon="34.7007308282"><ele>167.917</ele><time>2026-08-17T04:06:25.373Z</time><hdop>3.0</hdop><vdop>2.5</vdop><extensions><gom:speed>0.405</gom:speed></extensions></trkpt>
   <trkpt lat="59.3274341824" lon="34.7007540461"><ele>167.95</ele><time>2026-08-17T04:06:26.646Z</time><hdop>3.0</hdop><vdop>2.5</vdop><extensions><gom:speed>0.75</gom:speed></extensions></trkpt>
   <trkpt lat="59.3274316679" lon="34.7007702232"><ele>167.797</ele><time>2026-08-17T04:06:27.645Z</time><hdop>3.0</hdop><vdop>2.5</vdop><extensions><gom:speed>0.601</gom:speed></extensions></trkpt>
   <trkpt lat="59.327430662" lon="34.7007797785"><ele>167.707</ele><time>2026-08-17T04:06:28.661Z</time><hdop>3.0</hdop><vdop>2.5</vdop><extensions><gom:speed>0.473</gom:speed></extensions></trkpt>
   <trkpt lat="59.3274312907" lon="34.700792519"><ele>167.565</ele><time>2026-08-17T04:06:29.645Z</time><hdop>3.0</hdop><vdop>2.5</vdop><extensions><gom:speed>0.527</gom:speed></extensions></trkpt>
   <trkpt lat="59.3274321708" lon="34.7007960394"><ele>167.481</ele><time>2026-08-17T04:06:30.361Z</time><hdop>3.0</hdop><vdop>2.5</vdop><extensions><gom:speed>0.39</gom:speed></extensions></trkpt>
   <trkpt lat="59.3274326737" lon="34.7007967938"><ele>167.191</ele><time>2026-08-17T04:06:30.937Z</time><hdop>3.0</hdop><vdop>2.562</vdop><extensions><gom:speed>0.285</gom:speed></extensions></trkpt>
   <trkpt lat="59.3274347692" lon="34.7008016553"><ele>166.921</ele><time>2026-08-17T04:06:31.646Z</time><hdop>3.0</hdop><vdop>2.875</vdop><extensions><gom:speed>0.303</gom:speed></extensions></trkpt>
   <trkpt lat="59.3274372837" lon="34.7008075226"><ele>166.76</ele><time>2026-08-17T04:06:32.465Z</time><hdop>3.0</hdop><vdop>2.875</vdop><extensions><gom:speed>0.309</gom:speed></extensions></trkpt>
   <trkpt lat="59.3274415585" lon="34.7008156531"><ele>166.959</ele><time>2026-08-17T04:06:33.558Z</time><hdop>3.0</hdop><vdop>2.875</vdop><extensions><gom:speed>0.36</gom:speed></extensions></trkpt>
   <trkpt lat="59.3274484736" lon="34.7008274716"><ele>166.869</ele><time>2026-08-17T04:06:34.478Z</time><hdop>3.0</hdop><vdop>3.062</vdop><extensions><gom:speed>0.432</gom:speed></extensions></trkpt>
   <trkpt lat="59.3274529998" lon="34.7008334227"><ele>166.791</ele><time>2026-08-17T04:06:35.217Z</time><hdop>3.0</hdop><vdop>3.187</vdop><extensions><gom:speed>0.415</gom:speed></extensions></trkpt>
   <trkpt lat="59.3274584899" lon="34.70083929"><ele>166.784</ele><time>2026-08-17T04:06:36.158Z</time><hdop>3.0</hdop><vdop>3.562</vdop><extensions><gom:speed>0.392</gom:speed></extensions></trkpt>
   <trkpt lat="59.3274631838" lon="34.7008450736"><ele>166.758</ele><time>2026-08-17T04:06:36.645Z</time><hdop>3.0</hdop><vdop>3.812</vdop><extensions><gom:speed>0.42</gom:speed></extensions></trkpt>
   <trkpt lat="59.3274651955" lon="34.7008473367"><ele>166.905</ele><time>2026-08-17T04:06:37.652Z</time><hdop>3.0</hdop><vdop>3.937</vdop><extensions><gom:speed>0.299</gom:speed></extensions></trkpt>
   <trkpt lat="59.3274683806" lon="34.7008558862"><ele>167.481</ele><time>2026-08-17T04:06:38.645Z</time><hdop>3.0</hdop><vdop>3.312</vdop><extensions><gom:speed>0.309</gom:speed></extensions></trkpt>
   <trkpt lat="59.3274690931" lon="34.7008594904"><ele>167.825</ele><time>2026-08-17T04:06:39.143Z</time><hdop>3.0</hdop><vdop>3.312</vdop><extensions><gom:speed>0.3</gom:speed></extensions></trkpt>
   <trkpt lat="59.3274689673" lon="34.7008633461"><ele>167.832</ele><time>2026-08-17T04:06:39.645Z</time><hdop>3.0</hdop><vdop>3.125</vdop><extensions><gom:speed>0.236</gom:speed></extensions></trkpt>
   <trkpt lat="59.327468171" lon="34.7008693811"><ele>167.801</ele><time>2026-08-17T04:06:40.650Z</time><hdop>3.0</hdop><vdop>2.937</vdop><extensions><gom:speed>0.285</gom:speed></extensions></trkpt>
   <trkpt lat="59.3274660756" lon="34.7008732368"><ele>167.778</ele><time>2026-08-17T04:06:41.645Z</time><hdop>3.0</hdop><vdop>3.125</vdop><extensions><gom:speed>0.203</gom:speed></extensions></trkpt>
   <trkpt lat="59.3274653631" lon="34.700875919"><ele>167.763</ele><time>2026-08-17T04:06:42.652Z</time><hdop>3.0</hdop><vdop>3.187</vdop><extensions><gom:speed>0.157</gom:speed></extensions></trkpt>
   <trkpt lat="59.327464483" lon="34.7008760866"><ele>167.755</ele><time>2026-08-17T04:06:43.645Z</time><hdop>3.0</hdop><vdop>3.25</vdop><extensions><gom:speed>0.145</gom:speed></extensions></trkpt>
   <trkpt lat="59.3274647764" lon="34.7008753322"><ele>167.757</ele><time>2026-08-17T04:06:44.652Z</time><hdop>3.0</hdop><vdop>3.312</vdop><extensions><gom:speed>0.047</gom:speed></extensions></trkpt>
   <trkpt lat="59.3274637705" lon="34.7008752484"><ele>167.758</ele><time>2026-08-17T04:06:45.645Z</time><hdop>3.0</hdop><vdop>3.375</vdop><extensions><gom:speed>0.101</gom:speed></extensions></trkpt>
   <trkpt lat="59.3274632676" lon="34.7008761704"><ele>167.76</ele><time>2026-08-17T04:06:46.645Z</time><hdop>3.0</hdop><vdop>3.437</vdop><extensions><gom:speed>0.097</gom:speed></extensions></trkpt>
   <trkpt lat="59.3274629743" lon="34.7008776792"><ele>167.762</ele><time>2026-08-17T04:06:47.645Z</time><hdop>3.0</hdop><vdop>3.5</vdop><extensions><gom:speed>0.095</gom:speed></extensions></trkpt>
   <trkpt lat="59.3274619684" lon="34.7008780983"><ele>167.764</ele><time>2026-08-17T04:06:48.644Z</time><hdop>3.0</hdop><vdop>3.625</vdop><extensions><gom:speed>0.097</gom:speed></extensions></trkpt>
   <trkpt lat="59.3274622618" lon="34.7008793555"><ele>167.602</ele><time>2026-08-17T04:06:49.655Z</time><hdop>3.0</hdop><vdop>3.312</vdop><extensions><gom:speed>0.03</gom:speed></extensions></trkpt>
   <trkpt lat="59.3274616751" lon="34.7008802775"><ele>167.45</ele><time>2026-08-17T04:06:50.645Z</time><hdop>3.0</hdop><vdop>3.125</vdop><extensions><gom:speed>0.066</gom:speed></extensions></trkpt>
   <trkpt lat="59.3274615912" lon="34.7008806966"><ele>167.37</ele><time>2026-08-17T04:06:51.645Z</time><hdop>3.0</hdop><vdop>2.937</vdop><extensions><gom:speed>0.09</gom:speed></extensions></trkpt>
   <trkpt lat="59.3274613817" lon="34.700881451"><ele>167.323</ele><time>2026-08-17T04:06:52.645Z</time><hdop>3.0</hdop><vdop>2.875</vdop><extensions><gom:speed>0.104</gom:speed></extensions></trkpt>
   <trkpt lat="59.3274610883" lon="34.700881451"><ele>167.295</ele><time>2026-08-17T04:06:53.196Z</time><hdop>3.0</hdop><vdop>2.875</vdop><extensions><gom:speed>0.108</gom:speed></extensions></trkpt>
   <trkpt lat="59.3274615912" lon="34.7008821216"><ele>167.278</ele><time>2026-08-17T04:06:54.652Z</time><hdop>3.0</hdop><vdop>2.75</vdop><extensions><gom:speed>0.052</gom:speed></extensions></trkpt>
   <trkpt lat="59.3274618846" lon="34.7008822892"><ele>167.269</ele><time>2026-08-17T04:06:55.645Z</time><hdop>3.0</hdop><vdop>2.625</vdop><extensions><gom:speed>0.104</gom:speed></extensions></trkpt>
   <trkpt lat="59.3274626809" lon="34.700883295"><ele>167.265</ele><time>2026-08-17T04:06:56.652Z</time><hdop>3.0</hdop><vdop>2.5</vdop><extensions><gom:speed>0.032</gom:speed></extensions></trkpt>
   <trkpt lat="59.3274631838" lon="34.7008833789"><ele>167.262</ele><time>2026-08-17T04:06:57.648Z</time><hdop>3.0</hdop><vdop>2.5</vdop><extensions><gom:speed>0.119</gom:speed></extensions></trkpt>
   <trkpt lat="59.3274634772" lon="34.7008837979"><ele>167.481</ele><time>2026-08-17T04:06:58.645Z</time><hdop>3.0</hdop><vdop>2.5</vdop><extensions><gom:speed>0.08</gom:speed></extensions></trkpt>
   <trkpt lat="59.3274633934" lon="34.7008849714"><ele>167.618</ele><time>2026-08-17T04:06:59.645Z</time><hdop>3.0</hdop><vdop>2.5</vdop><extensions><gom:speed>0.028</gom:speed></extensions></trkpt>
   <trkpt lat="59.3274633934" lon="34.7008851391"><ele>167.701</ele><time>2026-08-17T04:07:00.645Z</time><hdop>3.0</hdop><vdop>2.5</vdop><extensions><gom:speed>0.033</gom:speed></extensions></trkpt>
   <trkpt lat="59.3274633934" lon="34.700885642"><ele>167.752</ele><time>2026-08-17T04:07:01.646Z</time><hdop>3.0</hdop><vdop>2.5</vdop><extensions><gom:speed>0.04</gom:speed></extensions></trkpt>
   <trkpt lat="59.3274632676" lon="34.7008861449"><ele>167.794</ele><time>2026-08-17T04:07:02.646Z</time><hdop>3.0</hdop><vdop>2.5</vdop><extensions><gom:speed>0.041</gom:speed></extensions></trkpt>
   <trkpt lat="59.3274629743" lon="34.7008864802"><ele>167.828</ele><time>2026-08-17T04:07:03.645Z</time><hdop>3.0</hdop><vdop>2.5</vdop><extensions><gom:speed>0.042</gom:speed></extensions></trkpt>
   <trkpt lat="59.3274629743" lon="34.700886564"><ele>167.849</ele><time>2026-08-17T04:07:04.325Z</time><hdop>3.0</hdop><vdop>2.5</vdop><extensions><gom:speed>0.042</gom:speed></extensions></trkpt>
   <trkpt lat="59.3274626809" lon="34.7008871507"><ele>167.866</ele><time>2026-08-17T04:07:05.645Z</time><hdop>3.0</hdop><vdop>2.5</vdop><extensions><gom:speed>0.05</gom:speed></extensions></trkpt>
   <trkpt lat="59.3274625971" lon="34.7008876536"><ele>167.871</ele><time>2026-08-17T04:07:06.645Z</time><hdop>3.0</hdop><vdop>2.5</vdop><extensions><gom:speed>0.052</gom:speed></extensions></trkpt>
   <trkpt lat="59.3274626809" lon="34.7008883242"><ele>167.869</ele><time>2026-08-17T04:07:07.645Z</time><hdop>3.0</hdop><vdop>2.562</vdop><extensions><gom:speed>0.057</gom:speed></extensions></trkpt>
   <trkpt lat="59.3274626809" lon="34.7008889947"><ele>167.866</ele><time>2026-08-17T04:07:08.645Z</time><hdop>3.0</hdop><vdop>2.562</vdop><extensions><gom:speed>0.06</gom:speed></extensions></trkpt>
   <trkpt lat="59.3274627647" lon="34.7008895815"><ele>167.857</ele><time>2026-08-17T04:07:09.645Z</time><hdop>3.0</hdop><vdop>2.625</vdop><extensions><gom:speed>0.061</gom:speed></extensions></trkpt>
   <trkpt lat="59.3274626809" lon="34.700890252"><ele>167.848</ele><time>2026-08-17T04:07:10.645Z</time><hdop>3.0</hdop><vdop>2.625</vdop><extensions><gom:speed>0.062</gom:speed></extensions></trkpt>
   <trkpt lat="59.3274626809" lon="34.7008906711"><ele>167.838</ele><time>2026-08-17T04:07:11.645Z</time><hdop>3.0</hdop><vdop>2.625</vdop><extensions><gom:speed>0.064</gom:speed></extensions></trkpt>
   <trkpt lat="59.3274626809" lon="34.7008908387"><ele>167.829</ele><time>2026-08-17T04:07:12.645Z</time><hdop>3.0</hdop><vdop>2.562</vdop><extensions><gom:speed>0.067</gom:speed></extensions></trkpt>
   <trkpt lat="59.3274626809" lon="34.700891174"><ele>167.823</ele><time>2026-08-17T04:07:13.645Z</time><hdop>3.0</hdop><vdop>2.5</vdop><extensions><gom:speed>0.069</gom:speed></extensions></trkpt>
   <trkpt lat="59.3274626809" lon="34.7008914255"><ele>167.817</ele><time>2026-08-17T04:07:14.645Z</time><hdop>3.0</hdop><vdop>2.5</vdop><extensions><gom:speed>0.071</gom:speed></extensions></trkpt>
   <trkpt lat="59.3274625971" lon="34.7008915931"><ele>167.813</ele><time>2026-08-17T04:07:15.556Z</time><hdop>3.0</hdop><vdop>2.5</vdop><extensions><gom:speed>0.071</gom:speed></extensions></trkpt>
   <trkpt lat="59.3274626809" lon="34.7008921799"><ele>167.813</ele><time>2026-08-17T04:07:16.645Z</time><hdop>3.0</hdop><vdop>2.5</vdop><extensions><gom:speed>0.072</gom:speed></extensions></trkpt>
   <trkpt lat="59.3274626809" lon="34.7008923475"><ele>167.817</ele><time>2026-08-17T04:07:17.645Z</time><hdop>3.0</hdop><vdop>2.5</vdop><extensions><gom:speed>0.072</gom:speed></extensions></trkpt>
   <trkpt lat="59.3274626809" lon="34.7008925989"><ele>167.821</ele><time>2026-08-17T04:07:18.645Z</time><hdop>3.0</hdop><vdop>2.5</vdop><extensions><gom:speed>0.072</gom:speed></extensions></trkpt>
   <trkpt lat="59.3274626809" lon="34.7008927666"><ele>167.826</ele><time>2026-08-17T04:07:19.645Z</time><hdop>3.0</hdop><vdop>2.5</vdop><extensions><gom:speed>0.071</gom:speed></extensions></trkpt>
   <trkpt lat="59.3274625971" lon="34.7008932695"><ele>167.832</ele><time>2026-08-17T04:07:20.652Z</time><hdop>3.0</hdop><vdop>2.5</vdop><extensions><gom:speed>0.071</gom:speed></extensions></trkpt>
   <trkpt lat="59.3274627647" lon="34.7008931857"><ele>167.836</ele><time>2026-08-17T04:07:21.644Z</time><hdop>3.0</hdop><vdop>2.5</vdop><extensions><gom:speed>0.07</gom:speed></extensions></trkpt>
   <trkpt lat="59.3274628904" lon="34.7008931857"><ele>167.987</ele><time>2026-08-17T04:07:22.645Z</time><hdop>3.0</hdop><vdop>2.5</vdop><extensions><gom:speed>0.13</gom:speed></extensions></trkpt>
   <trkpt lat="59.3274630581" lon="34.7008940239"><ele>168.088</ele><time>2026-08-17T04:07:23.650Z</time><hdop>3.0</hdop><vdop>2.625</vdop><extensions><gom:speed>0.133</gom:speed></extensions></trkpt>
   <trkpt lat="59.327463561" lon="34.700893521"><ele>168.154</ele><time>2026-08-17T04:07:24.645Z</time><hdop>3.0</hdop><vdop>2.625</vdop><extensions><gom:speed>0.09</gom:speed></extensions></trkpt>
   <trkpt lat="59.3274637705" lon="34.700893521"><ele>168.194</ele><time>2026-08-17T04:07:25.652Z</time><hdop>3.0</hdop><vdop>2.562</vdop><extensions><gom:speed>0.09</gom:speed></extensions></trkpt>
   <trkpt lat="59.3274640639" lon="34.7008929342"><ele>168.218</ele><time>2026-08-17T04:07:26.645Z</time><hdop>3.0</hdop><vdop>2.562</vdop><extensions><gom:speed>0.073</gom:speed></extensions></trkpt>
   <trkpt lat="59.3274642735" lon="34.7008929342"><ele>168.234</ele><time>2026-08-17T04:07:27.652Z</time><hdop>3.0</hdop><vdop>2.625</vdop><extensions><gom:speed>0.073</gom:speed></extensions></trkpt>
   <trkpt lat="59.3274642735" lon="34.7008924313"><ele>168.243</ele><time>2026-08-17T04:07:28.645Z</time><hdop>3.0</hdop><vdop>2.687</vdop><extensions><gom:speed>0.068</gom:speed></extensions></trkpt>
   <trkpt lat="59.327464483" lon="34.7008923475"><ele>168.254</ele><time>2026-08-17T04:07:29.645Z</time><hdop>3.0</hdop><vdop>2.625</vdop><extensions><gom:speed>0.063</gom:speed></extensions></trkpt>
   <trkpt lat="59.327464483" lon="34.7008922637"><ele>168.262</ele><time>2026-08-17T04:07:30.645Z</time><hdop>3.0</hdop><vdop>2.687</vdop><extensions><gom:speed>0.064</gom:speed></extensions></trkpt>
   <trkpt lat="59.327464483" lon="34.7008921799"><ele>168.267</ele><time>2026-08-17T04:07:31.645Z</time><hdop>3.0</hdop><vdop>2.75</vdop><extensions><gom:speed>0.064</gom:speed></extensions></trkpt>
   <trkpt lat="59.327464483" lon="34.700892096"><ele>168.269</ele><time>2026-08-17T04:07:32.250Z</time><hdop>3.0</hdop><vdop>2.75</vdop><extensions><gom:speed>0.065</gom:speed></extensions></trkpt>
   <trkpt lat="59.3274646926" lon="34.7008918446"><ele>168.27</ele><time>2026-08-17T04:07:33.644Z</time><hdop>3.0</hdop><vdop>2.875</vdop><extensions><gom:speed>0.065</gom:speed></extensions></trkpt>
   <trkpt lat="59.3274648602" lon="34.7008917608"><ele>168.27</ele><time>2026-08-17T04:07:34.652Z</time><hdop>3.0</hdop><vdop>2.812</vdop><extensions><gom:speed>0.065</gom:speed></extensions></trkpt>
   <trkpt lat="59.3274649859" lon="34.7008913417"><ele>168.27</ele><time>2026-08-17T04:07:35.645Z</time><hdop>3.0</hdop><vdop>2.687</vdop><extensions><gom:speed>0.066</gom:speed></extensions></trkpt>
   <trkpt lat="59.3274650697" lon="34.700891174"><ele>168.271</ele><time>2026-08-17T04:07:36.645Z</time><hdop>3.0</hdop><vdop>2.562</vdop><extensions><gom:speed>0.065</gom:speed></extensions></trkpt>
   <trkpt lat="59.3274651955" lon="34.7008910902"><ele>168.271</ele><time>2026-08-17T04:07:37.645Z</time><hdop>3.0</hdop><vdop>2.5</vdop><extensions><gom:speed>0.068</gom:speed></extensions></trkpt>
   <trkpt lat="59.3274653631" lon="34.7008910902"><ele>168.273</ele><time>2026-08-17T04:07:38.645Z</time><hdop>3.0</hdop><vdop>2.625</vdop><extensions><gom:speed>0.069</gom:speed></extensions></trkpt>
   <trkpt lat="59.3274653631" lon="34.7008913417"><ele>168.282</ele><time>2026-08-17T04:07:39.653Z</time><hdop>3.0</hdop><vdop>2.687</vdop><extensions><gom:speed>0.07</gom:speed></extensions></trkpt>
   <trkpt lat="59.3274653631" lon="34.7008916769"><ele>168.287</ele><time>2026-08-17T04:07:40.648Z</time><hdop>3.0</hdop><vdop>2.75</vdop><extensions><gom:speed>0.07</gom:speed></extensions></trkpt>
   <trkpt lat="59.3274652793" lon="34.7008916769"><ele>168.289</ele><time>2026-08-17T04:07:41.644Z</time><hdop>3.0</hdop><vdop>2.687</vdop><extensions><gom:speed>0.07</gom:speed></extensions></trkpt>
   <trkpt lat="59.3274651955" lon="34.7008917608"><ele>168.3</ele><time>2026-08-17T04:07:42.645Z</time><hdop>3.0</hdop><vdop>2.75</vdop><extensions><gom:speed>0.07</gom:speed></extensions></trkpt>
   <trkpt lat="59.3274651955" lon="34.7008916769"><ele>168.307</ele><time>2026-08-17T04:07:43.379Z</time><hdop>3.0</hdop><vdop>2.75</vdop><extensions><gom:speed>0.07</gom:speed></extensions></trkpt>
   <trkpt lat="59.3274649859" lon="34.7008915931"><ele>168.31</ele><time>2026-08-17T04:07:44.645Z</time><hdop>3.0</hdop><vdop>2.937</vdop><extensions><gom:speed>0.071</gom:speed></extensions></trkpt>
   <trkpt lat="59.3274648602" lon="34.7008916769"><ele>168.311</ele><time>2026-08-17T04:07:45.645Z</time><hdop>3.0</hdop><vdop>2.937</vdop><extensions><gom:speed>0.069</gom:speed></extensions></trkpt>
   <trkpt lat="59.3274647764" lon="34.7008915931"><ele>168.312</ele><time>2026-08-17T04:07:46.645Z</time><hdop>3.0</hdop><vdop>3.0</vdop><extensions><gom:speed>0.07</gom:speed></extensions></trkpt>
   <trkpt lat="59.3274647764" lon="34.7008915931"><ele>168.312</ele><time>2026-08-17T04:07:47.645Z</time><hdop>3.0</hdop><vdop>3.0</vdop><extensions><gom:speed>0.073</gom:speed></extensions></trkpt>
   <trkpt lat="59.3274646926" lon="34.7008915931"><ele>168.311</ele><time>2026-08-17T04:07:48.644Z</time><hdop>3.0</hdop><vdop>3.062</vdop><extensions><gom:speed>0.072</gom:speed></extensions></trkpt>
   <trkpt lat="59.3274646926" lon="34.7008915931"><ele>168.309</ele><time>2026-08-17T04:07:49.645Z</time><hdop>3.0</hdop><vdop>2.875</vdop><extensions><gom:speed>0.072</gom:speed></extensions></trkpt>
   <trkpt lat="59.3274646926" lon="34.7008913417"><ele>168.307</ele><time>2026-08-17T04:07:50.645Z</time><hdop>3.0</hdop><vdop>2.687</vdop><extensions><gom:speed>0.072</gom:speed></extensions></trkpt>
   <trkpt lat="59.3274646926" lon="34.7008914255"><ele>168.305</ele><time>2026-08-17T04:07:51.676Z</time><hdop>3.0</hdop><vdop>2.562</vdop><extensions><gom:speed>0.072</gom:speed></extensions></trkpt>
   <trkpt lat="59.3274646926" lon="34.7008914255"><ele>168.303</ele><time>2026-08-17T04:07:52.645Z</time><hdop>3.0</hdop><vdop>2.5</vdop><extensions><gom:speed>0.071</gom:speed></extensions></trkpt>
   <trkpt lat="59.3274646926" lon="34.7008912578"><ele>168.301</ele><time>2026-08-17T04:07:53.646Z</time><hdop>3.0</hdop><vdop>2.5</vdop><extensions><gom:speed>0.072</gom:speed></extensions></trkpt>
   <trkpt lat="59.3274647764" lon="34.7008910902"><ele>168.3</ele><time>2026-08-17T04:07:54.509Z</time><hdop>3.0</hdop><vdop>2.5</vdop><extensions><gom:speed>0.072</gom:speed></extensions></trkpt>
   <trkpt lat="59.3274646926" lon="34.7008905873"><ele>168.313</ele><time>2026-08-17T04:07:55.645Z</time><hdop>3.0</hdop><vdop>2.5</vdop><extensions><gom:speed>0.072</gom:speed></extensions></trkpt>
   <trkpt lat="59.3274645668" lon="34.7008901682"><ele>168.335</ele><time>2026-08-17T04:07:56.645Z</time><hdop>3.0</hdop><vdop>2.5</vdop><extensions><gom:speed>0.073</gom:speed></extensions></trkpt>
   <trkpt lat="59.3274645668" lon="34.7008900844"><ele>168.359</ele><time>2026-08-17T04:07:57.645Z</time><hdop>3.0</hdop><vdop>2.5</vdop><extensions><gom:speed>0.073</gom:speed></extensions></trkpt>
   <trkpt lat="59.327464483" lon="34.7008897491"><ele>168.386</ele><time>2026-08-17T04:07:58.645Z</time><hdop>3.0</hdop><vdop>2.625</vdop><extensions><gom:speed>0.068</gom:speed></extensions></trkpt>
   <trkpt lat="59.3274643992" lon="34.7008895815"><ele>168.409</ele><time>2026-08-17T04:07:59.645Z</time><hdop>3.0</hdop><vdop>2.625</vdop><extensions><gom:speed>0.067</gom:speed></extensions></trkpt>
   <trkpt lat="59.3274642735" lon="34.7008895815"><ele>168.424</ele><time>2026-08-17T04:08:00.653Z</time><hdop>3.0</hdop><vdop>2.687</vdop><extensions><gom:speed>0.067</gom:speed></extensions></trkpt>
   <trkpt lat="59.3274641896" lon="34.7008892462"><ele>168.432</ele><time>2026-08-17T04:08:01.645Z</time><hdop>3.0</hdop><vdop>2.687</vdop><extensions><gom:speed>0.068</gom:speed></extensions></trkpt>
   <trkpt lat="59.3274640639" lon="34.7008890785"><ele>168.437</ele><time>2026-08-17T04:08:02.645Z</time><hdop>3.0</hdop><vdop>2.687</vdop><extensions><gom:speed>0.07</gom:speed></extensions></trkpt>
   <trkpt lat="59.3274639801" lon="34.7008890785"><ele>168.442</ele><time>2026-08-17T04:08:03.653Z</time><hdop>3.0</hdop><vdop>2.812</vdop><extensions><gom:speed>0.071</gom:speed></extensions></trkpt>
   <trkpt lat="59.3274638963" lon="34.7008891624"><ele>168.447</ele><time>2026-08-17T04:08:04.645Z</time><hdop>3.0</hdop><vdop>2.875</vdop><extensions><gom:speed>0.072</gom:speed></extensions></trkpt>
   <trkpt lat="59.3274638963" lon="34.7008889947"><ele>168.451</ele><time>2026-08-17T04:08:05.644Z</time><hdop>3.0</hdop><vdop>2.875</vdop><extensions><gom:speed>0.072</gom:speed></extensions></trkpt>
   <trkpt lat="59.3274638963" lon="34.7008888271"><ele>168.452</ele><time>2026-08-17T04:08:06.346Z</time><hdop>3.0</hdop><vdop>2.875</vdop><extensions><gom:speed>0.072</gom:speed></extensions></trkpt>
   <trkpt lat="59.3274637705" lon="34.7008887433"><ele>168.453</ele><time>2026-08-17T04:08:07.645Z</time><hdop>3.0</hdop><vdop>2.75</vdop><extensions><gom:speed>0.074</gom:speed></extensions></trkpt>
   <trkpt lat="59.3274636867" lon="34.7008887433"><ele>168.454</ele><time>2026-08-17T04:08:08.652Z</time><hdop>3.0</hdop><vdop>2.625</vdop><extensions><gom:speed>0.074</gom:speed></extensions></trkpt>
   <trkpt lat="59.3274636867" lon="34.7008884918"><ele>168.453</ele><time>2026-08-17T04:08:09.645Z</time><hdop>3.0</hdop><vdop>2.5</vdop><extensions><gom:speed>0.072</gom:speed></extensions></trkpt>
   <trkpt lat="59.3274636867" lon="34.7008883242"><ele>168.45</ele><time>2026-08-17T04:08:10.652Z</time><hdop>3.0</hdop><vdop>2.5</vdop><extensions><gom:speed>0.072</gom:speed></extensions></trkpt>
   <trkpt lat="59.3274637705" lon="34.7008882404"><ele>168.448</ele><time>2026-08-17T04:08:11.645Z</time><hdop>3.0</hdop><vdop>2.5</vdop><extensions><gom:speed>0.071</gom:speed></extensions></trkpt>
   <trkpt lat="59.3274636867" lon="34.7008881565"><ele>168.448</ele><time>2026-08-17T04:08:12.644Z</time><hdop>3.0</hdop><vdop>2.5</vdop><extensions><gom:speed>0.07</gom:speed></extensions></trkpt>
   <trkpt lat="59.3274636867" lon="34.7008879889"><ele>168.455</ele><time>2026-08-17T04:08:13.645Z</time><hdop>3.0</hdop><vdop>2.5</vdop><extensions><gom:speed>0.071</gom:speed></extensions></trkpt>
   <trkpt lat="59.3274637705" lon="34.7008878213"><ele>168.604</ele><time>2026-08-17T04:08:14.645Z</time><hdop>3.0</hdop><vdop>2.5</vdop><extensions><gom:speed>0.123</gom:speed></extensions></trkpt>
   <trkpt lat="59.3274638963" lon="34.7008881565"><ele>168.272</ele><time>2026-08-17T04:08:15.656Z</time><hdop>3.0</hdop><vdop>2.5</vdop><extensions><gom:speed>0.127</gom:speed></extensions></trkpt>
   <trkpt lat="59.3274637705" lon="34.70088933"><ele>167.918</ele><time>2026-08-17T04:08:16.645Z</time><hdop>3.0</hdop><vdop>2.5</vdop><extensions><gom:speed>0.083</gom:speed></extensions></trkpt>
   <trkpt lat="59.3274637705" lon="34.7008895815"><ele>167.708</ele><time>2026-08-17T04:08:17.652Z</time><hdop>3.0</hdop><vdop>2.5</vdop><extensions><gom:speed>0.083</gom:speed></extensions></trkpt>
   <trkpt lat="59.3274636867" lon="34.7008909226"><ele>167.585</ele><time>2026-08-17T04:08:18.645Z</time><hdop>3.0</hdop><vdop>2.5</vdop><extensions><gom:speed>0.072</gom:speed></extensions></trkpt>
   <trkpt lat="59.3274634772" lon="34.7008919284"><ele>167.51</ele><time>2026-08-17T04:08:19.644Z</time><hdop>3.0</hdop><vdop>2.5</vdop><extensions><gom:speed>0.07</gom:speed></extensions></trkpt>
   <trkpt lat="59.3274632676" lon="34.7008923475"><ele>167.466</ele><time>2026-08-17T04:08:20.653Z</time><hdop>3.0</hdop><vdop>2.5</vdop><extensions><gom:speed>0.07</gom:speed></extensions></trkpt>
   <trkpt lat="59.3274629743" lon="34.7008934371"><ele>167.443</ele><time>2026-08-17T04:08:21.646Z</time><hdop>3.0</hdop><vdop>2.5</vdop><extensions><gom:speed>0.07</gom:speed></extensions></trkpt>
   <trkpt lat="59.3274628904" lon="34.7008939401"><ele>167.432</ele><time>2026-08-17T04:08:22.652Z</time><hdop>3.0</hdop><vdop>2.5</vdop><extensions><gom:speed>0.071</gom:speed></extensions></trkpt>
   <trkpt lat="59.3274627647" lon="34.7008940239"><ele>167.425</ele><time>2026-08-17T04:08:23.142Z</time><hdop>3.0</hdop><vdop>2.5</vdop><extensions><gom:speed>0.071</gom:speed></extensions></trkpt>
   <trkpt lat="59.3274626809" lon="34.7008946944"><ele>167.422</ele><time>2026-08-17T04:08:23.648Z</time><hdop>3.0</hdop><vdop>2.5</vdop><extensions><gom:speed>0.072</gom:speed></extensions></trkpt>
   <trkpt lat="59.3274624713" lon="34.7008952812"><ele>167.448</ele><time>2026-08-17T04:08:24.659Z</time><hdop>3.0</hdop><vdop>2.5</vdop><extensions><gom:speed>0.121</gom:speed></extensions></trkpt>
   <trkpt lat="59.3274622618" lon="34.7008960355"><ele>167.462</ele><time>2026-08-17T04:08:25.645Z</time><hdop>3.0</hdop><vdop>2.5</vdop><extensions><gom:speed>0.089</gom:speed></extensions></trkpt>
   <trkpt lat="59.3274622618" lon="34.7008965384"><ele>167.47</ele><time>2026-08-17T04:08:26.646Z</time><hdop>3.0</hdop><vdop>2.5</vdop><extensions><gom:speed>0.072</gom:speed></extensions></trkpt>
   <trkpt lat="59.3274622618" lon="34.7008968737"><ele>167.475</ele><time>2026-08-17T04:08:27.652Z</time><hdop>3.0</hdop><vdop>2.5</vdop><extensions><gom:speed>0.073</gom:speed></extensions></trkpt>
   <trkpt lat="59.3274624713" lon="34.7008967899"><ele>167.524</ele><time>2026-08-17T04:08:28.645Z</time><hdop>3.0</hdop><vdop>2.5</vdop><extensions><gom:speed>0.1</gom:speed></extensions></trkpt>
   <trkpt lat="59.3274623875" lon="34.7008970414"><ele>167.553</ele><time>2026-08-17T04:08:29.644Z</time><hdop>3.0</hdop><vdop>2.5</vdop><extensions><gom:speed>0.068</gom:speed></extensions></trkpt>
   <trkpt lat="59.3274624713" lon="34.7008974605"><ele>167.57</ele><time>2026-08-17T04:08:30.644Z</time><hdop>3.0</hdop><vdop>2.5</vdop><extensions><gom:speed>0.058</gom:speed></extensions></trkpt>
   <trkpt lat="59.3274625971" lon="34.7008976281"><ele>167.579</ele><time>2026-08-17T04:08:31.645Z</time><hdop>3.0</hdop><vdop>2.5</vdop><extensions><gom:speed>0.055</gom:speed></extensions></trkpt>
   <trkpt lat="59.3274626809" lon="34.7008979634"><ele>167.584</ele><time>2026-08-17T04:08:32.645Z</time><hdop>3.0</hdop><vdop>2.5</vdop><extensions><gom:speed>0.055</gom:speed></extensions></trkpt>
   <trkpt lat="59.3274626809" lon="34.7008979634"><ele>167.587</ele><time>2026-08-17T04:08:33.166Z</time><hdop>3.0</hdop><vdop>2.5</vdop><extensions><gom:speed>0.056</gom:speed></extensions></trkpt>
   <trkpt lat="59.3274627647" lon="34.7008980472"><ele>167.588</ele><time>2026-08-17T04:08:33.644Z</time><hdop>3.0</hdop><vdop>2.5</vdop><extensions><gom:speed>0.055</gom:speed></extensions></trkpt>
   <trkpt lat="59.3274627647" lon="34.7008983825"><ele>167.588</ele><time>2026-08-17T04:08:34.645Z</time><hdop>3.0</hdop><vdop>2.5</vdop><extensions><gom:speed>0.054</gom:speed></extensions></trkpt>
   <trkpt lat="59.3274627647" lon="34.7008983825"><ele>167.481</ele><time>2026-08-17T04:08:35.646Z</time><hdop>3.0</hdop><vdop>2.5</vdop><extensions><gom:speed>0.113</gom:speed></extensions></trkpt>
   <trkpt lat="59.3274626809" lon="34.7008987177"><ele>167.417</ele><time>2026-08-17T04:08:36.645Z</time><hdop>3.0</hdop><vdop>2.5</vdop><extensions><gom:speed>0.096</gom:speed></extensions></trkpt>
   <trkpt lat="59.3274627647" lon="34.7008987177"><ele>167.378</ele><time>2026-08-17T04:08:37.644Z</time><hdop>3.0</hdop><vdop>2.5</vdop><extensions><gom:speed>0.088</gom:speed></extensions></trkpt>
   <trkpt lat="59.3274628904" lon="34.7008989692"><ele>167.352</ele><time>2026-08-17T04:08:38.645Z</time><hdop>3.0</hdop><vdop>2.5</vdop><extensions><gom:speed>0.079</gom:speed></extensions></trkpt>
   <trkpt lat="59.3274628904" lon="34.7008988854"><ele>167.337</ele><time>2026-08-17T04:08:39.362Z</time><hdop>3.0</hdop><vdop>2.5</vdop><extensions><gom:speed>0.079</gom:speed></extensions></trkpt>
   <trkpt lat="59.3274627647" lon="34.7008992207"><ele>167.326</ele><time>2026-08-17T04:08:40.646Z</time><hdop>3.0</hdop><vdop>2.5</vdop><extensions><gom:speed>0.066</gom:speed></extensions></trkpt>
   <trkpt lat="59.3274627647" lon="34.7008992207"><ele>167.324</ele><time>2026-08-17T04:08:41.646Z</time><hdop>3.0</hdop><vdop>2.5</vdop><extensions><gom:speed>0.064</gom:speed></extensions></trkpt>
   <trkpt lat="59.3274627647" lon="34.7008993883"><ele>167.319</ele><time>2026-08-17T04:08:42.644Z</time><hdop>3.0</hdop><vdop>2.5</vdop><extensions><gom:speed>0.064</gom:speed></extensions></trkpt>
   <trkpt lat="59.3274627647" lon="34.7008994721"><ele>167.313</ele><time>2026-08-17T04:08:43.645Z</time><hdop>3.0</hdop><vdop>2.5</vdop><extensions><gom:speed>0.06</gom:speed></extensions></trkpt>
   <trkpt lat="59.3274626809" lon="34.7008996397"><ele>167.308</ele><time>2026-08-17T04:08:44.645Z</time><hdop>3.0</hdop><vdop>2.5</vdop><extensions><gom:speed>0.062</gom:speed></extensions></trkpt>
   <trkpt lat="59.3274626809" lon="34.7008998912"><ele>167.307</ele><time>2026-08-17T04:08:45.652Z</time><hdop>3.0</hdop><vdop>2.5</vdop><extensions><gom:speed>0.062</gom:speed></extensions></trkpt>
   <trkpt lat="59.3274625971" lon="34.700899975"><ele>167.303</ele><time>2026-08-17T04:08:46.645Z</time><hdop>3.0</hdop><vdop>2.5</vdop><extensions><gom:speed>0.064</gom:speed></extensions></trkpt>
   <trkpt lat="59.3274625971" lon="34.7009000588"><ele>167.3</ele><time>2026-08-17T04:08:47.657Z</time><hdop>3.0</hdop><vdop>2.5</vdop><extensions><gom:speed>0.064</gom:speed></extensions></trkpt>
   <trkpt lat="59.3274624713" lon="34.7009000588"><ele>167.298</ele><time>2026-08-17T04:08:48.645Z</time><hdop>3.0</hdop><vdop>2.5</vdop><extensions><gom:speed>0.064</gom:speed></extensions></trkpt>
   <trkpt lat="59.3274625971" lon="34.7009000588"><ele>167.296</ele><time>2026-08-17T04:08:49.645Z</time><hdop>3.0</hdop><vdop>2.5</vdop><extensions><gom:speed>0.064</gom:speed></extensions></trkpt>
   <trkpt lat="59.3274625971" lon="34.700899975"><ele>167.295</ele><time>2026-08-17T04:08:50.490Z</time><hdop>3.0</hdop><vdop>2.5</vdop><extensions><gom:speed>0.064</gom:speed></extensions></trkpt>
   <trkpt lat="59.3274622618" lon="34.7009001427"><ele>167.289</ele><time>2026-08-17T04:08:51.652Z</time><hdop>3.0</hdop><vdop>2.5</vdop><extensions><gom:speed>0.07</gom:speed></extensions></trkpt>
   <trkpt lat="59.3274622618" lon="34.7009000588"><ele>167.286</ele><time>2026-08-17T04:08:52.645Z</time><hdop>3.0</hdop><vdop>2.5</vdop><extensions><gom:speed>0.073</gom:speed></extensions></trkpt>
   <trkpt lat="59.3274622618" lon="34.7009001427"><ele>167.283</ele><time>2026-08-17T04:08:53.645Z</time><hdop>3.0</hdop><vdop>2.5</vdop><extensions><gom:speed>0.071</gom:speed></extensions></trkpt>
   <trkpt lat="59.3274622618" lon="34.7009001427"><ele>167.277</ele><time>2026-08-17T04:08:54.646Z</time><hdop>3.0</hdop><vdop>2.5</vdop><extensions><gom:speed>0.07</gom:speed></extensions></trkpt>
   <trkpt lat="59.3274622618" lon="34.7009002265"><ele>167.274</ele><time>2026-08-17T04:08:55.650Z</time><hdop>3.0</hdop><vdop>2.5</vdop><extensions><gom:speed>0.07</gom:speed></extensions></trkpt>
   <trkpt lat="59.3274622618" lon="34.7009001427"><ele>167.271</ele><time>2026-08-17T04:08:56.645Z</time><hdop>3.0</hdop><vdop>2.5</vdop><extensions><gom:speed>0.072</gom:speed></extensions></trkpt>
   <trkpt lat="59.3274622618" lon="34.7009002265"><ele>167.275</ele><time>2026-08-17T04:08:57.652Z</time><hdop>3.0</hdop><vdop>2.5</vdop><extensions><gom:speed>0.072</gom:speed></extensions></trkpt>
   <trkpt lat="59.3274622618" lon="34.7008997236"><ele>167.275</ele><time>2026-08-17T04:08:58.645Z</time><hdop>3.0</hdop><vdop>2.5</vdop><extensions><gom:speed>0.068</gom:speed></extensions></trkpt>
   <trkpt lat="59.3274623875" lon="34.7008996397"><ele>167.275</ele><time>2026-08-17T04:08:59.644Z</time><hdop>3.0</hdop><vdop>2.5</vdop><extensions><gom:speed>0.068</gom:speed></extensions></trkpt>
   <trkpt lat="59.3274623875" lon="34.7008995559"><ele>167.274</ele><time>2026-08-17T04:09:00.652Z</time><hdop>3.0</hdop><vdop>2.5</vdop><extensions><gom:speed>0.069</gom:speed></extensions></trkpt>
   <trkpt lat="59.3274623875" lon="34.7008994721"><ele>167.273</ele><time>2026-08-17T04:09:01.115Z</time><hdop>3.0</hdop><vdop>2.5</vdop><extensions><gom:speed>0.068</gom:speed></extensions></trkpt>
   <trkpt lat="59.3274624713" lon="34.7008993883"><ele>167.27</ele><time>2026-08-17T04:09:01.645Z</time><hdop>3.0</hdop><vdop>2.5</vdop><extensions><gom:speed>0.066</gom:speed></extensions></trkpt>
   <trkpt lat="59.3274624713" lon="34.7008991368"><ele>167.269</ele><time>2026-08-17T04:09:02.644Z</time><hdop>3.0</hdop><vdop>2.5</vdop><extensions><gom:speed>0.065</gom:speed></extensions></trkpt>
   <trkpt lat="59.3274625971" lon="34.7008989692"><ele>167.267</ele><time>2026-08-17T04:09:03.645Z</time><hdop>3.0</hdop><vdop>2.5</vdop><extensions><gom:speed>0.064</gom:speed></extensions></trkpt>
   <trkpt lat="59.3274626809" lon="34.7008989692"><ele>167.268</ele><time>2026-08-17T04:09:04.646Z</time><hdop>3.0</hdop><vdop>2.5</vdop><extensions><gom:speed>0.063</gom:speed></extensions></trkpt>
   <trkpt lat="59.3274625971" lon="34.7008988854"><ele>167.269</ele><time>2026-08-17T04:09:05.645Z</time><hdop>3.0</hdop><vdop>2.5</vdop><extensions><gom:speed>0.064</gom:speed></extensions></trkpt>
   <trkpt lat="59.3274624713" lon="34.7008986339"><ele>167.268</ele><time>2026-08-17T04:09:06.646Z</time><hdop>3.0</hdop><vdop>2.5</vdop><extensions><gom:speed>0.066</gom:speed></extensions></trkpt>
   <trkpt lat="59.3274624713" lon="34.7008984663"><ele>167.267</ele><time>2026-08-17T04:09:07.644Z</time><hdop>3.0</hdop><vdop>2.5</vdop><extensions><gom:speed>0.068</gom:speed></extensions></trkpt>
   <trkpt lat="59.3274623875" lon="34.7008982986"><ele>167.272</ele><time>2026-08-17T04:09:08.645Z</time><hdop>3.0</hdop><vdop>2.5</vdop><extensions><gom:speed>0.066</gom:speed></extensions></trkpt>
   <trkpt lat="59.3274623875" lon="34.7008982986"><ele>167.274</ele><time>2026-08-17T04:09:09.652Z</time><hdop>3.0</hdop><vdop>2.5</vdop><extensions><gom:speed>0.067</gom:speed></extensions></trkpt>
   <trkpt lat="59.3274624713" lon="34.7008980472"><ele>167.276</ele><time>2026-08-17T04:09:10.645Z</time><hdop>3.0</hdop><vdop>2.5</vdop><extensions><gom:speed>0.067</gom:speed></extensions></trkpt>
   <trkpt lat="59.3274623875" lon="34.7008978795"><ele>167.28</ele><time>2026-08-17T04:09:11.652Z</time><hdop>3.0</hdop><vdop>2.5</vdop><extensions><gom:speed>0.068</gom:speed></extensions></trkpt>
   <trkpt lat="59.3274623875" lon="34.7008975443"><ele>167.286</ele><time>2026-08-17T04:09:12.648Z</time><hdop>3.0</hdop><vdop>2.5</vdop><extensions><gom:speed>0.067</gom:speed></extensions></trkpt>
   <trkpt lat="59.3274624713" lon="34.7008971252"><ele>167.231</ele><time>2026-08-17T04:09:13.644Z</time><hdop>3.0</hdop><vdop>2.5</vdop><extensions><gom:speed>0.186</gom:speed></extensions></trkpt>
   <trkpt lat="59.3274624713" lon="34.7008972928"><ele>167.198</ele><time>2026-08-17T04:09:14.318Z</time><hdop>3.0</hdop><vdop>2.5</vdop><extensions><gom:speed>0.187</gom:speed></extensions></trkpt>
   <trkpt lat="59.3274625971" lon="34.7008969575"><ele>167.174</ele><time>2026-08-17T04:09:15.056Z</time><hdop>3.0</hdop><vdop>2.5</vdop><extensions><gom:speed>0.174</gom:speed></extensions></trkpt>
   <trkpt lat="59.3274625971" lon="34.7008965384"><ele>167.326</ele><time>2026-08-17T04:09:15.645Z</time><hdop>3.0</hdop><vdop>2.5</vdop><extensions><gom:speed>0.397</gom:speed></extensions></trkpt>
   <trkpt lat="59.3274627647" lon="34.7008965384"><ele>167.417</ele><time>2026-08-17T04:09:16.443Z</time><hdop>3.0</hdop><vdop>2.5</vdop><extensions><gom:speed>0.399</gom:speed></extensions></trkpt>
   <trkpt lat="59.3274627647" lon="34.7008954488"><ele>167.8</ele><time>2026-08-17T04:09:16.938Z</time><hdop>3.062</hdop><vdop>2.5</vdop><extensions><gom:speed>0.519</gom:speed></extensions></trkpt>
   <trkpt lat="59.3274626809" lon="34.7008946944"><ele>167.998</ele><time>2026-08-17T04:09:17.645Z</time><hdop>3.125</hdop><vdop>2.5</vdop><extensions><gom:speed>0.429</gom:speed></extensions></trkpt>
   <trkpt lat="59.3274628904" lon="34.7008939401"><ele>168.117</ele><time>2026-08-17T04:09:18.142Z</time><hdop>3.187</hdop><vdop>2.5</vdop><extensions><gom:speed>0.222</gom:speed></extensions></trkpt>
   <trkpt lat="59.3274627647" lon="34.7008939401"><ele>168.262</ele><time>2026-08-17T04:09:18.645Z</time><hdop>3.187</hdop><vdop>2.5</vdop><extensions><gom:speed>0.23</gom:speed></extensions></trkpt>
   <trkpt lat="59.327463561" lon="34.7008918446"><ele>168.396</ele><time>2026-08-17T04:09:19.645Z</time><hdop>3.312</hdop><vdop>2.5</vdop><extensions><gom:speed>0.185</gom:speed></extensions></trkpt>
   <trkpt lat="59.327465866" lon="34.7008860611"><ele>168.475</ele><time>2026-08-17T04:09:20.645Z</time><hdop>3.312</hdop><vdop>2.5</vdop><extensions><gom:speed>0.113</gom:speed></extensions></trkpt>
   <trkpt lat="59.3274661594" lon="34.7008849714"><ele>168.522</ele><time>2026-08-17T04:09:21.654Z</time><hdop>3.312</hdop><vdop>2.5</vdop><extensions><gom:speed>0.033</gom:speed></extensions></trkpt>
   <trkpt lat="59.3274692607" lon="34.7008806966"><ele>168.545</ele><time>2026-08-17T04:09:22.644Z</time><hdop>3.25</hdop><vdop>2.5</vdop><extensions><gom:speed>0.09</gom:speed></extensions></trkpt>
   <trkpt lat="59.3274700989" lon="34.7008787688"><ele>168.558</ele><time>2026-08-17T04:09:23.652Z</time><hdop>3.125</hdop><vdop>2.5</vdop><extensions><gom:speed>0.027</gom:speed></extensions></trkpt>
   <trkpt lat="59.3274715657" lon="34.7008772601"><ele>168.566</ele><time>2026-08-17T04:09:24.644Z</time><hdop>3.062</hdop><vdop>2.5</vdop><extensions><gom:speed>0.1</gom:speed></extensions></trkpt>
   <trkpt lat="59.3274724877" lon="34.7008784335"><ele>168.572</ele><time>2026-08-17T04:09:25.652Z</time><hdop>3.0</hdop><vdop>2.5</vdop><extensions><gom:speed>0.022</gom:speed></extensions></trkpt>
   <trkpt lat="59.3274730745" lon="34.7008769248"><ele>168.557</ele><time>2026-08-17T04:09:26.645Z</time><hdop>3.0</hdop><vdop>2.5</vdop><extensions><gom:speed>0.096</gom:speed></extensions></trkpt>
   <trkpt lat="59.3274734936" lon="34.7008762542"><ele>168.539</ele><time>2026-08-17T04:09:27.645Z</time><hdop>3.0</hdop><vdop>2.5</vdop><extensions><gom:speed>0.08</gom:speed></extensions></trkpt>
   <trkpt lat="59.3274734936" lon="34.7008764219"><ele>168.528</ele><time>2026-08-17T04:09:28.331Z</time><hdop>3.0</hdop><vdop>2.5</vdop><extensions><gom:speed>0.07</gom:speed></extensions></trkpt>
   <trkpt lat="59.3274734936" lon="34.7008755837"><ele>168.526</ele><time>2026-08-17T04:09:29.646Z</time><hdop>3.0</hdop><vdop>2.5</vdop><extensions><gom:speed>0.109</gom:speed></extensions></trkpt>
   <trkpt lat="59.3274738707" lon="34.7008750808"><ele>168.523</ele><time>2026-08-17T04:09:30.645Z</time><hdop>3.0</hdop><vdop>2.5</vdop><extensions><gom:speed>0.09</gom:speed></extensions></trkpt>
   <trkpt lat="59.3274735774" lon="34.7008739911"><ele>168.523</ele><time>2026-08-17T04:09:31.645Z</time><hdop>3.0</hdop><vdop>2.5</vdop><extensions><gom:speed>0.079</gom:speed></extensions></trkpt>
   <trkpt lat="59.3274736612" lon="34.7008721471"><ele>168.53</ele><time>2026-08-17T04:09:32.645Z</time><hdop>3.0</hdop><vdop>2.5</vdop><extensions><gom:speed>0.097</gom:speed></extensions></trkpt>
   <trkpt lat="59.3274736612" lon="34.7008728177"><ele>168.53</ele><time>2026-08-17T04:09:33.652Z</time><hdop>3.0</hdop><vdop>2.5</vdop><extensions><gom:speed>0.017</gom:speed></extensions></trkpt>
   <trkpt lat="59.3274747927" lon="34.7008708898"><ele>168.53</ele><time>2026-08-17T04:09:34.645Z</time><hdop>3.0</hdop><vdop>2.5</vdop><extensions><gom:speed>0.09</gom:speed></extensions></trkpt>
   <trkpt lat="59.3274757986" lon="34.7008709736"><ele>168.53</ele><time>2026-08-17T04:09:35.652Z</time><hdop>3.0</hdop><vdop>2.5</vdop><extensions><gom:speed>0.017</gom:speed></extensions></trkpt>
   <trkpt lat="59.3274762596" lon="34.7008692973"><ele>168.53</ele><time>2026-08-17T04:09:36.645Z</time><hdop>3.0</hdop><vdop>2.5</vdop><extensions><gom:speed>0.083</gom:speed></extensions></trkpt>
   <trkpt lat="59.3274770978" lon="34.7008695487"><ele>168.529</ele><time>2026-08-17T04:09:37.652Z</time><hdop>3.0</hdop><vdop>2.5</vdop><extensions><gom:speed>0.018</gom:speed></extensions></trkpt>
   <trkpt lat="59.3274771816" lon="34.7008684591"><ele>168.53</ele><time>2026-08-17T04:09:38.651Z</time><hdop>3.0</hdop><vdop>2.5</vdop><extensions><gom:speed>0.074</gom:speed></extensions></trkpt>
   <trkpt lat="59.3274771816" lon="34.7008681238"><ele>168.53</ele><time>2026-08-17T04:09:39.460Z</time><hdop>3.0</hdop><vdop>2.5</vdop><extensions><gom:speed>0.005</gom:speed></extensions></trkpt>
   <trkpt lat="59.3274772654" lon="34.7008675371"><ele>168.527</ele><time>2026-08-17T04:09:40.652Z</time><hdop>3.0</hdop><vdop>2.5</vdop><extensions><gom:speed>0.016</gom:speed></extensions></trkpt>
   <trkpt lat="59.3274773911" lon="34.7008670341"><ele>168.527</ele><time>2026-08-17T04:09:41.646Z</time><hdop>3.0</hdop><vdop>2.5</vdop><extensions><gom:speed>0.033</gom:speed></extensions></trkpt>
   <trkpt lat="59.3274773911" lon="34.7008670341"><ele>168.528</ele><time>2026-08-17T04:09:42.652Z</time><hdop>3.0</hdop><vdop>2.5</vdop><extensions><gom:speed>0.034</gom:speed></extensions></trkpt>
   <trkpt lat="59.327477475" lon="34.7008665312"><ele>168.528</ele><time>2026-08-17T04:09:43.645Z</time><hdop>3.0</hdop><vdop>2.5</vdop><extensions><gom:speed>0.045</gom:speed></extensions></trkpt>
   <trkpt lat="59.3274775588" lon="34.7008663636"><ele>168.531</ele><time>2026-08-17T04:09:44.644Z</time><hdop>3.0</hdop><vdop>2.5</vdop><extensions><gom:speed>0.051</gom:speed></extensions></trkpt>
   <trkpt lat="59.3274776845" lon="34.7008663636"><ele>168.534</ele><time>2026-08-17T04:09:45.645Z</time><hdop>3.0</hdop><vdop>2.5</vdop><extensions><gom:speed>0.055</gom:speed></extensions></trkpt>
   <trkpt lat="59.3274776845" lon="34.700866196"><ele>168.537</ele><time>2026-08-17T04:09:46.645Z</time><hdop>3.0</hdop><vdop>2.5</vdop><extensions><gom:speed>0.103</gom:speed></extensions></trkpt>
   <trkpt lat="59.3274777683" lon="34.7008663636"><ele>168.538</ele><time>2026-08-17T04:09:47.645Z</time><hdop>3.0</hdop><vdop>2.5</vdop><extensions><gom:speed>0.087</gom:speed></extensions></trkpt>
   <trkpt lat="59.3274777683" lon="34.7008660283"><ele>168.54</ele><time>2026-08-17T04:09:48.645Z</time><hdop>3.0</hdop><vdop>2.5</vdop><extensions><gom:speed>0.077</gom:speed></extensions></trkpt>
   <trkpt lat="59.3274776845" lon="34.7008659445"><ele>168.542</ele><time>2026-08-17T04:09:49.645Z</time><hdop>3.0</hdop><vdop>2.5</vdop><extensions><gom:speed>0.07</gom:speed></extensions></trkpt>
   <trkpt lat="59.3274776845" lon="34.7008658607"><ele>168.54</ele><time>2026-08-17T04:09:50.645Z</time><hdop>3.0</hdop><vdop>2.5</vdop><extensions><gom:speed>0.066</gom:speed></extensions></trkpt>
   <trkpt lat="59.3274776845" lon="34.7008657769"><ele>168.542</ele><time>2026-08-17T04:09:51.646Z</time><hdop>3.0</hdop><vdop>2.5</vdop><extensions><gom:speed>0.065</gom:speed></extensions></trkpt>
   <trkpt lat="59.3274776845" lon="34.7008658607"><ele>168.449</ele><time>2026-08-17T04:09:52.652Z</time><hdop>3.0</hdop><vdop>2.5</vdop><extensions><gom:speed>0.065</gom:speed></extensions></trkpt>
   <trkpt lat="59.3274778941" lon="34.7008657769"><ele>168.383</ele><time>2026-08-17T04:09:53.645Z</time><hdop>3.0</hdop><vdop>2.5</vdop><extensions><gom:speed>0.063</gom:speed></extensions></trkpt>
   <trkpt lat="59.3274779779" lon="34.7008655254"><ele>168.343</ele><time>2026-08-17T04:09:54.182Z</time><hdop>3.0</hdop><vdop>2.5</vdop><extensions><gom:speed>0.063</gom:speed></extensions></trkpt>
   <trkpt lat="59.3274779779" lon="34.7008657769"><ele>168.486</ele><time>2026-08-17T04:09:54.652Z</time><hdop>3.0</hdop><vdop>2.5</vdop><extensions><gom:speed>0.063</gom:speed></extensions></trkpt>
   <trkpt lat="59.3274787742" lon="34.7008667827"><ele>168.584</ele><time>2026-08-17T04:09:55.649Z</time><hdop>3.0</hdop><vdop>2.5</vdop><extensions><gom:speed>1.049</gom:speed></extensions></trkpt>
   <trkpt lat="59.3274794866" lon="34.7008646872"><ele>168.642</ele><time>2026-08-17T04:09:56.155Z</time><hdop>3.0</hdop><vdop>2.5</vdop><extensions><gom:speed>0.16</gom:speed></extensions></trkpt>
   <trkpt lat="59.327481163" lon="34.7008618374"><ele>168.676</ele><time>2026-08-17T04:09:56.645Z</time><hdop>3.0</hdop><vdop>2.5</vdop><extensions><gom:speed>0.079</gom:speed></extensions></trkpt>
   <trkpt lat="59.3274812887" lon="34.7008604963"><ele>168.696</ele><time>2026-08-17T04:09:57.652Z</time><hdop>3.0</hdop><vdop>2.5</vdop><extensions><gom:speed>0.08</gom:speed></extensions></trkpt>
   <trkpt lat="59.3274823784" lon="34.7008594904"><ele>168.707</ele><time>2026-08-17T04:09:58.645Z</time><hdop>3.0</hdop><vdop>2.5</vdop><extensions><gom:speed>0.067</gom:speed></extensions></trkpt>
   <trkpt lat="59.3274827975" lon="34.7008591552"><ele>168.713</ele><time>2026-08-17T04:09:59.652Z</time><hdop>3.0</hdop><vdop>2.5</vdop><extensions><gom:speed>0.068</gom:speed></extensions></trkpt>
   <trkpt lat="59.3274835937" lon="34.7008587361"><ele>168.716</ele><time>2026-08-17T04:10:00.646Z</time><hdop>3.0</hdop><vdop>2.5</vdop><extensions><gom:speed>0.058</gom:speed></extensions></trkpt>
   <trkpt lat="59.3274838871" lon="34.7008586522"><ele>168.514</ele><time>2026-08-17T04:10:01.652Z</time><hdop>3.0</hdop><vdop>2.5</vdop><extensions><gom:speed>0.058</gom:speed></extensions></trkpt>
   <trkpt lat="59.3274863598" lon="34.7008582331"><ele>168.251</ele><time>2026-08-17T04:10:02.645Z</time><hdop>3.0</hdop><vdop>2.5</vdop><extensions><gom:speed>0.188</gom:speed></extensions></trkpt>
   <trkpt lat="59.327486695" lon="34.700858317"><ele>168.093</ele><time>2026-08-17T04:10:03.095Z</time><hdop>3.0</hdop><vdop>2.5</vdop><extensions><gom:speed>0.188</gom:speed></extensions></trkpt>
   <trkpt lat="59.3274883714" lon="34.7008599933"><ele>168.006</ele><time>2026-08-17T04:10:03.645Z</time><hdop>3.0</hdop><vdop>2.5</vdop><extensions><gom:speed>0.142</gom:speed></extensions></trkpt>
   <trkpt lat="59.3274891677" lon="34.7008614183"><ele>168.078</ele><time>2026-08-17T04:10:04.655Z</time><hdop>3.0</hdop><vdop>2.5</vdop><extensions><gom:speed>0.159</gom:speed></extensions></trkpt>
   <trkpt lat="59.3274930653" lon="34.7008625917"><ele>168.124</ele><time>2026-08-17T04:10:05.665Z</time><hdop>3.0</hdop><vdop>2.5</vdop><extensions><gom:speed>0.196</gom:speed></extensions></trkpt>
   <trkpt lat="59.327495496" lon="34.700863849"><ele>168.303</ele><time>2026-08-17T04:10:06.652Z</time><hdop>3.0</hdop><vdop>2.5</vdop><extensions><gom:speed>0.142</gom:speed></extensions></trkpt>
   <trkpt lat="59.3274963761" lon="34.7008645196"><ele>168.41</ele><time>2026-08-17T04:10:07.385Z</time><hdop>3.0</hdop><vdop>2.5</vdop><extensions><gom:speed>0.156</gom:speed></extensions></trkpt>
   <trkpt lat="59.32749646" lon="34.7008649387"><ele>168.474</ele><time>2026-08-17T04:10:08.652Z</time><hdop>3.0</hdop><vdop>2.5</vdop><extensions><gom:speed>0.039</gom:speed></extensions></trkpt>
   <trkpt lat="59.3274961666" lon="34.7008666989"><ele>168.359</ele><time>2026-08-17T04:10:09.645Z</time><hdop>3.0</hdop><vdop>2.5</vdop><extensions><gom:speed>0.141</gom:speed></extensions></trkpt>
   <trkpt lat="59.327495999" lon="34.7008662798"><ele>168.308</ele><time>2026-08-17T04:10:10.652Z</time><hdop>3.0</hdop><vdop>2.5</vdop><extensions><gom:speed>0.08</gom:speed></extensions></trkpt>
   <trkpt lat="59.327495999" lon="34.7008681238"><ele>168.277</ele><time>2026-08-17T04:10:11.493Z</time><hdop>3.0</hdop><vdop>2.5</vdop><extensions><gom:speed>0.099</gom:speed></extensions></trkpt>
   <trkpt lat="59.3274955799" lon="34.700869884"><ele>168.207</ele><time>2026-08-17T04:10:12.039Z</time><hdop>3.0</hdop><vdop>2.5</vdop><extensions><gom:speed>0.128</gom:speed></extensions></trkpt>
   <trkpt lat="59.3274953703" lon="34.7008707222"><ele>168.022</ele><time>2026-08-17T04:10:12.648Z</time><hdop>3.0</hdop><vdop>2.625</vdop><extensions><gom:speed>0.153</gom:speed></extensions></trkpt>
   <trkpt lat="59.3274937778" lon="34.7008727338"><ele>167.912</ele><time>2026-08-17T04:10:13.233Z</time><hdop>3.0</hdop><vdop>2.625</vdop><extensions><gom:speed>0.163</gom:speed></extensions></trkpt>
   <trkpt lat="59.3274917661" lon="34.7008752484"><ele>167.763</ele><time>2026-08-17T04:10:14.114Z</time><hdop>3.0</hdop><vdop>3.062</vdop><extensions><gom:speed>0.243</gom:speed></extensions></trkpt>
   <trkpt lat="59.3274861921" lon="34.7008764219"><ele>168.033</ele><time>2026-08-17T04:10:14.645Z</time><hdop>3.0</hdop><vdop>3.125</vdop><extensions><gom:speed>0.402</gom:speed></extensions></trkpt>
   <trkpt lat="59.3274763853" lon="34.7008809481"><ele>168.161</ele><time>2026-08-17T04:10:15.645Z</time><hdop>3.0</hdop><vdop>3.312</vdop><extensions><gom:speed>0.509</gom:speed></extensions></trkpt>
   <trkpt lat="59.3274716914" lon="34.700887486"><ele>168.237</ele><time>2026-08-17T04:10:16.604Z</time><hdop>3.0</hdop><vdop>3.312</vdop><extensions><gom:speed>0.521</gom:speed></extensions></trkpt>
   <trkpt lat="59.3274632676" lon="34.7008979634"><ele>168.386</ele><time>2026-08-17T04:10:17.382Z</time><hdop>3.0</hdop><vdop>3.062</vdop><extensions><gom:speed>0.524</gom:speed></extensions></trkpt>
   <trkpt lat="59.3274541733" lon="34.700911123"><ele>168.365</ele><time>2026-08-17T04:10:18.120Z</time><hdop>3.0</hdop><vdop>3.25</vdop><extensions><gom:speed>0.557</gom:speed></extensions></trkpt>
   <trkpt lat="59.3274537961" lon="34.700917577"><ele>168.342</ele><time>2026-08-17T04:10:18.652Z</time><hdop>3.0</hdop><vdop>3.0</vdop><extensions><gom:speed>0.496</gom:speed></extensions></trkpt>
   <trkpt lat="59.3274504852" lon="34.7009211812"><ele>168.328</ele><time>2026-08-17T04:10:19.203Z</time><hdop>3.0</hdop><vdop>3.0</vdop><extensions><gom:speed>0.438</gom:speed></extensions></trkpt>
   <trkpt lat="59.327445959" lon="34.7009320777"><ele>168.1</ele><time>2026-08-17T04:10:19.901Z</time><hdop>3.0</hdop><vdop>2.812</vdop><extensions><gom:speed>0.547</gom:speed></extensions></trkpt>
   <trkpt lat="59.3274427739" lon="34.7009422198"><ele>168.628</ele><time>2026-08-17T04:10:20.645Z</time><hdop>3.0</hdop><vdop>2.875</vdop><extensions><gom:speed>0.494</gom:speed></extensions></trkpt>
   <trkpt lat="59.3274415585" lon="34.7009502664"><ele>168.943</ele><time>2026-08-17T04:10:21.520Z</time><hdop>3.0</hdop><vdop>2.875</vdop><extensions><gom:speed>0.461</gom:speed></extensions></trkpt>
   <trkpt lat="59.32743808" lon="34.7009600733"><ele>169.002</ele><time>2026-08-17T04:10:22.177Z</time><hdop>3.0</hdop><vdop>2.687</vdop><extensions><gom:speed>0.482</gom:speed></extensions></trkpt>
   <trkpt lat="59.3274361941" lon="34.7009664435"><ele>169.046</ele><time>2026-08-17T04:10:22.644Z</time><hdop>3.0</hdop><vdop>2.937</vdop><extensions><gom:speed>0.496</gom:speed></extensions></trkpt>
   <trkpt lat="59.3274347692" lon="34.7009719756"><ele>169.071</ele><time>2026-08-17T04:10:23.361Z</time><hdop>3.0</hdop><vdop>2.937</vdop><extensions><gom:speed>0.423</gom:speed></extensions></trkpt>
   <trkpt lat="59.3274342662" lon="34.7009746578"><ele>169.137</ele><time>2026-08-17T04:10:23.897Z</time><hdop>3.0</hdop><vdop>2.75</vdop><extensions><gom:speed>0.361</gom:speed></extensions></trkpt>
   <trkpt lat="59.3274323803" lon="34.7009817824"><ele>169.345</ele><time>2026-08-17T04:10:24.645Z</time><hdop>3.062</hdop><vdop>2.937</vdop><extensions><gom:speed>0.375</gom:speed></extensions></trkpt>
   <trkpt lat="59.3274314583" lon="34.7009851352"><ele>169.504</ele><time>2026-08-17T04:10:25.652Z</time><hdop>3.125</hdop><vdop>2.625</vdop><extensions><gom:speed>0.266</gom:speed></extensions></trkpt>
   <trkpt lat="59.3274301591" lon="34.7009897452"><ele>169.599</ele><time>2026-08-17T04:10:26.498Z</time><hdop>3.125</hdop><vdop>2.625</vdop><extensions><gom:speed>0.295</gom:speed></extensions></trkpt>
   <trkpt lat="59.3274293628" lon="34.7009936847"><ele>169.59</ele><time>2026-08-17T04:10:27.399Z</time><hdop>3.25</hdop><vdop>2.75</vdop><extensions><gom:speed>0.267</gom:speed></extensions></trkpt>
   <trkpt lat="59.3274290695" lon="34.7009988815"><ele>169.594</ele><time>2026-08-17T04:10:28.258Z</time><hdop>3.375</hdop><vdop>2.625</vdop><extensions><gom:speed>0.258</gom:speed></extensions></trkpt>
   <trkpt lat="59.3274284827" lon="34.7010091912"><ele>170.077</ele><time>2026-08-17T04:10:29.017Z</time><hdop>3.562</hdop><vdop>2.5</vdop><extensions><gom:speed>0.391</gom:speed></extensions></trkpt>
   <trkpt lat="59.3274291952" lon="34.701014388"><ele>170.396</ele><time>2026-08-17T04:10:29.652Z</time><hdop>3.625</hdop><vdop>2.562</vdop><extensions><gom:speed>0.388</gom:speed></extensions></trkpt>
   <trkpt lat="59.3274301591" lon="34.7010219317"><ele>170.586</ele><time>2026-08-17T04:10:30.575Z</time><hdop>3.687</hdop><vdop>2.562</vdop><extensions><gom:speed>0.41</gom:speed></extensions></trkpt>
   <trkpt lat="59.3274308716" lon="34.7010263741"><ele>171.179</ele><time>2026-08-17T04:10:31.652Z</time><hdop>3.812</hdop><vdop>2.562</vdop><extensions><gom:speed>0.282</gom:speed></extensions></trkpt>
   <trkpt lat="59.3274319612" lon="34.70103199"><ele>171.532</ele><time>2026-08-17T04:10:32.639Z</time><hdop>3.875</hdop><vdop>2.562</vdop><extensions><gom:speed>0.304</gom:speed></extensions></trkpt>
   <trkpt lat="59.3274335957" lon="34.7010354266"><ele>171.652</ele><time>2026-08-17T04:10:33.519Z</time><hdop>4.0</hdop><vdop>2.5</vdop><extensions><gom:speed>0.238</gom:speed></extensions></trkpt>
   <trkpt lat="59.3274398821" lon="34.701044479"><ele>171.718</ele><time>2026-08-17T04:10:34.652Z</time><hdop>3.937</hdop><vdop>2.5</vdop><extensions><gom:speed>0.143</gom:speed></extensions></trkpt>
   <trkpt lat="59.3274437797" lon="34.701051436"><ele>171.758</ele><time>2026-08-17T04:10:35.320Z</time><hdop>3.875</hdop><vdop>2.5</vdop><extensions><gom:speed>0.162</gom:speed></extensions></trkpt>
   <trkpt lat="59.3274470906" lon="34.7010658529"><ele>171.946</ele><time>2026-08-17T04:10:36.099Z</time><hdop>3.625</hdop><vdop>2.687</vdop><extensions><gom:speed>0.286</gom:speed></extensions></trkpt>
   <trkpt lat="59.3274477611" lon="34.7010720555"><ele>172.04</ele><time>2026-08-17T04:10:36.646Z</time><hdop>3.562</hdop><vdop>2.5</vdop><extensions><gom:speed>0.307</gom:speed></extensions></trkpt>
   <trkpt lat="59.3274488927" lon="34.7010807727"><ele>171.979</ele><time>2026-08-17T04:10:37.652Z</time><hdop>3.375</hdop><vdop>2.5</vdop><extensions><gom:speed>0.192</gom:speed></extensions></trkpt>
   <trkpt lat="59.3274494794" lon="34.7010881487"><ele>171.959</ele><time>2026-08-17T04:10:38.669Z</time><hdop>3.062</hdop><vdop>2.5</vdop><extensions><gom:speed>0.185</gom:speed></extensions></trkpt>
   <trkpt lat="59.3274497728" lon="34.7010938484"><ele>171.947</ele><time>2026-08-17T04:10:39.297Z</time><hdop>3.062</hdop><vdop>2.5</vdop><extensions><gom:speed>0.203</gom:speed></extensions></trkpt>
   <trkpt lat="59.3274502757" lon="34.7010987938"><ele>171.928</ele><time>2026-08-17T04:10:40.015Z</time><hdop>3.0</hdop><vdop>2.5</vdop><extensions><gom:speed>0.193</gom:speed></extensions></trkpt>
   <trkpt lat="59.3274503595" lon="34.7011010569"><ele>171.906</ele><time>2026-08-17T04:10:40.652Z</time><hdop>3.0</hdop><vdop>2.5</vdop><extensions><gom:speed>0.146</gom:speed></extensions></trkpt>
   <trkpt lat="59.3274507786" lon="34.7011064213"><ele>171.892</ele><time>2026-08-17T04:10:41.614Z</time><hdop>3.0</hdop><vdop>2.5</vdop><extensions><gom:speed>0.153</gom:speed></extensions></trkpt>
   <trkpt lat="59.3274508624" lon="34.7011092711"><ele>171.814</ele><time>2026-08-17T04:10:42.495Z</time><hdop>3.0</hdop><vdop>2.5</vdop><extensions><gom:speed>0.155</gom:speed></extensions></trkpt>
   <trkpt lat="59.3274494794" lon="34.7011185751"><ele>171.773</ele><time>2026-08-17T04:10:43.354Z</time><hdop>3.0</hdop><vdop>2.625</vdop><extensions><gom:speed>0.284</gom:speed></extensions></trkpt>
   <trkpt lat="59.3274457914" lon="34.7011330757"><ele>171.767</ele><time>2026-08-17T04:10:44.153Z</time><hdop>3.0</hdop><vdop>2.75</vdop><extensions><gom:speed>0.496</gom:speed></extensions></trkpt>
   <trkpt lat="59.3274444922" lon="34.7011373505"><ele>171.296</ele><time>2026-08-17T04:10:44.659Z</time><hdop>3.0</hdop><vdop>2.75</vdop><extensions><gom:speed>0.409</gom:speed></extensions></trkpt>
   <trkpt lat="59.3274408879" lon="34.7011469897"><ele>171.015</ele><time>2026-08-17T04:10:45.630Z</time><hdop>3.0</hdop><vdop>2.75</vdop><extensions><gom:speed>0.46</gom:speed></extensions></trkpt>
   <trkpt lat="59.3274352721" lon="34.7011601493"><ele>170.951</ele><time>2026-08-17T04:10:46.480Z</time><hdop>3.0</hdop><vdop>2.937</vdop><extensions><gom:speed>0.504</gom:speed></extensions></trkpt>
   <trkpt lat="59.3274282732" lon="34.7011721354"><ele>170.248</ele><time>2026-08-17T04:10:47.462Z</time><hdop>3.0</hdop><vdop>3.0</vdop><extensions><gom:speed>0.513</gom:speed></extensions></trkpt>
   <trkpt lat="59.3274207714" lon="34.7011793439"><ele>169.861</ele><time>2026-08-17T04:10:48.200Z</time><hdop>3.0</hdop><vdop>2.937</vdop><extensions><gom:speed>0.499</gom:speed></extensions></trkpt>
   <trkpt lat="59.3274124733" lon="34.7011855465"><ele>169.701</ele><time>2026-08-17T04:10:49.284Z</time><hdop>3.0</hdop><vdop>3.0</vdop><extensions><gom:speed>0.352</gom:speed></extensions></trkpt>
   <trkpt lat="59.3274049715" lon="34.7011869714"><ele>169.502</ele><time>2026-08-17T04:10:50.102Z</time><hdop>3.0</hdop><vdop>3.0</vdop><extensions><gom:speed>0.474</gom:speed></extensions></trkpt>
   <trkpt lat="59.3274002776" lon="34.7011859656"><ele>169.748</ele><time>2026-08-17T04:10:50.652Z</time><hdop>3.0</hdop><vdop>3.062</vdop><extensions><gom:speed>0.483</gom:speed></extensions></trkpt>
   <trkpt lat="59.3273916862" lon="34.7011802659"><ele>169.895</ele><time>2026-08-17T04:10:51.276Z</time><hdop>3.0</hdop><vdop>3.062</vdop><extensions><gom:speed>0.592</gom:speed></extensions></trkpt>
   <trkpt lat="59.3273797839" lon="34.7011694532"><ele>169.963</ele><time>2026-08-17T04:10:51.994Z</time><hdop>3.0</hdop><vdop>3.5</vdop><extensions><gom:speed>0.781</gom:speed></extensions></trkpt>
   <trkpt lat="59.3273709829" lon="34.7011643402"><ele>170.092</ele><time>2026-08-17T04:10:52.645Z</time><hdop>3.0</hdop><vdop>3.312</vdop><extensions><gom:speed>0.825</gom:speed></extensions></trkpt>
   <trkpt lat="59.3273621819" lon="34.7011636697"><ele>170.2</ele><time>2026-08-17T04:10:53.644Z</time><hdop>3.0</hdop><vdop>3.437</vdop><extensions><gom:speed>0.641</gom:speed></extensions></trkpt>
   <trkpt lat="59.3273554764" lon="34.701163083"><ele>170.025</ele><time>2026-08-17T04:10:54.645Z</time><hdop>3.0</hdop><vdop>3.437</vdop><extensions><gom:speed>0.563</gom:speed></extensions></trkpt>
   <trkpt lat="59.3273510759" lon="34.7011637535"><ele>169.92</ele><time>2026-08-17T04:10:55.394Z</time><hdop>3.0</hdop><vdop>3.437</vdop><extensions><gom:speed>0.584</gom:speed></extensions></trkpt>
   <trkpt lat="59.3273456695" lon="34.7011611551"><ele>169.886</ele><time>2026-08-17T04:10:56.456Z</time><hdop>3.0</hdop><vdop>3.437</vdop><extensions><gom:speed>0.451</gom:speed></extensions></trkpt>
   <trkpt lat="59.3273425682" lon="34.7011661843"><ele>169.866</ele><time>2026-08-17T04:10:57.630Z</time><hdop>3.0</hdop><vdop>3.437</vdop><extensions><gom:speed>0.396</gom:speed></extensions></trkpt>
   <trkpt lat="59.327337581" lon="34.7011613228"><ele>170.216</ele><time>2026-08-17T04:10:58.257Z</time><hdop>3.062</hdop><vdop>3.375</vdop><extensions><gom:speed>0.313</gom:speed></extensions></trkpt>
   <trkpt lat="59.3273337672" lon="34.7011617419"><ele>170.067</ele><time>2026-08-17T04:10:59.178Z</time><hdop>3.062</hdop><vdop>3.25</vdop><extensions><gom:speed>0.234</gom:speed></extensions></trkpt>
   <trkpt lat="59.3273334739" lon="34.7011617419"><ele>170.41</ele><time>2026-08-17T04:10:59.652Z</time><hdop>3.062</hdop><vdop>3.187</vdop><extensions><gom:speed>0.143</gom:speed></extensions></trkpt>
   <trkpt lat="59.3273202724" lon="34.7011699561"><ele>170.633</ele><time>2026-08-17T04:11:00.644Z</time><hdop>3.062</hdop><vdop>3.312</vdop><extensions><gom:speed>0.182</gom:speed></extensions></trkpt>
   <trkpt lat="59.3273177997" lon="34.7011720516"><ele>170.767</ele><time>2026-08-17T04:11:01.616Z</time><hdop>3.062</hdop><vdop>3.312</vdop><extensions><gom:speed>0.175</gom:speed></extensions></trkpt>
   <trkpt lat="59.3273147822" lon="34.7011757396"><ele>170.281</ele><time>2026-08-17T04:11:02.294Z</time><hdop>3.0</hdop><vdop>3.187</vdop><extensions><gom:speed>0.13</gom:speed></extensions></trkpt>
   <trkpt lat="59.3273110942" lon="34.7011807688"><ele>169.729</ele><time>2026-08-17T04:11:02.881Z</time><hdop>3.0</hdop><vdop>3.062</vdop><extensions><gom:speed>0.19</gom:speed></extensions></trkpt>
   <trkpt lat="59.3273081605" lon="34.7011837863"><ele>169.4</ele><time>2026-08-17T04:11:03.599Z</time><hdop>3.0</hdop><vdop>3.062</vdop><extensions><gom:speed>0.207</gom:speed></extensions></trkpt>
   <trkpt lat="59.3273034666" lon="34.7011897374"><ele>169.547</ele><time>2026-08-17T04:11:04.257Z</time><hdop>3.0</hdop><vdop>3.25</vdop><extensions><gom:speed>0.246</gom:speed></extensions></trkpt>
   <trkpt lat="59.3272959648" lon="34.7011980355"><ele>169.543</ele><time>2026-08-17T04:11:05.340Z</time><hdop>3.0</hdop><vdop>3.437</vdop><extensions><gom:speed>0.311</gom:speed></extensions></trkpt>
   <trkpt lat="59.3272920673" lon="34.7012030646"><ele>169.641</ele><time>2026-08-17T04:11:06.098Z</time><hdop>3.0</hdop><vdop>3.312</vdop><extensions><gom:speed>0.28</gom:speed></extensions></trkpt>
   <trkpt lat="59.3272894689" lon="34.7012039866"><ele>169.543</ele><time>2026-08-17T04:11:06.652Z</time><hdop>3.0</hdop><vdop>3.25</vdop><extensions><gom:speed>0.381</gom:speed></extensions></trkpt>
   <trkpt lat="59.3272846912" lon="34.7012058307"><ele>168.969</ele><time>2026-08-17T04:11:07.645Z</time><hdop>3.0</hdop><vdop>3.25</vdop><extensions><gom:speed>0.447</gom:speed></extensions></trkpt>
   <trkpt lat="59.3272760997" lon="34.701207088"><ele>168.48</ele><time>2026-08-17T04:11:08.652Z</time><hdop>3.0</hdop><vdop>3.187</vdop><extensions><gom:speed>0.743</gom:speed></extensions></trkpt>
   <trkpt lat="59.3272725793" lon="34.7012059983"><ele>168.188</ele><time>2026-08-17T04:11:09.629Z</time><hdop>3.0</hdop><vdop>3.187</vdop><extensions><gom:speed>0.719</gom:speed></extensions></trkpt>
   <trkpt lat="59.3272714897" lon="34.701205663"><ele>167.593</ele><time>2026-08-17T04:11:10.236Z</time><hdop>3.0</hdop><vdop>3.25</vdop><extensions><gom:speed>0.796</gom:speed></extensions></trkpt>
   <trkpt lat="59.3272714897" lon="34.7012053278"><ele>167.29</ele><time>2026-08-17T04:11:11.177Z</time><hdop>3.0</hdop><vdop>3.125</vdop><extensions><gom:speed>0.674</gom:speed></extensions></trkpt>
   <trkpt lat="59.3272709868" lon="34.7012051601"><ele>167.034</ele><time>2026-08-17T04:11:11.652Z</time><hdop>3.0</hdop><vdop>3.125</vdop><extensions><gom:speed>0.557</gom:speed></extensions></trkpt>
   <trkpt lat="59.3272702743" lon="34.7012045734"><ele>166.881</ele><time>2026-08-17T04:11:12.361Z</time><hdop>3.0</hdop><vdop>3.125</vdop><extensions><gom:speed>0.577</gom:speed></extensions></trkpt>
   <trkpt lat="59.327274591" lon="34.7012035676"><ele>166.949</ele><time>2026-08-17T04:11:13.343Z</time><hdop>3.0</hdop><vdop>3.125</vdop><extensions><gom:speed>0.321</gom:speed></extensions></trkpt>
   <trkpt lat="59.3272747586" lon="34.701200131"><ele>167.069</ele><time>2026-08-17T04:11:14.335Z</time><hdop>3.0</hdop><vdop>3.125</vdop><extensions><gom:speed>0.219</gom:speed></extensions></trkpt>
   <trkpt lat="59.3272665863" lon="34.7011925873"><ele>166.735</ele><time>2026-08-17T04:11:15.645Z</time><hdop>3.0</hdop><vdop>2.937</vdop><extensions><gom:speed>0.273</gom:speed></extensions></trkpt>
   <trkpt lat="59.3272646584" lon="34.70119133"><ele>166.536</ele><time>2026-08-17T04:11:16.175Z</time><hdop>3.0</hdop><vdop>2.937</vdop><extensions><gom:speed>0.236</gom:speed></extensions></trkpt>
   <trkpt lat="59.3272608866" lon="34.7011910785"><ele>166.474</ele><time>2026-08-17T04:11:16.645Z</time><hdop>3.0</hdop><vdop>3.062</vdop><extensions><gom:speed>0.24</gom:speed></extensions></trkpt>
   <trkpt lat="59.327256989" lon="34.7011933416"><ele>166.437</ele><time>2026-08-17T04:11:17.693Z</time><hdop>3.0</hdop><vdop>3.062</vdop><extensions><gom:speed>0.29</gom:speed></extensions></trkpt>
   <trkpt lat="59.3272525885" lon="34.7011960238"><ele>166.309</ele><time>2026-08-17T04:11:18.594Z</time><hdop>3.0</hdop><vdop>3.375</vdop><extensions><gom:speed>0.318</gom:speed></extensions></trkpt>
   <trkpt lat="59.3272488585" lon="34.7011996281"><ele>166.191</ele><time>2026-08-17T04:11:19.282Z</time><hdop>3.0</hdop><vdop>3.312</vdop><extensions><gom:speed>0.297</gom:speed></extensions></trkpt>
   <trkpt lat="59.327244458" lon="34.701202897"><ele>166.43</ele><time>2026-08-17T04:11:20.652Z</time><hdop>3.0</hdop><vdop>3.25</vdop><extensions><gom:speed>0.199</gom:speed></extensions></trkpt>
   <trkpt lat="59.3272421949" lon="34.7012043219"><ele>166.573</ele><time>2026-08-17T04:11:21.528Z</time><hdop>3.0</hdop><vdop>3.25</vdop><extensions><gom:speed>0.206</gom:speed></extensions></trkpt>
   <trkpt lat="59.3272340645" lon="34.701208932"><ele>166.673</ele><time>2026-08-17T04:11:22.645Z</time><hdop>3.0</hdop><vdop>3.125</vdop><extensions><gom:speed>0.116</gom:speed></extensions></trkpt>
   <trkpt lat="59.3272334778" lon="34.7012084291"><ele>166.731</ele><time>2026-08-17T04:11:23.652Z</time><hdop>3.0</hdop><vdop>3.062</vdop><extensions><gom:speed>0.026</gom:speed></extensions></trkpt>
   <trkpt lat="59.3272321786" lon="34.7012100216"><ele>166.772</ele><time>2026-08-17T04:11:24.652Z</time><hdop>3.0</hdop><vdop>2.937</vdop><extensions><gom:speed>0.011</gom:speed></extensions></trkpt>
   <trkpt lat="59.3272302926" lon="34.7012124524"><ele>166.798</ele><time>2026-08-17T04:11:25.656Z</time><hdop>3.0</hdop><vdop>2.937</vdop><extensions><gom:speed>0.015</gom:speed></extensions></trkpt>
   <trkpt lat="59.3272294964" lon="34.7012133744"><ele>166.816</ele><time>2026-08-17T04:11:26.667Z</time><hdop>3.0</hdop><vdop>2.875</vdop><extensions><gom:speed>0.063</gom:speed></extensions></trkpt>
   <trkpt lat="59.3272270656" lon="34.7012142964"><ele>166.845</ele><time>2026-08-17T04:11:27.645Z</time><hdop>3.0</hdop><vdop>2.625</vdop><extensions><gom:speed>0.084</gom:speed></extensions></trkpt>
   <trkpt lat="59.3272250959" lon="34.7012155537"><ele>166.874</ele><time>2026-08-17T04:11:28.645Z</time><hdop>3.0</hdop><vdop>2.5</vdop><extensions><gom:speed>0.099</gom:speed></extensions></trkpt>
   <trkpt lat="59.3272237967" lon="34.7012157213"><ele>166.9</ele><time>2026-08-17T04:11:29.644Z</time><hdop>3.0</hdop><vdop>2.5</vdop><extensions><gom:speed>0.07</gom:speed></extensions></trkpt>
   <trkpt lat="59.3272225813" lon="34.7012161404"><ele>166.92</ele><time>2026-08-17T04:11:30.644Z</time><hdop>3.0</hdop><vdop>2.5</vdop><extensions><gom:speed>0.079</gom:speed></extensions></trkpt>
   <trkpt lat="59.3272220784" lon="34.7012169786"><ele>166.743</ele><time>2026-08-17T04:11:31.646Z</time><hdop>3.0</hdop><vdop>2.5</vdop><extensions><gom:speed>0.086</gom:speed></extensions></trkpt>
   <trkpt lat="59.3272214916" lon="34.7012175653"><ele>166.628</ele><time>2026-08-17T04:11:32.645Z</time><hdop>3.0</hdop><vdop>2.5</vdop><extensions><gom:speed>0.09</gom:speed></extensions></trkpt>
   <trkpt lat="59.3272213659" lon="34.7012172301"><ele>166.565</ele><time>2026-08-17T04:11:33.645Z</time><hdop>3.0</hdop><vdop>2.5</vdop><extensions><gom:speed>0.094</gom:speed></extensions></trkpt>
   <trkpt lat="59.3272210725" lon="34.7012169786"><ele>166.529</ele><time>2026-08-17T04:11:34.645Z</time><hdop>3.0</hdop><vdop>2.5</vdop><extensions><gom:speed>0.06</gom:speed></extensions></trkpt>
   <trkpt lat="59.3272207792" lon="34.701218655"><ele>166.512</ele><time>2026-08-17T04:11:35.652Z</time><hdop>3.0</hdop><vdop>2.5</vdop><extensions><gom:speed>0.023</gom:speed></extensions></trkpt>
   <trkpt lat="59.3272210725" lon="34.7012180682"><ele>166.5</ele><time>2026-08-17T04:11:36.652Z</time><hdop>3.0</hdop><vdop>2.5</vdop><extensions><gom:speed>0.019</gom:speed></extensions></trkpt>
   <trkpt lat="59.3272213659" lon="34.7012171462"><ele>166.845</ele><time>2026-08-17T04:11:37.645Z</time><hdop>3.0</hdop><vdop>2.5</vdop><extensions><gom:speed>0.057</gom:speed></extensions></trkpt>
   <trkpt lat="59.3272212821" lon="34.7012168948"><ele>167.038</ele><time>2026-08-17T04:11:38.644Z</time><hdop>3.0</hdop><vdop>2.5</vdop><extensions><gom:speed>0.068</gom:speed></extensions></trkpt>
   <trkpt lat="59.327220863" lon="34.7012168948"><ele>167.153</ele><time>2026-08-17T04:11:39.437Z</time><hdop>3.0</hdop><vdop>2.5</vdop><extensions><gom:speed>0.069</gom:speed></extensions></trkpt>
   <trkpt lat="59.3272206954" lon="34.7012170624"><ele>167.152</ele><time>2026-08-17T04:11:39.901Z</time><hdop>3.0</hdop><vdop>2.5</vdop><extensions><gom:speed>0.236</gom:speed></extensions></trkpt>
   <trkpt lat="59.3272201924" lon="34.7012180682"><ele>167.016</ele><time>2026-08-17T04:11:40.644Z</time><hdop>3.0</hdop><vdop>2.5</vdop><extensions><gom:speed>0.68</gom:speed></extensions></trkpt>
   <trkpt lat="59.3272151633" lon="34.7012181521"><ele>166.935</ele><time>2026-08-17T04:11:41.520Z</time><hdop>3.0</hdop><vdop>2.5</vdop><extensions><gom:speed>0.681</gom:speed></extensions></trkpt>
   <trkpt lat="59.3272148699" lon="34.7012207505"><ele>166.559</ele><time>2026-08-17T04:11:42.653Z</time><hdop>3.0</hdop><vdop>2.5</vdop><extensions><gom:speed>0.268</gom:speed></extensions></trkpt>
   <trkpt lat="59.3272162949" lon="34.7012289647"><ele>166.363</ele><time>2026-08-17T04:11:43.604Z</time><hdop>3.0</hdop><vdop>2.5</vdop><extensions><gom:speed>0.292</gom:speed></extensions></trkpt>
   <trkpt lat="59.3272202763" lon="34.7012449742"><ele>166.125</ele><time>2026-08-17T04:11:44.393Z</time><hdop>3.0</hdop><vdop>2.5</vdop><extensions><gom:speed>0.33</gom:speed></extensions></trkpt>
   <trkpt lat="59.3272219945" lon="34.7012548648"><ele>165.951</ele><time>2026-08-17T04:11:45.274Z</time><hdop>3.0</hdop><vdop>2.5</vdop><extensions><gom:speed>0.291</gom:speed></extensions></trkpt>
   <trkpt lat="59.3272223717" lon="34.7012683597"><ele>165.591</ele><time>2026-08-17T04:11:46.235Z</time><hdop>3.0</hdop><vdop>2.5</vdop><extensions><gom:speed>0.333</gom:speed></extensions></trkpt>
   <trkpt lat="59.32722409" lon="34.7012759872"><ele>165.376</ele><time>2026-08-17T04:11:47.034Z</time><hdop>3.0</hdop><vdop>2.5</vdop><extensions><gom:speed>0.246</gom:speed></extensions></trkpt>
   <trkpt lat="59.3272237967" lon="34.7012779989"><ele>165.248</ele><time>2026-08-17T04:11:47.582Z</time><hdop>3.0</hdop><vdop>2.5</vdop><extensions><gom:speed>0.264</gom:speed></extensions></trkpt>
   <trkpt lat="59.3272229585" lon="34.7012896497"><ele>165.339</ele><time>2026-08-17T04:11:48.522Z</time><hdop>3.0</hdop><vdop>2.5</vdop><extensions><gom:speed>0.435</gom:speed></extensions></trkpt>
   <trkpt lat="59.3272222879" lon="34.70130063"><ele>165.224</ele><time>2026-08-17T04:11:49.341Z</time><hdop>3.0</hdop><vdop>2.75</vdop><extensions><gom:speed>0.495</gom:speed></extensions></trkpt>
   <trkpt lat="59.3272218688" lon="34.7013098501"><ele>165.191</ele><time>2026-08-17T04:11:50.181Z</time><hdop>3.0</hdop><vdop>2.5</vdop><extensions><gom:speed>0.447</gom:speed></extensions></trkpt>
   <trkpt lat="59.3272221622" lon="34.7013118617"><ele>165.458</ele><time>2026-08-17T04:11:50.645Z</time><hdop>3.0</hdop><vdop>2.5</vdop><extensions><gom:speed>0.353</gom:speed></extensions></trkpt>
   <trkpt lat="59.3272219945" lon="34.7013139572"><ele>165.617</ele><time>2026-08-17T04:11:51.122Z</time><hdop>3.0</hdop><vdop>2.5</vdop><extensions><gom:speed>0.326</gom:speed></extensions></trkpt>
   <trkpt lat="59.327221785" lon="34.7013164718"><ele>165.716</ele><time>2026-08-17T04:11:51.658Z</time><hdop>3.0</hdop><vdop>2.5</vdop><extensions><gom:speed>0.318</gom:speed></extensions></trkpt>
   <trkpt lat="59.3272219945" lon="34.7013180644"><ele>165.776</ele><time>2026-08-17T04:11:52.296Z</time><hdop>3.0</hdop><vdop>2.5</vdop><extensions><gom:speed>0.27</gom:speed></extensions></trkpt>
   <trkpt lat="59.3272222879" lon="34.7013193216"><ele>165.763</ele><time>2026-08-17T04:11:52.821Z</time><hdop>3.0</hdop><vdop>2.5</vdop><extensions><gom:speed>0.224</gom:speed></extensions></trkpt>
   <trkpt lat="59.3272220784" lon="34.7013236802"><ele>165.762</ele><time>2026-08-17T04:11:53.644Z</time><hdop>3.0</hdop><vdop>2.75</vdop><extensions><gom:speed>0.237</gom:speed></extensions></trkpt>
   <trkpt lat="59.3272218688" lon="34.7013254404"><ele>165.762</ele><time>2026-08-17T04:11:54.157Z</time><hdop>3.0</hdop><vdop>2.75</vdop><extensions><gom:speed>0.235</gom:speed></extensions></trkpt>
   <trkpt lat="59.327221785" lon="34.7013269492"><ele>165.779</ele><time>2026-08-17T04:11:54.653Z</time><hdop>3.0</hdop><vdop>2.5</vdop><extensions><gom:speed>0.226</gom:speed></extensions></trkpt>
   <trkpt lat="59.3272222879" lon="34.701330721"><ele>165.789</ele><time>2026-08-17T04:11:55.260Z</time><hdop>3.0</hdop><vdop>2.5</vdop><extensions><gom:speed>0.206</gom:speed></extensions></trkpt>
   <trkpt lat="59.3272232937" lon="34.7013375942"><ele>165.838</ele><time>2026-08-17T04:11:55.858Z</time><hdop>3.0</hdop><vdop>2.687</vdop><extensions><gom:speed>0.214</gom:speed></extensions></trkpt>
   <trkpt lat="59.3272241738" lon="34.7013397735"><ele>165.786</ele><time>2026-08-17T04:11:56.652Z</time><hdop>3.0</hdop><vdop>2.937</vdop><extensions><gom:speed>0.191</gom:speed></extensions></trkpt>
   <trkpt lat="59.3272285743" lon="34.7013613988"><ele>165.804</ele><time>2026-08-17T04:11:57.644Z</time><hdop>3.0</hdop><vdop>3.062</vdop><extensions><gom:speed>0.551</gom:speed></extensions></trkpt>
   <trkpt lat="59.3272298735" lon="34.7013654221"><ele>165.814</ele><time>2026-08-17T04:11:58.335Z</time><hdop>3.0</hdop><vdop>3.062</vdop><extensions><gom:speed>0.422</gom:speed></extensions></trkpt>
   <trkpt lat="59.3272318852" lon="34.7013735526"><ele>166.037</ele><time>2026-08-17T04:11:59.094Z</time><hdop>3.0</hdop><vdop>2.75</vdop><extensions><gom:speed>0.331</gom:speed></extensions></trkpt>
   <trkpt lat="59.3272326815" lon="34.7013761509"><ele>166.426</ele><time>2026-08-17T04:11:59.652Z</time><hdop>3.0</hdop><vdop>2.625</vdop><extensions><gom:speed>0.227</gom:speed></extensions></trkpt>
   <trkpt lat="59.3272392613" lon="34.7013937529"><ele>166.678</ele><time>2026-08-17T04:12:00.662Z</time><hdop>3.0</hdop><vdop>2.5</vdop><extensions><gom:speed>0.296</gom:speed></extensions></trkpt>
   <trkpt lat="59.3272448771" lon="34.7014103491"><ele>166.829</ele><time>2026-08-17T04:12:01.674Z</time><hdop>3.0</hdop><vdop>2.5</vdop><extensions><gom:speed>0.286</gom:speed></extensions></trkpt>
   <trkpt lat="59.3272506607" lon="34.7014325611"><ele>167.125</ele><time>2026-08-17T04:12:02.423Z</time><hdop>3.0</hdop><vdop>2.5</vdop><extensions><gom:speed>0.47</gom:speed></extensions></trkpt>
   <trkpt lat="59.3272580786" lon="34.70145997"><ele>167.26</ele><time>2026-08-17T04:12:03.243Z</time><hdop>3.0</hdop><vdop>2.625</vdop><extensions><gom:speed>0.592</gom:speed></extensions></trkpt>
   <trkpt lat="59.3272632754" lon="34.7014828526"><ele>167.162</ele><time>2026-08-17T04:12:04.335Z</time><hdop>3.0</hdop><vdop>2.75</vdop><extensions><gom:speed>0.656</gom:speed></extensions></trkpt>
   <trkpt lat="59.3272642812" lon="34.701497018"><ele>167.081</ele><time>2026-08-17T04:12:04.802Z</time><hdop>3.0</hdop><vdop>2.937</vdop><extensions><gom:speed>0.658</gom:speed></extensions></trkpt>
   <trkpt lat="59.3272662929" lon="34.7015028853"><ele>167.083</ele><time>2026-08-17T04:12:05.652Z</time><hdop>3.0</hdop><vdop>3.187</vdop><extensions><gom:speed>0.484</gom:speed></extensions></trkpt>
   <trkpt lat="59.3272681788" lon="34.7015235886"><ele>166.731</ele><time>2026-08-17T04:12:06.652Z</time><hdop>3.0</hdop><vdop>2.812</vdop><extensions><gom:speed>0.446</gom:speed></extensions></trkpt>
   <trkpt lat="59.3272696876" lon="34.701545633"><ele>166.893</ele><time>2026-08-17T04:12:07.645Z</time><hdop>3.0</hdop><vdop>2.625</vdop><extensions><gom:speed>0.408</gom:speed></extensions></trkpt>
   <trkpt lat="59.3272703581" lon="34.701551668"><ele>166.99</ele><time>2026-08-17T04:12:08.595Z</time><hdop>3.0</hdop><vdop>2.625</vdop><extensions><gom:speed>0.313</gom:speed></extensions></trkpt>
   <trkpt lat="59.3272698971" lon="34.7015591279"><ele>167.091</ele><time>2026-08-17T04:12:09.394Z</time><hdop>3.0</hdop><vdop>2.687</vdop><extensions><gom:speed>0.312</gom:speed></extensions></trkpt>
   <trkpt lat="59.3272691847" lon="34.7015656658"><ele>167.434</ele><time>2026-08-17T04:12:09.950Z</time><hdop>3.0</hdop><vdop>2.812</vdop><extensions><gom:speed>0.374</gom:speed></extensions></trkpt>
   <trkpt lat="59.3272673826" lon="34.7015777357"><ele>167.828</ele><time>2026-08-17T04:12:10.659Z</time><hdop>3.0</hdop><vdop>2.812</vdop><extensions><gom:speed>0.428</gom:speed></extensions></trkpt>
   <trkpt lat="59.3272665863" lon="34.7015853632"><ele>168.063</ele><time>2026-08-17T04:12:11.134Z</time><hdop>3.0</hdop><vdop>2.812</vdop><extensions><gom:speed>0.34</gom:speed></extensions></trkpt>
   <trkpt lat="59.3272659995" lon="34.7015915659"><ele>168.15</ele><time>2026-08-17T04:12:11.670Z</time><hdop>3.0</hdop><vdop>2.75</vdop><extensions><gom:speed>0.424</gom:speed></extensions></trkpt>
   <trkpt lat="59.3272631916" lon="34.7016210702"><ele>167.941</ele><time>2026-08-17T04:12:12.646Z</time><hdop>3.0</hdop><vdop>2.625</vdop><extensions><gom:speed>0.479</gom:speed></extensions></trkpt>
   <trkpt lat="59.3272619762" lon="34.7016292844"><ele>167.791</ele><time>2026-08-17T04:12:13.652Z</time><hdop>3.0</hdop><vdop>2.625</vdop><extensions><gom:speed>0.316</gom:speed></extensions></trkpt>
   <trkpt lat="59.3272605932" lon="34.7016394265"><ele>167.699</ele><time>2026-08-17T04:12:14.644Z</time><hdop>3.0</hdop><vdop>2.562</vdop><extensions><gom:speed>0.22</gom:speed></extensions></trkpt>
   <trkpt lat="59.3272604675" lon="34.701639678"><ele>167.645</ele><time>2026-08-17T04:12:15.515Z</time><hdop>3.0</hdop><vdop>2.562</vdop><extensions><gom:speed>0.203</gom:speed></extensions></trkpt>
   <trkpt lat="59.3272593778" lon="34.7016453777"><ele>167.624</ele><time>2026-08-17T04:12:16.645Z</time><hdop>3.0</hdop><vdop>2.5</vdop><extensions><gom:speed>0.106</gom:speed></extensions></trkpt>
   <trkpt lat="59.327259294" lon="34.7016453777"><ele>167.617</ele><time>2026-08-17T04:12:17.652Z</time><hdop>3.0</hdop><vdop>2.5</vdop><extensions><gom:speed>0.04</gom:speed></extensions></trkpt>
   <trkpt lat="59.3272588749" lon="34.7016481437"><ele>167.613</ele><time>2026-08-17T04:12:18.217Z</time><hdop>3.0</hdop><vdop>2.5</vdop><extensions><gom:speed>0.084</gom:speed></extensions></trkpt>
   <trkpt lat="59.3272575757" lon="34.7016517479"><ele>167.847</ele><time>2026-08-17T04:12:18.996Z</time><hdop>3.0</hdop><vdop>2.5</vdop><extensions><gom:speed>0.102</gom:speed></extensions></trkpt>
   <trkpt lat="59.3272568633" lon="34.701653089"><ele>167.987</ele><time>2026-08-17T04:12:19.542Z</time><hdop>3.0</hdop><vdop>2.5</vdop><extensions><gom:speed>0.126</gom:speed></extensions></trkpt>
   <trkpt lat="59.3272548935" lon="34.7016561903"><ele>168.032</ele><time>2026-08-17T04:12:20.321Z</time><hdop>3.0</hdop><vdop>2.5</vdop><extensions><gom:speed>0.153</gom:speed></extensions></trkpt>
   <trkpt lat="59.3272523789" lon="34.7016629797"><ele>167.861</ele><time>2026-08-17T04:12:21.080Z</time><hdop>3.0</hdop><vdop>2.5</vdop><extensions><gom:speed>0.229</gom:speed></extensions></trkpt>
   <trkpt lat="59.3272459668" lon="34.7016796597"><ele>167.608</ele><time>2026-08-17T04:12:21.645Z</time><hdop>3.0</hdop><vdop>2.562</vdop><extensions><gom:speed>0.321</gom:speed></extensions></trkpt>
   <trkpt lat="59.3272436618" lon="34.7016857784"><ele>167.457</ele><time>2026-08-17T04:12:22.183Z</time><hdop>3.0</hdop><vdop>2.562</vdop><extensions><gom:speed>0.407</gom:speed></extensions></trkpt>
   <trkpt lat="59.3272425721" lon="34.7016896341"><ele>167.246</ele><time>2026-08-17T04:12:22.652Z</time><hdop>3.0</hdop><vdop>2.5</vdop><extensions><gom:speed>0.407</gom:speed></extensions></trkpt>
   <trkpt lat="59.3272362857" lon="34.7017071523"><ele>167.121</ele><time>2026-08-17T04:12:23.498Z</time><hdop>3.0</hdop><vdop>2.5</vdop><extensions><gom:speed>0.497</gom:speed></extensions></trkpt>
   <trkpt lat="59.327229664" lon="34.7017239999"><ele>166.905</ele><time>2026-08-17T04:12:24.075Z</time><hdop>3.0</hdop><vdop>2.562</vdop><extensions><gom:speed>0.532</gom:speed></extensions></trkpt>
   <trkpt lat="59.327226898" lon="34.7017348964"><ele>166.457</ele><time>2026-08-17T04:12:24.645Z</time><hdop>3.0</hdop><vdop>2.687</vdop><extensions><gom:speed>0.54</gom:speed></extensions></trkpt>
   <trkpt lat="59.327227359" lon="34.7017409314"><ele>166.19</ele><time>2026-08-17T04:12:25.239Z</time><hdop>3.0</hdop><vdop>2.687</vdop><extensions><gom:speed>0.503</gom:speed></extensions></trkpt>
   <trkpt lat="59.3272271913" lon="34.7017572761"><ele>166.276</ele><time>2026-08-17T04:12:26.381Z</time><hdop>3.0</hdop><vdop>2.937</vdop><extensions><gom:speed>0.482</gom:speed></extensions></trkpt>
   <trkpt lat="59.327226395" lon="34.7017664962"><ele>165.671</ele><time>2026-08-17T04:12:26.958Z</time><hdop>3.0</hdop><vdop>3.125</vdop><extensions><gom:speed>0.373</gom:speed></extensions></trkpt>
   <trkpt lat="59.3272271913" lon="34.7017697651"><ele>164.996</ele><time>2026-08-17T04:12:27.656Z</time><hdop>3.0</hdop><vdop>3.5</vdop><extensions><gom:speed>0.33</gom:speed></extensions></trkpt>
   <trkpt lat="59.3272256826" lon="34.7017847687"><ele>164.593</ele><time>2026-08-17T04:12:28.477Z</time><hdop>3.0</hdop><vdop>3.5</vdop><extensions><gom:speed>0.474</gom:speed></extensions></trkpt>
   <trkpt lat="59.327223168" lon="34.7017919772"><ele>164.296</ele><time>2026-08-17T04:12:29.519Z</time><hdop>3.0</hdop><vdop>3.187</vdop><extensions><gom:speed>0.325</gom:speed></extensions></trkpt>
   <trkpt lat="59.3272214916" lon="34.7017946594"><ele>164.501</ele><time>2026-08-17T04:12:30.652Z</time><hdop>3.0</hdop><vdop>2.937</vdop><extensions><gom:speed>0.196</gom:speed></extensions></trkpt>
   <trkpt lat="59.3272204858" lon="34.7018015325"><ele>164.623</ele><time>2026-08-17T04:12:31.521Z</time><hdop>3.0</hdop><vdop>2.937</vdop><extensions><gom:speed>0.264</gom:speed></extensions></trkpt>
   <trkpt lat="59.3272199829" lon="34.7018137701"><ele>165.24</ele><time>2026-08-17T04:12:32.300Z</time><hdop>3.0</hdop><vdop>2.812</vdop><extensions><gom:speed>0.411</gom:speed></extensions></trkpt>
   <trkpt lat="59.3272201924" lon="34.701827265"><ele>165.338</ele><time>2026-08-17T04:12:33.099Z</time><hdop>3.0</hdop><vdop>2.562</vdop><extensions><gom:speed>0.526</gom:speed></extensions></trkpt>
   <trkpt lat="59.327220863" lon="34.7018365689"><ele>165.395</ele><time>2026-08-17T04:12:33.645Z</time><hdop>3.0</hdop><vdop>2.5</vdop><extensions><gom:speed>0.448</gom:speed></extensions></trkpt>
   <trkpt lat="59.3272211983" lon="34.7018483874"><ele>165.429</ele><time>2026-08-17T04:12:34.678Z</time><hdop>3.0</hdop><vdop>2.5</vdop><extensions><gom:speed>0.47</gom:speed></extensions></trkpt>
   <trkpt lat="59.3272226651" lon="34.7018598706"><ele>165.718</ele><time>2026-08-17T04:12:35.649Z</time><hdop>3.0</hdop><vdop>2.5</vdop><extensions><gom:speed>0.497</gom:speed></extensions></trkpt>
   <trkpt lat="59.3272237967" lon="34.701865235"><ele>165.893</ele><time>2026-08-17T04:12:36.645Z</time><hdop>3.0</hdop><vdop>2.5</vdop><extensions><gom:speed>0.277</gom:speed></extensions></trkpt>
   <trkpt lat="59.3272248863" lon="34.7018650674"><ele>166.061</ele><time>2026-08-17T04:12:37.652Z</time><hdop>3.0</hdop><vdop>2.5</vdop><extensions><gom:speed>0.111</gom:speed></extensions></trkpt>
   <trkpt lat="59.3272252635" lon="34.7018660732"><ele>166.162</ele><time>2026-08-17T04:12:38.199Z</time><hdop>3.0</hdop><vdop>2.5</vdop><extensions><gom:speed>0.123</gom:speed></extensions></trkpt>
   <trkpt lat="59.3272280714" lon="34.7018684201"><ele>166.68</ele><time>2026-08-17T04:12:39.200Z</time><hdop>3.0</hdop><vdop>2.5</vdop><extensions><gom:speed>0.197</gom:speed></extensions></trkpt>
   <trkpt lat="59.3272283648" lon="34.7018679172"><ele>167.048</ele><time>2026-08-17T04:12:39.652Z</time><hdop>3.0</hdop><vdop>2.5</vdop><extensions><gom:speed>0.138</gom:speed></extensions></trkpt>
   <trkpt lat="59.3272341902" lon="34.7018686716"><ele>167.269</ele><time>2026-08-17T04:12:40.556Z</time><hdop>3.0</hdop><vdop>2.5</vdop><extensions><gom:speed>0.299</gom:speed></extensions></trkpt>
   <trkpt lat="59.3272443742" lon="34.7018704318"><ele>167.367</ele><time>2026-08-17T04:12:41.254Z</time><hdop>3.0</hdop><vdop>2.5</vdop><extensions><gom:speed>0.518</gom:speed></extensions></trkpt>
   <trkpt lat="59.3272539715" lon="34.7018732816"><ele>167.358</ele><time>2026-08-17T04:12:41.922Z</time><hdop>3.0</hdop><vdop>2.5</vdop><extensions><gom:speed>0.724</gom:speed></extensions></trkpt>
   <trkpt lat="59.3272608866" lon="34.7018762991"><ele>167.353</ele><time>2026-08-17T04:12:42.640Z</time><hdop>3.0</hdop><vdop>2.5</vdop><extensions><gom:speed>0.708</gom:speed></extensions></trkpt>
   <trkpt lat="59.3272644908" lon="34.7018745389"><ele>167.228</ele><time>2026-08-17T04:12:43.440Z</time><hdop>3.0</hdop><vdop>2.5</vdop><extensions><gom:speed>0.694</gom:speed></extensions></trkpt>
   <trkpt lat="59.3272775666" lon="34.7018760476"><ele>167.106</ele><time>2026-08-17T04:12:44.138Z</time><hdop>3.0</hdop><vdop>2.5</vdop><extensions><gom:speed>0.771</gom:speed></extensions></trkpt>
   <trkpt lat="59.3272816737" lon="34.701879149"><ele>167.284</ele><time>2026-08-17T04:12:44.654Z</time><hdop>3.0</hdop><vdop>2.5</vdop><extensions><gom:speed>0.744</gom:speed></extensions></trkpt>
   <trkpt lat="59.3272878763" lon="34.7018785622"><ele>167.39</ele><time>2026-08-17T04:12:45.240Z</time><hdop>3.0</hdop><vdop>2.5</vdop><extensions><gom:speed>0.766</gom:speed></extensions></trkpt>
   <trkpt lat="59.3272948752" lon="34.7018770535"><ele>167.175</ele><time>2026-08-17T04:12:46.100Z</time><hdop>3.0</hdop><vdop>2.5</vdop><extensions><gom:speed>0.672</gom:speed></extensions></trkpt>
   <trkpt lat="59.327297767" lon="34.701879149"><ele>167.088</ele><time>2026-08-17T04:12:46.653Z</time><hdop>3.0</hdop><vdop>2.5</vdop><extensions><gom:speed>0.614</gom:speed></extensions></trkpt>
   <trkpt lat="59.3273026704" lon="34.7018861897"><ele>166.571</ele><time>2026-08-17T04:12:47.644Z</time><hdop>3.0</hdop><vdop>2.5</vdop><extensions><gom:speed>0.594</gom:speed></extensions></trkpt>
   <trkpt lat="59.3273043887" lon="34.7018887881"><ele>166.262</ele><time>2026-08-17T04:12:48.154Z</time><hdop>3.0</hdop><vdop>2.5</vdop><extensions><gom:speed>0.558</gom:speed></extensions></trkpt>
   <trkpt lat="59.3273057717" lon="34.7018961642"><ele>166.106</ele><time>2026-08-17T04:12:48.645Z</time><hdop>3.0</hdop><vdop>2.562</vdop><extensions><gom:speed>0.649</gom:speed></extensions></trkpt>
   <trkpt lat="59.3273096693" lon="34.7019046299"><ele>166.099</ele><time>2026-08-17T04:12:49.645Z</time><hdop>3.0</hdop><vdop>2.5</vdop><extensions><gom:speed>0.535</gom:speed></extensions></trkpt>
   <trkpt lat="59.3273141955" lon="34.7019057196"><ele>166.095</ele><time>2026-08-17T04:12:50.633Z</time><hdop>3.0</hdop><vdop>2.5</vdop><extensions><gom:speed>0.53</gom:speed></extensions></trkpt>
   <trkpt lat="59.3273167939" lon="34.7019074798"><ele>166.14</ele><time>2026-08-17T04:12:51.652Z</time><hdop>3.0</hdop><vdop>2.562</vdop><extensions><gom:speed>0.324</gom:speed></extensions></trkpt>
   <trkpt lat="59.3273188893" lon="34.7019084856"><ele>166.173</ele><time>2026-08-17T04:12:52.648Z</time><hdop>3.0</hdop><vdop>2.562</vdop><extensions><gom:speed>0.289</gom:speed></extensions></trkpt>
   <trkpt lat="59.3273179673" lon="34.7019088209"><ele>166.296</ele><time>2026-08-17T04:12:53.659Z</time><hdop>3.0</hdop><vdop>2.5</vdop><extensions><gom:speed>0.086</gom:speed></extensions></trkpt>
   <trkpt lat="59.327318596" lon="34.7019089885"><ele>166.37</ele><time>2026-08-17T04:12:54.569Z</time><hdop>3.0</hdop><vdop>2.5</vdop><extensions><gom:speed>0.11</gom:speed></extensions></trkpt>
   <trkpt lat="59.3273208591" lon="34.7019071445"><ele>166.421</ele><time>2026-08-17T04:12:55.156Z</time><hdop>3.0</hdop><vdop>2.5</vdop><extensions><gom:speed>0.092</gom:speed></extensions></trkpt>
   <trkpt lat="59.3273208591" lon="34.7019071445"><ele>166.698</ele><time>2026-08-17T04:12:55.652Z</time><hdop>3.0</hdop><vdop>2.625</vdop><extensions><gom:speed>0.05</gom:speed></extensions></trkpt>
   <trkpt lat="59.3273231641" lon="34.701905049"><ele>166.774</ele><time>2026-08-17T04:12:56.653Z</time><hdop>3.0</hdop><vdop>2.937</vdop><extensions><gom:speed>0.067</gom:speed></extensions></trkpt>
   <trkpt lat="59.3273308755" lon="34.7018956613"><ele>167.2</ele><time>2026-08-17T04:12:57.644Z</time><hdop>3.0</hdop><vdop>3.125</vdop><extensions><gom:speed>0.203</gom:speed></extensions></trkpt>
   <trkpt lat="59.3273326776" lon="34.7018923924"><ele>167.509</ele><time>2026-08-17T04:12:58.652Z</time><hdop>3.0</hdop><vdop>2.937</vdop><extensions><gom:speed>0.138</gom:speed></extensions></trkpt>
   <trkpt lat="59.3273451666" lon="34.7018836752"><ele>167.749</ele><time>2026-08-17T04:12:59.645Z</time><hdop>3.0</hdop><vdop>2.75</vdop><extensions><gom:speed>0.231</gom:speed></extensions></trkpt>
   <trkpt lat="59.3273469687" lon="34.701882837"><ele>167.893</ele><time>2026-08-17T04:13:00.135Z</time><hdop>3.0</hdop><vdop>2.75</vdop><extensions><gom:speed>0.243</gom:speed></extensions></trkpt>
   <trkpt lat="59.3273547639" lon="34.7018823341"><ele>167.709</ele><time>2026-08-17T04:13:00.645Z</time><hdop>3.0</hdop><vdop>2.75</vdop><extensions><gom:speed>0.358</gom:speed></extensions></trkpt>
   <trkpt lat="59.3273585777" lon="34.7018850163"><ele>167.599</ele><time>2026-08-17T04:13:01.581Z</time><hdop>3.0</hdop><vdop>2.75</vdop><extensions><gom:speed>0.357</gom:speed></extensions></trkpt>
   <trkpt lat="59.3273634811" lon="34.7018914703"><ele>167.501</ele><time>2026-08-17T04:13:02.258Z</time><hdop>3.0</hdop><vdop>2.75</vdop><extensions><gom:speed>0.378</gom:speed></extensions></trkpt>
   <trkpt lat="59.3273689712" lon="34.7019049652"><ele>167.61</ele><time>2026-08-17T04:13:03.321Z</time><hdop>3.0</hdop><vdop>3.0</vdop><extensions><gom:speed>0.423</gom:speed></extensions></trkpt>
   <trkpt lat="59.327371863" lon="34.7019116707"><ele>167.769</ele><time>2026-08-17T04:13:03.897Z</time><hdop>3.0</hdop><vdop>3.375</vdop><extensions><gom:speed>0.4</gom:speed></extensions></trkpt>
   <trkpt lat="59.3273747966" lon="34.7019179572"><ele>168.095</ele><time>2026-08-17T04:13:04.645Z</time><hdop>3.0</hdop><vdop>2.937</vdop><extensions><gom:speed>0.305</gom:speed></extensions></trkpt>
   <trkpt lat="59.3273744614" lon="34.7019172866"><ele>168.371</ele><time>2026-08-17T04:13:05.652Z</time><hdop>3.0</hdop><vdop>3.0</vdop><extensions><gom:speed>0.127</gom:speed></extensions></trkpt>
   <trkpt lat="59.3273744614" lon="34.7019195497"><ele>168.535</ele><time>2026-08-17T04:13:06.518Z</time><hdop>3.0</hdop><vdop>3.0</vdop><extensions><gom:speed>0.168</gom:speed></extensions></trkpt>
   <trkpt lat="59.3273735813" lon="34.7019242436"><ele>168.406</ele><time>2026-08-17T04:13:07.257Z</time><hdop>3.0</hdop><vdop>2.937</vdop><extensions><gom:speed>0.164</gom:speed></extensions></trkpt>
   <trkpt lat="59.3273723659" lon="34.7019336313"><ele>167.79</ele><time>2026-08-17T04:13:08.653Z</time><hdop>3.0</hdop><vdop>3.437</vdop><extensions><gom:speed>0.121</gom:speed></extensions></trkpt>
   <trkpt lat="59.3273705638" lon="34.7019440249"><ele>167.512</ele><time>2026-08-17T04:13:09.652Z</time><hdop>3.0</hdop><vdop>3.125</vdop><extensions><gom:speed>0.146</gom:speed></extensions></trkpt>
   <trkpt lat="59.3273682588" lon="34.7019564301"><ele>167.681</ele><time>2026-08-17T04:13:10.652Z</time><hdop>3.0</hdop><vdop>3.187</vdop><extensions><gom:speed>0.176</gom:speed></extensions></trkpt>
   <trkpt lat="59.3273634811" lon="34.7019755408"><ele>167.682</ele><time>2026-08-17T04:13:11.648Z</time><hdop>3.0</hdop><vdop>3.187</vdop><extensions><gom:speed>0.289</gom:speed></extensions></trkpt>
   <trkpt lat="59.3273548896" lon="34.7019946516"><ele>167.683</ele><time>2026-08-17T04:13:12.538Z</time><hdop>3.0</hdop><vdop>3.187</vdop><extensions><gom:speed>0.311</gom:speed></extensions></trkpt>
   <trkpt lat="59.327344077" lon="34.7020146843"><ele>167.527</ele><time>2026-08-17T04:13:13.519Z</time><hdop>3.0</hdop><vdop>3.312</vdop><extensions><gom:speed>0.335</gom:speed></extensions></trkpt>
   <trkpt lat="59.3273337672" lon="34.7020341303"><ele>167.701</ele><time>2026-08-17T04:13:14.663Z</time><hdop>3.0</hdop><vdop>3.375</vdop><extensions><gom:speed>0.372</gom:speed></extensions></trkpt>
   <trkpt lat="59.3273280675" lon="34.7020474576"><ele>167.738</ele><time>2026-08-17T04:13:15.340Z</time><hdop>3.0</hdop><vdop>3.562</vdop><extensions><gom:speed>0.407</gom:speed></extensions></trkpt>
   <trkpt lat="59.327322284" lon="34.7020632994"><ele>167.495</ele><time>2026-08-17T04:13:16.554Z</time><hdop>3.0</hdop><vdop>3.25</vdop><extensions><gom:speed>0.363</gom:speed></extensions></trkpt>
   <trkpt lat="59.3273184703" lon="34.7020748664"><ele>167.843</ele><time>2026-08-17T04:13:17.354Z</time><hdop>3.0</hdop><vdop>3.125</vdop><extensions><gom:speed>0.321</gom:speed></extensions></trkpt>
   <trkpt lat="59.3273146984" lon="34.7020877745"><ele>168.148</ele><time>2026-08-17T04:13:18.254Z</time><hdop>3.0</hdop><vdop>3.375</vdop><extensions><gom:speed>0.305</gom:speed></extensions></trkpt>
   <trkpt lat="59.3273116809" lon="34.7020983357"><ele>167.851</ele><time>2026-08-17T04:13:18.962Z</time><hdop>3.0</hdop><vdop>3.125</vdop><extensions><gom:speed>0.276</gom:speed></extensions></trkpt>
   <trkpt lat="59.3273104655" lon="34.7021018561"><ele>167.689</ele><time>2026-08-17T04:13:19.652Z</time><hdop>3.0</hdop><vdop>3.062</vdop><extensions><gom:speed>0.204</gom:speed></extensions></trkpt>
   <trkpt lat="59.3273078671" lon="34.7021103218"><ele>167.59</ele><time>2026-08-17T04:13:20.692Z</time><hdop>3.0</hdop><vdop>3.062</vdop><extensions><gom:speed>0.134</gom:speed></extensions></trkpt>
   <trkpt lat="59.3273053945" lon="34.7021182846"><ele>167.528</ele><time>2026-08-17T04:13:21.645Z</time><hdop>3.0</hdop><vdop>3.0</vdop><extensions><gom:speed>0.127</gom:speed></extensions></trkpt>
   <trkpt lat="59.3273049754" lon="34.7021186199"><ele>167.496</ele><time>2026-08-17T04:13:22.653Z</time><hdop>3.0</hdop><vdop>2.75</vdop><extensions><gom:speed>0.038</gom:speed></extensions></trkpt>
   <trkpt lat="59.3273041791" lon="34.7021230623"><ele>167.477</ele><time>2026-08-17T04:13:23.645Z</time><hdop>3.0</hdop><vdop>2.5</vdop><extensions><gom:speed>0.098</gom:speed></extensions></trkpt>
   <trkpt lat="59.3273042629" lon="34.7021236491"><ele>167.383</ele><time>2026-08-17T04:13:24.652Z</time><hdop>3.0</hdop><vdop>2.5</vdop><extensions><gom:speed>0.043</gom:speed></extensions></trkpt>
   <trkpt lat="59.3273029637" lon="34.7021263313"><ele>167.327</ele><time>2026-08-17T04:13:25.448Z</time><hdop>3.0</hdop><vdop>2.5</vdop><extensions><gom:speed>0.101</gom:speed></extensions></trkpt>
   <trkpt lat="59.327300994" lon="34.7021321986"><ele>167.15</ele><time>2026-08-17T04:13:26.500Z</time><hdop>3.0</hdop><vdop>2.5</vdop><extensions><gom:speed>0.132</gom:speed></extensions></trkpt>
   <trkpt lat="59.327300072" lon="34.7021344617"><ele>167.045</ele><time>2026-08-17T04:13:27.259Z</time><hdop>3.0</hdop><vdop>2.5</vdop><extensions><gom:speed>0.171</gom:speed></extensions></trkpt>
   <trkpt lat="59.3272970964" lon="34.7021416702"><ele>166.689</ele><time>2026-08-17T04:13:28.140Z</time><hdop>3.0</hdop><vdop>2.5</vdop><extensions><gom:speed>0.237</gom:speed></extensions></trkpt>
   <trkpt lat="59.3272962582" lon="34.7021438495"><ele>166.646</ele><time>2026-08-17T04:13:28.652Z</time><hdop>3.0</hdop><vdop>2.5</vdop><extensions><gom:speed>0.254</gom:speed></extensions></trkpt>
   <trkpt lat="59.3272950847" lon="34.7021508903"><ele>166.62</ele><time>2026-08-17T04:13:29.323Z</time><hdop>3.0</hdop><vdop>2.5</vdop><extensions><gom:speed>0.342</gom:speed></extensions></trkpt>
   <trkpt lat="59.3272932826" lon="34.7021598589"><ele>166.407</ele><time>2026-08-17T04:13:30.142Z</time><hdop>3.0</hdop><vdop>2.5</vdop><extensions><gom:speed>0.396</gom:speed></extensions></trkpt>
   <trkpt lat="59.3272917739" lon="34.7021637984"><ele>166.305</ele><time>2026-08-17T04:13:30.648Z</time><hdop>3.0</hdop><vdop>2.5</vdop><extensions><gom:speed>0.399</gom:speed></extensions></trkpt>
   <trkpt lat="59.3272871638" lon="34.7021737728"><ele>166.252</ele><time>2026-08-17T04:13:31.645Z</time><hdop>3.0</hdop><vdop>2.5</vdop><extensions><gom:speed>0.516</gom:speed></extensions></trkpt>
   <trkpt lat="59.3272819671" lon="34.7021787182"><ele>166.004</ele><time>2026-08-17T04:13:32.645Z</time><hdop>3.0</hdop><vdop>2.5</vdop><extensions><gom:speed>0.415</gom:speed></extensions></trkpt>
   <trkpt lat="59.3272808774" lon="34.7021780476"><ele>166.041</ele><time>2026-08-17T04:13:33.652Z</time><hdop>3.0</hdop><vdop>2.5</vdop><extensions><gom:speed>0.164</gom:speed></extensions></trkpt>
   <trkpt lat="59.3272772732" lon="34.7021841664"><ele>166.119</ele><time>2026-08-17T04:13:34.646Z</time><hdop>3.0</hdop><vdop>2.5</vdop><extensions><gom:speed>0.146</gom:speed></extensions></trkpt>
   <trkpt lat="59.3272752615" lon="34.7021865972"><ele>166.167</ele><time>2026-08-17T04:13:35.645Z</time><hdop>3.0</hdop><vdop>2.5</vdop><extensions><gom:speed>0.103</gom:speed></extensions></trkpt>
   <trkpt lat="59.3272752615" lon="34.7021865972"><ele>166.195</ele><time>2026-08-17T04:13:36.652Z</time><hdop>3.0</hdop><vdop>2.5</vdop><extensions><gom:speed>0.021</gom:speed></extensions></trkpt>
   <trkpt lat="59.3272742976" lon="34.7021884412"><ele>166.21</ele><time>2026-08-17T04:13:37.649Z</time><hdop>3.0</hdop><vdop>2.5</vdop><extensions><gom:speed>0.107</gom:speed></extensions></trkpt>
   <trkpt lat="59.3272726632" lon="34.7021915425"><ele>166.218</ele><time>2026-08-17T04:13:38.661Z</time><hdop>3.0</hdop><vdop>2.5</vdop><extensions><gom:speed>0.063</gom:speed></extensions></trkpt>
   <trkpt lat="59.3272720764" lon="34.7021929674"><ele>166.224</ele><time>2026-08-17T04:13:39.652Z</time><hdop>3.0</hdop><vdop>2.5</vdop><extensions><gom:speed>0.017</gom:speed></extensions></trkpt>
   <trkpt lat="59.3272715735" lon="34.7021924645"><ele>166.225</ele><time>2026-08-17T04:13:40.652Z</time><hdop>3.0</hdop><vdop>2.5</vdop><extensions><gom:speed>0.011</gom:speed></extensions></trkpt>
   <trkpt lat="59.327271364" lon="34.7021929674"><ele>166.225</ele><time>2026-08-17T04:13:41.656Z</time><hdop>3.0</hdop><vdop>2.5</vdop><extensions><gom:speed>0.015</gom:speed></extensions></trkpt>
   <trkpt lat="59.3272707772" lon="34.7021944761"><ele>166.226</ele><time>2026-08-17T04:13:42.645Z</time><hdop>3.0</hdop><vdop>2.5</vdop><extensions><gom:speed>0.06</gom:speed></extensions></trkpt>
   <trkpt lat="59.3272697714" lon="34.7021951467"><ele>166.226</ele><time>2026-08-17T04:13:43.652Z</time><hdop>3.0</hdop><vdop>2.5</vdop><extensions><gom:speed>0.038</gom:speed></extensions></trkpt>
   <trkpt lat="59.3272692685" lon="34.7021964878"><ele>166.225</ele><time>2026-08-17T04:13:44.651Z</time><hdop>3.0</hdop><vdop>2.5</vdop><extensions><gom:speed>0.12</gom:speed></extensions></trkpt>
   <trkpt lat="59.3272691847" lon="34.7021978289"><ele>166.223</ele><time>2026-08-17T04:13:45.645Z</time><hdop>3.0</hdop><vdop>2.5</vdop><extensions><gom:speed>0.074</gom:speed></extensions></trkpt>
   <trkpt lat="59.3272691847" lon="34.7021984995"><ele>166.219</ele><time>2026-08-17T04:13:46.653Z</time><hdop>3.0</hdop><vdop>2.5</vdop><extensions><gom:speed>0.04</gom:speed></extensions></trkpt>
   <trkpt lat="59.3272689751" lon="34.7021989186"><ele>166.217</ele><time>2026-08-17T04:13:47.645Z</time><hdop>3.0</hdop><vdop>2.5</vdop><extensions><gom:speed>0.087</gom:speed></extensions></trkpt>
   <trkpt lat="59.327269478" lon="34.7021987509"><ele>166.216</ele><time>2026-08-17T04:13:48.657Z</time><hdop>3.0</hdop><vdop>2.5</vdop><extensions><gom:speed>0.031</gom:speed></extensions></trkpt>
   <trkpt lat="59.3272690589" lon="34.7021989186"><ele>166.213</ele><time>2026-08-17T04:13:49.645Z</time><hdop>3.0</hdop><vdop>2.5</vdop><extensions><gom:speed>0.079</gom:speed></extensions></trkpt>
   <trkpt lat="59.3272693942" lon="34.7021986671"><ele>166.211</ele><time>2026-08-17T04:13:50.645Z</time><hdop>3.0</hdop><vdop>2.5</vdop><extensions><gom:speed>0.002</gom:speed></extensions></trkpt>
   <trkpt lat="59.327269478" lon="34.7021984995"><ele>166.221</ele><time>2026-08-17T04:13:51.652Z</time><hdop>3.0</hdop><vdop>2.625</vdop><extensions><gom:speed>0.004</gom:speed></extensions></trkpt>
   <trkpt lat="59.3272693942" lon="34.7021983318"><ele>166.243</ele><time>2026-08-17T04:13:52.646Z</time><hdop>3.0</hdop><vdop>3.0</vdop><extensions><gom:speed>0.024</gom:speed></extensions></trkpt>
   <trkpt lat="59.3272691847" lon="34.7021981642"><ele>166.267</ele><time>2026-08-17T04:13:53.652Z</time><hdop>3.0</hdop><vdop>3.25</vdop><extensions><gom:speed>0.025</gom:speed></extensions></trkpt>
   <trkpt lat="59.3272688913" lon="34.7021979965"><ele>166.284</ele><time>2026-08-17T04:13:54.652Z</time><hdop>3.0</hdop><vdop>3.375</vdop><extensions><gom:speed>0.035</gom:speed></extensions></trkpt>
   <trkpt lat="59.3272684722" lon="34.7021975775"><ele>166.338</ele><time>2026-08-17T04:13:55.923Z</time><hdop>3.0</hdop><vdop>3.687</vdop><extensions><gom:speed>0.042</gom:speed></extensions></trkpt>
   <trkpt lat="59.3272675921" lon="34.702197326"><ele>166.378</ele><time>2026-08-17T04:13:56.645Z</time><hdop>3.0</hdop><vdop>3.687</vdop><extensions><gom:speed>0.182</gom:speed></extensions></trkpt>
   <trkpt lat="59.3272661672" lon="34.7021974936"><ele>166.401</ele><time>2026-08-17T04:13:57.646Z</time><hdop>3.0</hdop><vdop>3.75</vdop><extensions><gom:speed>0.174</gom:speed></extensions></trkpt>
   <trkpt lat="59.3272649937" lon="34.7021976613"><ele>166.414</ele><time>2026-08-17T04:13:58.653Z</time><hdop>3.0</hdop><vdop>3.812</vdop><extensions><gom:speed>0.175</gom:speed></extensions></trkpt>
   <trkpt lat="59.3272644908" lon="34.7021972422"><ele>166.42</ele><time>2026-08-17T04:13:59.644Z</time><hdop>3.0</hdop><vdop>3.75</vdop><extensions><gom:speed>0.157</gom:speed></extensions></trkpt>
   <trkpt lat="59.3272636945" lon="34.7021971584"><ele>166.422</ele><time>2026-08-17T04:14:00.652Z</time><hdop>3.0</hdop><vdop>3.562</vdop><extensions><gom:speed>0.158</gom:speed></extensions></trkpt>
   <trkpt lat="59.3272630659" lon="34.7021969907"><ele>166.421</ele><time>2026-08-17T04:14:01.653Z</time><hdop>3.062</hdop><vdop>3.437</vdop><extensions><gom:speed>0.15</gom:speed></extensions></trkpt>
   <trkpt lat="59.3272632754" lon="34.7021967393"><ele>166.419</ele><time>2026-08-17T04:14:02.645Z</time><hdop>3.187</hdop><vdop>3.312</vdop><extensions><gom:speed>0.138</gom:speed></extensions></trkpt>
   <trkpt lat="59.3272632754" lon="34.7021958173"><ele>166.417</ele><time>2026-08-17T04:14:03.644Z</time><hdop>3.187</hdop><vdop>3.187</vdop><extensions><gom:speed>0.124</gom:speed></extensions></trkpt>
   <trkpt lat="59.3272631916" lon="34.7021956496"><ele>166.414</ele><time>2026-08-17T04:14:04.645Z</time><hdop>3.312</hdop><vdop>3.125</vdop><extensions><gom:speed>0.117</gom:speed></extensions></trkpt>
   <trkpt lat="59.327262563" lon="34.702195482"><ele>166.411</ele><time>2026-08-17T04:14:05.652Z</time><hdop>3.375</hdop><vdop>3.0</vdop><extensions><gom:speed>0.116</gom:speed></extensions></trkpt>
   <trkpt lat="59.3272623953" lon="34.7021953982"><ele>166.408</ele><time>2026-08-17T04:14:06.656Z</time><hdop>3.437</hdop><vdop>2.75</vdop><extensions><gom:speed>0.116</gom:speed></extensions></trkpt>
   <trkpt lat="59.3272627725" lon="34.702195482"><ele>166.404</ele><time>2026-08-17T04:14:07.645Z</time><hdop>3.437</hdop><vdop>2.625</vdop><extensions><gom:speed>0.108</gom:speed></extensions></trkpt>
   <trkpt lat="59.3272628982" lon="34.702195482"><ele>166.399</ele><time>2026-08-17T04:14:08.644Z</time><hdop>3.437</hdop><vdop>2.687</vdop><extensions><gom:speed>0.107</gom:speed></extensions></trkpt>
   <trkpt lat="59.3272627725" lon="34.702195482"><ele>166.393</ele><time>2026-08-17T04:14:09.646Z</time><hdop>3.437</hdop><vdop>2.625</vdop><extensions><gom:speed>0.104</gom:speed></extensions></trkpt>
   <trkpt lat="59.3272627725" lon="34.7021953982"><ele>166.386</ele><time>2026-08-17T04:14:10.644Z</time><hdop>3.437</hdop><vdop>2.625</vdop><extensions><gom:speed>0.104</gom:speed></extensions></trkpt>
   <trkpt lat="59.3272624791" lon="34.7021953982"><ele>166.381</ele><time>2026-08-17T04:14:11.654Z</time><hdop>3.437</hdop><vdop>2.5</vdop><extensions><gom:speed>0.104</gom:speed></extensions></trkpt>
   <trkpt lat="59.3272622696" lon="34.7021953982"><ele>166.377</ele><time>2026-08-17T04:14:12.652Z</time><hdop>3.437</hdop><vdop>2.562</vdop><extensions><gom:speed>0.105</gom:speed></extensions></trkpt>
   <trkpt lat="59.3272622696" lon="34.7021952305"><ele>166.37</ele><time>2026-08-17T04:14:13.658Z</time><hdop>3.437</hdop><vdop>2.5</vdop><extensions><gom:speed>0.105</gom:speed></extensions></trkpt>
   <trkpt lat="59.3272624791" lon="34.7021951467"><ele>166.366</ele><time>2026-08-17T04:14:14.645Z</time><hdop>3.5</hdop><vdop>2.5</vdop><extensions><gom:speed>0.105</gom:speed></extensions></trkpt>
   <trkpt lat="59.3272621858" lon="34.7021950629"><ele>166.362</ele><time>2026-08-17T04:14:15.661Z</time><hdop>3.562</hdop><vdop>2.5</vdop><extensions><gom:speed>0.105</gom:speed></extensions></trkpt>
   <trkpt lat="59.3272619762" lon="34.7021950629"><ele>166.37</ele><time>2026-08-17T04:14:16.674Z</time><hdop>3.562</hdop><vdop>2.75</vdop><extensions><gom:speed>0.107</gom:speed></extensions></trkpt>
   <trkpt lat="59.3272618924" lon="34.7021959849"><ele>166.387</ele><time>2026-08-17T04:14:17.644Z</time><hdop>3.562</hdop><vdop>2.937</vdop><extensions><gom:speed>0.111</gom:speed></extensions></trkpt>
   <trkpt lat="59.3272616829" lon="34.7021958173"><ele>166.397</ele><time>2026-08-17T04:14:18.645Z</time><hdop>3.625</hdop><vdop>3.0</vdop><extensions><gom:speed>0.108</gom:speed></extensions></trkpt>
   <trkpt lat="59.3272616829" lon="34.702195482"><ele>166.401</ele><time>2026-08-17T04:14:19.644Z</time><hdop>3.625</hdop><vdop>2.812</vdop><extensions><gom:speed>0.106</gom:speed></extensions></trkpt>
   <trkpt lat="59.3272617667" lon="34.7021947276"><ele>166.403</ele><time>2026-08-17T04:14:20.645Z</time><hdop>3.687</hdop><vdop>2.687</vdop><extensions><gom:speed>0.105</gom:speed></extensions></trkpt>
   <trkpt lat="59.3272619762" lon="34.7021941409"><ele>166.403</ele><time>2026-08-17T04:14:21.645Z</time><hdop>3.687</hdop><vdop>2.5</vdop><extensions><gom:speed>0.107</gom:speed></extensions></trkpt>
   <trkpt lat="59.3272619762" lon="34.7021935541"><ele>166.403</ele><time>2026-08-17T04:14:22.644Z</time><hdop>3.75</hdop><vdop>2.5</vdop><extensions><gom:speed>0.104</gom:speed></extensions></trkpt>
   <trkpt lat="59.3272618924" lon="34.702193135"><ele>166.402</ele><time>2026-08-17T04:14:23.654Z</time><hdop>3.75</hdop><vdop>2.5</vdop><extensions><gom:speed>0.104</gom:speed></extensions></trkpt>
   <trkpt lat="59.3272619762" lon="34.7021930512"><ele>166.401</ele><time>2026-08-17T04:14:24.463Z</time><hdop>3.812</hdop><vdop>2.5</vdop><extensions><gom:speed>0.105</gom:speed></extensions></trkpt>
   <trkpt lat="59.3272624791" lon="34.7021920454"><ele>166.393</ele><time>2026-08-17T04:14:25.644Z</time><hdop>3.75</hdop><vdop>2.5</vdop><extensions><gom:speed>0.103</gom:speed></extensions></trkpt>
   <trkpt lat="59.3272627725" lon="34.7021916263"><ele>166.386</ele><time>2026-08-17T04:14:26.646Z</time><hdop>3.75</hdop><vdop>2.5</vdop><extensions><gom:speed>0.105</gom:speed></extensions></trkpt>
   <trkpt lat="59.3272628982" lon="34.702191291"><ele>166.381</ele><time>2026-08-17T04:14:27.652Z</time><hdop>3.812</hdop><vdop>2.5</vdop><extensions><gom:speed>0.105</gom:speed></extensions></trkpt>
   <trkpt lat="59.3272631916" lon="34.7021908719"><ele>166.378</ele><time>2026-08-17T04:14:28.645Z</time><hdop>3.75</hdop><vdop>2.5</vdop><extensions><gom:speed>0.107</gom:speed></extensions></trkpt>
   <trkpt lat="59.327263485" lon="34.7021908719"><ele>166.375</ele><time>2026-08-17T04:14:29.645Z</time><hdop>3.75</hdop><vdop>2.5</vdop><extensions><gom:speed>0.11</gom:speed></extensions></trkpt>
   <trkpt lat="59.3272635688" lon="34.7021904528"><ele>166.372</ele><time>2026-08-17T04:14:30.655Z</time><hdop>3.75</hdop><vdop>2.5</vdop><extensions><gom:speed>0.11</gom:speed></extensions></trkpt>
   <trkpt lat="59.3272639879" lon="34.7021899499"><ele>166.368</ele><time>2026-08-17T04:14:31.645Z</time><hdop>3.75</hdop><vdop>2.5</vdop><extensions><gom:speed>0.111</gom:speed></extensions></trkpt>
   <trkpt lat="59.3272641974" lon="34.7021896985"><ele>166.365</ele><time>2026-08-17T04:14:32.645Z</time><hdop>3.75</hdop><vdop>2.5</vdop><extensions><gom:speed>0.113</gom:speed></extensions></trkpt>
   <trkpt lat="59.3272641974" lon="34.7021892794"><ele>166.361</ele><time>2026-08-17T04:14:33.653Z</time><hdop>3.75</hdop><vdop>2.5</vdop><extensions><gom:speed>0.113</gom:speed></extensions></trkpt>
   <trkpt lat="59.3272643651" lon="34.7021886926"><ele>166.355</ele><time>2026-08-17T04:14:34.645Z</time><hdop>3.812</hdop><vdop>2.5</vdop><extensions><gom:speed>0.113</gom:speed></extensions></trkpt>
   <trkpt lat="59.3272646584" lon="34.7021881897"><ele>166.349</ele><time>2026-08-17T04:14:35.645Z</time><hdop>3.812</hdop><vdop>2.562</vdop><extensions><gom:speed>0.111</gom:speed></extensions></trkpt>
   <trkpt lat="59.3272647842" lon="34.7021877706"><ele>166.344</ele><time>2026-08-17T04:14:36.645Z</time><hdop>3.875</hdop><vdop>2.625</vdop><extensions><gom:speed>0.111</gom:speed></extensions></trkpt>
   <trkpt lat="59.3272647842" lon="34.7021878544"><ele>166.341</ele><time>2026-08-17T04:14:37.172Z</time><hdop>3.875</hdop><vdop>2.625</vdop><extensions><gom:speed>0.111</gom:speed></extensions></trkpt>
   <trkpt lat="59.3272647842" lon="34.7021870163"><ele>166.338</ele><time>2026-08-17T04:14:37.653Z</time><hdop>3.875</hdop><vdop>2.625</vdop><extensions><gom:speed>0.112</gom:speed></extensions></trkpt>
   <trkpt lat="59.3272649937" lon="34.7021869324"><ele>166.336</ele><time>2026-08-17T04:14:38.645Z</time><hdop>3.937</hdop><vdop>2.687</vdop><extensions><gom:speed>0.108</gom:speed></extensions></trkpt>
   <trkpt lat="59.3272649937" lon="34.702186681"><ele>166.333</ele><time>2026-08-17T04:14:39.652Z</time><hdop>3.937</hdop><vdop>2.75</vdop><extensions><gom:speed>0.108</gom:speed></extensions></trkpt>
   <trkpt lat="59.3272650775" lon="34.7021862619"><ele>166.329</ele><time>2026-08-17T04:14:40.653Z</time><hdop>4.0</hdop><vdop>2.937</vdop><extensions><gom:speed>0.107</gom:speed></extensions></trkpt>
   <trkpt lat="59.3272652871" lon="34.7021860942"><ele>166.324</ele><time>2026-08-17T04:14:41.645Z</time><hdop>4.0</hdop><vdop>3.312</vdop><extensions><gom:speed>0.107</gom:speed></extensions></trkpt>
   <trkpt lat="59.3272652871" lon="34.702185759"><ele>166.317</ele><time>2026-08-17T04:14:42.652Z</time><hdop>4.062</hdop><vdop>3.625</vdop><extensions><gom:speed>0.107</gom:speed></extensions></trkpt>
   <trkpt lat="59.3272653709" lon="34.7021859266"><ele>166.313</ele><time>2026-08-17T04:14:43.484Z</time><hdop>4.062</hdop><vdop>3.625</vdop><extensions><gom:speed>0.108</gom:speed></extensions></trkpt>
   <trkpt lat="59.3272653709" lon="34.7021853399"><ele>166.308</ele><time>2026-08-17T04:14:44.617Z</time><hdop>4.062</hdop><vdop>3.937</vdop><extensions><gom:speed>0.108</gom:speed></extensions></trkpt>
   <trkpt lat="59.3272656643" lon="34.7021858428"><ele>166.3</ele><time>2026-08-17T04:14:45.645Z</time><hdop>4.125</hdop><vdop>4.5</vdop><extensions><gom:speed>0.105</gom:speed></extensions></trkpt>
   <trkpt lat="59.3272658738" lon="34.7021859266"><ele>166.292</ele><time>2026-08-17T04:14:46.644Z</time><hdop>4.062</hdop><vdop>4.812</vdop><extensions><gom:speed>0.107</gom:speed></extensions></trkpt>
   <trkpt lat="59.3272658738" lon="34.7021858428"><ele>166.284</ele><time>2026-08-17T04:14:47.652Z</time><hdop>4.125</hdop><vdop>5.187</vdop><extensions><gom:speed>0.107</gom:speed></extensions></trkpt>
   <trkpt lat="59.3272659995" lon="34.7021860942"><ele>166.277</ele><time>2026-08-17T04:14:48.664Z</time><hdop>4.125</hdop><vdop>5.5</vdop><extensions><gom:speed>0.107</gom:speed></extensions></trkpt>
   <trkpt lat="59.3272661672" lon="34.7021864295"><ele>166.269</ele><time>2026-08-17T04:14:49.646Z</time><hdop>4.125</hdop><vdop>5.562</vdop><extensions><gom:speed>0.105</gom:speed></extensions></trkpt>
   <trkpt lat="59.3272662929" lon="34.7021868486"><ele>166.263</ele><time>2026-08-17T04:14:50.645Z</time><hdop>4.125</hdop><vdop>5.0</vdop><extensions><gom:speed>0.103</gom:speed></extensions></trkpt>
   <trkpt lat="59.3272662929" lon="34.7021870163"><ele>166.258</ele><time>2026-08-17T04:14:51.645Z</time><hdop>4.187</hdop><vdop>4.687</vdop><extensions><gom:speed>0.102</gom:speed></extensions></trkpt>
   <trkpt lat="59.3272662929" lon="34.7021880221"><ele>166.251</ele><time>2026-08-17T04:14:52.650Z</time><hdop>4.187</hdop><vdop>4.25</vdop><extensions><gom:speed>0.101</gom:speed></extensions></trkpt>
   <trkpt lat="59.3272663767" lon="34.7021881897"><ele>166.246</ele><time>2026-08-17T04:14:53.645Z</time><hdop>4.187</hdop><vdop>3.75</vdop><extensions><gom:speed>0.099</gom:speed></extensions></trkpt>
   <trkpt lat="59.3272662929" lon="34.7021880221"><ele>166.24</ele><time>2026-08-17T04:14:54.645Z</time><hdop>4.125</hdop><vdop>3.562</vdop><extensions><gom:speed>0.099</gom:speed></extensions></trkpt>
   <trkpt lat="59.3272661672" lon="34.7021880221"><ele>166.234</ele><time>2026-08-17T04:14:55.645Z</time><hdop>4.187</hdop><vdop>3.25</vdop><extensions><gom:speed>0.099</gom:speed></extensions></trkpt>
   <trkpt lat="59.3272659995" lon="34.7021878544"><ele>166.227</ele><time>2026-08-17T04:14:56.645Z</time><hdop>4.187</hdop><vdop>3.125</vdop><extensions><gom:speed>0.099</gom:speed></extensions></trkpt>
   <trkpt lat="59.3272659995" lon="34.7021877706"><ele>166.22</ele><time>2026-08-17T04:14:57.652Z</time><hdop>4.187</hdop><vdop>2.937</vdop><extensions><gom:speed>0.1</gom:speed></extensions></trkpt>
   <trkpt lat="59.3272658738" lon="34.7021875192"><ele>166.211</ele><time>2026-08-17T04:14:58.652Z</time><hdop>4.187</hdop><vdop>2.625</vdop><extensions><gom:speed>0.099</gom:speed></extensions></trkpt>
   <trkpt lat="59.3272658738" lon="34.7021873515"><ele>166.203</ele><time>2026-08-17T04:14:59.652Z</time><hdop>4.25</hdop><vdop>2.562</vdop><extensions><gom:speed>0.099</gom:speed></extensions></trkpt>
   <trkpt lat="59.3272658738" lon="34.7021872677"><ele>166.194</ele><time>2026-08-17T04:15:00.644Z</time><hdop>4.25</hdop><vdop>2.5</vdop><extensions><gom:speed>0.1</gom:speed></extensions></trkpt>
   <trkpt lat="59.32726579" lon="34.7021870163"><ele>166.186</ele><time>2026-08-17T04:15:01.652Z</time><hdop>4.25</hdop><vdop>2.5</vdop><extensions><gom:speed>0.1</gom:speed></extensions></trkpt>
   <trkpt lat="59.3272656643" lon="34.7021868486"><ele>166.176</ele><time>2026-08-17T04:15:02.652Z</time><hdop>4.312</hdop><vdop>2.5</vdop><extensions><gom:speed>0.101</gom:speed></extensions></trkpt>
   <trkpt lat="59.32726579" lon="34.7021867648"><ele>166.166</ele><time>2026-08-17T04:15:03.652Z</time><hdop>4.187</hdop><vdop>2.5</vdop><extensions><gom:speed>0.086</gom:speed></extensions></trkpt>
   <trkpt lat="59.3272660834" lon="34.7021874353"><ele>166.155</ele><time>2026-08-17T04:15:04.653Z</time><hdop>4.0</hdop><vdop>2.5</vdop><extensions><gom:speed>0.078</gom:speed></extensions></trkpt>
   <trkpt lat="59.3272663767" lon="34.7021879383"><ele>166.148</ele><time>2026-08-17T04:15:05.652Z</time><hdop>3.812</hdop><vdop>2.5</vdop><extensions><gom:speed>0.074</gom:speed></extensions></trkpt>
   <trkpt lat="59.3272664605" lon="34.7021878544"><ele>166.367</ele><time>2026-08-17T04:15:06.652Z</time><hdop>3.687</hdop><vdop>2.5</vdop><extensions><gom:speed>0.112</gom:speed></extensions></trkpt>
   <trkpt lat="59.3272661672" lon="34.7021873515"><ele>166.363</ele><time>2026-08-17T04:15:07.645Z</time><hdop>3.25</hdop><vdop>2.5</vdop><extensions><gom:speed>0.217</gom:speed></extensions></trkpt>
   <trkpt lat="59.3272658738" lon="34.7021864295"><ele>166.313</ele><time>2026-08-17T04:15:08.656Z</time><hdop>3.125</hdop><vdop>2.5</vdop><extensions><gom:speed>0.231</gom:speed></extensions></trkpt>
   <trkpt lat="59.3272652871" lon="34.7021845855"><ele>166.277</ele><time>2026-08-17T04:15:09.652Z</time><hdop>3.125</hdop><vdop>2.5</vdop><extensions><gom:speed>0.108</gom:speed></extensions></trkpt>
   <trkpt lat="59.3272651613" lon="34.7021837473"><ele>166.256</ele><time>2026-08-17T04:15:10.653Z</time><hdop>3.0</hdop><vdop>2.5</vdop><extensions><gom:speed>0.088</gom:speed></extensions></trkpt>
   <trkpt lat="59.3272650775" lon="34.7021822386"><ele>166.243</ele><time>2026-08-17T04:15:11.645Z</time><hdop>3.0</hdop><vdop>2.5</vdop><extensions><gom:speed>0.072</gom:speed></extensions></trkpt>
   <trkpt lat="59.327264868" lon="34.7021812327"><ele>166.234</ele><time>2026-08-17T04:15:12.645Z</time><hdop>3.0</hdop><vdop>2.5</vdop><extensions><gom:speed>0.074</gom:speed></extensions></trkpt>
   <trkpt lat="59.327264868" lon="34.702180646"><ele>166.231</ele><time>2026-08-17T04:15:13.652Z</time><hdop>3.0</hdop><vdop>2.5</vdop><extensions><gom:speed>0.074</gom:speed></extensions></trkpt>
   <trkpt lat="59.3272644908" lon="34.7021800593"><ele>166.235</ele><time>2026-08-17T04:15:14.646Z</time><hdop>3.0</hdop><vdop>2.5</vdop><extensions><gom:speed>0.128</gom:speed></extensions></trkpt>
   <trkpt lat="59.3272639879" lon="34.7021795564"><ele>166.242</ele><time>2026-08-17T04:15:15.657Z</time><hdop>3.0</hdop><vdop>2.5</vdop><extensions><gom:speed>0.105</gom:speed></extensions></trkpt>
   <trkpt lat="59.3272636945" lon="34.7021787182"><ele>166.245</ele><time>2026-08-17T04:15:16.652Z</time><hdop>3.0</hdop><vdop>2.5</vdop><extensions><gom:speed>0.089</gom:speed></extensions></trkpt>
   <trkpt lat="59.3272636945" lon="34.7021781314"><ele>166.245</ele><time>2026-08-17T04:15:17.652Z</time><hdop>3.0</hdop><vdop>2.5</vdop><extensions><gom:speed>0.083</gom:speed></extensions></trkpt>
   <trkpt lat="59.327263485" lon="34.7021777962"><ele>166.249</ele><time>2026-08-17T04:15:18.652Z</time><hdop>3.0</hdop><vdop>2.5</vdop><extensions><gom:speed>0.077</gom:speed></extensions></trkpt>
   <trkpt lat="59.3272633592" lon="34.7021773771"><ele>166.25</ele><time>2026-08-17T04:15:19.652Z</time><hdop>3.0</hdop><vdop>2.5</vdop><extensions><gom:speed>0.074</gom:speed></extensions></trkpt>
   <trkpt lat="59.3272632754" lon="34.7021770418"><ele>166.252</ele><time>2026-08-17T04:15:20.382Z</time><hdop>3.0</hdop><vdop>2.5</vdop><extensions><gom:speed>0.069</gom:speed></extensions></trkpt>
   <trkpt lat="59.3272631916" lon="34.7021766227"><ele>166.259</ele><time>2026-08-17T04:15:21.313Z</time><hdop>3.0</hdop><vdop>2.5</vdop><extensions><gom:speed>0.065</gom:speed></extensions></trkpt>
   <trkpt lat="59.3272637783" lon="34.7021776285"><ele>166.52</ele><time>2026-08-17T04:15:22.645Z</time><hdop>3.0</hdop><vdop>2.5</vdop><extensions><gom:speed>0.432</gom:speed></extensions></trkpt>
   <trkpt lat="59.3272616829" lon="34.7021758683"><ele>166.623</ele><time>2026-08-17T04:15:23.652Z</time><hdop>3.0</hdop><vdop>2.5</vdop><extensions><gom:speed>0.697</gom:speed></extensions></trkpt>
   <trkpt lat="59.3272619762" lon="34.7021791373"><ele>166.685</ele><time>2026-08-17T04:15:24.197Z</time><hdop>3.0</hdop><vdop>2.5</vdop><extensions><gom:speed>0.277</gom:speed></extensions></trkpt>
   <trkpt lat="59.327264868" lon="34.7021886926"><ele>166.365</ele><time>2026-08-17T04:15:25.016Z</time><hdop>3.0</hdop><vdop>2.5</vdop><extensions><gom:speed>0.315</gom:speed></extensions></trkpt>
   <trkpt lat="59.3272656643" lon="34.7021905367"><ele>166.045</ele><time>2026-08-17T04:15:25.652Z</time><hdop>3.0</hdop><vdop>2.5</vdop><extensions><gom:speed>0.16</gom:speed></extensions></trkpt>
   <trkpt lat="59.3272711963" lon="34.7022041992"><ele>165.853</ele><time>2026-08-17T04:15:26.675Z</time><hdop>3.062</hdop><vdop>2.5</vdop><extensions><gom:speed>0.225</gom:speed></extensions></trkpt>
   <trkpt lat="59.3272773989" lon="34.7022159338"><ele>165.933</ele><time>2026-08-17T04:15:27.657Z</time><hdop>3.062</hdop><vdop>2.5</vdop><extensions><gom:speed>0.193</gom:speed></extensions></trkpt>
   <trkpt lat="59.3272828891" lon="34.7022300992"><ele>165.981</ele><time>2026-08-17T04:15:28.638Z</time><hdop>3.062</hdop><vdop>2.5</vdop><extensions><gom:speed>0.264</gom:speed></extensions></trkpt>
   <trkpt lat="59.3272895946" lon="34.7022480365"><ele>166.04</ele><time>2026-08-17T04:15:29.316Z</time><hdop>3.0</hdop><vdop>2.5</vdop><extensions><gom:speed>0.429</gom:speed></extensions></trkpt>
   <trkpt lat="59.3272946656" lon="34.7022628725"><ele>165.779</ele><time>2026-08-17T04:15:30.014Z</time><hdop>3.062</hdop><vdop>2.5</vdop><extensions><gom:speed>0.529</gom:speed></extensions></trkpt>
   <trkpt lat="59.3272975993" lon="34.7022721764"><ele>165.69</ele><time>2026-08-17T04:15:30.652Z</time><hdop>3.0</hdop><vdop>2.5</vdop><extensions><gom:speed>0.566</gom:speed></extensions></trkpt>
   <trkpt lat="59.3273029637" lon="34.7022925444"><ele>165.67</ele><time>2026-08-17T04:15:31.644Z</time><hdop>3.0</hdop><vdop>2.5</vdop><extensions><gom:speed>0.606</gom:speed></extensions></trkpt>
   <trkpt lat="59.3273056879" lon="34.7023034409"><ele>165.658</ele><time>2026-08-17T04:15:32.503Z</time><hdop>3.0</hdop><vdop>2.5</vdop><extensions><gom:speed>0.551</gom:speed></extensions></trkpt>
   <trkpt lat="59.3273071966" lon="34.7023145888"><ele>165.821</ele><time>2026-08-17T04:15:33.262Z</time><hdop>3.0</hdop><vdop>2.687</vdop><extensions><gom:speed>0.553</gom:speed></extensions></trkpt>
   <trkpt lat="59.3273083701" lon="34.7023300953"><ele>165.938</ele><time>2026-08-17T04:15:34.476Z</time><hdop>3.0</hdop><vdop>2.875</vdop><extensions><gom:speed>0.518</gom:speed></extensions></trkpt>
   <trkpt lat="59.3273082862" lon="34.7023424167"><ele>166.101</ele><time>2026-08-17T04:15:35.214Z</time><hdop>3.0</hdop><vdop>2.875</vdop><extensions><gom:speed>0.51</gom:speed></extensions></trkpt>
   <trkpt lat="59.32730749" lon="34.7023596835"><ele>166.427</ele><time>2026-08-17T04:15:35.993Z</time><hdop>3.0</hdop><vdop>2.625</vdop><extensions><gom:speed>0.521</gom:speed></extensions></trkpt>
   <trkpt lat="59.327306987" lon="34.7023725916"><ele>166.748</ele><time>2026-08-17T04:15:36.644Z</time><hdop>3.0</hdop><vdop>2.75</vdop><extensions><gom:speed>0.551</gom:speed></extensions></trkpt>
   <trkpt lat="59.3273080767" lon="34.7023863379"><ele>166.94</ele><time>2026-08-17T04:15:37.582Z</time><hdop>3.0</hdop><vdop>2.75</vdop><extensions><gom:speed>0.59</gom:speed></extensions></trkpt>
   <trkpt lat="59.3273079929" lon="34.7024000842"><ele>167.098</ele><time>2026-08-17T04:15:38.402Z</time><hdop>3.0</hdop><vdop>2.937</vdop><extensions><gom:speed>0.582</gom:speed></extensions></trkpt>
   <trkpt lat="59.327306568" lon="34.7024156746"><ele>166.686</ele><time>2026-08-17T04:15:39.383Z</time><hdop>3.0</hdop><vdop>2.687</vdop><extensions><gom:speed>0.522</gom:speed></extensions></trkpt>
   <trkpt lat="59.3273052688" lon="34.7024232183"><ele>166.326</ele><time>2026-08-17T04:15:40.101Z</time><hdop>3.0</hdop><vdop>2.625</vdop><extensions><gom:speed>0.437</gom:speed></extensions></trkpt>
   <trkpt lat="59.3273029637" lon="34.7024337795"><ele>166.234</ele><time>2026-08-17T04:15:40.644Z</time><hdop>3.0</hdop><vdop>2.625</vdop><extensions><gom:speed>0.528</gom:speed></extensions></trkpt>
   <trkpt lat="59.3273026704" lon="34.7024379704"><ele>166.178</ele><time>2026-08-17T04:15:41.133Z</time><hdop>3.0</hdop><vdop>2.625</vdop><extensions><gom:speed>0.42</gom:speed></extensions></trkpt>
   <trkpt lat="59.327303299" lon="34.7024400659"><ele>166.165</ele><time>2026-08-17T04:15:41.652Z</time><hdop>3.0</hdop><vdop>2.75</vdop><extensions><gom:speed>0.319</gom:speed></extensions></trkpt>
   <trkpt lat="59.3273018741" lon="34.702448364"><ele>165.953</ele><time>2026-08-17T04:15:42.651Z</time><hdop>3.0</hdop><vdop>2.812</vdop><extensions><gom:speed>0.314</gom:speed></extensions></trkpt>
   <trkpt lat="59.3273020836" lon="34.7024644572"><ele>165.826</ele><time>2026-08-17T04:15:43.440Z</time><hdop>3.0</hdop><vdop>2.812</vdop><extensions><gom:speed>0.529</gom:speed></extensions></trkpt>
   <trkpt lat="59.3273002815" lon="34.7024695702"><ele>165.651</ele><time>2026-08-17T04:15:43.966Z</time><hdop>3.0</hdop><vdop>2.625</vdop><extensions><gom:speed>0.428</gom:speed></extensions></trkpt>
   <trkpt lat="59.3273005749" lon="34.7024759405"><ele>166.079</ele><time>2026-08-17T04:15:44.652Z</time><hdop>3.0</hdop><vdop>2.562</vdop><extensions><gom:speed>0.312</gom:speed></extensions></trkpt>
   <trkpt lat="59.3273005749" lon="34.7024857473"><ele>165.867</ele><time>2026-08-17T04:15:45.652Z</time><hdop>3.0</hdop><vdop>2.5</vdop><extensions><gom:speed>0.307</gom:speed></extensions></trkpt>
   <trkpt lat="59.3273016645" lon="34.7024943806"><ele>165.74</ele><time>2026-08-17T04:15:46.638Z</time><hdop>3.0</hdop><vdop>2.5</vdop><extensions><gom:speed>0.307</gom:speed></extensions></trkpt>
   <trkpt lat="59.3273028799" lon="34.7024975658"><ele>165.605</ele><time>2026-08-17T04:15:47.508Z</time><hdop>3.0</hdop><vdop>2.5</vdop><extensions><gom:speed>0.227</gom:speed></extensions></trkpt>
   <trkpt lat="59.327304682" lon="34.702502092"><ele>165.268</ele><time>2026-08-17T04:15:48.215Z</time><hdop>3.0</hdop><vdop>2.5</vdop><extensions><gom:speed>0.248</gom:speed></extensions></trkpt>
   <trkpt lat="59.327306987" lon="34.7025064506"><ele>165.091</ele><time>2026-08-17T04:15:48.954Z</time><hdop>3.0</hdop><vdop>2.625</vdop><extensions><gom:speed>0.262</gom:speed></extensions></trkpt>
   <trkpt lat="59.3273077833" lon="34.7025078755"><ele>164.986</ele><time>2026-08-17T04:15:49.531Z</time><hdop>3.0</hdop><vdop>2.625</vdop><extensions><gom:speed>0.271</gom:speed></extensions></trkpt>
   <trkpt lat="59.3273140698" lon="34.7025202807"><ele>165.281</ele><time>2026-08-17T04:15:50.652Z</time><hdop>3.0</hdop><vdop>2.562</vdop><extensions><gom:speed>0.338</gom:speed></extensions></trkpt>
   <trkpt lat="59.3273170872" lon="34.7025272377"><ele>165.458</ele><time>2026-08-17T04:15:51.534Z</time><hdop>3.0</hdop><vdop>2.562</vdop><extensions><gom:speed>0.305</gom:speed></extensions></trkpt>
   <trkpt lat="59.3273202724" lon="34.7025371283"><ele>165.666</ele><time>2026-08-17T04:15:52.434Z</time><hdop>3.0</hdop><vdop>2.562</vdop><extensions><gom:speed>0.452</gom:speed></extensions></trkpt>
   <trkpt lat="59.327322284" lon="34.7025416546"><ele>165.842</ele><time>2026-08-17T04:15:53.456Z</time><hdop>3.0</hdop><vdop>2.5</vdop><extensions><gom:speed>0.339</gom:speed></extensions></trkpt>
   <trkpt lat="59.327322284" lon="34.7025421575"><ele>165.905</ele><time>2026-08-17T04:15:54.216Z</time><hdop>3.0</hdop><vdop>2.5</vdop><extensions><gom:speed>0.444</gom:speed></extensions></trkpt>
   <trkpt lat="59.3273233737" lon="34.70253914"><ele>165.969</ele><time>2026-08-17T04:15:55.095Z</time><hdop>3.0</hdop><vdop>2.875</vdop><extensions><gom:speed>0.506</gom:speed></extensions></trkpt>
   <trkpt lat="59.3273216973" lon="34.7025418222"><ele>165.343</ele><time>2026-08-17T04:15:55.652Z</time><hdop>3.0</hdop><vdop>2.937</vdop><extensions><gom:speed>0.44</gom:speed></extensions></trkpt>
   <trkpt lat="59.3273229965" lon="34.7025395591"><ele>164.969</ele><time>2026-08-17T04:15:56.198Z</time><hdop>3.0</hdop><vdop>2.937</vdop><extensions><gom:speed>0.373</gom:speed></extensions></trkpt>
   <trkpt lat="59.327323667" lon="34.7025406487"><ele>164.911</ele><time>2026-08-17T04:15:56.652Z</time><hdop>3.0</hdop><vdop>2.875</vdop><extensions><gom:speed>0.372</gom:speed></extensions></trkpt>
   <trkpt lat="59.3273240861" lon="34.7025440853"><ele>164.877</ele><time>2026-08-17T04:15:57.179Z</time><hdop>3.0</hdop><vdop>2.875</vdop><extensions><gom:speed>0.467</gom:speed></extensions></trkpt>
   <trkpt lat="59.3273242957" lon="34.7025463484"><ele>165.24</ele><time>2026-08-17T04:15:57.646Z</time><hdop>3.0</hdop><vdop>2.75</vdop><extensions><gom:speed>0.41</gom:speed></extensions></trkpt>
   <trkpt lat="59.3273240861" lon="34.7025496174"><ele>165.457</ele><time>2026-08-17T04:15:58.302Z</time><hdop>3.0</hdop><vdop>2.75</vdop><extensions><gom:speed>0.377</gom:speed></extensions></trkpt>
   <trkpt lat="59.3273239604" lon="34.7025562391"><ele>165.309</ele><time>2026-08-17T04:15:59.041Z</time><hdop>3.0</hdop><vdop>2.687</vdop><extensions><gom:speed>0.498</gom:speed></extensions></trkpt>
   <trkpt lat="59.3273235832" lon="34.7025632799"><ele>165.343</ele><time>2026-08-17T04:15:59.648Z</time><hdop>3.0</hdop><vdop>2.812</vdop><extensions><gom:speed>0.519</gom:speed></extensions></trkpt>
   <trkpt lat="59.3273252596" lon="34.7025773615"><ele>165.316</ele><time>2026-08-17T04:16:00.645Z</time><hdop>3.0</hdop><vdop>2.687</vdop><extensions><gom:speed>0.497</gom:speed></extensions></trkpt>
   <trkpt lat="59.3273258882" lon="34.7025845699"><ele>165.299</ele><time>2026-08-17T04:16:01.177Z</time><hdop>3.0</hdop><vdop>2.687</vdop><extensions><gom:speed>0.439</gom:speed></extensions></trkpt>
   <trkpt lat="59.327326475" lon="34.7025881741"><ele>165.16</ele><time>2026-08-17T04:16:01.645Z</time><hdop>3.0</hdop><vdop>2.812</vdop><extensions><gom:speed>0.456</gom:speed></extensions></trkpt>
   <trkpt lat="59.3273288638" lon="34.7025993221"><ele>165.191</ele><time>2026-08-17T04:16:02.645Z</time><hdop>3.0</hdop><vdop>3.0</vdop><extensions><gom:speed>0.558</gom:speed></extensions></trkpt>
   <trkpt lat="59.3273307917" lon="34.7026089613"><ele>165.209</ele><time>2026-08-17T04:16:03.614Z</time><hdop>3.0</hdop><vdop>3.0</vdop><extensions><gom:speed>0.488</gom:speed></extensions></trkpt>
   <trkpt lat="59.327332468" lon="34.7026163373"><ele>165.509</ele><time>2026-08-17T04:16:04.514Z</time><hdop>3.0</hdop><vdop>2.875</vdop><extensions><gom:speed>0.407</gom:speed></extensions></trkpt>
   <trkpt lat="59.3273344797" lon="34.7026291616"><ele>165.394</ele><time>2026-08-17T04:16:05.455Z</time><hdop>3.0</hdop><vdop>2.687</vdop><extensions><gom:speed>0.479</gom:speed></extensions></trkpt>
   <trkpt lat="59.327335276" lon="34.7026388847"><ele>165.368</ele><time>2026-08-17T04:16:06.224Z</time><hdop>3.0</hdop><vdop>2.875</vdop><extensions><gom:speed>0.533</gom:speed></extensions></trkpt>
   <trkpt lat="59.3273371619" lon="34.7026547265"><ele>165.33</ele><time>2026-08-17T04:16:07.196Z</time><hdop>3.0</hdop><vdop>2.937</vdop><extensions><gom:speed>0.541</gom:speed></extensions></trkpt>
   <trkpt lat="59.3273386706" lon="34.7026659582"><ele>165.62</ele><time>2026-08-17T04:16:08.197Z</time><hdop>3.0</hdop><vdop>2.812</vdop><extensions><gom:speed>0.544</gom:speed></extensions></trkpt>
   <trkpt lat="59.3273393831" lon="34.7026713226"><ele>165.253</ele><time>2026-08-17T04:16:08.652Z</time><hdop>3.062</hdop><vdop>3.125</vdop><extensions><gom:speed>0.54</gom:speed></extensions></trkpt>
   <trkpt lat="59.3273381677" lon="34.7026853204"><ele>165.121</ele><time>2026-08-17T04:16:09.645Z</time><hdop>3.187</hdop><vdop>2.875</vdop><extensions><gom:speed>0.548</gom:speed></extensions></trkpt>
   <trkpt lat="59.3273377905" lon="34.7026957978"><ele>165.042</ele><time>2026-08-17T04:16:10.403Z</time><hdop>3.312</hdop><vdop>2.875</vdop><extensions><gom:speed>0.577</gom:speed></extensions></trkpt>
   <trkpt lat="59.327336198" lon="34.702707281"><ele>165.087</ele><time>2026-08-17T04:16:11.284Z</time><hdop>3.437</hdop><vdop>2.812</vdop><extensions><gom:speed>0.533</gom:speed></extensions></trkpt>
   <trkpt lat="59.3273344797" lon="34.7027182613"><ele>165.399</ele><time>2026-08-17T04:16:12.215Z</time><hdop>3.75</hdop><vdop>2.937</vdop><extensions><gom:speed>0.529</gom:speed></extensions></trkpt>
   <trkpt lat="59.3273331805" lon="34.7027237933"><ele>165.613</ele><time>2026-08-17T04:16:12.760Z</time><hdop>3.875</hdop><vdop>2.75</vdop><extensions><gom:speed>0.493</gom:speed></extensions></trkpt>
   <trkpt lat="59.3273321747" lon="34.7027302474"><ele>165.742</ele><time>2026-08-17T04:16:13.652Z</time><hdop>4.0</hdop><vdop>2.687</vdop><extensions><gom:speed>0.461</gom:speed></extensions></trkpt>
   <trkpt lat="59.3273298696" lon="34.7027281519"><ele>166.212</ele><time>2026-08-17T04:16:14.653Z</time><hdop>4.125</hdop><vdop>2.5</vdop><extensions><gom:speed>0.245</gom:speed></extensions></trkpt>
   <trkpt lat="59.327325092" lon="34.7027296607"><ele>166.575</ele><time>2026-08-17T04:16:15.644Z</time><hdop>4.312</hdop><vdop>2.562</vdop><extensions><gom:speed>0.217</gom:speed></extensions></trkpt>
   <trkpt lat="59.3273226612" lon="34.7027255535"><ele>166.846</ele><time>2026-08-17T04:16:16.645Z</time><hdop>4.375</hdop><vdop>2.625</vdop><extensions><gom:speed>0.117</gom:speed></extensions></trkpt>
   <trkpt lat="59.3273230803" lon="34.7027232904"><ele>167.01</ele><time>2026-08-17T04:16:17.652Z</time><hdop>4.375</hdop><vdop>2.5</vdop><extensions><gom:speed>0.03</gom:speed></extensions></trkpt>
   <trkpt lat="59.3273218649" lon="34.7027238772"><ele>167.109</ele><time>2026-08-17T04:16:18.294Z</time><hdop>4.312</hdop><vdop>2.5</vdop><extensions><gom:speed>0.08</gom:speed></extensions></trkpt>
   <trkpt lat="59.3273205657" lon="34.7027260564"><ele>167.026</ele><time>2026-08-17T04:16:18.820Z</time><hdop>4.25</hdop><vdop>2.5</vdop><extensions><gom:speed>0.041</gom:speed></extensions></trkpt>
   <trkpt lat="59.327319979" lon="34.7027273976"><ele>167.086</ele><time>2026-08-17T04:16:19.652Z</time><hdop>4.25</hdop><vdop>2.5</vdop><extensions><gom:speed>0.053</gom:speed></extensions></trkpt>
   <trkpt lat="59.3273175902" lon="34.7027301636"><ele>167.123</ele><time>2026-08-17T04:16:20.420Z</time><hdop>4.187</hdop><vdop>2.5</vdop><extensions><gom:speed>0.096</gom:speed></extensions></trkpt>
   <trkpt lat="59.3273145727" lon="34.7027342707"><ele>167.229</ele><time>2026-08-17T04:16:21.137Z</time><hdop>4.187</hdop><vdop>2.687</vdop><extensions><gom:speed>0.152</gom:speed></extensions></trkpt>
   <trkpt lat="59.3273119743" lon="34.7027375397"><ele>167.694</ele><time>2026-08-17T04:16:21.646Z</time><hdop>4.187</hdop><vdop>2.687</vdop><extensions><gom:speed>0.182</gom:speed></extensions></trkpt>
   <trkpt lat="59.3273089987" lon="34.7027437423"><ele>167.701</ele><time>2026-08-17T04:16:22.652Z</time><hdop>4.187</hdop><vdop>2.75</vdop><extensions><gom:speed>0.301</gom:speed></extensions></trkpt>
   <trkpt lat="59.3273031733" lon="34.7027524594"><ele>167.964</ele><time>2026-08-17T04:16:23.645Z</time><hdop>4.187</hdop><vdop>2.687</vdop><extensions><gom:speed>0.357</gom:speed></extensions></trkpt>
   <trkpt lat="59.3272989823" lon="34.7027629368"><ele>167.942</ele><time>2026-08-17T04:16:24.652Z</time><hdop>4.187</hdop><vdop>2.562</vdop><extensions><gom:speed>0.434</gom:speed></extensions></trkpt>
   <trkpt lat="59.3272901813" lon="34.7027729951"><ele>167.929</ele><time>2026-08-17T04:16:25.478Z</time><hdop>4.062</hdop><vdop>2.562</vdop><extensions><gom:speed>0.436</gom:speed></extensions></trkpt>
   <trkpt lat="59.3272848588" lon="34.7027821314"><ele>168.038</ele><time>2026-08-17T04:16:26.095Z</time><hdop>3.937</hdop><vdop>2.562</vdop><extensions><gom:speed>0.47</gom:speed></extensions></trkpt>
   <trkpt lat="59.3272820928" lon="34.7027882502"><ele>168.086</ele><time>2026-08-17T04:16:26.662Z</time><hdop>3.875</hdop><vdop>2.5</vdop><extensions><gom:speed>0.454</gom:speed></extensions></trkpt>
   <trkpt lat="59.3272779857" lon="34.7028014936"><ele>168.115</ele><time>2026-08-17T04:16:27.572Z</time><hdop>3.687</hdop><vdop>2.5</vdop><extensions><gom:speed>0.458</gom:speed></extensions></trkpt>
   <trkpt lat="59.3272741719" lon="34.7028109651"><ele>168.323</ele><time>2026-08-17T04:16:28.652Z</time><hdop>3.5</hdop><vdop>2.5</vdop><extensions><gom:speed>0.37</gom:speed></extensions></trkpt>
   <trkpt lat="59.3272705677" lon="34.7028240409"><ele>168.244</ele><time>2026-08-17T04:16:29.652Z</time><hdop>3.312</hdop><vdop>2.562</vdop><extensions><gom:speed>0.403</gom:speed></extensions></trkpt>
   <trkpt lat="59.327264868" lon="34.7028410562"><ele>168.143</ele><time>2026-08-17T04:16:30.645Z</time><hdop>3.125</hdop><vdop>2.687</vdop><extensions><gom:speed>0.489</gom:speed></extensions></trkpt>
   <trkpt lat="59.3272616829" lon="34.702851785"><ele>168.133</ele><time>2026-08-17T04:16:31.652Z</time><hdop>3.0</hdop><vdop>2.625</vdop><extensions><gom:speed>0.362</gom:speed></extensions></trkpt>
   <trkpt lat="59.3272596712" lon="34.7028601669"><ele>168.127</ele><time>2026-08-17T04:16:32.500Z</time><hdop>3.0</hdop><vdop>2.625</vdop><extensions><gom:speed>0.395</gom:speed></extensions></trkpt>
   <trkpt lat="59.3272565699" lon="34.7028695546"><ele>168.216</ele><time>2026-08-17T04:16:33.400Z</time><hdop>3.0</hdop><vdop>2.562</vdop><extensions><gom:speed>0.389</gom:speed></extensions></trkpt>
   <trkpt lat="59.3272542649" lon="34.7028786909"><ele>168.163</ele><time>2026-08-17T04:16:34.037Z</time><hdop>3.0</hdop><vdop>2.562</vdop><extensions><gom:speed>0.521</gom:speed></extensions></trkpt>
   <trkpt lat="59.3272525885" lon="34.7028855641"><ele>168.188</ele><time>2026-08-17T04:16:34.654Z</time><hdop>3.0</hdop><vdop>2.812</vdop><extensions><gom:speed>0.495</gom:speed></extensions></trkpt>
   <trkpt lat="59.3272509959" lon="34.7029009868"><ele>168.204</ele><time>2026-08-17T04:16:35.657Z</time><hdop>3.0</hdop><vdop>2.812</vdop><extensions><gom:speed>0.509</gom:speed></extensions></trkpt>
   <trkpt lat="59.3272502835" lon="34.7029129729"><ele>167.968</ele><time>2026-08-17T04:16:36.637Z</time><hdop>3.0</hdop><vdop>2.562</vdop><extensions><gom:speed>0.434</gom:speed></extensions></trkpt>
   <trkpt lat="59.3272502835" lon="34.7029339276"><ele>167.709</ele><time>2026-08-17T04:16:37.645Z</time><hdop>3.0</hdop><vdop>2.625</vdop><extensions><gom:speed>0.492</gom:speed></extensions></trkpt>
   <trkpt lat="59.3272513731" lon="34.7029455785"><ele>167.516</ele><time>2026-08-17T04:16:38.652Z</time><hdop>3.0</hdop><vdop>2.5</vdop><extensions><gom:speed>0.355</gom:speed></extensions></trkpt>
   <trkpt lat="59.3272524628" lon="34.702954128"><ele>167.401</ele><time>2026-08-17T04:16:39.460Z</time><hdop>3.0</hdop><vdop>2.5</vdop><extensions><gom:speed>0.35</gom:speed></extensions></trkpt>
   <trkpt lat="59.327253762" lon="34.7029625938"><ele>166.898</ele><time>2026-08-17T04:16:40.462Z</time><hdop>3.0</hdop><vdop>2.5</vdop><extensions><gom:speed>0.312</gom:speed></extensions></trkpt>
   <trkpt lat="59.3272556898" lon="34.7029696346"><ele>166.42</ele><time>2026-08-17T04:16:41.301Z</time><hdop>3.0</hdop><vdop>2.625</vdop><extensions><gom:speed>0.3</gom:speed></extensions></trkpt>
   <trkpt lat="59.3272568633" lon="34.702973574"><ele>166.164</ele><time>2026-08-17T04:16:42.141Z</time><hdop>3.0</hdop><vdop>2.562</vdop><extensions><gom:speed>0.266</gom:speed></extensions></trkpt>
   <trkpt lat="59.3272573662" lon="34.7029782679"><ele>166.075</ele><time>2026-08-17T04:16:42.647Z</time><hdop>3.0</hdop><vdop>2.625</vdop><extensions><gom:speed>0.259</gom:speed></extensions></trkpt>
   <trkpt lat="59.3272574919" lon="34.7029809501"><ele>166.022</ele><time>2026-08-17T04:16:43.315Z</time><hdop>3.0</hdop><vdop>2.625</vdop><extensions><gom:speed>0.229</gom:speed></extensions></trkpt>
   <trkpt lat="59.3272577853" lon="34.7029839676"><ele>166.113</ele><time>2026-08-17T04:16:44.645Z</time><hdop>3.0</hdop><vdop>2.562</vdop><extensions><gom:speed>0.251</gom:speed></extensions></trkpt>
   <trkpt lat="59.3272575757" lon="34.7029850573"><ele>166.168</ele><time>2026-08-17T04:16:45.298Z</time><hdop>3.0</hdop><vdop>2.562</vdop><extensions><gom:speed>0.198</gom:speed></extensions></trkpt>
   <trkpt lat="59.3272565699" lon="34.7029888291"><ele>166.104</ele><time>2026-08-17T04:16:46.218Z</time><hdop>3.0</hdop><vdop>2.562</vdop><extensions><gom:speed>0.208</gom:speed></extensions></trkpt>
   <trkpt lat="59.3272540972" lon="34.702993523"><ele>165.945</ele><time>2026-08-17T04:16:47.301Z</time><hdop>3.0</hdop><vdop>2.625</vdop><extensions><gom:speed>0.23</gom:speed></extensions></trkpt>
   <trkpt lat="59.3272516665" lon="34.7030013181"><ele>165.8</ele><time>2026-08-17T04:16:47.959Z</time><hdop>3.0</hdop><vdop>2.937</vdop><extensions><gom:speed>0.286</gom:speed></extensions></trkpt>
   <trkpt lat="59.327250493" lon="34.7030045871"><ele>165.633</ele><time>2026-08-17T04:16:48.652Z</time><hdop>3.0</hdop><vdop>3.062</vdop><extensions><gom:speed>0.325</gom:speed></extensions></trkpt>
   <trkpt lat="59.3272443742" lon="34.7030150645"><ele>165.522</ele><time>2026-08-17T04:16:49.645Z</time><hdop>3.0</hdop><vdop>2.937</vdop><extensions><gom:speed>0.327</gom:speed></extensions></trkpt>
   <trkpt lat="59.3272403928" lon="34.7030172438"><ele>165.456</ele><time>2026-08-17T04:16:50.599Z</time><hdop>3.0</hdop><vdop>2.937</vdop><extensions><gom:speed>0.351</gom:speed></extensions></trkpt>
   <trkpt lat="59.3272321786" lon="34.703022692"><ele>165.276</ele><time>2026-08-17T04:16:51.652Z</time><hdop>3.0</hdop><vdop>2.937</vdop><extensions><gom:speed>0.464</gom:speed></extensions></trkpt>
   <trkpt lat="59.3272246768" lon="34.7030273859"><ele>165.051</ele><time>2026-08-17T04:16:52.663Z</time><hdop>3.0</hdop><vdop>3.25</vdop><extensions><gom:speed>0.382</gom:speed></extensions></trkpt>
   <trkpt lat="59.3272192704" lon="34.7030324988"><ele>164.917</ele><time>2026-08-17T04:16:53.574Z</time><hdop>3.0</hdop><vdop>3.25</vdop><extensions><gom:speed>0.396</gom:speed></extensions></trkpt>
   <trkpt lat="59.3272151633" lon="34.703035181"><ele>165.217</ele><time>2026-08-17T04:16:54.652Z</time><hdop>3.0</hdop><vdop>3.125</vdop><extensions><gom:speed>0.307</gom:speed></extensions></trkpt>
   <trkpt lat="59.3272093798" lon="34.7030386176"><ele>165.399</ele><time>2026-08-17T04:16:55.659Z</time><hdop>3.0</hdop><vdop>3.375</vdop><extensions><gom:speed>0.328</gom:speed></extensions></trkpt>
   <trkpt lat="59.3272034705" lon="34.7030436468"><ele>165.594</ele><time>2026-08-17T04:16:56.652Z</time><hdop>3.0</hdop><vdop>3.687</vdop><extensions><gom:speed>0.272</gom:speed></extensions></trkpt>
   <trkpt lat="59.3271960945" lon="34.7030570578"><ele>166.149</ele><time>2026-08-17T04:16:57.644Z</time><hdop>3.0</hdop><vdop>3.75</vdop><extensions><gom:speed>0.417</gom:speed></extensions></trkpt>
   <trkpt lat="59.327193999" lon="34.7030624222"><ele>166.628</ele><time>2026-08-17T04:16:58.673Z</time><hdop>3.0</hdop><vdop>3.75</vdop><extensions><gom:speed>0.259</gom:speed></extensions></trkpt>
   <trkpt lat="59.3271896823" lon="34.7030708879"><ele>166.753</ele><time>2026-08-17T04:16:59.645Z</time><hdop>3.0</hdop><vdop>3.625</vdop><extensions><gom:speed>0.243</gom:speed></extensions></trkpt>
   <trkpt lat="59.3271889698" lon="34.7030726481"><ele>166.829</ele><time>2026-08-17T04:17:00.652Z</time><hdop>3.0</hdop><vdop>3.625</vdop><extensions><gom:speed>0.096</gom:speed></extensions></trkpt>
   <trkpt lat="59.3271858685" lon="34.7030733187"><ele>166.873</ele><time>2026-08-17T04:17:01.645Z</time><hdop>3.0</hdop><vdop>3.625</vdop><extensions><gom:speed>0.113</gom:speed></extensions></trkpt>
   <trkpt lat="59.3271859943" lon="34.7030740731"><ele>166.899</ele><time>2026-08-17T04:17:02.652Z</time><hdop>3.0</hdop><vdop>3.562</vdop><extensions><gom:speed>0.019</gom:speed></extensions></trkpt>
   <trkpt lat="59.3271840664" lon="34.7030741569"><ele>166.914</ele><time>2026-08-17T04:17:03.645Z</time><hdop>3.0</hdop><vdop>3.5</vdop><extensions><gom:speed>0.066</gom:speed></extensions></trkpt>
   <trkpt lat="59.3271825996" lon="34.7030740731"><ele>166.922</ele><time>2026-08-17T04:17:04.645Z</time><hdop>3.0</hdop><vdop>3.312</vdop><extensions><gom:speed>0.09</gom:speed></extensions></trkpt>
   <trkpt lat="59.3271826834" lon="34.7030742407"><ele>166.927</ele><time>2026-08-17T04:17:05.652Z</time><hdop>3.0</hdop><vdop>3.187</vdop><extensions><gom:speed>0.013</gom:speed></extensions></trkpt>
   <trkpt lat="59.3271821805" lon="34.7030744922"><ele>166.931</ele><time>2026-08-17T04:17:06.646Z</time><hdop>3.0</hdop><vdop>3.0</vdop><extensions><gom:speed>0.103</gom:speed></extensions></trkpt>
   <trkpt lat="59.3271809651" lon="34.7030738216"><ele>166.936</ele><time>2026-08-17T04:17:07.652Z</time><hdop>3.0</hdop><vdop>2.625</vdop><extensions><gom:speed>0.013</gom:speed></extensions></trkpt>
   <trkpt lat="59.3271810909" lon="34.7030731511"><ele>166.939</ele><time>2026-08-17T04:17:08.653Z</time><hdop>3.0</hdop><vdop>2.5</vdop><extensions><gom:speed>0.026</gom:speed></extensions></trkpt>
   <trkpt lat="59.3271802946" lon="34.7030734863"><ele>167.06</ele><time>2026-08-17T04:17:09.646Z</time><hdop>3.0</hdop><vdop>2.5</vdop><extensions><gom:speed>0.066</gom:speed></extensions></trkpt>
   <trkpt lat="59.3271801689" lon="34.703073654"><ele>167.146</ele><time>2026-08-17T04:17:10.652Z</time><hdop>3.0</hdop><vdop>2.5</vdop><extensions><gom:speed>0.08</gom:speed></extensions></trkpt>
   <trkpt lat="59.327180085" lon="34.7030748274"><ele>167.196</ele><time>2026-08-17T04:17:11.645Z</time><hdop>3.0</hdop><vdop>2.5</vdop><extensions><gom:speed>0.065</gom:speed></extensions></trkpt>
   <trkpt lat="59.3271803784" lon="34.7030758333"><ele>167.223</ele><time>2026-08-17T04:17:12.645Z</time><hdop>3.0</hdop><vdop>2.5</vdop><extensions><gom:speed>0.088</gom:speed></extensions></trkpt>
   <trkpt lat="59.3271804622" lon="34.7030761685"><ele>167.24</ele><time>2026-08-17T04:17:13.181Z</time><hdop>3.0</hdop><vdop>2.5</vdop><extensions><gom:speed>0.096</gom:speed></extensions></trkpt>
   <trkpt lat="59.3271802946" lon="34.7030769229"><ele>167.251</ele><time>2026-08-17T04:17:13.644Z</time><hdop>3.0</hdop><vdop>2.5</vdop><extensions><gom:speed>0.093</gom:speed></extensions></trkpt>
   <trkpt lat="59.3271799593" lon="34.7030777611"><ele>167.257</ele><time>2026-08-17T04:17:14.644Z</time><hdop>3.0</hdop><vdop>2.5</vdop><extensions><gom:speed>0.093</gom:speed></extensions></trkpt>
   <trkpt lat="59.3271796659" lon="34.7030777611"><ele>167.261</ele><time>2026-08-17T04:17:15.644Z</time><hdop>3.0</hdop><vdop>2.5</vdop><extensions><gom:speed>0.089</gom:speed></extensions></trkpt>
   <trkpt lat="59.3271798755" lon="34.703078264"><ele>167.263</ele><time>2026-08-17T04:17:16.644Z</time><hdop>3.0</hdop><vdop>2.5</vdop><extensions><gom:speed>0.089</gom:speed></extensions></trkpt>
   <trkpt lat="59.3271804622" lon="34.7030786831"><ele>167.264</ele><time>2026-08-17T04:17:17.645Z</time><hdop>3.0</hdop><vdop>2.5</vdop><extensions><gom:speed>0.042</gom:speed></extensions></trkpt>
   <trkpt lat="59.3271807975" lon="34.703079186"><ele>167.256</ele><time>2026-08-17T04:17:18.645Z</time><hdop>3.0</hdop><vdop>2.5</vdop><extensions><gom:speed>0.042</gom:speed></extensions></trkpt>
   <trkpt lat="59.3271815938" lon="34.7030850534"><ele>167.247</ele><time>2026-08-17T04:17:19.657Z</time><hdop>3.0</hdop><vdop>2.5</vdop><extensions><gom:speed>0.35</gom:speed></extensions></trkpt>
   <trkpt lat="59.3271832702" lon="34.7030871488"><ele>167.141</ele><time>2026-08-17T04:17:20.645Z</time><hdop>3.0</hdop><vdop>2.5</vdop><extensions><gom:speed>0.384</gom:speed></extensions></trkpt>
   <trkpt lat="59.3271843598" lon="34.7030886576"><ele>167.078</ele><time>2026-08-17T04:17:21.134Z</time><hdop>3.0</hdop><vdop>2.5</vdop><extensions><gom:speed>0.388</gom:speed></extensions></trkpt>
   <trkpt lat="59.3271860781" lon="34.7030904178"><ele>166.901</ele><time>2026-08-17T04:17:21.645Z</time><hdop>3.0</hdop><vdop>2.5</vdop><extensions><gom:speed>0.602</gom:speed></extensions></trkpt>
   <trkpt lat="59.3271895985" lon="34.7030947764"><ele>166.795</ele><time>2026-08-17T04:17:22.237Z</time><hdop>3.0</hdop><vdop>2.5</vdop><extensions><gom:speed>0.799</gom:speed></extensions></trkpt>
   <trkpt lat="59.3271952982" lon="34.703100057"><ele>166.897</ele><time>2026-08-17T04:17:23.036Z</time><hdop>3.0</hdop><vdop>2.5</vdop><extensions><gom:speed>0.596</gom:speed></extensions></trkpt>
   <trkpt lat="59.3272011655" lon="34.7031038288"><ele>167.111</ele><time>2026-08-17T04:17:23.645Z</time><hdop>3.0</hdop><vdop>2.5</vdop><extensions><gom:speed>0.634</gom:speed></extensions></trkpt>
   <trkpt lat="59.3272034705" lon="34.7031040803"><ele>167.239</ele><time>2026-08-17T04:17:24.311Z</time><hdop>3.0</hdop><vdop>2.5</vdop><extensions><gom:speed>0.567</gom:speed></extensions></trkpt>
   <trkpt lat="59.3272128583" lon="34.7031101991"><ele>167.232</ele><time>2026-08-17T04:17:25.343Z</time><hdop>3.0</hdop><vdop>2.5</vdop><extensions><gom:speed>0.53</gom:speed></extensions></trkpt>
   <trkpt lat="59.3272204858" lon="34.7031148929"><ele>166.737</ele><time>2026-08-17T04:17:26.223Z</time><hdop>3.0</hdop><vdop>2.5</vdop><extensions><gom:speed>0.543</gom:speed></extensions></trkpt>
   <trkpt lat="59.3272283648" lon="34.70311439"><ele>166.127</ele><time>2026-08-17T04:17:27.376Z</time><hdop>3.062</hdop><vdop>2.5</vdop><extensions><gom:speed>0.463</gom:speed></extensions></trkpt>
   <trkpt lat="59.327235196" lon="34.7031141386"><ele>165.943</ele><time>2026-08-17T04:17:28.317Z</time><hdop>3.062</hdop><vdop>2.5</vdop><extensions><gom:speed>0.483</gom:speed></extensions></trkpt>
   <trkpt lat="59.3272420692" lon="34.7031084389"><ele>165.76</ele><time>2026-08-17T04:17:29.096Z</time><hdop>3.062</hdop><vdop>2.5</vdop><extensions><gom:speed>0.582</gom:speed></extensions></trkpt>
   <trkpt lat="59.3272455896" lon="34.7031061758"><ele>165.737</ele><time>2026-08-17T04:17:29.652Z</time><hdop>3.062</hdop><vdop>2.562</vdop><extensions><gom:speed>0.505</gom:speed></extensions></trkpt>
   <trkpt lat="59.3272523789" lon="34.7030997217"><ele>165.724</ele><time>2026-08-17T04:17:30.634Z</time><hdop>3.0</hdop><vdop>2.562</vdop><extensions><gom:speed>0.428</gom:speed></extensions></trkpt>
   <trkpt lat="59.3272547678" lon="34.7030918427"><ele>165.985</ele><time>2026-08-17T04:17:31.281Z</time><hdop>3.0</hdop><vdop>2.687</vdop><extensions><gom:speed>0.398</gom:speed></extensions></trkpt>
   <trkpt lat="59.3272590845" lon="34.7030740731"><ele>165.521</ele><time>2026-08-17T04:17:32.645Z</time><hdop>3.0</hdop><vdop>3.0</vdop><extensions><gom:speed>0.266</gom:speed></extensions></trkpt>
   <trkpt lat="59.327261599" lon="34.7030640986"><ele>165.466</ele><time>2026-08-17T04:17:33.645Z</time><hdop>3.0</hdop><vdop>2.875</vdop><extensions><gom:speed>0.244</gom:speed></extensions></trkpt>
   <trkpt lat="59.3272636945" lon="34.7030550461"><ele>165.359</ele><time>2026-08-17T04:17:34.645Z</time><hdop>3.0</hdop><vdop>2.812</vdop><extensions><gom:speed>0.181</gom:speed></extensions></trkpt>
   <trkpt lat="59.3272636945" lon="34.7030543756"><ele>165.295</ele><time>2026-08-17T04:17:35.440Z</time><hdop>3.0</hdop><vdop>2.812</vdop><extensions><gom:speed>0.17</gom:speed></extensions></trkpt>
   <trkpt lat="59.3272662929" lon="34.7030477539"><ele>165.255</ele><time>2026-08-17T04:17:36.482Z</time><hdop>3.0</hdop><vdop>2.812</vdop><extensions><gom:speed>0.13</gom:speed></extensions></trkpt>
   <trkpt lat="59.327268095" lon="34.7030451555"><ele>165.202</ele><time>2026-08-17T04:17:37.200Z</time><hdop>3.0</hdop><vdop>2.687</vdop><extensions><gom:speed>0.103</gom:speed></extensions></trkpt>
   <trkpt lat="59.3272709868" lon="34.7030431438"><ele>165.339</ele><time>2026-08-17T04:17:37.979Z</time><hdop>3.0</hdop><vdop>2.687</vdop><extensions><gom:speed>0.138</gom:speed></extensions></trkpt>
   <trkpt lat="59.3272720764" lon="34.7030426409"><ele>165.42</ele><time>2026-08-17T04:17:38.657Z</time><hdop>3.0</hdop><vdop>2.687</vdop><extensions><gom:speed>0.161</gom:speed></extensions></trkpt>
   <trkpt lat="59.3272750939" lon="34.7030428924"><ele>165.345</ele><time>2026-08-17T04:17:39.537Z</time><hdop>3.0</hdop><vdop>2.812</vdop><extensions><gom:speed>0.229</gom:speed></extensions></trkpt>
   <trkpt lat="59.3272814642" lon="34.7030433953"><ele>165.466</ele><time>2026-08-17T04:17:40.417Z</time><hdop>3.0</hdop><vdop>2.625</vdop><extensions><gom:speed>0.365</gom:speed></extensions></trkpt>
   <trkpt lat="59.3272895946" lon="34.703046329"><ele>165.48</ele><time>2026-08-17T04:17:40.965Z</time><hdop>3.0</hdop><vdop>2.5</vdop><extensions><gom:speed>0.52</gom:speed></extensions></trkpt>
   <trkpt lat="59.327302377" lon="34.7030522801"><ele>165.271</ele><time>2026-08-17T04:17:41.645Z</time><hdop>3.0</hdop><vdop>2.5</vdop><extensions><gom:speed>0.612</gom:speed></extensions></trkpt>
   <trkpt lat="59.3273075738" lon="34.7030550461"><ele>165.147</ele><time>2026-08-17T04:17:42.158Z</time><hdop>3.0</hdop><vdop>2.5</vdop><extensions><gom:speed>0.618</gom:speed></extensions></trkpt>
   <trkpt lat="59.3273147822" lon="34.7030618355"><ele>164.779</ele><time>2026-08-17T04:17:42.645Z</time><hdop>3.0</hdop><vdop>2.5</vdop><extensions><gom:speed>0.609</gom:speed></extensions></trkpt>
   <trkpt lat="59.3273191827" lon="34.7030653559"><ele>164.559</ele><time>2026-08-17T04:17:43.139Z</time><hdop>3.0</hdop><vdop>2.5</vdop><extensions><gom:speed>0.6</gom:speed></extensions></trkpt>
   <trkpt lat="59.3273221583" lon="34.7030672837"><ele>164.231</ele><time>2026-08-17T04:17:43.652Z</time><hdop>3.0</hdop><vdop>2.5</vdop><extensions><gom:speed>0.518</gom:speed></extensions></trkpt>
   <trkpt lat="59.3273306659" lon="34.7030801919"><ele>164.033</ele><time>2026-08-17T04:17:44.645Z</time><hdop>3.0</hdop><vdop>2.5</vdop><extensions><gom:speed>0.375</gom:speed></extensions></trkpt>
   <trkpt lat="59.3273319651" lon="34.7030821197"><ele>163.913</ele><time>2026-08-17T04:17:45.653Z</time><hdop>3.0</hdop><vdop>2.5</vdop><extensions><gom:speed>0.146</gom:speed></extensions></trkpt>
   <trkpt lat="59.3273330967" lon="34.7030869812"><ele>163.841</ele><time>2026-08-17T04:17:46.731Z</time><hdop>3.0</hdop><vdop>2.5</vdop><extensions><gom:speed>0.053</gom:speed></extensions></trkpt>
   <trkpt lat="59.3273345635" lon="34.7030910883"><ele>163.796</ele><time>2026-08-17T04:17:47.652Z</time><hdop>3.0</hdop><vdop>2.5</vdop><extensions><gom:speed>0.02</gom:speed></extensions></trkpt>
   <trkpt lat="59.327336198" lon="34.7030948602"><ele>163.77</ele><time>2026-08-17T04:17:48.653Z</time><hdop>3.0</hdop><vdop>2.5</vdop><extensions><gom:speed>0.02</gom:speed></extensions></trkpt>
   <trkpt lat="59.3273371619" lon="34.7030984644"><ele>163.764</ele><time>2026-08-17T04:17:49.665Z</time><hdop>3.0</hdop><vdop>2.5</vdop><extensions><gom:speed>0.06</gom:speed></extensions></trkpt>
   <trkpt lat="59.3273373714" lon="34.7031023201"><ele>163.763</ele><time>2026-08-17T04:17:50.652Z</time><hdop>3.0</hdop><vdop>2.5</vdop><extensions><gom:speed>0.011</gom:speed></extensions></trkpt>
   <trkpt lat="59.3273378744" lon="34.7031056728"><ele>163.764</ele><time>2026-08-17T04:17:51.645Z</time><hdop>3.0</hdop><vdop>2.5</vdop><extensions><gom:speed>0.087</gom:speed></extensions></trkpt>
   <trkpt lat="59.3273378744" lon="34.7031060919"><ele>163.765</ele><time>2026-08-17T04:17:52.194Z</time><hdop>3.0</hdop><vdop>2.5</vdop><extensions><gom:speed>0.092</gom:speed></extensions></trkpt>
   <trkpt lat="59.3273376648" lon="34.7031063434"><ele>163.766</ele><time>2026-08-17T04:17:52.652Z</time><hdop>3.0</hdop><vdop>2.5</vdop><extensions><gom:speed>0.019</gom:speed></extensions></trkpt>
   <trkpt lat="59.3273381677" lon="34.7031075169"><ele>163.765</ele><time>2026-08-17T04:17:53.646Z</time><hdop>3.0</hdop><vdop>2.5</vdop><extensions><gom:speed>0.085</gom:speed></extensions></trkpt>
   <trkpt lat="59.3273386706" lon="34.7031090256"><ele>163.764</ele><time>2026-08-17T04:17:54.644Z</time><hdop>3.0</hdop><vdop>2.5</vdop><extensions><gom:speed>0.091</gom:speed></extensions></trkpt>
   <trkpt lat="59.3273386706" lon="34.7031090256"><ele>163.782</ele><time>2026-08-17T04:17:55.652Z</time><hdop>3.0</hdop><vdop>2.5</vdop><extensions><gom:speed>0.043</gom:speed></extensions></trkpt>
   <trkpt lat="59.3273390897" lon="34.7031082712"><ele>163.793</ele><time>2026-08-17T04:17:56.657Z</time><hdop>3.0</hdop><vdop>2.5</vdop><extensions><gom:speed>0.127</gom:speed></extensions></trkpt>
   <trkpt lat="59.3273387964" lon="34.7031069301"><ele>163.55</ele><time>2026-08-17T04:17:57.122Z</time><hdop>3.0</hdop><vdop>2.5</vdop><extensions><gom:speed>0.107</gom:speed></extensions></trkpt>
   <trkpt lat="59.3273386706" lon="34.7031057567"><ele>162.974</ele><time>2026-08-17T04:17:57.659Z</time><hdop>3.0</hdop><vdop>2.5</vdop><extensions><gom:speed>0.118</gom:speed></extensions></trkpt>
   <trkpt lat="59.3273380839" lon="34.7030992188"><ele>162.63</ele><time>2026-08-17T04:17:58.659Z</time><hdop>3.0</hdop><vdop>2.5</vdop><extensions><gom:speed>0.161</gom:speed></extensions></trkpt>
   <trkpt lat="59.327337581" lon="34.7030935191"><ele>162.291</ele><time>2026-08-17T04:17:59.378Z</time><hdop>3.0</hdop><vdop>2.562</vdop><extensions><gom:speed>0.23</gom:speed></extensions></trkpt>
   <trkpt lat="59.327336198" lon="34.703077342"><ele>161.902</ele><time>2026-08-17T04:18:00.116Z</time><hdop>3.0</hdop><vdop>2.687</vdop><extensions><gom:speed>0.443</gom:speed></extensions></trkpt>
   <trkpt lat="59.3273353598" lon="34.7030682896"><ele>161.535</ele><time>2026-08-17T04:18:00.653Z</time><hdop>3.0</hdop><vdop>2.562</vdop><extensions><gom:speed>0.576</gom:speed></extensions></trkpt>
   <trkpt lat="59.3273345635" lon="34.7030451555"><ele>161.228</ele><time>2026-08-17T04:18:01.645Z</time><hdop>3.0</hdop><vdop>2.5</vdop><extensions><gom:speed>0.505</gom:speed></extensions></trkpt>
   <trkpt lat="59.3273367847" lon="34.703029649"><ele>161.173</ele><time>2026-08-17T04:18:02.653Z</time><hdop>3.0</hdop><vdop>2.5</vdop><extensions><gom:speed>0.573</gom:speed></extensions></trkpt>
   <trkpt lat="59.3273370781" lon="34.7030171599"><ele>161.14</ele><time>2026-08-17T04:18:03.323Z</time><hdop>3.0</hdop><vdop>2.5</vdop><extensions><gom:speed>0.59</gom:speed></extensions></trkpt>
   <trkpt lat="59.3273395926" lon="34.7029908408"><ele>161.192</ele><time>2026-08-17T04:18:04.653Z</time><hdop>3.0</hdop><vdop>2.5</vdop><extensions><gom:speed>0.377</gom:speed></extensions></trkpt>
   <trkpt lat="59.3273405985" lon="34.7029831294"><ele>161.538</ele><time>2026-08-17T04:18:05.650Z</time><hdop>3.0</hdop><vdop>2.5</vdop><extensions><gom:speed>0.336</gom:speed></extensions></trkpt>
   <trkpt lat="59.3273430711" lon="34.7029738255"><ele>161.94</ele><time>2026-08-17T04:18:06.662Z</time><hdop>3.0</hdop><vdop>2.5</vdop><extensions><gom:speed>0.268</gom:speed></extensions></trkpt>
   <trkpt lat="59.3273468849" lon="34.7029688802"><ele>162.18</ele><time>2026-08-17T04:18:07.613Z</time><hdop>3.0</hdop><vdop>2.5</vdop><extensions><gom:speed>0.317</gom:speed></extensions></trkpt>
   <trkpt lat="59.3273492737" lon="34.7029676229"><ele>162.638</ele><time>2026-08-17T04:18:08.493Z</time><hdop>3.0</hdop><vdop>2.5</vdop><extensions><gom:speed>0.288</gom:speed></extensions></trkpt>
   <trkpt lat="59.3273494833" lon="34.7029639349"><ele>162.881</ele><time>2026-08-17T04:18:09.434Z</time><hdop>3.0</hdop><vdop>2.5</vdop><extensions><gom:speed>0.227</gom:speed></extensions></trkpt>
   <trkpt lat="59.3273496928" lon="34.7029613365"><ele>162.964</ele><time>2026-08-17T04:18:10.142Z</time><hdop>3.062</hdop><vdop>2.5</vdop><extensions><gom:speed>0.247</gom:speed></extensions></trkpt>
   <trkpt lat="59.3273505729" lon="34.7029588219"><ele>162.818</ele><time>2026-08-17T04:18:10.643Z</time><hdop>3.062</hdop><vdop>2.562</vdop><extensions><gom:speed>0.27</gom:speed></extensions></trkpt>
   <trkpt lat="59.3273532971" lon="34.7029544633"><ele>162.655</ele><time>2026-08-17T04:18:11.652Z</time><hdop>3.187</hdop><vdop>2.5</vdop><extensions><gom:speed>0.267</gom:speed></extensions></trkpt>
   <trkpt lat="59.3273571946" lon="34.7029526193"><ele>162.571</ele><time>2026-08-17T04:18:12.644Z</time><hdop>3.312</hdop><vdop>2.5</vdop><extensions><gom:speed>0.284</gom:speed></extensions></trkpt>
   <trkpt lat="59.3273605893" lon="34.7029524517"><ele>162.521</ele><time>2026-08-17T04:18:13.582Z</time><hdop>3.437</hdop><vdop>2.5</vdop><extensions><gom:speed>0.307</gom:speed></extensions></trkpt>
   <trkpt lat="59.3273618885" lon="34.7029525355"><ele>162.719</ele><time>2026-08-17T04:18:14.452Z</time><hdop>3.562</hdop><vdop>2.5</vdop><extensions><gom:speed>0.31</gom:speed></extensions></trkpt>
   <trkpt lat="59.3273657861" lon="34.7029520326"><ele>162.729</ele><time>2026-08-17T04:18:15.373Z</time><hdop>3.75</hdop><vdop>2.5</vdop><extensions><gom:speed>0.297</gom:speed></extensions></trkpt>
   <trkpt lat="59.3273680911" lon="34.7029543795"><ele>162.706</ele><time>2026-08-17T04:18:16.652Z</time><hdop>3.937</hdop><vdop>2.5</vdop><extensions><gom:speed>0.194</gom:speed></extensions></trkpt>
   <trkpt lat="59.3273696837" lon="34.7029561397"><ele>162.693</ele><time>2026-08-17T04:18:17.397Z</time><hdop>3.937</hdop><vdop>2.5</vdop><extensions><gom:speed>0.202</gom:speed></extensions></trkpt>
   <trkpt lat="59.3273723659" lon="34.7029575646"><ele>162.325</ele><time>2026-08-17T04:18:18.661Z</time><hdop>4.062</hdop><vdop>2.5</vdop><extensions><gom:speed>0.177</gom:speed></extensions></trkpt>
   <trkpt lat="59.3273737908" lon="34.7029579837"><ele>162.278</ele><time>2026-08-17T04:18:19.359Z</time><hdop>4.062</hdop><vdop>2.625</vdop><extensions><gom:speed>0.165</gom:speed></extensions></trkpt>
   <trkpt lat="59.3273735813" lon="34.7029582352"><ele>162.246</ele><time>2026-08-17T04:18:20.017Z</time><hdop>4.125</hdop><vdop>2.562</vdop><extensions><gom:speed>0.11</gom:speed></extensions></trkpt>
   <trkpt lat="59.3273745871" lon="34.7029581513"><ele>162.247</ele><time>2026-08-17T04:18:20.652Z</time><hdop>4.187</hdop><vdop>2.687</vdop><extensions><gom:speed>0.093</gom:speed></extensions></trkpt>
   <trkpt lat="59.3273760958" lon="34.702959241"><ele>162.245</ele><time>2026-08-17T04:18:21.652Z</time><hdop>4.187</hdop><vdop>2.625</vdop><extensions><gom:speed>0.11</gom:speed></extensions></trkpt>
   <trkpt lat="59.3273778979" lon="34.7029615879"><ele>162.244</ele><time>2026-08-17T04:18:22.354Z</time><hdop>4.187</hdop><vdop>2.625</vdop><extensions><gom:speed>0.136</gom:speed></extensions></trkpt>
   <trkpt lat="59.3273796581" lon="34.7029644378"><ele>162.533</ele><time>2026-08-17T04:18:22.982Z</time><hdop>4.187</hdop><vdop>2.562</vdop><extensions><gom:speed>0.127</gom:speed></extensions></trkpt>
   <trkpt lat="59.3273810831" lon="34.702968964"><ele>162.814</ele><time>2026-08-17T04:18:23.643Z</time><hdop>4.187</hdop><vdop>2.5</vdop><extensions><gom:speed>0.169</gom:speed></extensions></trkpt>
   <trkpt lat="59.3273812926" lon="34.7029719815"><ele>162.982</ele><time>2026-08-17T04:18:24.378Z</time><hdop>4.187</hdop><vdop>2.5</vdop><extensions><gom:speed>0.155</gom:speed></extensions></trkpt>
   <trkpt lat="59.3273816698" lon="34.7029773459"><ele>163.252</ele><time>2026-08-17T04:18:25.258Z</time><hdop>4.125</hdop><vdop>2.687</vdop><extensions><gom:speed>0.176</gom:speed></extensions></trkpt>
   <trkpt lat="59.3273825918" lon="34.7029824589"><ele>163.451</ele><time>2026-08-17T04:18:26.179Z</time><hdop>4.062</hdop><vdop>2.75</vdop><extensions><gom:speed>0.199</gom:speed></extensions></trkpt>
   <trkpt lat="59.3273830947" lon="34.7029834647"><ele>163.723</ele><time>2026-08-17T04:18:26.652Z</time><hdop>4.062</hdop><vdop>2.937</vdop><extensions><gom:speed>0.191</gom:speed></extensions></trkpt>
   <trkpt lat="59.3273842682" lon="34.7029885777"><ele>163.886</ele><time>2026-08-17T04:18:27.555Z</time><hdop>4.062</hdop><vdop>2.937</vdop><extensions><gom:speed>0.22</gom:speed></extensions></trkpt>
   <trkpt lat="59.3273851902" lon="34.7029931877"><ele>163.922</ele><time>2026-08-17T04:18:28.374Z</time><hdop>4.062</hdop><vdop>2.937</vdop><extensions><gom:speed>0.204</gom:speed></extensions></trkpt>
   <trkpt lat="59.3273862798" lon="34.7029986359"><ele>163.748</ele><time>2026-08-17T04:18:29.335Z</time><hdop>4.062</hdop><vdop>3.062</vdop><extensions><gom:speed>0.193</gom:speed></extensions></trkpt>
   <trkpt lat="59.3273874952" lon="34.7030040842"><ele>163.809</ele><time>2026-08-17T04:18:30.094Z</time><hdop>4.0</hdop><vdop>3.062</vdop><extensions><gom:speed>0.207</gom:speed></extensions></trkpt>
   <trkpt lat="59.3273879981" lon="34.7030059282"><ele>163.891</ele><time>2026-08-17T04:18:30.652Z</time><hdop>4.062</hdop><vdop>3.062</vdop><extensions><gom:speed>0.194</gom:speed></extensions></trkpt>
   <trkpt lat="59.3273895907" lon="34.7030124661"><ele>164.658</ele><time>2026-08-17T04:18:31.652Z</time><hdop>4.062</hdop><vdop>2.875</vdop><extensions><gom:speed>0.202</gom:speed></extensions></trkpt>
   <trkpt lat="59.327392692" lon="34.70302177"><ele>165.262</ele><time>2026-08-17T04:18:32.644Z</time><hdop>4.125</hdop><vdop>3.062</vdop><extensions><gom:speed>0.223</gom:speed></extensions></trkpt>
   <trkpt lat="59.3273930692" lon="34.7030248713"><ele>165.631</ele><time>2026-08-17T04:18:33.655Z</time><hdop>4.125</hdop><vdop>2.937</vdop><extensions><gom:speed>0.135</gom:speed></extensions></trkpt>
   <trkpt lat="59.3273932787" lon="34.7030280564"><ele>165.852</ele><time>2026-08-17T04:18:34.652Z</time><hdop>4.125</hdop><vdop>2.937</vdop><extensions><gom:speed>0.078</gom:speed></extensions></trkpt>
   <trkpt lat="59.3273936978" lon="34.7030307386"><ele>165.984</ele><time>2026-08-17T04:18:35.652Z</time><hdop>4.187</hdop><vdop>2.937</vdop><extensions><gom:speed>0.039</gom:speed></extensions></trkpt>
   <trkpt lat="59.3273946618" lon="34.7030340914"><ele>166.063</ele><time>2026-08-17T04:18:36.652Z</time><hdop>4.062</hdop><vdop>2.937</vdop><extensions><gom:speed>0.022</gom:speed></extensions></trkpt>
   <trkpt lat="59.3273962962" lon="34.7030396234"><ele>166.111</ele><time>2026-08-17T04:18:37.644Z</time><hdop>4.0</hdop><vdop>2.875</vdop><extensions><gom:speed>0.106</gom:speed></extensions></trkpt>
   <trkpt lat="59.3273966734" lon="34.7030419704"><ele>166.14</ele><time>2026-08-17T04:18:38.653Z</time><hdop>4.0</hdop><vdop>2.812</vdop><extensions><gom:speed>0.017</gom:speed></extensions></trkpt>
   <trkpt lat="59.3273972601" lon="34.7030469995"><ele>166.157</ele><time>2026-08-17T04:18:39.644Z</time><hdop>3.875</hdop><vdop>2.75</vdop><extensions><gom:speed>0.064</gom:speed></extensions></trkpt>
   <trkpt lat="59.3273981822" lon="34.7030495979"><ele>166.231</ele><time>2026-08-17T04:18:40.657Z</time><hdop>3.812</hdop><vdop>2.75</vdop><extensions><gom:speed>0.014</gom:speed></extensions></trkpt>
   <trkpt lat="59.3273984755" lon="34.7030542918"><ele>166.321</ele><time>2026-08-17T04:18:41.644Z</time><hdop>3.812</hdop><vdop>2.75</vdop><extensions><gom:speed>0.076</gom:speed></extensions></trkpt>
   <trkpt lat="59.3273985593" lon="34.7030562196"><ele>166.379</ele><time>2026-08-17T04:18:42.643Z</time><hdop>3.812</hdop><vdop>2.5</vdop><extensions><gom:speed>0.104</gom:speed></extensions></trkpt>
   <trkpt lat="59.3273975954" lon="34.7030580636"><ele>166.418</ele><time>2026-08-17T04:18:43.644Z</time><hdop>3.875</hdop><vdop>2.5</vdop><extensions><gom:speed>0.106</gom:speed></extensions></trkpt>
   <trkpt lat="59.3273976792" lon="34.7030595724"><ele>166.449</ele><time>2026-08-17T04:18:44.643Z</time><hdop>3.875</hdop><vdop>2.5</vdop><extensions><gom:speed>0.104</gom:speed></extensions></trkpt>
   <trkpt lat="59.3273975954" lon="34.7030591533"><ele>166.467</ele><time>2026-08-17T04:18:45.513Z</time><hdop>3.937</hdop><vdop>2.5</vdop><extensions><gom:speed>0.101</gom:speed></extensions></trkpt>
   <trkpt lat="59.3273969668" lon="34.7030604944"><ele>166.568</ele><time>2026-08-17T04:18:46.643Z</time><hdop>4.0</hdop><vdop>2.5</vdop><extensions><gom:speed>0.111</gom:speed></extensions></trkpt>
   <trkpt lat="59.3273964639" lon="34.703060662"><ele>166.638</ele><time>2026-08-17T04:18:47.652Z</time><hdop>4.062</hdop><vdop>2.5</vdop><extensions><gom:speed>0.018</gom:speed></extensions></trkpt>
   <trkpt lat="59.3273964639" lon="34.7030636795"><ele>166.69</ele><time>2026-08-17T04:18:48.643Z</time><hdop>4.062</hdop><vdop>2.562</vdop><extensions><gom:speed>0.113</gom:speed></extensions></trkpt>
   <trkpt lat="59.3273965896" lon="34.7030646853"><ele>166.728</ele><time>2026-08-17T04:18:49.643Z</time><hdop>4.0</hdop><vdop>2.5</vdop><extensions><gom:speed>0.0</gom:speed></extensions></trkpt>
   <trkpt lat="59.3273962962" lon="34.7030650206"><ele>166.751</ele><time>2026-08-17T04:18:50.652Z</time><hdop>4.0</hdop><vdop>2.5</vdop><extensions><gom:speed>0.001</gom:speed></extensions></trkpt>
   <trkpt lat="59.3273961705" lon="34.7030656912"><ele>166.765</ele><time>2026-08-17T04:18:51.745Z</time><hdop>3.875</hdop><vdop>2.5</vdop><extensions><gom:speed>0.01</gom:speed></extensions></trkpt>
   <trkpt lat="59.3273966734" lon="34.7030664455"><ele>166.772</ele><time>2026-08-17T04:18:52.652Z</time><hdop>3.875</hdop><vdop>2.5</vdop><extensions><gom:speed>0.117</gom:speed></extensions></trkpt>
   <trkpt lat="59.3273976792" lon="34.7030674514"><ele>166.754</ele><time>2026-08-17T04:18:53.652Z</time><hdop>3.812</hdop><vdop>2.5</vdop><extensions><gom:speed>0.121</gom:speed></extensions></trkpt>
   <trkpt lat="59.3273986851" lon="34.7030691277"><ele>166.791</ele><time>2026-08-17T04:18:54.643Z</time><hdop>3.75</hdop><vdop>2.5</vdop><extensions><gom:speed>0.307</gom:speed></extensions></trkpt>
   <trkpt lat="59.327400571" lon="34.703070385"><ele>166.83</ele><time>2026-08-17T04:18:55.643Z</time><hdop>3.75</hdop><vdop>2.5</vdop><extensions><gom:speed>0.208</gom:speed></extensions></trkpt>
   <trkpt lat="59.3274011996" lon="34.7030714747"><ele>166.869</ele><time>2026-08-17T04:18:56.644Z</time><hdop>3.75</hdop><vdop>2.562</vdop><extensions><gom:speed>0.187</gom:speed></extensions></trkpt>
   <trkpt lat="59.3274021636" lon="34.7030718938"><ele>166.911</ele><time>2026-08-17T04:18:57.654Z</time><hdop>3.812</hdop><vdop>2.687</vdop><extensions><gom:speed>0.186</gom:speed></extensions></trkpt>
   <trkpt lat="59.3274029598" lon="34.7030728996"><ele>166.951</ele><time>2026-08-17T04:18:58.652Z</time><hdop>3.875</hdop><vdop>2.812</vdop><extensions><gom:speed>0.175</gom:speed></extensions></trkpt>
   <trkpt lat="59.3274030856" lon="34.7030738216"><ele>166.986</ele><time>2026-08-17T04:18:59.657Z</time><hdop>4.0</hdop><vdop>2.812</vdop><extensions><gom:speed>0.161</gom:speed></extensions></trkpt>
   <trkpt lat="59.3274023731" lon="34.7030755818"><ele>167.019</ele><time>2026-08-17T04:19:00.644Z</time><hdop>4.062</hdop><vdop>2.875</vdop><extensions><gom:speed>0.138</gom:speed></extensions></trkpt>
   <trkpt lat="59.3274026665" lon="34.7030762524"><ele>167.054</ele><time>2026-08-17T04:19:01.652Z</time><hdop>4.062</hdop><vdop>2.937</vdop><extensions><gom:speed>0.137</gom:speed></extensions></trkpt>
   <trkpt lat="59.3274024988" lon="34.7030771744"><ele>167.076</ele><time>2026-08-17T04:19:02.652Z</time><hdop>4.125</hdop><vdop>2.937</vdop><extensions><gom:speed>0.131</gom:speed></extensions></trkpt>
   <trkpt lat="59.3274017864" lon="34.7030783478"><ele>167.09</ele><time>2026-08-17T04:19:03.644Z</time><hdop>4.062</hdop><vdop>2.937</vdop><extensions><gom:speed>0.124</gom:speed></extensions></trkpt>
   <trkpt lat="59.3274019959" lon="34.7030789346"><ele>167.101</ele><time>2026-08-17T04:19:04.675Z</time><hdop>4.062</hdop><vdop>2.937</vdop><extensions><gom:speed>0.124</gom:speed></extensions></trkpt>
   <trkpt lat="59.327401493" lon="34.7030789346"><ele>167.109</ele><time>2026-08-17T04:19:05.644Z</time><hdop>4.062</hdop><vdop>3.0</vdop><extensions><gom:speed>0.114</gom:speed></extensions></trkpt>
   <trkpt lat="59.3274015768" lon="34.7030790184"><ele>167.116</ele><time>2026-08-17T04:19:06.652Z</time><hdop>4.0</hdop><vdop>3.0</vdop><extensions><gom:speed>0.114</gom:speed></extensions></trkpt>
   <trkpt lat="59.3274011996" lon="34.7030795213"><ele>167.121</ele><time>2026-08-17T04:19:07.644Z</time><hdop>3.875</hdop><vdop>3.0</vdop><extensions><gom:speed>0.108</gom:speed></extensions></trkpt>
   <trkpt lat="59.3274009901" lon="34.7030800242"><ele>167.125</ele><time>2026-08-17T04:19:08.644Z</time><hdop>3.875</hdop><vdop>2.812</vdop><extensions><gom:speed>0.105</gom:speed></extensions></trkpt>
   <trkpt lat="59.3274012835" lon="34.7030803595"><ele>167.127</ele><time>2026-08-17T04:19:09.652Z</time><hdop>3.875</hdop><vdop>2.687</vdop><extensions><gom:speed>0.105</gom:speed></extensions></trkpt>
   <trkpt lat="59.3274012835" lon="34.7030808624"><ele>167.128</ele><time>2026-08-17T04:19:10.644Z</time><hdop>3.875</hdop><vdop>2.562</vdop><extensions><gom:speed>0.105</gom:speed></extensions></trkpt>
   <trkpt lat="59.3274007805" lon="34.7030816168"><ele>167.632</ele><time>2026-08-17T04:19:11.643Z</time><hdop>3.875</hdop><vdop>2.5</vdop><extensions><gom:speed>0.356</gom:speed></extensions></trkpt>
   <trkpt lat="59.3274017864" lon="34.7030827902"><ele>168.013</ele><time>2026-08-17T04:19:12.644Z</time><hdop>3.875</hdop><vdop>2.5</vdop><extensions><gom:speed>0.415</gom:speed></extensions></trkpt>
   <trkpt lat="59.3274022893" lon="34.7030829579"><ele>168.248</ele><time>2026-08-17T04:19:13.643Z</time><hdop>4.062</hdop><vdop>2.5</vdop><extensions><gom:speed>0.215</gom:speed></extensions></trkpt>
   <trkpt lat="59.3274016606" lon="34.7030840475"><ele>168.618</ele><time>2026-08-17T04:19:14.644Z</time><hdop>4.25</hdop><vdop>2.5</vdop><extensions><gom:speed>0.417</gom:speed></extensions></trkpt>
   <trkpt lat="59.3274024988" lon="34.703085221"><ele>168.706</ele><time>2026-08-17T04:19:15.644Z</time><hdop>4.312</hdop><vdop>2.5</vdop><extensions><gom:speed>0.501</gom:speed></extensions></trkpt>
   <trkpt lat="59.3274039657" lon="34.7030850534"><ele>168.758</ele><time>2026-08-17T04:19:16.593Z</time><hdop>4.562</hdop><vdop>2.5</vdop><extensions><gom:speed>0.51</gom:speed></extensions></trkpt>
   <trkpt lat="59.3274050972" lon="34.7030866459"><ele>168.791</ele><time>2026-08-17T04:19:17.534Z</time><hdop>4.937</hdop><vdop>2.5</vdop><extensions><gom:speed>0.533</gom:speed></extensions></trkpt>
   <trkpt lat="59.3274043848" lon="34.7030950278"><ele>168.398</ele><time>2026-08-17T04:19:18.455Z</time><hdop>5.187</hdop><vdop>2.5</vdop><extensions><gom:speed>0.293</gom:speed></extensions></trkpt>
   <trkpt lat="59.3274033789" lon="34.7031020686"><ele>168.165</ele><time>2026-08-17T04:19:19.295Z</time><hdop>5.312</hdop><vdop>2.5</vdop><extensions><gom:speed>0.252</gom:speed></extensions></trkpt>
   <trkpt lat="59.3274035885" lon="34.7031197544"><ele>167.581</ele><time>2026-08-17T04:19:20.644Z</time><hdop>5.437</hdop><vdop>2.5</vdop><extensions><gom:speed>0.231</gom:speed></extensions></trkpt>
   <trkpt lat="59.3274034628" lon="34.7031224366"><ele>167.233</ele><time>2026-08-17T04:19:21.298Z</time><hdop>5.375</hdop><vdop>2.5</vdop><extensions><gom:speed>0.197</gom:speed></extensions></trkpt>
   <trkpt lat="59.3274031694" lon="34.703129226"><ele>166.832</ele><time>2026-08-17T04:19:22.259Z</time><hdop>5.187</hdop><vdop>2.5</vdop><extensions><gom:speed>0.2</gom:speed></extensions></trkpt>
   <trkpt lat="59.3274030856" lon="34.7031381946"><ele>166.47</ele><time>2026-08-17T04:19:23.038Z</time><hdop>4.937</hdop><vdop>2.562</vdop><extensions><gom:speed>0.246</gom:speed></extensions></trkpt>
   <trkpt lat="59.3274031694" lon="34.7031415474"><ele>166.253</ele><time>2026-08-17T04:19:23.655Z</time><hdop>4.875</hdop><vdop>2.5</vdop><extensions><gom:speed>0.214</gom:speed></extensions></trkpt>
   <trkpt lat="59.3274031694" lon="34.7031476662"><ele>166.124</ele><time>2026-08-17T04:19:24.202Z</time><hdop>4.875</hdop><vdop>2.5</vdop><extensions><gom:speed>0.222</gom:speed></extensions></trkpt>
   <trkpt lat="59.3274039657" lon="34.7031572215"><ele>165.992</ele><time>2026-08-17T04:19:25.163Z</time><hdop>4.875</hdop><vdop>2.5</vdop><extensions><gom:speed>0.234</gom:speed></extensions></trkpt>
   <trkpt lat="59.3274041752" lon="34.7031592332"><ele>165.694</ele><time>2026-08-17T04:19:25.652Z</time><hdop>4.875</hdop><vdop>2.5</vdop><extensions><gom:speed>0.214</gom:speed></extensions></trkpt>
   <trkpt lat="59.327404259" lon="34.7031667769"><ele>165.527</ele><time>2026-08-17T04:19:26.652Z</time><hdop>4.875</hdop><vdop>2.5</vdop><extensions><gom:speed>0.145</gom:speed></extensions></trkpt>
   <trkpt lat="59.3274045943" lon="34.7031725604"><ele>165.506</ele><time>2026-08-17T04:19:27.653Z</time><hdop>4.75</hdop><vdop>2.5</vdop><extensions><gom:speed>0.087</gom:speed></extensions></trkpt>
   <trkpt lat="59.3274050972" lon="34.7031775896"><ele>165.488</ele><time>2026-08-17T04:19:28.652Z</time><hdop>4.687</hdop><vdop>2.5</vdop><extensions><gom:speed>0.079</gom:speed></extensions></trkpt>
   <trkpt lat="59.327405684" lon="34.7031844627"><ele>165.444</ele><time>2026-08-17T04:19:29.645Z</time><hdop>4.5</hdop><vdop>2.5</vdop><extensions><gom:speed>0.135</gom:speed></extensions></trkpt>
   <trkpt lat="59.3274067736" lon="34.7031893242"><ele>165.789</ele><time>2026-08-17T04:19:30.657Z</time><hdop>4.375</hdop><vdop>2.5</vdop><extensions><gom:speed>0.104</gom:speed></extensions></trkpt>
   <trkpt lat="59.327410294" lon="34.7032022324"><ele>166.522</ele><time>2026-08-17T04:19:31.645Z</time><hdop>4.125</hdop><vdop>2.5</vdop><extensions><gom:speed>0.163</gom:speed></extensions></trkpt>
   <trkpt lat="59.3274114675" lon="34.7032059204"><ele>166.96</ele><time>2026-08-17T04:19:32.134Z</time><hdop>4.062</hdop><vdop>2.5</vdop><extensions><gom:speed>0.148</gom:speed></extensions></trkpt>
   <trkpt lat="59.32741306" lon="34.7032103628"><ele>167.929</ele><time>2026-08-17T04:19:32.643Z</time><hdop>4.0</hdop><vdop>2.5</vdop><extensions><gom:speed>0.179</gom:speed></extensions></trkpt>
   <trkpt lat="59.327414485" lon="34.7032143861"><ele>168.507</ele><time>2026-08-17T04:19:33.500Z</time><hdop>4.0</hdop><vdop>2.5</vdop><extensions><gom:speed>0.173</gom:speed></extensions></trkpt>
   <trkpt lat="59.3274177958" lon="34.7032254502"><ele>168.952</ele><time>2026-08-17T04:19:34.644Z</time><hdop>3.937</hdop><vdop>2.5</vdop><extensions><gom:speed>0.189</gom:speed></extensions></trkpt>
   <trkpt lat="59.3274201846" lon="34.7032328263"><ele>169.522</ele><time>2026-08-17T04:19:35.341Z</time><hdop>3.937</hdop><vdop>2.625</vdop><extensions><gom:speed>0.184</gom:speed></extensions></trkpt>
   <trkpt lat="59.327423286" lon="34.7032428846"><ele>169.85</ele><time>2026-08-17T04:19:36.646Z</time><hdop>3.937</hdop><vdop>2.625</vdop><extensions><gom:speed>0.169</gom:speed></extensions></trkpt>
   <trkpt lat="59.3274250881" lon="34.7032489196"><ele>170.055</ele><time>2026-08-17T04:19:37.658Z</time><hdop>4.0</hdop><vdop>2.625</vdop><extensions><gom:speed>0.086</gom:speed></extensions></trkpt>
   <trkpt lat="59.3274263873" lon="34.70325244"><ele>170.178</ele><time>2026-08-17T04:19:38.164Z</time><hdop>4.0</hdop><vdop>2.625</vdop><extensions><gom:speed>0.1</gom:speed></extensions></trkpt>
   <trkpt lat="59.3274307878" lon="34.703260319"><ele>170.181</ele><time>2026-08-17T04:19:38.644Z</time><hdop>4.062</hdop><vdop>2.562</vdop><extensions><gom:speed>0.158</gom:speed></extensions></trkpt>
   <trkpt lat="59.3274314583" lon="34.7032623306"><ele>170.183</ele><time>2026-08-17T04:19:39.135Z</time><hdop>4.125</hdop><vdop>2.562</vdop><extensions><gom:speed>0.135</gom:speed></extensions></trkpt>
   <trkpt lat="59.3274336795" lon="34.7032670245"><ele>169.833</ele><time>2026-08-17T04:19:39.644Z</time><hdop>4.125</hdop><vdop>2.5</vdop><extensions><gom:speed>0.157</gom:speed></extensions></trkpt>
   <trkpt lat="59.3274344758" lon="34.7032702934"><ele>169.671</ele><time>2026-08-17T04:19:40.653Z</time><hdop>4.125</hdop><vdop>2.5</vdop><extensions><gom:speed>0.122</gom:speed></extensions></trkpt>
   <trkpt lat="59.3274374933" lon="34.7032823634"><ele>169.762</ele><time>2026-08-17T04:19:41.645Z</time><hdop>4.125</hdop><vdop>2.5</vdop><extensions><gom:speed>0.167</gom:speed></extensions></trkpt>
   <trkpt lat="59.32743808" lon="34.7032856323"><ele>169.816</ele><time>2026-08-17T04:19:42.615Z</time><hdop>4.125</hdop><vdop>2.5</vdop><extensions><gom:speed>0.131</gom:speed></extensions></trkpt>
   <trkpt lat="59.3274386667" lon="34.7032921702"><ele>169.755</ele><time>2026-08-17T04:19:43.647Z</time><hdop>4.062</hdop><vdop>2.687</vdop><extensions><gom:speed>0.151</gom:speed></extensions></trkpt>
   <trkpt lat="59.3274389601" lon="34.7032942657"><ele>169.72</ele><time>2026-08-17T04:19:44.457Z</time><hdop>4.062</hdop><vdop>2.687</vdop><extensions><gom:speed>0.135</gom:speed></extensions></trkpt>
   <trkpt lat="59.3274401755" lon="34.7033027314"><ele>169.682</ele><time>2026-08-17T04:19:45.418Z</time><hdop>4.062</hdop><vdop>2.625</vdop><extensions><gom:speed>0.128</gom:speed></extensions></trkpt>
   <trkpt lat="59.3274412651" lon="34.7033087664"><ele>169.617</ele><time>2026-08-17T04:19:46.682Z</time><hdop>4.062</hdop><vdop>2.625</vdop><extensions><gom:speed>0.134</gom:speed></extensions></trkpt>
   <trkpt lat="59.3274412651" lon="34.7033198305"><ele>169.607</ele><time>2026-08-17T04:19:47.644Z</time><hdop>4.062</hdop><vdop>2.625</vdop><extensions><gom:speed>0.163</gom:speed></extensions></trkpt>
   <trkpt lat="59.3274419776" lon="34.7033291344"><ele>169.819</ele><time>2026-08-17T04:19:48.644Z</time><hdop>4.062</hdop><vdop>2.5</vdop><extensions><gom:speed>0.184</gom:speed></extensions></trkpt>
   <trkpt lat="59.3274425643" lon="34.7033338282"><ele>170.395</ele><time>2026-08-17T04:19:49.652Z</time><hdop>4.062</hdop><vdop>2.5</vdop><extensions><gom:speed>0.17</gom:speed></extensions></trkpt>
   <trkpt lat="59.3274447855" lon="34.7033474907"><ele>171.012</ele><time>2026-08-17T04:19:50.644Z</time><hdop>4.125</hdop><vdop>2.5</vdop><extensions><gom:speed>0.239</gom:speed></extensions></trkpt>
   <trkpt lat="59.3274466715" lon="34.703354783"><ele>171.38</ele><time>2026-08-17T04:19:51.458Z</time><hdop>4.187</hdop><vdop>2.5</vdop><extensions><gom:speed>0.248</gom:speed></extensions></trkpt>
   <trkpt lat="59.327446881" lon="34.7033621591"><ele>171.868</ele><time>2026-08-17T04:19:52.733Z</time><hdop>4.187</hdop><vdop>2.5</vdop><extensions><gom:speed>0.131</gom:speed></extensions></trkpt>
   <trkpt lat="59.3274483898" lon="34.7033757378"><ele>172.159</ele><time>2026-08-17T04:19:53.643Z</time><hdop>4.187</hdop><vdop>2.5</vdop><extensions><gom:speed>0.164</gom:speed></extensions></trkpt>
   <trkpt lat="59.3274497728" lon="34.7033851255"><ele>172.334</ele><time>2026-08-17T04:19:54.645Z</time><hdop>4.187</hdop><vdop>2.5</vdop><extensions><gom:speed>0.133</gom:speed></extensions></trkpt>
   <trkpt lat="59.3274507786" lon="34.7033911605"><ele>172.444</ele><time>2026-08-17T04:19:55.644Z</time><hdop>4.187</hdop><vdop>2.5</vdop><extensions><gom:speed>0.121</gom:speed></extensions></trkpt>
   <trkpt lat="59.3274516587" lon="34.7033947647"><ele>172.514</ele><time>2026-08-17T04:19:56.644Z</time><hdop>4.187</hdop><vdop>2.5</vdop><extensions><gom:speed>0.112</gom:speed></extensions></trkpt>
   <trkpt lat="59.3274524969" lon="34.7033985365"><ele>172.556</ele><time>2026-08-17T04:19:57.644Z</time><hdop>4.125</hdop><vdop>2.5</vdop><extensions><gom:speed>0.102</gom:speed></extensions></trkpt>
   <trkpt lat="59.3274532932" lon="34.7034008835"><ele>172.584</ele><time>2026-08-17T04:19:58.644Z</time><hdop>4.125</hdop><vdop>2.5</vdop><extensions><gom:speed>0.112</gom:speed></extensions></trkpt>
   <trkpt lat="59.3274529998" lon="34.7034012187"><ele>172.547</ele><time>2026-08-17T04:19:59.653Z</time><hdop>4.125</hdop><vdop>2.5</vdop><extensions><gom:speed>0.027</gom:speed></extensions></trkpt>
   <trkpt lat="59.3274530836" lon="34.7034071699"><ele>172.525</ele><time>2026-08-17T04:20:00.644Z</time><hdop>4.125</hdop><vdop>2.5</vdop><extensions><gom:speed>0.108</gom:speed></extensions></trkpt>
   <trkpt lat="59.3274531674" lon="34.7034099359"><ele>172.513</ele><time>2026-08-17T04:20:01.652Z</time><hdop>4.125</hdop><vdop>2.5</vdop><extensions><gom:speed>0.036</gom:speed></extensions></trkpt>
   <trkpt lat="59.3274530836" lon="34.7034137916"><ele>172.506</ele><time>2026-08-17T04:20:02.659Z</time><hdop>4.187</hdop><vdop>2.5</vdop><extensions><gom:speed>0.118</gom:speed></extensions></trkpt>
   <trkpt lat="59.3274531674" lon="34.7034156356"><ele>172.263</ele><time>2026-08-17T04:20:03.155Z</time><hdop>4.187</hdop><vdop>2.5</vdop><extensions><gom:speed>0.111</gom:speed></extensions></trkpt>
   <trkpt lat="59.327453377" lon="34.7034188207"><ele>171.952</ele><time>2026-08-17T04:20:03.659Z</time><hdop>4.125</hdop><vdop>2.5</vdop><extensions><gom:speed>0.096</gom:speed></extensions></trkpt>
   <trkpt lat="59.3274532932" lon="34.703421922"><ele>171.767</ele><time>2026-08-17T04:20:04.135Z</time><hdop>4.125</hdop><vdop>2.5</vdop><extensions><gom:speed>0.136</gom:speed></extensions></trkpt>
   <trkpt lat="59.3274531674" lon="34.7034261968"><ele>171.693</ele><time>2026-08-17T04:20:04.645Z</time><hdop>4.125</hdop><vdop>2.5</vdop><extensions><gom:speed>0.166</gom:speed></extensions></trkpt>
   <trkpt lat="59.3274525807" lon="34.7034286276"><ele>171.649</ele><time>2026-08-17T04:20:05.481Z</time><hdop>4.125</hdop><vdop>2.5</vdop><extensions><gom:speed>0.136</gom:speed></extensions></trkpt>
   <trkpt lat="59.3274516587" lon="34.7034332376"><ele>171.65</ele><time>2026-08-17T04:20:06.381Z</time><hdop>4.125</hdop><vdop>2.5</vdop><extensions><gom:speed>0.158</gom:speed></extensions></trkpt>
   <trkpt lat="59.3274495632" lon="34.7034413681"><ele>171.622</ele><time>2026-08-17T04:20:07.494Z</time><hdop>4.125</hdop><vdop>2.5</vdop><extensions><gom:speed>0.205</gom:speed></extensions></trkpt>
   <trkpt lat="59.3274474677" lon="34.7034476545"><ele>171.611</ele><time>2026-08-17T04:20:08.652Z</time><hdop>4.125</hdop><vdop>2.75</vdop><extensions><gom:speed>0.185</gom:speed></extensions></trkpt>
   <trkpt lat="59.3274448694" lon="34.703457629"><ele>172.009</ele><time>2026-08-17T04:20:09.644Z</time><hdop>4.125</hdop><vdop>2.937</vdop><extensions><gom:speed>0.237</gom:speed></extensions></trkpt>
   <trkpt lat="59.3274449951" lon="34.7034584671"><ele>172.241</ele><time>2026-08-17T04:20:10.652Z</time><hdop>4.125</hdop><vdop>2.687</vdop><extensions><gom:speed>0.153</gom:speed></extensions></trkpt>
   <trkpt lat="59.3274438635" lon="34.7034630772"><ele>172.255</ele><time>2026-08-17T04:20:11.652Z</time><hdop>4.187</hdop><vdop>2.75</vdop><extensions><gom:speed>0.169</gom:speed></extensions></trkpt>
   <trkpt lat="59.3274425643" lon="34.7034690283"><ele>172.263</ele><time>2026-08-17T04:20:12.564Z</time><hdop>4.187</hdop><vdop>2.75</vdop><extensions><gom:speed>0.183</gom:speed></extensions></trkpt>
   <trkpt lat="59.3274409718" lon="34.7034768235"><ele>172.496</ele><time>2026-08-17T04:20:13.615Z</time><hdop>4.25</hdop><vdop>2.75</vdop><extensions><gom:speed>0.219</gom:speed></extensions></trkpt>
   <trkpt lat="59.3274398821" lon="34.7034813497"><ele>172.675</ele><time>2026-08-17T04:20:14.283Z</time><hdop>4.25</hdop><vdop>2.812</vdop><extensions><gom:speed>0.246</gom:speed></extensions></trkpt>
   <trkpt lat="59.3274388763" lon="34.7034980297"><ele>172.309</ele><time>2026-08-17T04:20:15.163Z</time><hdop>4.375</hdop><vdop>2.875</vdop><extensions><gom:speed>0.399</gom:speed></extensions></trkpt>
   <trkpt lat="59.3274399659" lon="34.7035056573"><ele>171.679</ele><time>2026-08-17T04:20:15.653Z</time><hdop>4.375</hdop><vdop>2.937</vdop><extensions><gom:speed>0.47</gom:speed></extensions></trkpt>
   <trkpt lat="59.3274434863" lon="34.7035174757"><ele>171.625</ele><time>2026-08-17T04:20:16.652Z</time><hdop>4.375</hdop><vdop>2.875</vdop><extensions><gom:speed>0.511</gom:speed></extensions></trkpt>
   <trkpt lat="59.3274477611" lon="34.7035280369"><ele>171.593</ele><time>2026-08-17T04:20:17.642Z</time><hdop>4.437</hdop><vdop>2.875</vdop><extensions><gom:speed>0.53</gom:speed></extensions></trkpt>
   <trkpt lat="59.3274506948" lon="34.7035389334"><ele>171.491</ele><time>2026-08-17T04:20:18.481Z</time><hdop>4.5</hdop><vdop>2.875</vdop><extensions><gom:speed>0.542</gom:speed></extensions></trkpt>
   <trkpt lat="59.3274520778" lon="34.703552093"><ele>171.446</ele><time>2026-08-17T04:20:19.301Z</time><hdop>4.5</hdop><vdop>3.0</vdop><extensions><gom:speed>0.568</gom:speed></extensions></trkpt>
   <trkpt lat="59.3274518682" lon="34.7035598882"><ele>171.399</ele><time>2026-08-17T04:20:19.847Z</time><hdop>4.5</hdop><vdop>2.937</vdop><extensions><gom:speed>0.564</gom:speed></extensions></trkpt>
   <trkpt lat="59.3274507786" lon="34.7035737183"><ele>171.371</ele><time>2026-08-17T04:20:20.616Z</time><hdop>4.5</hdop><vdop>2.937</vdop><extensions><gom:speed>0.567</gom:speed></extensions></trkpt>
   <trkpt lat="59.3274477611" lon="34.7035916556"><ele>171.621</ele><time>2026-08-17T04:20:21.645Z</time><hdop>4.437</hdop><vdop>3.0</vdop><extensions><gom:speed>0.605</gom:speed></extensions></trkpt>
   <trkpt lat="59.3274463781" lon="34.7035992831"><ele>171.77</ele><time>2026-08-17T04:20:22.479Z</time><hdop>4.375</hdop><vdop>3.0</vdop><extensions><gom:speed>0.5</gom:speed></extensions></trkpt>
   <trkpt lat="59.3274443664" lon="34.703607665"><ele>171.635</ele><time>2026-08-17T04:20:23.459Z</time><hdop>4.375</hdop><vdop>3.187</vdop><extensions><gom:speed>0.401</gom:speed></extensions></trkpt>
   <trkpt lat="59.327442271" lon="34.7036145382"><ele>171.339</ele><time>2026-08-17T04:20:24.097Z</time><hdop>4.312</hdop><vdop>3.5</vdop><extensions><gom:speed>0.382</gom:speed></extensions></trkpt>
   <trkpt lat="59.327440385" lon="34.703620657"><ele>171.314</ele><time>2026-08-17T04:20:24.644Z</time><hdop>4.312</hdop><vdop>3.25</vdop><extensions><gom:speed>0.386</gom:speed></extensions></trkpt>
   <trkpt lat="59.3274392954" lon="34.7036217466"><ele>171.299</ele><time>2026-08-17T04:20:25.412Z</time><hdop>4.312</hdop><vdop>3.25</vdop><extensions><gom:speed>0.332</gom:speed></extensions></trkpt>
   <trkpt lat="59.3274382896" lon="34.7036387619"><ele>171.245</ele><time>2026-08-17T04:20:26.656Z</time><hdop>4.375</hdop><vdop>3.312</vdop><extensions><gom:speed>0.415</gom:speed></extensions></trkpt>
   <trkpt lat="59.3274388763" lon="34.703649826"><ele>170.896</ele><time>2026-08-17T04:20:27.652Z</time><hdop>4.5</hdop><vdop>3.0</vdop><extensions><gom:speed>0.343</gom:speed></extensions></trkpt>
   <trkpt lat="59.3274392954" lon="34.703663237"><ele>170.516</ele><time>2026-08-17T04:20:28.650Z</time><hdop>4.562</hdop><vdop>3.062</vdop><extensions><gom:speed>0.379</gom:speed></extensions></trkpt>
   <trkpt lat="59.3274420614" lon="34.7036697749"><ele>169.905</ele><time>2026-08-17T04:20:29.643Z</time><hdop>4.625</hdop><vdop>2.812</vdop><extensions><gom:speed>0.295</gom:speed></extensions></trkpt>
   <trkpt lat="59.3274430672" lon="34.7036704455"><ele>169.54</ele><time>2026-08-17T04:20:30.258Z</time><hdop>4.687</hdop><vdop>2.812</vdop><extensions><gom:speed>0.245</gom:speed></extensions></trkpt>
   <trkpt lat="59.3274433606" lon="34.7036711998"><ele>169.239</ele><time>2026-08-17T04:20:30.977Z</time><hdop>4.687</hdop><vdop>3.0</vdop><extensions><gom:speed>0.204</gom:speed></extensions></trkpt>
   <trkpt lat="59.3274436959" lon="34.7036738821"><ele>168.998</ele><time>2026-08-17T04:20:31.652Z</time><hdop>4.687</hdop><vdop>2.937</vdop><extensions><gom:speed>0.161</gom:speed></extensions></trkpt>
   <trkpt lat="59.3274438635" lon="34.7036756423"><ele>168.854</ele><time>2026-08-17T04:20:32.652Z</time><hdop>4.687</hdop><vdop>2.937</vdop><extensions><gom:speed>0.132</gom:speed></extensions></trkpt>
   <trkpt lat="59.3274441988" lon="34.7036791627"><ele>168.769</ele><time>2026-08-17T04:20:33.644Z</time><hdop>4.625</hdop><vdop>3.0</vdop><extensions><gom:speed>0.174</gom:speed></extensions></trkpt>
   <trkpt lat="59.3274444922" lon="34.7036785759"><ele>168.885</ele><time>2026-08-17T04:20:34.652Z</time><hdop>4.562</hdop><vdop>2.937</vdop><extensions><gom:speed>0.056</gom:speed></extensions></trkpt>
   <trkpt lat="59.327444576" lon="34.7036809229"><ele>168.96</ele><time>2026-08-17T04:20:35.643Z</time><hdop>4.5</hdop><vdop>3.0</vdop><extensions><gom:speed>0.125</gom:speed></extensions></trkpt>
   <trkpt lat="59.3274446598" lon="34.7036811743"><ele>169.006</ele><time>2026-08-17T04:20:36.541Z</time><hdop>4.437</hdop><vdop>3.0</vdop><extensions><gom:speed>0.119</gom:speed></extensions></trkpt>
   <trkpt lat="59.327444576" lon="34.7036814258"><ele>169.034</ele><time>2026-08-17T04:20:37.178Z</time><hdop>4.312</hdop><vdop>2.875</vdop><extensions><gom:speed>0.079</gom:speed></extensions></trkpt>
   <trkpt lat="59.3274446598" lon="34.7036807552"><ele>168.853</ele><time>2026-08-17T04:20:37.655Z</time><hdop>4.187</hdop><vdop>2.75</vdop><extensions><gom:speed>0.044</gom:speed></extensions></trkpt>
   <trkpt lat="59.3274444922" lon="34.7036825992"><ele>168.746</ele><time>2026-08-17T04:20:38.615Z</time><hdop>4.187</hdop><vdop>2.75</vdop><extensions><gom:speed>0.117</gom:speed></extensions></trkpt>
   <trkpt lat="59.3274435702" lon="34.7036855329"><ele>168.591</ele><time>2026-08-17T04:20:39.495Z</time><hdop>4.125</hdop><vdop>2.812</vdop><extensions><gom:speed>0.139</gom:speed></extensions></trkpt>
   <trkpt lat="59.3274428996" lon="34.7036888857"><ele>167.71</ele><time>2026-08-17T04:20:40.294Z</time><hdop>4.062</hdop><vdop>2.812</vdop><extensions><gom:speed>0.155</gom:speed></extensions></trkpt>
   <trkpt lat="59.3274406784" lon="34.7036955912"><ele>166.742</ele><time>2026-08-17T04:20:41.053Z</time><hdop>4.062</hdop><vdop>2.875</vdop><extensions><gom:speed>0.292</gom:speed></extensions></trkpt>
   <trkpt lat="59.3274388763" lon="34.7037008718"><ele>166.389</ele><time>2026-08-17T04:20:41.644Z</time><hdop>4.0</hdop><vdop>2.875</vdop><extensions><gom:speed>0.322</gom:speed></extensions></trkpt>
   <trkpt lat="59.3274373675" lon="34.7037059847"><ele>166.177</ele><time>2026-08-17T04:20:42.105Z</time><hdop>4.0</hdop><vdop>2.875</vdop><extensions><gom:speed>0.433</gom:speed></extensions></trkpt>
   <trkpt lat="59.3274344758" lon="34.7037146181"><ele>166.082</ele><time>2026-08-17T04:20:42.644Z</time><hdop>3.937</hdop><vdop>3.0</vdop><extensions><gom:speed>0.465</gom:speed></extensions></trkpt>
   <trkpt lat="59.3274329671" lon="34.7037192282"><ele>166.029</ele><time>2026-08-17T04:20:43.644Z</time><hdop>3.937</hdop><vdop>2.875</vdop><extensions><gom:speed>0.403</gom:speed></extensions></trkpt>
   <trkpt lat="59.3274337633" lon="34.70371839"><ele>165.998</ele><time>2026-08-17T04:20:44.652Z</time><hdop>3.937</hdop><vdop>2.812</vdop><extensions><gom:speed>0.134</gom:speed></extensions></trkpt>
   <trkpt lat="59.3274323803" lon="34.7037191443"><ele>165.983</ele><time>2026-08-17T04:20:45.644Z</time><hdop>3.875</hdop><vdop>2.687</vdop><extensions><gom:speed>0.146</gom:speed></extensions></trkpt>
   <trkpt lat="59.3274330928" lon="34.703717887"><ele>165.981</ele><time>2026-08-17T04:20:46.652Z</time><hdop>3.812</hdop><vdop>2.5</vdop><extensions><gom:speed>0.032</gom:speed></extensions></trkpt>
   <trkpt lat="59.3274326737" lon="34.7037177194"><ele>165.979</ele><time>2026-08-17T04:20:47.437Z</time><hdop>3.812</hdop><vdop>2.5</vdop><extensions><gom:speed>0.078</gom:speed></extensions></trkpt>
   <trkpt lat="59.3274316679" lon="34.7037200663"><ele>166.057</ele><time>2026-08-17T04:20:47.944Z</time><hdop>3.75</hdop><vdop>2.5</vdop><extensions><gom:speed>0.057</gom:speed></extensions></trkpt>
   <trkpt lat="59.3274313745" lon="34.7037217427"><ele>166.175</ele><time>2026-08-17T04:20:48.652Z</time><hdop>3.687</hdop><vdop>2.562</vdop><extensions><gom:speed>0.09</gom:speed></extensions></trkpt>
   <trkpt lat="59.3274304944" lon="34.7037240897"><ele>166.602</ele><time>2026-08-17T04:20:49.653Z</time><hdop>3.687</hdop><vdop>2.687</vdop><extensions><gom:speed>0.1</gom:speed></extensions></trkpt>
   <trkpt lat="59.3274293628" lon="34.7037272748"><ele>166.807</ele><time>2026-08-17T04:20:50.643Z</time><hdop>3.687</hdop><vdop>2.75</vdop><extensions><gom:speed>0.128</gom:speed></extensions></trkpt>
   <trkpt lat="59.3274296981" lon="34.7037292864"><ele>166.976</ele><time>2026-08-17T04:20:51.652Z</time><hdop>3.687</hdop><vdop>2.687</vdop><extensions><gom:speed>0.141</gom:speed></extensions></trkpt>
   <trkpt lat="59.3274301591" lon="34.703732723"><ele>167.004</ele><time>2026-08-17T04:20:52.648Z</time><hdop>3.75</hdop><vdop>2.75</vdop><extensions><gom:speed>0.186</gom:speed></extensions></trkpt>
   <trkpt lat="59.327431584" lon="34.7037349861"><ele>167.022</ele><time>2026-08-17T04:20:53.498Z</time><hdop>3.812</hdop><vdop>2.75</vdop><extensions><gom:speed>0.195</gom:speed></extensions></trkpt>
   <trkpt lat="59.3274351883" lon="34.7037392609"><ele>166.887</ele><time>2026-08-17T04:20:54.644Z</time><hdop>3.875</hdop><vdop>3.062</vdop><extensions><gom:speed>0.222</gom:speed></extensions></trkpt>
   <trkpt lat="59.3274374933" lon="34.7037405182"><ele>166.807</ele><time>2026-08-17T04:20:55.278Z</time><hdop>3.937</hdop><vdop>3.062</vdop><extensions><gom:speed>0.231</gom:speed></extensions></trkpt>
   <trkpt lat="59.3274405946" lon="34.7037439548"><ele>166.682</ele><time>2026-08-17T04:20:56.118Z</time><hdop>3.937</hdop><vdop>3.187</vdop><extensions><gom:speed>0.277</gom:speed></extensions></trkpt>
   <trkpt lat="59.3274432768" lon="34.703747559"><ele>166.29</ele><time>2026-08-17T04:20:56.644Z</time><hdop>4.0</hdop><vdop>3.25</vdop><extensions><gom:speed>0.303</gom:speed></extensions></trkpt>
   <trkpt lat="59.3274478868" lon="34.7037562762"><ele>165.966</ele><time>2026-08-17T04:20:57.644Z</time><hdop>4.0</hdop><vdop>3.187</vdop><extensions><gom:speed>0.345</gom:speed></extensions></trkpt>
   <trkpt lat="59.3274524969" lon="34.7037648257"><ele>165.99</ele><time>2026-08-17T04:20:58.644Z</time><hdop>4.062</hdop><vdop>3.25</vdop><extensions><gom:speed>0.334</gom:speed></extensions></trkpt>
   <trkpt lat="59.3274551791" lon="34.7037707769"><ele>166.004</ele><time>2026-08-17T04:20:59.335Z</time><hdop>4.125</hdop><vdop>3.25</vdop><extensions><gom:speed>0.379</gom:speed></extensions></trkpt>
   <trkpt lat="59.3274578613" lon="34.7037769795"><ele>165.707</ele><time>2026-08-17T04:20:59.902Z</time><hdop>4.125</hdop><vdop>3.312</vdop><extensions><gom:speed>0.383</gom:speed></extensions></trkpt>
   <trkpt lat="59.32745937" lon="34.7037835174"><ele>165.778</ele><time>2026-08-17T04:21:00.644Z</time><hdop>4.187</hdop><vdop>3.375</vdop><extensions><gom:speed>0.395</gom:speed></extensions></trkpt>
   <trkpt lat="59.3274594958" lon="34.7037842717"><ele>165.82</ele><time>2026-08-17T04:21:01.349Z</time><hdop>4.187</hdop><vdop>3.375</vdop><extensions><gom:speed>0.356</gom:speed></extensions></trkpt>
   <trkpt lat="59.3274590767" lon="34.7037948329"><ele>165.654</ele><time>2026-08-17T04:21:02.644Z</time><hdop>4.25</hdop><vdop>3.0</vdop><extensions><gom:speed>0.328</gom:speed></extensions></trkpt>
   <trkpt lat="59.3274588671" lon="34.7037954197"><ele>165.555</ele><time>2026-08-17T04:21:03.221Z</time><hdop>4.25</hdop><vdop>3.0</vdop><extensions><gom:speed>0.257</gom:speed></extensions></trkpt>
   <trkpt lat="59.3274586995" lon="34.7037958387"><ele>165.296</ele><time>2026-08-17T04:21:03.959Z</time><hdop>4.25</hdop><vdop>3.062</vdop><extensions><gom:speed>0.192</gom:speed></extensions></trkpt>
   <trkpt lat="59.3274571908" lon="34.7037978504"><ele>165.561</ele><time>2026-08-17T04:21:04.644Z</time><hdop>4.25</hdop><vdop>3.0</vdop><extensions><gom:speed>0.221</gom:speed></extensions></trkpt>
   <trkpt lat="59.3274550953" lon="34.7037967608"><ele>165.512</ele><time>2026-08-17T04:21:05.645Z</time><hdop>4.187</hdop><vdop>3.0</vdop><extensions><gom:speed>0.225</gom:speed></extensions></trkpt>
   <trkpt lat="59.3274535865" lon="34.7037965931"><ele>165.529</ele><time>2026-08-17T04:21:06.652Z</time><hdop>4.187</hdop><vdop>2.812</vdop><extensions><gom:speed>0.188</gom:speed></extensions></trkpt>
   <trkpt lat="59.327451072" lon="34.7037992753"><ele>165.539</ele><time>2026-08-17T04:21:07.540Z</time><hdop>4.187</hdop><vdop>2.812</vdop><extensions><gom:speed>0.221</gom:speed></extensions></trkpt>
   <trkpt lat="59.3274478868" lon="34.7038043883"><ele>165.652</ele><time>2026-08-17T04:21:08.502Z</time><hdop>4.25</hdop><vdop>2.75</vdop><extensions><gom:speed>0.249</gom:speed></extensions></trkpt>
   <trkpt lat="59.3274455818" lon="34.7038123511"><ele>165.769</ele><time>2026-08-17T04:21:09.574Z</time><hdop>4.25</hdop><vdop>2.812</vdop><extensions><gom:speed>0.324</gom:speed></extensions></trkpt>
   <trkpt lat="59.3274439893" lon="34.7038222417"><ele>165.512</ele><time>2026-08-17T04:21:10.343Z</time><hdop>4.25</hdop><vdop>2.812</vdop><extensions><gom:speed>0.433</gom:speed></extensions></trkpt>
   <trkpt lat="59.3274436959" lon="34.7038335573"><ele>165.133</ele><time>2026-08-17T04:21:11.597Z</time><hdop>4.375</hdop><vdop>3.062</vdop><extensions><gom:speed>0.375</gom:speed></extensions></trkpt>
   <trkpt lat="59.3274435702" lon="34.7038371615"><ele>165.034</ele><time>2026-08-17T04:21:12.174Z</time><hdop>4.375</hdop><vdop>3.062</vdop><extensions><gom:speed>0.345</gom:speed></extensions></trkpt>
   <trkpt lat="59.3274438635" lon="34.7038442861"><ele>164.966</ele><time>2026-08-17T04:21:12.645Z</time><hdop>4.437</hdop><vdop>3.062</vdop><extensions><gom:speed>0.306</gom:speed></extensions></trkpt>
   <trkpt lat="59.3274434863" lon="34.7038530871"><ele>164.784</ele><time>2026-08-17T04:21:13.644Z</time><hdop>4.437</hdop><vdop>3.125</vdop><extensions><gom:speed>0.281</gom:speed></extensions></trkpt>
   <trkpt lat="59.3274429834" lon="34.7038583677"><ele>164.154</ele><time>2026-08-17T04:21:14.644Z</time><hdop>4.437</hdop><vdop>3.062</vdop><extensions><gom:speed>0.241</gom:speed></extensions></trkpt>
   <trkpt lat="59.3274425643" lon="34.7038606309"><ele>163.742</ele><time>2026-08-17T04:21:15.652Z</time><hdop>4.437</hdop><vdop>3.062</vdop><extensions><gom:speed>0.199</gom:speed></extensions></trkpt>
   <trkpt lat="59.3274399659" lon="34.703871695"><ele>163.574</ele><time>2026-08-17T04:21:16.644Z</time><hdop>4.437</hdop><vdop>3.0</vdop><extensions><gom:speed>0.239</gom:speed></extensions></trkpt>
   <trkpt lat="59.3274389601" lon="34.7038759697"><ele>163.638</ele><time>2026-08-17T04:21:17.653Z</time><hdop>4.375</hdop><vdop>2.937</vdop><extensions><gom:speed>0.216</gom:speed></extensions></trkpt>
   <trkpt lat="59.3274353978" lon="34.7038835973"><ele>163.676</ele><time>2026-08-17T04:21:18.518Z</time><hdop>4.375</hdop><vdop>2.937</vdop><extensions><gom:speed>0.24</gom:speed></extensions></trkpt>
   <trkpt lat="59.3274331766" lon="34.703890219"><ele>163.789</ele><time>2026-08-17T04:21:19.378Z</time><hdop>4.375</hdop><vdop>3.062</vdop><extensions><gom:speed>0.238</gom:speed></extensions></trkpt>
   <trkpt lat="59.327431584" lon="34.7039010316"><ele>163.699</ele><time>2026-08-17T04:21:20.642Z</time><hdop>4.375</hdop><vdop>2.937</vdop><extensions><gom:speed>0.226</gom:speed></extensions></trkpt>
   <trkpt lat="59.3274290695" lon="34.7039097488"><ele>163.628</ele><time>2026-08-17T04:21:21.381Z</time><hdop>4.375</hdop><vdop>2.937</vdop><extensions><gom:speed>0.254</gom:speed></extensions></trkpt>
   <trkpt lat="59.3274230764" lon="34.7039178793"><ele>163.519</ele><time>2026-08-17T04:21:22.514Z</time><hdop>4.437</hdop><vdop>3.125</vdop><extensions><gom:speed>0.262</gom:speed></extensions></trkpt>
   <trkpt lat="59.3274182987" lon="34.703922154"><ele>163.464</ele><time>2026-08-17T04:21:23.243Z</time><hdop>4.375</hdop><vdop>3.187</vdop><extensions><gom:speed>0.275</gom:speed></extensions></trkpt>
   <trkpt lat="59.3274122637" lon="34.7039266803"><ele>163.602</ele><time>2026-08-17T04:21:24.123Z</time><hdop>4.375</hdop><vdop>3.312</vdop><extensions><gom:speed>0.274</gom:speed></extensions></trkpt>
   <trkpt lat="59.3274087853" lon="34.703930033"><ele>163.605</ele><time>2026-08-17T04:21:24.644Z</time><hdop>4.375</hdop><vdop>3.437</vdop><extensions><gom:speed>0.306</gom:speed></extensions></trkpt>
   <trkpt lat="59.3274067736" lon="34.7039332181"><ele>163.608</ele><time>2026-08-17T04:21:25.114Z</time><hdop>4.375</hdop><vdop>3.437</vdop><extensions><gom:speed>0.312</gom:speed></extensions></trkpt>
   <trkpt lat="59.3274035885" lon="34.7039390855"><ele>163.251</ele><time>2026-08-17T04:21:25.645Z</time><hdop>4.312</hdop><vdop>3.625</vdop><extensions><gom:speed>0.342</gom:speed></extensions></trkpt>
   <trkpt lat="59.3274008644" lon="34.7039488923"><ele>163.037</ele><time>2026-08-17T04:21:26.541Z</time><hdop>4.375</hdop><vdop>3.625</vdop><extensions><gom:speed>0.439</gom:speed></extensions></trkpt>
   <trkpt lat="59.3273932787" lon="34.7039737866"><ele>163.599</ele><time>2026-08-17T04:21:27.654Z</time><hdop>4.187</hdop><vdop>3.375</vdop><extensions><gom:speed>0.45</gom:speed></extensions></trkpt>
   <trkpt lat="59.3273896745" lon="34.7039963339"><ele>164.044</ele><time>2026-08-17T04:21:28.644Z</time><hdop>4.062</hdop><vdop>3.375</vdop><extensions><gom:speed>0.386</gom:speed></extensions></trkpt>
   <trkpt lat="59.3273891716" lon="34.7040033747"><ele>164.307</ele><time>2026-08-17T04:21:29.652Z</time><hdop>3.812</hdop><vdop>3.375</vdop><extensions><gom:speed>0.173</gom:speed></extensions></trkpt>
   <trkpt lat="59.3273887944" lon="34.7040118404"><ele>164.469</ele><time>2026-08-17T04:21:30.644Z</time><hdop>3.562</hdop><vdop>3.25</vdop><extensions><gom:speed>0.168</gom:speed></extensions></trkpt>
   <trkpt lat="59.3273888782" lon="34.7040128462"><ele>164.818</ele><time>2026-08-17T04:21:31.660Z</time><hdop>3.062</hdop><vdop>3.125</vdop><extensions><gom:speed>0.069</gom:speed></extensions></trkpt>
   <trkpt lat="59.3273895907" lon="34.7040234912"><ele>165.381</ele><time>2026-08-17T04:21:32.644Z</time><hdop>3.0</hdop><vdop>3.062</vdop><extensions><gom:speed>0.142</gom:speed></extensions></trkpt>
   <trkpt lat="59.3273896745" lon="34.7040275984"><ele>165.717</ele><time>2026-08-17T04:21:33.481Z</time><hdop>3.0</hdop><vdop>3.062</vdop><extensions><gom:speed>0.126</gom:speed></extensions></trkpt>
   <trkpt lat="59.3273910994" lon="34.7040350583"><ele>166.046</ele><time>2026-08-17T04:21:34.652Z</time><hdop>3.0</hdop><vdop>3.0</vdop><extensions><gom:speed>0.13</gom:speed></extensions></trkpt>
   <trkpt lat="59.3273931949" lon="34.7040461224"><ele>166.111</ele><time>2026-08-17T04:21:35.644Z</time><hdop>3.0</hdop><vdop>3.062</vdop><extensions><gom:speed>0.154</gom:speed></extensions></trkpt>
   <trkpt lat="59.3273938655" lon="34.704049559"><ele>166.567</ele><time>2026-08-17T04:21:36.652Z</time><hdop>3.0</hdop><vdop>3.0</vdop><extensions><gom:speed>0.092</gom:speed></extensions></trkpt>
   <trkpt lat="59.3273951647" lon="34.7040554263"><ele>166.847</ele><time>2026-08-17T04:21:37.652Z</time><hdop>3.0</hdop><vdop>3.062</vdop><extensions><gom:speed>0.075</gom:speed></extensions></trkpt>
   <trkpt lat="59.3273966734" lon="34.704061126"><ele>167.014</ele><time>2026-08-17T04:21:38.652Z</time><hdop>3.0</hdop><vdop>3.125</vdop><extensions><gom:speed>0.029</gom:speed></extensions></trkpt>
   <trkpt lat="59.3273979726" lon="34.7040668257"><ele>167.334</ele><time>2026-08-17T04:21:39.652Z</time><hdop>3.0</hdop><vdop>2.937</vdop><extensions><gom:speed>0.043</gom:speed></extensions></trkpt>
   <trkpt lat="59.3273994813" lon="34.7040720225"><ele>167.511</ele><time>2026-08-17T04:21:40.665Z</time><hdop>3.0</hdop><vdop>3.0</vdop><extensions><gom:speed>0.049</gom:speed></extensions></trkpt>
   <trkpt lat="59.3274007805" lon="34.7040753752"><ele>167.63</ele><time>2026-08-17T04:21:41.652Z</time><hdop>3.0</hdop><vdop>3.0</vdop><extensions><gom:speed>0.023</gom:speed></extensions></trkpt>
   <trkpt lat="59.3274017864" lon="34.704075962"><ele>167.7</ele><time>2026-08-17T04:21:42.652Z</time><hdop>3.0</hdop><vdop>3.0</vdop><extensions><gom:speed>0.017</gom:speed></extensions></trkpt>
   <trkpt lat="59.3274021636" lon="34.7040773869"><ele>167.741</ele><time>2026-08-17T04:21:43.652Z</time><hdop>3.0</hdop><vdop>2.937</vdop><extensions><gom:speed>0.023</gom:speed></extensions></trkpt>
   <trkpt lat="59.3274027922" lon="34.7040791471"><ele>167.77</ele><time>2026-08-17T04:21:44.644Z</time><hdop>3.0</hdop><vdop>2.812</vdop><extensions><gom:speed>0.062</gom:speed></extensions></trkpt>
   <trkpt lat="59.327402876" lon="34.7040785603"><ele>167.787</ele><time>2026-08-17T04:21:45.652Z</time><hdop>3.0</hdop><vdop>2.75</vdop><extensions><gom:speed>0.029</gom:speed></extensions></trkpt>
   <trkpt lat="59.3274029598" lon="34.704078728"><ele>167.796</ele><time>2026-08-17T04:21:46.652Z</time><hdop>3.0</hdop><vdop>2.687</vdop><extensions><gom:speed>0.017</gom:speed></extensions></trkpt>
   <trkpt lat="59.3274036723" lon="34.7040789794"><ele>167.801</ele><time>2026-08-17T04:21:47.652Z</time><hdop>3.0</hdop><vdop>2.562</vdop><extensions><gom:speed>0.017</gom:speed></extensions></trkpt>
   <trkpt lat="59.3274040914" lon="34.7040799853"><ele>167.805</ele><time>2026-08-17T04:21:48.652Z</time><hdop>3.0</hdop><vdop>2.5</vdop><extensions><gom:speed>0.016</gom:speed></extensions></trkpt>
   <trkpt lat="59.3274043848" lon="34.7040806558"><ele>167.807</ele><time>2026-08-17T04:21:49.644Z</time><hdop>3.0</hdop><vdop>2.5</vdop><extensions><gom:speed>0.089</gom:speed></extensions></trkpt>
   <trkpt lat="59.3274043848" lon="34.7040819969"><ele>167.809</ele><time>2026-08-17T04:21:50.644Z</time><hdop>3.0</hdop><vdop>2.5</vdop><extensions><gom:speed>0.075</gom:speed></extensions></trkpt>
   <trkpt lat="59.3274043848" lon="34.7040831704"><ele>167.812</ele><time>2026-08-17T04:21:51.652Z</time><hdop>3.0</hdop><vdop>2.5</vdop><extensions><gom:speed>0.075</gom:speed></extensions></trkpt>
   <trkpt lat="59.3274043848" lon="34.7040841762"><ele>167.814</ele><time>2026-08-17T04:21:52.652Z</time><hdop>3.0</hdop><vdop>2.5</vdop><extensions><gom:speed>0.071</gom:speed></extensions></trkpt>
   <trkpt lat="59.3274044686" lon="34.704084763"><ele>167.817</ele><time>2026-08-17T04:21:53.644Z</time><hdop>3.0</hdop><vdop>2.5</vdop><extensions><gom:speed>0.066</gom:speed></extensions></trkpt>
   <trkpt lat="59.3274045943" lon="34.704085685"><ele>167.819</ele><time>2026-08-17T04:21:54.653Z</time><hdop>3.0</hdop><vdop>2.5</vdop><extensions><gom:speed>0.067</gom:speed></extensions></trkpt>
   <trkpt lat="59.3274045943" lon="34.7040863555"><ele>167.819</ele><time>2026-08-17T04:21:55.652Z</time><hdop>3.0</hdop><vdop>2.5</vdop><extensions><gom:speed>0.066</gom:speed></extensions></trkpt>
   <trkpt lat="59.3274046781" lon="34.7040870261"><ele>167.819</ele><time>2026-08-17T04:21:56.652Z</time><hdop>3.0</hdop><vdop>2.5</vdop><extensions><gom:speed>0.067</gom:speed></extensions></trkpt>
   <trkpt lat="59.3274049715" lon="34.7040873613"><ele>167.819</ele><time>2026-08-17T04:21:57.644Z</time><hdop>3.0</hdop><vdop>2.5</vdop><extensions><gom:speed>0.064</gom:speed></extensions></trkpt>
   <trkpt lat="59.3274050972" lon="34.7040879481"><ele>167.819</ele><time>2026-08-17T04:21:58.652Z</time><hdop>3.0</hdop><vdop>2.5</vdop><extensions><gom:speed>0.064</gom:speed></extensions></trkpt>
   <trkpt lat="59.327405181" lon="34.704088451"><ele>167.819</ele><time>2026-08-17T04:21:59.652Z</time><hdop>3.0</hdop><vdop>2.5</vdop><extensions><gom:speed>0.067</gom:speed></extensions></trkpt>
   <trkpt lat="59.327405181" lon="34.7040889539"><ele>167.819</ele><time>2026-08-17T04:22:00.652Z</time><hdop>3.0</hdop><vdop>2.5</vdop><extensions><gom:speed>0.068</gom:speed></extensions></trkpt>
   <trkpt lat="59.327405181" lon="34.7040894568"><ele>167.819</ele><time>2026-08-17T04:22:01.652Z</time><hdop>3.0</hdop><vdop>2.5</vdop><extensions><gom:speed>0.069</gom:speed></extensions></trkpt>
   <trkpt lat="59.3274050972" lon="34.7040898759"><ele>167.818</ele><time>2026-08-17T04:22:02.652Z</time><hdop>3.0</hdop><vdop>2.5</vdop><extensions><gom:speed>0.07</gom:speed></extensions></trkpt>
   <trkpt lat="59.3274050972" lon="34.7040897921"><ele>167.817</ele><time>2026-08-17T04:22:03.643Z</time><hdop>3.0</hdop><vdop>2.5</vdop><extensions><gom:speed>0.074</gom:speed></extensions></trkpt>
   <trkpt lat="59.3274050972" lon="34.7040904626"><ele>167.817</ele><time>2026-08-17T04:22:04.652Z</time><hdop>3.0</hdop><vdop>2.5</vdop><extensions><gom:speed>0.074</gom:speed></extensions></trkpt>
   <trkpt lat="59.3274049715" lon="34.7040907979"><ele>167.817</ele><time>2026-08-17T04:22:05.652Z</time><hdop>3.0</hdop><vdop>2.5</vdop><extensions><gom:speed>0.072</gom:speed></extensions></trkpt>
   <trkpt lat="59.3274050972" lon="34.7040913847"><ele>167.817</ele><time>2026-08-17T04:22:06.646Z</time><hdop>3.0</hdop><vdop>2.5</vdop><extensions><gom:speed>0.072</gom:speed></extensions></trkpt>
   <trkpt lat="59.3274050972" lon="34.7040916361"><ele>167.817</ele><time>2026-08-17T04:22:07.652Z</time><hdop>3.0</hdop><vdop>2.5</vdop><extensions><gom:speed>0.073</gom:speed></extensions></trkpt>
   <trkpt lat="59.3274050972" lon="34.7040917199"><ele>167.818</ele><time>2026-08-17T04:22:08.652Z</time><hdop>3.0</hdop><vdop>2.5</vdop><extensions><gom:speed>0.073</gom:speed></extensions></trkpt>
   <trkpt lat="59.3274050972" lon="34.7040913847"><ele>167.818</ele><time>2026-08-17T04:22:09.644Z</time><hdop>3.0</hdop><vdop>2.5</vdop><extensions><gom:speed>0.075</gom:speed></extensions></trkpt>
   <trkpt lat="59.3274050972" lon="34.7040918876"><ele>167.818</ele><time>2026-08-17T04:22:10.653Z</time><hdop>3.0</hdop><vdop>2.5</vdop><extensions><gom:speed>0.076</gom:speed></extensions></trkpt>
   <trkpt lat="59.3274050972" lon="34.7040919714"><ele>167.818</ele><time>2026-08-17T04:22:11.652Z</time><hdop>3.0</hdop><vdop>2.5</vdop><extensions><gom:speed>0.075</gom:speed></extensions></trkpt>
   <trkpt lat="59.3274050972" lon="34.7040919714"><ele>167.819</ele><time>2026-08-17T04:22:12.652Z</time><hdop>3.0</hdop><vdop>2.5</vdop><extensions><gom:speed>0.076</gom:speed></extensions></trkpt>
   <trkpt lat="59.3274050972" lon="34.7040920552"><ele>167.82</ele><time>2026-08-17T04:22:13.668Z</time><hdop>3.0</hdop><vdop>2.5</vdop><extensions><gom:speed>0.079</gom:speed></extensions></trkpt>
   <trkpt lat="59.327405181" lon="34.7040920552"><ele>167.822</ele><time>2026-08-17T04:22:14.652Z</time><hdop>3.0</hdop><vdop>2.5</vdop><extensions><gom:speed>0.08</gom:speed></extensions></trkpt>
   <trkpt lat="59.327405181" lon="34.7040920552"><ele>167.824</ele><time>2026-08-17T04:22:15.652Z</time><hdop>3.0</hdop><vdop>2.5</vdop><extensions><gom:speed>0.077</gom:speed></extensions></trkpt>
   <trkpt lat="59.327405181" lon="34.7040914685"><ele>167.825</ele><time>2026-08-17T04:22:16.645Z</time><hdop>3.0</hdop><vdop>2.5</vdop><extensions><gom:speed>0.075</gom:speed></extensions></trkpt>
   <trkpt lat="59.327405181" lon="34.7040913847"><ele>167.826</ele><time>2026-08-17T04:22:17.644Z</time><hdop>3.0</hdop><vdop>2.5</vdop><extensions><gom:speed>0.077</gom:speed></extensions></trkpt>
   <trkpt lat="59.327405181" lon="34.7040917199"><ele>167.827</ele><time>2026-08-17T04:22:18.653Z</time><hdop>3.0</hdop><vdop>2.5</vdop><extensions><gom:speed>0.077</gom:speed></extensions></trkpt>
   <trkpt lat="59.327405181" lon="34.7040920552"><ele>167.827</ele><time>2026-08-17T04:22:19.658Z</time><hdop>3.0</hdop><vdop>2.5</vdop><extensions><gom:speed>0.077</gom:speed></extensions></trkpt>
   <trkpt lat="59.3274053906" lon="34.7040919714"><ele>167.83</ele><time>2026-08-17T04:22:20.652Z</time><hdop>3.0</hdop><vdop>2.5</vdop><extensions><gom:speed>0.08</gom:speed></extensions></trkpt>
   <trkpt lat="59.3274054744" lon="34.7040919714"><ele>167.831</ele><time>2026-08-17T04:22:21.652Z</time><hdop>3.0</hdop><vdop>2.5</vdop><extensions><gom:speed>0.078</gom:speed></extensions></trkpt>
   <trkpt lat="59.3274054744" lon="34.7040915523"><ele>167.832</ele><time>2026-08-17T04:22:22.644Z</time><hdop>3.0</hdop><vdop>2.5</vdop><extensions><gom:speed>0.075</gom:speed></extensions></trkpt>
   <trkpt lat="59.3274053906" lon="34.7040917199"><ele>167.834</ele><time>2026-08-17T04:22:23.652Z</time><hdop>3.0</hdop><vdop>2.5</vdop><extensions><gom:speed>0.075</gom:speed></extensions></trkpt>
   <trkpt lat="59.3274053906" lon="34.7040918876"><ele>167.835</ele><time>2026-08-17T04:22:24.655Z</time><hdop>3.0</hdop><vdop>2.5</vdop><extensions><gom:speed>0.076</gom:speed></extensions></trkpt>
   <trkpt lat="59.3274053906" lon="34.7040915523"><ele>167.837</ele><time>2026-08-17T04:22:25.644Z</time><hdop>3.0</hdop><vdop>2.5</vdop><extensions><gom:speed>0.073</gom:speed></extensions></trkpt>
   <trkpt lat="59.3274052649" lon="34.7040916361"><ele>167.839</ele><time>2026-08-17T04:22:26.658Z</time><hdop>3.0</hdop><vdop>2.5</vdop><extensions><gom:speed>0.073</gom:speed></extensions></trkpt>
   <trkpt lat="59.3274053906" lon="34.7040914685"><ele>167.841</ele><time>2026-08-17T04:22:27.644Z</time><hdop>3.0</hdop><vdop>2.5</vdop><extensions><gom:speed>0.072</gom:speed></extensions></trkpt>
   <trkpt lat="59.3274053906" lon="34.7040913847"><ele>167.843</ele><time>2026-08-17T04:22:28.644Z</time><hdop>3.0</hdop><vdop>2.5</vdop><extensions><gom:speed>0.073</gom:speed></extensions></trkpt>
   <trkpt lat="59.3274054744" lon="34.7040916361"><ele>167.845</ele><time>2026-08-17T04:22:29.652Z</time><hdop>3.0</hdop><vdop>2.5</vdop><extensions><gom:speed>0.073</gom:speed></extensions></trkpt>
   <trkpt lat="59.3274054744" lon="34.7040915523"><ele>167.847</ele><time>2026-08-17T04:22:30.644Z</time><hdop>3.0</hdop><vdop>2.5</vdop><extensions><gom:speed>0.106</gom:speed></extensions></trkpt>
   <trkpt lat="59.3274054744" lon="34.7040923905"><ele>167.849</ele><time>2026-08-17T04:22:31.656Z</time><hdop>3.0</hdop><vdop>2.5</vdop><extensions><gom:speed>0.107</gom:speed></extensions></trkpt>
   <trkpt lat="59.3274053906" lon="34.7040923905"><ele>167.851</ele><time>2026-08-17T04:22:32.653Z</time><hdop>3.0</hdop><vdop>2.5</vdop><extensions><gom:speed>0.089</gom:speed></extensions></trkpt>
   <trkpt lat="59.3274053906" lon="34.7040922228"><ele>167.853</ele><time>2026-08-17T04:22:33.660Z</time><hdop>3.0</hdop><vdop>2.5</vdop><extensions><gom:speed>0.077</gom:speed></extensions></trkpt>
   <trkpt lat="59.3274050972" lon="34.7040916361"><ele>167.855</ele><time>2026-08-17T04:22:34.643Z</time><hdop>3.0</hdop><vdop>2.5</vdop><extensions><gom:speed>0.068</gom:speed></extensions></trkpt>
   <trkpt lat="59.3274048877" lon="34.7040916361"><ele>167.857</ele><time>2026-08-17T04:22:35.652Z</time><hdop>3.0</hdop><vdop>2.5</vdop><extensions><gom:speed>0.068</gom:speed></extensions></trkpt>
   <trkpt lat="59.3274050972" lon="34.704091217"><ele>167.858</ele><time>2026-08-17T04:22:36.644Z</time><hdop>3.0</hdop><vdop>2.5</vdop><extensions><gom:speed>0.066</gom:speed></extensions></trkpt>
   <trkpt lat="59.327405181" lon="34.7040911332"><ele>167.86</ele><time>2026-08-17T04:22:37.644Z</time><hdop>3.0</hdop><vdop>2.5</vdop><extensions><gom:speed>0.063</gom:speed></extensions></trkpt>
   <trkpt lat="59.327405181" lon="34.7040915523"><ele>167.863</ele><time>2026-08-17T04:22:38.657Z</time><hdop>3.0</hdop><vdop>2.5</vdop><extensions><gom:speed>0.064</gom:speed></extensions></trkpt>
   <trkpt lat="59.3274053906" lon="34.7040913847"><ele>167.865</ele><time>2026-08-17T04:22:39.643Z</time><hdop>3.0</hdop><vdop>2.5</vdop><extensions><gom:speed>0.065</gom:speed></extensions></trkpt>
   <trkpt lat="59.3274054744" lon="34.7040916361"><ele>167.87</ele><time>2026-08-17T04:22:40.652Z</time><hdop>3.0</hdop><vdop>2.5</vdop><extensions><gom:speed>0.065</gom:speed></extensions></trkpt>
   <trkpt lat="59.327405684" lon="34.7040916361"><ele>167.874</ele><time>2026-08-17T04:22:41.653Z</time><hdop>3.0</hdop><vdop>2.5</vdop><extensions><gom:speed>0.067</gom:speed></extensions></trkpt>
   <trkpt lat="59.3274057678" lon="34.7040920552"><ele>167.876</ele><time>2026-08-17T04:22:43.655Z</time><hdop>3.0</hdop><vdop>2.5</vdop><extensions><gom:speed>0.069</gom:speed></extensions></trkpt>
   <trkpt lat="59.3274057678" lon="34.7040917199"><ele>167.883</ele><time>2026-08-17T04:22:44.667Z</time><hdop>3.0</hdop><vdop>2.5</vdop><extensions><gom:speed>0.07</gom:speed></extensions></trkpt>
   <trkpt lat="59.3274057678" lon="34.7040915523"><ele>167.888</ele><time>2026-08-17T04:22:45.652Z</time><hdop>3.0</hdop><vdop>2.5</vdop><extensions><gom:speed>0.07</gom:speed></extensions></trkpt>
   <trkpt lat="59.3274059773" lon="34.7040911332"><ele>167.892</ele><time>2026-08-17T04:22:46.644Z</time><hdop>3.0</hdop><vdop>2.5</vdop><extensions><gom:speed>0.065</gom:speed></extensions></trkpt>
   <trkpt lat="59.3274059773" lon="34.7040908817"><ele>167.894</ele><time>2026-08-17T04:22:47.644Z</time><hdop>3.0</hdop><vdop>2.5</vdop><extensions><gom:speed>0.067</gom:speed></extensions></trkpt>
   <trkpt lat="59.3274059773" lon="34.7040910494"><ele>167.9</ele><time>2026-08-17T04:22:48.652Z</time><hdop>3.0</hdop><vdop>2.5</vdop><extensions><gom:speed>0.067</gom:speed></extensions></trkpt>
   <trkpt lat="59.3274058935" lon="34.7040909656"><ele>167.908</ele><time>2026-08-17T04:22:49.652Z</time><hdop>3.0</hdop><vdop>2.5</vdop><extensions><gom:speed>0.066</gom:speed></extensions></trkpt>
   <trkpt lat="59.3274058935" lon="34.7040907979"><ele>167.916</ele><time>2026-08-17T04:22:50.652Z</time><hdop>3.0</hdop><vdop>2.5</vdop><extensions><gom:speed>0.065</gom:speed></extensions></trkpt>
   <trkpt lat="59.3274057678" lon="34.7040904626"><ele>167.922</ele><time>2026-08-17T04:22:51.645Z</time><hdop>3.0</hdop><vdop>2.5</vdop><extensions><gom:speed>0.068</gom:speed></extensions></trkpt>
   <trkpt lat="59.3274058935" lon="34.7040904626"><ele>167.931</ele><time>2026-08-17T04:22:52.644Z</time><hdop>3.0</hdop><vdop>2.5</vdop><extensions><gom:speed>0.067</gom:speed></extensions></trkpt>
   <trkpt lat="59.3274058935" lon="34.7040904626"><ele>167.942</ele><time>2026-08-17T04:22:53.644Z</time><hdop>3.0</hdop><vdop>2.5</vdop><extensions><gom:speed>0.069</gom:speed></extensions></trkpt>
   <trkpt lat="59.3274058935" lon="34.7040904626"><ele>167.949</ele><time>2026-08-17T04:22:54.652Z</time><hdop>3.0</hdop><vdop>2.5</vdop><extensions><gom:speed>0.07</gom:speed></extensions></trkpt>
   <trkpt lat="59.3274057678" lon="34.704090295"><ele>167.955</ele><time>2026-08-17T04:22:55.644Z</time><hdop>3.0</hdop><vdop>2.5</vdop><extensions><gom:speed>0.068</gom:speed></extensions></trkpt>
   <trkpt lat="59.3274058935" lon="34.7040903788"><ele>167.961</ele><time>2026-08-17T04:22:56.653Z</time><hdop>3.0</hdop><vdop>2.5</vdop><extensions><gom:speed>0.068</gom:speed></extensions></trkpt>
   <trkpt lat="59.3274058935" lon="34.7040903788"><ele>167.965</ele><time>2026-08-17T04:22:57.658Z</time><hdop>3.0</hdop><vdop>2.5</vdop><extensions><gom:speed>0.067</gom:speed></extensions></trkpt>
   <trkpt lat="59.3274054744" lon="34.704090295"><ele>167.97</ele><time>2026-08-17T04:22:58.643Z</time><hdop>3.0</hdop><vdop>2.5</vdop><extensions><gom:speed>0.07</gom:speed></extensions></trkpt>
   <trkpt lat="59.3274052649" lon="34.7040903788"><ele>167.974</ele><time>2026-08-17T04:22:59.652Z</time><hdop>3.0</hdop><vdop>2.5</vdop><extensions><gom:speed>0.071</gom:speed></extensions></trkpt>
   <trkpt lat="59.3274052649" lon="34.7040904626"><ele>167.978</ele><time>2026-08-17T04:23:00.652Z</time><hdop>3.0</hdop><vdop>2.5</vdop><extensions><gom:speed>0.071</gom:speed></extensions></trkpt>
   <trkpt lat="59.3274052649" lon="34.7040904626"><ele>167.982</ele><time>2026-08-17T04:23:01.652Z</time><hdop>3.0</hdop><vdop>2.5</vdop><extensions><gom:speed>0.07</gom:speed></extensions></trkpt>
   <trkpt lat="59.3274052649" lon="34.7040904626"><ele>167.986</ele><time>2026-08-17T04:23:02.652Z</time><hdop>3.0</hdop><vdop>2.5</vdop><extensions><gom:speed>0.067</gom:speed></extensions></trkpt>
   <trkpt lat="59.3274052649" lon="34.704090295"><ele>167.988</ele><time>2026-08-17T04:23:03.652Z</time><hdop>3.0</hdop><vdop>2.5</vdop><extensions><gom:speed>0.068</gom:speed></extensions></trkpt>
   <trkpt lat="59.3274052649" lon="34.704090295"><ele>167.99</ele><time>2026-08-17T04:23:04.652Z</time><hdop>3.0</hdop><vdop>2.5</vdop><extensions><gom:speed>0.07</gom:speed></extensions></trkpt>
   <trkpt lat="59.3274053906" lon="34.7040899597"><ele>167.991</ele><time>2026-08-17T04:23:05.644Z</time><hdop>3.0</hdop><vdop>2.5</vdop><extensions><gom:speed>0.07</gom:speed></extensions></trkpt>
   <trkpt lat="59.3274054744" lon="34.7040897921"><ele>167.993</ele><time>2026-08-17T04:23:06.644Z</time><hdop>3.0</hdop><vdop>2.5</vdop><extensions><gom:speed>0.074</gom:speed></extensions></trkpt>
   <trkpt lat="59.3274054744" lon="34.7040897921"><ele>167.995</ele><time>2026-08-17T04:23:07.652Z</time><hdop>3.0</hdop><vdop>2.5</vdop><extensions><gom:speed>0.074</gom:speed></extensions></trkpt>
   <trkpt lat="59.3274053906" lon="34.7040894568"><ele>167.996</ele><time>2026-08-17T04:23:08.644Z</time><hdop>3.0</hdop><vdop>2.5</vdop><extensions><gom:speed>0.072</gom:speed></extensions></trkpt>
   <trkpt lat="59.3274054744" lon="34.7040892892"><ele>168.0</ele><time>2026-08-17T04:23:09.652Z</time><hdop>3.0</hdop><vdop>2.5</vdop><extensions><gom:speed>0.073</gom:speed></extensions></trkpt>
   <trkpt lat="59.3274053906" lon="34.7040891215"><ele>168.002</ele><time>2026-08-17T04:23:10.652Z</time><hdop>3.0</hdop><vdop>2.5</vdop><extensions><gom:speed>0.075</gom:speed></extensions></trkpt>
   <trkpt lat="59.3274054744" lon="34.7040890377"><ele>168.006</ele><time>2026-08-17T04:23:11.652Z</time><hdop>3.0</hdop><vdop>2.5</vdop><extensions><gom:speed>0.073</gom:speed></extensions></trkpt>
   <trkpt lat="59.3274055582" lon="34.7040889539"><ele>168.009</ele><time>2026-08-17T04:23:12.652Z</time><hdop>3.0</hdop><vdop>2.5</vdop><extensions><gom:speed>0.073</gom:speed></extensions></trkpt>
   <trkpt lat="59.3274055582" lon="34.7040888701"><ele>168.013</ele><time>2026-08-17T04:23:13.644Z</time><hdop>3.0</hdop><vdop>2.5</vdop><extensions><gom:speed>0.07</gom:speed></extensions></trkpt>
   <trkpt lat="59.3274055582" lon="34.7040889539"><ele>168.015</ele><time>2026-08-17T04:23:14.655Z</time><hdop>3.0</hdop><vdop>2.5</vdop><extensions><gom:speed>0.071</gom:speed></extensions></trkpt>
   <trkpt lat="59.327405684" lon="34.7040887863"><ele>168.016</ele><time>2026-08-17T04:23:15.644Z</time><hdop>3.0</hdop><vdop>2.5</vdop><extensions><gom:speed>0.127</gom:speed></extensions></trkpt>
   <trkpt lat="59.3274058935" lon="34.7040891215"><ele>168.023</ele><time>2026-08-17T04:23:16.652Z</time><hdop>3.0</hdop><vdop>2.5</vdop><extensions><gom:speed>0.13</gom:speed></extensions></trkpt>
   <trkpt lat="59.3274058935" lon="34.7040892892"><ele>168.028</ele><time>2026-08-17T04:23:17.643Z</time><hdop>3.0</hdop><vdop>2.5</vdop><extensions><gom:speed>0.089</gom:speed></extensions></trkpt>
   <trkpt lat="59.3274058935" lon="34.7040891215"><ele>168.031</ele><time>2026-08-17T04:23:18.652Z</time><hdop>3.0</hdop><vdop>2.5</vdop><extensions><gom:speed>0.089</gom:speed></extensions></trkpt>
   <trkpt lat="59.3274057678" lon="34.7040891215"><ele>168.033</ele><time>2026-08-17T04:23:19.652Z</time><hdop>3.0</hdop><vdop>2.5</vdop><extensions><gom:speed>0.079</gom:speed></extensions></trkpt>
   <trkpt lat="59.327405684" lon="34.7040888701"><ele>168.035</ele><time>2026-08-17T04:23:20.654Z</time><hdop>3.0</hdop><vdop>2.5</vdop><extensions><gom:speed>0.072</gom:speed></extensions></trkpt>
   <trkpt lat="59.3274054744" lon="34.7040883672"><ele>168.036</ele><time>2026-08-17T04:23:21.644Z</time><hdop>3.0</hdop><vdop>2.5</vdop><extensions><gom:speed>0.067</gom:speed></extensions></trkpt>
   <trkpt lat="59.3274055582" lon="34.7040881995"><ele>168.148</ele><time>2026-08-17T04:23:22.652Z</time><hdop>3.0</hdop><vdop>2.5</vdop><extensions><gom:speed>0.067</gom:speed></extensions></trkpt>
   <trkpt lat="59.3274054744" lon="34.7040879481"><ele>168.217</ele><time>2026-08-17T04:23:23.652Z</time><hdop>3.0</hdop><vdop>2.5</vdop><extensions><gom:speed>0.069</gom:speed></extensions></trkpt>
   <trkpt lat="59.3274052649" lon="34.7040877804"><ele>168.259</ele><time>2026-08-17T04:23:24.644Z</time><hdop>3.0</hdop><vdop>2.5</vdop><extensions><gom:speed>0.065</gom:speed></extensions></trkpt>
   <trkpt lat="59.327405181" lon="34.7040877804"><ele>168.284</ele><time>2026-08-17T04:23:25.561Z</time><hdop>3.0</hdop><vdop>2.5</vdop><extensions><gom:speed>0.065</gom:speed></extensions></trkpt>
   <trkpt lat="59.327405181" lon="34.7040876966"><ele>168.3</ele><time>2026-08-17T04:23:26.077Z</time><hdop>3.0</hdop><vdop>2.5</vdop><extensions><gom:speed>0.063</gom:speed></extensions></trkpt>
   <trkpt lat="59.3274050972" lon="34.7040876966"><ele>168.309</ele><time>2026-08-17T04:23:26.652Z</time><hdop>3.0</hdop><vdop>2.5</vdop><extensions><gom:speed>0.063</gom:speed></extensions></trkpt>
   <trkpt lat="59.3274048877" lon="34.7040888701"><ele>168.315</ele><time>2026-08-17T04:23:27.656Z</time><hdop>3.0</hdop><vdop>2.5</vdop><extensions><gom:speed>0.243</gom:speed></extensions></trkpt>
   <trkpt lat="59.3274045943" lon="34.7040914685"><ele>168.321</ele><time>2026-08-17T04:23:28.557Z</time><hdop>3.0</hdop><vdop>2.5</vdop><extensions><gom:speed>0.351</gom:speed></extensions></trkpt>
   <trkpt lat="59.3274046781" lon="34.7040951565"><ele>168.331</ele><time>2026-08-17T04:23:29.538Z</time><hdop>3.0</hdop><vdop>2.5</vdop><extensions><gom:speed>0.149</gom:speed></extensions></trkpt>
   <trkpt lat="59.3274040914" lon="34.7040991798"><ele>168.337</ele><time>2026-08-17T04:23:30.337Z</time><hdop>3.0</hdop><vdop>2.5</vdop><extensions><gom:speed>0.132</gom:speed></extensions></trkpt>
   <trkpt lat="59.3274031694" lon="34.7041050472"><ele>168.319</ele><time>2026-08-17T04:23:31.035Z</time><hdop>3.0</hdop><vdop>2.5</vdop><extensions><gom:speed>0.175</gom:speed></extensions></trkpt>
   <trkpt lat="59.3274025827" lon="34.7041080646"><ele>168.154</ele><time>2026-08-17T04:23:31.652Z</time><hdop>3.0</hdop><vdop>2.5</vdop><extensions><gom:speed>0.122</gom:speed></extensions></trkpt>
   <trkpt lat="59.3273998585" lon="34.7041179553"><ele>168.056</ele><time>2026-08-17T04:23:32.674Z</time><hdop>3.0</hdop><vdop>2.5</vdop><extensions><gom:speed>0.16</gom:speed></extensions></trkpt>
   <trkpt lat="59.3273976792" lon="34.7041272592"><ele>167.646</ele><time>2026-08-17T04:23:33.665Z</time><hdop>3.0</hdop><vdop>2.5</vdop><extensions><gom:speed>0.222</gom:speed></extensions></trkpt>
   <trkpt lat="59.3273960867" lon="34.7041364793"><ele>167.401</ele><time>2026-08-17T04:23:34.697Z</time><hdop>3.0</hdop><vdop>2.5</vdop><extensions><gom:speed>0.178</gom:speed></extensions></trkpt>
   <trkpt lat="59.3273966734" lon="34.7041434363"><ele>167.383</ele><time>2026-08-17T04:23:35.577Z</time><hdop>3.0</hdop><vdop>2.5</vdop><extensions><gom:speed>0.264</gom:speed></extensions></trkpt>
   <trkpt lat="59.3273986851" lon="34.7041480463"><ele>167.489</ele><time>2026-08-17T04:23:36.215Z</time><hdop>3.0</hdop><vdop>2.5</vdop><extensions><gom:speed>0.273</gom:speed></extensions></trkpt>
   <trkpt lat="59.3274012835" lon="34.7041517344"><ele>167.766</ele><time>2026-08-17T04:23:36.903Z</time><hdop>3.0</hdop><vdop>2.5</vdop><extensions><gom:speed>0.319</gom:speed></extensions></trkpt>
   <trkpt lat="59.3274016606" lon="34.7041550871"><ele>167.932</ele><time>2026-08-17T04:23:37.540Z</time><hdop>3.0</hdop><vdop>2.5</vdop><extensions><gom:speed>0.326</gom:speed></extensions></trkpt>
   <trkpt lat="59.3274035885" lon="34.7041623794"><ele>168.007</ele><time>2026-08-17T04:23:38.420Z</time><hdop>3.0</hdop><vdop>2.5</vdop><extensions><gom:speed>0.326</gom:speed></extensions></trkpt>
   <trkpt lat="59.3274075699" lon="34.7041741979"><ele>168.326</ele><time>2026-08-17T04:23:39.652Z</time><hdop>3.0</hdop><vdop>2.5</vdop><extensions><gom:speed>0.412</gom:speed></extensions></trkpt>
   <trkpt lat="59.327410294" lon="34.7041807357"><ele>168.282</ele><time>2026-08-17T04:23:40.652Z</time><hdop>3.0</hdop><vdop>2.562</vdop><extensions><gom:speed>0.385</gom:speed></extensions></trkpt>
   <trkpt lat="59.3274129762" lon="34.7041841723"><ele>167.78</ele><time>2026-08-17T04:23:41.658Z</time><hdop>3.0</hdop><vdop>2.5</vdop><extensions><gom:speed>0.295</gom:speed></extensions></trkpt>
   <trkpt lat="59.3274132696" lon="34.7041854296"><ele>167.62</ele><time>2026-08-17T04:23:42.643Z</time><hdop>3.0</hdop><vdop>2.5</vdop><extensions><gom:speed>0.366</gom:speed></extensions></trkpt>
   <trkpt lat="59.3274134791" lon="34.7041886986"><ele>167.524</ele><time>2026-08-17T04:23:43.600Z</time><hdop>3.0</hdop><vdop>2.5</vdop><extensions><gom:speed>0.293</gom:speed></extensions></trkpt>
   <trkpt lat="59.3274118866" lon="34.7041904588"><ele>167.385</ele><time>2026-08-17T04:23:44.684Z</time><hdop>3.0</hdop><vdop>2.562</vdop><extensions><gom:speed>0.21</gom:speed></extensions></trkpt>
   <trkpt lat="59.3274103778" lon="34.7041943982"><ele>167.324</ele><time>2026-08-17T04:23:45.664Z</time><hdop>3.0</hdop><vdop>2.625</vdop><extensions><gom:speed>0.237</gom:speed></extensions></trkpt>
   <trkpt lat="59.3274090786" lon="34.7042013552"><ele>167.287</ele><time>2026-08-17T04:23:46.200Z</time><hdop>3.0</hdop><vdop>2.625</vdop><extensions><gom:speed>0.217</gom:speed></extensions></trkpt>
   <trkpt lat="59.3274086595" lon="34.7042026963"><ele>167.67</ele><time>2026-08-17T04:23:46.652Z</time><hdop>3.0</hdop><vdop>2.562</vdop><extensions><gom:speed>0.149</gom:speed></extensions></trkpt>
   <trkpt lat="59.3274091624" lon="34.7042118326"><ele>167.899</ele><time>2026-08-17T04:23:47.263Z</time><hdop>3.0</hdop><vdop>2.562</vdop><extensions><gom:speed>0.272</gom:speed></extensions></trkpt>
   <trkpt lat="59.3274101683" lon="34.7042254951"><ele>168.42</ele><time>2026-08-17T04:23:48.173Z</time><hdop>3.0</hdop><vdop>2.562</vdop><extensions><gom:speed>0.245</gom:speed></extensions></trkpt>
   <trkpt lat="59.3274104616" lon="34.7042263333"><ele>168.698</ele><time>2026-08-17T04:23:48.652Z</time><hdop>3.0</hdop><vdop>2.5</vdop><extensions><gom:speed>0.151</gom:speed></extensions></trkpt>
   <trkpt lat="59.3274107969" lon="34.7042336256"><ele>168.864</ele><time>2026-08-17T04:23:49.438Z</time><hdop>3.0</hdop><vdop>2.5</vdop><extensions><gom:speed>0.166</gom:speed></extensions></trkpt>
   <trkpt lat="59.3274126828" lon="34.7042433486"><ele>169.196</ele><time>2026-08-17T04:23:50.652Z</time><hdop>3.0</hdop><vdop>2.5</vdop><extensions><gom:speed>0.217</gom:speed></extensions></trkpt>
   <trkpt lat="59.3274156584" lon="34.7042501379"><ele>169.035</ele><time>2026-08-17T04:23:51.652Z</time><hdop>3.0</hdop><vdop>2.5</vdop><extensions><gom:speed>0.127</gom:speed></extensions></trkpt>
   <trkpt lat="59.3274161613" lon="34.7042566758"><ele>169.062</ele><time>2026-08-17T04:23:52.652Z</time><hdop>3.0</hdop><vdop>2.625</vdop><extensions><gom:speed>0.112</gom:speed></extensions></trkpt>
   <trkpt lat="59.3274154908" lon="34.704264471"><ele>169.206</ele><time>2026-08-17T04:23:53.658Z</time><hdop>3.0</hdop><vdop>2.5</vdop><extensions><gom:speed>0.119</gom:speed></extensions></trkpt>
   <trkpt lat="59.3274138982" lon="34.7042840846"><ele>169.115</ele><time>2026-08-17T04:23:54.644Z</time><hdop>3.0</hdop><vdop>2.5</vdop><extensions><gom:speed>0.142</gom:speed></extensions></trkpt>
   <trkpt lat="59.3274128924" lon="34.7042890299"><ele>169.061</ele><time>2026-08-17T04:23:55.680Z</time><hdop>3.0</hdop><vdop>2.5</vdop><extensions><gom:speed>0.078</gom:speed></extensions></trkpt>
   <trkpt lat="59.3274153651" lon="34.7043107391"><ele>168.479</ele><time>2026-08-17T04:23:56.645Z</time><hdop>3.0</hdop><vdop>2.625</vdop><extensions><gom:speed>0.169</gom:speed></extensions></trkpt>
   <trkpt lat="59.3274160775" lon="34.704315852"><ele>168.081</ele><time>2026-08-17T04:23:57.652Z</time><hdop>3.0</hdop><vdop>2.812</vdop><extensions><gom:speed>0.055</gom:speed></extensions></trkpt>
   <trkpt lat="59.3274179634" lon="34.7043260779"><ele>167.62</ele><time>2026-08-17T04:23:58.652Z</time><hdop>3.0</hdop><vdop>2.812</vdop><extensions><gom:speed>0.055</gom:speed></extensions></trkpt>
   <trkpt lat="59.3274200589" lon="34.7043370582"><ele>167.145</ele><time>2026-08-17T04:23:59.653Z</time><hdop>3.0</hdop><vdop>3.0</vdop><extensions><gom:speed>0.073</gom:speed></extensions></trkpt>
   <trkpt lat="59.3274217772" lon="34.7043465298"><ele>166.862</ele><time>2026-08-17T04:24:00.476Z</time><hdop>3.0</hdop><vdop>3.0</vdop><extensions><gom:speed>0.127</gom:speed></extensions></trkpt>
   <trkpt lat="59.3274226992" lon="34.7043528162"><ele>166.691</ele><time>2026-08-17T04:24:01.255Z</time><hdop>3.0</hdop><vdop>2.812</vdop><extensions><gom:speed>0.116</gom:speed></extensions></trkpt>
   <trkpt lat="59.327423286" lon="34.704360779"><ele>166.591</ele><time>2026-08-17T04:24:02.722Z</time><hdop>3.0</hdop><vdop>2.812</vdop><extensions><gom:speed>0.057</gom:speed></extensions></trkpt>
   <trkpt lat="59.3274235793" lon="34.7043648862"><ele>166.529</ele><time>2026-08-17T04:24:03.652Z</time><hdop>3.0</hdop><vdop>2.812</vdop><extensions><gom:speed>0.042</gom:speed></extensions></trkpt>
   <trkpt lat="59.3274236631" lon="34.7043687418"><ele>166.492</ele><time>2026-08-17T04:24:04.645Z</time><hdop>3.0</hdop><vdop>2.75</vdop><extensions><gom:speed>0.109</gom:speed></extensions></trkpt>
   <trkpt lat="59.3274238727" lon="34.7043711726"><ele>166.468</ele><time>2026-08-17T04:24:05.652Z</time><hdop>3.0</hdop><vdop>2.812</vdop><extensions><gom:speed>0.013</gom:speed></extensions></trkpt>
   <trkpt lat="59.3274239984" lon="34.7043720946"><ele>166.452</ele><time>2026-08-17T04:24:06.652Z</time><hdop>3.0</hdop><vdop>2.812</vdop><extensions><gom:speed>0.013</gom:speed></extensions></trkpt>
   <trkpt lat="59.3274233698" lon="34.7043725975"><ele>166.452</ele><time>2026-08-17T04:24:07.652Z</time><hdop>3.0</hdop><vdop>2.812</vdop><extensions><gom:speed>0.015</gom:speed></extensions></trkpt>
   <trkpt lat="59.3274229926" lon="34.7043752797"><ele>166.45</ele><time>2026-08-17T04:24:08.644Z</time><hdop>3.0</hdop><vdop>2.875</vdop><extensions><gom:speed>0.087</gom:speed></extensions></trkpt>
   <trkpt lat="59.3274225735" lon="34.7043773752"><ele>166.448</ele><time>2026-08-17T04:24:09.653Z</time><hdop>3.0</hdop><vdop>2.937</vdop><extensions><gom:speed>0.017</gom:speed></extensions></trkpt>
   <trkpt lat="59.3274219868" lon="34.7043768723"><ele>166.445</ele><time>2026-08-17T04:24:10.652Z</time><hdop>3.0</hdop><vdop>3.0</vdop><extensions><gom:speed>0.014</gom:speed></extensions></trkpt>
   <trkpt lat="59.3274216934" lon="34.7043772914"><ele>166.661</ele><time>2026-08-17T04:24:11.652Z</time><hdop>3.0</hdop><vdop>2.687</vdop><extensions><gom:speed>0.016</gom:speed></extensions></trkpt>
   <trkpt lat="59.3274195979" lon="34.7043817338"><ele>167.084</ele><time>2026-08-17T04:24:12.644Z</time><hdop>3.0</hdop><vdop>2.937</vdop><extensions><gom:speed>0.111</gom:speed></extensions></trkpt>
   <trkpt lat="59.327419095" lon="34.704383494"><ele>167.316</ele><time>2026-08-17T04:24:13.653Z</time><hdop>3.0</hdop><vdop>2.562</vdop><extensions><gom:speed>0.02</gom:speed></extensions></trkpt>
   <trkpt lat="59.3274173767" lon="34.7043855895"><ele>167.454</ele><time>2026-08-17T04:24:14.660Z</time><hdop>3.0</hdop><vdop>2.562</vdop><extensions><gom:speed>0.078</gom:speed></extensions></trkpt>
   <trkpt lat="59.3274154908" lon="34.7043870982"><ele>167.543</ele><time>2026-08-17T04:24:15.318Z</time><hdop>3.0</hdop><vdop>2.5</vdop><extensions><gom:speed>0.069</gom:speed></extensions></trkpt>
   <trkpt lat="59.3274128924" lon="34.7043906186"><ele>167.537</ele><time>2026-08-17T04:24:16.441Z</time><hdop>3.0</hdop><vdop>2.5</vdop><extensions><gom:speed>0.098</gom:speed></extensions></trkpt>
   <trkpt lat="59.3274110903" lon="34.7043969888"><ele>167.5</ele><time>2026-08-17T04:24:17.614Z</time><hdop>3.0</hdop><vdop>2.5</vdop><extensions><gom:speed>0.121</gom:speed></extensions></trkpt>
   <trkpt lat="59.3274089948" lon="34.7044031915"><ele>167.187</ele><time>2026-08-17T04:24:18.495Z</time><hdop>3.0</hdop><vdop>2.5</vdop><extensions><gom:speed>0.13</gom:speed></extensions></trkpt>
   <trkpt lat="59.3274069832" lon="34.7044116572"><ele>167.373</ele><time>2026-08-17T04:24:19.274Z</time><hdop>3.0</hdop><vdop>2.5</vdop><extensions><gom:speed>0.143</gom:speed></extensions></trkpt>
   <trkpt lat="59.3274040914" lon="34.7044229727"><ele>167.353</ele><time>2026-08-17T04:24:20.235Z</time><hdop>3.0</hdop><vdop>2.5</vdop><extensions><gom:speed>0.16</gom:speed></extensions></trkpt>
   <trkpt lat="59.327400571" lon="34.7044342883"><ele>167.523</ele><time>2026-08-17T04:24:21.054Z</time><hdop>3.0</hdop><vdop>2.5</vdop><extensions><gom:speed>0.179</gom:speed></extensions></trkpt>
   <trkpt lat="59.3273993975" lon="34.7044386469"><ele>167.751</ele><time>2026-08-17T04:24:21.652Z</time><hdop>3.0</hdop><vdop>2.5</vdop><extensions><gom:speed>0.13</gom:speed></extensions></trkpt>
   <trkpt lat="59.3273943684" lon="34.7044531476"><ele>167.887</ele><time>2026-08-17T04:24:22.502Z</time><hdop>3.0</hdop><vdop>2.5</vdop><extensions><gom:speed>0.242</gom:speed></extensions></trkpt>
   <trkpt lat="59.3273911833" lon="34.7044618648"><ele>168.56</ele><time>2026-08-17T04:24:23.219Z</time><hdop>3.0</hdop><vdop>2.5</vdop><extensions><gom:speed>0.247</gom:speed></extensions></trkpt>
   <trkpt lat="59.3273883753" lon="34.7044732642"><ele>168.447</ele><time>2026-08-17T04:24:24.652Z</time><hdop>3.0</hdop><vdop>2.5</vdop><extensions><gom:speed>0.114</gom:speed></extensions></trkpt>
   <trkpt lat="59.3273854836" lon="34.7044831548"><ele>168.306</ele><time>2026-08-17T04:24:25.652Z</time><hdop>3.0</hdop><vdop>2.5</vdop><extensions><gom:speed>0.181</gom:speed></extensions></trkpt>
   <trkpt lat="59.3273834719" lon="34.704492794"><ele>168.114</ele><time>2026-08-17T04:24:26.659Z</time><hdop>3.0</hdop><vdop>2.5</vdop><extensions><gom:speed>0.184</gom:speed></extensions></trkpt>
   <trkpt lat="59.3273809993" lon="34.7045029361"><ele>167.999</ele><time>2026-08-17T04:24:27.499Z</time><hdop>3.0</hdop><vdop>2.5</vdop><extensions><gom:speed>0.27</gom:speed></extensions></trkpt>
   <trkpt lat="59.3273788619" lon="34.7045126591"><ele>167.997</ele><time>2026-08-17T04:24:28.359Z</time><hdop>3.0</hdop><vdop>2.875</vdop><extensions><gom:speed>0.27</gom:speed></extensions></trkpt>
   <trkpt lat="59.3273777722" lon="34.7045190294"><ele>168.087</ele><time>2026-08-17T04:24:29.654Z</time><hdop>3.0</hdop><vdop>2.562</vdop><extensions><gom:speed>0.143</gom:speed></extensions></trkpt>
   <trkpt lat="59.3273768921" lon="34.7045229688"><ele>168.14</ele><time>2026-08-17T04:24:30.652Z</time><hdop>3.0</hdop><vdop>2.5</vdop><extensions><gom:speed>0.071</gom:speed></extensions></trkpt>
   <trkpt lat="59.3273763892" lon="34.7045242261"><ele>168.109</ele><time>2026-08-17T04:24:31.652Z</time><hdop>3.0</hdop><vdop>2.562</vdop><extensions><gom:speed>0.025</gom:speed></extensions></trkpt>
   <trkpt lat="59.3273748805" lon="34.7045271598"><ele>168.114</ele><time>2026-08-17T04:24:32.644Z</time><hdop>3.0</hdop><vdop>2.562</vdop><extensions><gom:speed>0.061</gom:speed></extensions></trkpt>
   <trkpt lat="59.3273731622" lon="34.7045291715"><ele>168.151</ele><time>2026-08-17T04:24:33.643Z</time><hdop>3.0</hdop><vdop>2.5</vdop><extensions><gom:speed>0.077</gom:speed></extensions></trkpt>
   <trkpt lat="59.3273720725" lon="34.7045286685"><ele>168.128</ele><time>2026-08-17T04:24:34.652Z</time><hdop>3.0</hdop><vdop>2.5</vdop><extensions><gom:speed>0.027</gom:speed></extensions></trkpt>
   <trkpt lat="59.3273711924" lon="34.7045274951"><ele>168.112</ele><time>2026-08-17T04:24:35.652Z</time><hdop>3.0</hdop><vdop>2.5</vdop><extensions><gom:speed>0.026</gom:speed></extensions></trkpt>
   <trkpt lat="59.3273698932" lon="34.7045283333"><ele>168.102</ele><time>2026-08-17T04:24:36.643Z</time><hdop>3.0</hdop><vdop>2.5</vdop><extensions><gom:speed>0.069</gom:speed></extensions></trkpt>
   <trkpt lat="59.3273688874" lon="34.70452892"><ele>168.096</ele><time>2026-08-17T04:24:37.644Z</time><hdop>3.0</hdop><vdop>2.5</vdop><extensions><gom:speed>0.079</gom:speed></extensions></trkpt>
   <trkpt lat="59.3273686779" lon="34.70452892"><ele>168.092</ele><time>2026-08-17T04:24:38.643Z</time><hdop>3.0</hdop><vdop>2.5</vdop><extensions><gom:speed>0.09</gom:speed></extensions></trkpt>
   <trkpt lat="59.3273691808" lon="34.7045288362"><ele>168.089</ele><time>2026-08-17T04:24:39.652Z</time><hdop>3.0</hdop><vdop>2.5</vdop><extensions><gom:speed>0.02</gom:speed></extensions></trkpt>
   <trkpt lat="59.327368594" lon="34.7045294229"><ele>168.087</ele><time>2026-08-17T04:24:40.644Z</time><hdop>3.0</hdop><vdop>2.5</vdop><extensions><gom:speed>0.066</gom:speed></extensions></trkpt>
   <trkpt lat="59.327368594" lon="34.7045291715"><ele>168.088</ele><time>2026-08-17T04:24:41.652Z</time><hdop>3.0</hdop><vdop>2.5</vdop><extensions><gom:speed>0.014</gom:speed></extensions></trkpt>
   <trkpt lat="59.3273681749" lon="34.7045295906"><ele>168.091</ele><time>2026-08-17T04:24:42.652Z</time><hdop>3.0</hdop><vdop>2.5</vdop><extensions><gom:speed>0.012</gom:speed></extensions></trkpt>
   <trkpt lat="59.327367672" lon="34.7045292553"><ele>168.095</ele><time>2026-08-17T04:24:43.666Z</time><hdop>3.0</hdop><vdop>2.5</vdop><extensions><gom:speed>0.014</gom:speed></extensions></trkpt>
   <trkpt lat="59.3273669596" lon="34.7045302611"><ele>168.1</ele><time>2026-08-17T04:24:44.644Z</time><hdop>3.0</hdop><vdop>2.5</vdop><extensions><gom:speed>0.062</gom:speed></extensions></trkpt>
   <trkpt lat="59.3273668757" lon="34.7045303449"><ele>168.104</ele><time>2026-08-17T04:24:45.652Z</time><hdop>3.0</hdop><vdop>2.5</vdop><extensions><gom:speed>0.011</gom:speed></extensions></trkpt>
   <trkpt lat="59.3273667919" lon="34.7045302611"><ele>168.106</ele><time>2026-08-17T04:24:46.644Z</time><hdop>3.0</hdop><vdop>2.5</vdop><extensions><gom:speed>0.059</gom:speed></extensions></trkpt>
   <trkpt lat="59.3273664986" lon="34.7045302611"><ele>168.106</ele><time>2026-08-17T04:24:47.652Z</time><hdop>3.0</hdop><vdop>2.5</vdop><extensions><gom:speed>0.016</gom:speed></extensions></trkpt>
   <trkpt lat="59.3273663728" lon="34.704529842"><ele>168.107</ele><time>2026-08-17T04:24:48.442Z</time><hdop>3.0</hdop><vdop>2.5</vdop><extensions><gom:speed>0.001</gom:speed></extensions></trkpt>
   <trkpt lat="59.3273665824" lon="34.704529842"><ele>168.227</ele><time>2026-08-17T04:24:48.917Z</time><hdop>3.0</hdop><vdop>2.5</vdop><extensions><gom:speed>0.082</gom:speed></extensions></trkpt>
   <trkpt lat="59.3273665824" lon="34.7045310993"><ele>168.515</ele><time>2026-08-17T04:24:49.652Z</time><hdop>3.0</hdop><vdop>2.5</vdop><extensions><gom:speed>0.093</gom:speed></extensions></trkpt>
   <trkpt lat="59.3273677978" lon="34.7045351226"><ele>168.712</ele><time>2026-08-17T04:24:50.644Z</time><hdop>3.0</hdop><vdop>2.5</vdop><extensions><gom:speed>0.965</gom:speed></extensions></trkpt>
   <trkpt lat="59.3273668757" lon="34.7045519702"><ele>168.83</ele><time>2026-08-17T04:24:51.518Z</time><hdop>3.0</hdop><vdop>2.5</vdop><extensions><gom:speed>1.091</gom:speed></extensions></trkpt>
   <trkpt lat="59.327369977" lon="34.704553479"><ele>168.535</ele><time>2026-08-17T04:24:52.276Z</time><hdop>3.0</hdop><vdop>2.5</vdop><extensions><gom:speed>0.551</gom:speed></extensions></trkpt>
   <trkpt lat="59.3273760958" lon="34.7045591787"><ele>168.284</ele><time>2026-08-17T04:24:52.834Z</time><hdop>3.0</hdop><vdop>2.5</vdop><extensions><gom:speed>0.531</gom:speed></extensions></trkpt>
   <trkpt lat="59.3273808735" lon="34.7045724221"><ele>168.046</ele><time>2026-08-17T04:24:53.644Z</time><hdop>3.0</hdop><vdop>2.625</vdop><extensions><gom:speed>0.534</gom:speed></extensions></trkpt>
   <trkpt lat="59.3273813764" lon="34.7045820613"><ele>167.857</ele><time>2026-08-17T04:24:54.654Z</time><hdop>3.0</hdop><vdop>2.687</vdop><extensions><gom:speed>0.499</gom:speed></extensions></trkpt>
   <trkpt lat="59.3273846873" lon="34.7046005853"><ele>167.867</ele><time>2026-08-17T04:24:55.644Z</time><hdop>3.0</hdop><vdop>2.812</vdop><extensions><gom:speed>0.588</gom:speed></extensions></trkpt>
   <trkpt lat="59.3273836815" lon="34.7046134934"><ele>168.181</ele><time>2026-08-17T04:24:56.652Z</time><hdop>3.0</hdop><vdop>2.875</vdop><extensions><gom:speed>0.543</gom:speed></extensions></trkpt>
   <trkpt lat="59.327382969" lon="34.7046272397"><ele>168.368</ele><time>2026-08-17T04:24:57.355Z</time><hdop>3.0</hdop><vdop>2.875</vdop><extensions><gom:speed>0.615</gom:speed></extensions></trkpt>
   <trkpt lat="59.3273822984" lon="34.7046358731"><ele>168.381</ele><time>2026-08-17T04:24:58.377Z</time><hdop>3.0</hdop><vdop>2.812</vdop><extensions><gom:speed>0.436</gom:speed></extensions></trkpt>
   <trkpt lat="59.3273812926" lon="34.7046437521"><ele>168.696</ele><time>2026-08-17T04:24:59.378Z</time><hdop>3.0</hdop><vdop>2.812</vdop><extensions><gom:speed>0.423</gom:speed></extensions></trkpt>
   <trkpt lat="59.3273781913" lon="34.7046542295"><ele>168.915</ele><time>2026-08-17T04:25:00.157Z</time><hdop>3.0</hdop><vdop>3.062</vdop><extensions><gom:speed>0.387</gom:speed></extensions></trkpt>
   <trkpt lat="59.3273765988" lon="34.7046583366"><ele>168.811</ele><time>2026-08-17T04:25:00.644Z</time><hdop>3.0</hdop><vdop>2.875</vdop><extensions><gom:speed>0.37</gom:speed></extensions></trkpt>
   <trkpt lat="59.3273755929" lon="34.7046600968"><ele>168.605</ele><time>2026-08-17T04:25:01.652Z</time><hdop>3.0</hdop><vdop>3.062</vdop><extensions><gom:speed>0.197</gom:speed></extensions></trkpt>
   <trkpt lat="59.3273734974" lon="34.7046641201"><ele>168.482</ele><time>2026-08-17T04:25:02.444Z</time><hdop>3.0</hdop><vdop>3.062</vdop><extensions><gom:speed>0.29</gom:speed></extensions></trkpt>
   <trkpt lat="59.3273675882" lon="34.7046762739"><ele>168.792</ele><time>2026-08-17T04:25:03.253Z</time><hdop>3.0</hdop><vdop>3.125</vdop><extensions><gom:speed>0.414</gom:speed></extensions></trkpt>
   <trkpt lat="59.3273617628" lon="34.7046856616"><ele>169.142</ele><time>2026-08-17T04:25:04.042Z</time><hdop>3.0</hdop><vdop>3.062</vdop><extensions><gom:speed>0.475</gom:speed></extensions></trkpt>
   <trkpt lat="59.3273581586" lon="34.7046909422"><ele>169.282</ele><time>2026-08-17T04:25:04.670Z</time><hdop>3.0</hdop><vdop>3.312</vdop><extensions><gom:speed>0.481</gom:speed></extensions></trkpt>
   <trkpt lat="59.327347765" lon="34.7046965581"><ele>169.365</ele><time>2026-08-17T04:25:05.661Z</time><hdop>3.0</hdop><vdop>3.312</vdop><extensions><gom:speed>0.594</gom:speed></extensions></trkpt>
   <trkpt lat="59.3273414786" lon="34.7047011681"><ele>169.19</ele><time>2026-08-17T04:25:06.652Z</time><hdop>3.0</hdop><vdop>3.375</vdop><extensions><gom:speed>0.511</gom:speed></extensions></trkpt>
   <trkpt lat="59.3273362818" lon="34.7047169261"><ele>169.134</ele><time>2026-08-17T04:25:07.644Z</time><hdop>3.0</hdop><vdop>3.625</vdop><extensions><gom:speed>0.643</gom:speed></extensions></trkpt>
   <trkpt lat="59.3273332643" lon="34.7047282417"><ele>169.1</ele><time>2026-08-17T04:25:08.362Z</time><hdop>3.0</hdop><vdop>3.625</vdop><extensions><gom:speed>0.578</gom:speed></extensions></trkpt>
   <trkpt lat="59.3273293667" lon="34.7047362883"><ele>169.112</ele><time>2026-08-17T04:25:09.263Z</time><hdop>3.0</hdop><vdop>3.687</vdop><extensions><gom:speed>0.539</gom:speed></extensions></trkpt>
   <trkpt lat="59.327325092" lon="34.7047449216"><ele>169.367</ele><time>2026-08-17T04:25:09.941Z</time><hdop>3.0</hdop><vdop>3.5</vdop><extensions><gom:speed>0.624</gom:speed></extensions></trkpt>
   <trkpt lat="59.3273210686" lon="34.7047515433"><ele>169.52</ele><time>2026-08-17T04:25:10.699Z</time><hdop>3.0</hdop><vdop>3.5</vdop><extensions><gom:speed>0.621</gom:speed></extensions></trkpt>
   <trkpt lat="59.3273177997" lon="34.7047610987"><ele>169.888</ele><time>2026-08-17T04:25:11.317Z</time><hdop>3.0</hdop><vdop>3.062</vdop><extensions><gom:speed>0.663</gom:speed></extensions></trkpt>
   <trkpt lat="59.3273146984" lon="34.7047718276"><ele>169.724</ele><time>2026-08-17T04:25:12.177Z</time><hdop>3.0</hdop><vdop>2.937</vdop><extensions><gom:speed>0.577</gom:speed></extensions></trkpt>
   <trkpt lat="59.3273136926" lon="34.7047742583"><ele>169.669</ele><time>2026-08-17T04:25:12.652Z</time><hdop>3.0</hdop><vdop>2.875</vdop><extensions><gom:speed>0.48</gom:speed></extensions></trkpt>
   <trkpt lat="59.3273121838" lon="34.704779036"><ele>169.636</ele><time>2026-08-17T04:25:13.158Z</time><hdop>3.0</hdop><vdop>2.875</vdop><extensions><gom:speed>0.476</gom:speed></extensions></trkpt>
   <trkpt lat="59.3273115971" lon="34.7047813829"><ele>169.609</ele><time>2026-08-17T04:25:13.652Z</time><hdop>3.0</hdop><vdop>2.937</vdop><extensions><gom:speed>0.368</gom:speed></extensions></trkpt>
   <trkpt lat="59.32730749" lon="34.7047931176"><ele>169.496</ele><time>2026-08-17T04:25:14.644Z</time><hdop>3.0</hdop><vdop>2.937</vdop><extensions><gom:speed>0.529</gom:speed></extensions></trkpt>
   <trkpt lat="59.3273055621" lon="34.7047996555"><ele>169.429</ele><time>2026-08-17T04:25:15.516Z</time><hdop>3.0</hdop><vdop>2.937</vdop><extensions><gom:speed>0.38</gom:speed></extensions></trkpt>
   <trkpt lat="59.3273041791" lon="34.7048062772"><ele>169.528</ele><time>2026-08-17T04:25:16.163Z</time><hdop>3.0</hdop><vdop>2.625</vdop><extensions><gom:speed>0.305</gom:speed></extensions></trkpt>
   <trkpt lat="59.3273041791" lon="34.7048066963"><ele>169.547</ele><time>2026-08-17T04:25:16.653Z</time><hdop>3.0</hdop><vdop>2.75</vdop><extensions><gom:speed>0.207</gom:speed></extensions></trkpt>
   <trkpt lat="59.327302377" lon="34.7048171737"><ele>169.41</ele><time>2026-08-17T04:25:17.660Z</time><hdop>3.0</hdop><vdop>2.812</vdop><extensions><gom:speed>0.211</gom:speed></extensions></trkpt>
   <trkpt lat="59.3273005749" lon="34.7048345242"><ele>169.333</ele><time>2026-08-17T04:25:18.644Z</time><hdop>3.0</hdop><vdop>2.562</vdop><extensions><gom:speed>0.224</gom:speed></extensions></trkpt>
   <trkpt lat="59.3273001977" lon="34.7048390504"><ele>169.287</ele><time>2026-08-17T04:25:19.441Z</time><hdop>3.0</hdop><vdop>2.562</vdop><extensions><gom:speed>0.196</gom:speed></extensions></trkpt>
   <trkpt lat="59.3272994852" lon="34.7048538864"><ele>169.27</ele><time>2026-08-17T04:25:20.442Z</time><hdop>3.0</hdop><vdop>2.687</vdop><extensions><gom:speed>0.283</gom:speed></extensions></trkpt>
   <trkpt lat="59.3272998624" lon="34.7048662916"><ele>168.701</ele><time>2026-08-17T04:25:21.644Z</time><hdop>3.0</hdop><vdop>2.75</vdop><extensions><gom:speed>0.188</gom:speed></extensions></trkpt>
   <trkpt lat="59.327300072" lon="34.7048694767"><ele>168.205</ele><time>2026-08-17T04:25:22.652Z</time><hdop>3.0</hdop><vdop>2.937</vdop><extensions><gom:speed>0.081</gom:speed></extensions></trkpt>
   <trkpt lat="59.3273028799" lon="34.7048761822"><ele>167.897</ele><time>2026-08-17T04:25:23.644Z</time><hdop>3.0</hdop><vdop>3.25</vdop><extensions><gom:speed>0.136</gom:speed></extensions></trkpt>
   <trkpt lat="59.3273039696" lon="34.7048786968"><ele>167.712</ele><time>2026-08-17T04:25:24.439Z</time><hdop>3.0</hdop><vdop>3.25</vdop><extensions><gom:speed>0.13</gom:speed></extensions></trkpt>
   <trkpt lat="59.3273055621" lon="34.7048822172"><ele>167.51</ele><time>2026-08-17T04:25:24.975Z</time><hdop>3.0</hdop><vdop>3.437</vdop><extensions><gom:speed>0.152</gom:speed></extensions></trkpt>
   <trkpt lat="59.3273064841" lon="34.7048859891"><ele>167.406</ele><time>2026-08-17T04:25:25.653Z</time><hdop>3.0</hdop><vdop>3.125</vdop><extensions><gom:speed>0.13</gom:speed></extensions></trkpt>
   <trkpt lat="59.3273098788" lon="34.7048918564"><ele>167.345</ele><time>2026-08-17T04:25:26.664Z</time><hdop>3.0</hdop><vdop>3.125</vdop><extensions><gom:speed>0.075</gom:speed></extensions></trkpt>
   <trkpt lat="59.327312561" lon="34.7048961312"><ele>167.312</ele><time>2026-08-17T04:25:27.656Z</time><hdop>3.0</hdop><vdop>2.937</vdop><extensions><gom:speed>0.075</gom:speed></extensions></trkpt>
   <trkpt lat="59.3273151594" lon="34.7049005736"><ele>167.294</ele><time>2026-08-17T04:25:28.652Z</time><hdop>3.0</hdop><vdop>2.687</vdop><extensions><gom:speed>0.034</gom:speed></extensions></trkpt>
   <trkpt lat="59.3273179673" lon="34.7049052675"><ele>167.285</ele><time>2026-08-17T04:25:29.644Z</time><hdop>3.0</hdop><vdop>2.5</vdop><extensions><gom:speed>0.069</gom:speed></extensions></trkpt>
   <trkpt lat="59.3273190989" lon="34.704905938"><ele>167.281</ele><time>2026-08-17T04:25:30.652Z</time><hdop>3.0</hdop><vdop>2.5</vdop><extensions><gom:speed>0.014</gom:speed></extensions></trkpt>
   <trkpt lat="59.3273198952" lon="34.7049069438"><ele>167.28</ele><time>2026-08-17T04:25:31.653Z</time><hdop>3.0</hdop><vdop>2.5</vdop><extensions><gom:speed>0.013</gom:speed></extensions></trkpt>
   <trkpt lat="59.3273212782" lon="34.7049091231"><ele>167.349</ele><time>2026-08-17T04:25:32.644Z</time><hdop>3.0</hdop><vdop>2.5</vdop><extensions><gom:speed>0.056</gom:speed></extensions></trkpt>
   <trkpt lat="59.3273214877" lon="34.7049094584"><ele>167.391</ele><time>2026-08-17T04:25:33.200Z</time><hdop>3.0</hdop><vdop>2.5</vdop><extensions><gom:speed>0.062</gom:speed></extensions></trkpt>
   <trkpt lat="59.3273227869" lon="34.7049131464"><ele>167.624</ele><time>2026-08-17T04:25:34.652Z</time><hdop>3.0</hdop><vdop>2.5</vdop><extensions><gom:speed>0.023</gom:speed></extensions></trkpt>
   <trkpt lat="59.3273243795" lon="34.7049186785"><ele>167.696</ele><time>2026-08-17T04:25:35.643Z</time><hdop>3.0</hdop><vdop>2.5</vdop><extensions><gom:speed>0.063</gom:speed></extensions></trkpt>
   <trkpt lat="59.3273247986" lon="34.7049200196"><ele>167.739</ele><time>2026-08-17T04:25:36.195Z</time><hdop>3.0</hdop><vdop>2.5</vdop><extensions><gom:speed>0.075</gom:speed></extensions></trkpt>
   <trkpt lat="59.3273248824" lon="34.7049202711"><ele>167.758</ele><time>2026-08-17T04:25:36.652Z</time><hdop>3.0</hdop><vdop>2.5</vdop><extensions><gom:speed>0.04</gom:speed></extensions></trkpt>
   <trkpt lat="59.3273254691" lon="34.7049220313"><ele>167.769</ele><time>2026-08-17T04:25:37.136Z</time><hdop>3.0</hdop><vdop>2.5</vdop><extensions><gom:speed>0.079</gom:speed></extensions></trkpt>
   <trkpt lat="59.3273262654" lon="34.704924462"><ele>167.775</ele><time>2026-08-17T04:25:37.644Z</time><hdop>3.0</hdop><vdop>2.5</vdop><extensions><gom:speed>0.094</gom:speed></extensions></trkpt>
   <trkpt lat="59.3273262654" lon="34.7049265575"><ele>167.778</ele><time>2026-08-17T04:25:38.400Z</time><hdop>3.0</hdop><vdop>2.5</vdop><extensions><gom:speed>0.097</gom:speed></extensions></trkpt>
   <trkpt lat="59.3273276903" lon="34.7049310837"><ele>167.668</ele><time>2026-08-17T04:25:39.240Z</time><hdop>3.0</hdop><vdop>2.5</vdop><extensions><gom:speed>0.138</gom:speed></extensions></trkpt>
   <trkpt lat="59.3273291991" lon="34.7049373701"><ele>167.78</ele><time>2026-08-17T04:25:40.120Z</time><hdop>3.0</hdop><vdop>2.5</vdop><extensions><gom:speed>0.213</gom:speed></extensions></trkpt>
   <trkpt lat="59.3273298696" lon="34.7049403876"><ele>167.987</ele><time>2026-08-17T04:25:40.652Z</time><hdop>3.0</hdop><vdop>2.5</vdop><extensions><gom:speed>0.161</gom:speed></extensions></trkpt>
   <trkpt lat="59.3273330967" lon="34.7049504459"><ele>168.323</ele><time>2026-08-17T04:25:41.652Z</time><hdop>3.0</hdop><vdop>2.5</vdop><extensions><gom:speed>0.211</gom:speed></extensions></trkpt>
   <trkpt lat="59.3273363656" lon="34.7049572353"><ele>168.524</ele><time>2026-08-17T04:25:42.397Z</time><hdop>3.0</hdop><vdop>2.5</vdop><extensions><gom:speed>0.218</gom:speed></extensions></trkpt>
   <trkpt lat="59.327339886" lon="34.7049652819"><ele>168.923</ele><time>2026-08-17T04:25:43.115Z</time><hdop>3.0</hdop><vdop>2.562</vdop><extensions><gom:speed>0.234</gom:speed></extensions></trkpt>
   <trkpt lat="59.3273405985" lon="34.704968467"><ele>169.33</ele><time>2026-08-17T04:25:43.652Z</time><hdop>3.0</hdop><vdop>2.75</vdop><extensions><gom:speed>0.2</gom:speed></extensions></trkpt>
   <trkpt lat="59.3273433645" lon="34.7049834706"><ele>169.486</ele><time>2026-08-17T04:25:44.653Z</time><hdop>3.0</hdop><vdop>2.562</vdop><extensions><gom:speed>0.265</gom:speed></extensions></trkpt>
   <trkpt lat="59.327346382" lon="34.7049959596"><ele>169.579</ele><time>2026-08-17T04:25:45.482Z</time><hdop>3.0</hdop><vdop>2.562</vdop><extensions><gom:speed>0.283</gom:speed></extensions></trkpt>
   <trkpt lat="59.3273517883" lon="34.7050132264"><ele>168.678</ele><time>2026-08-17T04:25:46.261Z</time><hdop>3.0</hdop><vdop>2.562</vdop><extensions><gom:speed>0.298</gom:speed></extensions></trkpt>
   <trkpt lat="59.327354261" lon="34.7050155733"><ele>168.205</ele><time>2026-08-17T04:25:46.939Z</time><hdop>3.0</hdop><vdop>2.5</vdop><extensions><gom:speed>0.241</gom:speed></extensions></trkpt>
   <trkpt lat="59.3273592901" lon="34.7050196804"><ele>168.06</ele><time>2026-08-17T04:25:47.644Z</time><hdop>3.0</hdop><vdop>2.687</vdop><extensions><gom:speed>0.272</gom:speed></extensions></trkpt>
   <trkpt lat="59.3273621819" lon="34.7050219435"><ele>167.973</ele><time>2026-08-17T04:25:48.396Z</time><hdop>3.0</hdop><vdop>2.687</vdop><extensions><gom:speed>0.219</gom:speed></extensions></trkpt>
   <trkpt lat="59.3273696837" lon="34.705030074"><ele>168.166</ele><time>2026-08-17T04:25:49.237Z</time><hdop>3.0</hdop><vdop>2.75</vdop><extensions><gom:speed>0.377</gom:speed></extensions></trkpt>
   <trkpt lat="59.3273830947" lon="34.7050365281"><ele>168.271</ele><time>2026-08-17T04:25:49.974Z</time><hdop>3.062</hdop><vdop>3.0</vdop><extensions><gom:speed>0.336</gom:speed></extensions></trkpt>
   <trkpt lat="59.3273860703" lon="34.7050373662"><ele>168.257</ele><time>2026-08-17T04:25:50.652Z</time><hdop>3.125</hdop><vdop>2.687</vdop><extensions><gom:speed>0.195</gom:speed></extensions></trkpt>
   <trkpt lat="59.3273948713" lon="34.7050392941"><ele>168.249</ele><time>2026-08-17T04:25:51.655Z</time><hdop>3.125</hdop><vdop>2.562</vdop><extensions><gom:speed>0.247</gom:speed></extensions></trkpt>
   <trkpt lat="59.3273998585" lon="34.7050413896"><ele>168.243</ele><time>2026-08-17T04:25:52.605Z</time><hdop>3.125</hdop><vdop>2.562</vdop><extensions><gom:speed>0.154</gom:speed></extensions></trkpt>
   <trkpt lat="59.327407067" lon="34.7050452452"><ele>168.243</ele><time>2026-08-17T04:25:53.637Z</time><hdop>3.125</hdop><vdop>2.5</vdop><extensions><gom:speed>0.125</gom:speed></extensions></trkpt>
   <trkpt lat="59.3274101683" lon="34.7050503582"><ele>168.372</ele><time>2026-08-17T04:25:54.294Z</time><hdop>3.125</hdop><vdop>2.5</vdop><extensions><gom:speed>0.158</gom:speed></extensions></trkpt>
   <trkpt lat="59.3274131858" lon="34.7050620929"><ele>168.229</ele><time>2026-08-17T04:25:55.134Z</time><hdop>3.062</hdop><vdop>2.5</vdop><extensions><gom:speed>0.195</gom:speed></extensions></trkpt>
   <trkpt lat="59.3274138982" lon="34.7050769288"><ele>168.315</ele><time>2026-08-17T04:25:55.644Z</time><hdop>3.0</hdop><vdop>2.625</vdop><extensions><gom:speed>0.325</gom:speed></extensions></trkpt>
   <trkpt lat="59.3274142754" lon="34.7050891664"><ele>168.367</ele><time>2026-08-17T04:25:56.439Z</time><hdop>3.0</hdop><vdop>2.625</vdop><extensions><gom:speed>0.261</gom:speed></extensions></trkpt>
   <trkpt lat="59.3274135629" lon="34.7051081933"><ele>168.466</ele><time>2026-08-17T04:25:57.421Z</time><hdop>3.0</hdop><vdop>2.875</vdop><extensions><gom:speed>0.299</gom:speed></extensions></trkpt>
   <trkpt lat="59.3274117608" lon="34.7051223587"><ele>168.572</ele><time>2026-08-17T04:25:58.260Z</time><hdop>3.0</hdop><vdop>2.625</vdop><extensions><gom:speed>0.303</gom:speed></extensions></trkpt>
   <trkpt lat="59.327410294" lon="34.7051344287"><ele>168.996</ele><time>2026-08-17T04:25:58.979Z</time><hdop>3.0</hdop><vdop>2.625</vdop><extensions><gom:speed>0.319</gom:speed></extensions></trkpt>
   <trkpt lat="59.3274108807" lon="34.7051413857"><ele>169.25</ele><time>2026-08-17T04:25:59.657Z</time><hdop>3.0</hdop><vdop>2.625</vdop><extensions><gom:speed>0.335</gom:speed></extensions></trkpt>
   <trkpt lat="59.3274106712" lon="34.7051502705"><ele>169.575</ele><time>2026-08-17T04:26:00.652Z</time><hdop>3.0</hdop><vdop>2.937</vdop><extensions><gom:speed>0.184</gom:speed></extensions></trkpt>
   <trkpt lat="59.3274121799" lon="34.7051681239"><ele>169.768</ele><time>2026-08-17T04:26:01.538Z</time><hdop>3.0</hdop><vdop>2.937</vdop><extensions><gom:speed>0.354</gom:speed></extensions></trkpt>
   <trkpt lat="59.3274117608" lon="34.7051747456"><ele>169.873</ele><time>2026-08-17T04:26:02.641Z</time><hdop>3.0</hdop><vdop>2.562</vdop><extensions><gom:speed>0.237</gom:speed></extensions></trkpt>
   <trkpt lat="59.3274113836" lon="34.7051836305"><ele>169.983</ele><time>2026-08-17T04:26:03.501Z</time><hdop>3.0</hdop><vdop>2.562</vdop><extensions><gom:speed>0.285</gom:speed></extensions></trkpt>
   <trkpt lat="59.3274101683" lon="34.70519218"><ele>170.051</ele><time>2026-08-17T04:26:04.533Z</time><hdop>3.0</hdop><vdop>2.625</vdop><extensions><gom:speed>0.19</gom:speed></extensions></trkpt>
   <trkpt lat="59.3274097911" lon="34.7052096982"><ele>169.982</ele><time>2026-08-17T04:26:05.636Z</time><hdop>3.0</hdop><vdop>2.75</vdop><extensions><gom:speed>0.315</gom:speed></extensions></trkpt>
   <trkpt lat="59.3274083662" lon="34.7052181639"><ele>169.846</ele><time>2026-08-17T04:26:06.496Z</time><hdop>3.0</hdop><vdop>2.812</vdop><extensions><gom:speed>0.222</gom:speed></extensions></trkpt>
   <trkpt lat="59.3274080728" lon="34.7052237798"><ele>169.849</ele><time>2026-08-17T04:26:06.961Z</time><hdop>3.0</hdop><vdop>3.125</vdop><extensions><gom:speed>0.331</gom:speed></extensions></trkpt>
   <trkpt lat="59.3274088691" lon="34.7052274678"><ele>169.638</ele><time>2026-08-17T04:26:07.644Z</time><hdop>3.0</hdop><vdop>3.312</vdop><extensions><gom:speed>0.282</gom:speed></extensions></trkpt>
   <trkpt lat="59.3274089948" lon="34.7052280545"><ele>169.512</ele><time>2026-08-17T04:26:08.256Z</time><hdop>3.0</hdop><vdop>3.312</vdop><extensions><gom:speed>0.251</gom:speed></extensions></trkpt>
   <trkpt lat="59.3274128924" lon="34.7052329999"><ele>169.058</ele><time>2026-08-17T04:26:08.974Z</time><hdop>3.0</hdop><vdop>3.437</vdop><extensions><gom:speed>0.376</gom:speed></extensions></trkpt>
   <trkpt lat="59.3274129762" lon="34.7052327484"><ele>168.291</ele><time>2026-08-17T04:26:09.652Z</time><hdop>3.0</hdop><vdop>3.562</vdop><extensions><gom:speed>0.278</gom:speed></extensions></trkpt>
   <trkpt lat="59.3274146945" lon="34.7052307368"><ele>167.833</ele><time>2026-08-17T04:26:10.635Z</time><hdop>3.0</hdop><vdop>3.562</vdop><extensions><gom:speed>0.248</gom:speed></extensions></trkpt>
   <trkpt lat="59.32741679" lon="34.7052217681"><ele>167.236</ele><time>2026-08-17T04:26:11.301Z</time><hdop>3.0</hdop><vdop>3.875</vdop><extensions><gom:speed>0.137</gom:speed></extensions></trkpt>
   <trkpt lat="59.3274175863" lon="34.70520886"><ele>166.703</ele><time>2026-08-17T04:26:12.652Z</time><hdop>3.0</hdop><vdop>3.687</vdop><extensions><gom:speed>0.072</gom:speed></extensions></trkpt>
   <trkpt lat="59.3274166642" lon="34.7051924315"><ele>166.433</ele><time>2026-08-17T04:26:13.644Z</time><hdop>3.0</hdop><vdop>3.625</vdop><extensions><gom:speed>0.081</gom:speed></extensions></trkpt>
   <trkpt lat="59.32741679" lon="34.705185223"><ele>166.277</ele><time>2026-08-17T04:26:14.652Z</time><hdop>3.0</hdop><vdop>4.0</vdop><extensions><gom:speed>0.051</gom:speed></extensions></trkpt>
   <trkpt lat="59.3274159937" lon="34.7051808644"><ele>166.747</ele><time>2026-08-17T04:26:15.652Z</time><hdop>3.0</hdop><vdop>3.75</vdop><extensions><gom:speed>0.078</gom:speed></extensions></trkpt>
   <trkpt lat="59.3274137725" lon="34.7051690459"><ele>166.682</ele><time>2026-08-17T04:26:16.644Z</time><hdop>3.0</hdop><vdop>3.687</vdop><extensions><gom:speed>0.136</gom:speed></extensions></trkpt>
   <trkpt lat="59.3274128924" lon="34.7051680401"><ele>166.342</ele><time>2026-08-17T04:26:17.652Z</time><hdop>3.0</hdop><vdop>3.75</vdop><extensions><gom:speed>0.162</gom:speed></extensions></trkpt>
   <trkpt lat="59.3274115932" lon="34.7051653579"><ele>166.138</ele><time>2026-08-17T04:26:18.626Z</time><hdop>3.0</hdop><vdop>3.75</vdop><extensions><gom:speed>0.179</gom:speed></extensions></trkpt>
   <trkpt lat="59.3274091624" lon="34.7051623404"><ele>165.839</ele><time>2026-08-17T04:26:19.162Z</time><hdop>3.0</hdop><vdop>3.625</vdop><extensions><gom:speed>0.2</gom:speed></extensions></trkpt>
   <trkpt lat="59.3274083662" lon="34.7051622566"><ele>165.875</ele><time>2026-08-17T04:26:19.652Z</time><hdop>3.0</hdop><vdop>3.375</vdop><extensions><gom:speed>0.157</gom:speed></extensions></trkpt>
   <trkpt lat="59.3274013673" lon="34.7051665314"><ele>165.895</ele><time>2026-08-17T04:26:20.644Z</time><hdop>3.0</hdop><vdop>3.437</vdop><extensions><gom:speed>0.174</gom:speed></extensions></trkpt>
   <trkpt lat="59.3273965896" lon="34.7051695489"><ele>165.903</ele><time>2026-08-17T04:26:21.644Z</time><hdop>3.0</hdop><vdop>3.5</vdop><extensions><gom:speed>0.125</gom:speed></extensions></trkpt>
   <trkpt lat="59.3273950808" lon="34.7051690459"><ele>165.913</ele><time>2026-08-17T04:26:22.652Z</time><hdop>3.0</hdop><vdop>3.5</vdop><extensions><gom:speed>0.031</gom:speed></extensions></trkpt>
   <trkpt lat="59.3273897583" lon="34.7051724825"><ele>165.929</ele><time>2026-08-17T04:26:23.645Z</time><hdop>3.0</hdop><vdop>3.437</vdop><extensions><gom:speed>0.079</gom:speed></extensions></trkpt>
   <trkpt lat="59.3273881658" lon="34.7051722311"><ele>165.946</ele><time>2026-08-17T04:26:24.652Z</time><hdop>3.0</hdop><vdop>3.312</vdop><extensions><gom:speed>0.016</gom:speed></extensions></trkpt>
   <trkpt lat="59.3273858608" lon="34.7051731531"><ele>165.96</ele><time>2026-08-17T04:26:25.652Z</time><hdop>3.0</hdop><vdop>3.062</vdop><extensions><gom:speed>0.012</gom:speed></extensions></trkpt>
   <trkpt lat="59.3273816698" lon="34.7051743265"><ele>165.98</ele><time>2026-08-17T04:26:26.644Z</time><hdop>3.0</hdop><vdop>3.125</vdop><extensions><gom:speed>0.063</gom:speed></extensions></trkpt>
   <trkpt lat="59.3273805802" lon="34.7051746618"><ele>165.992</ele><time>2026-08-17T04:26:27.135Z</time><hdop>3.0</hdop><vdop>3.125</vdop><extensions><gom:speed>0.064</gom:speed></extensions></trkpt>
   <trkpt lat="59.3273800772" lon="34.7051753324"><ele>166.104</ele><time>2026-08-17T04:26:27.652Z</time><hdop>3.0</hdop><vdop>3.187</vdop><extensions><gom:speed>0.029</gom:speed></extensions></trkpt>
   <trkpt lat="59.327378359" lon="34.7051751647"><ele>166.196</ele><time>2026-08-17T04:26:28.652Z</time><hdop>3.0</hdop><vdop>3.187</vdop><extensions><gom:speed>0.023</gom:speed></extensions></trkpt>
   <trkpt lat="59.327376473" lon="34.7051747456"><ele>166.268</ele><time>2026-08-17T04:26:29.654Z</time><hdop>3.0</hdop><vdop>3.25</vdop><extensions><gom:speed>0.018</gom:speed></extensions></trkpt>
   <trkpt lat="59.3273729945" lon="34.7051746618"><ele>166.311</ele><time>2026-08-17T04:26:30.644Z</time><hdop>3.0</hdop><vdop>3.312</vdop><extensions><gom:speed>0.06</gom:speed></extensions></trkpt>
   <trkpt lat="59.3273721983" lon="34.7051751647"><ele>166.34</ele><time>2026-08-17T04:26:31.652Z</time><hdop>3.0</hdop><vdop>3.125</vdop><extensions><gom:speed>0.021</gom:speed></extensions></trkpt>
   <trkpt lat="59.3273708991" lon="34.7051742427"><ele>166.417</ele><time>2026-08-17T04:26:32.652Z</time><hdop>3.0</hdop><vdop>2.937</vdop><extensions><gom:speed>0.039</gom:speed></extensions></trkpt>
   <trkpt lat="59.3273687617" lon="34.7051763382"><ele>166.462</ele><time>2026-08-17T04:26:33.620Z</time><hdop>3.0</hdop><vdop>2.937</vdop><extensions><gom:speed>0.094</gom:speed></extensions></trkpt>
   <trkpt lat="59.3273679654" lon="34.7051780984"><ele>166.415</ele><time>2026-08-17T04:26:34.257Z</time><hdop>3.0</hdop><vdop>2.687</vdop><extensions><gom:speed>0.087</gom:speed></extensions></trkpt>
   <trkpt lat="59.3273672948" lon="34.7051807806"><ele>166.219</ele><time>2026-08-17T04:26:35.077Z</time><hdop>3.0</hdop><vdop>2.812</vdop><extensions><gom:speed>0.093</gom:speed></extensions></trkpt>
   <trkpt lat="59.3273670853" lon="34.7051823732"><ele>166.099</ele><time>2026-08-17T04:26:35.663Z</time><hdop>3.0</hdop><vdop>2.812</vdop><extensions><gom:speed>0.092</gom:speed></extensions></trkpt>
   <trkpt lat="59.3273668757" lon="34.70518757"><ele>165.813</ele><time>2026-08-17T04:26:36.644Z</time><hdop>3.0</hdop><vdop>2.875</vdop><extensions><gom:speed>0.114</gom:speed></extensions></trkpt>
   <trkpt lat="59.3273666662" lon="34.7051892463"><ele>165.643</ele><time>2026-08-17T04:26:37.181Z</time><hdop>3.0</hdop><vdop>2.875</vdop><extensions><gom:speed>0.118</gom:speed></extensions></trkpt>
   <trkpt lat="59.3273665824" lon="34.7051900845"><ele>165.599</ele><time>2026-08-17T04:26:37.652Z</time><hdop>3.0</hdop><vdop>2.875</vdop><extensions><gom:speed>0.087</gom:speed></extensions></trkpt>
   <trkpt lat="59.3273654927" lon="34.7051962871"><ele>165.365</ele><time>2026-08-17T04:26:38.643Z</time><hdop>3.0</hdop><vdop>3.0</vdop><extensions><gom:speed>0.157</gom:speed></extensions></trkpt>
   <trkpt lat="59.3273647803" lon="34.705199137"><ele>165.034</ele><time>2026-08-17T04:26:39.652Z</time><hdop>3.0</hdop><vdop>3.062</vdop><extensions><gom:speed>0.083</gom:speed></extensions></trkpt>
   <trkpt lat="59.327363984" lon="34.7052022383"><ele>164.837</ele><time>2026-08-17T04:26:40.216Z</time><hdop>3.0</hdop><vdop>3.062</vdop><extensions><gom:speed>0.129</gom:speed></extensions></trkpt>
   <trkpt lat="59.3273626848" lon="34.7052081894"><ele>164.797</ele><time>2026-08-17T04:26:41.238Z</time><hdop>3.0</hdop><vdop>3.187</vdop><extensions><gom:speed>0.158</gom:speed></extensions></trkpt>
   <trkpt lat="59.3273608827" lon="34.7052129671"><ele>164.705</ele><time>2026-08-17T04:26:42.139Z</time><hdop>3.0</hdop><vdop>3.0</vdop><extensions><gom:speed>0.151</gom:speed></extensions></trkpt>
   <trkpt lat="59.3273591644" lon="34.7052184992"><ele>164.518</ele><time>2026-08-17T04:26:42.644Z</time><hdop>3.0</hdop><vdop>3.0</vdop><extensions><gom:speed>0.215</gom:speed></extensions></trkpt>
   <trkpt lat="59.3273578652" lon="34.7052225225"><ele>164.325</ele><time>2026-08-17T04:26:43.653Z</time><hdop>3.0</hdop><vdop>2.812</vdop><extensions><gom:speed>0.18</gom:speed></extensions></trkpt>
   <trkpt lat="59.3273562726" lon="34.7052331675"><ele>164.209</ele><time>2026-08-17T04:26:44.678Z</time><hdop>3.0</hdop><vdop>2.812</vdop><extensions><gom:speed>0.273</gom:speed></extensions></trkpt>
   <trkpt lat="59.3273557697" lon="34.7052451536"><ele>164.019</ele><time>2026-08-17T04:26:45.397Z</time><hdop>3.0</hdop><vdop>2.687</vdop><extensions><gom:speed>0.377</gom:speed></extensions></trkpt>
   <trkpt lat="59.3273557697" lon="34.7052558825"><ele>163.814</ele><time>2026-08-17T04:26:46.256Z</time><hdop>3.0</hdop><vdop>2.562</vdop><extensions><gom:speed>0.335</gom:speed></extensions></trkpt>
   <trkpt lat="59.3273560631" lon="34.7052658569"><ele>163.335</ele><time>2026-08-17T04:26:47.035Z</time><hdop>3.0</hdop><vdop>2.5</vdop><extensions><gom:speed>0.327</gom:speed></extensions></trkpt>
   <trkpt lat="59.3273563984" lon="34.7052699641"><ele>162.946</ele><time>2026-08-17T04:26:47.652Z</time><hdop>3.0</hdop><vdop>2.5</vdop><extensions><gom:speed>0.278</gom:speed></extensions></trkpt>
   <trkpt lat="59.3273577814" lon="34.7052839618"><ele>162.756</ele><time>2026-08-17T04:26:48.652Z</time><hdop>3.0</hdop><vdop>2.5</vdop><extensions><gom:speed>0.272</gom:speed></extensions></trkpt>
   <trkpt lat="59.3273612599" lon="34.7052985464"><ele>162.636</ele><time>2026-08-17T04:26:49.644Z</time><hdop>3.0</hdop><vdop>2.5</vdop><extensions><gom:speed>0.256</gom:speed></extensions></trkpt>
   <trkpt lat="59.3273623914" lon="34.7053034917"><ele>162.564</ele><time>2026-08-17T04:26:50.515Z</time><hdop>3.0</hdop><vdop>2.5</vdop><extensions><gom:speed>0.2</gom:speed></extensions></trkpt>
   <trkpt lat="59.327363062" lon="34.7053192497"><ele>162.489</ele><time>2026-08-17T04:26:51.643Z</time><hdop>3.0</hdop><vdop>2.5</vdop><extensions><gom:speed>0.285</gom:speed></extensions></trkpt>
   <trkpt lat="59.3273625591" lon="34.7053225186"><ele>162.444</ele><time>2026-08-17T04:26:52.652Z</time><hdop>3.0</hdop><vdop>2.5</vdop><extensions><gom:speed>0.068</gom:speed></extensions></trkpt>
   <trkpt lat="59.327361679" lon="34.7053308167"><ele>162.398</ele><time>2026-08-17T04:26:53.652Z</time><hdop>3.0</hdop><vdop>2.5</vdop><extensions><gom:speed>0.036</gom:speed></extensions></trkpt>
   <trkpt lat="59.3273605893" lon="34.7053431381"><ele>162.371</ele><time>2026-08-17T04:26:54.643Z</time><hdop>3.0</hdop><vdop>2.5</vdop><extensions><gom:speed>0.098</gom:speed></extensions></trkpt>
   <trkpt lat="59.3273600864" lon="34.7053462394"><ele>162.357</ele><time>2026-08-17T04:26:55.655Z</time><hdop>3.0</hdop><vdop>2.5</vdop><extensions><gom:speed>0.02</gom:speed></extensions></trkpt>
   <trkpt lat="59.3273593739" lon="34.705349173"><ele>162.348</ele><time>2026-08-17T04:26:56.652Z</time><hdop>3.0</hdop><vdop>2.5</vdop><extensions><gom:speed>0.019</gom:speed></extensions></trkpt>
   <trkpt lat="59.3273590806" lon="34.7053537831"><ele>162.342</ele><time>2026-08-17T04:26:57.644Z</time><hdop>3.0</hdop><vdop>2.5</vdop><extensions><gom:speed>0.067</gom:speed></extensions></trkpt>
   <trkpt lat="59.3273589968" lon="34.7053550404"><ele>162.34</ele><time>2026-08-17T04:26:58.653Z</time><hdop>3.0</hdop><vdop>2.5</vdop><extensions><gom:speed>0.013</gom:speed></extensions></trkpt>
   <trkpt lat="59.3273590806" lon="34.7053567168"><ele>162.337</ele><time>2026-08-17T04:26:59.652Z</time><hdop>3.0</hdop><vdop>2.5</vdop><extensions><gom:speed>0.01</gom:speed></extensions></trkpt>
   <trkpt lat="59.3273591644" lon="34.7053589799"><ele>162.336</ele><time>2026-08-17T04:27:00.644Z</time><hdop>3.0</hdop><vdop>2.5</vdop><extensions><gom:speed>0.062</gom:speed></extensions></trkpt>
   <trkpt lat="59.3273594997" lon="34.7053596504"><ele>162.335</ele><time>2026-08-17T04:27:01.644Z</time><hdop>3.0</hdop><vdop>2.5</vdop><extensions><gom:speed>0.074</gom:speed></extensions></trkpt>
   <trkpt lat="59.327359793" lon="34.705360321"><ele>162.332</ele><time>2026-08-17T04:27:02.652Z</time><hdop>3.0</hdop><vdop>2.5</vdop><extensions><gom:speed>0.017</gom:speed></extensions></trkpt>
   <trkpt lat="59.3273595835" lon="34.705361243"><ele>162.328</ele><time>2026-08-17T04:27:03.643Z</time><hdop>3.0</hdop><vdop>2.5</vdop><extensions><gom:speed>0.054</gom:speed></extensions></trkpt>
   <trkpt lat="59.3273593739" lon="34.7053631708"><ele>162.324</ele><time>2026-08-17T04:27:04.644Z</time><hdop>3.0</hdop><vdop>2.5</vdop><extensions><gom:speed>0.076</gom:speed></extensions></trkpt>
   <trkpt lat="59.3273590806" lon="34.7053644281"><ele>162.328</ele><time>2026-08-17T04:27:05.643Z</time><hdop>3.0</hdop><vdop>2.5</vdop><extensions><gom:speed>0.093</gom:speed></extensions></trkpt>
   <trkpt lat="59.3273586615" lon="34.7053659369"><ele>162.329</ele><time>2026-08-17T04:27:06.644Z</time><hdop>3.0</hdop><vdop>2.5</vdop><extensions><gom:speed>0.065</gom:speed></extensions></trkpt>
   <trkpt lat="59.3273582843" lon="34.7053659369"><ele>162.333</ele><time>2026-08-17T04:27:07.655Z</time><hdop>3.0</hdop><vdop>2.5</vdop><extensions><gom:speed>0.013</gom:speed></extensions></trkpt>
   <trkpt lat="59.3273582843" lon="34.705365853"><ele>162.337</ele><time>2026-08-17T04:27:08.643Z</time><hdop>3.0</hdop><vdop>2.5</vdop><extensions><gom:speed>0.06</gom:speed></extensions></trkpt>
   <trkpt lat="59.3273580747" lon="34.7053662721"><ele>162.34</ele><time>2026-08-17T04:27:09.653Z</time><hdop>3.0</hdop><vdop>2.5</vdop><extensions><gom:speed>0.014</gom:speed></extensions></trkpt>
   <trkpt lat="59.3273579909" lon="34.7053661883"><ele>162.344</ele><time>2026-08-17T04:27:10.653Z</time><hdop>3.0</hdop><vdop>2.5</vdop><extensions><gom:speed>0.001</gom:speed></extensions></trkpt>
   <trkpt lat="59.3273579909" lon="34.7053660207"><ele>162.348</ele><time>2026-08-17T04:27:11.660Z</time><hdop>3.0</hdop><vdop>2.5</vdop><extensions><gom:speed>0.016</gom:speed></extensions></trkpt>
   <trkpt lat="59.3273578652" lon="34.7053660207"><ele>162.353</ele><time>2026-08-17T04:27:12.644Z</time><hdop>3.0</hdop><vdop>2.5</vdop><extensions><gom:speed>0.03</gom:speed></extensions></trkpt>
   <trkpt lat="59.3273578652" lon="34.7053664398"><ele>162.358</ele><time>2026-08-17T04:27:13.652Z</time><hdop>3.0</hdop><vdop>2.5</vdop><extensions><gom:speed>0.03</gom:speed></extensions></trkpt>
   <trkpt lat="59.3273577814" lon="34.7053669427"><ele>162.364</ele><time>2026-08-17T04:27:14.652Z</time><hdop>3.0</hdop><vdop>2.5</vdop><extensions><gom:speed>0.036</gom:speed></extensions></trkpt>
   <trkpt lat="59.3273577814" lon="34.7053671941"><ele>162.366</ele><time>2026-08-17T04:27:15.644Z</time><hdop>3.0</hdop><vdop>2.5</vdop><extensions><gom:speed>0.048</gom:speed></extensions></trkpt>
   <trkpt lat="59.3273575718" lon="34.7053677809"><ele>162.368</ele><time>2026-08-17T04:27:16.652Z</time><hdop>3.0</hdop><vdop>2.5</vdop><extensions><gom:speed>0.048</gom:speed></extensions></trkpt>
   <trkpt lat="59.3273575718" lon="34.7053682838"><ele>162.372</ele><time>2026-08-17T04:27:17.653Z</time><hdop>3.0</hdop><vdop>2.5</vdop><extensions><gom:speed>0.055</gom:speed></extensions></trkpt>
   <trkpt lat="59.327357488" lon="34.7053689543"><ele>162.377</ele><time>2026-08-17T04:27:18.652Z</time><hdop>3.0</hdop><vdop>2.5</vdop><extensions><gom:speed>0.062</gom:speed></extensions></trkpt>
   <trkpt lat="59.3273573623" lon="34.7053695411"><ele>162.382</ele><time>2026-08-17T04:27:19.652Z</time><hdop>3.0</hdop><vdop>2.5</vdop><extensions><gom:speed>0.066</gom:speed></extensions></trkpt>
   <trkpt lat="59.3273572785" lon="34.7053699602"><ele>162.386</ele><time>2026-08-17T04:27:20.644Z</time><hdop>3.0</hdop><vdop>2.5</vdop><extensions><gom:speed>0.067</gom:speed></extensions></trkpt>
   <trkpt lat="59.3273570689" lon="34.7053705469"><ele>162.389</ele><time>2026-08-17T04:27:21.652Z</time><hdop>3.0</hdop><vdop>2.5</vdop><extensions><gom:speed>0.069</gom:speed></extensions></trkpt>
   <trkpt lat="59.3273569851" lon="34.7053706307"><ele>162.391</ele><time>2026-08-17T04:27:22.652Z</time><hdop>3.0</hdop><vdop>2.5</vdop><extensions><gom:speed>0.071</gom:speed></extensions></trkpt>
   <trkpt lat="59.3273570689" lon="34.7053706307"><ele>162.393</ele><time>2026-08-17T04:27:23.644Z</time><hdop>3.0</hdop><vdop>2.5</vdop><extensions><gom:speed>0.07</gom:speed></extensions></trkpt>
   <trkpt lat="59.3273570689" lon="34.7053707984"><ele>162.396</ele><time>2026-08-17T04:27:24.644Z</time><hdop>3.0</hdop><vdop>2.5</vdop><extensions><gom:speed>0.07</gom:speed></extensions></trkpt>
   <trkpt lat="59.3273569851" lon="34.7053713851"><ele>162.399</ele><time>2026-08-17T04:27:25.652Z</time><hdop>3.0</hdop><vdop>2.5</vdop><extensions><gom:speed>0.07</gom:speed></extensions></trkpt>
   <trkpt lat="59.3273569851" lon="34.7053715527"><ele>162.402</ele><time>2026-08-17T04:27:26.652Z</time><hdop>3.0</hdop><vdop>2.5</vdop><extensions><gom:speed>0.071</gom:speed></extensions></trkpt>
   <trkpt lat="59.3273569851" lon="34.7053717204"><ele>162.402</ele><time>2026-08-17T04:27:27.652Z</time><hdop>3.0</hdop><vdop>2.5</vdop><extensions><gom:speed>0.072</gom:speed></extensions></trkpt>
   <trkpt lat="59.3273570689" lon="34.705371888"><ele>162.405</ele><time>2026-08-17T04:27:28.652Z</time><hdop>3.0</hdop><vdop>2.5</vdop><extensions><gom:speed>0.07</gom:speed></extensions></trkpt>
   <trkpt lat="59.3273572785" lon="34.7053719718"><ele>162.403</ele><time>2026-08-17T04:27:29.652Z</time><hdop>3.0</hdop><vdop>2.5</vdop><extensions><gom:speed>0.071</gom:speed></extensions></trkpt>
   <trkpt lat="59.3273572785" lon="34.7053720556"><ele>162.4</ele><time>2026-08-17T04:27:30.652Z</time><hdop>3.0</hdop><vdop>2.5</vdop><extensions><gom:speed>0.072</gom:speed></extensions></trkpt>
   <trkpt lat="59.3273572785" lon="34.7053719718"><ele>162.399</ele><time>2026-08-17T04:27:31.644Z</time><hdop>3.0</hdop><vdop>2.5</vdop><extensions><gom:speed>0.073</gom:speed></extensions></trkpt>
   <trkpt lat="59.3273573623" lon="34.7053719718"><ele>162.397</ele><time>2026-08-17T04:27:32.644Z</time><hdop>3.0</hdop><vdop>2.5</vdop><extensions><gom:speed>0.075</gom:speed></extensions></trkpt>
   <trkpt lat="59.327357488" lon="34.7053723909"><ele>162.396</ele><time>2026-08-17T04:27:33.652Z</time><hdop>3.0</hdop><vdop>2.5</vdop><extensions><gom:speed>0.076</gom:speed></extensions></trkpt>
   <trkpt lat="59.327357488" lon="34.7053721395"><ele>162.395</ele><time>2026-08-17T04:27:34.444Z</time><hdop>3.0</hdop><vdop>2.5</vdop><extensions><gom:speed>0.075</gom:speed></extensions></trkpt>
   <trkpt lat="59.3273575718" lon="34.7053727262"><ele>162.395</ele><time>2026-08-17T04:27:35.652Z</time><hdop>3.0</hdop><vdop>2.5</vdop><extensions><gom:speed>0.077</gom:speed></extensions></trkpt>
   <trkpt lat="59.3273576976" lon="34.7053727262"><ele>162.395</ele><time>2026-08-17T04:27:36.650Z</time><hdop>3.0</hdop><vdop>2.5</vdop><extensions><gom:speed>0.077</gom:speed></extensions></trkpt>
   <trkpt lat="59.3273577814" lon="34.7053723909"><ele>162.396</ele><time>2026-08-17T04:27:37.643Z</time><hdop>3.0</hdop><vdop>2.5</vdop><extensions><gom:speed>0.071</gom:speed></extensions></trkpt>
   <trkpt lat="59.3273577814" lon="34.7053721395"><ele>162.394</ele><time>2026-08-17T04:27:38.645Z</time><hdop>3.0</hdop><vdop>2.5</vdop><extensions><gom:speed>0.072</gom:speed></extensions></trkpt>
   <trkpt lat="59.3273577814" lon="34.7053722233"><ele>162.392</ele><time>2026-08-17T04:27:39.643Z</time><hdop>3.0</hdop><vdop>2.5</vdop><extensions><gom:speed>0.073</gom:speed></extensions></trkpt>
   <trkpt lat="59.3273578652" lon="34.7053721395"><ele>162.391</ele><time>2026-08-17T04:27:40.393Z</time><hdop>3.0</hdop><vdop>2.5</vdop><extensions><gom:speed>0.073</gom:speed></extensions></trkpt>
   <trkpt lat="59.3273580747" lon="34.7053719718"><ele>162.387</ele><time>2026-08-17T04:27:41.644Z</time><hdop>3.0</hdop><vdop>2.5</vdop><extensions><gom:speed>0.068</gom:speed></extensions></trkpt>
   <trkpt lat="59.3273581586" lon="34.7053715527"><ele>162.384</ele><time>2026-08-17T04:27:42.644Z</time><hdop>3.0</hdop><vdop>2.5</vdop><extensions><gom:speed>0.066</gom:speed></extensions></trkpt>
   <trkpt lat="59.3273582843" lon="34.7053712175"><ele>162.379</ele><time>2026-08-17T04:27:43.644Z</time><hdop>3.0</hdop><vdop>2.5</vdop><extensions><gom:speed>0.068</gom:speed></extensions></trkpt>
   <trkpt lat="59.3273583681" lon="34.7053710498"><ele>162.375</ele><time>2026-08-17T04:27:44.644Z</time><hdop>3.0</hdop><vdop>2.5</vdop><extensions><gom:speed>0.069</gom:speed></extensions></trkpt>
   <trkpt lat="59.3273584938" lon="34.7053712175"><ele>162.372</ele><time>2026-08-17T04:27:45.654Z</time><hdop>3.0</hdop><vdop>2.5</vdop><extensions><gom:speed>0.07</gom:speed></extensions></trkpt>
   <trkpt lat="59.3273586615" lon="34.7053706307"><ele>162.37</ele><time>2026-08-17T04:27:46.645Z</time><hdop>3.0</hdop><vdop>2.5</vdop><extensions><gom:speed>0.071</gom:speed></extensions></trkpt>
   <trkpt lat="59.3273586615" lon="34.7053705469"><ele>162.368</ele><time>2026-08-17T04:27:47.644Z</time><hdop>3.0</hdop><vdop>2.5</vdop><extensions><gom:speed>0.072</gom:speed></extensions></trkpt>
   <trkpt lat="59.3273587872" lon="34.7053704631"><ele>162.367</ele><time>2026-08-17T04:27:48.644Z</time><hdop>3.0</hdop><vdop>2.5</vdop><extensions><gom:speed>0.072</gom:speed></extensions></trkpt>
   <trkpt lat="59.3273587872" lon="34.7053702954"><ele>162.367</ele><time>2026-08-17T04:27:49.644Z</time><hdop>3.0</hdop><vdop>2.5</vdop><extensions><gom:speed>0.074</gom:speed></extensions></trkpt>
   <trkpt lat="59.327358871" lon="34.7053701278"><ele>162.368</ele><time>2026-08-17T04:27:50.643Z</time><hdop>3.0</hdop><vdop>2.5</vdop><extensions><gom:speed>0.072</gom:speed></extensions></trkpt>
   <trkpt lat="59.3273587872" lon="34.7053699602"><ele>162.368</ele><time>2026-08-17T04:27:51.522Z</time><hdop>3.0</hdop><vdop>2.5</vdop><extensions><gom:speed>0.073</gom:speed></extensions></trkpt>
   <trkpt lat="59.3273589968" lon="34.7053699602"><ele>162.368</ele><time>2026-08-17T04:27:52.736Z</time><hdop>3.0</hdop><vdop>2.5</vdop><extensions><gom:speed>0.073</gom:speed></extensions></trkpt>
   <trkpt lat="59.3273589968" lon="34.7053698763"><ele>162.368</ele><time>2026-08-17T04:27:53.646Z</time><hdop>3.0</hdop><vdop>2.5</vdop><extensions><gom:speed>0.074</gom:speed></extensions></trkpt>
   <trkpt lat="59.3273589968" lon="34.7053694573"><ele>162.369</ele><time>2026-08-17T04:27:54.658Z</time><hdop>3.0</hdop><vdop>2.5</vdop><extensions><gom:speed>0.075</gom:speed></extensions></trkpt>
   <trkpt lat="59.3273589968" lon="34.7053692896"><ele>162.368</ele><time>2026-08-17T04:27:55.644Z</time><hdop>3.0</hdop><vdop>2.5</vdop><extensions><gom:speed>0.073</gom:speed></extensions></trkpt>
   <trkpt lat="59.3273590806" lon="34.705369122"><ele>162.367</ele><time>2026-08-17T04:27:56.643Z</time><hdop>3.0</hdop><vdop>2.5</vdop><extensions><gom:speed>0.073</gom:speed></extensions></trkpt>
   <trkpt lat="59.3273590806" lon="34.705369122"><ele>162.366</ele><time>2026-08-17T04:27:57.652Z</time><hdop>3.0</hdop><vdop>2.5</vdop><extensions><gom:speed>0.074</gom:speed></extensions></trkpt>
   <trkpt lat="59.3273592901" lon="34.7053688705"><ele>162.363</ele><time>2026-08-17T04:27:58.644Z</time><hdop>3.0</hdop><vdop>2.5</vdop><extensions><gom:speed>0.073</gom:speed></extensions></trkpt>
   <trkpt lat="59.3273593739" lon="34.7053687867"><ele>162.36</ele><time>2026-08-17T04:27:59.652Z</time><hdop>3.0</hdop><vdop>2.5</vdop><extensions><gom:speed>0.073</gom:speed></extensions></trkpt>
   <trkpt lat="59.3273596673" lon="34.7053687867"><ele>162.358</ele><time>2026-08-17T04:28:00.644Z</time><hdop>3.0</hdop><vdop>2.5</vdop><extensions><gom:speed>0.075</gom:speed></extensions></trkpt>
   <trkpt lat="59.3273598769" lon="34.7053686191"><ele>162.355</ele><time>2026-08-17T04:28:01.643Z</time><hdop>3.0</hdop><vdop>2.5</vdop><extensions><gom:speed>0.074</gom:speed></extensions></trkpt>
   <trkpt lat="59.3273600864" lon="34.7053685352"><ele>162.351</ele><time>2026-08-17T04:28:02.651Z</time><hdop>3.0</hdop><vdop>2.5</vdop><extensions><gom:speed>0.074</gom:speed></extensions></trkpt>
   <trkpt lat="59.3273601702" lon="34.7053685352"><ele>162.35</ele><time>2026-08-17T04:28:03.644Z</time><hdop>3.0</hdop><vdop>2.5</vdop><extensions><gom:speed>0.075</gom:speed></extensions></trkpt>
   <trkpt lat="59.3273604636" lon="34.7053685352"><ele>162.349</ele><time>2026-08-17T04:28:04.652Z</time><hdop>3.0</hdop><vdop>2.5</vdop><extensions><gom:speed>0.075</gom:speed></extensions></trkpt>
   <trkpt lat="59.3273604636" lon="34.7053683676"><ele>162.348</ele><time>2026-08-17T04:28:05.643Z</time><hdop>3.0</hdop><vdop>2.5</vdop><extensions><gom:speed>0.077</gom:speed></extensions></trkpt>
   <trkpt lat="59.3273606731" lon="34.7053681161"><ele>162.346</ele><time>2026-08-17T04:28:06.652Z</time><hdop>3.0</hdop><vdop>2.5</vdop><extensions><gom:speed>0.077</gom:speed></extensions></trkpt>
   <trkpt lat="59.3273604636" lon="34.7053678647"><ele>162.207</ele><time>2026-08-17T04:28:07.644Z</time><hdop>3.0</hdop><vdop>2.5</vdop><extensions><gom:speed>0.231</gom:speed></extensions></trkpt>
   <trkpt lat="59.3273609665" lon="34.7053674456"><ele>162.117</ele><time>2026-08-17T04:28:08.644Z</time><hdop>3.0</hdop><vdop>2.5</vdop><extensions><gom:speed>0.093</gom:speed></extensions></trkpt>
   <trkpt lat="59.3273607989" lon="34.705367278"><ele>162.063</ele><time>2026-08-17T04:28:09.530Z</time><hdop>3.0</hdop><vdop>2.5</vdop><extensions><gom:speed>0.093</gom:speed></extensions></trkpt>
   <trkpt lat="59.3273604636" lon="34.7053656854"><ele>162.038</ele><time>2026-08-17T04:28:10.644Z</time><hdop>3.0</hdop><vdop>2.5</vdop><extensions><gom:speed>0.069</gom:speed></extensions></trkpt>
   <trkpt lat="59.3273605893" lon="34.7053652663"><ele>162.036</ele><time>2026-08-17T04:28:11.655Z</time><hdop>3.0</hdop><vdop>2.5</vdop><extensions><gom:speed>0.069</gom:speed></extensions></trkpt>
   <trkpt lat="59.3273605893" lon="34.7053639252"><ele>162.05</ele><time>2026-08-17T04:28:12.644Z</time><hdop>3.0</hdop><vdop>2.5</vdop><extensions><gom:speed>0.062</gom:speed></extensions></trkpt>
   <trkpt lat="59.3273605893" lon="34.7053628355"><ele>162.07</ele><time>2026-08-17T04:28:13.643Z</time><hdop>3.0</hdop><vdop>2.5</vdop><extensions><gom:speed>0.062</gom:speed></extensions></trkpt>
   <trkpt lat="59.3273605893" lon="34.7053620812"><ele>162.09</ele><time>2026-08-17T04:28:14.644Z</time><hdop>3.0</hdop><vdop>2.5</vdop><extensions><gom:speed>0.066</gom:speed></extensions></trkpt>
   <trkpt lat="59.3273604636" lon="34.7053619974"><ele>162.101</ele><time>2026-08-17T04:28:15.095Z</time><hdop>3.0</hdop><vdop>2.5</vdop><extensions><gom:speed>0.067</gom:speed></extensions></trkpt>
   <trkpt lat="59.3273606731" lon="34.7053613268"><ele>162.108</ele><time>2026-08-17T04:28:15.644Z</time><hdop>3.0</hdop><vdop>2.5</vdop><extensions><gom:speed>0.066</gom:speed></extensions></trkpt>
   <trkpt lat="59.3273607989" lon="34.7053610753"><ele>162.119</ele><time>2026-08-17T04:28:16.652Z</time><hdop>3.0</hdop><vdop>2.5</vdop><extensions><gom:speed>0.067</gom:speed></extensions></trkpt>
   <trkpt lat="59.3273606731" lon="34.7053604886"><ele>162.125</ele><time>2026-08-17T04:28:17.644Z</time><hdop>3.0</hdop><vdop>2.5</vdop><extensions><gom:speed>0.067</gom:speed></extensions></trkpt>
   <trkpt lat="59.3273606731" lon="34.7053598181"><ele>162.128</ele><time>2026-08-17T04:28:18.644Z</time><hdop>3.0</hdop><vdop>2.5</vdop><extensions><gom:speed>0.068</gom:speed></extensions></trkpt>
   <trkpt lat="59.3273605893" lon="34.705360321"><ele>162.13</ele><time>2026-08-17T04:28:19.647Z</time><hdop>3.0</hdop><vdop>2.5</vdop><extensions><gom:speed>0.068</gom:speed></extensions></trkpt>
   <trkpt lat="59.3273603798" lon="34.7053599857"><ele>162.13</ele><time>2026-08-17T04:28:20.644Z</time><hdop>3.0</hdop><vdop>2.5</vdop><extensions><gom:speed>0.067</gom:speed></extensions></trkpt>
   <trkpt lat="59.3273604636" lon="34.7053588961"><ele>162.13</ele><time>2026-08-17T04:28:21.671Z</time><hdop>3.0</hdop><vdop>2.5</vdop><extensions><gom:speed>0.068</gom:speed></extensions></trkpt>
   <trkpt lat="59.3273601702" lon="34.7053588961"><ele>162.376</ele><time>2026-08-17T04:28:22.644Z</time><hdop>3.0</hdop><vdop>2.5</vdop><extensions><gom:speed>0.219</gom:speed></extensions></trkpt>
   <trkpt lat="59.3273602959" lon="34.7053577226"><ele>162.523</ele><time>2026-08-17T04:28:23.564Z</time><hdop>3.0</hdop><vdop>2.5</vdop><extensions><gom:speed>0.215</gom:speed></extensions></trkpt>
   <trkpt lat="59.3273599607" lon="34.7053618297"><ele>162.609</ele><time>2026-08-17T04:28:24.494Z</time><hdop>3.0</hdop><vdop>2.5</vdop><extensions><gom:speed>0.618</gom:speed></extensions></trkpt>
   <trkpt lat="59.3273585777" lon="34.7053639252"><ele>162.779</ele><time>2026-08-17T04:28:25.333Z</time><hdop>3.0</hdop><vdop>2.5</vdop><extensions><gom:speed>0.376</gom:speed></extensions></trkpt>
   <trkpt lat="59.3273567756" lon="34.7053654339"><ele>162.918</ele><time>2026-08-17T04:28:26.164Z</time><hdop>3.0</hdop><vdop>2.5</vdop><extensions><gom:speed>0.087</gom:speed></extensions></trkpt>
   <trkpt lat="59.3273513692" lon="34.7053704631"><ele>162.755</ele><time>2026-08-17T04:28:26.644Z</time><hdop>3.062</hdop><vdop>2.5</vdop><extensions><gom:speed>0.201</gom:speed></extensions></trkpt>
   <trkpt lat="59.3273482679" lon="34.7053740673"><ele>162.657</ele><time>2026-08-17T04:28:27.195Z</time><hdop>3.062</hdop><vdop>2.5</vdop><extensions><gom:speed>0.317</gom:speed></extensions></trkpt>
   <trkpt lat="59.3273356951" lon="34.7053823654"><ele>162.656</ele><time>2026-08-17T04:28:28.652Z</time><hdop>3.187</hdop><vdop>2.5</vdop><extensions><gom:speed>0.442</gom:speed></extensions></trkpt>
   <trkpt lat="59.3273297858" lon="34.705391334"><ele>162.651</ele><time>2026-08-17T04:28:29.644Z</time><hdop>3.187</hdop><vdop>2.5</vdop><extensions><gom:speed>0.325</gom:speed></extensions></trkpt>
   <trkpt lat="59.3273280675" lon="34.7053951897"><ele>162.648</ele><time>2026-08-17T04:28:30.382Z</time><hdop>3.187</hdop><vdop>2.5</vdop><extensions><gom:speed>0.306</gom:speed></extensions></trkpt>
   <trkpt lat="59.3273268941" lon="34.7053998836"><ele>162.531</ele><time>2026-08-17T04:28:31.242Z</time><hdop>3.187</hdop><vdop>2.5</vdop><extensions><gom:speed>0.281</gom:speed></extensions></trkpt>
   <trkpt lat="59.3273266845" lon="34.7054029849"><ele>162.47</ele><time>2026-08-17T04:28:31.818Z</time><hdop>3.125</hdop><vdop>2.5</vdop><extensions><gom:speed>0.24</gom:speed></extensions></trkpt>
   <trkpt lat="59.3273251758" lon="34.7054064214"><ele>162.436</ele><time>2026-08-17T04:28:32.644Z</time><hdop>3.062</hdop><vdop>2.5</vdop><extensions><gom:speed>0.193</gom:speed></extensions></trkpt>
   <trkpt lat="59.3273249662" lon="34.7054076787"><ele>162.422</ele><time>2026-08-17T04:28:33.643Z</time><hdop>3.062</hdop><vdop>2.5</vdop><extensions><gom:speed>0.147</gom:speed></extensions></trkpt>
   <trkpt lat="59.3273247986" lon="34.7054067567"><ele>162.422</ele><time>2026-08-17T04:28:34.652Z</time><hdop>3.0</hdop><vdop>2.5</vdop><extensions><gom:speed>0.059</gom:speed></extensions></trkpt>
   <trkpt lat="59.3273247986" lon="34.7054084331"><ele>162.332</ele><time>2026-08-17T04:28:35.652Z</time><hdop>3.0</hdop><vdop>2.5</vdop><extensions><gom:speed>0.061</gom:speed></extensions></trkpt>
   <trkpt lat="59.327324589" lon="34.7054122888"><ele>162.254</ele><time>2026-08-17T04:28:36.652Z</time><hdop>3.0</hdop><vdop>2.5</vdop><extensions><gom:speed>0.059</gom:speed></extensions></trkpt>
   <trkpt lat="59.3273238766" lon="34.705414971"><ele>162.207</ele><time>2026-08-17T04:28:37.454Z</time><hdop>3.0</hdop><vdop>2.5</vdop><extensions><gom:speed>0.113</gom:speed></extensions></trkpt>
   <trkpt lat="59.3273229965" lon="34.7054174856"><ele>162.152</ele><time>2026-08-17T04:28:38.142Z</time><hdop>3.0</hdop><vdop>2.5</vdop><extensions><gom:speed>0.112</gom:speed></extensions></trkpt>
   <trkpt lat="59.327322284" lon="34.7054200839"><ele>162.082</ele><time>2026-08-17T04:28:38.644Z</time><hdop>3.0</hdop><vdop>2.5</vdop><extensions><gom:speed>0.143</gom:speed></extensions></trkpt>
   <trkpt lat="59.3273214877" lon="34.7054222632"><ele>161.929</ele><time>2026-08-17T04:28:39.652Z</time><hdop>3.0</hdop><vdop>2.5</vdop><extensions><gom:speed>0.148</gom:speed></extensions></trkpt>
   <trkpt lat="59.3273210686" lon="34.705428382"><ele>161.916</ele><time>2026-08-17T04:28:40.643Z</time><hdop>3.0</hdop><vdop>2.5</vdop><extensions><gom:speed>0.305</gom:speed></extensions></trkpt>
   <trkpt lat="59.3273207753" lon="34.7054333274"><ele>161.909</ele><time>2026-08-17T04:28:41.399Z</time><hdop>3.0</hdop><vdop>2.5</vdop><extensions><gom:speed>0.287</gom:speed></extensions></trkpt>
   <trkpt lat="59.327321362" lon="34.7054373507"><ele>161.861</ele><time>2026-08-17T04:28:42.652Z</time><hdop>3.0</hdop><vdop>2.687</vdop><extensions><gom:speed>0.133</gom:speed></extensions></trkpt>
   <trkpt lat="59.3273219907" lon="34.7054418769"><ele>161.859</ele><time>2026-08-17T04:28:43.643Z</time><hdop>3.0</hdop><vdop>2.625</vdop><extensions><gom:speed>0.162</gom:speed></extensions></trkpt>
   <trkpt lat="59.3273217811" lon="34.7054440562"><ele>161.858</ele><time>2026-08-17T04:28:44.475Z</time><hdop>3.0</hdop><vdop>2.625</vdop><extensions><gom:speed>0.162</gom:speed></extensions></trkpt>
   <trkpt lat="59.3273211944" lon="34.705449253"><ele>161.784</ele><time>2026-08-17T04:28:45.618Z</time><hdop>3.0</hdop><vdop>2.5</vdop><extensions><gom:speed>0.185</gom:speed></extensions></trkpt>
   <trkpt lat="59.3273207753" lon="34.7054563776"><ele>161.832</ele><time>2026-08-17T04:28:46.539Z</time><hdop>3.0</hdop><vdop>2.5</vdop><extensions><gom:speed>0.18</gom:speed></extensions></trkpt>
   <trkpt lat="59.327319979" lon="34.7054644242"><ele>161.85</ele><time>2026-08-17T04:28:47.460Z</time><hdop>3.0</hdop><vdop>2.5</vdop><extensions><gom:speed>0.183</gom:speed></extensions></trkpt>
   <trkpt lat="59.3273197694" lon="34.7054690343"><ele>162.019</ele><time>2026-08-17T04:28:48.584Z</time><hdop>3.0</hdop><vdop>2.5</vdop><extensions><gom:speed>0.172</gom:speed></extensions></trkpt>
   <trkpt lat="59.3273187636" lon="34.7054823615"><ele>162.058</ele><time>2026-08-17T04:28:49.644Z</time><hdop>3.0</hdop><vdop>2.625</vdop><extensions><gom:speed>0.147</gom:speed></extensions></trkpt>
   <trkpt lat="59.3273181769" lon="34.7054889832"><ele>162.102</ele><time>2026-08-17T04:28:50.644Z</time><hdop>3.0</hdop><vdop>2.75</vdop><extensions><gom:speed>0.194</gom:speed></extensions></trkpt>
   <trkpt lat="59.3273172968" lon="34.7054948505"><ele>161.965</ele><time>2026-08-17T04:28:51.644Z</time><hdop>3.0</hdop><vdop>2.937</vdop><extensions><gom:speed>0.18</gom:speed></extensions></trkpt>
   <trkpt lat="59.3273175902" lon="34.7054983709"><ele>161.893</ele><time>2026-08-17T04:28:52.643Z</time><hdop>3.0</hdop><vdop>2.812</vdop><extensions><gom:speed>0.139</gom:speed></extensions></trkpt>
   <trkpt lat="59.3273175902" lon="34.7054996282"><ele>161.849</ele><time>2026-08-17T04:28:53.459Z</time><hdop>3.0</hdop><vdop>2.812</vdop><extensions><gom:speed>0.129</gom:speed></extensions></trkpt>
   <trkpt lat="59.3273173806" lon="34.7055005502"><ele>162.292</ele><time>2026-08-17T04:28:54.653Z</time><hdop>3.0</hdop><vdop>2.562</vdop><extensions><gom:speed>0.07</gom:speed></extensions></trkpt>
   <trkpt lat="59.3273166681" lon="34.7055013884"><ele>162.566</ele><time>2026-08-17T04:28:55.645Z</time><hdop>3.0</hdop><vdop>2.5</vdop><extensions><gom:speed>0.108</gom:speed></extensions></trkpt>
   <trkpt lat="59.3273165843" lon="34.7055019751"><ele>162.73</ele><time>2026-08-17T04:28:56.363Z</time><hdop>3.0</hdop><vdop>2.5</vdop><extensions><gom:speed>0.087</gom:speed></extensions></trkpt>
   <trkpt lat="59.3273163748" lon="34.705502981"><ele>162.717</ele><time>2026-08-17T04:28:57.314Z</time><hdop>3.0</hdop><vdop>2.5</vdop><extensions><gom:speed>0.116</gom:speed></extensions></trkpt>
   <trkpt lat="59.3273147822" lon="34.7055047412"><ele>162.771</ele><time>2026-08-17T04:28:58.652Z</time><hdop>3.0</hdop><vdop>2.562</vdop><extensions><gom:speed>0.123</gom:speed></extensions></trkpt>
   <trkpt lat="59.3273085796" lon="34.7055087645"><ele>162.953</ele><time>2026-08-17T04:28:59.644Z</time><hdop>3.0</hdop><vdop>2.687</vdop><extensions><gom:speed>0.23</gom:speed></extensions></trkpt>
   <trkpt lat="59.3273068613" lon="34.7055087645"><ele>163.062</ele><time>2026-08-17T04:29:00.319Z</time><hdop>3.0</hdop><vdop>2.687</vdop><extensions><gom:speed>0.172</gom:speed></extensions></trkpt>
   <trkpt lat="59.3272988985" lon="34.7055069205"><ele>163.143</ele><time>2026-08-17T04:29:01.652Z</time><hdop>3.0</hdop><vdop>2.812</vdop><extensions><gom:speed>0.346</gom:speed></extensions></trkpt>
   <trkpt lat="59.327289888" lon="34.7055017237"><ele>163.207</ele><time>2026-08-17T04:29:02.646Z</time><hdop>3.0</hdop><vdop>3.0</vdop><extensions><gom:speed>0.44</gom:speed></extensions></trkpt>
   <trkpt lat="59.3272791591" lon="34.7054985386"><ele>163.311</ele><time>2026-08-17T04:29:03.657Z</time><hdop>3.0</hdop><vdop>3.312</vdop><extensions><gom:speed>0.688</gom:speed></extensions></trkpt>
   <trkpt lat="59.3272693942" lon="34.7054959402"><ele>163.359</ele><time>2026-08-17T04:29:04.645Z</time><hdop>3.0</hdop><vdop>3.625</vdop><extensions><gom:speed>0.69</gom:speed></extensions></trkpt>
   <trkpt lat="59.327263485" lon="34.7054993768"><ele>163.302</ele><time>2026-08-17T04:29:05.652Z</time><hdop>3.0</hdop><vdop>3.937</vdop><extensions><gom:speed>0.607</gom:speed></extensions></trkpt>
   <trkpt lat="59.3272550612" lon="34.7054949343"><ele>163.352</ele><time>2026-08-17T04:29:06.645Z</time><hdop>3.0</hdop><vdop>3.625</vdop><extensions><gom:speed>0.491</gom:speed></extensions></trkpt>
   <trkpt lat="59.3272538877" lon="34.7054953534"><ele>163.382</ele><time>2026-08-17T04:29:07.239Z</time><hdop>3.062</hdop><vdop>3.625</vdop><extensions><gom:speed>0.456</gom:speed></extensions></trkpt>
   <trkpt lat="59.3272523789" lon="34.7054947667"><ele>163.683</ele><time>2026-08-17T04:29:08.200Z</time><hdop>3.062</hdop><vdop>3.25</vdop><extensions><gom:speed>0.305</gom:speed></extensions></trkpt>
   <trkpt lat="59.327248188" lon="34.7054930903"><ele>164.475</ele><time>2026-08-17T04:29:09.644Z</time><hdop>3.062</hdop><vdop>3.0</vdop><extensions><gom:speed>0.274</gom:speed></extensions></trkpt>
   <trkpt lat="59.3272466793" lon="34.7054933418"><ele>164.948</ele><time>2026-08-17T04:29:10.143Z</time><hdop>3.062</hdop><vdop>3.0</vdop><extensions><gom:speed>0.299</gom:speed></extensions></trkpt>
   <trkpt lat="59.3272447933" lon="34.7054945991"><ele>164.935</ele><time>2026-08-17T04:29:10.652Z</time><hdop>3.0</hdop><vdop>3.062</vdop><extensions><gom:speed>0.356</gom:speed></extensions></trkpt>
   <trkpt lat="59.3272425721" lon="34.7054940962"><ele>164.927</ele><time>2026-08-17T04:29:11.135Z</time><hdop>3.0</hdop><vdop>3.062</vdop><extensions><gom:speed>0.3</gom:speed></extensions></trkpt>
   <trkpt lat="59.3272398899" lon="34.7054930903"><ele>164.606</ele><time>2026-08-17T04:29:11.650Z</time><hdop>3.0</hdop><vdop>2.937</vdop><extensions><gom:speed>0.305</gom:speed></extensions></trkpt>
   <trkpt lat="59.3272359923" lon="34.7054886479"><ele>164.789</ele><time>2026-08-17T04:29:12.662Z</time><hdop>3.0</hdop><vdop>2.812</vdop><extensions><gom:speed>0.325</gom:speed></extensions></trkpt>
   <trkpt lat="59.3272275685" lon="34.7054816909"><ele>164.729</ele><time>2026-08-17T04:29:13.652Z</time><hdop>3.0</hdop><vdop>3.0</vdop><extensions><gom:speed>0.481</gom:speed></extensions></trkpt>
   <trkpt lat="59.3272136965" lon="34.7054715488"><ele>164.93</ele><time>2026-08-17T04:29:14.644Z</time><hdop>3.0</hdop><vdop>2.875</vdop><extensions><gom:speed>0.616</gom:speed></extensions></trkpt>
   <trkpt lat="59.3272050631" lon="34.7054732252"><ele>165.05</ele><time>2026-08-17T04:29:15.575Z</time><hdop>3.0</hdop><vdop>2.875</vdop><extensions><gom:speed>0.656</gom:speed></extensions></trkpt>
   <trkpt lat="59.3271965974" lon="34.7054813557"><ele>165.686</ele><time>2026-08-17T04:29:16.375Z</time><hdop>3.0</hdop><vdop>2.687</vdop><extensions><gom:speed>0.753</gom:speed></extensions></trkpt>
   <trkpt lat="59.3271909815" lon="34.7054892346"><ele>166.144</ele><time>2026-08-17T04:29:17.113Z</time><hdop>3.0</hdop><vdop>2.937</vdop><extensions><gom:speed>0.746</gom:speed></extensions></trkpt>
   <trkpt lat="59.3271858685" lon="34.7055014722"><ele>166.023</ele><time>2026-08-17T04:29:17.653Z</time><hdop>3.0</hdop><vdop>2.937</vdop><extensions><gom:speed>0.698</gom:speed></extensions></trkpt>
   <trkpt lat="59.3271847789" lon="34.7055159729"><ele>165.728</ele><time>2026-08-17T04:29:18.644Z</time><hdop>3.062</hdop><vdop>2.75</vdop><extensions><gom:speed>0.526</gom:speed></extensions></trkpt>
   <trkpt lat="59.3271858685" lon="34.7055246901"><ele>165.538</ele><time>2026-08-17T04:29:19.644Z</time><hdop>3.062</hdop><vdop>2.687</vdop><extensions><gom:speed>0.382</gom:speed></extensions></trkpt>
   <trkpt lat="59.3271874611" lon="34.7055274561"><ele>165.421</ele><time>2026-08-17T04:29:20.644Z</time><hdop>3.0</hdop><vdop>2.625</vdop><extensions><gom:speed>0.241</gom:speed></extensions></trkpt>
   <trkpt lat="59.3271883831" lon="34.705528881"><ele>165.356</ele><time>2026-08-17T04:29:21.644Z</time><hdop>3.0</hdop><vdop>2.625</vdop><extensions><gom:speed>0.145</gom:speed></extensions></trkpt>
   <trkpt lat="59.327188886" lon="34.705527959"><ele>165.317</ele><time>2026-08-17T04:29:22.617Z</time><hdop>3.0</hdop><vdop>2.625</vdop><extensions><gom:speed>0.132</gom:speed></extensions></trkpt>
   <trkpt lat="59.3271913587" lon="34.7055322338"><ele>165.491</ele><time>2026-08-17T04:29:23.416Z</time><hdop>3.0</hdop><vdop>2.5</vdop><extensions><gom:speed>0.155</gom:speed></extensions></trkpt>
   <trkpt lat="59.3271942924" lon="34.7055382688"><ele>165.53</ele><time>2026-08-17T04:29:24.317Z</time><hdop>3.0</hdop><vdop>2.5</vdop><extensions><gom:speed>0.119</gom:speed></extensions></trkpt>
   <trkpt lat="59.3271997825" lon="34.70554883"><ele>165.766</ele><time>2026-08-17T04:29:25.055Z</time><hdop>3.0</hdop><vdop>2.562</vdop><extensions><gom:speed>0.215</gom:speed></extensions></trkpt>
   <trkpt lat="59.3272066976" lon="34.7055577986"><ele>165.958</ele><time>2026-08-17T04:29:25.644Z</time><hdop>3.0</hdop><vdop>2.562</vdop><extensions><gom:speed>0.379</gom:speed></extensions></trkpt>
   <trkpt lat="59.3272144927" lon="34.7055648394"><ele>166.073</ele><time>2026-08-17T04:29:26.613Z</time><hdop>3.0</hdop><vdop>2.562</vdop><extensions><gom:speed>0.43</gom:speed></extensions></trkpt>
   <trkpt lat="59.3272266884" lon="34.7055712935"><ele>166.245</ele><time>2026-08-17T04:29:27.423Z</time><hdop>3.0</hdop><vdop>2.5</vdop><extensions><gom:speed>0.541</gom:speed></extensions></trkpt>
   <trkpt lat="59.3272358666" lon="34.7055773284"><ele>166.197</ele><time>2026-08-17T04:29:28.040Z</time><hdop>3.0</hdop><vdop>2.687</vdop><extensions><gom:speed>0.64</gom:speed></extensions></trkpt>
   <trkpt lat="59.3272438713" lon="34.705585878"><ele>166.202</ele><time>2026-08-17T04:29:28.647Z</time><hdop>3.0</hdop><vdop>2.812</vdop><extensions><gom:speed>0.645</gom:speed></extensions></trkpt>
   <trkpt lat="59.3272520856" lon="34.7055977803"><ele>166.205</ele><time>2026-08-17T04:29:29.537Z</time><hdop>3.0</hdop><vdop>2.812</vdop><extensions><gom:speed>0.674</gom:speed></extensions></trkpt>
   <trkpt lat="59.3272621858" lon="34.7056095988"><ele>166.495</ele><time>2026-08-17T04:29:30.518Z</time><hdop>3.0</hdop><vdop>3.0</vdop><extensions><gom:speed>0.728</gom:speed></extensions></trkpt>
   <trkpt lat="59.3272702743" lon="34.7056200762"><ele>165.984</ele><time>2026-08-17T04:29:31.257Z</time><hdop>3.0</hdop><vdop>2.937</vdop><extensions><gom:speed>0.627</gom:speed></extensions></trkpt>
   <trkpt lat="59.3272793687" lon="34.705629883"><ele>166.215</ele><time>2026-08-17T04:29:31.915Z</time><hdop>3.0</hdop><vdop>2.875</vdop><extensions><gom:speed>0.694</gom:speed></extensions></trkpt>
   <trkpt lat="59.3272843978" lon="34.7056332357"><ele>166.354</ele><time>2026-08-17T04:29:32.523Z</time><hdop>3.0</hdop><vdop>2.875</vdop><extensions><gom:speed>0.682</gom:speed></extensions></trkpt>
   <trkpt lat="59.3272926959" lon="34.7056449704"><ele>165.466</ele><time>2026-08-17T04:29:33.645Z</time><hdop>3.0</hdop><vdop>2.75</vdop><extensions><gom:speed>0.473</gom:speed></extensions></trkpt>
   <trkpt lat="59.3272956715" lon="34.7056550287"><ele>164.935</ele><time>2026-08-17T04:29:34.656Z</time><hdop>3.0</hdop><vdop>2.75</vdop><extensions><gom:speed>0.463</gom:speed></extensions></trkpt>
   <trkpt lat="59.327298689" lon="34.7056619857"><ele>164.987</ele><time>2026-08-17T04:29:35.334Z</time><hdop>3.0</hdop><vdop>2.5</vdop><extensions><gom:speed>0.576</gom:speed></extensions></trkpt>
   <trkpt lat="59.3273042629" lon="34.7056703676"><ele>165.491</ele><time>2026-08-17T04:29:36.194Z</time><hdop>3.0</hdop><vdop>2.625</vdop><extensions><gom:speed>0.605</gom:speed></extensions></trkpt>
   <trkpt lat="59.3273100883" lon="34.7056771569"><ele>165.741</ele><time>2026-08-17T04:29:36.943Z</time><hdop>3.0</hdop><vdop>2.75</vdop><extensions><gom:speed>0.669</gom:speed></extensions></trkpt>
   <trkpt lat="59.3273149918" lon="34.7056785818"><ele>165.89</ele><time>2026-08-17T04:29:37.641Z</time><hdop>3.0</hdop><vdop>2.75</vdop><extensions><gom:speed>0.666</gom:speed></extensions></trkpt>
   <trkpt lat="59.3273208591" lon="34.7056815993"><ele>165.958</ele><time>2026-08-17T04:29:38.440Z</time><hdop>3.0</hdop><vdop>3.062</vdop><extensions><gom:speed>0.683</gom:speed></extensions></trkpt>
   <trkpt lat="59.3273272713" lon="34.705686377"><ele>166.588</ele><time>2026-08-17T04:29:39.219Z</time><hdop>3.0</hdop><vdop>2.875</vdop><extensions><gom:speed>0.683</gom:speed></extensions></trkpt>
   <trkpt lat="59.3273340606" lon="34.7056917414"><ele>166.554</ele><time>2026-08-17T04:29:39.897Z</time><hdop>3.0</hdop><vdop>2.687</vdop><extensions><gom:speed>0.75</gom:speed></extensions></trkpt>
   <trkpt lat="59.3273394669" lon="34.705698866"><ele>166.491</ele><time>2026-08-17T04:29:40.644Z</time><hdop>3.0</hdop><vdop>2.875</vdop><extensions><gom:speed>0.785</gom:speed></extensions></trkpt>
   <trkpt lat="59.3273438674" lon="34.7057065774"><ele>166.454</ele><time>2026-08-17T04:29:41.415Z</time><hdop>3.0</hdop><vdop>2.875</vdop><extensions><gom:speed>0.718</gom:speed></extensions></trkpt>
   <trkpt lat="59.3273469687" lon="34.7057250176"><ele>166.291</ele><time>2026-08-17T04:29:42.436Z</time><hdop>3.0</hdop><vdop>2.875</vdop><extensions><gom:speed>0.719</gom:speed></extensions></trkpt>
   <trkpt lat="59.327346382" lon="34.705741027"><ele>165.956</ele><time>2026-08-17T04:29:43.276Z</time><hdop>3.0</hdop><vdop>2.562</vdop><extensions><gom:speed>0.552</gom:speed></extensions></trkpt>
   <trkpt lat="59.3273468849" lon="34.7057577908"><ele>165.933</ele><time>2026-08-17T04:29:44.652Z</time><hdop>3.0</hdop><vdop>2.75</vdop><extensions><gom:speed>0.301</gom:speed></extensions></trkpt>
   <trkpt lat="59.3273453762" lon="34.705773465"><ele>165.918</ele><time>2026-08-17T04:29:45.644Z</time><hdop>3.0</hdop><vdop>2.75</vdop><extensions><gom:speed>0.223</gom:speed></extensions></trkpt>
   <trkpt lat="59.3273444961" lon="34.7057773207"><ele>165.907</ele><time>2026-08-17T04:29:46.644Z</time><hdop>3.0</hdop><vdop>2.812</vdop><extensions><gom:speed>0.127</gom:speed></extensions></trkpt>
   <trkpt lat="59.3273432807" lon="34.7057809249"><ele>166.031</ele><time>2026-08-17T04:29:47.643Z</time><hdop>3.0</hdop><vdop>2.937</vdop><extensions><gom:speed>0.097</gom:speed></extensions></trkpt>
   <trkpt lat="59.327342191" lon="34.7057855349"><ele>165.991</ele><time>2026-08-17T04:29:48.644Z</time><hdop>3.0</hdop><vdop>2.812</vdop><extensions><gom:speed>0.118</gom:speed></extensions></trkpt>
   <trkpt lat="59.3273411852" lon="34.7057897259"><ele>165.94</ele><time>2026-08-17T04:29:49.645Z</time><hdop>3.0</hdop><vdop>2.625</vdop><extensions><gom:speed>0.102</gom:speed></extensions></trkpt>
   <trkpt lat="59.3273406823" lon="34.7057908993"><ele>165.91</ele><time>2026-08-17T04:29:50.500Z</time><hdop>3.0</hdop><vdop>2.625</vdop><extensions><gom:speed>0.108</gom:speed></extensions></trkpt>
   <trkpt lat="59.3273397603" lon="34.7057961799"><ele>165.89</ele><time>2026-08-17T04:29:51.652Z</time><hdop>3.0</hdop><vdop>2.5</vdop><extensions><gom:speed>0.027</gom:speed></extensions></trkpt>
   <trkpt lat="59.327338964" lon="34.7057990298"><ele>165.877</ele><time>2026-08-17T04:29:52.644Z</time><hdop>3.0</hdop><vdop>2.5</vdop><extensions><gom:speed>0.089</gom:speed></extensions></trkpt>
   <trkpt lat="59.3273381677" lon="34.7058015444"><ele>165.866</ele><time>2026-08-17T04:29:53.644Z</time><hdop>3.0</hdop><vdop>2.5</vdop><extensions><gom:speed>0.103</gom:speed></extensions></trkpt>
   <trkpt lat="59.3273376648" lon="34.7058027178"><ele>165.791</ele><time>2026-08-17T04:29:54.648Z</time><hdop>3.0</hdop><vdop>2.5</vdop><extensions><gom:speed>0.112</gom:speed></extensions></trkpt>
   <trkpt lat="59.327337581" lon="34.7058080822"><ele>166.049</ele><time>2026-08-17T04:29:55.644Z</time><hdop>3.0</hdop><vdop>2.5</vdop><extensions><gom:speed>0.132</gom:speed></extensions></trkpt>
   <trkpt lat="59.327337581" lon="34.7058127761"><ele>166.271</ele><time>2026-08-17T04:29:56.644Z</time><hdop>3.0</hdop><vdop>2.5</vdop><extensions><gom:speed>0.157</gom:speed></extensions></trkpt>
   <trkpt lat="59.3273376648" lon="34.7058175538"><ele>166.403</ele><time>2026-08-17T04:29:57.400Z</time><hdop>3.0</hdop><vdop>2.5</vdop><extensions><gom:speed>0.187</gom:speed></extensions></trkpt>
   <trkpt lat="59.3273373714" lon="34.7058233373"><ele>166.348</ele><time>2026-08-17T04:29:58.239Z</time><hdop>3.0</hdop><vdop>2.5</vdop><extensions><gom:speed>0.18</gom:speed></extensions></trkpt>
   <trkpt lat="59.3273376648" lon="34.7058345691"><ele>166.459</ele><time>2026-08-17T04:29:59.141Z</time><hdop>3.0</hdop><vdop>2.5</vdop><extensions><gom:speed>0.355</gom:speed></extensions></trkpt>
   <trkpt lat="59.327338964" lon="34.7058455494"><ele>166.352</ele><time>2026-08-17T04:29:59.644Z</time><hdop>3.0</hdop><vdop>2.5</vdop><extensions><gom:speed>0.455</gom:speed></extensions></trkpt>
   <trkpt lat="59.3273414786" lon="34.7058640734"><ele>166.222</ele><time>2026-08-17T04:30:00.644Z</time><hdop>3.0</hdop><vdop>2.5</vdop><extensions><gom:speed>0.543</gom:speed></extensions></trkpt>
   <trkpt lat="59.3273431969" lon="34.7058791608"><ele>166.144</ele><time>2026-08-17T04:30:01.639Z</time><hdop>3.0</hdop><vdop>2.5</vdop><extensions><gom:speed>0.567</gom:speed></extensions></trkpt>
   <trkpt lat="59.3273447894" lon="34.7058938291"><ele>166.192</ele><time>2026-08-17T04:30:02.418Z</time><hdop>3.0</hdop><vdop>2.5</vdop><extensions><gom:speed>0.59</gom:speed></extensions></trkpt>
   <trkpt lat="59.3273452923" lon="34.7059125208"><ele>166.158</ele><time>2026-08-17T04:30:03.359Z</time><hdop>3.0</hdop><vdop>2.5</vdop><extensions><gom:speed>0.612</gom:speed></extensions></trkpt>
   <trkpt lat="59.3273445799" lon="34.7059262671"><ele>166.382</ele><time>2026-08-17T04:30:04.239Z</time><hdop>3.0</hdop><vdop>2.5</vdop><extensions><gom:speed>0.654</gom:speed></extensions></trkpt>
   <trkpt lat="59.3273424844" lon="34.705936493"><ele>166.124</ele><time>2026-08-17T04:30:05.322Z</time><hdop>3.0</hdop><vdop>2.5</vdop><extensions><gom:speed>0.508</gom:speed></extensions></trkpt>
   <trkpt lat="59.3273384611" lon="34.7059444558"><ele>166.146</ele><time>2026-08-17T04:30:06.644Z</time><hdop>3.0</hdop><vdop>2.5</vdop><extensions><gom:speed>0.419</gom:speed></extensions></trkpt>
   <trkpt lat="59.3273382935" lon="34.7059515804"><ele>166.159</ele><time>2026-08-17T04:30:07.579Z</time><hdop>3.0</hdop><vdop>2.5</vdop><extensions><gom:speed>0.394</gom:speed></extensions></trkpt>
   <trkpt lat="59.3273365752" lon="34.7059629798"><ele>166.298</ele><time>2026-08-17T04:30:08.644Z</time><hdop>3.0</hdop><vdop>2.5</vdop><extensions><gom:speed>0.385</gom:speed></extensions></trkpt>
   <trkpt lat="59.327337581" lon="34.7059666679"><ele>166.381</ele><time>2026-08-17T04:30:09.459Z</time><hdop>3.0</hdop><vdop>2.5</vdop><extensions><gom:speed>0.336</gom:speed></extensions></trkpt>
   <trkpt lat="59.3273382935" lon="34.7059732896"><ele>166.691</ele><time>2026-08-17T04:30:10.420Z</time><hdop>3.0</hdop><vdop>2.5</vdop><extensions><gom:speed>0.311</gom:speed></extensions></trkpt>
   <trkpt lat="59.3273390897" lon="34.7059791569"><ele>167.092</ele><time>2026-08-17T04:30:11.402Z</time><hdop>3.0</hdop><vdop>2.5</vdop><extensions><gom:speed>0.295</gom:speed></extensions></trkpt>
   <trkpt lat="59.3273384611" lon="34.7059868682"><ele>167.377</ele><time>2026-08-17T04:30:12.019Z</time><hdop>3.0</hdop><vdop>2.5</vdop><extensions><gom:speed>0.362</gom:speed></extensions></trkpt>
   <trkpt lat="59.3273369943" lon="34.7059970942"><ele>167.523</ele><time>2026-08-17T04:30:12.644Z</time><hdop>3.0</hdop><vdop>2.5</vdop><extensions><gom:speed>0.462</gom:speed></extensions></trkpt>
   <trkpt lat="59.3273343959" lon="34.7060071524"><ele>167.609</ele><time>2026-08-17T04:30:13.517Z</time><hdop>3.0</hdop><vdop>2.5</vdop><extensions><gom:speed>0.473</gom:speed></extensions></trkpt>
   <trkpt lat="59.3273297858" lon="34.7060247544"><ele>167.7</ele><time>2026-08-17T04:30:14.498Z</time><hdop>3.0</hdop><vdop>2.5</vdop><extensions><gom:speed>0.533</gom:speed></extensions></trkpt>
   <trkpt lat="59.3273274808" lon="34.7060362376"><ele>167.409</ele><time>2026-08-17T04:30:15.439Z</time><hdop>3.0</hdop><vdop>2.5</vdop><extensions><gom:speed>0.51</gom:speed></extensions></trkpt>
   <trkpt lat="59.3273263912" lon="34.7060477209"><ele>167.187</ele><time>2026-08-17T04:30:16.542Z</time><hdop>3.0</hdop><vdop>2.5</vdop><extensions><gom:speed>0.411</gom:speed></extensions></trkpt>
   <trkpt lat="59.3273259721" lon="34.7060569409"><ele>166.869</ele><time>2026-08-17T04:30:17.652Z</time><hdop>3.0</hdop><vdop>2.5</vdop><extensions><gom:speed>0.335</gom:speed></extensions></trkpt>
   <trkpt lat="59.3273258882" lon="34.7060601261"><ele>166.678</ele><time>2026-08-17T04:30:18.403Z</time><hdop>3.0</hdop><vdop>2.5</vdop><extensions><gom:speed>0.295</gom:speed></extensions></trkpt>
   <trkpt lat="59.3273252596" lon="34.7060668316"><ele>166.8</ele><time>2026-08-17T04:30:19.243Z</time><hdop>3.0</hdop><vdop>2.5</vdop><extensions><gom:speed>0.329</gom:speed></extensions></trkpt>
   <trkpt lat="59.3273252596" lon="34.7060726989"><ele>166.822</ele><time>2026-08-17T04:30:20.103Z</time><hdop>3.0</hdop><vdop>2.5</vdop><extensions><gom:speed>0.327</gom:speed></extensions></trkpt>
   <trkpt lat="59.3273253853" lon="34.7060765546"><ele>167.016</ele><time>2026-08-17T04:30:20.649Z</time><hdop>3.0</hdop><vdop>2.5</vdop><extensions><gom:speed>0.363</gom:speed></extensions></trkpt>
   <trkpt lat="59.3273228708" lon="34.7060865291"><ele>167.173</ele><time>2026-08-17T04:30:21.643Z</time><hdop>3.0</hdop><vdop>2.5</vdop><extensions><gom:speed>0.384</gom:speed></extensions></trkpt>
   <trkpt lat="59.3273192665" lon="34.7060902171"><ele>167.286</ele><time>2026-08-17T04:30:22.652Z</time><hdop>3.0</hdop><vdop>2.5</vdop><extensions><gom:speed>0.35</gom:speed></extensions></trkpt>
   <trkpt lat="59.3273137764" lon="34.7060974255"><ele>167.22</ele><time>2026-08-17T04:30:23.644Z</time><hdop>3.0</hdop><vdop>2.5</vdop><extensions><gom:speed>0.472</gom:speed></extensions></trkpt>
   <trkpt lat="59.3273124772" lon="34.7061060589"><ele>167.181</ele><time>2026-08-17T04:30:24.635Z</time><hdop>3.0</hdop><vdop>2.5</vdop><extensions><gom:speed>0.406</gom:speed></extensions></trkpt>
   <trkpt lat="59.3273136926" lon="34.7061186318"><ele>167.03</ele><time>2026-08-17T04:30:25.536Z</time><hdop>3.0</hdop><vdop>2.5</vdop><extensions><gom:speed>0.406</gom:speed></extensions></trkpt>
   <trkpt lat="59.3273129801" lon="34.7061314561"><ele>166.825</ele><time>2026-08-17T04:30:26.497Z</time><hdop>3.0</hdop><vdop>2.5</vdop><extensions><gom:speed>0.46</gom:speed></extensions></trkpt>
   <trkpt lat="59.3273110942" lon="34.7061431907"><ele>166.845</ele><time>2026-08-17T04:30:27.397Z</time><hdop>3.0</hdop><vdop>2.5</vdop><extensions><gom:speed>0.408</gom:speed></extensions></trkpt>
   <trkpt lat="59.3273081605" lon="34.706152327"><ele>166.864</ele><time>2026-08-17T04:30:28.257Z</time><hdop>3.0</hdop><vdop>2.5</vdop><extensions><gom:speed>0.428</gom:speed></extensions></trkpt>
   <trkpt lat="59.327306987" lon="34.7061540872"><ele>166.856</ele><time>2026-08-17T04:30:28.743Z</time><hdop>3.0</hdop><vdop>2.5</vdop><extensions><gom:speed>0.365</gom:speed></extensions></trkpt>
   <trkpt lat="59.3273047658" lon="34.7061561827"><ele>166.856</ele><time>2026-08-17T04:30:29.653Z</time><hdop>3.0</hdop><vdop>2.5</vdop><extensions><gom:speed>0.213</gom:speed></extensions></trkpt>
   <trkpt lat="59.3273040953" lon="34.7061560989"><ele>166.855</ele><time>2026-08-17T04:30:30.361Z</time><hdop>3.0</hdop><vdop>2.5</vdop><extensions><gom:speed>0.214</gom:speed></extensions></trkpt>
   <trkpt lat="59.3273017903" lon="34.7061544225"><ele>166.855</ele><time>2026-08-17T04:30:31.652Z</time><hdop>3.0</hdop><vdop>2.5</vdop><extensions><gom:speed>0.038</gom:speed></extensions></trkpt>
   <trkpt lat="59.327300994" lon="34.706153249"><ele>166.856</ele><time>2026-08-17T04:30:32.644Z</time><hdop>3.0</hdop><vdop>2.5</vdop><extensions><gom:speed>0.097</gom:speed></extensions></trkpt>
   <trkpt lat="59.3273002815" lon="34.7061539196"><ele>166.86</ele><time>2026-08-17T04:30:33.652Z</time><hdop>3.0</hdop><vdop>2.5</vdop><extensions><gom:speed>0.024</gom:speed></extensions></trkpt>
   <trkpt lat="59.3272995691" lon="34.7061533328"><ele>166.867</ele><time>2026-08-17T04:30:34.644Z</time><hdop>3.0</hdop><vdop>2.5</vdop><extensions><gom:speed>0.081</gom:speed></extensions></trkpt>
   <trkpt lat="59.3272989823" lon="34.7061536681"><ele>166.872</ele><time>2026-08-17T04:30:35.652Z</time><hdop>3.0</hdop><vdop>2.5</vdop><extensions><gom:speed>0.018</gom:speed></extensions></trkpt>
   <trkpt lat="59.3272984794" lon="34.7061542548"><ele>166.875</ele><time>2026-08-17T04:30:36.652Z</time><hdop>3.0</hdop><vdop>2.5</vdop><extensions><gom:speed>0.016</gom:speed></extensions></trkpt>
   <trkpt lat="59.3272979765" lon="34.7061546739"><ele>166.877</ele><time>2026-08-17T04:30:37.646Z</time><hdop>3.0</hdop><vdop>2.5</vdop><extensions><gom:speed>0.104</gom:speed></extensions></trkpt>
   <trkpt lat="59.3272976831" lon="34.7061529976"><ele>166.878</ele><time>2026-08-17T04:30:38.644Z</time><hdop>3.0</hdop><vdop>2.5</vdop><extensions><gom:speed>0.084</gom:speed></extensions></trkpt>
   <trkpt lat="59.3272978927" lon="34.7061515726"><ele>166.877</ele><time>2026-08-17T04:30:39.644Z</time><hdop>3.0</hdop><vdop>2.5</vdop><extensions><gom:speed>0.085</gom:speed></extensions></trkpt>
   <trkpt lat="59.327298186" lon="34.7061515726"><ele>166.881</ele><time>2026-08-17T04:30:40.643Z</time><hdop>3.0</hdop><vdop>2.5</vdop><extensions><gom:speed>0.092</gom:speed></extensions></trkpt>
   <trkpt lat="59.3272983956" lon="34.7061511535"><ele>166.883</ele><time>2026-08-17T04:30:41.491Z</time><hdop>3.0</hdop><vdop>2.5</vdop><extensions><gom:speed>0.097</gom:speed></extensions></trkpt>
   <trkpt lat="59.3272990661" lon="34.7061494772"><ele>166.882</ele><time>2026-08-17T04:30:42.643Z</time><hdop>3.0</hdop><vdop>2.5</vdop><extensions><gom:speed>0.09</gom:speed></extensions></trkpt>
   <trkpt lat="59.3272988985" lon="34.7061506506"><ele>166.88</ele><time>2026-08-17T04:30:43.644Z</time><hdop>3.0</hdop><vdop>2.5</vdop><extensions><gom:speed>0.092</gom:speed></extensions></trkpt>
   <trkpt lat="59.3272987728" lon="34.706152327"><ele>166.878</ele><time>2026-08-17T04:30:44.643Z</time><hdop>3.0</hdop><vdop>2.5</vdop><extensions><gom:speed>0.087</gom:speed></extensions></trkpt>
   <trkpt lat="59.3272989823" lon="34.7061516565"><ele>166.875</ele><time>2026-08-17T04:30:45.644Z</time><hdop>3.0</hdop><vdop>2.5</vdop><extensions><gom:speed>0.085</gom:speed></extensions></trkpt>
   <trkpt lat="59.3272993595" lon="34.7061526623"><ele>166.874</ele><time>2026-08-17T04:30:46.650Z</time><hdop>3.0</hdop><vdop>2.5</vdop><extensions><gom:speed>0.105</gom:speed></extensions></trkpt>
   <trkpt lat="59.3272994852" lon="34.7061536681"><ele>166.873</ele><time>2026-08-17T04:30:47.644Z</time><hdop>3.0</hdop><vdop>2.5</vdop><extensions><gom:speed>0.091</gom:speed></extensions></trkpt>
   <trkpt lat="59.3272991919" lon="34.7061547578"><ele>166.87</ele><time>2026-08-17T04:30:48.652Z</time><hdop>3.0</hdop><vdop>2.5</vdop><extensions><gom:speed>0.091</gom:speed></extensions></trkpt>
   <trkpt lat="59.3272990661" lon="34.7061546739"><ele>166.868</ele><time>2026-08-17T04:30:49.644Z</time><hdop>3.0</hdop><vdop>2.5</vdop><extensions><gom:speed>0.083</gom:speed></extensions></trkpt>
   <trkpt lat="59.3272987728" lon="34.7061555959"><ele>166.868</ele><time>2026-08-17T04:30:50.652Z</time><hdop>3.0</hdop><vdop>2.5</vdop><extensions><gom:speed>0.083</gom:speed></extensions></trkpt>
   <trkpt lat="59.3272988985" lon="34.7061555959"><ele>166.869</ele><time>2026-08-17T04:30:51.645Z</time><hdop>3.0</hdop><vdop>2.5</vdop><extensions><gom:speed>0.078</gom:speed></extensions></trkpt>
   <trkpt lat="59.3272988985" lon="34.7061556798"><ele>166.87</ele><time>2026-08-17T04:30:52.644Z</time><hdop>3.0</hdop><vdop>2.5</vdop><extensions><gom:speed>0.076</gom:speed></extensions></trkpt>
   <trkpt lat="59.3272988985" lon="34.7061558474"><ele>166.874</ele><time>2026-08-17T04:30:53.645Z</time><hdop>3.0</hdop><vdop>2.5</vdop><extensions><gom:speed>0.074</gom:speed></extensions></trkpt>
   <trkpt lat="59.3272987728" lon="34.7061557636"><ele>166.878</ele><time>2026-08-17T04:30:54.644Z</time><hdop>3.0</hdop><vdop>2.5</vdop><extensions><gom:speed>0.073</gom:speed></extensions></trkpt>
   <trkpt lat="59.3272983956" lon="34.7061561827"><ele>166.881</ele><time>2026-08-17T04:30:55.654Z</time><hdop>3.0</hdop><vdop>2.5</vdop><extensions><gom:speed>0.074</gom:speed></extensions></trkpt>
   <trkpt lat="59.3272983956" lon="34.7061556798"><ele>166.883</ele><time>2026-08-17T04:30:56.644Z</time><hdop>3.0</hdop><vdop>2.5</vdop><extensions><gom:speed>0.071</gom:speed></extensions></trkpt>
   <trkpt lat="59.3272982699" lon="34.7061555959"><ele>166.886</ele><time>2026-08-17T04:30:57.643Z</time><hdop>3.0</hdop><vdop>2.5</vdop><extensions><gom:speed>0.072</gom:speed></extensions></trkpt>
   <trkpt lat="59.327298186" lon="34.7061554283"><ele>166.887</ele><time>2026-08-17T04:30:58.285Z</time><hdop>3.0</hdop><vdop>2.5</vdop><extensions><gom:speed>0.072</gom:speed></extensions></trkpt>
   <trkpt lat="59.3272980603" lon="34.7061555959"><ele>166.89</ele><time>2026-08-17T04:30:59.644Z</time><hdop>3.0</hdop><vdop>2.5</vdop><extensions><gom:speed>0.068</gom:speed></extensions></trkpt>
   <trkpt lat="59.3272978927" lon="34.7061553445"><ele>166.891</ele><time>2026-08-17T04:31:00.644Z</time><hdop>3.0</hdop><vdop>2.5</vdop><extensions><gom:speed>0.067</gom:speed></extensions></trkpt>
   <trkpt lat="59.3272978927" lon="34.7061554283"><ele>166.891</ele><time>2026-08-17T04:31:01.644Z</time><hdop>3.0</hdop><vdop>2.5</vdop><extensions><gom:speed>0.066</gom:speed></extensions></trkpt>
   <trkpt lat="59.327297767" lon="34.7061559312"><ele>166.889</ele><time>2026-08-17T04:31:02.652Z</time><hdop>3.0</hdop><vdop>2.5</vdop><extensions><gom:speed>0.066</gom:speed></extensions></trkpt>
   <trkpt lat="59.327297767" lon="34.7061559312"><ele>166.887</ele><time>2026-08-17T04:31:03.647Z</time><hdop>3.0</hdop><vdop>2.5</vdop><extensions><gom:speed>0.065</gom:speed></extensions></trkpt>
   <trkpt lat="59.3272976831" lon="34.7061552607"><ele>166.887</ele><time>2026-08-17T04:31:04.645Z</time><hdop>3.0</hdop><vdop>2.5</vdop><extensions><gom:speed>0.068</gom:speed></extensions></trkpt>
   <trkpt lat="59.3272975993" lon="34.7061551769"><ele>166.888</ele><time>2026-08-17T04:31:05.644Z</time><hdop>3.0</hdop><vdop>2.5</vdop><extensions><gom:speed>0.068</gom:speed></extensions></trkpt>
   <trkpt lat="59.3272974736" lon="34.7061551769"><ele>166.888</ele><time>2026-08-17T04:31:06.644Z</time><hdop>3.0</hdop><vdop>2.5</vdop><extensions><gom:speed>0.067</gom:speed></extensions></trkpt>
   <trkpt lat="59.3272973898" lon="34.7061553445"><ele>166.888</ele><time>2026-08-17T04:31:07.652Z</time><hdop>3.0</hdop><vdop>2.5</vdop><extensions><gom:speed>0.067</gom:speed></extensions></trkpt>
   <trkpt lat="59.3272973898" lon="34.7061551769"><ele>166.887</ele><time>2026-08-17T04:31:08.644Z</time><hdop>3.0</hdop><vdop>2.5</vdop><extensions><gom:speed>0.068</gom:speed></extensions></trkpt>
   <trkpt lat="59.3272973898" lon="34.706155093"><ele>166.886</ele><time>2026-08-17T04:31:09.415Z</time><hdop>3.0</hdop><vdop>2.5</vdop><extensions><gom:speed>0.069</gom:speed></extensions></trkpt>
   <trkpt lat="59.3272971802" lon="34.7061549254"><ele>166.884</ele><time>2026-08-17T04:31:10.644Z</time><hdop>3.0</hdop><vdop>2.5</vdop><extensions><gom:speed>0.071</gom:speed></extensions></trkpt>
   <trkpt lat="59.3272971802" lon="34.7061548416"><ele>166.881</ele><time>2026-08-17T04:31:11.643Z</time><hdop>3.0</hdop><vdop>2.5</vdop><extensions><gom:speed>0.071</gom:speed></extensions></trkpt>
   <trkpt lat="59.3272971802" lon="34.706155093"><ele>166.882</ele><time>2026-08-17T04:31:12.651Z</time><hdop>3.0</hdop><vdop>2.5</vdop><extensions><gom:speed>0.072</gom:speed></extensions></trkpt>
   <trkpt lat="59.3272970964" lon="34.706155093"><ele>166.896</ele><time>2026-08-17T04:31:13.644Z</time><hdop>3.0</hdop><vdop>2.5</vdop><extensions><gom:speed>0.233</gom:speed></extensions></trkpt>
   <trkpt lat="59.3272963839" lon="34.7061561827"><ele>166.902</ele><time>2026-08-17T04:31:14.652Z</time><hdop>3.0</hdop><vdop>2.5</vdop><extensions><gom:speed>0.261</gom:speed></extensions></trkpt>
   <trkpt lat="59.3272960906" lon="34.7061563503"><ele>166.903</ele><time>2026-08-17T04:31:15.643Z</time><hdop>3.0</hdop><vdop>2.5</vdop><extensions><gom:speed>0.157</gom:speed></extensions></trkpt>
   <trkpt lat="59.3272959648" lon="34.7061561827"><ele>166.902</ele><time>2026-08-17T04:31:16.644Z</time><hdop>3.0</hdop><vdop>2.5</vdop><extensions><gom:speed>0.15</gom:speed></extensions></trkpt>
   <trkpt lat="59.327295881" lon="34.7061561827"><ele>166.899</ele><time>2026-08-17T04:31:17.644Z</time><hdop>3.0</hdop><vdop>2.5</vdop><extensions><gom:speed>0.144</gom:speed></extensions></trkpt>
   <trkpt lat="59.3272959648" lon="34.7061553445"><ele>166.897</ele><time>2026-08-17T04:31:18.644Z</time><hdop>3.0</hdop><vdop>2.5</vdop><extensions><gom:speed>0.102</gom:speed></extensions></trkpt>
   <trkpt lat="59.3272959648" lon="34.7061552607"><ele>166.74</ele><time>2026-08-17T04:31:19.652Z</time><hdop>3.0</hdop><vdop>2.5</vdop><extensions><gom:speed>0.101</gom:speed></extensions></trkpt>
   <trkpt lat="59.3272956715" lon="34.7061548416"><ele>166.646</ele><time>2026-08-17T04:31:20.614Z</time><hdop>3.0</hdop><vdop>2.5</vdop><extensions><gom:speed>0.215</gom:speed></extensions></trkpt>
   <trkpt lat="59.3272946656" lon="34.7061560989"><ele>166.402</ele><time>2026-08-17T04:31:21.645Z</time><hdop>3.0</hdop><vdop>2.5</vdop><extensions><gom:speed>0.227</gom:speed></extensions></trkpt>
   <trkpt lat="59.3272943723" lon="34.7061579429"><ele>166.15</ele><time>2026-08-17T04:31:22.644Z</time><hdop>3.0</hdop><vdop>2.5</vdop><extensions><gom:speed>0.287</gom:speed></extensions></trkpt>
   <trkpt lat="59.3272941627" lon="34.7061586973"><ele>166.0</ele><time>2026-08-17T04:31:23.173Z</time><hdop>3.0</hdop><vdop>2.5</vdop><extensions><gom:speed>0.297</gom:speed></extensions></trkpt>
   <trkpt lat="59.3272938694" lon="34.706159284"><ele>165.91</ele><time>2026-08-17T04:31:23.659Z</time><hdop>3.0</hdop><vdop>2.5</vdop><extensions><gom:speed>0.299</gom:speed></extensions></trkpt>
   <trkpt lat="59.3272932826" lon="34.7061612956"><ele>165.89</ele><time>2026-08-17T04:31:24.498Z</time><hdop>3.062</hdop><vdop>2.5</vdop><extensions><gom:speed>0.354</gom:speed></extensions></trkpt>
   <trkpt lat="59.3272920673" lon="34.7061645646"><ele>165.71</ele><time>2026-08-17T04:31:25.318Z</time><hdop>3.062</hdop><vdop>2.5</vdop><extensions><gom:speed>0.183</gom:speed></extensions></trkpt>
   <trkpt lat="59.3272875829" lon="34.7061655704"><ele>165.957</ele><time>2026-08-17T04:31:26.208Z</time><hdop>3.062</hdop><vdop>2.562</vdop><extensions><gom:speed>0.393</gom:speed></extensions></trkpt>
   <trkpt lat="59.3272794944" lon="34.7061663248"><ele>166.254</ele><time>2026-08-17T04:31:27.493Z</time><hdop>3.062</hdop><vdop>2.687</vdop><extensions><gom:speed>0.362</gom:speed></extensions></trkpt>
   <trkpt lat="59.3272730822" lon="34.7061697614"><ele>166.368</ele><time>2026-08-17T04:31:28.535Z</time><hdop>3.062</hdop><vdop>2.937</vdop><extensions><gom:speed>0.342</gom:speed></extensions></trkpt>
   <trkpt lat="59.3272669635" lon="34.7061722759"><ele>166.555</ele><time>2026-08-17T04:31:29.648Z</time><hdop>3.062</hdop><vdop>3.562</vdop><extensions><gom:speed>0.356</gom:speed></extensions></trkpt>
   <trkpt lat="59.3272616829" lon="34.7061782271"><ele>166.643</ele><time>2026-08-17T04:31:30.644Z</time><hdop>3.062</hdop><vdop>2.875</vdop><extensions><gom:speed>0.253</gom:speed></extensions></trkpt>
   <trkpt lat="59.3272591683" lon="34.7061827533"><ele>166.697</ele><time>2026-08-17T04:31:31.644Z</time><hdop>3.062</hdop><vdop>2.5</vdop><extensions><gom:speed>0.17</gom:speed></extensions></trkpt>
   <trkpt lat="59.3272575757" lon="34.7061861899"><ele>166.733</ele><time>2026-08-17T04:31:32.644Z</time><hdop>3.0</hdop><vdop>2.5</vdop><extensions><gom:speed>0.13</gom:speed></extensions></trkpt>
   <trkpt lat="59.3272578691" lon="34.7061865252"><ele>166.752</ele><time>2026-08-17T04:31:33.652Z</time><hdop>3.0</hdop><vdop>2.562</vdop><extensions><gom:speed>0.032</gom:speed></extensions></trkpt>
   <trkpt lat="59.3272570728" lon="34.7061888721"><ele>166.76</ele><time>2026-08-17T04:31:34.643Z</time><hdop>3.0</hdop><vdop>2.5</vdop><extensions><gom:speed>0.099</gom:speed></extensions></trkpt>
   <trkpt lat="59.3272564861" lon="34.7061897941"><ele>166.763</ele><time>2026-08-17T04:31:35.644Z</time><hdop>3.0</hdop><vdop>2.5</vdop><extensions><gom:speed>0.09</gom:speed></extensions></trkpt>
   <trkpt lat="59.3272561927" lon="34.7061910514"><ele>166.764</ele><time>2026-08-17T04:31:36.643Z</time><hdop>3.0</hdop><vdop>2.5</vdop><extensions><gom:speed>0.087</gom:speed></extensions></trkpt>
   <trkpt lat="59.3272562765" lon="34.706191219"><ele>166.764</ele><time>2026-08-17T04:31:37.337Z</time><hdop>3.0</hdop><vdop>2.5</vdop><extensions><gom:speed>0.079</gom:speed></extensions></trkpt>
   <trkpt lat="59.3272554803" lon="34.7061937336"><ele>166.764</ele><time>2026-08-17T04:31:38.652Z</time><hdop>3.0</hdop><vdop>2.5</vdop><extensions><gom:speed>0.023</gom:speed></extensions></trkpt>
   <trkpt lat="59.3272554803" lon="34.7061939851"><ele>166.763</ele><time>2026-08-17T04:31:39.644Z</time><hdop>3.0</hdop><vdop>2.5</vdop><extensions><gom:speed>0.093</gom:speed></extensions></trkpt>
   <trkpt lat="59.3272549773" lon="34.7061939851"><ele>166.767</ele><time>2026-08-17T04:31:40.652Z</time><hdop>3.0</hdop><vdop>2.5</vdop><extensions><gom:speed>0.025</gom:speed></extensions></trkpt>
   <trkpt lat="59.3272548935" lon="34.7061937336"><ele>166.776</ele><time>2026-08-17T04:31:41.644Z</time><hdop>3.0</hdop><vdop>2.5</vdop><extensions><gom:speed>0.089</gom:speed></extensions></trkpt>
   <trkpt lat="59.3272545582" lon="34.7061940689"><ele>166.781</ele><time>2026-08-17T04:31:42.644Z</time><hdop>3.0</hdop><vdop>2.625</vdop><extensions><gom:speed>0.092</gom:speed></extensions></trkpt>
   <trkpt lat="59.3272544744" lon="34.7061934822"><ele>166.789</ele><time>2026-08-17T04:31:43.644Z</time><hdop>3.0</hdop><vdop>2.562</vdop><extensions><gom:speed>0.099</gom:speed></extensions></trkpt>
   <trkpt lat="59.3272543906" lon="34.7061943203"><ele>166.798</ele><time>2026-08-17T04:31:44.644Z</time><hdop>3.0</hdop><vdop>2.562</vdop><extensions><gom:speed>0.095</gom:speed></extensions></trkpt>
   <trkpt lat="59.3272539715" lon="34.7061942365"><ele>166.804</ele><time>2026-08-17T04:31:45.644Z</time><hdop>3.0</hdop><vdop>2.625</vdop><extensions><gom:speed>0.101</gom:speed></extensions></trkpt>
   <trkpt lat="59.3272534686" lon="34.7061942365"><ele>166.757</ele><time>2026-08-17T04:31:46.645Z</time><hdop>3.0</hdop><vdop>2.875</vdop><extensions><gom:speed>0.112</gom:speed></extensions></trkpt>
   <trkpt lat="59.3272530914" lon="34.7061956614"><ele>166.729</ele><time>2026-08-17T04:31:47.616Z</time><hdop>3.0</hdop><vdop>2.875</vdop><extensions><gom:speed>0.116</gom:speed></extensions></trkpt>
   <trkpt lat="59.3272529657" lon="34.7061964996"><ele>167.17</ele><time>2026-08-17T04:31:48.466Z</time><hdop>3.0</hdop><vdop>2.812</vdop><extensions><gom:speed>0.108</gom:speed></extensions></trkpt>
   <trkpt lat="59.3272517922" lon="34.7062013611"><ele>167.545</ele><time>2026-08-17T04:31:49.644Z</time><hdop>3.0</hdop><vdop>2.812</vdop><extensions><gom:speed>0.005</gom:speed></extensions></trkpt>
   <trkpt lat="59.327251876" lon="34.706202367"><ele>167.767</ele><time>2026-08-17T04:31:50.643Z</time><hdop>3.0</hdop><vdop>2.875</vdop><extensions><gom:speed>0.013</gom:speed></extensions></trkpt>
   <trkpt lat="59.3272517922" lon="34.706203289"><ele>167.882</ele><time>2026-08-17T04:31:51.645Z</time><hdop>3.0</hdop><vdop>2.875</vdop><extensions><gom:speed>0.261</gom:speed></extensions></trkpt>
   <trkpt lat="59.3272505768" lon="34.7062068932"><ele>167.947</ele><time>2026-08-17T04:31:52.645Z</time><hdop>3.0</hdop><vdop>2.812</vdop><extensions><gom:speed>0.212</gom:speed></extensions></trkpt>
   <trkpt lat="59.3272499901" lon="34.7062096592"><ele>167.978</ele><time>2026-08-17T04:31:53.644Z</time><hdop>3.0</hdop><vdop>3.0</vdop><extensions><gom:speed>0.162</gom:speed></extensions></trkpt>
   <trkpt lat="59.3272492776" lon="34.7062112518"><ele>167.992</ele><time>2026-08-17T04:31:54.644Z</time><hdop>3.0</hdop><vdop>2.75</vdop><extensions><gom:speed>0.124</gom:speed></extensions></trkpt>
   <trkpt lat="59.3272487747" lon="34.7062128443"><ele>168.002</ele><time>2026-08-17T04:31:55.650Z</time><hdop>3.0</hdop><vdop>2.687</vdop><extensions><gom:speed>0.134</gom:speed></extensions></trkpt>
   <trkpt lat="59.3272480623" lon="34.7062136825"><ele>168.009</ele><time>2026-08-17T04:31:56.644Z</time><hdop>3.0</hdop><vdop>2.625</vdop><extensions><gom:speed>0.109</gom:speed></extensions></trkpt>
   <trkpt lat="59.327247266" lon="34.7062142693"><ele>168.013</ele><time>2026-08-17T04:31:57.399Z</time><hdop>3.0</hdop><vdop>2.625</vdop><extensions><gom:speed>0.131</gom:speed></extensions></trkpt>
   <trkpt lat="59.3272465954" lon="34.7062142693"><ele>167.925</ele><time>2026-08-17T04:31:58.644Z</time><hdop>3.0</hdop><vdop>2.875</vdop><extensions><gom:speed>0.132</gom:speed></extensions></trkpt>
   <trkpt lat="59.3272462602" lon="34.7062152751"><ele>167.872</ele><time>2026-08-17T04:31:59.534Z</time><hdop>3.0</hdop><vdop>2.875</vdop><extensions><gom:speed>0.137</gom:speed></extensions></trkpt>
   <trkpt lat="59.327244961" lon="34.7062158618"><ele>167.739</ele><time>2026-08-17T04:32:00.242Z</time><hdop>3.0</hdop><vdop>3.312</vdop><extensions><gom:speed>0.144</gom:speed></extensions></trkpt>
   <trkpt lat="59.327243075" lon="34.7062183764"><ele>167.718</ele><time>2026-08-17T04:32:01.041Z</time><hdop>3.0</hdop><vdop>2.875</vdop><extensions><gom:speed>0.146</gom:speed></extensions></trkpt>
   <trkpt lat="59.3272419854" lon="34.7062206395"><ele>167.683</ele><time>2026-08-17T04:32:01.645Z</time><hdop>3.0</hdop><vdop>2.75</vdop><extensions><gom:speed>0.135</gom:speed></extensions></trkpt>
   <trkpt lat="59.3272401833" lon="34.7062243276"><ele>167.719</ele><time>2026-08-17T04:32:02.643Z</time><hdop>3.0</hdop><vdop>2.5</vdop><extensions><gom:speed>0.159</gom:speed></extensions></trkpt>
   <trkpt lat="59.3272386745" lon="34.7062280994"><ele>167.656</ele><time>2026-08-17T04:32:03.644Z</time><hdop>3.0</hdop><vdop>2.562</vdop><extensions><gom:speed>0.136</gom:speed></extensions></trkpt>
   <trkpt lat="59.3272379621" lon="34.7062297758"><ele>168.068</ele><time>2026-08-17T04:32:04.653Z</time><hdop>3.0</hdop><vdop>2.687</vdop><extensions><gom:speed>0.114</gom:speed></extensions></trkpt>
   <trkpt lat="59.327237082" lon="34.7062339667"><ele>168.314</ele><time>2026-08-17T04:32:05.159Z</time><hdop>3.0</hdop><vdop>2.687</vdop><extensions><gom:speed>0.144</gom:speed></extensions></trkpt>
   <trkpt lat="59.3272362857" lon="34.7062385768"><ele>168.461</ele><time>2026-08-17T04:32:05.635Z</time><hdop>3.0</hdop><vdop>2.687</vdop><extensions><gom:speed>0.197</gom:speed></extensions></trkpt>
   <trkpt lat="59.3272355732" lon="34.7062497247"><ele>168.484</ele><time>2026-08-17T04:32:06.652Z</time><hdop>3.0</hdop><vdop>2.625</vdop><extensions><gom:speed>0.185</gom:speed></extensions></trkpt>
   <trkpt lat="59.3272346931" lon="34.7062656503"><ele>168.479</ele><time>2026-08-17T04:32:07.644Z</time><hdop>3.0</hdop><vdop>2.625</vdop><extensions><gom:speed>0.256</gom:speed></extensions></trkpt>
   <trkpt lat="59.3272335616" lon="34.7062796481"><ele>168.366</ele><time>2026-08-17T04:32:08.644Z</time><hdop>3.0</hdop><vdop>2.625</vdop><extensions><gom:speed>0.309</gom:speed></extensions></trkpt>
   <trkpt lat="59.3272320947" lon="34.706294065"><ele>168.384</ele><time>2026-08-17T04:32:09.644Z</time><hdop>3.0</hdop><vdop>2.562</vdop><extensions><gom:speed>0.389</gom:speed></extensions></trkpt>
   <trkpt lat="59.3272311727" lon="34.7063016925"><ele>168.394</ele><time>2026-08-17T04:32:10.683Z</time><hdop>3.0</hdop><vdop>2.562</vdop><extensions><gom:speed>0.264</gom:speed></extensions></trkpt>
   <trkpt lat="59.3272298735" lon="34.706308398"><ele>168.386</ele><time>2026-08-17T04:32:11.280Z</time><hdop>3.0</hdop><vdop>2.562</vdop><extensions><gom:speed>0.25</gom:speed></extensions></trkpt>
   <trkpt lat="59.3272293706" lon="34.7063123375"><ele>168.38</ele><time>2026-08-17T04:32:12.646Z</time><hdop>3.0</hdop><vdop>2.5</vdop><extensions><gom:speed>0.193</gom:speed></extensions></trkpt>
   <trkpt lat="59.3272278619" lon="34.7063174505"><ele>168.375</ele><time>2026-08-17T04:32:13.644Z</time><hdop>3.0</hdop><vdop>2.5</vdop><extensions><gom:speed>0.118</gom:speed></extensions></trkpt>
   <trkpt lat="59.3272275685" lon="34.7063179534"><ele>168.372</ele><time>2026-08-17T04:32:14.123Z</time><hdop>3.0</hdop><vdop>2.5</vdop><extensions><gom:speed>0.099</gom:speed></extensions></trkpt>
   <trkpt lat="59.3272271913" lon="34.7063206356"><ele>168.503</ele><time>2026-08-17T04:32:14.644Z</time><hdop>3.0</hdop><vdop>2.5</vdop><extensions><gom:speed>0.135</gom:speed></extensions></trkpt>
   <trkpt lat="59.3272275685" lon="34.7063249942"><ele>168.756</ele><time>2026-08-17T04:32:15.644Z</time><hdop>3.0</hdop><vdop>2.5</vdop><extensions><gom:speed>0.179</gom:speed></extensions></trkpt>
   <trkpt lat="59.3272277781" lon="34.7063262515"><ele>168.907</ele><time>2026-08-17T04:32:16.288Z</time><hdop>3.0</hdop><vdop>2.5</vdop><extensions><gom:speed>0.134</gom:speed></extensions></trkpt>
   <trkpt lat="59.327229664" lon="34.7063336276"><ele>168.725</ele><time>2026-08-17T04:32:17.381Z</time><hdop>3.0</hdop><vdop>2.5</vdop><extensions><gom:speed>0.227</gom:speed></extensions></trkpt>
   <trkpt lat="59.327232891" lon="34.7063395787"><ele>168.878</ele><time>2026-08-17T04:32:18.362Z</time><hdop>3.0</hdop><vdop>2.5</vdop><extensions><gom:speed>0.237</gom:speed></extensions></trkpt>
   <trkpt lat="59.327238465" lon="34.706349637"><ele>168.989</ele><time>2026-08-17T04:32:19.616Z</time><hdop>3.0</hdop><vdop>2.5</vdop><extensions><gom:speed>0.347</gom:speed></extensions></trkpt>
   <trkpt lat="59.327244961" lon="34.7063582704"><ele>169.172</ele><time>2026-08-17T04:32:20.335Z</time><hdop>3.0</hdop><vdop>2.5</vdop><extensions><gom:speed>0.379</gom:speed></extensions></trkpt>
   <trkpt lat="59.3272503673" lon="34.7063594438"><ele>169.098</ele><time>2026-08-17T04:32:21.135Z</time><hdop>3.0</hdop><vdop>2.5</vdop><extensions><gom:speed>0.327</gom:speed></extensions></trkpt>
   <trkpt lat="59.3272528819" lon="34.7063596953"><ele>168.624</ele><time>2026-08-17T04:32:21.650Z</time><hdop>3.0</hdop><vdop>2.5</vdop><extensions><gom:speed>0.336</gom:speed></extensions></trkpt>
   <trkpt lat="59.3272632754" lon="34.7063546662"><ele>168.229</ele><time>2026-08-17T04:32:22.644Z</time><hdop>3.0</hdop><vdop>2.562</vdop><extensions><gom:speed>0.342</gom:speed></extensions></trkpt>
   <trkpt lat="59.327268095" lon="34.7063569293"><ele>167.944</ele><time>2026-08-17T04:32:23.653Z</time><hdop>3.0</hdop><vdop>2.625</vdop><extensions><gom:speed>0.391</gom:speed></extensions></trkpt>
   <trkpt lat="59.3272729984" lon="34.7063587733"><ele>167.774</ele><time>2026-08-17T04:32:24.574Z</time><hdop>3.0</hdop><vdop>2.625</vdop><extensions><gom:speed>0.382</gom:speed></extensions></trkpt>
   <trkpt lat="59.3272769798" lon="34.7063609526"><ele>167.755</ele><time>2026-08-17T04:32:25.242Z</time><hdop>3.0</hdop><vdop>2.687</vdop><extensions><gom:speed>0.442</gom:speed></extensions></trkpt>
   <trkpt lat="59.3272776923" lon="34.7063686639"><ele>167.936</ele><time>2026-08-17T04:32:26.274Z</time><hdop>3.0</hdop><vdop>2.687</vdop><extensions><gom:speed>0.42</gom:speed></extensions></trkpt>
   <trkpt lat="59.3272774827" lon="34.7063768782"><ele>168.282</ele><time>2026-08-17T04:32:27.194Z</time><hdop>3.0</hdop><vdop>2.562</vdop><extensions><gom:speed>0.46</gom:speed></extensions></trkpt>
   <trkpt lat="59.3272783628" lon="34.7063850925"><ele>169.105</ele><time>2026-08-17T04:32:27.644Z</time><hdop>3.062</hdop><vdop>2.812</vdop><extensions><gom:speed>0.485</gom:speed></extensions></trkpt>
   <trkpt lat="59.3272791591" lon="34.7063884452"><ele>169.597</ele><time>2026-08-17T04:32:28.136Z</time><hdop>3.125</hdop><vdop>2.812</vdop><extensions><gom:speed>0.504</gom:speed></extensions></trkpt>
   <trkpt lat="59.3272797878" lon="34.706394564"><ele>170.065</ele><time>2026-08-17T04:32:28.644Z</time><hdop>3.187</hdop><vdop>2.625</vdop><extensions><gom:speed>0.508</gom:speed></extensions></trkpt>
   <trkpt lat="59.3272802907" lon="34.706408478"><ele>170.207</ele><time>2026-08-17T04:32:29.644Z</time><hdop>3.437</hdop><vdop>2.5</vdop><extensions><gom:speed>0.547</gom:speed></extensions></trkpt>
   <trkpt lat="59.3272805841" lon="34.7064180333"><ele>170.291</ele><time>2026-08-17T04:32:30.543Z</time><hdop>3.625</hdop><vdop>2.5</vdop><extensions><gom:speed>0.517</gom:speed></extensions></trkpt>
   <trkpt lat="59.3272811708" lon="34.7064278402"><ele>170.751</ele><time>2026-08-17T04:32:31.474Z</time><hdop>3.875</hdop><vdop>2.5</vdop><extensions><gom:speed>0.51</gom:speed></extensions></trkpt>
   <trkpt lat="59.3272817994" lon="34.7064375632"><ele>170.955</ele><time>2026-08-17T04:32:32.243Z</time><hdop>4.062</hdop><vdop>2.5</vdop><extensions><gom:speed>0.529</gom:speed></extensions></trkpt>
   <trkpt lat="59.327283392" lon="34.7064432629"><ele>171.346</ele><time>2026-08-17T04:32:33.082Z</time><hdop>4.187</hdop><vdop>2.5</vdop><extensions><gom:speed>0.524</gom:speed></extensions></trkpt>
   <trkpt lat="59.3272863676" lon="34.7064530697"><ele>171.569</ele><time>2026-08-17T04:32:33.644Z</time><hdop>4.312</hdop><vdop>2.5</vdop><extensions><gom:speed>0.559</gom:speed></extensions></trkpt>
   <trkpt lat="59.3272894689" lon="34.7064579312"><ele>171.715</ele><time>2026-08-17T04:32:34.652Z</time><hdop>4.437</hdop><vdop>2.562</vdop><extensions><gom:speed>0.464</gom:speed></extensions></trkpt>
   <trkpt lat="59.3272913967" lon="34.7064681571"><ele>171.896</ele><time>2026-08-17T04:32:35.652Z</time><hdop>4.562</hdop><vdop>2.812</vdop><extensions><gom:speed>0.407</gom:speed></extensions></trkpt>
   <trkpt lat="59.3272924864" lon="34.7064865973"><ele>171.833</ele><time>2026-08-17T04:32:36.644Z</time><hdop>4.562</hdop><vdop>2.937</vdop><extensions><gom:speed>0.47</gom:speed></extensions></trkpt>
   <trkpt lat="59.3272925702" lon="34.7064955659"><ele>171.795</ele><time>2026-08-17T04:32:37.535Z</time><hdop>4.625</hdop><vdop>2.937</vdop><extensions><gom:speed>0.403</gom:speed></extensions></trkpt>
   <trkpt lat="59.3272915643" lon="34.706508055"><ele>171.912</ele><time>2026-08-17T04:32:38.354Z</time><hdop>4.625</hdop><vdop>2.937</vdop><extensions><gom:speed>0.408</gom:speed></extensions></trkpt>
   <trkpt lat="59.327289385" lon="34.7065238968"><ele>171.486</ele><time>2026-08-17T04:32:39.234Z</time><hdop>4.687</hdop><vdop>2.812</vdop><extensions><gom:speed>0.426</gom:speed></extensions></trkpt>
   <trkpt lat="59.3272871638" lon="34.7065338712"><ele>170.94</ele><time>2026-08-17T04:32:39.901Z</time><hdop>4.687</hdop><vdop>2.562</vdop><extensions><gom:speed>0.451</gom:speed></extensions></trkpt>
   <trkpt lat="59.327284775" lon="34.7065440972"><ele>170.467</ele><time>2026-08-17T04:32:40.644Z</time><hdop>4.75</hdop><vdop>2.5</vdop><extensions><gom:speed>0.49</gom:speed></extensions></trkpt>
   <trkpt lat="59.32728247" lon="34.706555748"><ele>170.185</ele><time>2026-08-17T04:32:41.459Z</time><hdop>4.812</hdop><vdop>2.5</vdop><extensions><gom:speed>0.536</gom:speed></extensions></trkpt>
   <trkpt lat="59.327280165" lon="34.7065712545"><ele>169.911</ele><time>2026-08-17T04:32:42.279Z</time><hdop>4.875</hdop><vdop>2.5</vdop><extensions><gom:speed>0.553</gom:speed></extensions></trkpt>
   <trkpt lat="59.327276896" lon="34.706584917"><ele>169.906</ele><time>2026-08-17T04:32:43.159Z</time><hdop>5.0</hdop><vdop>2.5</vdop><extensions><gom:speed>0.524</gom:speed></extensions></trkpt>
   <trkpt lat="59.3272734594" lon="34.7065938857"><ele>170.145</ele><time>2026-08-17T04:32:43.644Z</time><hdop>5.0</hdop><vdop>2.5</vdop><extensions><gom:speed>0.508</gom:speed></extensions></trkpt>
   <trkpt lat="59.3272720764" lon="34.7065987472"><ele>170.287</ele><time>2026-08-17T04:32:44.241Z</time><hdop>5.062</hdop><vdop>2.5</vdop><extensions><gom:speed>0.422</gom:speed></extensions></trkpt>
   <trkpt lat="59.3272687656" lon="34.7066098951"><ele>170.507</ele><time>2026-08-17T04:32:45.244Z</time><hdop>5.062</hdop><vdop>2.5</vdop><extensions><gom:speed>0.4</gom:speed></extensions></trkpt>
   <trkpt lat="59.327267173" lon="34.706618277"><ele>170.637</ele><time>2026-08-17T04:32:46.002Z</time><hdop>5.062</hdop><vdop>2.5</vdop><extensions><gom:speed>0.382</gom:speed></extensions></trkpt>
   <trkpt lat="59.3272655804" lon="34.7066264913"><ele>170.721</ele><time>2026-08-17T04:32:46.643Z</time><hdop>5.0</hdop><vdop>2.5</vdop><extensions><gom:speed>0.4</gom:speed></extensions></trkpt>
   <trkpt lat="59.3272632754" lon="34.7066350408"><ele>170.929</ele><time>2026-08-17T04:32:47.651Z</time><hdop>5.0</hdop><vdop>2.5</vdop><extensions><gom:speed>0.399</gom:speed></extensions></trkpt>
   <trkpt lat="59.3272590845" lon="34.7066466917"><ele>171.005</ele><time>2026-08-17T04:32:48.644Z</time><hdop>4.875</hdop><vdop>2.5</vdop><extensions><gom:speed>0.367</gom:speed></extensions></trkpt>
   <trkpt lat="59.3272587911" lon="34.7066515532"><ele>171.049</ele><time>2026-08-17T04:32:49.652Z</time><hdop>4.812</hdop><vdop>2.5</vdop><extensions><gom:speed>0.256</gom:speed></extensions></trkpt>
   <trkpt lat="59.3272540972" lon="34.7066563308"><ele>171.075</ele><time>2026-08-17T04:32:50.644Z</time><hdop>4.687</hdop><vdop>2.5</vdop><extensions><gom:speed>0.258</gom:speed></extensions></trkpt>
   <trkpt lat="59.3272530914" lon="34.7066568338"><ele>171.026</ele><time>2026-08-17T04:32:51.653Z</time><hdop>4.625</hdop><vdop>2.5</vdop><extensions><gom:speed>0.131</gom:speed></extensions></trkpt>
   <trkpt lat="59.3272503673" lon="34.706657169"><ele>171.045</ele><time>2026-08-17T04:32:52.644Z</time><hdop>4.5</hdop><vdop>2.5</vdop><extensions><gom:speed>0.182</gom:speed></extensions></trkpt>
   <trkpt lat="59.3272486909" lon="34.706656247"><ele>171.096</ele><time>2026-08-17T04:32:53.644Z</time><hdop>4.375</hdop><vdop>2.5</vdop><extensions><gom:speed>0.151</gom:speed></extensions></trkpt>
   <trkpt lat="59.3272478946" lon="34.7066551574"><ele>171.126</ele><time>2026-08-17T04:32:54.561Z</time><hdop>4.25</hdop><vdop>2.5</vdop><extensions><gom:speed>0.107</gom:speed></extensions></trkpt>
   <trkpt lat="59.3272464697" lon="34.7066558279"><ele>171.366</ele><time>2026-08-17T04:32:55.340Z</time><hdop>4.187</hdop><vdop>2.5</vdop><extensions><gom:speed>0.134</gom:speed></extensions></trkpt>
   <trkpt lat="59.327243075" lon="34.7066593483"><ele>171.406</ele><time>2026-08-17T04:32:56.382Z</time><hdop>4.062</hdop><vdop>2.5</vdop><extensions><gom:speed>0.18</gom:speed></extensions></trkpt>
   <trkpt lat="59.3272386745" lon="34.706664126"><ele>171.466</ele><time>2026-08-17T04:32:57.644Z</time><hdop>4.0</hdop><vdop>2.5</vdop><extensions><gom:speed>0.173</gom:speed></extensions></trkpt>
   <trkpt lat="59.3272325977" lon="34.7066679817"><ele>171.502</ele><time>2026-08-17T04:32:58.643Z</time><hdop>3.937</hdop><vdop>2.5</vdop><extensions><gom:speed>0.15</gom:speed></extensions></trkpt>
   <trkpt lat="59.3272287839" lon="34.7066700772"><ele>171.525</ele><time>2026-08-17T04:32:59.644Z</time><hdop>3.75</hdop><vdop>2.5</vdop><extensions><gom:speed>0.115</gom:speed></extensions></trkpt>
   <trkpt lat="59.3272258921" lon="34.7066718374"><ele>171.538</ele><time>2026-08-17T04:33:00.643Z</time><hdop>3.625</hdop><vdop>2.5</vdop><extensions><gom:speed>0.09</gom:speed></extensions></trkpt>
   <trkpt lat="59.3272247606" lon="34.7066719212"><ele>171.545</ele><time>2026-08-17T04:33:01.652Z</time><hdop>3.312</hdop><vdop>2.5</vdop><extensions><gom:speed>0.018</gom:speed></extensions></trkpt>
   <trkpt lat="59.327223168" lon="34.7066725917"><ele>171.549</ele><time>2026-08-17T04:33:02.644Z</time><hdop>3.0</hdop><vdop>2.5</vdop><extensions><gom:speed>0.087</gom:speed></extensions></trkpt>
   <trkpt lat="59.3272219945" lon="34.7066750225"><ele>171.552</ele><time>2026-08-17T04:33:03.652Z</time><hdop>3.0</hdop><vdop>2.5</vdop><extensions><gom:speed>0.013</gom:speed></extensions></trkpt>
   <trkpt lat="59.3272212821" lon="34.7066741843"><ele>171.555</ele><time>2026-08-17T04:33:04.653Z</time><hdop>3.0</hdop><vdop>2.5</vdop><extensions><gom:speed>0.013</gom:speed></extensions></trkpt>
   <trkpt lat="59.3272207792" lon="34.706673849"><ele>171.556</ele><time>2026-08-17T04:33:05.652Z</time><hdop>3.0</hdop><vdop>2.5</vdop><extensions><gom:speed>0.008</gom:speed></extensions></trkpt>
   <trkpt lat="59.3272205696" lon="34.7066731785"><ele>171.556</ele><time>2026-08-17T04:33:06.644Z</time><hdop>3.0</hdop><vdop>2.5</vdop><extensions><gom:speed>0.061</gom:speed></extensions></trkpt>
   <trkpt lat="59.3272206954" lon="34.7066730947"><ele>171.556</ele><time>2026-08-17T04:33:07.645Z</time><hdop>3.0</hdop><vdop>2.5</vdop><extensions><gom:speed>0.065</gom:speed></extensions></trkpt>
   <trkpt lat="59.3272211983" lon="34.7066731785"><ele>171.557</ele><time>2026-08-17T04:33:08.652Z</time><hdop>3.0</hdop><vdop>2.5</vdop><extensions><gom:speed>0.02</gom:speed></extensions></trkpt>
   <trkpt lat="59.3272209887" lon="34.7066733461"><ele>171.56</ele><time>2026-08-17T04:33:09.644Z</time><hdop>3.0</hdop><vdop>2.5</vdop><extensions><gom:speed>0.09</gom:speed></extensions></trkpt>
   <trkpt lat="59.327220863" lon="34.7066727594"><ele>171.564</ele><time>2026-08-17T04:33:10.652Z</time><hdop>3.0</hdop><vdop>2.5</vdop><extensions><gom:speed>0.018</gom:speed></extensions></trkpt>
   <trkpt lat="59.327220863" lon="34.706672927"><ele>171.566</ele><time>2026-08-17T04:33:11.644Z</time><hdop>3.0</hdop><vdop>2.5</vdop><extensions><gom:speed>0.0</gom:speed></extensions></trkpt>
   <trkpt lat="59.3272209887" lon="34.706672927"><ele>171.57</ele><time>2026-08-17T04:33:12.644Z</time><hdop>3.0</hdop><vdop>2.5</vdop><extensions><gom:speed>0.013</gom:speed></extensions></trkpt>
   <trkpt lat="59.3272209887" lon="34.7066731785"><ele>171.578</ele><time>2026-08-17T04:33:13.652Z</time><hdop>3.0</hdop><vdop>2.5</vdop><extensions><gom:speed>0.014</gom:speed></extensions></trkpt>
   <trkpt lat="59.327220863" lon="34.7066735976"><ele>171.585</ele><time>2026-08-17T04:33:14.664Z</time><hdop>3.0</hdop><vdop>2.5</vdop><extensions><gom:speed>0.025</gom:speed></extensions></trkpt>
   <trkpt lat="59.3272206954" lon="34.7066741843"><ele>171.603</ele><time>2026-08-17T04:33:15.644Z</time><hdop>3.0</hdop><vdop>2.5</vdop><extensions><gom:speed>0.04</gom:speed></extensions></trkpt>
   <trkpt lat="59.3272204858" lon="34.7066749387"><ele>171.63</ele><time>2026-08-17T04:33:16.644Z</time><hdop>3.0</hdop><vdop>2.5</vdop><extensions><gom:speed>0.043</gom:speed></extensions></trkpt>
   <trkpt lat="59.3272204858" lon="34.7066757769"><ele>171.645</ele><time>2026-08-17T04:33:17.652Z</time><hdop>3.0</hdop><vdop>2.5</vdop><extensions><gom:speed>0.044</gom:speed></extensions></trkpt>
   <trkpt lat="59.3272204858" lon="34.7066764474"><ele>171.655</ele><time>2026-08-17T04:33:18.652Z</time><hdop>3.0</hdop><vdop>2.5</vdop><extensions><gom:speed>0.048</gom:speed></extensions></trkpt>
   <trkpt lat="59.3272204858" lon="34.7066772856"><ele>171.661</ele><time>2026-08-17T04:33:19.652Z</time><hdop>3.0</hdop><vdop>2.5</vdop><extensions><gom:speed>0.05</gom:speed></extensions></trkpt>
   <trkpt lat="59.3272204858" lon="34.7066779562"><ele>171.664</ele><time>2026-08-17T04:33:20.652Z</time><hdop>3.0</hdop><vdop>2.5</vdop><extensions><gom:speed>0.056</gom:speed></extensions></trkpt>
   <trkpt lat="59.3272205696" lon="34.7066787943"><ele>171.666</ele><time>2026-08-17T04:33:21.665Z</time><hdop>3.0</hdop><vdop>2.5</vdop><extensions><gom:speed>0.059</gom:speed></extensions></trkpt>
   <trkpt lat="59.3272205696" lon="34.7066794649"><ele>171.551</ele><time>2026-08-17T04:33:22.652Z</time><hdop>3.0</hdop><vdop>2.5</vdop><extensions><gom:speed>0.062</gom:speed></extensions></trkpt>
   <trkpt lat="59.3272205696" lon="34.706679884"><ele>171.483</ele><time>2026-08-17T04:33:23.354Z</time><hdop>3.0</hdop><vdop>2.5</vdop><extensions><gom:speed>0.065</gom:speed></extensions></trkpt>
   <trkpt lat="59.3272206954" lon="34.7066825662"><ele>171.358</ele><time>2026-08-17T04:33:24.234Z</time><hdop>3.0</hdop><vdop>2.5</vdop><extensions><gom:speed>0.377</gom:speed></extensions></trkpt>
   <trkpt lat="59.3272212821" lon="34.7066882659"><ele>171.043</ele><time>2026-08-17T04:33:25.644Z</time><hdop>3.0</hdop><vdop>2.5</vdop><extensions><gom:speed>0.297</gom:speed></extensions></trkpt>
   <trkpt lat="59.3272218688" lon="34.7066927921"><ele>170.732</ele><time>2026-08-17T04:33:26.652Z</time><hdop>3.0</hdop><vdop>2.5</vdop><extensions><gom:speed>0.314</gom:speed></extensions></trkpt>
   <trkpt lat="59.3272228746" lon="34.7066966478"><ele>170.6</ele><time>2026-08-17T04:33:27.652Z</time><hdop>3.0</hdop><vdop>2.5</vdop><extensions><gom:speed>0.264</gom:speed></extensions></trkpt>
   <trkpt lat="59.32722409" lon="34.7066997491"><ele>170.364</ele><time>2026-08-17T04:33:28.652Z</time><hdop>3.0</hdop><vdop>2.5</vdop><extensions><gom:speed>0.226</gom:speed></extensions></trkpt>
   <trkpt lat="59.3272255988" lon="34.7067034371"><ele>170.217</ele><time>2026-08-17T04:33:29.652Z</time><hdop>3.0</hdop><vdop>2.5</vdop><extensions><gom:speed>0.31</gom:speed></extensions></trkpt>
   <trkpt lat="59.3272266884" lon="34.7067052812"><ele>170.092</ele><time>2026-08-17T04:33:30.652Z</time><hdop>3.0</hdop><vdop>2.5</vdop><extensions><gom:speed>0.093</gom:speed></extensions></trkpt>
   <trkpt lat="59.3272277781" lon="34.7067110647"><ele>170.013</ele><time>2026-08-17T04:33:31.645Z</time><hdop>3.0</hdop><vdop>2.5</vdop><extensions><gom:speed>0.115</gom:speed></extensions></trkpt>
   <trkpt lat="59.3272286582" lon="34.7067149203"><ele>169.94</ele><time>2026-08-17T04:33:32.644Z</time><hdop>3.0</hdop><vdop>2.5</vdop><extensions><gom:speed>0.403</gom:speed></extensions></trkpt>
   <trkpt lat="59.3272290773" lon="34.7067186922"><ele>169.897</ele><time>2026-08-17T04:33:33.240Z</time><hdop>3.0</hdop><vdop>2.5</vdop><extensions><gom:speed>0.441</gom:speed></extensions></trkpt>
   <trkpt lat="59.3272331844" lon="34.7067262359"><ele>169.862</ele><time>2026-08-17T04:33:34.463Z</time><hdop>3.0</hdop><vdop>2.5</vdop><extensions><gom:speed>0.227</gom:speed></extensions></trkpt>
   <trkpt lat="59.3272355732" lon="34.7067291696"><ele>169.915</ele><time>2026-08-17T04:33:35.061Z</time><hdop>3.0</hdop><vdop>2.5</vdop><extensions><gom:speed>0.202</gom:speed></extensions></trkpt>
   <trkpt lat="59.3272369982" lon="34.7067341987"><ele>170.098</ele><time>2026-08-17T04:33:35.643Z</time><hdop>3.0</hdop><vdop>2.5</vdop><extensions><gom:speed>0.247</gom:speed></extensions></trkpt>
   <trkpt lat="59.3272378783" lon="34.7067385573"><ele>170.208</ele><time>2026-08-17T04:33:36.537Z</time><hdop>3.0</hdop><vdop>2.5</vdop><extensions><gom:speed>0.256</gom:speed></extensions></trkpt>
   <trkpt lat="59.3272368724" lon="34.7067509625"><ele>170.369</ele><time>2026-08-17T04:33:37.357Z</time><hdop>3.0</hdop><vdop>2.5</vdop><extensions><gom:speed>0.401</gom:speed></extensions></trkpt>
   <trkpt lat="59.327235699" lon="34.7067633677"><ele>170.349</ele><time>2026-08-17T04:33:38.075Z</time><hdop>3.0</hdop><vdop>2.5</vdop><extensions><gom:speed>0.459</gom:speed></extensions></trkpt>
   <trkpt lat="59.3272354894" lon="34.7067735937"><ele>170.231</ele><time>2026-08-17T04:33:38.644Z</time><hdop>3.0</hdop><vdop>2.625</vdop><extensions><gom:speed>0.513</gom:speed></extensions></trkpt>
   <trkpt lat="59.3272378783" lon="34.7067829814"><ele>169.934</ele><time>2026-08-17T04:33:39.653Z</time><hdop>3.0</hdop><vdop>2.5</vdop><extensions><gom:speed>0.403</gom:speed></extensions></trkpt>
   <trkpt lat="59.3272400995" lon="34.7067920339"><ele>169.582</ele><time>2026-08-17T04:33:40.644Z</time><hdop>3.0</hdop><vdop>2.5</vdop><extensions><gom:speed>0.405</gom:speed></extensions></trkpt>
   <trkpt lat="59.3272426978" lon="34.7067966439"><ele>169.372</ele><time>2026-08-17T04:33:41.494Z</time><hdop>3.0</hdop><vdop>2.5</vdop><extensions><gom:speed>0.392</gom:speed></extensions></trkpt>
   <trkpt lat="59.3272455896" lon="34.7068083786"><ele>169.196</ele><time>2026-08-17T04:33:42.294Z</time><hdop>3.0</hdop><vdop>2.5</vdop><extensions><gom:speed>0.446</gom:speed></extensions></trkpt>
   <trkpt lat="59.3272483975" lon="34.7068187721"><ele>168.926</ele><time>2026-08-17T04:33:43.062Z</time><hdop>3.0</hdop><vdop>2.5</vdop><extensions><gom:speed>0.52</gom:speed></extensions></trkpt>
   <trkpt lat="59.3272509959" lon="34.7068286628"><ele>168.639</ele><time>2026-08-17T04:33:43.644Z</time><hdop>3.0</hdop><vdop>2.5</vdop><extensions><gom:speed>0.59</gom:speed></extensions></trkpt>
   <trkpt lat="59.3272550612" lon="34.7068393916"><ele>168.467</ele><time>2026-08-17T04:33:44.641Z</time><hdop>3.0</hdop><vdop>2.5</vdop><extensions><gom:speed>0.572</gom:speed></extensions></trkpt>
   <trkpt lat="59.3272585816" lon="34.706852635"><ele>168.434</ele><time>2026-08-17T04:33:45.440Z</time><hdop>3.0</hdop><vdop>2.5</vdop><extensions><gom:speed>0.561</gom:speed></extensions></trkpt>
   <trkpt lat="59.327261599" lon="34.7068643697"><ele>168.397</ele><time>2026-08-17T04:33:46.340Z</time><hdop>3.0</hdop><vdop>2.5</vdop><extensions><gom:speed>0.605</gom:speed></extensions></trkpt>
   <trkpt lat="59.3272644908" lon="34.7068708237"><ele>168.114</ele><time>2026-08-17T04:33:47.119Z</time><hdop>3.0</hdop><vdop>2.5</vdop><extensions><gom:speed>0.54</gom:speed></extensions></trkpt>
   <trkpt lat="59.3272665863" lon="34.7068755176"><ele>168.105</ele><time>2026-08-17T04:33:47.644Z</time><hdop>3.0</hdop><vdop>2.5</vdop><extensions><gom:speed>0.467</gom:speed></extensions></trkpt>
   <trkpt lat="59.3272715735" lon="34.7068848215"><ele>168.264</ele><time>2026-08-17T04:33:48.644Z</time><hdop>3.0</hdop><vdop>2.5</vdop><extensions><gom:speed>0.599</gom:speed></extensions></trkpt>
   <trkpt lat="59.3272767703" lon="34.7068894316"><ele>168.329</ele><time>2026-08-17T04:33:49.644Z</time><hdop>3.0</hdop><vdop>2.5</vdop><extensions><gom:speed>0.444</gom:speed></extensions></trkpt>
   <trkpt lat="59.3272802907" lon="34.706889683"><ele>168.367</ele><time>2026-08-17T04:33:50.601Z</time><hdop>3.0</hdop><vdop>2.5</vdop><extensions><gom:speed>0.382</gom:speed></extensions></trkpt>
   <trkpt lat="59.3272853617" lon="34.7068967238"><ele>168.261</ele><time>2026-08-17T04:33:51.652Z</time><hdop>3.0</hdop><vdop>2.5</vdop><extensions><gom:speed>0.454</gom:speed></extensions></trkpt>
   <trkpt lat="59.3272853617" lon="34.7069001604"><ele>168.197</ele><time>2026-08-17T04:33:52.319Z</time><hdop>3.0</hdop><vdop>2.5</vdop><extensions><gom:speed>0.278</gom:speed></extensions></trkpt>
   <trkpt lat="59.3272855713" lon="34.7069046866"><ele>168.116</ele><time>2026-08-17T04:33:53.140Z</time><hdop>3.0</hdop><vdop>2.5</vdop><extensions><gom:speed>0.224</gom:speed></extensions></trkpt>
   <trkpt lat="59.3272857808" lon="34.706905441"><ele>168.06</ele><time>2026-08-17T04:33:53.652Z</time><hdop>3.0</hdop><vdop>2.5</vdop><extensions><gom:speed>0.157</gom:speed></extensions></trkpt>
   <trkpt lat="59.3272872896" lon="34.7069115598"><ele>168.035</ele><time>2026-08-17T04:33:54.644Z</time><hdop>3.0</hdop><vdop>2.5</vdop><extensions><gom:speed>0.184</gom:speed></extensions></trkpt>
   <trkpt lat="59.3272879601" lon="34.7069130685"><ele>168.021</ele><time>2026-08-17T04:33:55.314Z</time><hdop>3.0</hdop><vdop>2.5</vdop><extensions><gom:speed>0.165</gom:speed></extensions></trkpt>
   <trkpt lat="59.3272883792" lon="34.706915164"><ele>168.023</ele><time>2026-08-17T04:33:56.103Z</time><hdop>3.0</hdop><vdop>2.5</vdop><extensions><gom:speed>0.136</gom:speed></extensions></trkpt>
   <trkpt lat="59.327288966" lon="34.7069207799"><ele>168.013</ele><time>2026-08-17T04:33:56.644Z</time><hdop>3.0</hdop><vdop>2.5</vdop><extensions><gom:speed>0.142</gom:speed></extensions></trkpt>
   <trkpt lat="59.3272886726" lon="34.7069236297"><ele>167.922</ele><time>2026-08-17T04:33:57.652Z</time><hdop>3.0</hdop><vdop>2.5</vdop><extensions><gom:speed>0.164</gom:speed></extensions></trkpt>
   <trkpt lat="59.3272885888" lon="34.706928156"><ele>167.868</ele><time>2026-08-17T04:33:58.238Z</time><hdop>3.0</hdop><vdop>2.5</vdop><extensions><gom:speed>0.196</gom:speed></extensions></trkpt>
   <trkpt lat="59.327289385" lon="34.7069357835"><ele>167.489</ele><time>2026-08-17T04:33:59.644Z</time><hdop>3.0</hdop><vdop>2.5</vdop><extensions><gom:speed>0.193</gom:speed></extensions></trkpt>
   <trkpt lat="59.3272890917" lon="34.7069413994"><ele>167.262</ele><time>2026-08-17T04:34:00.595Z</time><hdop>3.0</hdop><vdop>2.5</vdop><extensions><gom:speed>0.198</gom:speed></extensions></trkpt>
   <trkpt lat="59.3272880859" lon="34.7069456741"><ele>166.954</ele><time>2026-08-17T04:34:01.643Z</time><hdop>3.0</hdop><vdop>2.5</vdop><extensions><gom:speed>0.171</gom:speed></extensions></trkpt>
   <trkpt lat="59.3272876668" lon="34.7069480211"><ele>166.769</ele><time>2026-08-17T04:34:02.644Z</time><hdop>3.0</hdop><vdop>2.5</vdop><extensions><gom:speed>0.126</gom:speed></extensions></trkpt>
   <trkpt lat="59.3272869962" lon="34.7069496975"><ele>166.657</ele><time>2026-08-17T04:34:03.644Z</time><hdop>3.0</hdop><vdop>2.5</vdop><extensions><gom:speed>0.112</gom:speed></extensions></trkpt>
   <trkpt lat="59.327285697" lon="34.7069506195"><ele>166.59</ele><time>2026-08-17T04:34:04.645Z</time><hdop>3.0</hdop><vdop>2.5</vdop><extensions><gom:speed>0.107</gom:speed></extensions></trkpt>
   <trkpt lat="59.3272851941" lon="34.7069502842"><ele>166.55</ele><time>2026-08-17T04:34:05.652Z</time><hdop>3.0</hdop><vdop>2.5</vdop><extensions><gom:speed>0.017</gom:speed></extensions></trkpt>
   <trkpt lat="59.3272843978" lon="34.7069495298"><ele>166.525</ele><time>2026-08-17T04:34:06.644Z</time><hdop>3.0</hdop><vdop>2.5</vdop><extensions><gom:speed>0.086</gom:speed></extensions></trkpt>
   <trkpt lat="59.3272843978" lon="34.7069492784"><ele>166.51</ele><time>2026-08-17T04:34:07.333Z</time><hdop>3.0</hdop><vdop>2.5</vdop><extensions><gom:speed>0.073</gom:speed></extensions></trkpt>
   <trkpt lat="59.3272844816" lon="34.7069481887"><ele>166.498</ele><time>2026-08-17T04:34:08.648Z</time><hdop>3.0</hdop><vdop>2.5</vdop><extensions><gom:speed>0.09</gom:speed></extensions></trkpt>
   <trkpt lat="59.3272839787" lon="34.7069489431"><ele>166.49</ele><time>2026-08-17T04:34:09.645Z</time><hdop>3.0</hdop><vdop>2.5</vdop><extensions><gom:speed>0.087</gom:speed></extensions></trkpt>
   <trkpt lat="59.3272838949" lon="34.7069493622"><ele>166.487</ele><time>2026-08-17T04:34:10.644Z</time><hdop>3.0</hdop><vdop>2.5</vdop><extensions><gom:speed>0.089</gom:speed></extensions></trkpt>
   <trkpt lat="59.3272839787" lon="34.7069493622"><ele>166.485</ele><time>2026-08-17T04:34:11.644Z</time><hdop>3.0</hdop><vdop>2.5</vdop><extensions><gom:speed>0.089</gom:speed></extensions></trkpt>
   <trkpt lat="59.3272840625" lon="34.7069490269"><ele>166.484</ele><time>2026-08-17T04:34:12.643Z</time><hdop>3.0</hdop><vdop>2.5</vdop><extensions><gom:speed>0.092</gom:speed></extensions></trkpt>
   <trkpt lat="59.3272836854" lon="34.706948524"><ele>166.483</ele><time>2026-08-17T04:34:13.644Z</time><hdop>3.0</hdop><vdop>2.5</vdop><extensions><gom:speed>0.089</gom:speed></extensions></trkpt>
   <trkpt lat="59.3272838949" lon="34.706949446"><ele>166.484</ele><time>2026-08-17T04:34:14.644Z</time><hdop>3.0</hdop><vdop>2.5</vdop><extensions><gom:speed>0.094</gom:speed></extensions></trkpt>
   <trkpt lat="59.3272832663" lon="34.7069499489"><ele>166.484</ele><time>2026-08-17T04:34:15.644Z</time><hdop>3.0</hdop><vdop>2.5</vdop><extensions><gom:speed>0.0</gom:speed></extensions></trkpt>
   <trkpt lat="59.3272829729" lon="34.7069497813"><ele>166.484</ele><time>2026-08-17T04:34:16.644Z</time><hdop>3.0</hdop><vdop>2.5</vdop><extensions><gom:speed>0.009</gom:speed></extensions></trkpt>
   <trkpt lat="59.3272828891" lon="34.7069498651"><ele>166.49</ele><time>2026-08-17T04:34:17.643Z</time><hdop>3.0</hdop><vdop>2.5</vdop><extensions><gom:speed>0.019</gom:speed></extensions></trkpt>
   <trkpt lat="59.3272829729" lon="34.7069501166"><ele>166.493</ele><time>2026-08-17T04:34:18.644Z</time><hdop>3.0</hdop><vdop>2.5</vdop><extensions><gom:speed>0.029</gom:speed></extensions></trkpt>
   <trkpt lat="59.3272830986" lon="34.7069504518"><ele>166.514</ele><time>2026-08-17T04:34:19.643Z</time><hdop>3.0</hdop><vdop>2.5</vdop><extensions><gom:speed>0.036</gom:speed></extensions></trkpt>
   <trkpt lat="59.3272830986" lon="34.7069507871"><ele>166.505</ele><time>2026-08-17T04:34:20.644Z</time><hdop>3.0</hdop><vdop>2.5</vdop><extensions><gom:speed>0.04</gom:speed></extensions></trkpt>
   <trkpt lat="59.3272830986" lon="34.7069510386"><ele>166.503</ele><time>2026-08-17T04:34:21.644Z</time><hdop>3.0</hdop><vdop>2.5</vdop><extensions><gom:speed>0.047</gom:speed></extensions></trkpt>
   <trkpt lat="59.3272830986" lon="34.7069515415"><ele>166.504</ele><time>2026-08-17T04:34:22.644Z</time><hdop>3.0</hdop><vdop>2.5</vdop><extensions><gom:speed>0.048</gom:speed></extensions></trkpt>
   <trkpt lat="59.3272830986" lon="34.7069517929"><ele>166.505</ele><time>2026-08-17T04:34:23.643Z</time><hdop>3.0</hdop><vdop>2.5</vdop><extensions><gom:speed>0.051</gom:speed></extensions></trkpt>
   <trkpt lat="59.3272831824" lon="34.7069523797"><ele>166.505</ele><time>2026-08-17T04:34:24.652Z</time><hdop>3.0</hdop><vdop>2.5</vdop><extensions><gom:speed>0.052</gom:speed></extensions></trkpt>
   <trkpt lat="59.3272831824" lon="34.7069527988"><ele>166.505</ele><time>2026-08-17T04:34:25.645Z</time><hdop>3.0</hdop><vdop>2.5</vdop><extensions><gom:speed>0.055</gom:speed></extensions></trkpt>
   <trkpt lat="59.3272829729" lon="34.7069530502"><ele>166.504</ele><time>2026-08-17T04:34:26.657Z</time><hdop>3.0</hdop><vdop>2.5</vdop><extensions><gom:speed>0.058</gom:speed></extensions></trkpt>
   <trkpt lat="59.3272827633" lon="34.706953134"><ele>166.503</ele><time>2026-08-17T04:34:27.645Z</time><hdop>3.0</hdop><vdop>2.5</vdop><extensions><gom:speed>0.063</gom:speed></extensions></trkpt>
   <trkpt lat="59.3272826795" lon="34.7069533855"><ele>166.5</ele><time>2026-08-17T04:34:28.644Z</time><hdop>3.0</hdop><vdop>2.5</vdop><extensions><gom:speed>0.064</gom:speed></extensions></trkpt>
   <trkpt lat="59.3272825957" lon="34.7069535531"><ele>166.496</ele><time>2026-08-17T04:34:29.644Z</time><hdop>3.0</hdop><vdop>2.5</vdop><extensions><gom:speed>0.066</gom:speed></extensions></trkpt>
   <trkpt lat="59.3272825957" lon="34.7069535531"><ele>166.493</ele><time>2026-08-17T04:34:30.199Z</time><hdop>3.0</hdop><vdop>2.5</vdop><extensions><gom:speed>0.066</gom:speed></extensions></trkpt>
   <trkpt lat="59.3272825957" lon="34.7069542237"><ele>166.489</ele><time>2026-08-17T04:34:31.644Z</time><hdop>3.0</hdop><vdop>2.5</vdop><extensions><gom:speed>0.071</gom:speed></extensions></trkpt>
   <trkpt lat="59.3272825957" lon="34.7069546428"><ele>166.484</ele><time>2026-08-17T04:34:32.644Z</time><hdop>3.0</hdop><vdop>2.5</vdop><extensions><gom:speed>0.071</gom:speed></extensions></trkpt>
   <trkpt lat="59.3272825957" lon="34.7069552295"><ele>166.48</ele><time>2026-08-17T04:34:33.653Z</time><hdop>3.0</hdop><vdop>2.5</vdop><extensions><gom:speed>0.071</gom:speed></extensions></trkpt>
   <trkpt lat="59.3272825957" lon="34.7069558162"><ele>166.519</ele><time>2026-08-17T04:34:34.644Z</time><hdop>3.0</hdop><vdop>2.5</vdop><extensions><gom:speed>0.316</gom:speed></extensions></trkpt>
   <trkpt lat="59.3272834758" lon="34.7069586661"><ele>166.542</ele><time>2026-08-17T04:34:35.519Z</time><hdop>3.0</hdop><vdop>2.5</vdop><extensions><gom:speed>0.347</gom:speed></extensions></trkpt>
   <trkpt lat="59.3272867867" lon="34.7069632761"><ele>166.299</ele><time>2026-08-17T04:34:36.644Z</time><hdop>3.0</hdop><vdop>2.5</vdop><extensions><gom:speed>0.198</gom:speed></extensions></trkpt>
   <trkpt lat="59.3272869962" lon="34.7069643658"><ele>166.153</ele><time>2026-08-17T04:34:37.614Z</time><hdop>3.0</hdop><vdop>2.5</vdop><extensions><gom:speed>0.192</gom:speed></extensions></trkpt>
   <trkpt lat="59.3272915643" lon="34.7069786988"><ele>165.654</ele><time>2026-08-17T04:34:38.644Z</time><hdop>3.0</hdop><vdop>2.5</vdop><extensions><gom:speed>0.258</gom:speed></extensions></trkpt>
   <trkpt lat="59.3272925702" lon="34.70698926"><ele>165.441</ele><time>2026-08-17T04:34:39.644Z</time><hdop>3.062</hdop><vdop>2.5</vdop><extensions><gom:speed>0.106</gom:speed></extensions></trkpt>
   <trkpt lat="59.3272916901" lon="34.706996217"><ele>165.071</ele><time>2026-08-17T04:34:40.644Z</time><hdop>3.125</hdop><vdop>2.5</vdop><extensions><gom:speed>0.13</gom:speed></extensions></trkpt>
   <trkpt lat="59.3272887983" lon="34.7070051857"><ele>164.609</ele><time>2026-08-17T04:34:41.645Z</time><hdop>3.062</hdop><vdop>2.5</vdop><extensions><gom:speed>0.152</gom:speed></extensions></trkpt>
   <trkpt lat="59.3272858646" lon="34.7070126455"><ele>164.25</ele><time>2026-08-17T04:34:42.644Z</time><hdop>3.125</hdop><vdop>2.5</vdop><extensions><gom:speed>0.142</gom:speed></extensions></trkpt>
   <trkpt lat="59.3272849845" lon="34.7070140705"><ele>164.036</ele><time>2026-08-17T04:34:43.137Z</time><hdop>3.125</hdop><vdop>2.5</vdop><extensions><gom:speed>0.138</gom:speed></extensions></trkpt>
   <trkpt lat="59.3272828891" lon="34.7070182614"><ele>164.009</ele><time>2026-08-17T04:34:43.643Z</time><hdop>3.062</hdop><vdop>2.5</vdop><extensions><gom:speed>0.191</gom:speed></extensions></trkpt>
   <trkpt lat="59.327280165" lon="34.7070243802"><ele>163.856</ele><time>2026-08-17T04:34:44.643Z</time><hdop>3.0</hdop><vdop>2.5</vdop><extensions><gom:speed>0.176</gom:speed></extensions></trkpt>
   <trkpt lat="59.3272795782" lon="34.7070263919"><ele>163.765</ele><time>2026-08-17T04:34:45.576Z</time><hdop>3.0</hdop><vdop>2.5</vdop><extensions><gom:speed>0.169</gom:speed></extensions></trkpt>
   <trkpt lat="59.3272771894" lon="34.7070316725"><ele>163.72</ele><time>2026-08-17T04:34:46.375Z</time><hdop>3.0</hdop><vdop>2.5</vdop><extensions><gom:speed>0.11</gom:speed></extensions></trkpt>
   <trkpt lat="59.3272751777" lon="34.7070368692"><ele>163.681</ele><time>2026-08-17T04:34:46.891Z</time><hdop>3.0</hdop><vdop>2.5</vdop><extensions><gom:speed>0.101</gom:speed></extensions></trkpt>
   <trkpt lat="59.3272725793" lon="34.7070436586"><ele>163.58</ele><time>2026-08-17T04:34:47.644Z</time><hdop>3.0</hdop><vdop>2.5</vdop><extensions><gom:speed>0.128</gom:speed></extensions></trkpt>
   <trkpt lat="59.3272717831" lon="34.7070464246"><ele>163.519</ele><time>2026-08-17T04:34:48.500Z</time><hdop>3.0</hdop><vdop>2.5</vdop><extensions><gom:speed>0.127</gom:speed></extensions></trkpt>
   <trkpt lat="59.3272679693" lon="34.7070575726"><ele>163.249</ele><time>2026-08-17T04:34:49.644Z</time><hdop>3.0</hdop><vdop>2.5</vdop><extensions><gom:speed>0.145</gom:speed></extensions></trkpt>
   <trkpt lat="59.3272670892" lon="34.70706059"><ele>163.191</ele><time>2026-08-17T04:34:50.652Z</time><hdop>3.0</hdop><vdop>2.5</vdop><extensions><gom:speed>0.148</gom:speed></extensions></trkpt>
   <trkpt lat="59.3272661672" lon="34.7070655354"><ele>163.156</ele><time>2026-08-17T04:34:51.201Z</time><hdop>3.0</hdop><vdop>2.5</vdop><extensions><gom:speed>0.199</gom:speed></extensions></trkpt>
   <trkpt lat="59.3272650775" lon="34.707076348"><ele>163.169</ele><time>2026-08-17T04:34:52.354Z</time><hdop>3.0</hdop><vdop>2.5</vdop><extensions><gom:speed>0.202</gom:speed></extensions></trkpt>
   <trkpt lat="59.3272652871" lon="34.7070938662"><ele>163.431</ele><time>2026-08-17T04:34:53.645Z</time><hdop>3.0</hdop><vdop>2.5</vdop><extensions><gom:speed>0.167</gom:speed></extensions></trkpt>
   <trkpt lat="59.3272661672" lon="34.7071042598"><ele>163.617</ele><time>2026-08-17T04:34:54.643Z</time><hdop>3.0</hdop><vdop>2.562</vdop><extensions><gom:speed>0.134</gom:speed></extensions></trkpt>
   <trkpt lat="59.3272668796" lon="34.7071058523"><ele>163.683</ele><time>2026-08-17T04:34:55.652Z</time><hdop>3.0</hdop><vdop>2.562</vdop><extensions><gom:speed>0.069</gom:speed></extensions></trkpt>
   <trkpt lat="59.3272665863" lon="34.7071230352"><ele>163.789</ele><time>2026-08-17T04:34:56.645Z</time><hdop>3.0</hdop><vdop>2.625</vdop><extensions><gom:speed>0.13</gom:speed></extensions></trkpt>
   <trkpt lat="59.3272660834" lon="34.7071284835"><ele>163.859</ele><time>2026-08-17T04:34:57.652Z</time><hdop>3.0</hdop><vdop>2.875</vdop><extensions><gom:speed>0.082</gom:speed></extensions></trkpt>
   <trkpt lat="59.3272655804" lon="34.7071349375"><ele>163.9</ele><time>2026-08-17T04:34:58.121Z</time><hdop>3.0</hdop><vdop>2.875</vdop><extensions><gom:speed>0.131</gom:speed></extensions></trkpt>
   <trkpt lat="59.3272649937" lon="34.7071392961"><ele>163.925</ele><time>2026-08-17T04:34:58.637Z</time><hdop>3.0</hdop><vdop>2.875</vdop><extensions><gom:speed>0.16</gom:speed></extensions></trkpt>
   <trkpt lat="59.3272641974" lon="34.7071475942"><ele>164.066</ele><time>2026-08-17T04:34:59.537Z</time><hdop>3.0</hdop><vdop>2.937</vdop><extensions><gom:speed>0.162</gom:speed></extensions></trkpt>
   <trkpt lat="59.3272646584" lon="34.7071552217"><ele>164.044</ele><time>2026-08-17T04:35:00.652Z</time><hdop>3.0</hdop><vdop>2.875</vdop><extensions><gom:speed>0.179</gom:speed></extensions></trkpt>
   <trkpt lat="59.3272684722" lon="34.7071712312"><ele>164.156</ele><time>2026-08-17T04:35:01.644Z</time><hdop>3.0</hdop><vdop>2.812</vdop><extensions><gom:speed>0.194</gom:speed></extensions></trkpt>
   <trkpt lat="59.3272700648" lon="34.7071762603"><ele>164.224</ele><time>2026-08-17T04:35:02.340Z</time><hdop>3.0</hdop><vdop>2.812</vdop><extensions><gom:speed>0.231</gom:speed></extensions></trkpt>
   <trkpt lat="59.3272717831" lon="34.7071844746"><ele>164.214</ele><time>2026-08-17T04:35:03.098Z</time><hdop>3.0</hdop><vdop>2.812</vdop><extensions><gom:speed>0.257</gom:speed></extensions></trkpt>
   <trkpt lat="59.327272286" lon="34.7071895875"><ele>164.208</ele><time>2026-08-17T04:35:03.652Z</time><hdop>3.0</hdop><vdop>2.875</vdop><extensions><gom:speed>0.272</gom:speed></extensions></trkpt>
   <trkpt lat="59.3272726632" lon="34.7072018251"><ele>164.204</ele><time>2026-08-17T04:35:04.262Z</time><hdop>3.0</hdop><vdop>2.875</vdop><extensions><gom:speed>0.262</gom:speed></extensions></trkpt>
   <trkpt lat="59.3272719926" lon="34.7072077763"><ele>164.178</ele><time>2026-08-17T04:35:05.041Z</time><hdop>3.0</hdop><vdop>3.125</vdop><extensions><gom:speed>0.246</gom:speed></extensions></trkpt>
   <trkpt lat="59.3272709868" lon="34.7072133921"><ele>164.253</ele><time>2026-08-17T04:35:05.644Z</time><hdop>3.0</hdop><vdop>3.125</vdop><extensions><gom:speed>0.285</gom:speed></extensions></trkpt>
   <trkpt lat="59.3272698971" lon="34.707221774"><ele>164.281</ele><time>2026-08-17T04:35:06.643Z</time><hdop>3.0</hdop><vdop>2.937</vdop><extensions><gom:speed>0.298</gom:speed></extensions></trkpt>
   <trkpt lat="59.3272697714" lon="34.7072267194"><ele>164.298</ele><time>2026-08-17T04:35:07.540Z</time><hdop>3.0</hdop><vdop>2.937</vdop><extensions><gom:speed>0.287</gom:speed></extensions></trkpt>
   <trkpt lat="59.3272715735" lon="34.7072351851"><ele>164.171</ele><time>2026-08-17T04:35:08.644Z</time><hdop>3.0</hdop><vdop>3.437</vdop><extensions><gom:speed>0.243</gom:speed></extensions></trkpt>
   <trkpt lat="59.3272718669" lon="34.7072361909"><ele>164.094</ele><time>2026-08-17T04:35:09.250Z</time><hdop>3.0</hdop><vdop>3.437</vdop><extensions><gom:speed>0.213</gom:speed></extensions></trkpt>
   <trkpt lat="59.3272721602" lon="34.7072446566"><ele>164.06</ele><time>2026-08-17T04:35:10.454Z</time><hdop>3.0</hdop><vdop>3.312</vdop><extensions><gom:speed>0.208</gom:speed></extensions></trkpt>
   <trkpt lat="59.3272707772" lon="34.7072494343"><ele>163.811</ele><time>2026-08-17T04:35:11.142Z</time><hdop>3.0</hdop><vdop>3.375</vdop><extensions><gom:speed>0.218</gom:speed></extensions></trkpt>
   <trkpt lat="59.3272695618" lon="34.7072531224"><ele>163.748</ele><time>2026-08-17T04:35:11.644Z</time><hdop>3.0</hdop><vdop>3.125</vdop><extensions><gom:speed>0.184</gom:speed></extensions></trkpt>
   <trkpt lat="59.3272679693" lon="34.7072575648"><ele>163.692</ele><time>2026-08-17T04:35:12.644Z</time><hdop>3.0</hdop><vdop>3.125</vdop><extensions><gom:speed>0.176</gom:speed></extensions></trkpt>
   <trkpt lat="59.3272669635" lon="34.7072615881"><ele>163.66</ele><time>2026-08-17T04:35:13.644Z</time><hdop>3.0</hdop><vdop>2.937</vdop><extensions><gom:speed>0.152</gom:speed></extensions></trkpt>
   <trkpt lat="59.327267173" lon="34.7072613366"><ele>163.641</ele><time>2026-08-17T04:35:14.652Z</time><hdop>3.0</hdop><vdop>2.875</vdop><extensions><gom:speed>0.034</gom:speed></extensions></trkpt>
   <trkpt lat="59.3272659995" lon="34.7072647732"><ele>163.63</ele><time>2026-08-17T04:35:15.644Z</time><hdop>3.0</hdop><vdop>2.812</vdop><extensions><gom:speed>0.1</gom:speed></extensions></trkpt>
   <trkpt lat="59.3272651613" lon="34.7072658628"><ele>163.623</ele><time>2026-08-17T04:35:16.643Z</time><hdop>3.0</hdop><vdop>2.687</vdop><extensions><gom:speed>0.092</gom:speed></extensions></trkpt>
   <trkpt lat="59.3272645746" lon="34.7072665334"><ele>163.62</ele><time>2026-08-17T04:35:17.647Z</time><hdop>3.0</hdop><vdop>2.625</vdop><extensions><gom:speed>0.105</gom:speed></extensions></trkpt>
   <trkpt lat="59.3272636945" lon="34.707268126"><ele>163.621</ele><time>2026-08-17T04:35:18.643Z</time><hdop>3.0</hdop><vdop>2.5</vdop><extensions><gom:speed>0.085</gom:speed></extensions></trkpt>
   <trkpt lat="59.3272630659" lon="34.7072707243"><ele>163.748</ele><time>2026-08-17T04:35:19.644Z</time><hdop>3.0</hdop><vdop>2.5</vdop><extensions><gom:speed>0.104</gom:speed></extensions></trkpt>
   <trkpt lat="59.3272629821" lon="34.7072711434"><ele>163.825</ele><time>2026-08-17T04:35:20.378Z</time><hdop>3.0</hdop><vdop>2.5</vdop><extensions><gom:speed>0.086</gom:speed></extensions></trkpt>
   <trkpt lat="59.3272633592" lon="34.7072739933"><ele>163.897</ele><time>2026-08-17T04:35:21.652Z</time><hdop>3.0</hdop><vdop>2.5</vdop><extensions><gom:speed>0.022</gom:speed></extensions></trkpt>
   <trkpt lat="59.3272632754" lon="34.7072761726"><ele>163.947</ele><time>2026-08-17T04:35:22.644Z</time><hdop>3.0</hdop><vdop>2.5</vdop><extensions><gom:speed>0.092</gom:speed></extensions></trkpt>
   <trkpt lat="59.3272627725" lon="34.7072777651"><ele>163.977</ele><time>2026-08-17T04:35:23.644Z</time><hdop>3.0</hdop><vdop>2.5</vdop><extensions><gom:speed>0.096</gom:speed></extensions></trkpt>
   <trkpt lat="59.3272627725" lon="34.7072784357"><ele>163.997</ele><time>2026-08-17T04:35:24.644Z</time><hdop>3.0</hdop><vdop>2.5</vdop><extensions><gom:speed>0.091</gom:speed></extensions></trkpt>
   <trkpt lat="59.327262563" lon="34.7072800283"><ele>164.011</ele><time>2026-08-17T04:35:25.652Z</time><hdop>3.0</hdop><vdop>2.5</vdop><extensions><gom:speed>0.02</gom:speed></extensions></trkpt>
   <trkpt lat="59.3272626887" lon="34.7072802797"><ele>164.019</ele><time>2026-08-17T04:35:26.644Z</time><hdop>3.0</hdop><vdop>2.5</vdop><extensions><gom:speed>0.097</gom:speed></extensions></trkpt>
   <trkpt lat="59.3272631916" lon="34.7072804474"><ele>164.024</ele><time>2026-08-17T04:35:27.644Z</time><hdop>3.0</hdop><vdop>2.5</vdop><extensions><gom:speed>0.094</gom:speed></extensions></trkpt>
   <trkpt lat="59.3272629821" lon="34.7072816208"><ele>164.027</ele><time>2026-08-17T04:35:28.652Z</time><hdop>3.0</hdop><vdop>2.5</vdop><extensions><gom:speed>0.024</gom:speed></extensions></trkpt>
   <trkpt lat="59.3272629821" lon="34.7072820399"><ele>164.029</ele><time>2026-08-17T04:35:29.644Z</time><hdop>3.0</hdop><vdop>2.5</vdop><extensions><gom:speed>0.067</gom:speed></extensions></trkpt>
   <trkpt lat="59.3272624791" lon="34.7072830457"><ele>164.03</ele><time>2026-08-17T04:35:30.652Z</time><hdop>3.0</hdop><vdop>2.5</vdop><extensions><gom:speed>0.068</gom:speed></extensions></trkpt>
   <trkpt lat="59.3272622696" lon="34.7072835487"><ele>164.031</ele><time>2026-08-17T04:35:31.507Z</time><hdop>3.0</hdop><vdop>2.5</vdop><extensions><gom:speed>0.077</gom:speed></extensions></trkpt>
   <trkpt lat="59.3272612638" lon="34.7072855603"><ele>164.019</ele><time>2026-08-17T04:35:31.983Z</time><hdop>3.0</hdop><vdop>2.5</vdop><extensions><gom:speed>0.297</gom:speed></extensions></trkpt>
   <trkpt lat="59.3272602998" lon="34.7072873205"><ele>164.013</ele><time>2026-08-17T04:35:32.478Z</time><hdop>3.0</hdop><vdop>2.5</vdop><extensions><gom:speed>0.299</gom:speed></extensions></trkpt>
   <trkpt lat="59.3272588749" lon="34.7072899189"><ele>163.772</ele><time>2026-08-17T04:35:33.218Z</time><hdop>3.0</hdop><vdop>2.625</vdop><extensions><gom:speed>0.359</gom:speed></extensions></trkpt>
   <trkpt lat="59.3272573662" lon="34.7072938584"><ele>163.562</ele><time>2026-08-17T04:35:34.037Z</time><hdop>3.0</hdop><vdop>3.062</vdop><extensions><gom:speed>0.359</gom:speed></extensions></trkpt>
   <trkpt lat="59.3272563604" lon="34.7072968759"><ele>163.428</ele><time>2026-08-17T04:35:34.644Z</time><hdop>3.0</hdop><vdop>2.75</vdop><extensions><gom:speed>0.358</gom:speed></extensions></trkpt>
   <trkpt lat="59.3272564861" lon="34.707298217"><ele>163.52</ele><time>2026-08-17T04:35:35.655Z</time><hdop>3.0</hdop><vdop>2.5</vdop><extensions><gom:speed>0.074</gom:speed></extensions></trkpt>
   <trkpt lat="59.3272561927" lon="34.7073005639"><ele>163.576</ele><time>2026-08-17T04:35:36.576Z</time><hdop>3.0</hdop><vdop>2.5</vdop><extensions><gom:speed>0.267</gom:speed></extensions></trkpt>
   <trkpt lat="59.3272556898" lon="34.7073036652"><ele>163.762</ele><time>2026-08-17T04:35:37.072Z</time><hdop>3.0</hdop><vdop>2.5</vdop><extensions><gom:speed>0.266</gom:speed></extensions></trkpt>
   <trkpt lat="59.3272551869" lon="34.7073059283"><ele>164.108</ele><time>2026-08-17T04:35:37.652Z</time><hdop>3.0</hdop><vdop>2.5</vdop><extensions><gom:speed>0.151</gom:speed></extensions></trkpt>
   <trkpt lat="59.3272535943" lon="34.70731255"><ele>164.315</ele><time>2026-08-17T04:35:38.660Z</time><hdop>3.0</hdop><vdop>2.5</vdop><extensions><gom:speed>0.234</gom:speed></extensions></trkpt>
   <trkpt lat="59.327253259" lon="34.7073202614"><ele>164.29</ele><time>2026-08-17T04:35:39.601Z</time><hdop>3.0</hdop><vdop>2.5</vdop><extensions><gom:speed>0.223</gom:speed></extensions></trkpt>
   <trkpt lat="59.3272548935" lon="34.7073291462"><ele>164.188</ele><time>2026-08-17T04:35:40.137Z</time><hdop>3.0</hdop><vdop>2.5</vdop><extensions><gom:speed>0.278</gom:speed></extensions></trkpt>
   <trkpt lat="59.3272556898" lon="34.7073316608"><ele>164.374</ele><time>2026-08-17T04:35:40.653Z</time><hdop>3.0</hdop><vdop>2.5</vdop><extensions><gom:speed>0.218</gom:speed></extensions></trkpt>
   <trkpt lat="59.3272588749" lon="34.7073381987"><ele>164.485</ele><time>2026-08-17T04:35:41.652Z</time><hdop>3.0</hdop><vdop>2.5</vdop><extensions><gom:speed>0.193</gom:speed></extensions></trkpt>
   <trkpt lat="59.3272619762" lon="34.7073426411"><ele>164.6</ele><time>2026-08-17T04:35:42.653Z</time><hdop>3.0</hdop><vdop>2.5</vdop><extensions><gom:speed>0.146</gom:speed></extensions></trkpt>
   <trkpt lat="59.3272651613" lon="34.7073472511"><ele>164.665</ele><time>2026-08-17T04:35:43.648Z</time><hdop>3.0</hdop><vdop>2.5</vdop><extensions><gom:speed>0.201</gom:speed></extensions></trkpt>
   <trkpt lat="59.3272688913" lon="34.7073507715"><ele>164.771</ele><time>2026-08-17T04:35:44.644Z</time><hdop>3.0</hdop><vdop>2.5</vdop><extensions><gom:speed>0.156</gom:speed></extensions></trkpt>
   <trkpt lat="59.3272701905" lon="34.7073523641"><ele>164.688</ele><time>2026-08-17T04:35:45.644Z</time><hdop>3.0</hdop><vdop>2.5</vdop><extensions><gom:speed>0.143</gom:speed></extensions></trkpt>
   <trkpt lat="59.3272705677" lon="34.707352867"><ele>164.638</ele><time>2026-08-17T04:35:46.096Z</time><hdop>3.0</hdop><vdop>2.5</vdop><extensions><gom:speed>0.123</gom:speed></extensions></trkpt>
   <trkpt lat="59.327270861" lon="34.7073526994"><ele>164.313</ele><time>2026-08-17T04:35:46.644Z</time><hdop>3.0</hdop><vdop>2.5</vdop><extensions><gom:speed>0.119</gom:speed></extensions></trkpt>
   <trkpt lat="59.3272711963" lon="34.7073520288"><ele>164.217</ele><time>2026-08-17T04:35:47.652Z</time><hdop>3.0</hdop><vdop>2.5</vdop><extensions><gom:speed>0.075</gom:speed></extensions></trkpt>
   <trkpt lat="59.327271364" lon="34.7073527832"><ele>164.16</ele><time>2026-08-17T04:35:48.201Z</time><hdop>3.0</hdop><vdop>2.5</vdop><extensions><gom:speed>0.094</gom:speed></extensions></trkpt>
   <trkpt lat="59.3272726632" lon="34.7073567227"><ele>164.293</ele><time>2026-08-17T04:35:49.644Z</time><hdop>3.0</hdop><vdop>2.5</vdop><extensions><gom:speed>0.117</gom:speed></extensions></trkpt>
   <trkpt lat="59.3272728727" lon="34.7073575609"><ele>164.372</ele><time>2026-08-17T04:35:50.640Z</time><hdop>3.0</hdop><vdop>2.5</vdop><extensions><gom:speed>0.138</gom:speed></extensions></trkpt>
   <trkpt lat="59.3272726632" lon="34.70735798"><ele>164.222</ele><time>2026-08-17T04:35:51.645Z</time><hdop>3.0</hdop><vdop>2.812</vdop><extensions><gom:speed>0.136</gom:speed></extensions></trkpt>
   <trkpt lat="59.3272719926" lon="34.7073584829"><ele>164.128</ele><time>2026-08-17T04:35:52.644Z</time><hdop>3.0</hdop><vdop>2.625</vdop><extensions><gom:speed>0.135</gom:speed></extensions></trkpt>
   <trkpt lat="59.3272710706" lon="34.7073591534"><ele>164.072</ele><time>2026-08-17T04:35:53.380Z</time><hdop>3.0</hdop><vdop>2.625</vdop><extensions><gom:speed>0.174</gom:speed></extensions></trkpt>
   <trkpt lat="59.3272691847" lon="34.7073587343"><ele>164.024</ele><time>2026-08-17T04:35:54.644Z</time><hdop>3.0</hdop><vdop>2.875</vdop><extensions><gom:speed>0.174</gom:speed></extensions></trkpt>
   <trkpt lat="59.3272688913" lon="34.70735798"><ele>163.996</ele><time>2026-08-17T04:35:55.100Z</time><hdop>3.0</hdop><vdop>2.875</vdop><extensions><gom:speed>0.171</gom:speed></extensions></trkpt>
   <trkpt lat="59.3272677597" lon="34.7073588182"><ele>163.688</ele><time>2026-08-17T04:35:55.644Z</time><hdop>3.0</hdop><vdop>3.062</vdop><extensions><gom:speed>0.185</gom:speed></extensions></trkpt>
   <trkpt lat="59.3272655804" lon="34.7073615842"><ele>163.5</ele><time>2026-08-17T04:35:56.644Z</time><hdop>3.0</hdop><vdop>3.5</vdop><extensions><gom:speed>0.198</gom:speed></extensions></trkpt>
   <trkpt lat="59.3272649937" lon="34.7073626738"><ele>163.388</ele><time>2026-08-17T04:35:57.154Z</time><hdop>3.0</hdop><vdop>3.5</vdop><extensions><gom:speed>0.182</gom:speed></extensions></trkpt>
   <trkpt lat="59.3272640717" lon="34.707365356"><ele>163.267</ele><time>2026-08-17T04:35:57.644Z</time><hdop>3.0</hdop><vdop>3.625</vdop><extensions><gom:speed>0.203</gom:speed></extensions></trkpt>
   <trkpt lat="59.3272622696" lon="34.7073689603"><ele>163.209</ele><time>2026-08-17T04:35:58.644Z</time><hdop>3.0</hdop><vdop>3.625</vdop><extensions><gom:speed>0.156</gom:speed></extensions></trkpt>
   <trkpt lat="59.32726206" lon="34.7073692955"><ele>163.174</ele><time>2026-08-17T04:35:59.329Z</time><hdop>3.0</hdop><vdop>3.625</vdop><extensions><gom:speed>0.16</gom:speed></extensions></trkpt>
   <trkpt lat="59.3272612638" lon="34.7073712234"><ele>163.013</ele><time>2026-08-17T04:36:00.037Z</time><hdop>3.0</hdop><vdop>3.75</vdop><extensions><gom:speed>0.165</gom:speed></extensions></trkpt>
   <trkpt lat="59.3272609704" lon="34.7073734865"><ele>162.913</ele><time>2026-08-17T04:36:00.644Z</time><hdop>3.0</hdop><vdop>3.687</vdop><extensions><gom:speed>0.181</gom:speed></extensions></trkpt>
   <trkpt lat="59.3272598807" lon="34.7073740732"><ele>162.855</ele><time>2026-08-17T04:36:01.652Z</time><hdop>3.0</hdop><vdop>3.687</vdop><extensions><gom:speed>0.087</gom:speed></extensions></trkpt>
   <trkpt lat="59.3272589587" lon="34.7073744923"><ele>162.82</ele><time>2026-08-17T04:36:02.644Z</time><hdop>3.0</hdop><vdop>3.687</vdop><extensions><gom:speed>0.096</gom:speed></extensions></trkpt>
   <trkpt lat="59.3272589587" lon="34.7073724807"><ele>162.835</ele><time>2026-08-17T04:36:03.652Z</time><hdop>3.0</hdop><vdop>3.812</vdop><extensions><gom:speed>0.035</gom:speed></extensions></trkpt>
   <trkpt lat="59.3272581625" lon="34.7073743247"><ele>163.013</ele><time>2026-08-17T04:36:04.652Z</time><hdop>3.0</hdop><vdop>3.25</vdop><extensions><gom:speed>0.039</gom:speed></extensions></trkpt>
   <trkpt lat="59.3272565699" lon="34.70738388"><ele>163.155</ele><time>2026-08-17T04:36:05.644Z</time><hdop>3.0</hdop><vdop>3.187</vdop><extensions><gom:speed>0.072</gom:speed></extensions></trkpt>
   <trkpt lat="59.3272559832" lon="34.7073869813"><ele>163.218</ele><time>2026-08-17T04:36:06.652Z</time><hdop>3.0</hdop><vdop>3.062</vdop><extensions><gom:speed>0.019</gom:speed></extensions></trkpt>
   <trkpt lat="59.3272551869" lon="34.7073915914"><ele>163.272</ele><time>2026-08-17T04:36:07.652Z</time><hdop>3.0</hdop><vdop>2.687</vdop><extensions><gom:speed>0.016</gom:speed></extensions></trkpt>
   <trkpt lat="59.327254684" lon="34.7073958662"><ele>163.253</ele><time>2026-08-17T04:36:08.652Z</time><hdop>3.0</hdop><vdop>2.562</vdop><extensions><gom:speed>0.017</gom:speed></extensions></trkpt>
   <trkpt lat="59.3272538877" lon="34.7074006438"><ele>163.243</ele><time>2026-08-17T04:36:09.652Z</time><hdop>3.0</hdop><vdop>2.5</vdop><extensions><gom:speed>0.02</gom:speed></extensions></trkpt>
   <trkpt lat="59.3272531752" lon="34.7074068465"><ele>163.241</ele><time>2026-08-17T04:36:10.644Z</time><hdop>3.0</hdop><vdop>2.5</vdop><extensions><gom:speed>0.062</gom:speed></extensions></trkpt>
   <trkpt lat="59.3272525885" lon="34.707410283"><ele>163.239</ele><time>2026-08-17T04:36:11.645Z</time><hdop>3.0</hdop><vdop>2.5</vdop><extensions><gom:speed>0.096</gom:speed></extensions></trkpt>
   <trkpt lat="59.3272521694" lon="34.7074115403"><ele>163.233</ele><time>2026-08-17T04:36:12.652Z</time><hdop>3.0</hdop><vdop>2.5</vdop><extensions><gom:speed>0.017</gom:speed></extensions></trkpt>
   <trkpt lat="59.327251876" lon="34.70741263"><ele>163.232</ele><time>2026-08-17T04:36:13.655Z</time><hdop>3.0</hdop><vdop>2.5</vdop><extensions><gom:speed>0.019</gom:speed></extensions></trkpt>
   <trkpt lat="59.327251876" lon="34.7074147254"><ele>163.231</ele><time>2026-08-17T04:36:14.644Z</time><hdop>3.0</hdop><vdop>2.5</vdop><extensions><gom:speed>0.063</gom:speed></extensions></trkpt>
   <trkpt lat="59.3272522951" lon="34.7074159827"><ele>163.231</ele><time>2026-08-17T04:36:15.643Z</time><hdop>3.0</hdop><vdop>2.5</vdop><extensions><gom:speed>0.078</gom:speed></extensions></trkpt>
   <trkpt lat="59.3272522951" lon="34.7074166533"><ele>163.286</ele><time>2026-08-17T04:36:16.644Z</time><hdop>3.0</hdop><vdop>2.5</vdop><extensions><gom:speed>0.094</gom:speed></extensions></trkpt>
   <trkpt lat="59.3272523789" lon="34.707416318"><ele>163.318</ele><time>2026-08-17T04:36:17.398Z</time><hdop>3.0</hdop><vdop>2.5</vdop><extensions><gom:speed>0.097</gom:speed></extensions></trkpt>
   <trkpt lat="59.3272525885" lon="34.7074182458"><ele>163.369</ele><time>2026-08-17T04:36:18.541Z</time><hdop>3.0</hdop><vdop>2.5</vdop><extensions><gom:speed>0.118</gom:speed></extensions></trkpt>
   <trkpt lat="59.3272531752" lon="34.7074213471"><ele>163.433</ele><time>2026-08-17T04:36:19.401Z</time><hdop>3.0</hdop><vdop>2.5</vdop><extensions><gom:speed>0.141</gom:speed></extensions></trkpt>
   <trkpt lat="59.3272548935" lon="34.7074235264"><ele>163.483</ele><time>2026-08-17T04:36:20.644Z</time><hdop>3.0</hdop><vdop>2.5</vdop><extensions><gom:speed>0.156</gom:speed></extensions></trkpt>
   <trkpt lat="59.3272552707" lon="34.7074245323"><ele>163.506</ele><time>2026-08-17T04:36:21.647Z</time><hdop>3.0</hdop><vdop>2.5</vdop><extensions><gom:speed>0.147</gom:speed></extensions></trkpt>
   <trkpt lat="59.3272564861" lon="34.7074246999"><ele>163.516</ele><time>2026-08-17T04:36:22.645Z</time><hdop>3.0</hdop><vdop>2.5</vdop><extensions><gom:speed>0.027</gom:speed></extensions></trkpt>
   <trkpt lat="59.327256989" lon="34.7074245323"><ele>163.537</ele><time>2026-08-17T04:36:23.644Z</time><hdop>3.0</hdop><vdop>2.5</vdop><extensions><gom:speed>0.036</gom:speed></extensions></trkpt>
   <trkpt lat="59.3272572824" lon="34.7074250352"><ele>163.543</ele><time>2026-08-17T04:36:24.644Z</time><hdop>3.0</hdop><vdop>2.5</vdop><extensions><gom:speed>0.042</gom:speed></extensions></trkpt>
   <trkpt lat="59.3272572824" lon="34.7074255381"><ele>163.543</ele><time>2026-08-17T04:36:25.652Z</time><hdop>3.0</hdop><vdop>2.5</vdop><extensions><gom:speed>0.042</gom:speed></extensions></trkpt>
   <trkpt lat="59.3272578691" lon="34.7074261248"><ele>163.543</ele><time>2026-08-17T04:36:26.644Z</time><hdop>3.0</hdop><vdop>2.5</vdop><extensions><gom:speed>0.048</gom:speed></extensions></trkpt>
   <trkpt lat="59.3272581625" lon="34.7074267954"><ele>163.557</ele><time>2026-08-17T04:36:27.644Z</time><hdop>3.0</hdop><vdop>2.5</vdop><extensions><gom:speed>0.05</gom:speed></extensions></trkpt>
   <trkpt lat="59.3272582882" lon="34.707426963"><ele>163.565</ele><time>2026-08-17T04:36:28.528Z</time><hdop>3.0</hdop><vdop>2.5</vdop><extensions><gom:speed>0.049</gom:speed></extensions></trkpt>
   <trkpt lat="59.3272584977" lon="34.7074280527"><ele>163.678</ele><time>2026-08-17T04:36:29.644Z</time><hdop>3.0</hdop><vdop>2.5</vdop><extensions><gom:speed>0.413</gom:speed></extensions></trkpt>
   <trkpt lat="59.3272565699" lon="34.7074310702"><ele>163.746</ele><time>2026-08-17T04:36:30.379Z</time><hdop>3.0</hdop><vdop>2.5</vdop><extensions><gom:speed>0.471</gom:speed></extensions></trkpt>
   <trkpt lat="59.3272555641" lon="34.7074340876"><ele>163.451</ele><time>2026-08-17T04:36:31.198Z</time><hdop>3.0</hdop><vdop>2.5</vdop><extensions><gom:speed>0.237</gom:speed></extensions></trkpt>
   <trkpt lat="59.3272558993" lon="34.7074352611"><ele>163.265</ele><time>2026-08-17T04:36:32.675Z</time><hdop>3.0</hdop><vdop>2.5</vdop><extensions><gom:speed>0.073</gom:speed></extensions></trkpt>
   <trkpt lat="59.3272559832" lon="34.7074353449"><ele>163.154</ele><time>2026-08-17T04:36:33.181Z</time><hdop>3.0</hdop><vdop>2.5</vdop><extensions><gom:speed>0.067</gom:speed></extensions></trkpt>
   <trkpt lat="59.3272559832" lon="34.7074358478"><ele>163.047</ele><time>2026-08-17T04:36:33.644Z</time><hdop>3.0</hdop><vdop>2.5</vdop><extensions><gom:speed>0.096</gom:speed></extensions></trkpt>
   <trkpt lat="59.3272564861" lon="34.7074356802"><ele>162.985</ele><time>2026-08-17T04:36:34.644Z</time><hdop>3.0</hdop><vdop>2.5</vdop><extensions><gom:speed>0.1</gom:speed></extensions></trkpt>
   <trkpt lat="59.3272561927" lon="34.7074362669"><ele>162.789</ele><time>2026-08-17T04:36:35.644Z</time><hdop>3.0</hdop><vdop>2.562</vdop><extensions><gom:speed>0.099</gom:speed></extensions></trkpt>
   <trkpt lat="59.3272550612" lon="34.7074367698"><ele>162.658</ele><time>2026-08-17T04:36:36.644Z</time><hdop>3.0</hdop><vdop>2.5</vdop><extensions><gom:speed>0.095</gom:speed></extensions></trkpt>
   <trkpt lat="59.3272539715" lon="34.7074371889"><ele>162.581</ele><time>2026-08-17T04:36:37.643Z</time><hdop>3.0</hdop><vdop>2.5</vdop><extensions><gom:speed>0.109</gom:speed></extensions></trkpt>
   <trkpt lat="59.3272533848" lon="34.707436686"><ele>162.534</ele><time>2026-08-17T04:36:38.614Z</time><hdop>3.0</hdop><vdop>2.5</vdop><extensions><gom:speed>0.124</gom:speed></extensions></trkpt>
   <trkpt lat="59.3272525885" lon="34.7074370213"><ele>162.572</ele><time>2026-08-17T04:36:39.657Z</time><hdop>3.0</hdop><vdop>2.5</vdop><extensions><gom:speed>0.116</gom:speed></extensions></trkpt>
   <trkpt lat="59.327250493" lon="34.7074416314"><ele>162.587</ele><time>2026-08-17T04:36:40.644Z</time><hdop>3.0</hdop><vdop>2.5</vdop><extensions><gom:speed>0.113</gom:speed></extensions></trkpt>
   <trkpt lat="59.3272497806" lon="34.7074419666"><ele>162.596</ele><time>2026-08-17T04:36:41.143Z</time><hdop>3.0</hdop><vdop>2.5</vdop><extensions><gom:speed>0.11</gom:speed></extensions></trkpt>
   <trkpt lat="59.3272489843" lon="34.7074421343"><ele>162.643</ele><time>2026-08-17T04:36:41.652Z</time><hdop>3.0</hdop><vdop>2.625</vdop><extensions><gom:speed>0.066</gom:speed></extensions></trkpt>
   <trkpt lat="59.3272446676" lon="34.7074499294"><ele>162.681</ele><time>2026-08-17T04:36:42.644Z</time><hdop>3.0</hdop><vdop>3.0</vdop><extensions><gom:speed>0.152</gom:speed></extensions></trkpt>
   <trkpt lat="59.3272406862" lon="34.7074563835"><ele>162.269</ele><time>2026-08-17T04:36:43.644Z</time><hdop>3.0</hdop><vdop>3.062</vdop><extensions><gom:speed>0.171</gom:speed></extensions></trkpt>
   <trkpt lat="59.327237082" lon="34.7074634243"><ele>162.583</ele><time>2026-08-17T04:36:44.644Z</time><hdop>3.0</hdop><vdop>3.0</vdop><extensions><gom:speed>0.142</gom:speed></extensions></trkpt>
   <trkpt lat="59.3272366629" lon="34.7074642625"><ele>162.771</ele><time>2026-08-17T04:36:45.220Z</time><hdop>3.0</hdop><vdop>3.0</vdop><extensions><gom:speed>0.141</gom:speed></extensions></trkpt>
   <trkpt lat="59.3272337711" lon="34.7074704651"><ele>162.877</ele><time>2026-08-17T04:36:45.837Z</time><hdop>3.0</hdop><vdop>3.125</vdop><extensions><gom:speed>0.084</gom:speed></extensions></trkpt>
   <trkpt lat="59.3272317595" lon="34.7074740693"><ele>162.941</ele><time>2026-08-17T04:36:46.644Z</time><hdop>3.0</hdop><vdop>3.25</vdop><extensions><gom:speed>0.121</gom:speed></extensions></trkpt>
   <trkpt lat="59.3272303765" lon="34.7074759972"><ele>162.98</ele><time>2026-08-17T04:36:47.648Z</time><hdop>3.0</hdop><vdop>3.312</vdop><extensions><gom:speed>0.154</gom:speed></extensions></trkpt>
   <trkpt lat="59.3272277781" lon="34.7074816969"><ele>163.003</ele><time>2026-08-17T04:36:48.643Z</time><hdop>3.0</hdop><vdop>3.312</vdop><extensions><gom:speed>0.112</gom:speed></extensions></trkpt>
   <trkpt lat="59.327226395" lon="34.7074854687"><ele>163.016</ele><time>2026-08-17T04:36:49.644Z</time><hdop>3.0</hdop><vdop>3.312</vdop><extensions><gom:speed>0.105</gom:speed></extensions></trkpt>
   <trkpt lat="59.3272260598" lon="34.7074860554"><ele>163.024</ele><time>2026-08-17T04:36:50.400Z</time><hdop>3.0</hdop><vdop>3.312</vdop><extensions><gom:speed>0.087</gom:speed></extensions></trkpt>
   <trkpt lat="59.3272252635" lon="34.7074893244"><ele>162.904</ele><time>2026-08-17T04:36:51.118Z</time><hdop>3.0</hdop><vdop>3.437</vdop><extensions><gom:speed>0.097</gom:speed></extensions></trkpt>
   <trkpt lat="59.3272246768" lon="34.7074908331"><ele>162.413</ele><time>2026-08-17T04:36:51.652Z</time><hdop>3.0</hdop><vdop>3.312</vdop><extensions><gom:speed>0.079</gom:speed></extensions></trkpt>
   <trkpt lat="59.3272230842" lon="34.707497371"><ele>162.27</ele><time>2026-08-17T04:36:52.644Z</time><hdop>3.0</hdop><vdop>3.375</vdop><extensions><gom:speed>0.177</gom:speed></extensions></trkpt>
   <trkpt lat="59.3272224975" lon="34.7074998856"><ele>162.185</ele><time>2026-08-17T04:36:53.577Z</time><hdop>3.0</hdop><vdop>3.375</vdop><extensions><gom:speed>0.148</gom:speed></extensions></trkpt>
   <trkpt lat="59.3272169654" lon="34.707509441"><ele>160.929</ele><time>2026-08-17T04:36:54.644Z</time><hdop>3.0</hdop><vdop>3.812</vdop><extensions><gom:speed>0.232</gom:speed></extensions></trkpt>
   <trkpt lat="59.3272149957" lon="34.7075129613"><ele>160.681</ele><time>2026-08-17T04:36:55.652Z</time><hdop>3.0</hdop><vdop>3.375</vdop><extensions><gom:speed>0.159</gom:speed></extensions></trkpt>
   <trkpt lat="59.327212062" lon="34.7075201698"><ele>160.533</ele><time>2026-08-17T04:36:56.379Z</time><hdop>3.0</hdop><vdop>3.375</vdop><extensions><gom:speed>0.22</gom:speed></extensions></trkpt>
   <trkpt lat="59.3272102599" lon="34.7075266239"><ele>160.338</ele><time>2026-08-17T04:36:57.280Z</time><hdop>3.0</hdop><vdop>3.625</vdop><extensions><gom:speed>0.227</gom:speed></extensions></trkpt>
   <trkpt lat="59.3272057756" lon="34.7075346705"><ele>160.838</ele><time>2026-08-17T04:36:58.676Z</time><hdop>3.0</hdop><vdop>3.5</vdop><extensions><gom:speed>0.242</gom:speed></extensions></trkpt>
   <trkpt lat="59.3272007883" lon="34.707534419"><ele>161.227</ele><time>2026-08-17T04:36:59.643Z</time><hdop>3.0</hdop><vdop>3.562</vdop><extensions><gom:speed>0.19</gom:speed></extensions></trkpt>
   <trkpt lat="59.3271987767" lon="34.7075342514"><ele>161.459</ele><time>2026-08-17T04:37:00.653Z</time><hdop>3.0</hdop><vdop>3.625</vdop><extensions><gom:speed>0.135</gom:speed></extensions></trkpt>
   <trkpt lat="59.3271947953" lon="34.7075299766"><ele>161.597</ele><time>2026-08-17T04:37:01.644Z</time><hdop>3.0</hdop><vdop>3.437</vdop><extensions><gom:speed>0.114</gom:speed></extensions></trkpt>
   <trkpt lat="59.3271924902" lon="34.7075297252"><ele>161.902</ele><time>2026-08-17T04:37:02.652Z</time><hdop>3.0</hdop><vdop>3.25</vdop><extensions><gom:speed>0.159</gom:speed></extensions></trkpt>
   <trkpt lat="59.3271909815" lon="34.7075294737"><ele>162.084</ele><time>2026-08-17T04:37:03.228Z</time><hdop>3.0</hdop><vdop>3.25</vdop><extensions><gom:speed>0.17</gom:speed></extensions></trkpt>
   <trkpt lat="59.3271867906" lon="34.7075286355"><ele>162.172</ele><time>2026-08-17T04:37:04.463Z</time><hdop>3.0</hdop><vdop>3.437</vdop><extensions><gom:speed>0.152</gom:speed></extensions></trkpt>
   <trkpt lat="59.3271833959" lon="34.7075320721"><ele>162.408</ele><time>2026-08-17T04:37:05.643Z</time><hdop>3.0</hdop><vdop>3.5</vdop><extensions><gom:speed>0.169</gom:speed></extensions></trkpt>
   <trkpt lat="59.3271817614" lon="34.7075355925"><ele>162.55</ele><time>2026-08-17T04:37:06.597Z</time><hdop>3.0</hdop><vdop>3.5</vdop><extensions><gom:speed>0.205</gom:speed></extensions></trkpt>
   <trkpt lat="59.3271803784" lon="34.7075389452"><ele>162.633</ele><time>2026-08-17T04:37:07.174Z</time><hdop>3.0</hdop><vdop>3.687</vdop><extensions><gom:speed>0.174</gom:speed></extensions></trkpt>
   <trkpt lat="59.3271790792" lon="34.7075423818"><ele>162.488</ele><time>2026-08-17T04:37:07.645Z</time><hdop>3.0</hdop><vdop>3.375</vdop><extensions><gom:speed>0.172</gom:speed></extensions></trkpt>
   <trkpt lat="59.3271772771" lon="34.7075481653"><ele>162.631</ele><time>2026-08-17T04:37:08.643Z</time><hdop>3.0</hdop><vdop>3.25</vdop><extensions><gom:speed>0.144</gom:speed></extensions></trkpt>
   <trkpt lat="59.3271739662" lon="34.7075556252"><ele>162.755</ele><time>2026-08-17T04:37:09.644Z</time><hdop>3.0</hdop><vdop>2.875</vdop><extensions><gom:speed>0.166</gom:speed></extensions></trkpt>
   <trkpt lat="59.3271730861" lon="34.7075574693"><ele>162.892</ele><time>2026-08-17T04:37:10.652Z</time><hdop>3.0</hdop><vdop>2.812</vdop><extensions><gom:speed>0.138</gom:speed></extensions></trkpt>
   <trkpt lat="59.3271691886" lon="34.7075621631"><ele>162.917</ele><time>2026-08-17T04:37:11.644Z</time><hdop>3.0</hdop><vdop>2.687</vdop><extensions><gom:speed>0.141</gom:speed></extensions></trkpt>
   <trkpt lat="59.3271677636" lon="34.7075629175"><ele>162.933</ele><time>2026-08-17T04:37:12.394Z</time><hdop>3.0</hdop><vdop>2.687</vdop><extensions><gom:speed>0.144</gom:speed></extensions></trkpt>
   <trkpt lat="59.3271659615" lon="34.7075652644"><ele>163.181</ele><time>2026-08-17T04:37:13.275Z</time><hdop>3.0</hdop><vdop>2.562</vdop><extensions><gom:speed>0.131</gom:speed></extensions></trkpt>
   <trkpt lat="59.3271642851" lon="34.707569623"><ele>163.74</ele><time>2026-08-17T04:37:14.357Z</time><hdop>3.0</hdop><vdop>2.687</vdop><extensions><gom:speed>0.194</gom:speed></extensions></trkpt>
   <trkpt lat="59.3271609743" lon="34.7075825311"><ele>164.384</ele><time>2026-08-17T04:37:15.652Z</time><hdop>3.0</hdop><vdop>2.75</vdop><extensions><gom:speed>0.219</gom:speed></extensions></trkpt>
   <trkpt lat="59.3271602618" lon="34.7075884823"><ele>164.861</ele><time>2026-08-17T04:37:16.652Z</time><hdop>3.0</hdop><vdop>2.875</vdop><extensions><gom:speed>0.177</gom:speed></extensions></trkpt>
   <trkpt lat="59.3271610581" lon="34.7075903263"><ele>165.152</ele><time>2026-08-17T04:37:17.652Z</time><hdop>3.0</hdop><vdop>2.937</vdop><extensions><gom:speed>0.081</gom:speed></extensions></trkpt>
   <trkpt lat="59.3271621897" lon="34.707592338"><ele>165.326</ele><time>2026-08-17T04:37:18.643Z</time><hdop>3.0</hdop><vdop>2.875</vdop><extensions><gom:speed>0.112</gom:speed></extensions></trkpt>
   <trkpt lat="59.327162483" lon="34.7075942658"><ele>165.43</ele><time>2026-08-17T04:37:19.652Z</time><hdop>3.0</hdop><vdop>2.812</vdop><extensions><gom:speed>0.028</gom:speed></extensions></trkpt>
   <trkpt lat="59.3271628602" lon="34.7075959422"><ele>165.492</ele><time>2026-08-17T04:37:20.644Z</time><hdop>3.0</hdop><vdop>2.687</vdop><extensions><gom:speed>0.091</gom:speed></extensions></trkpt>
   <trkpt lat="59.3271627764" lon="34.7075959422"><ele>165.531</ele><time>2026-08-17T04:37:21.644Z</time><hdop>3.0</hdop><vdop>2.5</vdop><extensions><gom:speed>0.096</gom:speed></extensions></trkpt>
   <trkpt lat="59.3271626926" lon="34.7075947687"><ele>165.554</ele><time>2026-08-17T04:37:22.653Z</time><hdop>3.0</hdop><vdop>2.5</vdop><extensions><gom:speed>0.032</gom:speed></extensions></trkpt>
   <trkpt lat="59.3271636984" lon="34.7075953555"><ele>165.574</ele><time>2026-08-17T04:37:23.644Z</time><hdop>3.0</hdop><vdop>2.5</vdop><extensions><gom:speed>0.102</gom:speed></extensions></trkpt>
   <trkpt lat="59.3271644947" lon="34.7075950202"><ele>165.588</ele><time>2026-08-17T04:37:24.652Z</time><hdop>3.0</hdop><vdop>2.5</vdop><extensions><gom:speed>0.026</gom:speed></extensions></trkpt>
   <trkpt lat="59.3271647881" lon="34.7075954393"><ele>165.597</ele><time>2026-08-17T04:37:25.486Z</time><hdop>3.0</hdop><vdop>2.5</vdop><extensions><gom:speed>0.042</gom:speed></extensions></trkpt>
   <trkpt lat="59.3271651652" lon="34.7075970318"><ele>165.692</ele><time>2026-08-17T04:37:26.645Z</time><hdop>3.0</hdop><vdop>2.5</vdop><extensions><gom:speed>0.093</gom:speed></extensions></trkpt>
   <trkpt lat="59.3271649976" lon="34.7075975348"><ele>165.82</ele><time>2026-08-17T04:37:27.644Z</time><hdop>3.0</hdop><vdop>2.5</vdop><extensions><gom:speed>0.096</gom:speed></extensions></trkpt>
   <trkpt lat="59.3271649976" lon="34.7075983729"><ele>165.896</ele><time>2026-08-17T04:37:28.644Z</time><hdop>3.0</hdop><vdop>2.5</vdop><extensions><gom:speed>0.099</gom:speed></extensions></trkpt>
   <trkpt lat="59.3271647881" lon="34.7075998817"><ele>165.939</ele><time>2026-08-17T04:37:29.652Z</time><hdop>3.0</hdop><vdop>2.5</vdop><extensions><gom:speed>0.1</gom:speed></extensions></trkpt>
   <trkpt lat="59.3271644947" lon="34.7076012228"><ele>165.965</ele><time>2026-08-17T04:37:30.646Z</time><hdop>3.0</hdop><vdop>2.5</vdop><extensions><gom:speed>0.094</gom:speed></extensions></trkpt>
   <trkpt lat="59.3271644947" lon="34.7076012228"><ele>165.981</ele><time>2026-08-17T04:37:31.152Z</time><hdop>3.0</hdop><vdop>2.5</vdop><extensions><gom:speed>0.092</gom:speed></extensions></trkpt>
   <trkpt lat="59.3271642851" lon="34.7076019772"><ele>165.99</ele><time>2026-08-17T04:37:31.644Z</time><hdop>3.0</hdop><vdop>2.5</vdop><extensions><gom:speed>0.087</gom:speed></extensions></trkpt>
   <trkpt lat="59.3271641594" lon="34.7076024801"><ele>165.994</ele><time>2026-08-17T04:37:32.644Z</time><hdop>3.0</hdop><vdop>2.5</vdop><extensions><gom:speed>0.138</gom:speed></extensions></trkpt>
   <trkpt lat="59.3271639918" lon="34.7076032344"><ele>166.17</ele><time>2026-08-17T04:37:33.644Z</time><hdop>3.0</hdop><vdop>2.5</vdop><extensions><gom:speed>0.11</gom:speed></extensions></trkpt>
   <trkpt lat="59.327163866" lon="34.7076033183"><ele>166.29</ele><time>2026-08-17T04:37:34.644Z</time><hdop>3.0</hdop><vdop>2.5</vdop><extensions><gom:speed>0.093</gom:speed></extensions></trkpt>
   <trkpt lat="59.3271637822" lon="34.7076032344"><ele>166.364</ele><time>2026-08-17T04:37:35.644Z</time><hdop>3.0</hdop><vdop>2.5</vdop><extensions><gom:speed>0.084</gom:speed></extensions></trkpt>
   <trkpt lat="59.3271633631" lon="34.7076038212"><ele>166.408</ele><time>2026-08-17T04:37:36.653Z</time><hdop>3.0</hdop><vdop>2.5</vdop><extensions><gom:speed>0.085</gom:speed></extensions></trkpt>
   <trkpt lat="59.3271635727" lon="34.7076032344"><ele>166.434</ele><time>2026-08-17T04:37:37.323Z</time><hdop>3.0</hdop><vdop>2.5</vdop><extensions><gom:speed>0.08</gom:speed></extensions></trkpt>
   <trkpt lat="59.3271634889" lon="34.7076022286"><ele>166.595</ele><time>2026-08-17T04:37:38.644Z</time><hdop>3.0</hdop><vdop>2.5</vdop><extensions><gom:speed>0.103</gom:speed></extensions></trkpt>
   <trkpt lat="59.3271629859" lon="34.7076026477"><ele>166.7</ele><time>2026-08-17T04:37:39.650Z</time><hdop>3.0</hdop><vdop>2.5</vdop><extensions><gom:speed>0.103</gom:speed></extensions></trkpt>
   <trkpt lat="59.3271631955" lon="34.7076018933"><ele>166.762</ele><time>2026-08-17T04:37:40.644Z</time><hdop>3.0</hdop><vdop>2.5</vdop><extensions><gom:speed>0.083</gom:speed></extensions></trkpt>
   <trkpt lat="59.3271629859" lon="34.707602061"><ele>166.803</ele><time>2026-08-17T04:37:41.652Z</time><hdop>3.0</hdop><vdop>2.5</vdop><extensions><gom:speed>0.083</gom:speed></extensions></trkpt>
   <trkpt lat="59.3271632793" lon="34.707601139"><ele>166.83</ele><time>2026-08-17T04:37:42.644Z</time><hdop>3.0</hdop><vdop>2.5</vdop><extensions><gom:speed>0.071</gom:speed></extensions></trkpt>
   <trkpt lat="59.3271630698" lon="34.7076012228"><ele>166.844</ele><time>2026-08-17T04:37:43.652Z</time><hdop>3.0</hdop><vdop>2.5</vdop><extensions><gom:speed>0.071</gom:speed></extensions></trkpt>
   <trkpt lat="59.3271635727" lon="34.7076008875"><ele>166.853</ele><time>2026-08-17T04:37:44.644Z</time><hdop>3.0</hdop><vdop>2.5</vdop><extensions><gom:speed>0.067</gom:speed></extensions></trkpt>
   <trkpt lat="59.327163866" lon="34.7076007199"><ele>166.864</ele><time>2026-08-17T04:37:45.644Z</time><hdop>3.0</hdop><vdop>2.5</vdop><extensions><gom:speed>0.068</gom:speed></extensions></trkpt>
   <trkpt lat="59.3271639918" lon="34.7076007199"><ele>166.875</ele><time>2026-08-17T04:37:46.644Z</time><hdop>3.0</hdop><vdop>2.5</vdop><extensions><gom:speed>0.067</gom:speed></extensions></trkpt>
   <trkpt lat="59.3271640756" lon="34.7076008875"><ele>166.883</ele><time>2026-08-17T04:37:47.643Z</time><hdop>3.0</hdop><vdop>2.5</vdop><extensions><gom:speed>0.065</gom:speed></extensions></trkpt>
   <trkpt lat="59.3271640756" lon="34.7076007199"><ele>166.887</ele><time>2026-08-17T04:37:48.452Z</time><hdop>3.0</hdop><vdop>2.5</vdop><extensions><gom:speed>0.065</gom:speed></extensions></trkpt>
   <trkpt lat="59.3271642851" lon="34.7076009713"><ele>166.911</ele><time>2026-08-17T04:37:49.645Z</time><hdop>3.0</hdop><vdop>2.5</vdop><extensions><gom:speed>0.107</gom:speed></extensions></trkpt>
   <trkpt lat="59.3271644947" lon="34.7076013904"><ele>166.633</ele><time>2026-08-17T04:37:50.644Z</time><hdop>3.0</hdop><vdop>2.5</vdop><extensions><gom:speed>0.233</gom:speed></extensions></trkpt>
   <trkpt lat="59.327164369" lon="34.7076026477"><ele>166.459</ele><time>2026-08-17T04:37:51.643Z</time><hdop>3.0</hdop><vdop>2.5</vdop><extensions><gom:speed>0.108</gom:speed></extensions></trkpt>
   <trkpt lat="59.3271651652" lon="34.7076027315"><ele>166.167</ele><time>2026-08-17T04:37:52.644Z</time><hdop>3.0</hdop><vdop>2.5</vdop><extensions><gom:speed>0.217</gom:speed></extensions></trkpt>
   <trkpt lat="59.327165291" lon="34.7076041565"><ele>165.993</ele><time>2026-08-17T04:37:53.439Z</time><hdop>3.0</hdop><vdop>2.5</vdop><extensions><gom:speed>0.23</gom:speed></extensions></trkpt>
   <trkpt lat="59.3271657939" lon="34.7076047432"><ele>166.021</ele><time>2026-08-17T04:37:54.016Z</time><hdop>3.0</hdop><vdop>2.5</vdop><extensions><gom:speed>0.358</gom:speed></extensions></trkpt>
   <trkpt lat="59.3271665902" lon="34.7076098562"><ele>165.996</ele><time>2026-08-17T04:37:54.644Z</time><hdop>3.0</hdop><vdop>2.5</vdop><extensions><gom:speed>0.273</gom:speed></extensions></trkpt>
   <trkpt lat="59.3271668835" lon="34.7076114487"><ele>166.035</ele><time>2026-08-17T04:37:55.652Z</time><hdop>3.0</hdop><vdop>2.5</vdop><extensions><gom:speed>0.269</gom:speed></extensions></trkpt>
   <trkpt lat="59.3271688952" lon="34.7076158911"><ele>166.059</ele><time>2026-08-17T04:37:56.636Z</time><hdop>3.0</hdop><vdop>2.5</vdop><extensions><gom:speed>0.317</gom:speed></extensions></trkpt>
   <trkpt lat="59.3271728766" lon="34.7076219261"><ele>165.648</ele><time>2026-08-17T04:37:57.375Z</time><hdop>3.062</hdop><vdop>2.5</vdop><extensions><gom:speed>0.25</gom:speed></extensions></trkpt>
   <trkpt lat="59.3271779896" lon="34.7076401986"><ele>165.191</ele><time>2026-08-17T04:37:58.644Z</time><hdop>3.062</hdop><vdop>2.687</vdop><extensions><gom:speed>0.251</gom:speed></extensions></trkpt>
   <trkpt lat="59.3271787858" lon="34.7076411206"><ele>164.919</ele><time>2026-08-17T04:37:59.581Z</time><hdop>3.062</hdop><vdop>2.687</vdop><extensions><gom:speed>0.251</gom:speed></extensions></trkpt>
   <trkpt lat="59.3271810909" lon="34.7076491673"><ele>164.772</ele><time>2026-08-17T04:38:00.501Z</time><hdop>3.062</hdop><vdop>2.687</vdop><extensions><gom:speed>0.211</gom:speed></extensions></trkpt>
   <trkpt lat="59.327181468" lon="34.7076560404"><ele>164.806</ele><time>2026-08-17T04:38:01.260Z</time><hdop>3.062</hdop><vdop>2.687</vdop><extensions><gom:speed>0.164</gom:speed></extensions></trkpt>
   <trkpt lat="59.3271830606" lon="34.7076623269"><ele>164.965</ele><time>2026-08-17T04:38:01.998Z</time><hdop>3.0</hdop><vdop>2.875</vdop><extensions><gom:speed>0.194</gom:speed></extensions></trkpt>
   <trkpt lat="59.3271855752" lon="34.7076679427"><ele>164.967</ele><time>2026-08-17T04:38:02.644Z</time><hdop>3.0</hdop><vdop>3.062</vdop><extensions><gom:speed>0.243</gom:speed></extensions></trkpt>
   <trkpt lat="59.3271866648" lon="34.7076704573"><ele>164.968</ele><time>2026-08-17T04:38:03.101Z</time><hdop>3.0</hdop><vdop>3.062</vdop><extensions><gom:speed>0.233</gom:speed></extensions></trkpt>
   <trkpt lat="59.3271899757" lon="34.7076764923"><ele>165.027</ele><time>2026-08-17T04:38:03.645Z</time><hdop>3.0</hdop><vdop>2.875</vdop><extensions><gom:speed>0.318</gom:speed></extensions></trkpt>
   <trkpt lat="59.3271925741" lon="34.7076830302"><ele>165.244</ele><time>2026-08-17T04:38:04.652Z</time><hdop>3.0</hdop><vdop>2.875</vdop><extensions><gom:speed>0.307</gom:speed></extensions></trkpt>
   <trkpt lat="59.3271961783" lon="34.7076927532"><ele>165.374</ele><time>2026-08-17T04:38:05.146Z</time><hdop>3.0</hdop><vdop>2.875</vdop><extensions><gom:speed>0.317</gom:speed></extensions></trkpt>
   <trkpt lat="59.3271970584" lon="34.7076992911"><ele>165.46</ele><time>2026-08-17T04:38:05.651Z</time><hdop>3.0</hdop><vdop>2.937</vdop><extensions><gom:speed>0.329</gom:speed></extensions></trkpt>
   <trkpt lat="59.3272015846" lon="34.7077101875"><ele>165.511</ele><time>2026-08-17T04:38:06.278Z</time><hdop>3.0</hdop><vdop>2.937</vdop><extensions><gom:speed>0.427</gom:speed></extensions></trkpt>
   <trkpt lat="59.3272075777" lon="34.7077255264"><ele>165.793</ele><time>2026-08-17T04:38:07.522Z</time><hdop>3.0</hdop><vdop>2.75</vdop><extensions><gom:speed>0.395</gom:speed></extensions></trkpt>
   <trkpt lat="59.3272105952" lon="34.7077338245"><ele>166.123</ele><time>2026-08-17T04:38:08.656Z</time><hdop>3.0</hdop><vdop>2.625</vdop><extensions><gom:speed>0.327</gom:speed></extensions></trkpt>
   <trkpt lat="59.3272158758" lon="34.7077488281"><ele>166.148</ele><time>2026-08-17T04:38:09.644Z</time><hdop>3.0</hdop><vdop>2.5</vdop><extensions><gom:speed>0.299</gom:speed></extensions></trkpt>
   <trkpt lat="59.32721948" lon="34.7077602275"><ele>166.227</ele><time>2026-08-17T04:38:10.644Z</time><hdop>3.0</hdop><vdop>2.5</vdop><extensions><gom:speed>0.239</gom:speed></extensions></trkpt>
   <trkpt lat="59.3272209887" lon="34.7077636641"><ele>166.274</ele><time>2026-08-17T04:38:11.255Z</time><hdop>3.0</hdop><vdop>2.5</vdop><extensions><gom:speed>0.18</gom:speed></extensions></trkpt>
   <trkpt lat="59.327223168" lon="34.7077768237"><ele>166.053</ele><time>2026-08-17T04:38:12.378Z</time><hdop>3.0</hdop><vdop>2.687</vdop><extensions><gom:speed>0.257</gom:speed></extensions></trkpt>
   <trkpt lat="59.3272236709" lon="34.7077862952"><ele>165.254</ele><time>2026-08-17T04:38:13.400Z</time><hdop>3.0</hdop><vdop>2.625</vdop><extensions><gom:speed>0.214</gom:speed></extensions></trkpt>
   <trkpt lat="59.3272242996" lon="34.7077928331"><ele>164.881</ele><time>2026-08-17T04:38:14.301Z</time><hdop>3.0</hdop><vdop>2.687</vdop><extensions><gom:speed>0.15</gom:speed></extensions></trkpt>
   <trkpt lat="59.32722409" lon="34.7077979461"><ele>164.33</ele><time>2026-08-17T04:38:15.059Z</time><hdop>3.0</hdop><vdop>2.937</vdop><extensions><gom:speed>0.192</gom:speed></extensions></trkpt>
   <trkpt lat="59.3272234614" lon="34.7078015503"><ele>164.089</ele><time>2026-08-17T04:38:15.644Z</time><hdop>3.0</hdop><vdop>2.687</vdop><extensions><gom:speed>0.164</gom:speed></extensions></trkpt>
   <trkpt lat="59.327223168" lon="34.7078025561"><ele>163.946</ele><time>2026-08-17T04:38:16.273Z</time><hdop>3.0</hdop><vdop>2.687</vdop><extensions><gom:speed>0.155</gom:speed></extensions></trkpt>
   <trkpt lat="59.3272226651" lon="34.7078061603"><ele>163.864</ele><time>2026-08-17T04:38:17.660Z</time><hdop>3.0</hdop><vdop>2.625</vdop><extensions><gom:speed>0.15</gom:speed></extensions></trkpt>
   <trkpt lat="59.3272227908" lon="34.7078061603"><ele>163.758</ele><time>2026-08-17T04:38:18.561Z</time><hdop>3.0</hdop><vdop>2.687</vdop><extensions><gom:speed>0.157</gom:speed></extensions></trkpt>
   <trkpt lat="59.3272235871" lon="34.7078037296"><ele>163.695</ele><time>2026-08-17T04:38:19.460Z</time><hdop>3.0</hdop><vdop>2.687</vdop><extensions><gom:speed>0.17</gom:speed></extensions></trkpt>
   <trkpt lat="59.3272252635" lon="34.7078054898"><ele>163.704</ele><time>2026-08-17T04:38:20.653Z</time><hdop>3.0</hdop><vdop>2.812</vdop><extensions><gom:speed>0.183</gom:speed></extensions></trkpt>
   <trkpt lat="59.3272261855" lon="34.7078082558"><ele>163.599</ele><time>2026-08-17T04:38:21.653Z</time><hdop>3.0</hdop><vdop>3.062</vdop><extensions><gom:speed>0.193</gom:speed></extensions></trkpt>
   <trkpt lat="59.3272287839" lon="34.7078117762"><ele>163.502</ele><time>2026-08-17T04:38:22.647Z</time><hdop>3.0</hdop><vdop>3.375</vdop><extensions><gom:speed>0.26</gom:speed></extensions></trkpt>
   <trkpt lat="59.3272311727" lon="34.7078116924"><ele>163.444</ele><time>2026-08-17T04:38:23.254Z</time><hdop>3.0</hdop><vdop>3.375</vdop><extensions><gom:speed>0.231</gom:speed></extensions></trkpt>
   <trkpt lat="59.3272326815" lon="34.7078121953"><ele>163.569</ele><time>2026-08-17T04:38:24.094Z</time><hdop>3.0</hdop><vdop>3.0</vdop><extensions><gom:speed>0.216</gom:speed></extensions></trkpt>
   <trkpt lat="59.3272326815" lon="34.7078120277"><ele>163.608</ele><time>2026-08-17T04:38:24.644Z</time><hdop>3.0</hdop><vdop>2.812</vdop><extensions><gom:speed>0.204</gom:speed></extensions></trkpt>
   <trkpt lat="59.3272310889" lon="34.7078110218"><ele>163.637</ele><time>2026-08-17T04:38:25.644Z</time><hdop>3.0</hdop><vdop>2.812</vdop><extensions><gom:speed>0.172</gom:speed></extensions></trkpt>
   <trkpt lat="59.3272302926" lon="34.7078089264"><ele>163.843</ele><time>2026-08-17T04:38:26.652Z</time><hdop>3.0</hdop><vdop>2.562</vdop><extensions><gom:speed>0.124</gom:speed></extensions></trkpt>
   <trkpt lat="59.3272286582" lon="34.7078096807"><ele>163.967</ele><time>2026-08-17T04:38:27.139Z</time><hdop>3.0</hdop><vdop>2.562</vdop><extensions><gom:speed>0.144</gom:speed></extensions></trkpt>
   <trkpt lat="59.3272253892" lon="34.7078123629"><ele>163.975</ele><time>2026-08-17T04:38:27.643Z</time><hdop>3.0</hdop><vdop>2.687</vdop><extensions><gom:speed>0.17</gom:speed></extensions></trkpt>
   <trkpt lat="59.327225473" lon="34.7078130335"><ele>163.964</ele><time>2026-08-17T04:38:28.652Z</time><hdop>3.0</hdop><vdop>2.562</vdop><extensions><gom:speed>0.064</gom:speed></extensions></trkpt>
   <trkpt lat="59.3272225813" lon="34.707816973"><ele>163.907</ele><time>2026-08-17T04:38:29.644Z</time><hdop>3.0</hdop><vdop>2.5</vdop><extensions><gom:speed>0.113</gom:speed></extensions></trkpt>
   <trkpt lat="59.3272203601" lon="34.7078198228"><ele>163.923</ele><time>2026-08-17T04:38:30.644Z</time><hdop>3.0</hdop><vdop>2.562</vdop><extensions><gom:speed>0.109</gom:speed></extensions></trkpt>
   <trkpt lat="59.3272196895" lon="34.7078216668"><ele>163.817</ele><time>2026-08-17T04:38:31.652Z</time><hdop>3.0</hdop><vdop>2.5</vdop><extensions><gom:speed>0.121</gom:speed></extensions></trkpt>
   <trkpt lat="59.32721948" lon="34.7078210801"><ele>164.203</ele><time>2026-08-17T04:38:32.645Z</time><hdop>3.0</hdop><vdop>2.5</vdop><extensions><gom:speed>0.105</gom:speed></extensions></trkpt>
   <trkpt lat="59.3272195638" lon="34.7078200743"><ele>164.453</ele><time>2026-08-17T04:38:33.643Z</time><hdop>3.0</hdop><vdop>2.562</vdop><extensions><gom:speed>0.094</gom:speed></extensions></trkpt>
   <trkpt lat="59.3272202763" lon="34.7078182303"><ele>164.605</ele><time>2026-08-17T04:38:34.643Z</time><hdop>3.0</hdop><vdop>2.562</vdop><extensions><gom:speed>0.084</gom:speed></extensions></trkpt>
   <trkpt lat="59.3272209887" lon="34.7078177273"><ele>164.699</ele><time>2026-08-17T04:38:35.644Z</time><hdop>3.0</hdop><vdop>2.5</vdop><extensions><gom:speed>0.087</gom:speed></extensions></trkpt>
   <trkpt lat="59.3272216593" lon="34.707817895"><ele>164.757</ele><time>2026-08-17T04:38:36.644Z</time><hdop>3.0</hdop><vdop>2.5</vdop><extensions><gom:speed>0.094</gom:speed></extensions></trkpt>
   <trkpt lat="59.3272222879" lon="34.7078182303"><ele>164.793</ele><time>2026-08-17T04:38:37.644Z</time><hdop>3.0</hdop><vdop>2.5</vdop><extensions><gom:speed>0.084</gom:speed></extensions></trkpt>
   <trkpt lat="59.3272226651" lon="34.7078195714"><ele>164.894</ele><time>2026-08-17T04:38:38.653Z</time><hdop>3.0</hdop><vdop>2.5</vdop><extensions><gom:speed>0.033</gom:speed></extensions></trkpt>
   <trkpt lat="59.327223168" lon="34.7078202419"><ele>164.954</ele><time>2026-08-17T04:38:39.361Z</time><hdop>3.0</hdop><vdop>2.5</vdop><extensions><gom:speed>0.12</gom:speed></extensions></trkpt>
   <trkpt lat="59.3272241738" lon="34.7078220859"><ele>165.014</ele><time>2026-08-17T04:38:40.473Z</time><hdop>3.0</hdop><vdop>2.625</vdop><extensions><gom:speed>0.137</gom:speed></extensions></trkpt>
   <trkpt lat="59.3272251797" lon="34.7078245167"><ele>164.721</ele><time>2026-08-17T04:38:41.374Z</time><hdop>3.0</hdop><vdop>2.5</vdop><extensions><gom:speed>0.179</gom:speed></extensions></trkpt>
   <trkpt lat="59.3272261855" lon="34.7078287915"><ele>164.531</ele><time>2026-08-17T04:38:42.193Z</time><hdop>3.0</hdop><vdop>2.5</vdop><extensions><gom:speed>0.18</gom:speed></extensions></trkpt>
   <trkpt lat="59.3272264789" lon="34.7078305517"><ele>164.392</ele><time>2026-08-17T04:38:42.652Z</time><hdop>3.0</hdop><vdop>2.5</vdop><extensions><gom:speed>0.185</gom:speed></extensions></trkpt>
   <trkpt lat="59.327235196" lon="34.707850333"><ele>164.362</ele><time>2026-08-17T04:38:43.644Z</time><hdop>3.0</hdop><vdop>2.562</vdop><extensions><gom:speed>0.583</gom:speed></extensions></trkpt>
   <trkpt lat="59.3272383812" lon="34.7078553621"><ele>164.344</ele><time>2026-08-17T04:38:44.196Z</time><hdop>3.0</hdop><vdop>2.562</vdop><extensions><gom:speed>0.541</gom:speed></extensions></trkpt>
   <trkpt lat="59.3272477689" lon="34.7078666777"><ele>164.39</ele><time>2026-08-17T04:38:44.723Z</time><hdop>3.0</hdop><vdop>2.75</vdop><extensions><gom:speed>0.641</gom:speed></extensions></trkpt>
   <trkpt lat="59.3272519599" lon="34.7078717906"><ele>164.417</ele><time>2026-08-17T04:38:45.502Z</time><hdop>3.0</hdop><vdop>2.75</vdop><extensions><gom:speed>0.629</gom:speed></extensions></trkpt>
   <trkpt lat="59.327256989" lon="34.7078791667"><ele>164.303</ele><time>2026-08-17T04:38:46.281Z</time><hdop>3.0</hdop><vdop>2.562</vdop><extensions><gom:speed>0.61</gom:speed></extensions></trkpt>
   <trkpt lat="59.3272665863" lon="34.7078863751"><ele>163.867</ele><time>2026-08-17T04:38:47.644Z</time><hdop>3.0</hdop><vdop>2.5</vdop><extensions><gom:speed>0.546</gom:speed></extensions></trkpt>
   <trkpt lat="59.3272715735" lon="34.7078872971"><ele>163.882</ele><time>2026-08-17T04:38:48.648Z</time><hdop>3.0</hdop><vdop>2.625</vdop><extensions><gom:speed>0.47</gom:speed></extensions></trkpt>
   <trkpt lat="59.3272763931" lon="34.7078883868"><ele>163.891</ele><time>2026-08-17T04:38:49.417Z</time><hdop>3.0</hdop><vdop>2.625</vdop><extensions><gom:speed>0.478</gom:speed></extensions></trkpt>
   <trkpt lat="59.3272826795" lon="34.7078933321"><ele>164.066</ele><time>2026-08-17T04:38:50.277Z</time><hdop>3.0</hdop><vdop>2.687</vdop><extensions><gom:speed>0.476</gom:speed></extensions></trkpt>
   <trkpt lat="59.3272871638" lon="34.7079003729"><ele>164.125</ele><time>2026-08-17T04:38:51.238Z</time><hdop>3.0</hdop><vdop>2.75</vdop><extensions><gom:speed>0.509</gom:speed></extensions></trkpt>
   <trkpt lat="59.327289385" lon="34.7079108503"><ele>164.256</ele><time>2026-08-17T04:38:52.138Z</time><hdop>3.0</hdop><vdop>2.812</vdop><extensions><gom:speed>0.544</gom:speed></extensions></trkpt>
   <trkpt lat="59.3272906842" lon="34.7079167176"><ele>164.231</ele><time>2026-08-17T04:38:52.652Z</time><hdop>3.0</hdop><vdop>2.812</vdop><extensions><gom:speed>0.501</gom:speed></extensions></trkpt>
   <trkpt lat="59.327294959" lon="34.7079261892"><ele>164.157</ele><time>2026-08-17T04:38:53.645Z</time><hdop>3.0</hdop><vdop>2.875</vdop><extensions><gom:speed>0.517</gom:speed></extensions></trkpt>
   <trkpt lat="59.327297767" lon="34.7079298772"><ele>164.113</ele><time>2026-08-17T04:38:54.516Z</time><hdop>3.0</hdop><vdop>2.875</vdop><extensions><gom:speed>0.451</gom:speed></extensions></trkpt>
   <trkpt lat="59.3273016645" lon="34.7079336491"><ele>164.235</ele><time>2026-08-17T04:38:55.356Z</time><hdop>3.0</hdop><vdop>2.937</vdop><extensions><gom:speed>0.482</gom:speed></extensions></trkpt>
   <trkpt lat="59.3273044725" lon="34.7079384268"><ele>164.204</ele><time>2026-08-17T04:38:56.600Z</time><hdop>3.0</hdop><vdop>2.812</vdop><extensions><gom:speed>0.388</gom:speed></extensions></trkpt>
   <trkpt lat="59.3273063584" lon="34.7079461381"><ele>163.957</ele><time>2026-08-17T04:38:57.500Z</time><hdop>3.0</hdop><vdop>2.687</vdop><extensions><gom:speed>0.45</gom:speed></extensions></trkpt>
   <trkpt lat="59.3273076995" lon="34.7079488203"><ele>163.772</ele><time>2026-08-17T04:38:58.652Z</time><hdop>3.0</hdop><vdop>2.562</vdop><extensions><gom:speed>0.208</gom:speed></extensions></trkpt>
   <trkpt lat="59.3273119743" lon="34.7079529274"><ele>163.506</ele><time>2026-08-17T04:38:59.644Z</time><hdop>3.0</hdop><vdop>2.562</vdop><extensions><gom:speed>0.3</gom:speed></extensions></trkpt>
   <trkpt lat="59.327314866" lon="34.7079558611"><ele>163.26</ele><time>2026-08-17T04:39:00.645Z</time><hdop>3.0</hdop><vdop>2.5</vdop><extensions><gom:speed>0.258</gom:speed></extensions></trkpt>
   <trkpt lat="59.3273153689" lon="34.7079560288"><ele>163.079</ele><time>2026-08-17T04:39:01.652Z</time><hdop>3.0</hdop><vdop>2.5</vdop><extensions><gom:speed>0.111</gom:speed></extensions></trkpt>
   <trkpt lat="59.3273227869" lon="34.7079591301"><ele>163.122</ele><time>2026-08-17T04:39:02.643Z</time><hdop>3.0</hdop><vdop>2.5</vdop><extensions><gom:speed>0.294</gom:speed></extensions></trkpt>
   <trkpt lat="59.3273271874" lon="34.707960555"><ele>162.913</ele><time>2026-08-17T04:39:03.643Z</time><hdop>3.0</hdop><vdop>2.5</vdop><extensions><gom:speed>0.286</gom:speed></extensions></trkpt>
   <trkpt lat="59.3273281933" lon="34.7079626505"><ele>163.061</ele><time>2026-08-17T04:39:04.652Z</time><hdop>3.0</hdop><vdop>2.5</vdop><extensions><gom:speed>0.114</gom:speed></extensions></trkpt>
   <trkpt lat="59.327336659" lon="34.7079697751"><ele>163.046</ele><time>2026-08-17T04:39:05.644Z</time><hdop>3.0</hdop><vdop>2.5</vdop><extensions><gom:speed>0.34</gom:speed></extensions></trkpt>
   <trkpt lat="59.3273383773" lon="34.7079711162"><ele>163.134</ele><time>2026-08-17T04:39:06.656Z</time><hdop>3.0</hdop><vdop>2.5</vdop><extensions><gom:speed>0.217</gom:speed></extensions></trkpt>
   <trkpt lat="59.3273401794" lon="34.7079793304"><ele>163.325</ele><time>2026-08-17T04:39:07.644Z</time><hdop>3.0</hdop><vdop>2.5</vdop><extensions><gom:speed>0.168</gom:speed></extensions></trkpt>
   <trkpt lat="59.3273402632" lon="34.7079807554"><ele>163.438</ele><time>2026-08-17T04:39:08.356Z</time><hdop>3.0</hdop><vdop>2.5</vdop><extensions><gom:speed>0.105</gom:speed></extensions></trkpt>
   <trkpt lat="59.3273399698" lon="34.7079852816"><ele>163.506</ele><time>2026-08-17T04:39:09.013Z</time><hdop>3.0</hdop><vdop>2.75</vdop><extensions><gom:speed>0.118</gom:speed></extensions></trkpt>
   <trkpt lat="59.3273400956" lon="34.7079876285"><ele>163.56</ele><time>2026-08-17T04:39:09.652Z</time><hdop>3.0</hdop><vdop>2.812</vdop><extensions><gom:speed>0.097</gom:speed></extensions></trkpt>
   <trkpt lat="59.3273404727" lon="34.7080044762"><ele>163.635</ele><time>2026-08-17T04:39:10.644Z</time><hdop>3.0</hdop><vdop>2.812</vdop><extensions><gom:speed>0.212</gom:speed></extensions></trkpt>
   <trkpt lat="59.3273406823" lon="34.7080074936"><ele>163.679</ele><time>2026-08-17T04:39:11.634Z</time><hdop>3.0</hdop><vdop>2.812</vdop><extensions><gom:speed>0.186</gom:speed></extensions></trkpt>
   <trkpt lat="59.3273377905" lon="34.7080135286"><ele>163.72</ele><time>2026-08-17T04:39:12.643Z</time><hdop>3.0</hdop><vdop>3.0</vdop><extensions><gom:speed>0.089</gom:speed></extensions></trkpt>
   <trkpt lat="59.3273368685" lon="34.7080151212"><ele>163.749</ele><time>2026-08-17T04:39:13.652Z</time><hdop>3.0</hdop><vdop>2.812</vdop><extensions><gom:speed>0.03</gom:speed></extensions></trkpt>
   <trkpt lat="59.3273336834" lon="34.7080227487"><ele>163.767</ele><time>2026-08-17T04:39:14.643Z</time><hdop>3.0</hdop><vdop>2.687</vdop><extensions><gom:speed>0.063</gom:speed></extensions></trkpt>
   <trkpt lat="59.3273323842" lon="34.7080250956"><ele>163.798</ele><time>2026-08-17T04:39:15.652Z</time><hdop>3.0</hdop><vdop>2.5</vdop><extensions><gom:speed>0.014</gom:speed></extensions></trkpt>
   <trkpt lat="59.3273308755" lon="34.7080324717"><ele>163.831</ele><time>2026-08-17T04:39:16.644Z</time><hdop>3.0</hdop><vdop>2.625</vdop><extensions><gom:speed>0.083</gom:speed></extensions></trkpt>
   <trkpt lat="59.3273306659" lon="34.7080359921"><ele>163.865</ele><time>2026-08-17T04:39:17.653Z</time><hdop>3.0</hdop><vdop>2.75</vdop><extensions><gom:speed>0.023</gom:speed></extensions></trkpt>
   <trkpt lat="59.3273304983" lon="34.7080398478"><ele>163.809</ele><time>2026-08-17T04:39:18.655Z</time><hdop>3.0</hdop><vdop>2.75</vdop><extensions><gom:speed>0.097</gom:speed></extensions></trkpt>
   <trkpt lat="59.3273298696" lon="34.7080475591"><ele>163.773</ele><time>2026-08-17T04:39:19.644Z</time><hdop>3.0</hdop><vdop>2.812</vdop><extensions><gom:speed>0.064</gom:speed></extensions></trkpt>
   <trkpt lat="59.3273291991" lon="34.7080490679"><ele>163.754</ele><time>2026-08-17T04:39:20.652Z</time><hdop>3.0</hdop><vdop>2.75</vdop><extensions><gom:speed>0.012</gom:speed></extensions></trkpt>
   <trkpt lat="59.3273283609" lon="34.708054097"><ele>163.748</ele><time>2026-08-17T04:39:21.644Z</time><hdop>3.0</hdop><vdop>2.562</vdop><extensions><gom:speed>0.059</gom:speed></extensions></trkpt>
   <trkpt lat="59.3273276903" lon="34.7080571983"><ele>163.747</ele><time>2026-08-17T04:39:22.643Z</time><hdop>3.0</hdop><vdop>2.5</vdop><extensions><gom:speed>0.074</gom:speed></extensions></trkpt>
   <trkpt lat="59.3273279837" lon="34.7080580365"><ele>163.61</ele><time>2026-08-17T04:39:23.653Z</time><hdop>3.0</hdop><vdop>2.687</vdop><extensions><gom:speed>0.088</gom:speed></extensions></trkpt>
   <trkpt lat="59.3273268941" lon="34.7080607187"><ele>163.505</ele><time>2026-08-17T04:39:24.644Z</time><hdop>3.0</hdop><vdop>2.562</vdop><extensions><gom:speed>0.057</gom:speed></extensions></trkpt>
   <trkpt lat="59.3273265588" lon="34.7080611378"><ele>163.442</ele><time>2026-08-17T04:39:25.100Z</time><hdop>3.0</hdop><vdop>2.562</vdop><extensions><gom:speed>0.023</gom:speed></extensions></trkpt>
   <trkpt lat="59.3273259721" lon="34.7080630657"><ele>163.527</ele><time>2026-08-17T04:39:25.643Z</time><hdop>3.0</hdop><vdop>2.625</vdop><extensions><gom:speed>0.092</gom:speed></extensions></trkpt>
   <trkpt lat="59.3273260978" lon="34.7080641553"><ele>163.577</ele><time>2026-08-17T04:39:26.293Z</time><hdop>3.0</hdop><vdop>2.625</vdop><extensions><gom:speed>0.09</gom:speed></extensions></trkpt>
   <trkpt lat="59.3273243795" lon="34.7080679272"><ele>164.139</ele><time>2026-08-17T04:39:26.840Z</time><hdop>3.0</hdop><vdop>2.5</vdop><extensions><gom:speed>0.078</gom:speed></extensions></trkpt>
   <trkpt lat="59.3273239604" lon="34.7080687653"><ele>164.467</ele><time>2026-08-17T04:39:27.659Z</time><hdop>3.0</hdop><vdop>2.687</vdop><extensions><gom:speed>0.053</gom:speed></extensions></trkpt>
   <trkpt lat="59.3273224936" lon="34.7080741298"><ele>164.663</ele><time>2026-08-17T04:39:28.499Z</time><hdop>3.0</hdop><vdop>2.687</vdop><extensions><gom:speed>0.117</gom:speed></extensions></trkpt>
   <trkpt lat="59.3273209848" lon="34.7080787398"><ele>164.742</ele><time>2026-08-17T04:39:29.521Z</time><hdop>3.0</hdop><vdop>2.687</vdop><extensions><gom:speed>0.124</gom:speed></extensions></trkpt>
   <trkpt lat="59.3273205657" lon="34.7080861997"><ele>164.898</ele><time>2026-08-17T04:39:30.381Z</time><hdop>3.0</hdop><vdop>2.812</vdop><extensions><gom:speed>0.2</gom:speed></extensions></trkpt>
   <trkpt lat="59.3273198952" lon="34.7080965933"><ele>165.033</ele><time>2026-08-17T04:39:31.180Z</time><hdop>3.0</hdop><vdop>2.875</vdop><extensions><gom:speed>0.222</gom:speed></extensions></trkpt>
   <trkpt lat="59.3273190989" lon="34.7081032988"><ele>165.014</ele><time>2026-08-17T04:39:31.644Z</time><hdop>3.0</hdop><vdop>3.0</vdop><extensions><gom:speed>0.238</gom:speed></extensions></trkpt>
   <trkpt lat="59.3273189732" lon="34.7081073221"><ele>165.003</ele><time>2026-08-17T04:39:32.121Z</time><hdop>3.0</hdop><vdop>3.0</vdop><extensions><gom:speed>0.261</gom:speed></extensions></trkpt>
   <trkpt lat="59.3273188893" lon="34.7081091661"><ele>165.121</ele><time>2026-08-17T04:39:32.653Z</time><hdop>3.0</hdop><vdop>2.812</vdop><extensions><gom:speed>0.187</gom:speed></extensions></trkpt>
   <trkpt lat="59.3273167939" lon="34.7081143629"><ele>165.191</ele><time>2026-08-17T04:39:33.193Z</time><hdop>3.0</hdop><vdop>2.812</vdop><extensions><gom:speed>0.178</gom:speed></extensions></trkpt>
   <trkpt lat="59.3273159976" lon="34.7081159555"><ele>165.124</ele><time>2026-08-17T04:39:33.652Z</time><hdop>3.0</hdop><vdop>2.562</vdop><extensions><gom:speed>0.137</gom:speed></extensions></trkpt>
   <trkpt lat="59.3273138602" lon="34.7081206493"><ele>165.084</ele><time>2026-08-17T04:39:34.195Z</time><hdop>3.0</hdop><vdop>2.562</vdop><extensions><gom:speed>0.165</gom:speed></extensions></trkpt>
   <trkpt lat="59.3273131897" lon="34.708122661"><ele>165.008</ele><time>2026-08-17T04:39:34.652Z</time><hdop>3.0</hdop><vdop>2.562</vdop><extensions><gom:speed>0.148</gom:speed></extensions></trkpt>
   <trkpt lat="59.3273112618" lon="34.7081266843"><ele>164.963</ele><time>2026-08-17T04:39:35.156Z</time><hdop>3.0</hdop><vdop>2.562</vdop><extensions><gom:speed>0.177</gom:speed></extensions></trkpt>
   <trkpt lat="59.3273104655" lon="34.7081280254"><ele>164.845</ele><time>2026-08-17T04:39:35.653Z</time><hdop>3.0</hdop><vdop>2.5</vdop><extensions><gom:speed>0.123</gom:speed></extensions></trkpt>
   <trkpt lat="59.3273086634" lon="34.7081307914"><ele>164.775</ele><time>2026-08-17T04:39:36.603Z</time><hdop>3.0</hdop><vdop>2.5</vdop><extensions><gom:speed>0.148</gom:speed></extensions></trkpt>
   <trkpt lat="59.3273062746" lon="34.7081357368"><ele>164.887</ele><time>2026-08-17T04:39:37.240Z</time><hdop>3.0</hdop><vdop>2.687</vdop><extensions><gom:speed>0.175</gom:speed></extensions></trkpt>
   <trkpt lat="59.3273038857" lon="34.708138419"><ele>164.782</ele><time>2026-08-17T04:39:38.262Z</time><hdop>3.0</hdop><vdop>2.562</vdop><extensions><gom:speed>0.176</gom:speed></extensions></trkpt>
   <trkpt lat="59.3273027961" lon="34.7081445378"><ele>165.291</ele><time>2026-08-17T04:39:38.940Z</time><hdop>3.0</hdop><vdop>2.5</vdop><extensions><gom:speed>0.198</gom:speed></extensions></trkpt>
   <trkpt lat="59.3273033828" lon="34.708148142"><ele>165.706</ele><time>2026-08-17T04:39:39.652Z</time><hdop>3.0</hdop><vdop>2.5</vdop><extensions><gom:speed>0.182</gom:speed></extensions></trkpt>
   <trkpt lat="59.3273058974" lon="34.7081608825"><ele>165.954</ele><time>2026-08-17T04:39:40.619Z</time><hdop>3.0</hdop><vdop>2.5</vdop><extensions><gom:speed>0.254</gom:speed></extensions></trkpt>
   <trkpt lat="59.3273083701" lon="34.7081713598"><ele>166.252</ele><time>2026-08-17T04:39:41.237Z</time><hdop>3.0</hdop><vdop>2.5</vdop><extensions><gom:speed>0.276</gom:speed></extensions></trkpt>
   <trkpt lat="59.3273122676" lon="34.7081864473"><ele>166.34</ele><time>2026-08-17T04:39:41.934Z</time><hdop>3.0</hdop><vdop>2.625</vdop><extensions><gom:speed>0.302</gom:speed></extensions></trkpt>
   <trkpt lat="59.3273135668" lon="34.7081906382"><ele>166.544</ele><time>2026-08-17T04:39:42.652Z</time><hdop>3.0</hdop><vdop>2.75</vdop><extensions><gom:speed>0.308</gom:speed></extensions></trkpt>
   <trkpt lat="59.3273168777" lon="34.70820187"><ele>166.666</ele><time>2026-08-17T04:39:43.614Z</time><hdop>3.0</hdop><vdop>2.75</vdop><extensions><gom:speed>0.292</gom:speed></extensions></trkpt>
   <trkpt lat="59.3273196856" lon="34.7082116768"><ele>166.267</ele><time>2026-08-17T04:39:44.652Z</time><hdop>3.0</hdop><vdop>3.062</vdop><extensions><gom:speed>0.186</gom:speed></extensions></trkpt>
   <trkpt lat="59.3273206915" lon="34.7082177956"><ele>166.029</ele><time>2026-08-17T04:39:45.556Z</time><hdop>3.0</hdop><vdop>3.062</vdop><extensions><gom:speed>0.183</gom:speed></extensions></trkpt>
   <trkpt lat="59.3273204819" lon="34.7082212322"><ele>165.814</ele><time>2026-08-17T04:39:46.143Z</time><hdop>3.0</hdop><vdop>3.187</vdop><extensions><gom:speed>0.136</gom:speed></extensions></trkpt>
   <trkpt lat="59.3273207753" lon="34.7082245849"><ele>165.878</ele><time>2026-08-17T04:39:46.645Z</time><hdop>3.0</hdop><vdop>3.0</vdop><extensions><gom:speed>0.13</gom:speed></extensions></trkpt>
   <trkpt lat="59.3273210686" lon="34.7082261775"><ele>165.917</ele><time>2026-08-17T04:39:47.652Z</time><hdop>3.0</hdop><vdop>2.687</vdop><extensions><gom:speed>0.058</gom:speed></extensions></trkpt>
   <trkpt lat="59.3273209848" lon="34.708228273"><ele>165.94</ele><time>2026-08-17T04:39:48.652Z</time><hdop>3.0</hdop><vdop>2.5</vdop><extensions><gom:speed>0.032</gom:speed></extensions></trkpt>
   <trkpt lat="59.3273212782" lon="34.7082303684"><ele>165.953</ele><time>2026-08-17T04:39:49.652Z</time><hdop>3.0</hdop><vdop>2.5</vdop><extensions><gom:speed>0.025</gom:speed></extensions></trkpt>
   <trkpt lat="59.3273215716" lon="34.7082336374"><ele>165.96</ele><time>2026-08-17T04:39:50.645Z</time><hdop>3.0</hdop><vdop>2.5</vdop><extensions><gom:speed>0.081</gom:speed></extensions></trkpt>
   <trkpt lat="59.3273215716" lon="34.708234727"><ele>165.965</ele><time>2026-08-17T04:39:51.652Z</time><hdop>3.0</hdop><vdop>2.5</vdop><extensions><gom:speed>0.025</gom:speed></extensions></trkpt>
   <trkpt lat="59.3273215716" lon="34.7082371578"><ele>165.968</ele><time>2026-08-17T04:39:52.644Z</time><hdop>3.0</hdop><vdop>2.5</vdop><extensions><gom:speed>0.094</gom:speed></extensions></trkpt>
   <trkpt lat="59.3273217811" lon="34.7082387503"><ele>165.969</ele><time>2026-08-17T04:39:53.644Z</time><hdop>3.0</hdop><vdop>2.5</vdop><extensions><gom:speed>0.068</gom:speed></extensions></trkpt>
   <trkpt lat="59.3273218649" lon="34.7082391694"><ele>165.97</ele><time>2026-08-17T04:39:54.267Z</time><hdop>3.0</hdop><vdop>2.5</vdop><extensions><gom:speed>0.082</gom:speed></extensions></trkpt>
   <trkpt lat="59.327321362" lon="34.7082425222"><ele>165.973</ele><time>2026-08-17T04:39:55.644Z</time><hdop>3.0</hdop><vdop>2.5</vdop><extensions><gom:speed>0.098</gom:speed></extensions></trkpt>
   <trkpt lat="59.3273206915" lon="34.7082428575"><ele>165.975</ele><time>2026-08-17T04:39:56.652Z</time><hdop>3.0</hdop><vdop>2.5</vdop><extensions><gom:speed>0.031</gom:speed></extensions></trkpt>
   <trkpt lat="59.3273203981" lon="34.7082451206"><ele>165.977</ele><time>2026-08-17T04:39:57.644Z</time><hdop>3.0</hdop><vdop>2.5</vdop><extensions><gom:speed>0.088</gom:speed></extensions></trkpt>
   <trkpt lat="59.327319979" lon="34.7082459588"><ele>165.979</ele><time>2026-08-17T04:39:58.645Z</time><hdop>3.0</hdop><vdop>2.5</vdop><extensions><gom:speed>0.085</gom:speed></extensions></trkpt>
   <trkpt lat="59.3273194761" lon="34.7082461264"><ele>165.979</ele><time>2026-08-17T04:39:59.644Z</time><hdop>3.0</hdop><vdop>2.5</vdop><extensions><gom:speed>0.091</gom:speed></extensions></trkpt>
   <trkpt lat="59.327319979" lon="34.7082457911"><ele>165.979</ele><time>2026-08-17T04:40:00.644Z</time><hdop>3.0</hdop><vdop>2.5</vdop><extensions><gom:speed>0.094</gom:speed></extensions></trkpt>
   <trkpt lat="59.3273202724" lon="34.7082460426"><ele>165.979</ele><time>2026-08-17T04:40:01.653Z</time><hdop>3.0</hdop><vdop>2.5</vdop><extensions><gom:speed>0.028</gom:speed></extensions></trkpt>
   <trkpt lat="59.3273205657" lon="34.7082465455"><ele>165.978</ele><time>2026-08-17T04:40:02.644Z</time><hdop>3.0</hdop><vdop>2.5</vdop><extensions><gom:speed>0.092</gom:speed></extensions></trkpt>
   <trkpt lat="59.3273205657" lon="34.708246797"><ele>165.977</ele><time>2026-08-17T04:40:03.652Z</time><hdop>3.0</hdop><vdop>2.5</vdop><extensions><gom:speed>0.021</gom:speed></extensions></trkpt>
   <trkpt lat="59.3273207753" lon="34.7082469646"><ele>165.976</ele><time>2026-08-17T04:40:04.643Z</time><hdop>3.0</hdop><vdop>2.5</vdop><extensions><gom:speed>0.094</gom:speed></extensions></trkpt>
   <trkpt lat="59.3273204819" lon="34.708246797"><ele>165.975</ele><time>2026-08-17T04:40:05.395Z</time><hdop>3.0</hdop><vdop>2.5</vdop><extensions><gom:speed>0.027</gom:speed></extensions></trkpt>
   <trkpt lat="59.3273202724" lon="34.7082464617"><ele>165.971</ele><time>2026-08-17T04:40:06.645Z</time><hdop>3.0</hdop><vdop>2.5</vdop><extensions><gom:speed>0.015</gom:speed></extensions></trkpt>
   <trkpt lat="59.3273204819" lon="34.7082464617"><ele>165.968</ele><time>2026-08-17T04:40:07.644Z</time><hdop>3.0</hdop><vdop>2.5</vdop><extensions><gom:speed>0.025</gom:speed></extensions></trkpt>
   <trkpt lat="59.3273207753" lon="34.708246797"><ele>165.966</ele><time>2026-08-17T04:40:08.652Z</time><hdop>3.0</hdop><vdop>2.5</vdop><extensions><gom:speed>0.026</gom:speed></extensions></trkpt>
   <trkpt lat="59.3273209848" lon="34.7082468808"><ele>165.963</ele><time>2026-08-17T04:40:09.645Z</time><hdop>3.0</hdop><vdop>2.5</vdop><extensions><gom:speed>0.032</gom:speed></extensions></trkpt>
   <trkpt lat="59.3273211944" lon="34.7082470484"><ele>165.959</ele><time>2026-08-17T04:40:10.644Z</time><hdop>3.0</hdop><vdop>2.5</vdop><extensions><gom:speed>0.042</gom:speed></extensions></trkpt>
   <trkpt lat="59.3273215716" lon="34.7082472999"><ele>165.957</ele><time>2026-08-17T04:40:11.644Z</time><hdop>3.0</hdop><vdop>2.5</vdop><extensions><gom:speed>0.048</gom:speed></extensions></trkpt>
   <trkpt lat="59.3273217811" lon="34.7082472999"><ele>165.955</ele><time>2026-08-17T04:40:12.644Z</time><hdop>3.0</hdop><vdop>2.5</vdop><extensions><gom:speed>0.053</gom:speed></extensions></trkpt>
   <trkpt lat="59.3273218649" lon="34.7082475513"><ele>165.954</ele><time>2026-08-17T04:40:13.644Z</time><hdop>3.0</hdop><vdop>2.5</vdop><extensions><gom:speed>0.056</gom:speed></extensions></trkpt>
   <trkpt lat="59.3273221583" lon="34.7082478866"><ele>165.953</ele><time>2026-08-17T04:40:14.644Z</time><hdop>3.0</hdop><vdop>2.5</vdop><extensions><gom:speed>0.061</gom:speed></extensions></trkpt>
   <trkpt lat="59.3273224936" lon="34.7082481381"><ele>165.952</ele><time>2026-08-17T04:40:15.652Z</time><hdop>3.0</hdop><vdop>2.5</vdop><extensions><gom:speed>0.062</gom:speed></extensions></trkpt>
   <trkpt lat="59.3273225774" lon="34.7082481381"><ele>165.952</ele><time>2026-08-17T04:40:16.525Z</time><hdop>3.0</hdop><vdop>2.5</vdop><extensions><gom:speed>0.062</gom:speed></extensions></trkpt>
   <trkpt lat="59.3273227869" lon="34.7082483895"><ele>165.951</ele><time>2026-08-17T04:40:17.644Z</time><hdop>3.0</hdop><vdop>2.5</vdop><extensions><gom:speed>0.065</gom:speed></extensions></trkpt>
   <trkpt lat="59.3273231641" lon="34.708248641"><ele>165.952</ele><time>2026-08-17T04:40:18.649Z</time><hdop>3.0</hdop><vdop>2.5</vdop><extensions><gom:speed>0.065</gom:speed></extensions></trkpt>
   <trkpt lat="59.3273231641" lon="34.7082485572"><ele>165.953</ele><time>2026-08-17T04:40:19.644Z</time><hdop>3.0</hdop><vdop>2.5</vdop><extensions><gom:speed>0.069</gom:speed></extensions></trkpt>
   <trkpt lat="59.3273231641" lon="34.708248641"><ele>165.953</ele><time>2026-08-17T04:40:20.644Z</time><hdop>3.0</hdop><vdop>2.5</vdop><extensions><gom:speed>0.068</gom:speed></extensions></trkpt>
   <trkpt lat="59.3273233737" lon="34.7082489763"><ele>165.954</ele><time>2026-08-17T04:40:21.652Z</time><hdop>3.0</hdop><vdop>2.5</vdop><extensions><gom:speed>0.068</gom:speed></extensions></trkpt>
   <trkpt lat="59.3273234994" lon="34.7082490601"><ele>165.956</ele><time>2026-08-17T04:40:22.652Z</time><hdop>3.0</hdop><vdop>2.5</vdop><extensions><gom:speed>0.069</gom:speed></extensions></trkpt>
   <trkpt lat="59.3273232898" lon="34.7082489763"><ele>165.956</ele><time>2026-08-17T04:40:23.644Z</time><hdop>3.0</hdop><vdop>2.5</vdop><extensions><gom:speed>0.068</gom:speed></extensions></trkpt>
   <trkpt lat="59.3273232898" lon="34.7082489763"><ele>165.958</ele><time>2026-08-17T04:40:24.644Z</time><hdop>3.0</hdop><vdop>2.5</vdop><extensions><gom:speed>0.069</gom:speed></extensions></trkpt>
   <trkpt lat="59.3273232898" lon="34.7082489763"><ele>165.96</ele><time>2026-08-17T04:40:25.644Z</time><hdop>3.0</hdop><vdop>2.5</vdop><extensions><gom:speed>0.069</gom:speed></extensions></trkpt>
   <trkpt lat="59.3273232898" lon="34.7082490601"><ele>165.963</ele><time>2026-08-17T04:40:26.644Z</time><hdop>3.0</hdop><vdop>2.5</vdop><extensions><gom:speed>0.07</gom:speed></extensions></trkpt>
   <trkpt lat="59.3273232898" lon="34.7082491439"><ele>165.966</ele><time>2026-08-17T04:40:27.644Z</time><hdop>3.0</hdop><vdop>2.5</vdop><extensions><gom:speed>0.071</gom:speed></extensions></trkpt>
   <trkpt lat="59.3273233737" lon="34.7082490601"><ele>165.968</ele><time>2026-08-17T04:40:28.643Z</time><hdop>3.0</hdop><vdop>2.5</vdop><extensions><gom:speed>0.072</gom:speed></extensions></trkpt>
   <trkpt lat="59.3273235832" lon="34.7082490601"><ele>165.971</ele><time>2026-08-17T04:40:29.652Z</time><hdop>3.0</hdop><vdop>2.5</vdop><extensions><gom:speed>0.072</gom:speed></extensions></trkpt>
   <trkpt lat="59.3273232898" lon="34.7082488924"><ele>165.99</ele><time>2026-08-17T04:40:30.644Z</time><hdop>3.0</hdop><vdop>2.5</vdop><extensions><gom:speed>0.074</gom:speed></extensions></trkpt>
   <trkpt lat="59.3273231641" lon="34.7082491439"><ele>166.021</ele><time>2026-08-17T04:40:31.644Z</time><hdop>3.0</hdop><vdop>2.562</vdop><extensions><gom:speed>0.072</gom:speed></extensions></trkpt>
   <trkpt lat="59.3273229965" lon="34.7082493954"><ele>166.04</ele><time>2026-08-17T04:40:32.645Z</time><hdop>3.0</hdop><vdop>2.75</vdop><extensions><gom:speed>0.072</gom:speed></extensions></trkpt>
   <trkpt lat="59.3273229965" lon="34.7082493954"><ele>166.051</ele><time>2026-08-17T04:40:33.318Z</time><hdop>3.0</hdop><vdop>2.75</vdop><extensions><gom:speed>0.072</gom:speed></extensions></trkpt>
   <trkpt lat="59.3273228708" lon="34.7082498983"><ele>166.057</ele><time>2026-08-17T04:40:34.652Z</time><hdop>3.0</hdop><vdop>2.75</vdop><extensions><gom:speed>0.072</gom:speed></extensions></trkpt>
   <trkpt lat="59.3273226612" lon="34.7082499821"><ele>166.058</ele><time>2026-08-17T04:40:35.645Z</time><hdop>3.0</hdop><vdop>2.75</vdop><extensions><gom:speed>0.074</gom:speed></extensions></trkpt>
   <trkpt lat="59.3273224936" lon="34.7082501497"><ele>166.057</ele><time>2026-08-17T04:40:36.657Z</time><hdop>3.0</hdop><vdop>2.687</vdop><extensions><gom:speed>0.075</gom:speed></extensions></trkpt>
   <trkpt lat="59.3273223678" lon="34.7082498983"><ele>166.057</ele><time>2026-08-17T04:40:37.644Z</time><hdop>3.0</hdop><vdop>2.562</vdop><extensions><gom:speed>0.072</gom:speed></extensions></trkpt>
   <trkpt lat="59.3273223678" lon="34.7082497306"><ele>166.058</ele><time>2026-08-17T04:40:38.644Z</time><hdop>3.0</hdop><vdop>2.562</vdop><extensions><gom:speed>0.072</gom:speed></extensions></trkpt>
   <trkpt lat="59.327322284" lon="34.7082496468"><ele>166.06</ele><time>2026-08-17T04:40:39.643Z</time><hdop>3.0</hdop><vdop>2.5</vdop><extensions><gom:speed>0.074</gom:speed></extensions></trkpt>
   <trkpt lat="59.327322284" lon="34.708249563"><ele>166.062</ele><time>2026-08-17T04:40:40.644Z</time><hdop>3.0</hdop><vdop>2.5</vdop><extensions><gom:speed>0.074</gom:speed></extensions></trkpt>
   <trkpt lat="59.327322284" lon="34.7082496468"><ele>166.063</ele><time>2026-08-17T04:40:41.644Z</time><hdop>3.0</hdop><vdop>2.5</vdop><extensions><gom:speed>0.073</gom:speed></extensions></trkpt>
   <trkpt lat="59.327322284" lon="34.7082496468"><ele>166.065</ele><time>2026-08-17T04:40:42.644Z</time><hdop>3.0</hdop><vdop>2.5</vdop><extensions><gom:speed>0.074</gom:speed></extensions></trkpt>
   <trkpt lat="59.3273221583" lon="34.7082496468"><ele>166.067</ele><time>2026-08-17T04:40:43.644Z</time><hdop>3.0</hdop><vdop>2.5</vdop><extensions><gom:speed>0.075</gom:speed></extensions></trkpt>
   <trkpt lat="59.3273221583" lon="34.708249563"><ele>166.068</ele><time>2026-08-17T04:40:44.447Z</time><hdop>3.0</hdop><vdop>2.5</vdop><extensions><gom:speed>0.075</gom:speed></extensions></trkpt>
   <trkpt lat="59.327322284" lon="34.7082497306"><ele>166.071</ele><time>2026-08-17T04:40:45.645Z</time><hdop>3.0</hdop><vdop>2.5</vdop><extensions><gom:speed>0.072</gom:speed></extensions></trkpt>
   <trkpt lat="59.3273223678" lon="34.7082497306"><ele>166.072</ele><time>2026-08-17T04:40:46.652Z</time><hdop>3.0</hdop><vdop>2.5</vdop><extensions><gom:speed>0.072</gom:speed></extensions></trkpt>
   <trkpt lat="59.3273221583" lon="34.7082496468"><ele>166.072</ele><time>2026-08-17T04:40:47.644Z</time><hdop>3.0</hdop><vdop>2.5</vdop><extensions><gom:speed>0.073</gom:speed></extensions></trkpt>
   <trkpt lat="59.3273221583" lon="34.7082497306"><ele>166.073</ele><time>2026-08-17T04:40:48.652Z</time><hdop>3.0</hdop><vdop>2.5</vdop><extensions><gom:speed>0.073</gom:speed></extensions></trkpt>
   <trkpt lat="59.3273220745" lon="34.7082496468"><ele>166.072</ele><time>2026-08-17T04:40:49.644Z</time><hdop>3.0</hdop><vdop>2.5</vdop><extensions><gom:speed>0.072</gom:speed></extensions></trkpt>
   <trkpt lat="59.3273216973" lon="34.7082492277"><ele>166.072</ele><time>2026-08-17T04:40:50.644Z</time><hdop>3.0</hdop><vdop>2.5</vdop><extensions><gom:speed>0.072</gom:speed></extensions></trkpt>
   <trkpt lat="59.3273215716" lon="34.7082491439"><ele>166.071</ele><time>2026-08-17T04:40:51.644Z</time><hdop>3.0</hdop><vdop>2.5</vdop><extensions><gom:speed>0.071</gom:speed></extensions></trkpt>
   <trkpt lat="59.327321362" lon="34.7082491439"><ele>166.07</ele><time>2026-08-17T04:40:52.644Z</time><hdop>3.0</hdop><vdop>2.5</vdop><extensions><gom:speed>0.069</gom:speed></extensions></trkpt>
   <trkpt lat="59.327321362" lon="34.7082490601"><ele>166.078</ele><time>2026-08-17T04:40:53.653Z</time><hdop>3.0</hdop><vdop>2.5</vdop><extensions><gom:speed>0.07</gom:speed></extensions></trkpt>
   <trkpt lat="59.3273210686" lon="34.7082489763"><ele>166.082</ele><time>2026-08-17T04:40:54.644Z</time><hdop>3.0</hdop><vdop>2.5</vdop><extensions><gom:speed>0.068</gom:speed></extensions></trkpt>
   <trkpt lat="59.3273210686" lon="34.708248641"><ele>166.085</ele><time>2026-08-17T04:40:55.576Z</time><hdop>3.0</hdop><vdop>2.5</vdop><extensions><gom:speed>0.069</gom:speed></extensions></trkpt>
   <trkpt lat="59.3273209848" lon="34.7082481381"><ele>166.086</ele><time>2026-08-17T04:40:56.645Z</time><hdop>3.0</hdop><vdop>2.5</vdop><extensions><gom:speed>0.072</gom:speed></extensions></trkpt>
   <trkpt lat="59.3273208591" lon="34.7082479704"><ele>166.086</ele><time>2026-08-17T04:40:57.644Z</time><hdop>3.0</hdop><vdop>2.562</vdop><extensions><gom:speed>0.072</gom:speed></extensions></trkpt>
   <trkpt lat="59.3273206915" lon="34.7082479704"><ele>166.088</ele><time>2026-08-17T04:40:58.643Z</time><hdop>3.0</hdop><vdop>2.687</vdop><extensions><gom:speed>0.071</gom:speed></extensions></trkpt>
   <trkpt lat="59.3273205657" lon="34.7082479704"><ele>166.09</ele><time>2026-08-17T04:40:59.644Z</time><hdop>3.0</hdop><vdop>2.687</vdop><extensions><gom:speed>0.072</gom:speed></extensions></trkpt>
   <trkpt lat="59.3273204819" lon="34.7082478866"><ele>166.092</ele><time>2026-08-17T04:41:00.652Z</time><hdop>3.0</hdop><vdop>2.5</vdop><extensions><gom:speed>0.073</gom:speed></extensions></trkpt>
   <trkpt lat="59.3273204819" lon="34.7082476352"><ele>166.093</ele><time>2026-08-17T04:41:01.141Z</time><hdop>3.0</hdop><vdop>2.5</vdop><extensions><gom:speed>0.072</gom:speed></extensions></trkpt>
   <trkpt lat="59.3273203981" lon="34.7082479704"><ele>166.093</ele><time>2026-08-17T04:41:01.644Z</time><hdop>3.0</hdop><vdop>2.5</vdop><extensions><gom:speed>0.071</gom:speed></extensions></trkpt>
   <trkpt lat="59.3273203981" lon="34.7082479704"><ele>166.094</ele><time>2026-08-17T04:41:02.643Z</time><hdop>3.0</hdop><vdop>2.5</vdop><extensions><gom:speed>0.07</gom:speed></extensions></trkpt>
   <trkpt lat="59.3273203981" lon="34.7082480543"><ele>166.099</ele><time>2026-08-17T04:41:03.643Z</time><hdop>3.0</hdop><vdop>2.5</vdop><extensions><gom:speed>0.07</gom:speed></extensions></trkpt>
   <trkpt lat="59.3273202724" lon="34.7082481381"><ele>166.103</ele><time>2026-08-17T04:41:04.644Z</time><hdop>3.0</hdop><vdop>2.5</vdop><extensions><gom:speed>0.072</gom:speed></extensions></trkpt>
   <trkpt lat="59.3273201885" lon="34.7082482219"><ele>166.11</ele><time>2026-08-17T04:41:05.652Z</time><hdop>3.0</hdop><vdop>2.5</vdop><extensions><gom:speed>0.072</gom:speed></extensions></trkpt>
   <trkpt lat="59.3273200628" lon="34.7082480543"><ele>166.117</ele><time>2026-08-17T04:41:06.643Z</time><hdop>3.0</hdop><vdop>2.5</vdop><extensions><gom:speed>0.075</gom:speed></extensions></trkpt>
   <trkpt lat="59.3273200628" lon="34.7082482219"><ele>166.122</ele><time>2026-08-17T04:41:07.652Z</time><hdop>3.0</hdop><vdop>2.5</vdop><extensions><gom:speed>0.075</gom:speed></extensions></trkpt>
   <trkpt lat="59.327319979" lon="34.7082479704"><ele>166.125</ele><time>2026-08-17T04:41:08.643Z</time><hdop>3.0</hdop><vdop>2.5</vdop><extensions><gom:speed>0.072</gom:speed></extensions></trkpt>
   <trkpt lat="59.3273198952" lon="34.708247719"><ele>166.126</ele><time>2026-08-17T04:41:09.644Z</time><hdop>3.0</hdop><vdop>2.5</vdop><extensions><gom:speed>0.071</gom:speed></extensions></trkpt>
   <trkpt lat="59.3273197694" lon="34.708247719"><ele>166.127</ele><time>2026-08-17T04:41:10.651Z</time><hdop>3.0</hdop><vdop>2.5</vdop><extensions><gom:speed>0.072</gom:speed></extensions></trkpt>
   <trkpt lat="59.3273198952" lon="34.7082475513"><ele>166.127</ele><time>2026-08-17T04:41:11.644Z</time><hdop>3.0</hdop><vdop>2.5</vdop><extensions><gom:speed>0.07</gom:speed></extensions></trkpt>
   <trkpt lat="59.3273197694" lon="34.7082472999"><ele>166.127</ele><time>2026-08-17T04:41:12.269Z</time><hdop>3.0</hdop><vdop>2.5</vdop><extensions><gom:speed>0.07</gom:speed></extensions></trkpt>
   <trkpt lat="59.3273198952" lon="34.7082472999"><ele>166.127</ele><time>2026-08-17T04:41:13.643Z</time><hdop>3.0</hdop><vdop>2.5</vdop><extensions><gom:speed>0.066</gom:speed></extensions></trkpt>
   <trkpt lat="59.327319979" lon="34.7082472999"><ele>166.127</ele><time>2026-08-17T04:41:14.652Z</time><hdop>3.0</hdop><vdop>2.5</vdop><extensions><gom:speed>0.067</gom:speed></extensions></trkpt>
   <trkpt lat="59.327319979" lon="34.7082469646"><ele>166.126</ele><time>2026-08-17T04:41:15.643Z</time><hdop>3.0</hdop><vdop>2.5</vdop><extensions><gom:speed>0.071</gom:speed></extensions></trkpt>
   <trkpt lat="59.327319979" lon="34.7082468808"><ele>166.126</ele><time>2026-08-17T04:41:16.653Z</time><hdop>3.0</hdop><vdop>2.5</vdop><extensions><gom:speed>0.071</gom:speed></extensions></trkpt>
   <trkpt lat="59.3273198952" lon="34.7082464617"><ele>166.125</ele><time>2026-08-17T04:41:17.644Z</time><hdop>3.0</hdop><vdop>2.5</vdop><extensions><gom:speed>0.069</gom:speed></extensions></trkpt>
   <trkpt lat="59.3273198952" lon="34.7082462941"><ele>166.124</ele><time>2026-08-17T04:41:18.644Z</time><hdop>3.0</hdop><vdop>2.5</vdop><extensions><gom:speed>0.069</gom:speed></extensions></trkpt>
   <trkpt lat="59.3273198952" lon="34.7082459588"><ele>166.123</ele><time>2026-08-17T04:41:19.643Z</time><hdop>3.0</hdop><vdop>2.5</vdop><extensions><gom:speed>0.07</gom:speed></extensions></trkpt>
   <trkpt lat="59.3273197694" lon="34.7082459588"><ele>166.122</ele><time>2026-08-17T04:41:20.644Z</time><hdop>3.0</hdop><vdop>2.5</vdop><extensions><gom:speed>0.07</gom:speed></extensions></trkpt>
   <trkpt lat="59.3273197694" lon="34.7082457911"><ele>166.122</ele><time>2026-08-17T04:41:21.644Z</time><hdop>3.0</hdop><vdop>2.5</vdop><extensions><gom:speed>0.07</gom:speed></extensions></trkpt>
   <trkpt lat="59.3273197694" lon="34.708245875"><ele>166.122</ele><time>2026-08-17T04:41:22.644Z</time><hdop>3.0</hdop><vdop>2.5</vdop><extensions><gom:speed>0.069</gom:speed></extensions></trkpt>
   <trkpt lat="59.3273197694" lon="34.7082456235"><ele>166.122</ele><time>2026-08-17T04:41:23.397Z</time><hdop>3.0</hdop><vdop>2.5</vdop><extensions><gom:speed>0.069</gom:speed></extensions></trkpt>
   <trkpt lat="59.3273195599" lon="34.708245875"><ele>166.122</ele><time>2026-08-17T04:41:24.644Z</time><hdop>3.0</hdop><vdop>2.5</vdop><extensions><gom:speed>0.069</gom:speed></extensions></trkpt>
   <trkpt lat="59.3273196856" lon="34.7082459588"><ele>166.123</ele><time>2026-08-17T04:41:25.644Z</time><hdop>3.0</hdop><vdop>2.5</vdop><extensions><gom:speed>0.069</gom:speed></extensions></trkpt>
   <trkpt lat="59.3273196856" lon="34.7082460426"><ele>166.12</ele><time>2026-08-17T04:41:26.643Z</time><hdop>3.0</hdop><vdop>2.5</vdop><extensions><gom:speed>0.07</gom:speed></extensions></trkpt>
   <trkpt lat="59.3273196856" lon="34.7082460426"><ele>166.117</ele><time>2026-08-17T04:41:27.646Z</time><hdop>3.0</hdop><vdop>2.5</vdop><extensions><gom:speed>0.071</gom:speed></extensions></trkpt>
   <trkpt lat="59.3273196856" lon="34.7082461264"><ele>166.118</ele><time>2026-08-17T04:41:28.658Z</time><hdop>3.0</hdop><vdop>2.5</vdop><extensions><gom:speed>0.071</gom:speed></extensions></trkpt>
   <trkpt lat="59.3273197694" lon="34.7082465455"><ele>166.129</ele><time>2026-08-17T04:41:29.643Z</time><hdop>3.0</hdop><vdop>2.5</vdop><extensions><gom:speed>0.069</gom:speed></extensions></trkpt>
   <trkpt lat="59.3273198952" lon="34.7082465455"><ele>166.141</ele><time>2026-08-17T04:41:30.652Z</time><hdop>3.0</hdop><vdop>2.5</vdop><extensions><gom:speed>0.07</gom:speed></extensions></trkpt>
   <trkpt lat="59.327319979" lon="34.7082466293"><ele>166.147</ele><time>2026-08-17T04:41:31.644Z</time><hdop>3.0</hdop><vdop>2.5</vdop><extensions><gom:speed>0.07</gom:speed></extensions></trkpt>
   <trkpt lat="59.327319979" lon="34.7082468808"><ele>166.15</ele><time>2026-08-17T04:41:32.645Z</time><hdop>3.0</hdop><vdop>2.5</vdop><extensions><gom:speed>0.069</gom:speed></extensions></trkpt>
   <trkpt lat="59.327319979" lon="34.7082469646"><ele>166.153</ele><time>2026-08-17T04:41:33.644Z</time><hdop>3.0</hdop><vdop>2.5</vdop><extensions><gom:speed>0.068</gom:speed></extensions></trkpt>
   <trkpt lat="59.327319979" lon="34.7082468808"><ele>166.155</ele><time>2026-08-17T04:41:34.526Z</time><hdop>3.0</hdop><vdop>2.5</vdop><extensions><gom:speed>0.068</gom:speed></extensions></trkpt>
   <trkpt lat="59.327319979" lon="34.7082470484"><ele>166.16</ele><time>2026-08-17T04:41:35.644Z</time><hdop>3.0</hdop><vdop>2.5</vdop><extensions><gom:speed>0.072</gom:speed></extensions></trkpt>
   <trkpt lat="59.3273200628" lon="34.7082472999"><ele>166.164</ele><time>2026-08-17T04:41:36.651Z</time><hdop>3.0</hdop><vdop>2.5</vdop><extensions><gom:speed>0.073</gom:speed></extensions></trkpt>
   <trkpt lat="59.3273198952" lon="34.7082469646"><ele>166.169</ele><time>2026-08-17T04:41:37.645Z</time><hdop>3.0</hdop><vdop>2.5</vdop><extensions><gom:speed>0.07</gom:speed></extensions></trkpt>
   <trkpt lat="59.3273198952" lon="34.7082469646"><ele>166.177</ele><time>2026-08-17T04:41:38.644Z</time><hdop>3.0</hdop><vdop>2.5</vdop><extensions><gom:speed>0.069</gom:speed></extensions></trkpt>
   <trkpt lat="59.3273197694" lon="34.7082469646"><ele>166.19</ele><time>2026-08-17T04:41:39.643Z</time><hdop>3.0</hdop><vdop>2.5</vdop><extensions><gom:speed>0.07</gom:speed></extensions></trkpt>
   <trkpt lat="59.3273197694" lon="34.7082469646"><ele>166.207</ele><time>2026-08-17T04:41:40.644Z</time><hdop>3.0</hdop><vdop>2.5</vdop><extensions><gom:speed>0.069</gom:speed></extensions></trkpt>
   <trkpt lat="59.3273196856" lon="34.7082469646"><ele>166.223</ele><time>2026-08-17T04:41:41.643Z</time><hdop>3.0</hdop><vdop>2.5</vdop><extensions><gom:speed>0.068</gom:speed></extensions></trkpt>
   <trkpt lat="59.3273195599" lon="34.7082468808"><ele>166.232</ele><time>2026-08-17T04:41:42.645Z</time><hdop>3.0</hdop><vdop>2.5</vdop><extensions><gom:speed>0.07</gom:speed></extensions></trkpt>
   <trkpt lat="59.3273193923" lon="34.7082461264"><ele>166.288</ele><time>2026-08-17T04:41:43.644Z</time><hdop>3.0</hdop><vdop>2.5</vdop><extensions><gom:speed>0.112</gom:speed></extensions></trkpt>
   <trkpt lat="59.3273194761" lon="34.7082461264"><ele>166.321</ele><time>2026-08-17T04:41:44.644Z</time><hdop>3.0</hdop><vdop>2.5</vdop><extensions><gom:speed>0.094</gom:speed></extensions></trkpt>
   <trkpt lat="59.3273195599" lon="34.708245875"><ele>166.34</ele><time>2026-08-17T04:41:45.644Z</time><hdop>3.0</hdop><vdop>2.5</vdop><extensions><gom:speed>0.082</gom:speed></extensions></trkpt>
   <trkpt lat="59.3273197694" lon="34.7082454559"><ele>166.352</ele><time>2026-08-17T04:41:46.644Z</time><hdop>3.0</hdop><vdop>2.5</vdop><extensions><gom:speed>0.117</gom:speed></extensions></trkpt>
   <trkpt lat="59.3273198952" lon="34.7082451206"><ele>166.35</ele><time>2026-08-17T04:41:47.644Z</time><hdop>3.0</hdop><vdop>2.5</vdop><extensions><gom:speed>0.376</gom:speed></extensions></trkpt>
   <trkpt lat="59.3273197694" lon="34.7082469646"><ele>166.433</ele><time>2026-08-17T04:41:48.644Z</time><hdop>3.0</hdop><vdop>2.5</vdop><extensions><gom:speed>0.555</gom:speed></extensions></trkpt>
   <trkpt lat="59.3273198952" lon="34.7082491439"><ele>166.383</ele><time>2026-08-17T04:41:49.644Z</time><hdop>3.0</hdop><vdop>2.5</vdop><extensions><gom:speed>0.281</gom:speed></extensions></trkpt>
   <trkpt lat="59.3273198952" lon="34.708248641"><ele>166.353</ele><time>2026-08-17T04:41:50.399Z</time><hdop>3.0</hdop><vdop>2.5</vdop><extensions><gom:speed>0.256</gom:speed></extensions></trkpt>
   <trkpt lat="59.3273216973" lon="34.708250485"><ele>166.474</ele><time>2026-08-17T04:41:51.018Z</time><hdop>3.062</hdop><vdop>2.5</vdop><extensions><gom:speed>0.65</gom:speed></extensions></trkpt>
   <trkpt lat="59.3273246729" lon="34.7082525805"><ele>166.742</ele><time>2026-08-17T04:41:51.643Z</time><hdop>3.125</hdop><vdop>2.625</vdop><extensions><gom:speed>0.526</gom:speed></extensions></trkpt>
   <trkpt lat="59.3273277742" lon="34.7082512394"><ele>166.903</ele><time>2026-08-17T04:41:52.676Z</time><hdop>3.375</hdop><vdop>2.625</vdop><extensions><gom:speed>0.491</gom:speed></extensions></trkpt>
   <trkpt lat="59.3273331805" lon="34.7082505688"><ele>166.908</ele><time>2026-08-17T04:41:53.637Z</time><hdop>3.5</hdop><vdop>2.687</vdop><extensions><gom:speed>0.517</gom:speed></extensions></trkpt>
   <trkpt lat="59.3273410595" lon="34.708249563"><ele>166.726</ele><time>2026-08-17T04:41:54.274Z</time><hdop>3.562</hdop><vdop>2.812</vdop><extensions><gom:speed>0.479</gom:speed></extensions></trkpt>
   <trkpt lat="59.3273501958" lon="34.7082527481"><ele>166.701</ele><time>2026-08-17T04:41:55.235Z</time><hdop>3.5</hdop><vdop>2.875</vdop><extensions><gom:speed>0.447</gom:speed></extensions></trkpt>
   <trkpt lat="59.3273557697" lon="34.7082590346"><ele>166.642</ele><time>2026-08-17T04:41:55.883Z</time><hdop>3.5</hdop><vdop>3.0</vdop><extensions><gom:speed>0.506</gom:speed></extensions></trkpt>
   <trkpt lat="59.3273605893" lon="34.7082658239"><ele>166.803</ele><time>2026-08-17T04:41:56.644Z</time><hdop>3.437</hdop><vdop>2.75</vdop><extensions><gom:speed>0.479</gom:speed></extensions></trkpt>
   <trkpt lat="59.327365367" lon="34.708274122"><ele>166.905</ele><time>2026-08-17T04:41:57.644Z</time><hdop>3.312</hdop><vdop>2.875</vdop><extensions><gom:speed>0.442</gom:speed></extensions></trkpt>
   <trkpt lat="59.3273691808" lon="34.7082783967"><ele>166.966</ele><time>2026-08-17T04:41:58.574Z</time><hdop>3.187</hdop><vdop>2.875</vdop><extensions><gom:speed>0.437</gom:speed></extensions></trkpt>
   <trkpt lat="59.3273720725" lon="34.708287533"><ele>167.018</ele><time>2026-08-17T04:41:59.323Z</time><hdop>3.0</hdop><vdop>2.937</vdop><extensions><gom:speed>0.441</gom:speed></extensions></trkpt>
   <trkpt lat="59.3273748805" lon="34.7082987648"><ele>166.759</ele><time>2026-08-17T04:42:00.496Z</time><hdop>3.0</hdop><vdop>2.812</vdop><extensions><gom:speed>0.39</gom:speed></extensions></trkpt>
   <trkpt lat="59.3273765988" lon="34.7083112538"><ele>166.958</ele><time>2026-08-17T04:42:01.644Z</time><hdop>3.0</hdop><vdop>3.0</vdop><extensions><gom:speed>0.353</gom:speed></extensions></trkpt>
   <trkpt lat="59.3273778979" lon="34.7083166182"><ele>167.078</ele><time>2026-08-17T04:42:02.661Z</time><hdop>3.0</hdop><vdop>3.0</vdop><extensions><gom:speed>0.319</gom:speed></extensions></trkpt>
   <trkpt lat="59.3273772693" lon="34.7083191328"><ele>167.065</ele><time>2026-08-17T04:42:03.359Z</time><hdop>3.0</hdop><vdop>3.062</vdop><extensions><gom:speed>0.287</gom:speed></extensions></trkpt>
   <trkpt lat="59.3273748805" lon="34.7083311189"><ele>166.877</ele><time>2026-08-17T04:42:04.675Z</time><hdop>3.0</hdop><vdop>3.125</vdop><extensions><gom:speed>0.21</gom:speed></extensions></trkpt>
   <trkpt lat="59.3273706895" lon="34.7083455358"><ele>166.69</ele><time>2026-08-17T04:42:05.643Z</time><hdop>3.0</hdop><vdop>3.562</vdop><extensions><gom:speed>0.366</gom:speed></extensions></trkpt>
   <trkpt lat="59.3273649898" lon="34.7083594498"><ele>166.686</ele><time>2026-08-17T04:42:06.652Z</time><hdop>3.0</hdop><vdop>3.25</vdop><extensions><gom:speed>0.628</gom:speed></extensions></trkpt>
   <trkpt lat="59.3273600864" lon="34.7083759621"><ele>166.954</ele><time>2026-08-17T04:42:07.644Z</time><hdop>3.0</hdop><vdop>3.375</vdop><extensions><gom:speed>0.669</gom:speed></extensions></trkpt>
   <trkpt lat="59.3273570689" lon="34.7083870262"><ele>167.212</ele><time>2026-08-17T04:42:08.644Z</time><hdop>3.0</hdop><vdop>3.187</vdop><extensions><gom:speed>0.525</gom:speed></extensions></trkpt>
   <trkpt lat="59.3273564822" lon="34.708390379"><ele>167.394</ele><time>2026-08-17T04:42:09.652Z</time><hdop>3.062</hdop><vdop>3.437</vdop><extensions><gom:speed>0.279</gom:speed></extensions></trkpt>
   <trkpt lat="59.3273549734" lon="34.7083909657"><ele>167.521</ele><time>2026-08-17T04:42:10.644Z</time><hdop>3.062</hdop><vdop>3.375</vdop><extensions><gom:speed>0.145</gom:speed></extensions></trkpt>
   <trkpt lat="59.3273539676" lon="34.7083893731"><ele>167.609</ele><time>2026-08-17T04:42:11.655Z</time><hdop>3.062</hdop><vdop>3.312</vdop><extensions><gom:speed>0.021</gom:speed></extensions></trkpt>
   <trkpt lat="59.327352878" lon="34.7083928935"><ele>167.684</ele><time>2026-08-17T04:42:12.644Z</time><hdop>3.062</hdop><vdop>3.312</vdop><extensions><gom:speed>0.092</gom:speed></extensions></trkpt>
   <trkpt lat="59.3273523751" lon="34.7083958272"><ele>167.744</ele><time>2026-08-17T04:42:13.644Z</time><hdop>3.0</hdop><vdop>3.312</vdop><extensions><gom:speed>0.094</gom:speed></extensions></trkpt>
   <trkpt lat="59.3273522912" lon="34.7083960787"><ele>167.78</ele><time>2026-08-17T04:42:14.589Z</time><hdop>3.0</hdop><vdop>3.312</vdop><extensions><gom:speed>0.099</gom:speed></extensions></trkpt>
   <trkpt lat="59.3273516626" lon="34.7083970845"><ele>167.808</ele><time>2026-08-17T04:42:15.644Z</time><hdop>3.0</hdop><vdop>3.25</vdop><extensions><gom:speed>0.088</gom:speed></extensions></trkpt>
   <trkpt lat="59.327350992" lon="34.7083972521"><ele>167.824</ele><time>2026-08-17T04:42:16.652Z</time><hdop>3.0</hdop><vdop>3.312</vdop><extensions><gom:speed>0.021</gom:speed></extensions></trkpt>
   <trkpt lat="59.327350992" lon="34.7083987609"><ele>167.833</ele><time>2026-08-17T04:42:17.643Z</time><hdop>3.0</hdop><vdop>3.375</vdop><extensions><gom:speed>0.098</gom:speed></extensions></trkpt>
   <trkpt lat="59.3273507825" lon="34.7084012754"><ele>167.838</ele><time>2026-08-17T04:42:18.644Z</time><hdop>3.0</hdop><vdop>3.375</vdop><extensions><gom:speed>0.094</gom:speed></extensions></trkpt>
   <trkpt lat="59.3273508663" lon="34.7084029518"><ele>167.842</ele><time>2026-08-17T04:42:19.648Z</time><hdop>3.0</hdop><vdop>3.312</vdop><extensions><gom:speed>0.103</gom:speed></extensions></trkpt>
   <trkpt lat="59.3273515788" lon="34.7084021975"><ele>167.862</ele><time>2026-08-17T04:42:20.659Z</time><hdop>3.0</hdop><vdop>3.375</vdop><extensions><gom:speed>0.027</gom:speed></extensions></trkpt>
   <trkpt lat="59.3273513692" lon="34.7084013593"><ele>167.874</ele><time>2026-08-17T04:42:21.644Z</time><hdop>3.0</hdop><vdop>3.437</vdop><extensions><gom:speed>0.098</gom:speed></extensions></trkpt>
   <trkpt lat="59.3273515788" lon="34.7084022813"><ele>167.809</ele><time>2026-08-17T04:42:22.652Z</time><hdop>3.0</hdop><vdop>3.437</vdop><extensions><gom:speed>0.023</gom:speed></extensions></trkpt>
   <trkpt lat="59.3273510759" lon="34.7084022813"><ele>167.779</ele><time>2026-08-17T04:42:23.644Z</time><hdop>3.0</hdop><vdop>3.562</vdop><extensions><gom:speed>0.056</gom:speed></extensions></trkpt>
   <trkpt lat="59.327350992" lon="34.708401946"><ele>168.042</ele><time>2026-08-17T04:42:24.652Z</time><hdop>3.0</hdop><vdop>3.5</vdop><extensions><gom:speed>0.018</gom:speed></extensions></trkpt>
   <trkpt lat="59.3273502796" lon="34.7084031195"><ele>168.619</ele><time>2026-08-17T04:42:25.652Z</time><hdop>3.0</hdop><vdop>3.375</vdop><extensions><gom:speed>0.035</gom:speed></extensions></trkpt>
   <trkpt lat="59.3273485613" lon="34.7084048797"><ele>168.964</ele><time>2026-08-17T04:42:26.355Z</time><hdop>3.0</hdop><vdop>3.375</vdop><extensions><gom:speed>0.08</gom:speed></extensions></trkpt>
   <trkpt lat="59.3273464658" lon="34.7084053826"><ele>169.267</ele><time>2026-08-17T04:42:27.094Z</time><hdop>3.0</hdop><vdop>3.187</vdop><extensions><gom:speed>0.07</gom:speed></extensions></trkpt>
   <trkpt lat="59.3273443703" lon="34.7084055502"><ele>169.446</ele><time>2026-08-17T04:42:27.644Z</time><hdop>3.0</hdop><vdop>3.125</vdop><extensions><gom:speed>0.093</gom:speed></extensions></trkpt>
   <trkpt lat="59.3273417719" lon="34.7084066399"><ele>169.64</ele><time>2026-08-17T04:42:28.644Z</time><hdop>3.0</hdop><vdop>3.0</vdop><extensions><gom:speed>0.107</gom:speed></extensions></trkpt>
   <trkpt lat="59.3273407661" lon="34.7084067237"><ele>169.797</ele><time>2026-08-17T04:42:29.653Z</time><hdop>3.0</hdop><vdop>2.937</vdop><extensions><gom:speed>0.063</gom:speed></extensions></trkpt>
   <trkpt lat="59.3273378744" lon="34.7084115852"><ele>169.89</ele><time>2026-08-17T04:42:30.676Z</time><hdop>3.0</hdop><vdop>2.937</vdop><extensions><gom:speed>0.109</gom:speed></extensions></trkpt>
   <trkpt lat="59.3273327614" lon="34.7084226493"><ele>170.051</ele><time>2026-08-17T04:42:31.645Z</time><hdop>3.0</hdop><vdop>2.937</vdop><extensions><gom:speed>0.192</gom:speed></extensions></trkpt>
   <trkpt lat="59.3273307917" lon="34.7084272593"><ele>170.147</ele><time>2026-08-17T04:42:32.476Z</time><hdop>3.0</hdop><vdop>2.937</vdop><extensions><gom:speed>0.162</gom:speed></extensions></trkpt>
   <trkpt lat="59.3273246729" lon="34.7084385749"><ele>169.908</ele><time>2026-08-17T04:42:33.644Z</time><hdop>3.0</hdop><vdop>2.75</vdop><extensions><gom:speed>0.2</gom:speed></extensions></trkpt>
   <trkpt lat="59.3273229965" lon="34.7084400837"><ele>169.725</ele><time>2026-08-17T04:42:34.652Z</time><hdop>3.0</hdop><vdop>2.625</vdop><extensions><gom:speed>0.045</gom:speed></extensions></trkpt>
   <trkpt lat="59.3273189732" lon="34.7084438555"><ele>169.168</ele><time>2026-08-17T04:42:35.652Z</time><hdop>3.0</hdop><vdop>2.625</vdop><extensions><gom:speed>0.021</gom:speed></extensions></trkpt>
   <trkpt lat="59.327316291" lon="34.7084473759"><ele>168.835</ele><time>2026-08-17T04:42:36.219Z</time><hdop>3.0</hdop><vdop>2.625</vdop><extensions><gom:speed>0.064</gom:speed></extensions></trkpt>
   <trkpt lat="59.3273110942" lon="34.7084539976"><ele>168.653</ele><time>2026-08-17T04:42:37.644Z</time><hdop>3.0</hdop><vdop>2.5</vdop><extensions><gom:speed>0.14</gom:speed></extensions></trkpt>
   <trkpt lat="59.3273094597" lon="34.7084555902"><ele>168.544</ele><time>2026-08-17T04:42:38.556Z</time><hdop>3.0</hdop><vdop>2.5</vdop><extensions><gom:speed>0.105</gom:speed></extensions></trkpt>
   <trkpt lat="59.3273041791" lon="34.7084582724"><ele>168.46</ele><time>2026-08-17T04:42:39.644Z</time><hdop>3.0</hdop><vdop>2.5</vdop><extensions><gom:speed>0.096</gom:speed></extensions></trkpt>
   <trkpt lat="59.3273002815" lon="34.7084592782"><ele>168.406</ele><time>2026-08-17T04:42:40.644Z</time><hdop>3.0</hdop><vdop>2.5</vdop><extensions><gom:speed>0.082</gom:speed></extensions></trkpt>
   <trkpt lat="59.3272995691" lon="34.708459362"><ele>168.373</ele><time>2026-08-17T04:42:41.652Z</time><hdop>3.0</hdop><vdop>2.5</vdop><extensions><gom:speed>0.03</gom:speed></extensions></trkpt>
   <trkpt lat="59.3272976831" lon="34.708460787"><ele>168.353</ele><time>2026-08-17T04:42:42.652Z</time><hdop>3.0</hdop><vdop>2.5</vdop><extensions><gom:speed>0.02</gom:speed></extensions></trkpt>
   <trkpt lat="59.3272956715" lon="34.7084605355"><ele>168.342</ele><time>2026-08-17T04:42:43.652Z</time><hdop>3.0</hdop><vdop>2.5</vdop><extensions><gom:speed>0.016</gom:speed></extensions></trkpt>
   <trkpt lat="59.3272946656" lon="34.7084603679"><ele>168.337</ele><time>2026-08-17T04:42:44.658Z</time><hdop>3.0</hdop><vdop>2.5</vdop><extensions><gom:speed>0.011</gom:speed></extensions></trkpt>
   <trkpt lat="59.3272930731" lon="34.7084606193"><ele>168.334</ele><time>2026-08-17T04:42:45.644Z</time><hdop>3.0</hdop><vdop>2.5</vdop><extensions><gom:speed>0.053</gom:speed></extensions></trkpt>
   <trkpt lat="59.3272925702" lon="34.708460284"><ele>168.333</ele><time>2026-08-17T04:42:46.644Z</time><hdop>3.0</hdop><vdop>2.5</vdop><extensions><gom:speed>0.09</gom:speed></extensions></trkpt>
   <trkpt lat="59.3272925702" lon="34.7084600326"><ele>168.332</ele><time>2026-08-17T04:42:47.652Z</time><hdop>3.0</hdop><vdop>2.5</vdop><extensions><gom:speed>0.004</gom:speed></extensions></trkpt>
   <trkpt lat="59.3272918996" lon="34.7084599488"><ele>168.332</ele><time>2026-08-17T04:42:48.652Z</time><hdop>3.0</hdop><vdop>2.5</vdop><extensions><gom:speed>0.007</gom:speed></extensions></trkpt>
   <trkpt lat="59.3272911872" lon="34.7084601164"><ele>168.331</ele><time>2026-08-17T04:42:49.652Z</time><hdop>3.0</hdop><vdop>2.5</vdop><extensions><gom:speed>0.007</gom:speed></extensions></trkpt>
   <trkpt lat="59.3272904747" lon="34.7084608708"><ele>168.331</ele><time>2026-08-17T04:42:50.652Z</time><hdop>3.0</hdop><vdop>2.5</vdop><extensions><gom:speed>0.005</gom:speed></extensions></trkpt>
   <trkpt lat="59.3272894689" lon="34.7084610384"><ele>168.33</ele><time>2026-08-17T04:42:51.652Z</time><hdop>3.0</hdop><vdop>2.5</vdop><extensions><gom:speed>0.009</gom:speed></extensions></trkpt>
   <trkpt lat="59.3272888821" lon="34.7084610384"><ele>168.33</ele><time>2026-08-17T04:42:52.644Z</time><hdop>3.0</hdop><vdop>2.5</vdop><extensions><gom:speed>0.051</gom:speed></extensions></trkpt>
   <trkpt lat="59.3272882954" lon="34.7084615413"><ele>168.334</ele><time>2026-08-17T04:42:53.652Z</time><hdop>3.0</hdop><vdop>2.5</vdop><extensions><gom:speed>0.023</gom:speed></extensions></trkpt>
   <trkpt lat="59.3272883792" lon="34.7084610384"><ele>168.337</ele><time>2026-08-17T04:42:54.652Z</time><hdop>3.0</hdop><vdop>2.5</vdop><extensions><gom:speed>0.024</gom:speed></extensions></trkpt>
   <trkpt lat="59.3272885888" lon="34.7084605355"><ele>168.34</ele><time>2026-08-17T04:42:55.652Z</time><hdop>3.0</hdop><vdop>2.5</vdop><extensions><gom:speed>0.019</gom:speed></extensions></trkpt>
   <trkpt lat="59.3272887983" lon="34.7084601164"><ele>168.343</ele><time>2026-08-17T04:42:56.655Z</time><hdop>3.0</hdop><vdop>2.5</vdop><extensions><gom:speed>0.018</gom:speed></extensions></trkpt>
   <trkpt lat="59.327288966" lon="34.708459865"><ele>168.345</ele><time>2026-08-17T04:42:57.644Z</time><hdop>3.0</hdop><vdop>2.5</vdop><extensions><gom:speed>0.015</gom:speed></extensions></trkpt>
   <trkpt lat="59.327288966" lon="34.7084599488"><ele>168.348</ele><time>2026-08-17T04:42:58.652Z</time><hdop>3.0</hdop><vdop>2.5</vdop><extensions><gom:speed>0.016</gom:speed></extensions></trkpt>
   <trkpt lat="59.3272887983" lon="34.7084599488"><ele>168.35</ele><time>2026-08-17T04:42:59.650Z</time><hdop>3.0</hdop><vdop>2.5</vdop><extensions><gom:speed>0.025</gom:speed></extensions></trkpt>
   <trkpt lat="59.3272886726" lon="34.7084601164"><ele>168.352</ele><time>2026-08-17T04:43:00.653Z</time><hdop>3.0</hdop><vdop>2.5</vdop><extensions><gom:speed>0.033</gom:speed></extensions></trkpt>
   <trkpt lat="59.327288463" lon="34.7084604517"><ele>168.354</ele><time>2026-08-17T04:43:01.653Z</time><hdop>3.0</hdop><vdop>2.5</vdop><extensions><gom:speed>0.04</gom:speed></extensions></trkpt>
   <trkpt lat="59.3272883792" lon="34.7084604517"><ele>168.357</ele><time>2026-08-17T04:43:02.644Z</time><hdop>3.0</hdop><vdop>2.5</vdop><extensions><gom:speed>0.049</gom:speed></extensions></trkpt>
   <trkpt lat="59.3272881697" lon="34.708460787"><ele>168.359</ele><time>2026-08-17T04:43:03.644Z</time><hdop>3.0</hdop><vdop>2.5</vdop><extensions><gom:speed>0.054</gom:speed></extensions></trkpt>
   <trkpt lat="59.3272879601" lon="34.7084611222"><ele>168.362</ele><time>2026-08-17T04:43:04.644Z</time><hdop>3.0</hdop><vdop>2.5</vdop><extensions><gom:speed>0.058</gom:speed></extensions></trkpt>
   <trkpt lat="59.3272876668" lon="34.7084616252"><ele>168.365</ele><time>2026-08-17T04:43:05.660Z</time><hdop>3.0</hdop><vdop>2.5</vdop><extensions><gom:speed>0.058</gom:speed></extensions></trkpt>
   <trkpt lat="59.3272874991" lon="34.7084620442"><ele>168.368</ele><time>2026-08-17T04:43:06.652Z</time><hdop>3.0</hdop><vdop>2.5</vdop><extensions><gom:speed>0.063</gom:speed></extensions></trkpt>
   <trkpt lat="59.3272874991" lon="34.7084621281"><ele>168.371</ele><time>2026-08-17T04:43:07.644Z</time><hdop>3.0</hdop><vdop>2.5</vdop><extensions><gom:speed>0.066</gom:speed></extensions></trkpt>
   <trkpt lat="59.32728708" lon="34.7084625472"><ele>168.373</ele><time>2026-08-17T04:43:08.654Z</time><hdop>3.0</hdop><vdop>2.5</vdop><extensions><gom:speed>0.067</gom:speed></extensions></trkpt>
   <trkpt lat="59.3272869962" lon="34.7084625472"><ele>168.375</ele><time>2026-08-17T04:43:09.644Z</time><hdop>3.0</hdop><vdop>2.5</vdop><extensions><gom:speed>0.069</gom:speed></extensions></trkpt>
   <trkpt lat="59.3272867867" lon="34.7084629663"><ele>168.376</ele><time>2026-08-17T04:43:10.657Z</time><hdop>3.0</hdop><vdop>2.5</vdop><extensions><gom:speed>0.069</gom:speed></extensions></trkpt>
   <trkpt lat="59.3272865771" lon="34.7084631339"><ele>168.377</ele><time>2026-08-17T04:43:11.652Z</time><hdop>3.0</hdop><vdop>2.5</vdop><extensions><gom:speed>0.07</gom:speed></extensions></trkpt>
   <trkpt lat="59.3272866609" lon="34.7084632177"><ele>168.364</ele><time>2026-08-17T04:43:12.644Z</time><hdop>3.0</hdop><vdop>2.5</vdop><extensions><gom:speed>0.122</gom:speed></extensions></trkpt>
   <trkpt lat="59.3272865771" lon="34.7084637206"><ele>168.69</ele><time>2026-08-17T04:43:13.644Z</time><hdop>3.0</hdop><vdop>2.5</vdop><extensions><gom:speed>0.247</gom:speed></extensions></trkpt>
   <trkpt lat="59.3272852779" lon="34.7084652294"><ele>168.91</ele><time>2026-08-17T04:43:14.652Z</time><hdop>3.0</hdop><vdop>2.5</vdop><extensions><gom:speed>0.259</gom:speed></extensions></trkpt>
   <trkpt lat="59.3272850684" lon="34.7084655646"><ele>169.062</ele><time>2026-08-17T04:43:15.652Z</time><hdop>3.0</hdop><vdop>2.5</vdop><extensions><gom:speed>0.106</gom:speed></extensions></trkpt>
   <trkpt lat="59.3272855713" lon="34.7084645588"><ele>169.154</ele><time>2026-08-17T04:43:16.644Z</time><hdop>3.0</hdop><vdop>2.5</vdop><extensions><gom:speed>0.073</gom:speed></extensions></trkpt>
   <trkpt lat="59.327285697" lon="34.7084641397"><ele>169.209</ele><time>2026-08-17T04:43:17.652Z</time><hdop>3.0</hdop><vdop>2.5</vdop><extensions><gom:speed>0.073</gom:speed></extensions></trkpt>
   <trkpt lat="59.3272857808" lon="34.708463553"><ele>169.244</ele><time>2026-08-17T04:43:18.652Z</time><hdop>3.0</hdop><vdop>2.5</vdop><extensions><gom:speed>0.065</gom:speed></extensions></trkpt>
   <trkpt lat="59.3272859904" lon="34.7084628824"><ele>169.266</ele><time>2026-08-17T04:43:19.644Z</time><hdop>3.0</hdop><vdop>2.5</vdop><extensions><gom:speed>0.061</gom:speed></extensions></trkpt>
   <trkpt lat="59.3272857808" lon="34.708462631"><ele>169.278</ele><time>2026-08-17T04:43:20.652Z</time><hdop>3.0</hdop><vdop>2.5</vdop><extensions><gom:speed>0.062</gom:speed></extensions></trkpt>
   <trkpt lat="59.3272857808" lon="34.7084620442"><ele>169.284</ele><time>2026-08-17T04:43:21.652Z</time><hdop>3.0</hdop><vdop>2.5</vdop><extensions><gom:speed>0.062</gom:speed></extensions></trkpt>
   <trkpt lat="59.3272858646" lon="34.7084614575"><ele>169.289</ele><time>2026-08-17T04:43:22.644Z</time><hdop>3.0</hdop><vdop>2.5</vdop><extensions><gom:speed>0.062</gom:speed></extensions></trkpt>
   <trkpt lat="59.3272859904" lon="34.7084608708"><ele>169.293</ele><time>2026-08-17T04:43:23.644Z</time><hdop>3.0</hdop><vdop>2.5</vdop><extensions><gom:speed>0.064</gom:speed></extensions></trkpt>
   <trkpt lat="59.3272857808" lon="34.7084605355"><ele>169.294</ele><time>2026-08-17T04:43:24.659Z</time><hdop>3.0</hdop><vdop>2.5</vdop><extensions><gom:speed>0.065</gom:speed></extensions></trkpt>
   <trkpt lat="59.3272858646" lon="34.7084599488"><ele>169.296</ele><time>2026-08-17T04:43:25.652Z</time><hdop>3.0</hdop><vdop>2.5</vdop><extensions><gom:speed>0.064</gom:speed></extensions></trkpt>
   <trkpt lat="59.3272858646" lon="34.7084596973"><ele>169.297</ele><time>2026-08-17T04:43:26.652Z</time><hdop>3.0</hdop><vdop>2.5</vdop><extensions><gom:speed>0.064</gom:speed></extensions></trkpt>
   <trkpt lat="59.3272858646" lon="34.7084594459"><ele>169.298</ele><time>2026-08-17T04:43:27.655Z</time><hdop>3.0</hdop><vdop>2.5</vdop><extensions><gom:speed>0.065</gom:speed></extensions></trkpt>
   <trkpt lat="59.3272860742" lon="34.7084591944"><ele>169.299</ele><time>2026-08-17T04:43:28.645Z</time><hdop>3.0</hdop><vdop>2.5</vdop><extensions><gom:speed>0.063</gom:speed></extensions></trkpt>
   <trkpt lat="59.3272861999" lon="34.7084591944"><ele>169.401</ele><time>2026-08-17T04:43:29.644Z</time><hdop>3.0</hdop><vdop>2.5</vdop><extensions><gom:speed>0.452</gom:speed></extensions></trkpt>
   <trkpt lat="59.3272842721" lon="34.7084580209"><ele>169.46</ele><time>2026-08-17T04:43:30.644Z</time><hdop>3.0</hdop><vdop>2.5</vdop><extensions><gom:speed>0.116</gom:speed></extensions></trkpt>
   <trkpt lat="59.3272843978" lon="34.7084580209"><ele>169.494</ele><time>2026-08-17T04:43:31.661Z</time><hdop>3.0</hdop><vdop>2.5</vdop><extensions><gom:speed>0.103</gom:speed></extensions></trkpt>
   <trkpt lat="59.327284775" lon="34.7084597811"><ele>169.863</ele><time>2026-08-17T04:43:32.644Z</time><hdop>3.0</hdop><vdop>2.5</vdop><extensions><gom:speed>0.592</gom:speed></extensions></trkpt>
   <trkpt lat="59.3272830986" lon="34.708463553"><ele>170.08</ele><time>2026-08-17T04:43:33.644Z</time><hdop>3.0</hdop><vdop>2.5</vdop><extensions><gom:speed>0.102</gom:speed></extensions></trkpt>
   <trkpt lat="59.3272835596" lon="34.7084651456"><ele>170.209</ele><time>2026-08-17T04:43:34.652Z</time><hdop>3.0</hdop><vdop>2.5</vdop><extensions><gom:speed>0.094</gom:speed></extensions></trkpt>
   <trkpt lat="59.3272844816" lon="34.7084670734"><ele>170.285</ele><time>2026-08-17T04:43:35.652Z</time><hdop>3.062</hdop><vdop>2.5</vdop><extensions><gom:speed>0.079</gom:speed></extensions></trkpt>
   <trkpt lat="59.3272852779" lon="34.7084686659"><ele>170.33</ele><time>2026-08-17T04:43:36.652Z</time><hdop>3.062</hdop><vdop>2.5</vdop><extensions><gom:speed>0.07</gom:speed></extensions></trkpt>
   <trkpt lat="59.3272864933" lon="34.7084699232"><ele>170.355</ele><time>2026-08-17T04:43:37.645Z</time><hdop>3.062</hdop><vdop>2.5</vdop><extensions><gom:speed>0.062</gom:speed></extensions></trkpt>
   <trkpt lat="59.3272872896" lon="34.7084709291"><ele>170.369</ele><time>2026-08-17T04:43:38.645Z</time><hdop>3.062</hdop><vdop>2.5</vdop><extensions><gom:speed>0.06</gom:speed></extensions></trkpt>
   <trkpt lat="59.3272874991" lon="34.708471432"><ele>170.377</ele><time>2026-08-17T04:43:39.652Z</time><hdop>3.0</hdop><vdop>2.5</vdop><extensions><gom:speed>0.06</gom:speed></extensions></trkpt>
   <trkpt lat="59.3272879601" lon="34.7084721863"><ele>170.392</ele><time>2026-08-17T04:43:40.644Z</time><hdop>3.0</hdop><vdop>2.5</vdop><extensions><gom:speed>0.059</gom:speed></extensions></trkpt>
   <trkpt lat="59.327288463" lon="34.7084728569"><ele>170.4</ele><time>2026-08-17T04:43:41.652Z</time><hdop>3.0</hdop><vdop>2.5</vdop><extensions><gom:speed>0.058</gom:speed></extensions></trkpt>
   <trkpt lat="59.327288966" lon="34.7084736951"><ele>170.405</ele><time>2026-08-17T04:43:42.643Z</time><hdop>3.0</hdop><vdop>2.5</vdop><extensions><gom:speed>0.057</gom:speed></extensions></trkpt>
   <trkpt lat="59.3272892593" lon="34.7084740304"><ele>170.409</ele><time>2026-08-17T04:43:43.456Z</time><hdop>3.0</hdop><vdop>2.5</vdop><extensions><gom:speed>0.057</gom:speed></extensions></trkpt>
   <trkpt lat="59.3272892593" lon="34.7084748686"><ele>170.418</ele><time>2026-08-17T04:43:44.645Z</time><hdop>3.0</hdop><vdop>2.75</vdop><extensions><gom:speed>0.277</gom:speed></extensions></trkpt>
   <trkpt lat="59.3272894689" lon="34.7084774669"><ele>170.192</ele><time>2026-08-17T04:43:45.652Z</time><hdop>3.0</hdop><vdop>2.812</vdop><extensions><gom:speed>0.308</gom:speed></extensions></trkpt>
   <trkpt lat="59.3272866609" lon="34.708478389"><ele>169.921</ele><time>2026-08-17T04:43:46.645Z</time><hdop>3.0</hdop><vdop>3.125</vdop><extensions><gom:speed>0.141</gom:speed></extensions></trkpt>
   <trkpt lat="59.3272855713" lon="34.708478389"><ele>169.759</ele><time>2026-08-17T04:43:47.361Z</time><hdop>3.0</hdop><vdop>3.125</vdop><extensions><gom:speed>0.135</gom:speed></extensions></trkpt>
   <trkpt lat="59.3272828891" lon="34.7084801492"><ele>169.93</ele><time>2026-08-17T04:43:48.652Z</time><hdop>3.0</hdop><vdop>2.937</vdop><extensions><gom:speed>0.3</gom:speed></extensions></trkpt>
   <trkpt lat="59.3272775666" lon="34.7084787242"><ele>170.005</ele><time>2026-08-17T04:43:49.644Z</time><hdop>3.0</hdop><vdop>2.875</vdop><extensions><gom:speed>0.126</gom:speed></extensions></trkpt>
   <trkpt lat="59.3272757645" lon="34.7084786404"><ele>170.073</ele><time>2026-08-17T04:43:50.652Z</time><hdop>3.0</hdop><vdop>2.812</vdop><extensions><gom:speed>0.092</gom:speed></extensions></trkpt>
   <trkpt lat="59.3272711963" lon="34.7084771317"><ele>170.024</ele><time>2026-08-17T04:43:51.652Z</time><hdop>3.0</hdop><vdop>3.062</vdop><extensions><gom:speed>0.075</gom:speed></extensions></trkpt>
   <trkpt lat="59.3272678855" lon="34.7084755391"><ele>169.613</ele><time>2026-08-17T04:43:52.652Z</time><hdop>3.0</hdop><vdop>3.187</vdop><extensions><gom:speed>0.053</gom:speed></extensions></trkpt>
   <trkpt lat="59.3272649937" lon="34.70847512"><ele>169.281</ele><time>2026-08-17T04:43:53.652Z</time><hdop>3.0</hdop><vdop>3.5</vdop><extensions><gom:speed>0.084</gom:speed></extensions></trkpt>
   <trkpt lat="59.3272612638" lon="34.7084754553"><ele>169.088</ele><time>2026-08-17T04:43:54.652Z</time><hdop>3.0</hdop><vdop>3.25</vdop><extensions><gom:speed>0.099</gom:speed></extensions></trkpt>
   <trkpt lat="59.3272586654" lon="34.7084780537"><ele>169.016</ele><time>2026-08-17T04:43:55.652Z</time><hdop>3.0</hdop><vdop>3.0</vdop><extensions><gom:speed>0.089</gom:speed></extensions></trkpt>
   <trkpt lat="59.3272567794" lon="34.7084809873"><ele>168.972</ele><time>2026-08-17T04:43:56.103Z</time><hdop>3.0</hdop><vdop>3.0</vdop><extensions><gom:speed>0.093</gom:speed></extensions></trkpt>
   <trkpt lat="59.3272556898" lon="34.7084822446"><ele>168.946</ele><time>2026-08-17T04:43:56.558Z</time><hdop>3.0</hdop><vdop>3.0</vdop><extensions><gom:speed>0.12</gom:speed></extensions></trkpt>
   <trkpt lat="59.3272519599" lon="34.7084909618"><ele>168.741</ele><time>2026-08-17T04:43:57.644Z</time><hdop>3.0</hdop><vdop>3.187</vdop><extensions><gom:speed>0.117</gom:speed></extensions></trkpt>
   <trkpt lat="59.3272498644" lon="34.7084966615"><ele>168.54</ele><time>2026-08-17T04:43:58.644Z</time><hdop>3.0</hdop><vdop>3.062</vdop><extensions><gom:speed>0.115</gom:speed></extensions></trkpt>
   <trkpt lat="59.3272491938" lon="34.708497835"><ele>168.419</ele><time>2026-08-17T04:43:59.199Z</time><hdop>3.0</hdop><vdop>3.062</vdop><extensions><gom:speed>0.111</gom:speed></extensions></trkpt>
   <trkpt lat="59.3272488585" lon="34.7084980864"><ele>168.371</ele><time>2026-08-17T04:43:59.664Z</time><hdop>3.0</hdop><vdop>2.937</vdop><extensions><gom:speed>0.039</gom:speed></extensions></trkpt>
   <trkpt lat="59.3272443742" lon="34.7085061331"><ele>168.338</ele><time>2026-08-17T04:44:00.644Z</time><hdop>3.0</hdop><vdop>2.625</vdop><extensions><gom:speed>0.101</gom:speed></extensions></trkpt>
   <trkpt lat="59.3272405605" lon="34.7085107431"><ele>168.473</ele><time>2026-08-17T04:44:01.643Z</time><hdop>3.0</hdop><vdop>2.687</vdop><extensions><gom:speed>0.141</gom:speed></extensions></trkpt>
   <trkpt lat="59.3272379621" lon="34.7085131739"><ele>168.552</ele><time>2026-08-17T04:44:02.644Z</time><hdop>3.0</hdop><vdop>2.625</vdop><extensions><gom:speed>0.137</gom:speed></extensions></trkpt>
   <trkpt lat="59.3272365791" lon="34.7085134253"><ele>168.359</ele><time>2026-08-17T04:44:03.644Z</time><hdop>3.0</hdop><vdop>2.625</vdop><extensions><gom:speed>0.115</gom:speed></extensions></trkpt>
   <trkpt lat="59.3272349865" lon="34.7085134253"><ele>168.243</ele><time>2026-08-17T04:44:04.644Z</time><hdop>3.0</hdop><vdop>2.625</vdop><extensions><gom:speed>0.106</gom:speed></extensions></trkpt>
   <trkpt lat="59.3272346931" lon="34.7085136768"><ele>168.171</ele><time>2026-08-17T04:44:05.652Z</time><hdop>3.0</hdop><vdop>2.562</vdop><extensions><gom:speed>0.042</gom:speed></extensions></trkpt>
   <trkpt lat="59.3272341902" lon="34.7085133415"><ele>168.129</ele><time>2026-08-17T04:44:06.442Z</time><hdop>3.0</hdop><vdop>2.562</vdop><extensions><gom:speed>0.06</gom:speed></extensions></trkpt>
   <trkpt lat="59.3272323881" lon="34.7085122518"><ele>168.103</ele><time>2026-08-17T04:44:07.656Z</time><hdop>3.0</hdop><vdop>2.5</vdop><extensions><gom:speed>0.014</gom:speed></extensions></trkpt>
   <trkpt lat="59.3272309632" lon="34.7085118328"><ele>168.087</ele><time>2026-08-17T04:44:08.643Z</time><hdop>3.0</hdop><vdop>2.5</vdop><extensions><gom:speed>0.091</gom:speed></extensions></trkpt>
   <trkpt lat="59.3272299993" lon="34.7085117489"><ele>168.077</ele><time>2026-08-17T04:44:09.644Z</time><hdop>3.0</hdop><vdop>2.5</vdop><extensions><gom:speed>0.093</gom:speed></extensions></trkpt>
   <trkpt lat="59.3272293706" lon="34.7085118328"><ele>168.071</ele><time>2026-08-17T04:44:10.644Z</time><hdop>3.0</hdop><vdop>2.5</vdop><extensions><gom:speed>0.087</gom:speed></extensions></trkpt>
   <trkpt lat="59.3272287839" lon="34.708512168"><ele>168.067</ele><time>2026-08-17T04:44:11.644Z</time><hdop>3.0</hdop><vdop>2.5</vdop><extensions><gom:speed>0.1</gom:speed></extensions></trkpt>
   <trkpt lat="59.3272280714" lon="34.7085152693"><ele>168.065</ele><time>2026-08-17T04:44:12.652Z</time><hdop>3.0</hdop><vdop>2.5</vdop><extensions><gom:speed>0.017</gom:speed></extensions></trkpt>
   <trkpt lat="59.3272276942" lon="34.7085138444"><ele>168.063</ele><time>2026-08-17T04:44:13.643Z</time><hdop>3.0</hdop><vdop>2.5</vdop><extensions><gom:speed>0.091</gom:speed></extensions></trkpt>
   <trkpt lat="59.3272276942" lon="34.7085123357"><ele>168.061</ele><time>2026-08-17T04:44:14.644Z</time><hdop>3.0</hdop><vdop>2.5</vdop><extensions><gom:speed>0.097</gom:speed></extensions></trkpt>
   <trkpt lat="59.3272276942" lon="34.7085124195"><ele>168.059</ele><time>2026-08-17T04:44:15.648Z</time><hdop>3.0</hdop><vdop>2.5</vdop><extensions><gom:speed>0.097</gom:speed></extensions></trkpt>
   <trkpt lat="59.3272272751" lon="34.708511246"><ele>168.06</ele><time>2026-08-17T04:44:16.644Z</time><hdop>3.0</hdop><vdop>2.5</vdop><extensions><gom:speed>0.093</gom:speed></extensions></trkpt>
   <trkpt lat="59.3272274847" lon="34.7085111622"><ele>168.06</ele><time>2026-08-17T04:44:17.571Z</time><hdop>3.0</hdop><vdop>2.5</vdop><extensions><gom:speed>0.096</gom:speed></extensions></trkpt>
   <trkpt lat="59.327227359" lon="34.7085107431"><ele>167.949</ele><time>2026-08-17T04:44:18.644Z</time><hdop>3.0</hdop><vdop>2.5</vdop><extensions><gom:speed>0.396</gom:speed></extensions></trkpt>
   <trkpt lat="59.3272241738" lon="34.7085144311"><ele>167.878</ele><time>2026-08-17T04:44:19.652Z</time><hdop>3.0</hdop><vdop>2.5</vdop><extensions><gom:speed>0.417</gom:speed></extensions></trkpt>
   <trkpt lat="59.3272229585" lon="34.7085148502"><ele>167.835</ele><time>2026-08-17T04:44:20.555Z</time><hdop>3.0</hdop><vdop>2.5</vdop><extensions><gom:speed>0.109</gom:speed></extensions></trkpt>
   <trkpt lat="59.3272211983" lon="34.7085166943"><ele>167.905</ele><time>2026-08-17T04:44:21.644Z</time><hdop>3.0</hdop><vdop>2.5</vdop><extensions><gom:speed>0.114</gom:speed></extensions></trkpt>
   <trkpt lat="59.3272206954" lon="34.7085175324"><ele>167.606</ele><time>2026-08-17T04:44:22.644Z</time><hdop>3.0</hdop><vdop>2.5</vdop><extensions><gom:speed>0.214</gom:speed></extensions></trkpt>
   <trkpt lat="59.3272202763" lon="34.7085180354"><ele>167.427</ele><time>2026-08-17T04:44:23.135Z</time><hdop>3.0</hdop><vdop>2.5</vdop><extensions><gom:speed>0.224</gom:speed></extensions></trkpt>
   <trkpt lat="59.3272191866" lon="34.7085201308"><ele>167.336</ele><time>2026-08-17T04:44:23.644Z</time><hdop>3.0</hdop><vdop>2.562</vdop><extensions><gom:speed>0.092</gom:speed></extensions></trkpt>
   <trkpt lat="59.3272192704" lon="34.7085212205"><ele>167.233</ele><time>2026-08-17T04:44:24.652Z</time><hdop>3.0</hdop><vdop>2.875</vdop><extensions><gom:speed>0.091</gom:speed></extensions></trkpt>
   <trkpt lat="59.3272203601" lon="34.7085266687"><ele>167.102</ele><time>2026-08-17T04:44:25.644Z</time><hdop>3.0</hdop><vdop>3.25</vdop><extensions><gom:speed>0.258</gom:speed></extensions></trkpt>
   <trkpt lat="59.3272225813" lon="34.7085320331"><ele>166.956</ele><time>2026-08-17T04:44:26.644Z</time><hdop>3.0</hdop><vdop>3.312</vdop><extensions><gom:speed>0.301</gom:speed></extensions></trkpt>
   <trkpt lat="59.3272253892" lon="34.7085386548"><ele>166.744</ele><time>2026-08-17T04:44:27.644Z</time><hdop>3.0</hdop><vdop>3.437</vdop><extensions><gom:speed>0.33</gom:speed></extensions></trkpt>
   <trkpt lat="59.3272261855" lon="34.708542762"><ele>166.617</ele><time>2026-08-17T04:44:28.537Z</time><hdop>3.0</hdop><vdop>3.437</vdop><extensions><gom:speed>0.287</gom:speed></extensions></trkpt>
   <trkpt lat="59.3272298735" lon="34.7085512277"><ele>166.382</ele><time>2026-08-17T04:44:29.336Z</time><hdop>3.0</hdop><vdop>3.437</vdop><extensions><gom:speed>0.307</gom:speed></extensions></trkpt>
   <trkpt lat="59.3272327653" lon="34.7085584361"><ele>166.264</ele><time>2026-08-17T04:44:30.278Z</time><hdop>3.0</hdop><vdop>3.5</vdop><extensions><gom:speed>0.369</gom:speed></extensions></trkpt>
   <trkpt lat="59.3272339807" lon="34.7085654769"><ele>166.108</ele><time>2026-08-17T04:44:31.400Z</time><hdop>3.0</hdop><vdop>3.312</vdop><extensions><gom:speed>0.273</gom:speed></extensions></trkpt>
   <trkpt lat="59.3272349865" lon="34.7085733559"><ele>166.525</ele><time>2026-08-17T04:44:32.635Z</time><hdop>3.0</hdop><vdop>3.25</vdop><extensions><gom:speed>0.262</gom:speed></extensions></trkpt>
   <trkpt lat="59.3272396804" lon="34.7085832466"><ele>167.251</ele><time>2026-08-17T04:44:33.644Z</time><hdop>3.0</hdop><vdop>2.75</vdop><extensions><gom:speed>0.21</gom:speed></extensions></trkpt>
   <trkpt lat="59.3272404766" lon="34.7085849229"><ele>167.686</ele><time>2026-08-17T04:44:34.365Z</time><hdop>3.0</hdop><vdop>2.75</vdop><extensions><gom:speed>0.177</gom:speed></extensions></trkpt>
   <trkpt lat="59.3272434941" lon="34.7085938916"><ele>167.899</ele><time>2026-08-17T04:44:35.295Z</time><hdop>3.0</hdop><vdop>2.812</vdop><extensions><gom:speed>0.179</gom:speed></extensions></trkpt>
   <trkpt lat="59.3272469726" lon="34.7086007647"><ele>167.931</ele><time>2026-08-17T04:44:36.644Z</time><hdop>3.0</hdop><vdop>2.875</vdop><extensions><gom:speed>0.135</gom:speed></extensions></trkpt>
   <trkpt lat="59.3272498644" lon="34.7086051233"><ele>167.949</ele><time>2026-08-17T04:44:37.644Z</time><hdop>3.0</hdop><vdop>2.937</vdop><extensions><gom:speed>0.165</gom:speed></extensions></trkpt>
   <trkpt lat="59.3272507864" lon="34.7086076379"><ele>167.96</ele><time>2026-08-17T04:44:38.219Z</time><hdop>3.0</hdop><vdop>2.937</vdop><extensions><gom:speed>0.187</gom:speed></extensions></trkpt>
   <trkpt lat="59.3272523789" lon="34.7086133376"><ele>167.782</ele><time>2026-08-17T04:44:39.119Z</time><hdop>3.0</hdop><vdop>3.0</vdop><extensions><gom:speed>0.19</gom:speed></extensions></trkpt>
   <trkpt lat="59.3272530914" lon="34.7086173609"><ele>167.692</ele><time>2026-08-17T04:44:39.643Z</time><hdop>3.0</hdop><vdop>3.125</vdop><extensions><gom:speed>0.233</gom:speed></extensions></trkpt>
   <trkpt lat="59.3272525885" lon="34.7086244855"><ele>167.758</ele><time>2026-08-17T04:44:40.644Z</time><hdop>3.0</hdop><vdop>3.0</vdop><extensions><gom:speed>0.199</gom:speed></extensions></trkpt>
   <trkpt lat="59.327251876" lon="34.708626581"><ele>167.798</ele><time>2026-08-17T04:44:41.579Z</time><hdop>3.0</hdop><vdop>3.0</vdop><extensions><gom:speed>0.2</gom:speed></extensions></trkpt>
   <trkpt lat="59.3272499901" lon="34.7086348791"><ele>168.417</ele><time>2026-08-17T04:44:42.644Z</time><hdop>3.0</hdop><vdop>2.75</vdop><extensions><gom:speed>0.156</gom:speed></extensions></trkpt>
   <trkpt lat="59.3272475594" lon="34.708639573"><ele>168.816</ele><time>2026-08-17T04:44:43.644Z</time><hdop>3.0</hdop><vdop>2.75</vdop><extensions><gom:speed>0.139</gom:speed></extensions></trkpt>
   <trkpt lat="59.3272457992" lon="34.7086439315"><ele>169.227</ele><time>2026-08-17T04:44:44.645Z</time><hdop>3.0</hdop><vdop>2.687</vdop><extensions><gom:speed>0.118</gom:speed></extensions></trkpt>
   <trkpt lat="59.3272454639" lon="34.7086446859"><ele>169.473</ele><time>2026-08-17T04:44:45.493Z</time><hdop>3.0</hdop><vdop>2.687</vdop><extensions><gom:speed>0.123</gom:speed></extensions></trkpt>
   <trkpt lat="59.3272433684" lon="34.70865114"><ele>169.644</ele><time>2026-08-17T04:44:46.644Z</time><hdop>3.0</hdop><vdop>2.562</vdop><extensions><gom:speed>0.093</gom:speed></extensions></trkpt>
   <trkpt lat="59.3272419854" lon="34.7086536546"><ele>169.753</ele><time>2026-08-17T04:44:47.644Z</time><hdop>3.0</hdop><vdop>2.562</vdop><extensions><gom:speed>0.089</gom:speed></extensions></trkpt>
   <trkpt lat="59.3272411891" lon="34.7086560853"><ele>169.828</ele><time>2026-08-17T04:44:48.644Z</time><hdop>3.0</hdop><vdop>2.5</vdop><extensions><gom:speed>0.092</gom:speed></extensions></trkpt>
   <trkpt lat="59.3272408957" lon="34.7086572588"><ele>169.873</ele><time>2026-08-17T04:44:49.644Z</time><hdop>3.0</hdop><vdop>2.5</vdop><extensions><gom:speed>0.089</gom:speed></extensions></trkpt>
   <trkpt lat="59.3272412729" lon="34.7086562529"><ele>169.9</ele><time>2026-08-17T04:44:50.653Z</time><hdop>3.0</hdop><vdop>2.5</vdop><extensions><gom:speed>0.015</gom:speed></extensions></trkpt>
   <trkpt lat="59.3272408957" lon="34.7086561691"><ele>169.917</ele><time>2026-08-17T04:44:51.644Z</time><hdop>3.0</hdop><vdop>2.5</vdop><extensions><gom:speed>0.088</gom:speed></extensions></trkpt>
   <trkpt lat="59.3272404766" lon="34.7086574264"><ele>169.928</ele><time>2026-08-17T04:44:52.652Z</time><hdop>3.0</hdop><vdop>2.5</vdop><extensions><gom:speed>0.019</gom:speed></extensions></trkpt>
   <trkpt lat="59.3272397642" lon="34.7086581808"><ele>169.935</ele><time>2026-08-17T04:44:53.644Z</time><hdop>3.0</hdop><vdop>2.5</vdop><extensions><gom:speed>0.087</gom:speed></extensions></trkpt>
   <trkpt lat="59.3272391774" lon="34.7086584322"><ele>169.94</ele><time>2026-08-17T04:44:54.644Z</time><hdop>3.0</hdop><vdop>2.5</vdop><extensions><gom:speed>0.099</gom:speed></extensions></trkpt>
   <trkpt lat="59.3272381716" lon="34.7086618688"><ele>170.153</ele><time>2026-08-17T04:44:55.643Z</time><hdop>3.0</hdop><vdop>2.5</vdop><extensions><gom:speed>0.173</gom:speed></extensions></trkpt>
   <trkpt lat="59.3272374592" lon="34.7086631261"><ele>170.281</ele><time>2026-08-17T04:44:56.622Z</time><hdop>3.0</hdop><vdop>2.5</vdop><extensions><gom:speed>0.124</gom:speed></extensions></trkpt>
   <trkpt lat="59.3272371658" lon="34.70866782"><ele>170.352</ele><time>2026-08-17T04:44:57.652Z</time><hdop>3.0</hdop><vdop>2.5</vdop><extensions><gom:speed>0.065</gom:speed></extensions></trkpt>
   <trkpt lat="59.3272377944" lon="34.7086708375"><ele>170.392</ele><time>2026-08-17T04:44:58.645Z</time><hdop>3.0</hdop><vdop>2.5</vdop><extensions><gom:speed>0.132</gom:speed></extensions></trkpt>
   <trkpt lat="59.3272391774" lon="34.7086777944"><ele>170.298</ele><time>2026-08-17T04:44:59.644Z</time><hdop>3.0</hdop><vdop>2.5</vdop><extensions><gom:speed>0.153</gom:speed></extensions></trkpt>
   <trkpt lat="59.3272392613" lon="34.7086801414"><ele>170.242</ele><time>2026-08-17T04:45:00.395Z</time><hdop>3.0</hdop><vdop>2.5</vdop><extensions><gom:speed>0.151</gom:speed></extensions></trkpt>
   <trkpt lat="59.3272392613" lon="34.7086837456"><ele>170.116</ele><time>2026-08-17T04:45:01.023Z</time><hdop>3.0</hdop><vdop>2.5</vdop><extensions><gom:speed>0.102</gom:speed></extensions></trkpt>
   <trkpt lat="59.3272390936" lon="34.7086871822"><ele>169.978</ele><time>2026-08-17T04:45:01.644Z</time><hdop>3.0</hdop><vdop>2.5</vdop><extensions><gom:speed>0.151</gom:speed></extensions></trkpt>
   <trkpt lat="59.3272391774" lon="34.7086882718"><ele>169.896</ele><time>2026-08-17T04:45:02.176Z</time><hdop>3.0</hdop><vdop>2.5</vdop><extensions><gom:speed>0.133</gom:speed></extensions></trkpt>
   <trkpt lat="59.3272391774" lon="34.7086934686"><ele>169.994</ele><time>2026-08-17T04:45:02.644Z</time><hdop>3.0</hdop><vdop>2.5</vdop><extensions><gom:speed>0.179</gom:speed></extensions></trkpt>
   <trkpt lat="59.3272396804" lon="34.7086974919"><ele>170.05</ele><time>2026-08-17T04:45:03.652Z</time><hdop>3.0</hdop><vdop>2.625</vdop><extensions><gom:speed>0.169</gom:speed></extensions></trkpt>
   <trkpt lat="59.3272386745" lon="34.70870579"><ele>170.084</ele><time>2026-08-17T04:45:04.594Z</time><hdop>3.0</hdop><vdop>2.625</vdop><extensions><gom:speed>0.161</gom:speed></extensions></trkpt>
   <trkpt lat="59.327237082" lon="34.7087114897"><ele>170.061</ele><time>2026-08-17T04:45:05.393Z</time><hdop>3.0</hdop><vdop>2.937</vdop><extensions><gom:speed>0.167</gom:speed></extensions></trkpt>
   <trkpt lat="59.3272345674" lon="34.7087197878"><ele>170.08</ele><time>2026-08-17T04:45:06.354Z</time><hdop>3.0</hdop><vdop>3.375</vdop><extensions><gom:speed>0.194</gom:speed></extensions></trkpt>
   <trkpt lat="59.3272331844" lon="34.7087262418"><ele>170.178</ele><time>2026-08-17T04:45:07.103Z</time><hdop>3.0</hdop><vdop>3.687</vdop><extensions><gom:speed>0.205</gom:speed></extensions></trkpt>
   <trkpt lat="59.3272325977" lon="34.7087291755"><ele>170.818</ele><time>2026-08-17T04:45:07.652Z</time><hdop>3.0</hdop><vdop>3.687</vdop><extensions><gom:speed>0.192</gom:speed></extensions></trkpt>
   <trkpt lat="59.327231969" lon="34.7087322768"><ele>171.2</ele><time>2026-08-17T04:45:08.459Z</time><hdop>3.0</hdop><vdop>3.687</vdop><extensions><gom:speed>0.176</gom:speed></extensions></trkpt>
   <trkpt lat="59.3272283648" lon="34.7087419998"><ele>170.838</ele><time>2026-08-17T04:45:09.674Z</time><hdop>3.0</hdop><vdop>4.125</vdop><extensions><gom:speed>0.15</gom:speed></extensions></trkpt>
   <trkpt lat="59.3272237967" lon="34.708750717"><ele>170.646</ele><time>2026-08-17T04:45:10.644Z</time><hdop>3.0</hdop><vdop>3.687</vdop><extensions><gom:speed>0.152</gom:speed></extensions></trkpt>
   <trkpt lat="59.3272210725" lon="34.7087545727"><ele>170.417</ele><time>2026-08-17T04:45:11.652Z</time><hdop>3.0</hdop><vdop>3.437</vdop><extensions><gom:speed>0.183</gom:speed></extensions></trkpt>
   <trkpt lat="59.3272149957" lon="34.7087750245"><ele>170.449</ele><time>2026-08-17T04:45:12.644Z</time><hdop>3.0</hdop><vdop>3.312</vdop><extensions><gom:speed>0.356</gom:speed></extensions></trkpt>
   <trkpt lat="59.3272132774" lon="34.7087860886"><ele>170.706</ele><time>2026-08-17T04:45:13.652Z</time><hdop>3.0</hdop><vdop>3.562</vdop><extensions><gom:speed>0.339</gom:speed></extensions></trkpt>
   <trkpt lat="59.327208793" lon="34.708812324"><ele>170.96</ele><time>2026-08-17T04:45:14.644Z</time><hdop>3.0</hdop><vdop>3.25</vdop><extensions><gom:speed>0.421</gom:speed></extensions></trkpt>
   <trkpt lat="59.3272075777" lon="34.7088246454"><ele>171.071</ele><time>2026-08-17T04:45:15.643Z</time><hdop>3.0</hdop><vdop>3.312</vdop><extensions><gom:speed>0.485</gom:speed></extensions></trkpt>
   <trkpt lat="59.3272053984" lon="34.7088332787"><ele>171.138</ele><time>2026-08-17T04:45:16.562Z</time><hdop>3.0</hdop><vdop>3.312</vdop><extensions><gom:speed>0.435</gom:speed></extensions></trkpt>
   <trkpt lat="59.3272023809" lon="34.7088496234"><ele>171.177</ele><time>2026-08-17T04:45:17.643Z</time><hdop>3.0</hdop><vdop>2.937</vdop><extensions><gom:speed>0.451</gom:speed></extensions></trkpt>
   <trkpt lat="59.3272019618" lon="34.7088588435"><ele>171.151</ele><time>2026-08-17T04:45:18.644Z</time><hdop>3.0</hdop><vdop>2.875</vdop><extensions><gom:speed>0.334</gom:speed></extensions></trkpt>
   <trkpt lat="59.3272022971" lon="34.7088614419"><ele>171.135</ele><time>2026-08-17T04:45:19.587Z</time><hdop>3.0</hdop><vdop>2.875</vdop><extensions><gom:speed>0.324</gom:speed></extensions></trkpt>
   <trkpt lat="59.3272047697" lon="34.7088629507"><ele>171.459</ele><time>2026-08-17T04:45:20.652Z</time><hdop>3.0</hdop><vdop>2.687</vdop><extensions><gom:speed>0.156</gom:speed></extensions></trkpt>
   <trkpt lat="59.3272077872" lon="34.7088665549"><ele>171.658</ele><time>2026-08-17T04:45:21.644Z</time><hdop>3.0</hdop><vdop>2.687</vdop><extensions><gom:speed>0.195</gom:speed></extensions></trkpt>
   <trkpt lat="59.3272085835" lon="34.7088685665"><ele>171.776</ele><time>2026-08-17T04:45:22.541Z</time><hdop>3.0</hdop><vdop>2.687</vdop><extensions><gom:speed>0.193</gom:speed></extensions></trkpt>
   <trkpt lat="59.3272090864" lon="34.7088707458"><ele>171.845</ele><time>2026-08-17T04:45:23.652Z</time><hdop>3.0</hdop><vdop>2.875</vdop><extensions><gom:speed>0.135</gom:speed></extensions></trkpt>
   <trkpt lat="59.3272104694" lon="34.7088733442"><ele>171.885</ele><time>2026-08-17T04:45:24.575Z</time><hdop>3.062</hdop><vdop>2.875</vdop><extensions><gom:speed>0.178</gom:speed></extensions></trkpt>
   <trkpt lat="59.3272108885" lon="34.7088743501"><ele>171.52</ele><time>2026-08-17T04:45:25.151Z</time><hdop>3.125</hdop><vdop>2.625</vdop><extensions><gom:speed>0.18</gom:speed></extensions></trkpt>
   <trkpt lat="59.3272121877" lon="34.7088784572"><ele>171.296</ele><time>2026-08-17T04:45:25.644Z</time><hdop>3.187</hdop><vdop>2.937</vdop><extensions><gom:speed>0.2</gom:speed></extensions></trkpt>
   <trkpt lat="59.3272125649" lon="34.7088820614"><ele>170.989</ele><time>2026-08-17T04:45:26.643Z</time><hdop>3.25</hdop><vdop>3.125</vdop><extensions><gom:speed>0.205</gom:speed></extensions></trkpt>
   <trkpt lat="59.3272122715" lon="34.7088828996"><ele>170.805</ele><time>2026-08-17T04:45:27.478Z</time><hdop>3.375</hdop><vdop>3.125</vdop><extensions><gom:speed>0.18</gom:speed></extensions></trkpt>
   <trkpt lat="59.3272118944" lon="34.7088851627"><ele>170.554</ele><time>2026-08-17T04:45:28.439Z</time><hdop>3.562</hdop><vdop>3.375</vdop><extensions><gom:speed>0.166</gom:speed></extensions></trkpt>
   <trkpt lat="59.3272115591" lon="34.7088885993"><ele>170.312</ele><time>2026-08-17T04:45:29.239Z</time><hdop>3.625</hdop><vdop>3.812</vdop><extensions><gom:speed>0.155</gom:speed></extensions></trkpt>
   <trkpt lat="59.327209296" lon="34.7088950534"><ele>170.292</ele><time>2026-08-17T04:45:30.644Z</time><hdop>3.812</hdop><vdop>3.437</vdop><extensions><gom:speed>0.166</gom:speed></extensions></trkpt>
   <trkpt lat="59.3272077872" lon="34.7088973165"><ele>170.427</ele><time>2026-08-17T04:45:31.644Z</time><hdop>3.875</hdop><vdop>3.375</vdop><extensions><gom:speed>0.15</gom:speed></extensions></trkpt>
   <trkpt lat="59.327206488" lon="34.7088980708"><ele>170.375</ele><time>2026-08-17T04:45:32.643Z</time><hdop>3.875</hdop><vdop>3.437</vdop><extensions><gom:speed>0.117</gom:speed></extensions></trkpt>
   <trkpt lat="59.3272065718" lon="34.7088991605"><ele>170.407</ele><time>2026-08-17T04:45:33.650Z</time><hdop>3.937</hdop><vdop>3.312</vdop><extensions><gom:speed>0.124</gom:speed></extensions></trkpt>
   <trkpt lat="59.3272062785" lon="34.7088991605"><ele>170.426</ele><time>2026-08-17T04:45:34.116Z</time><hdop>4.0</hdop><vdop>3.312</vdop><extensions><gom:speed>0.088</gom:speed></extensions></trkpt>
   <trkpt lat="59.3272052727" lon="34.7089004178"><ele>170.302</ele><time>2026-08-17T04:45:34.645Z</time><hdop>4.0</hdop><vdop>2.875</vdop><extensions><gom:speed>0.113</gom:speed></extensions></trkpt>
   <trkpt lat="59.3272040992" lon="34.7089004178"><ele>170.41</ele><time>2026-08-17T04:45:35.652Z</time><hdop>4.062</hdop><vdop>2.937</vdop><extensions><gom:speed>0.047</gom:speed></extensions></trkpt>
   <trkpt lat="59.3272019618" lon="34.7089024294"><ele>170.474</ele><time>2026-08-17T04:45:36.381Z</time><hdop>4.062</hdop><vdop>2.937</vdop><extensions><gom:speed>0.089</gom:speed></extensions></trkpt>
   <trkpt lat="59.3271984833" lon="34.7089092188"><ele>170.138</ele><time>2026-08-17T04:45:37.644Z</time><hdop>4.062</hdop><vdop>2.5</vdop><extensions><gom:speed>0.141</gom:speed></extensions></trkpt>
   <trkpt lat="59.327197687" lon="34.7089123201"><ele>169.937</ele><time>2026-08-17T04:45:38.436Z</time><hdop>4.0</hdop><vdop>2.5</vdop><extensions><gom:speed>0.148</gom:speed></extensions></trkpt>
   <trkpt lat="59.3271974775" lon="34.708917433"><ele>169.948</ele><time>2026-08-17T04:45:39.103Z</time><hdop>3.937</hdop><vdop>2.562</vdop><extensions><gom:speed>0.18</gom:speed></extensions></trkpt>
   <trkpt lat="59.3271979804" lon="34.7089220431"><ele>169.98</ele><time>2026-08-17T04:45:39.643Z</time><hdop>3.937</hdop><vdop>2.5</vdop><extensions><gom:speed>0.204</gom:speed></extensions></trkpt>
   <trkpt lat="59.3271991958" lon="34.7089300897"><ele>169.774</ele><time>2026-08-17T04:45:40.643Z</time><hdop>3.875</hdop><vdop>2.5</vdop><extensions><gom:speed>0.242</gom:speed></extensions></trkpt>
   <trkpt lat="59.3271991958" lon="34.7089338616"><ele>169.651</ele><time>2026-08-17T04:45:41.278Z</time><hdop>3.812</hdop><vdop>2.5</vdop><extensions><gom:speed>0.249</gom:speed></extensions></trkpt>
   <trkpt lat="59.3271987767" lon="34.7089381363"><ele>169.573</ele><time>2026-08-17T04:45:41.945Z</time><hdop>3.812</hdop><vdop>2.5</vdop><extensions><gom:speed>0.247</gom:speed></extensions></trkpt>
   <trkpt lat="59.3271948791" lon="34.7089412377"><ele>169.437</ele><time>2026-08-17T04:45:42.654Z</time><hdop>3.875</hdop><vdop>2.562</vdop><extensions><gom:speed>0.29</gom:speed></extensions></trkpt>
   <trkpt lat="59.3271959687" lon="34.7089500386"><ele>169.185</ele><time>2026-08-17T04:45:43.644Z</time><hdop>3.937</hdop><vdop>2.75</vdop><extensions><gom:speed>0.274</gom:speed></extensions></trkpt>
   <trkpt lat="59.3271960945" lon="34.7089532238"><ele>169.035</ele><time>2026-08-17T04:45:44.535Z</time><hdop>4.0</hdop><vdop>2.75</vdop><extensions><gom:speed>0.228</gom:speed></extensions></trkpt>
   <trkpt lat="59.3271978966" lon="34.70895775"><ele>168.863</ele><time>2026-08-17T04:45:45.254Z</time><hdop>4.125</hdop><vdop>2.687</vdop><extensions><gom:speed>0.221</gom:speed></extensions></trkpt>
   <trkpt lat="59.3271996987" lon="34.708966551"><ele>168.525</ele><time>2026-08-17T04:45:46.195Z</time><hdop>4.312</hdop><vdop>2.75</vdop><extensions><gom:speed>0.239</gom:speed></extensions></trkpt>
   <trkpt lat="59.3271993634" lon="34.7089677245"><ele>168.105</ele><time>2026-08-17T04:45:46.652Z</time><hdop>4.375</hdop><vdop>2.875</vdop><extensions><gom:speed>0.244</gom:speed></extensions></trkpt>
   <trkpt lat="59.32719907" lon="34.7089735918"><ele>167.854</ele><time>2026-08-17T04:45:47.136Z</time><hdop>4.5</hdop><vdop>2.875</vdop><extensions><gom:speed>0.284</gom:speed></extensions></trkpt>
   <trkpt lat="59.3271980642" lon="34.7089833986"><ele>167.568</ele><time>2026-08-17T04:45:47.643Z</time><hdop>4.5</hdop><vdop>2.812</vdop><extensions><gom:speed>0.32</gom:speed></extensions></trkpt>
   <trkpt lat="59.3271946695" lon="34.7089906909"><ele>167.248</ele><time>2026-08-17T04:45:48.652Z</time><hdop>4.625</hdop><vdop>3.062</vdop><extensions><gom:speed>0.431</gom:speed></extensions></trkpt>
   <trkpt lat="59.3271899757" lon="34.7090092987"><ele>166.908</ele><time>2026-08-17T04:45:49.645Z</time><hdop>4.75</hdop><vdop>3.062</vdop><extensions><gom:speed>0.55</gom:speed></extensions></trkpt>
   <trkpt lat="59.3271799593" lon="34.7090289962"><ele>166.603</ele><time>2026-08-17T04:45:50.646Z</time><hdop>5.0</hdop><vdop>3.125</vdop><extensions><gom:speed>0.8</gom:speed></extensions></trkpt>
   <trkpt lat="59.3271764808" lon="34.709048526"><ele>166.345</ele><time>2026-08-17T04:45:51.644Z</time><hdop>5.25</hdop><vdop>3.062</vdop><extensions><gom:speed>0.744</gom:speed></extensions></trkpt>
   <trkpt lat="59.3271714936" lon="34.7090574946"><ele>166.191</ele><time>2026-08-17T04:45:52.356Z</time><hdop>5.437</hdop><vdop>3.062</vdop><extensions><gom:speed>0.795</gom:speed></extensions></trkpt>
   <trkpt lat="59.3271717869" lon="34.7090779465"><ele>166.096</ele><time>2026-08-17T04:45:53.644Z</time><hdop>5.625</hdop><vdop>3.062</vdop><extensions><gom:speed>0.749</gom:speed></extensions></trkpt>
   <trkpt lat="59.3271785763" lon="34.7090692293"><ele>166.052</ele><time>2026-08-17T04:45:54.652Z</time><hdop>5.625</hdop><vdop>3.062</vdop><extensions><gom:speed>0.198</gom:speed></extensions></trkpt>
   <trkpt lat="59.3271818871" lon="34.7090651222"><ele>166.028</ele><time>2026-08-17T04:45:55.645Z</time><hdop>5.625</hdop><vdop>3.062</vdop><extensions><gom:speed>0.188</gom:speed></extensions></trkpt>
   <trkpt lat="59.3271840664" lon="34.7090603445"><ele>165.911</ele><time>2026-08-17T04:45:56.652Z</time><hdop>5.5</hdop><vdop>3.125</vdop><extensions><gom:speed>0.04</gom:speed></extensions></trkpt>
   <trkpt lat="59.3271850723" lon="34.7090623562"><ele>165.776</ele><time>2026-08-17T04:45:57.644Z</time><hdop>5.312</hdop><vdop>3.187</vdop><extensions><gom:speed>0.131</gom:speed></extensions></trkpt>
   <trkpt lat="59.3271862876" lon="34.7090644516"><ele>165.695</ele><time>2026-08-17T04:45:58.517Z</time><hdop>5.187</hdop><vdop>3.187</vdop><extensions><gom:speed>0.132</gom:speed></extensions></trkpt>
   <trkpt lat="59.3271867906" lon="34.7090690617"><ele>165.419</ele><time>2026-08-17T04:45:59.296Z</time><hdop>5.187</hdop><vdop>3.312</vdop><extensions><gom:speed>0.147</gom:speed></extensions></trkpt>
   <trkpt lat="59.3271869582" lon="34.709076773"><ele>165.308</ele><time>2026-08-17T04:46:00.257Z</time><hdop>5.125</hdop><vdop>3.437</vdop><extensions><gom:speed>0.151</gom:speed></extensions></trkpt>
   <trkpt lat="59.3271872935" lon="34.7090863284"><ele>164.949</ele><time>2026-08-17T04:46:01.017Z</time><hdop>5.062</hdop><vdop>3.312</vdop><extensions><gom:speed>0.162</gom:speed></extensions></trkpt>
   <trkpt lat="59.3271870839" lon="34.7090887591"><ele>164.829</ele><time>2026-08-17T04:46:01.673Z</time><hdop>5.062</hdop><vdop>3.375</vdop><extensions><gom:speed>0.176</gom:speed></extensions></trkpt>
   <trkpt lat="59.3271873773" lon="34.7091061935"><ele>164.876</ele><time>2026-08-17T04:46:02.644Z</time><hdop>4.937</hdop><vdop>3.562</vdop><extensions><gom:speed>0.237</gom:speed></extensions></trkpt>
   <trkpt lat="59.3271862876" lon="34.7091169223"><ele>164.798</ele><time>2026-08-17T04:46:03.643Z</time><hdop>4.875</hdop><vdop>3.625</vdop><extensions><gom:speed>0.22</gom:speed></extensions></trkpt>
   <trkpt lat="59.3271834797" lon="34.7091282379"><ele>165.101</ele><time>2026-08-17T04:46:04.644Z</time><hdop>4.75</hdop><vdop>3.812</vdop><extensions><gom:speed>0.293</gom:speed></extensions></trkpt>
   <trkpt lat="59.3271808813" lon="34.7091377933"><ele>165.361</ele><time>2026-08-17T04:46:05.644Z</time><hdop>4.687</hdop><vdop>3.5</vdop><extensions><gom:speed>0.257</gom:speed></extensions></trkpt>
   <trkpt lat="59.3271804622" lon="34.7091433253"><ele>165.522</ele><time>2026-08-17T04:46:06.644Z</time><hdop>4.562</hdop><vdop>3.375</vdop><extensions><gom:speed>0.194</gom:speed></extensions></trkpt>
   <trkpt lat="59.3271811747" lon="34.7091436606"><ele>165.627</ele><time>2026-08-17T04:46:07.652Z</time><hdop>4.562</hdop><vdop>3.187</vdop><extensions><gom:speed>0.056</gom:speed></extensions></trkpt>
   <trkpt lat="59.3271804622" lon="34.7091473486"><ele>165.69</ele><time>2026-08-17T04:46:08.654Z</time><hdop>4.437</hdop><vdop>3.187</vdop><extensions><gom:speed>0.127</gom:speed></extensions></trkpt>
   <trkpt lat="59.3271797917" lon="34.7091517911"><ele>165.928</ele><time>2026-08-17T04:46:09.302Z</time><hdop>4.375</hdop><vdop>3.187</vdop><extensions><gom:speed>0.116</gom:speed></extensions></trkpt>
   <trkpt lat="59.3271789954" lon="34.709159251"><ele>165.975</ele><time>2026-08-17T04:46:10.040Z</time><hdop>4.187</hdop><vdop>3.25</vdop><extensions><gom:speed>0.156</gom:speed></extensions></trkpt>
   <trkpt lat="59.3271788697" lon="34.7091624361"><ele>166.003</ele><time>2026-08-17T04:46:10.516Z</time><hdop>4.187</hdop><vdop>3.25</vdop><extensions><gom:speed>0.184</gom:speed></extensions></trkpt>
   <trkpt lat="59.3271782829" lon="34.7091707342"><ele>166.068</ele><time>2026-08-17T04:46:11.537Z</time><hdop>4.125</hdop><vdop>3.312</vdop><extensions><gom:speed>0.217</gom:speed></extensions></trkpt>
   <trkpt lat="59.3271781991" lon="34.7091824688"><ele>166.317</ele><time>2026-08-17T04:46:12.458Z</time><hdop>4.125</hdop><vdop>3.187</vdop><extensions><gom:speed>0.308</gom:speed></extensions></trkpt>
   <trkpt lat="59.3271785763" lon="34.7091940359"><ele>166.436</ele><time>2026-08-17T04:46:13.318Z</time><hdop>4.125</hdop><vdop>3.125</vdop><extensions><gom:speed>0.337</gom:speed></extensions></trkpt>
   <trkpt lat="59.3271780734" lon="34.7092070278"><ele>166.828</ele><time>2026-08-17T04:46:14.300Z</time><hdop>4.125</hdop><vdop>3.062</vdop><extensions><gom:speed>0.352</gom:speed></extensions></trkpt>
   <trkpt lat="59.3271766904" lon="34.7092183434"><ele>167.0</ele><time>2026-08-17T04:46:15.139Z</time><hdop>4.187</hdop><vdop>3.125</vdop><extensions><gom:speed>0.357</gom:speed></extensions></trkpt>
   <trkpt lat="59.3271752654" lon="34.7092201874"><ele>167.216</ele><time>2026-08-17T04:46:15.652Z</time><hdop>4.25</hdop><vdop>3.375</vdop><extensions><gom:speed>0.353</gom:speed></extensions></trkpt>
   <trkpt lat="59.327171284" lon="34.7092328441"><ele>167.108</ele><time>2026-08-17T04:46:16.652Z</time><hdop>4.375</hdop><vdop>3.187</vdop><extensions><gom:speed>0.471</gom:speed></extensions></trkpt>
   <trkpt lat="59.3271648719" lon="34.7092522901"><ele>167.213</ele><time>2026-08-17T04:46:17.644Z</time><hdop>4.5</hdop><vdop>3.0</vdop><extensions><gom:speed>0.533</gom:speed></extensions></trkpt>
   <trkpt lat="59.3271582921" lon="34.7092709817"><ele>167.294</ele><time>2026-08-17T04:46:18.643Z</time><hdop>4.687</hdop><vdop>2.937</vdop><extensions><gom:speed>0.657</gom:speed></extensions></trkpt>
   <trkpt lat="59.327152299" lon="34.7092893381"><ele>167.415</ele><time>2026-08-17T04:46:19.644Z</time><hdop>4.937</hdop><vdop>2.875</vdop><extensions><gom:speed>0.709</gom:speed></extensions></trkpt>
   <trkpt lat="59.3271452582" lon="34.709305599"><ele>167.598</ele><time>2026-08-17T04:46:20.644Z</time><hdop>5.0</hdop><vdop>3.062</vdop><extensions><gom:speed>0.721</gom:speed></extensions></trkpt>
   <trkpt lat="59.3271423665" lon="34.7093098738"><ele>167.707</ele><time>2026-08-17T04:46:21.503Z</time><hdop>4.875</hdop><vdop>3.062</vdop><extensions><gom:speed>0.609</gom:speed></extensions></trkpt>
   <trkpt lat="59.3271370859" lon="34.7093190938"><ele>167.818</ele><time>2026-08-17T04:46:21.978Z</time><hdop>4.687</hdop><vdop>3.375</vdop><extensions><gom:speed>0.467</gom:speed></extensions></trkpt>
   <trkpt lat="59.3271352838" lon="34.7093195968"><ele>167.968</ele><time>2026-08-17T04:46:22.652Z</time><hdop>4.625</hdop><vdop>3.25</vdop><extensions><gom:speed>0.317</gom:speed></extensions></trkpt>
   <trkpt lat="59.3271339846" lon="34.7093239553"><ele>167.91</ele><time>2026-08-17T04:46:23.644Z</time><hdop>4.312</hdop><vdop>3.5</vdop><extensions><gom:speed>0.27</gom:speed></extensions></trkpt>
   <trkpt lat="59.3271332721" lon="34.7093257994"><ele>167.875</ele><time>2026-08-17T04:46:24.295Z</time><hdop>4.062</hdop><vdop>3.5</vdop><extensions><gom:speed>0.207</gom:speed></extensions></trkpt>
   <trkpt lat="59.3271317634" lon="34.7093283978"><ele>168.389</ele><time>2026-08-17T04:46:25.652Z</time><hdop>3.375</hdop><vdop>3.375</vdop><extensions><gom:speed>0.178</gom:speed></extensions></trkpt>
   <trkpt lat="59.3271311766" lon="34.7093281463"><ele>168.696</ele><time>2026-08-17T04:46:26.379Z</time><hdop>3.187</hdop><vdop>3.375</vdop><extensions><gom:speed>0.097</gom:speed></extensions></trkpt>
   <trkpt lat="59.3271305899" lon="34.7093274757"><ele>168.905</ele><time>2026-08-17T04:46:27.168Z</time><hdop>3.125</hdop><vdop>3.25</vdop><extensions><gom:speed>0.055</gom:speed></extensions></trkpt>
   <trkpt lat="59.3271290812" lon="34.7093277272"><ele>169.029</ele><time>2026-08-17T04:46:27.674Z</time><hdop>3.0</hdop><vdop>3.25</vdop><extensions><gom:speed>0.071</gom:speed></extensions></trkpt>
   <trkpt lat="59.3271269857" lon="34.7093283978"><ele>169.21</ele><time>2026-08-17T04:46:28.443Z</time><hdop>3.0</hdop><vdop>3.187</vdop><extensions><gom:speed>0.094</gom:speed></extensions></trkpt>
   <trkpt lat="59.3271240939" lon="34.709330158"><ele>169.475</ele><time>2026-08-17T04:46:29.616Z</time><hdop>3.0</hdop><vdop>3.187</vdop><extensions><gom:speed>0.143</gom:speed></extensions></trkpt>
   <trkpt lat="59.3271209926" lon="34.7093324211"><ele>170.118</ele><time>2026-08-17T04:46:30.618Z</time><hdop>3.0</hdop><vdop>3.312</vdop><extensions><gom:speed>0.153</gom:speed></extensions></trkpt>
   <trkpt lat="59.3271149996" lon="34.7093401324"><ele>170.777</ele><time>2026-08-17T04:46:31.644Z</time><hdop>3.0</hdop><vdop>3.062</vdop><extensions><gom:speed>0.138</gom:speed></extensions></trkpt>
   <trkpt lat="59.3271123593" lon="34.7093445748"><ele>171.172</ele><time>2026-08-17T04:46:32.644Z</time><hdop>3.0</hdop><vdop>3.187</vdop><extensions><gom:speed>0.098</gom:speed></extensions></trkpt>
   <trkpt lat="59.3271109762" lon="34.7093460836"><ele>171.449</ele><time>2026-08-17T04:46:33.653Z</time><hdop>3.0</hdop><vdop>3.0</vdop><extensions><gom:speed>0.081</gom:speed></extensions></trkpt>
   <trkpt lat="59.3271098866" lon="34.7093498554"><ele>171.212</ele><time>2026-08-17T04:46:34.652Z</time><hdop>3.0</hdop><vdop>2.937</vdop><extensions><gom:speed>0.107</gom:speed></extensions></trkpt>
   <trkpt lat="59.3271091741" lon="34.7093531244"><ele>171.07</ele><time>2026-08-17T04:46:35.120Z</time><hdop>3.0</hdop><vdop>2.937</vdop><extensions><gom:speed>0.122</gom:speed></extensions></trkpt>
   <trkpt lat="59.3271076654" lon="34.7093580697"><ele>170.986</ele><time>2026-08-17T04:46:35.656Z</time><hdop>3.0</hdop><vdop>2.937</vdop><extensions><gom:speed>0.174</gom:speed></extensions></trkpt>
   <trkpt lat="59.327105989" lon="34.7093656972"><ele>170.914</ele><time>2026-08-17T04:46:36.652Z</time><hdop>3.0</hdop><vdop>2.875</vdop><extensions><gom:speed>0.159</gom:speed></extensions></trkpt>
   <trkpt lat="59.327101379" lon="34.709380617"><ele>170.924</ele><time>2026-08-17T04:46:37.644Z</time><hdop>3.0</hdop><vdop>2.75</vdop><extensions><gom:speed>0.214</gom:speed></extensions></trkpt>
   <trkpt lat="59.3270973976" lon="34.7093913459"><ele>171.099</ele><time>2026-08-17T04:46:38.643Z</time><hdop>3.0</hdop><vdop>2.5</vdop><extensions><gom:speed>0.22</gom:speed></extensions></trkpt>
   <trkpt lat="59.3270951764" lon="34.709396375"><ele>171.039</ele><time>2026-08-17T04:46:39.652Z</time><hdop>3.0</hdop><vdop>2.562</vdop><extensions><gom:speed>0.211</gom:speed></extensions></trkpt>
   <trkpt lat="59.3270908597" lon="34.7094057627"><ele>171.06</ele><time>2026-08-17T04:46:40.652Z</time><hdop>3.0</hdop><vdop>2.562</vdop><extensions><gom:speed>0.238</gom:speed></extensions></trkpt>
   <trkpt lat="59.3270863754" lon="34.7094161563"><ele>170.531</ele><time>2026-08-17T04:46:41.656Z</time><hdop>3.0</hdop><vdop>2.5</vdop><extensions><gom:speed>0.195</gom:speed></extensions></trkpt>
   <trkpt lat="59.327080969" lon="34.7094342612"><ele>170.58</ele><time>2026-08-17T04:46:42.643Z</time><hdop>3.0</hdop><vdop>2.5</vdop><extensions><gom:speed>0.304</gom:speed></extensions></trkpt>
   <trkpt lat="59.327078664" lon="34.7094438166"><ele>170.609</ele><time>2026-08-17T04:46:43.638Z</time><hdop>3.0</hdop><vdop>2.5</vdop><extensions><gom:speed>0.302</gom:speed></extensions></trkpt>
   <trkpt lat="59.3270787897" lon="34.7094590716"><ele>170.664</ele><time>2026-08-17T04:46:44.498Z</time><hdop>3.0</hdop><vdop>2.5</vdop><extensions><gom:speed>0.416</gom:speed></extensions></trkpt>
   <trkpt lat="59.3270831902" lon="34.7094699681"><ele>170.661</ele><time>2026-08-17T04:46:45.277Z</time><hdop>3.0</hdop><vdop>2.562</vdop><extensions><gom:speed>0.48</gom:speed></extensions></trkpt>
   <trkpt lat="59.3270901891" lon="34.7094775956"><ele>170.711</ele><time>2026-08-17T04:46:46.137Z</time><hdop>3.0</hdop><vdop>2.812</vdop><extensions><gom:speed>0.512</gom:speed></extensions></trkpt>
   <trkpt lat="59.3270968946" lon="34.7094824571"><ele>170.756</ele><time>2026-08-17T04:46:46.644Z</time><hdop>3.0</hdop><vdop>2.75</vdop><extensions><gom:speed>0.551</gom:speed></extensions></trkpt>
   <trkpt lat="59.3271004989" lon="34.7094870672"><ele>170.783</ele><time>2026-08-17T04:46:47.513Z</time><hdop>3.0</hdop><vdop>2.75</vdop><extensions><gom:speed>0.554</gom:speed></extensions></trkpt>
   <trkpt lat="59.3271056956" lon="34.7094941918"><ele>170.615</ele><time>2026-08-17T04:46:48.344Z</time><hdop>3.0</hdop><vdop>2.625</vdop><extensions><gom:speed>0.551</gom:speed></extensions></trkpt>
   <trkpt lat="59.3271089646" lon="34.709503831"><ele>170.643</ele><time>2026-08-17T04:46:49.648Z</time><hdop>3.0</hdop><vdop>2.562</vdop><extensions><gom:speed>0.49</gom:speed></extensions></trkpt>
   <trkpt lat="59.3271107667" lon="34.7095079381"><ele>170.661</ele><time>2026-08-17T04:46:50.579Z</time><hdop>3.0</hdop><vdop>2.562</vdop><extensions><gom:speed>0.382</gom:speed></extensions></trkpt>
   <trkpt lat="59.327113868" lon="34.7095160686"><ele>170.857</ele><time>2026-08-17T04:46:51.641Z</time><hdop>3.0</hdop><vdop>2.5</vdop><extensions><gom:speed>0.43</gom:speed></extensions></trkpt>
   <trkpt lat="59.3271167598" lon="34.7095282223"><ele>171.265</ele><time>2026-08-17T04:46:52.481Z</time><hdop>3.0</hdop><vdop>2.687</vdop><extensions><gom:speed>0.511</gom:speed></extensions></trkpt>
   <trkpt lat="59.3271220823" lon="34.7095323295"><ele>171.652</ele><time>2026-08-17T04:46:53.652Z</time><hdop>3.0</hdop><vdop>3.062</vdop><extensions><gom:speed>0.32</gom:speed></extensions></trkpt>
   <trkpt lat="59.327129165" lon="34.7095364366"><ele>171.883</ele><time>2026-08-17T04:46:54.595Z</time><hdop>3.0</hdop><vdop>3.062</vdop><extensions><gom:speed>0.405</gom:speed></extensions></trkpt>
   <trkpt lat="59.3271369601" lon="34.7095369395"><ele>172.269</ele><time>2026-08-17T04:46:55.313Z</time><hdop>3.0</hdop><vdop>3.125</vdop><extensions><gom:speed>0.413</gom:speed></extensions></trkpt>
   <trkpt lat="59.3271430789" lon="34.7095384483"><ele>173.187</ele><time>2026-08-17T04:46:56.143Z</time><hdop>3.0</hdop><vdop>3.062</vdop><extensions><gom:speed>0.401</gom:speed></extensions></trkpt>
   <trkpt lat="59.3271480662" lon="34.7095424716"><ele>173.454</ele><time>2026-08-17T04:46:56.644Z</time><hdop>3.0</hdop><vdop>3.062</vdop><extensions><gom:speed>0.487</gom:speed></extensions></trkpt>
   <trkpt lat="59.3271500778" lon="34.7095457405"><ele>173.613</ele><time>2026-08-17T04:46:57.640Z</time><hdop>3.0</hdop><vdop>3.062</vdop><extensions><gom:speed>0.429</gom:speed></extensions></trkpt>
   <trkpt lat="59.3271542688" lon="34.7095552959"><ele>173.81</ele><time>2026-08-17T04:46:58.644Z</time><hdop>3.0</hdop><vdop>3.0</vdop><extensions><gom:speed>0.307</gom:speed></extensions></trkpt>
   <trkpt lat="59.3271553584" lon="34.7095565532"><ele>173.924</ele><time>2026-08-17T04:46:59.644Z</time><hdop>3.0</hdop><vdop>3.125</vdop><extensions><gom:speed>0.203</gom:speed></extensions></trkpt>
   <trkpt lat="59.32715649" lon="34.7095551282"><ele>173.991</ele><time>2026-08-17T04:47:00.644Z</time><hdop>3.0</hdop><vdop>3.187</vdop><extensions><gom:speed>0.131</gom:speed></extensions></trkpt>
   <trkpt lat="59.3271572863" lon="34.7095537871"><ele>174.03</ele><time>2026-08-17T04:47:01.644Z</time><hdop>3.0</hdop><vdop>3.187</vdop><extensions><gom:speed>0.122</gom:speed></extensions></trkpt>
   <trkpt lat="59.327157873" lon="34.7095523622"><ele>174.05</ele><time>2026-08-17T04:47:02.652Z</time><hdop>3.0</hdop><vdop>3.25</vdop><extensions><gom:speed>0.026</gom:speed></extensions></trkpt>
   <trkpt lat="59.3271582921" lon="34.7095523622"><ele>174.063</ele><time>2026-08-17T04:47:03.204Z</time><hdop>3.0</hdop><vdop>3.25</vdop><extensions><gom:speed>0.041</gom:speed></extensions></trkpt>
   <trkpt lat="59.3271584597" lon="34.7095557988"><ele>173.898</ele><time>2026-08-17T04:47:04.035Z</time><hdop>3.0</hdop><vdop>3.312</vdop><extensions><gom:speed>0.086</gom:speed></extensions></trkpt>
   <trkpt lat="59.3271584597" lon="34.7095580619"><ele>173.879</ele><time>2026-08-17T04:47:04.643Z</time><hdop>3.0</hdop><vdop>3.5</vdop><extensions><gom:speed>0.124</gom:speed></extensions></trkpt>
   <trkpt lat="59.3271584597" lon="34.7095587325"><ele>173.867</ele><time>2026-08-17T04:47:05.481Z</time><hdop>3.0</hdop><vdop>3.5</vdop><extensions><gom:speed>0.125</gom:speed></extensions></trkpt>
   <trkpt lat="59.3271582921" lon="34.7095618338"><ele>173.777</ele><time>2026-08-17T04:47:05.956Z</time><hdop>3.0</hdop><vdop>3.562</vdop><extensions><gom:speed>0.125</gom:speed></extensions></trkpt>
   <trkpt lat="59.3271576634" lon="34.7095652703"><ele>173.681</ele><time>2026-08-17T04:47:06.644Z</time><hdop>3.0</hdop><vdop>3.0</vdop><extensions><gom:speed>0.161</gom:speed></extensions></trkpt>
   <trkpt lat="59.3271567833" lon="34.7095697966"><ele>173.622</ele><time>2026-08-17T04:47:07.656Z</time><hdop>3.0</hdop><vdop>2.812</vdop><extensions><gom:speed>0.07</gom:speed></extensions></trkpt>
   <trkpt lat="59.3271566995" lon="34.7095730655"><ele>173.587</ele><time>2026-08-17T04:47:08.644Z</time><hdop>3.0</hdop><vdop>2.625</vdop><extensions><gom:speed>0.111</gom:speed></extensions></trkpt>
   <trkpt lat="59.3271565738" lon="34.7095736522"><ele>173.566</ele><time>2026-08-17T04:47:09.644Z</time><hdop>3.0</hdop><vdop>2.5</vdop><extensions><gom:speed>0.098</gom:speed></extensions></trkpt>
   <trkpt lat="59.3271560709" lon="34.7095749933"><ele>173.519</ele><time>2026-08-17T04:47:10.644Z</time><hdop>3.0</hdop><vdop>2.5</vdop><extensions><gom:speed>0.138</gom:speed></extensions></trkpt>
   <trkpt lat="59.3271556937" lon="34.7095765859"><ele>173.49</ele><time>2026-08-17T04:47:11.644Z</time><hdop>3.0</hdop><vdop>2.5</vdop><extensions><gom:speed>0.102</gom:speed></extensions></trkpt>
   <trkpt lat="59.3271554841" lon="34.7095757477"><ele>173.473</ele><time>2026-08-17T04:47:12.652Z</time><hdop>3.0</hdop><vdop>2.5</vdop><extensions><gom:speed>0.048</gom:speed></extensions></trkpt>
   <trkpt lat="59.3271553584" lon="34.7095781785"><ele>173.557</ele><time>2026-08-17T04:47:13.644Z</time><hdop>3.0</hdop><vdop>2.5</vdop><extensions><gom:speed>0.101</gom:speed></extensions></trkpt>
   <trkpt lat="59.3271552746" lon="34.7095783461"><ele>173.607</ele><time>2026-08-17T04:47:14.333Z</time><hdop>3.0</hdop><vdop>2.5</vdop><extensions><gom:speed>0.088</gom:speed></extensions></trkpt>
   <trkpt lat="59.3271557775" lon="34.7095791843"><ele>173.662</ele><time>2026-08-17T04:47:15.648Z</time><hdop>3.0</hdop><vdop>2.5</vdop><extensions><gom:speed>0.122</gom:speed></extensions></trkpt>
   <trkpt lat="59.3271563642" lon="34.709580693"><ele>173.695</ele><time>2026-08-17T04:47:16.660Z</time><hdop>3.0</hdop><vdop>2.5</vdop><extensions><gom:speed>0.056</gom:speed></extensions></trkpt>
   <trkpt lat="59.3271565738" lon="34.7095823694"><ele>173.716</ele><time>2026-08-17T04:47:17.644Z</time><hdop>3.0</hdop><vdop>2.5</vdop><extensions><gom:speed>0.094</gom:speed></extensions></trkpt>
   <trkpt lat="59.3271566995" lon="34.7095838782"><ele>173.731</ele><time>2026-08-17T04:47:18.643Z</time><hdop>3.0</hdop><vdop>2.5</vdop><extensions><gom:speed>0.1</gom:speed></extensions></trkpt>
   <trkpt lat="59.3271569929" lon="34.7095856384"><ele>173.521</ele><time>2026-08-17T04:47:19.652Z</time><hdop>3.0</hdop><vdop>2.5</vdop><extensions><gom:speed>0.041</gom:speed></extensions></trkpt>
   <trkpt lat="59.3271570767" lon="34.7095890749"><ele>173.395</ele><time>2026-08-17T04:47:20.644Z</time><hdop>3.0</hdop><vdop>2.5</vdop><extensions><gom:speed>0.103</gom:speed></extensions></trkpt>
   <trkpt lat="59.3271568672" lon="34.7095916733"><ele>173.298</ele><time>2026-08-17T04:47:21.643Z</time><hdop>3.0</hdop><vdop>2.5</vdop><extensions><gom:speed>0.126</gom:speed></extensions></trkpt>
   <trkpt lat="59.3271565738" lon="34.7095928468"><ele>173.218</ele><time>2026-08-17T04:47:22.644Z</time><hdop>3.0</hdop><vdop>2.5</vdop><extensions><gom:speed>0.12</gom:speed></extensions></trkpt>
   <trkpt lat="59.3271560709" lon="34.7095938526"><ele>173.168</ele><time>2026-08-17T04:47:23.644Z</time><hdop>3.0</hdop><vdop>2.562</vdop><extensions><gom:speed>0.113</gom:speed></extensions></trkpt>
   <trkpt lat="59.327155568" lon="34.7095929306"><ele>173.137</ele><time>2026-08-17T04:47:24.652Z</time><hdop>3.0</hdop><vdop>2.5</vdop><extensions><gom:speed>0.023</gom:speed></extensions></trkpt>
   <trkpt lat="59.3271552746" lon="34.7095928468"><ele>173.119</ele><time>2026-08-17T04:47:25.462Z</time><hdop>3.0</hdop><vdop>2.5</vdop><extensions><gom:speed>0.035</gom:speed></extensions></trkpt>
   <trkpt lat="59.3271539754" lon="34.7095939365"><ele>173.142</ele><time>2026-08-17T04:47:26.644Z</time><hdop>3.0</hdop><vdop>3.125</vdop><extensions><gom:speed>0.009</gom:speed></extensions></trkpt>
   <trkpt lat="59.3271537659" lon="34.7095941879"><ele>173.159</ele><time>2026-08-17T04:47:27.644Z</time><hdop>3.0</hdop><vdop>3.312</vdop><extensions><gom:speed>0.024</gom:speed></extensions></trkpt>
   <trkpt lat="59.3271533887" lon="34.7095946908"><ele>173.171</ele><time>2026-08-17T04:47:28.643Z</time><hdop>3.0</hdop><vdop>3.5</vdop><extensions><gom:speed>0.03</gom:speed></extensions></trkpt>
   <trkpt lat="59.3271529696" lon="34.7095950261"><ele>173.193</ele><time>2026-08-17T04:47:29.644Z</time><hdop>3.0</hdop><vdop>3.75</vdop><extensions><gom:speed>0.034</gom:speed></extensions></trkpt>
   <trkpt lat="59.3271525924" lon="34.7095953614"><ele>173.2</ele><time>2026-08-17T04:47:30.644Z</time><hdop>3.0</hdop><vdop>4.0</vdop><extensions><gom:speed>0.04</gom:speed></extensions></trkpt>
   <trkpt lat="59.3271521733" lon="34.7095952776"><ele>173.199</ele><time>2026-08-17T04:47:31.652Z</time><hdop>3.0</hdop><vdop>4.0</vdop><extensions><gom:speed>0.041</gom:speed></extensions></trkpt>
   <trkpt lat="59.3271517961" lon="34.7095952776"><ele>173.198</ele><time>2026-08-17T04:47:32.645Z</time><hdop>3.0</hdop><vdop>4.125</vdop><extensions><gom:speed>0.045</gom:speed></extensions></trkpt>
   <trkpt lat="59.327151377" lon="34.7095954452"><ele>173.224</ele><time>2026-08-17T04:47:33.656Z</time><hdop>3.0</hdop><vdop>4.062</vdop><extensions><gom:speed>0.047</gom:speed></extensions></trkpt>
   <trkpt lat="59.3271501616" lon="34.709597373"><ele>173.141</ele><time>2026-08-17T04:47:34.644Z</time><hdop>3.0</hdop><vdop>3.75</vdop><extensions><gom:speed>0.141</gom:speed></extensions></trkpt>
   <trkpt lat="59.3271491977" lon="34.7095993847"><ele>173.064</ele><time>2026-08-17T04:47:35.644Z</time><hdop>3.0</hdop><vdop>3.625</vdop><extensions><gom:speed>0.147</gom:speed></extensions></trkpt>
   <trkpt lat="59.3271484853" lon="34.7096008934"><ele>173.019</ele><time>2026-08-17T04:47:36.643Z</time><hdop>3.0</hdop><vdop>3.437</vdop><extensions><gom:speed>0.144</gom:speed></extensions></trkpt>
   <trkpt lat="59.327147689" lon="34.709602486"><ele>172.992</ele><time>2026-08-17T04:47:37.644Z</time><hdop>3.125</hdop><vdop>3.125</vdop><extensions><gom:speed>0.138</gom:speed></extensions></trkpt>
   <trkpt lat="59.3271473956" lon="34.7096032404"><ele>172.975</ele><time>2026-08-17T04:47:38.644Z</time><hdop>3.187</hdop><vdop>2.687</vdop><extensions><gom:speed>0.133</gom:speed></extensions></trkpt>
   <trkpt lat="59.3271470603" lon="34.7096040786"><ele>172.963</ele><time>2026-08-17T04:47:39.644Z</time><hdop>3.25</hdop><vdop>2.5</vdop><extensions><gom:speed>0.128</gom:speed></extensions></trkpt>
   <trkpt lat="59.327146767" lon="34.7096046653"><ele>172.956</ele><time>2026-08-17T04:47:40.643Z</time><hdop>3.312</hdop><vdop>2.5</vdop><extensions><gom:speed>0.125</gom:speed></extensions></trkpt>
   <trkpt lat="59.3271462641" lon="34.7096055873"><ele>172.949</ele><time>2026-08-17T04:47:41.649Z</time><hdop>3.5</hdop><vdop>2.5</vdop><extensions><gom:speed>0.126</gom:speed></extensions></trkpt>
   <trkpt lat="59.3271459707" lon="34.7096062578"><ele>172.942</ele><time>2026-08-17T04:47:42.644Z</time><hdop>3.625</hdop><vdop>2.5</vdop><extensions><gom:speed>0.119</gom:speed></extensions></trkpt>
   <trkpt lat="59.3271456773" lon="34.7096066769"><ele>172.937</ele><time>2026-08-17T04:47:43.643Z</time><hdop>3.687</hdop><vdop>2.5</vdop><extensions><gom:speed>0.115</gom:speed></extensions></trkpt>
   <trkpt lat="59.3271455935" lon="34.7096066769"><ele>172.933</ele><time>2026-08-17T04:47:44.644Z</time><hdop>3.75</hdop><vdop>2.5</vdop><extensions><gom:speed>0.111</gom:speed></extensions></trkpt>
   <trkpt lat="59.3271452582" lon="34.709607096"><ele>172.928</ele><time>2026-08-17T04:47:45.652Z</time><hdop>3.875</hdop><vdop>2.5</vdop><extensions><gom:speed>0.111</gom:speed></extensions></trkpt>
   <trkpt lat="59.327145384" lon="34.7096068446"><ele>172.923</ele><time>2026-08-17T04:47:46.644Z</time><hdop>3.875</hdop><vdop>2.5</vdop><extensions><gom:speed>0.112</gom:speed></extensions></trkpt>
   <trkpt lat="59.3271452582" lon="34.7096069284"><ele>172.919</ele><time>2026-08-17T04:47:47.643Z</time><hdop>3.812</hdop><vdop>2.5</vdop><extensions><gom:speed>0.111</gom:speed></extensions></trkpt>
   <trkpt lat="59.3271451744" lon="34.7096069284"><ele>172.916</ele><time>2026-08-17T04:47:48.427Z</time><hdop>3.875</hdop><vdop>2.5</vdop><extensions><gom:speed>0.111</gom:speed></extensions></trkpt>
   <trkpt lat="59.3271450906" lon="34.7096072637"><ele>172.912</ele><time>2026-08-17T04:47:49.644Z</time><hdop>3.812</hdop><vdop>2.5</vdop><extensions><gom:speed>0.108</gom:speed></extensions></trkpt>
   <trkpt lat="59.3271447972" lon="34.7096077666"><ele>172.909</ele><time>2026-08-17T04:47:50.654Z</time><hdop>3.812</hdop><vdop>2.5</vdop><extensions><gom:speed>0.108</gom:speed></extensions></trkpt>
   <trkpt lat="59.3271447972" lon="34.7096077666"><ele>172.906</ele><time>2026-08-17T04:47:51.644Z</time><hdop>3.75</hdop><vdop>2.75</vdop><extensions><gom:speed>0.107</gom:speed></extensions></trkpt>
   <trkpt lat="59.3271449649" lon="34.7096077666"><ele>172.903</ele><time>2026-08-17T04:47:52.644Z</time><hdop>3.687</hdop><vdop>2.937</vdop><extensions><gom:speed>0.101</gom:speed></extensions></trkpt>
   <trkpt lat="59.327144881" lon="34.7096079342"><ele>172.899</ele><time>2026-08-17T04:47:53.644Z</time><hdop>3.687</hdop><vdop>3.187</vdop><extensions><gom:speed>0.103</gom:speed></extensions></trkpt>
   <trkpt lat="59.3271445877" lon="34.7096084371"><ele>172.895</ele><time>2026-08-17T04:47:54.644Z</time><hdop>3.625</hdop><vdop>3.375</vdop><extensions><gom:speed>0.103</gom:speed></extensions></trkpt>
   <trkpt lat="59.3271445877" lon="34.7096086886"><ele>172.89</ele><time>2026-08-17T04:47:55.644Z</time><hdop>3.625</hdop><vdop>3.5</vdop><extensions><gom:speed>0.103</gom:speed></extensions></trkpt>
   <trkpt lat="59.3271443781" lon="34.7096089401"><ele>172.886</ele><time>2026-08-17T04:47:56.645Z</time><hdop>3.625</hdop><vdop>3.562</vdop><extensions><gom:speed>0.106</gom:speed></extensions></trkpt>
   <trkpt lat="59.3271441686" lon="34.709609443"><ele>172.882</ele><time>2026-08-17T04:47:57.652Z</time><hdop>3.625</hdop><vdop>3.562</vdop><extensions><gom:speed>0.106</gom:speed></extensions></trkpt>
   <trkpt lat="59.3271440848" lon="34.7096098621"><ele>172.904</ele><time>2026-08-17T04:47:58.645Z</time><hdop>3.687</hdop><vdop>3.812</vdop><extensions><gom:speed>0.106</gom:speed></extensions></trkpt>
   <trkpt lat="59.3271440848" lon="34.7096098621"><ele>172.916</ele><time>2026-08-17T04:47:59.557Z</time><hdop>3.687</hdop><vdop>3.812</vdop><extensions><gom:speed>0.106</gom:speed></extensions></trkpt>
   <trkpt lat="59.3271437914" lon="34.7096105326"><ele>172.945</ele><time>2026-08-17T04:48:00.644Z</time><hdop>3.75</hdop><vdop>4.0</vdop><extensions><gom:speed>0.108</gom:speed></extensions></trkpt>
   <trkpt lat="59.3271436657" lon="34.7096108679"><ele>172.975</ele><time>2026-08-17T04:48:01.643Z</time><hdop>3.75</hdop><vdop>3.875</vdop><extensions><gom:speed>0.111</gom:speed></extensions></trkpt>
   <trkpt lat="59.3271435818" lon="34.709611287"><ele>173.016</ele><time>2026-08-17T04:48:02.644Z</time><hdop>3.75</hdop><vdop>3.875</vdop><extensions><gom:speed>0.109</gom:speed></extensions></trkpt>
   <trkpt lat="59.3271433723" lon="34.7096116223"><ele>173.056</ele><time>2026-08-17T04:48:03.644Z</time><hdop>3.75</hdop><vdop>3.687</vdop><extensions><gom:speed>0.111</gom:speed></extensions></trkpt>
   <trkpt lat="59.3271432885" lon="34.7096119575"><ele>173.078</ele><time>2026-08-17T04:48:04.644Z</time><hdop>3.812</hdop><vdop>3.625</vdop><extensions><gom:speed>0.11</gom:speed></extensions></trkpt>
   <trkpt lat="59.3271433723" lon="34.7096117899"><ele>173.092</ele><time>2026-08-17T04:48:05.120Z</time><hdop>3.812</hdop><vdop>3.625</vdop><extensions><gom:speed>0.11</gom:speed></extensions></trkpt>
   <trkpt lat="59.327143498" lon="34.7096120414"><ele>173.099</ele><time>2026-08-17T04:48:05.643Z</time><hdop>3.75</hdop><vdop>3.562</vdop><extensions><gom:speed>0.098</gom:speed></extensions></trkpt>
   <trkpt lat="59.327143498" lon="34.7096119575"><ele>173.102</ele><time>2026-08-17T04:48:06.644Z</time><hdop>3.625</hdop><vdop>3.5</vdop><extensions><gom:speed>0.093</gom:speed></extensions></trkpt>
   <trkpt lat="59.3271432885" lon="34.7096122928"><ele>173.121</ele><time>2026-08-17T04:48:07.649Z</time><hdop>3.5</hdop><vdop>3.562</vdop><extensions><gom:speed>0.093</gom:speed></extensions></trkpt>
   <trkpt lat="59.3271431627" lon="34.7096124605"><ele>173.145</ele><time>2026-08-17T04:48:08.644Z</time><hdop>3.375</hdop><vdop>3.625</vdop><extensions><gom:speed>0.086</gom:speed></extensions></trkpt>
   <trkpt lat="59.3271430789" lon="34.7096127957"><ele>173.164</ele><time>2026-08-17T04:48:09.652Z</time><hdop>3.187</hdop><vdop>3.375</vdop><extensions><gom:speed>0.086</gom:speed></extensions></trkpt>
   <trkpt lat="59.3271429951" lon="34.7096130472"><ele>173.188</ele><time>2026-08-17T04:48:10.643Z</time><hdop>3.0</hdop><vdop>3.375</vdop><extensions><gom:speed>0.081</gom:speed></extensions></trkpt>
   <trkpt lat="59.3271428694" lon="34.7096136339"><ele>173.2</ele><time>2026-08-17T04:48:11.644Z</time><hdop>3.0</hdop><vdop>3.312</vdop><extensions><gom:speed>0.078</gom:speed></extensions></trkpt>
   <trkpt lat="59.3271430789" lon="34.7096139692"><ele>173.207</ele><time>2026-08-17T04:48:12.645Z</time><hdop>3.0</hdop><vdop>3.25</vdop><extensions><gom:speed>0.077</gom:speed></extensions></trkpt>
   <trkpt lat="59.3271430789" lon="34.7096142207"><ele>173.22</ele><time>2026-08-17T04:48:13.644Z</time><hdop>3.0</hdop><vdop>3.125</vdop><extensions><gom:speed>0.075</gom:speed></extensions></trkpt>
   <trkpt lat="59.3271428694" lon="34.7096144721"><ele>173.235</ele><time>2026-08-17T04:48:14.644Z</time><hdop>3.0</hdop><vdop>3.187</vdop><extensions><gom:speed>0.076</gom:speed></extensions></trkpt>
   <trkpt lat="59.3271424922" lon="34.7096145559"><ele>173.257</ele><time>2026-08-17T04:48:15.645Z</time><hdop>3.0</hdop><vdop>3.062</vdop><extensions><gom:speed>0.078</gom:speed></extensions></trkpt>
   <trkpt lat="59.3271423665" lon="34.7096144721"><ele>173.27</ele><time>2026-08-17T04:48:16.248Z</time><hdop>3.0</hdop><vdop>3.062</vdop><extensions><gom:speed>0.079</gom:speed></extensions></trkpt>
   <trkpt lat="59.3271419893" lon="34.7096147236"><ele>173.275</ele><time>2026-08-17T04:48:17.644Z</time><hdop>3.0</hdop><vdop>2.875</vdop><extensions><gom:speed>0.078</gom:speed></extensions></trkpt>
   <trkpt lat="59.3271417797" lon="34.7096147236"><ele>173.275</ele><time>2026-08-17T04:48:18.652Z</time><hdop>3.0</hdop><vdop>2.875</vdop><extensions><gom:speed>0.078</gom:speed></extensions></trkpt>
   <trkpt lat="59.3271415702" lon="34.7096147236"><ele>173.273</ele><time>2026-08-17T04:48:19.644Z</time><hdop>3.0</hdop><vdop>2.875</vdop><extensions><gom:speed>0.074</gom:speed></extensions></trkpt>
   <trkpt lat="59.3271414864" lon="34.7096147236"><ele>173.272</ele><time>2026-08-17T04:48:20.645Z</time><hdop>3.0</hdop><vdop>2.812</vdop><extensions><gom:speed>0.073</gom:speed></extensions></trkpt>
   <trkpt lat="59.3271412768" lon="34.7096146398"><ele>173.269</ele><time>2026-08-17T04:48:21.644Z</time><hdop>3.0</hdop><vdop>2.75</vdop><extensions><gom:speed>0.077</gom:speed></extensions></trkpt>
   <trkpt lat="59.3271410673" lon="34.7096148912"><ele>173.273</ele><time>2026-08-17T04:48:22.644Z</time><hdop>3.0</hdop><vdop>2.687</vdop><extensions><gom:speed>0.076</gom:speed></extensions></trkpt>
   <trkpt lat="59.3271410673" lon="34.709614975"><ele>173.286</ele><time>2026-08-17T04:48:23.652Z</time><hdop>3.0</hdop><vdop>2.875</vdop><extensions><gom:speed>0.076</gom:speed></extensions></trkpt>
   <trkpt lat="59.3271408996" lon="34.7096151427"><ele>173.317</ele><time>2026-08-17T04:48:24.645Z</time><hdop>3.0</hdop><vdop>2.937</vdop><extensions><gom:speed>0.072</gom:speed></extensions></trkpt>
   <trkpt lat="59.3271406901" lon="34.7096154779"><ele>173.351</ele><time>2026-08-17T04:48:25.644Z</time><hdop>3.0</hdop><vdop>2.937</vdop><extensions><gom:speed>0.073</gom:speed></extensions></trkpt>
   <trkpt lat="59.3271404805" lon="34.7096157294"><ele>173.387</ele><time>2026-08-17T04:48:26.644Z</time><hdop>3.0</hdop><vdop>3.0</vdop><extensions><gom:speed>0.074</gom:speed></extensions></trkpt>
   <trkpt lat="59.3271405644" lon="34.7096157294"><ele>173.408</ele><time>2026-08-17T04:48:27.377Z</time><hdop>3.0</hdop><vdop>3.0</vdop><extensions><gom:speed>0.074</gom:speed></extensions></trkpt>
   <trkpt lat="59.3271401872" lon="34.7096164838"><ele>173.438</ele><time>2026-08-17T04:48:28.644Z</time><hdop>3.0</hdop><vdop>3.187</vdop><extensions><gom:speed>0.074</gom:speed></extensions></trkpt>
   <trkpt lat="59.3271399776" lon="34.7096167352"><ele>173.457</ele><time>2026-08-17T04:48:29.643Z</time><hdop>3.0</hdop><vdop>3.25</vdop><extensions><gom:speed>0.075</gom:speed></extensions></trkpt>
   <trkpt lat="59.3271398938" lon="34.7096170705"><ele>173.469</ele><time>2026-08-17T04:48:30.645Z</time><hdop>3.0</hdop><vdop>3.312</vdop><extensions><gom:speed>0.075</gom:speed></extensions></trkpt>
   <trkpt lat="59.3271396843" lon="34.7096172381"><ele>173.476</ele><time>2026-08-17T04:48:31.644Z</time><hdop>3.0</hdop><vdop>3.375</vdop><extensions><gom:speed>0.076</gom:speed></extensions></trkpt>
   <trkpt lat="59.3271395585" lon="34.709617322"><ele>173.479</ele><time>2026-08-17T04:48:32.644Z</time><hdop>3.0</hdop><vdop>3.437</vdop><extensions><gom:speed>0.077</gom:speed></extensions></trkpt>
   <trkpt lat="59.3271393909" lon="34.7096175734"><ele>173.481</ele><time>2026-08-17T04:48:33.650Z</time><hdop>3.0</hdop><vdop>3.312</vdop><extensions><gom:speed>0.078</gom:speed></extensions></trkpt>
   <trkpt lat="59.3271390975" lon="34.7096177411"><ele>173.481</ele><time>2026-08-17T04:48:34.645Z</time><hdop>3.0</hdop><vdop>3.25</vdop><extensions><gom:speed>0.078</gom:speed></extensions></trkpt>
   <trkpt lat="59.3271389718" lon="34.7096179925"><ele>173.482</ele><time>2026-08-17T04:48:35.652Z</time><hdop>3.0</hdop><vdop>3.25</vdop><extensions><gom:speed>0.078</gom:speed></extensions></trkpt>
   <trkpt lat="59.327138888" lon="34.7096179925"><ele>173.482</ele><time>2026-08-17T04:48:36.644Z</time><hdop>3.0</hdop><vdop>3.125</vdop><extensions><gom:speed>0.076</gom:speed></extensions></trkpt>
   <trkpt lat="59.3271387622" lon="34.7096179925"><ele>173.487</ele><time>2026-08-17T04:48:37.644Z</time><hdop>3.0</hdop><vdop>3.25</vdop><extensions><gom:speed>0.075</gom:speed></extensions></trkpt>
   <trkpt lat="59.3271387622" lon="34.7096178249"><ele>173.489</ele><time>2026-08-17T04:48:38.607Z</time><hdop>3.0</hdop><vdop>3.25</vdop><extensions><gom:speed>0.075</gom:speed></extensions></trkpt>
   <trkpt lat="59.3271383851" lon="34.7096179925"><ele>173.494</ele><time>2026-08-17T04:48:39.644Z</time><hdop>3.0</hdop><vdop>3.187</vdop><extensions><gom:speed>0.073</gom:speed></extensions></trkpt>
   <trkpt lat="59.3271380917" lon="34.7096176572"><ele>173.502</ele><time>2026-08-17T04:48:40.644Z</time><hdop>3.0</hdop><vdop>2.937</vdop><extensions><gom:speed>0.071</gom:speed></extensions></trkpt>
   <trkpt lat="59.327137966" lon="34.7096175734"><ele>173.509</ele><time>2026-08-17T04:48:41.643Z</time><hdop>3.0</hdop><vdop>3.0</vdop><extensions><gom:speed>0.071</gom:speed></extensions></trkpt>
   <trkpt lat="59.327137966" lon="34.709617322"><ele>173.513</ele><time>2026-08-17T04:48:42.643Z</time><hdop>3.0</hdop><vdop>3.062</vdop><extensions><gom:speed>0.072</gom:speed></extensions></trkpt>
   <trkpt lat="59.3271378821" lon="34.7096172381"><ele>173.523</ele><time>2026-08-17T04:48:43.644Z</time><hdop>3.0</hdop><vdop>2.875</vdop><extensions><gom:speed>0.072</gom:speed></extensions></trkpt>
   <trkpt lat="59.3271378821" lon="34.7096171543"><ele>173.53</ele><time>2026-08-17T04:48:44.172Z</time><hdop>3.0</hdop><vdop>2.875</vdop><extensions><gom:speed>0.072</gom:speed></extensions></trkpt>
   <trkpt lat="59.3271377983" lon="34.7096171543"><ele>173.542</ele><time>2026-08-17T04:48:44.644Z</time><hdop>3.0</hdop><vdop>2.75</vdop><extensions><gom:speed>0.073</gom:speed></extensions></trkpt>
   <trkpt lat="59.3271377983" lon="34.7096172381"><ele>173.55</ele><time>2026-08-17T04:48:45.644Z</time><hdop>3.0</hdop><vdop>2.625</vdop><extensions><gom:speed>0.071</gom:speed></extensions></trkpt>
   <trkpt lat="59.3271376726" lon="34.709617322"><ele>173.564</ele><time>2026-08-17T04:48:46.644Z</time><hdop>3.0</hdop><vdop>2.562</vdop><extensions><gom:speed>0.071</gom:speed></extensions></trkpt>
   <trkpt lat="59.3271375888" lon="34.709617322"><ele>173.581</ele><time>2026-08-17T04:48:47.643Z</time><hdop>3.0</hdop><vdop>2.5</vdop><extensions><gom:speed>0.072</gom:speed></extensions></trkpt>
   <trkpt lat="59.3271374631" lon="34.7096172381"><ele>173.6</ele><time>2026-08-17T04:48:48.644Z</time><hdop>3.0</hdop><vdop>2.5</vdop><extensions><gom:speed>0.072</gom:speed></extensions></trkpt>
   <trkpt lat="59.3271372954" lon="34.7096172381"><ele>173.617</ele><time>2026-08-17T04:48:49.652Z</time><hdop>3.0</hdop><vdop>2.5</vdop><extensions><gom:speed>0.072</gom:speed></extensions></trkpt>
   <trkpt lat="59.3271371697" lon="34.7096170705"><ele>173.626</ele><time>2026-08-17T04:48:50.646Z</time><hdop>3.0</hdop><vdop>2.5</vdop><extensions><gom:speed>0.072</gom:speed></extensions></trkpt>
   <trkpt lat="59.3271371697" lon="34.709616819"><ele>173.635</ele><time>2026-08-17T04:48:51.643Z</time><hdop>3.0</hdop><vdop>2.5</vdop><extensions><gom:speed>0.07</gom:speed></extensions></trkpt>
   <trkpt lat="59.3271369601" lon="34.7096166514"><ele>173.642</ele><time>2026-08-17T04:48:52.643Z</time><hdop>3.0</hdop><vdop>2.5</vdop><extensions><gom:speed>0.069</gom:speed></extensions></trkpt>
   <trkpt lat="59.3271368763" lon="34.7096165676"><ele>173.653</ele><time>2026-08-17T04:48:53.652Z</time><hdop>3.0</hdop><vdop>2.5</vdop><extensions><gom:speed>0.07</gom:speed></extensions></trkpt>
   <trkpt lat="59.3271368763" lon="34.7096164838"><ele>173.664</ele><time>2026-08-17T04:48:54.652Z</time><hdop>3.0</hdop><vdop>2.5</vdop><extensions><gom:speed>0.069</gom:speed></extensions></trkpt>
   <trkpt lat="59.3271368763" lon="34.7096164838"><ele>173.67</ele><time>2026-08-17T04:48:55.300Z</time><hdop>3.0</hdop><vdop>2.5</vdop><extensions><gom:speed>0.07</gom:speed></extensions></trkpt>
   <trkpt lat="59.3271366668" lon="34.7096162323"><ele>173.679</ele><time>2026-08-17T04:48:56.652Z</time><hdop>3.0</hdop><vdop>2.5</vdop><extensions><gom:speed>0.069</gom:speed></extensions></trkpt>
   <trkpt lat="59.3271366668" lon="34.7096164838"><ele>173.692</ele><time>2026-08-17T04:48:57.644Z</time><hdop>3.0</hdop><vdop>2.5</vdop><extensions><gom:speed>0.07</gom:speed></extensions></trkpt>
   <trkpt lat="59.327136583" lon="34.7096165676"><ele>173.704</ele><time>2026-08-17T04:48:58.645Z</time><hdop>3.0</hdop><vdop>2.5</vdop><extensions><gom:speed>0.071</gom:speed></extensions></trkpt>
   <trkpt lat="59.3271364991" lon="34.7096166514"><ele>173.72</ele><time>2026-08-17T04:48:59.650Z</time><hdop>3.0</hdop><vdop>2.5</vdop><extensions><gom:speed>0.071</gom:speed></extensions></trkpt>
   <trkpt lat="59.3271363734" lon="34.7096166514"><ele>173.736</ele><time>2026-08-17T04:49:00.644Z</time><hdop>3.0</hdop><vdop>2.5</vdop><extensions><gom:speed>0.066</gom:speed></extensions></trkpt>
   <trkpt lat="59.3271361639" lon="34.7096167352"><ele>173.747</ele><time>2026-08-17T04:49:01.643Z</time><hdop>3.0</hdop><vdop>2.5</vdop><extensions><gom:speed>0.068</gom:speed></extensions></trkpt>
   <trkpt lat="59.3271361639" lon="34.709616819"><ele>173.758</ele><time>2026-08-17T04:49:02.643Z</time><hdop>3.0</hdop><vdop>2.5</vdop><extensions><gom:speed>0.067</gom:speed></extensions></trkpt>
   <trkpt lat="59.3271359962" lon="34.7096169867"><ele>173.768</ele><time>2026-08-17T04:49:03.644Z</time><hdop>3.0</hdop><vdop>2.5</vdop><extensions><gom:speed>0.067</gom:speed></extensions></trkpt>
   <trkpt lat="59.3271358705" lon="34.7096169867"><ele>173.777</ele><time>2026-08-17T04:49:04.644Z</time><hdop>3.0</hdop><vdop>2.5</vdop><extensions><gom:speed>0.07</gom:speed></extensions></trkpt>
   <trkpt lat="59.3271357867" lon="34.7096170705"><ele>173.784</ele><time>2026-08-17T04:49:05.644Z</time><hdop>3.0</hdop><vdop>2.5</vdop><extensions><gom:speed>0.07</gom:speed></extensions></trkpt>
   <trkpt lat="59.3271357867" lon="34.7096170705"><ele>173.788</ele><time>2026-08-17T04:49:06.429Z</time><hdop>3.0</hdop><vdop>2.5</vdop><extensions><gom:speed>0.07</gom:speed></extensions></trkpt>
   <trkpt lat="59.3271354933" lon="34.7096171543"><ele>173.793</ele><time>2026-08-17T04:49:07.644Z</time><hdop>3.0</hdop><vdop>2.5</vdop><extensions><gom:speed>0.071</gom:speed></extensions></trkpt>
   <trkpt lat="59.3271353676" lon="34.7096172381"><ele>173.795</ele><time>2026-08-17T04:49:08.652Z</time><hdop>3.0</hdop><vdop>2.5</vdop><extensions><gom:speed>0.071</gom:speed></extensions></trkpt>
   <trkpt lat="59.3271353676" lon="34.7096171543"><ele>173.797</ele><time>2026-08-17T04:49:09.644Z</time><hdop>3.0</hdop><vdop>2.5</vdop><extensions><gom:speed>0.069</gom:speed></extensions></trkpt>
   <trkpt lat="59.3271353676" lon="34.7096172381"><ele>173.799</ele><time>2026-08-17T04:49:10.644Z</time><hdop>3.0</hdop><vdop>2.5</vdop><extensions><gom:speed>0.068</gom:speed></extensions></trkpt>
   <trkpt lat="59.3271352838" lon="34.709617322"><ele>173.802</ele><time>2026-08-17T04:49:11.643Z</time><hdop>3.0</hdop><vdop>2.5</vdop><extensions><gom:speed>0.069</gom:speed></extensions></trkpt>
   <trkpt lat="59.3271352838" lon="34.709617322"><ele>173.806</ele><time>2026-08-17T04:49:12.652Z</time><hdop>3.0</hdop><vdop>2.5</vdop><extensions><gom:speed>0.069</gom:speed></extensions></trkpt>
   <trkpt lat="59.3271351999" lon="34.7096174896"><ele>173.807</ele><time>2026-08-17T04:49:13.652Z</time><hdop>3.0</hdop><vdop>2.5</vdop><extensions><gom:speed>0.07</gom:speed></extensions></trkpt>
   <trkpt lat="59.3271349904" lon="34.709617322"><ele>173.814</ele><time>2026-08-17T04:49:14.663Z</time><hdop>3.0</hdop><vdop>2.5</vdop><extensions><gom:speed>0.069</gom:speed></extensions></trkpt>
   <trkpt lat="59.3271349904" lon="34.7096175734"><ele>173.82</ele><time>2026-08-17T04:49:15.644Z</time><hdop>3.0</hdop><vdop>2.5</vdop><extensions><gom:speed>0.071</gom:speed></extensions></trkpt>
   <trkpt lat="59.3271350742" lon="34.7096174896"><ele>173.824</ele><time>2026-08-17T04:49:16.383Z</time><hdop>3.0</hdop><vdop>2.5</vdop><extensions><gom:speed>0.071</gom:speed></extensions></trkpt>
   <trkpt lat="59.3271348647" lon="34.7096178249"><ele>173.83</ele><time>2026-08-17T04:49:17.643Z</time><hdop>3.0</hdop><vdop>2.5</vdop><extensions><gom:speed>0.07</gom:speed></extensions></trkpt>
   <trkpt lat="59.3271348647" lon="34.7096179925"><ele>173.837</ele><time>2026-08-17T04:49:18.644Z</time><hdop>3.0</hdop><vdop>2.5</vdop><extensions><gom:speed>0.071</gom:speed></extensions></trkpt>
   <trkpt lat="59.3271347808" lon="34.709618244"><ele>173.843</ele><time>2026-08-17T04:49:19.644Z</time><hdop>3.0</hdop><vdop>2.5</vdop><extensions><gom:speed>0.069</gom:speed></extensions></trkpt>
   <trkpt lat="59.327134697" lon="34.7096184954"><ele>173.855</ele><time>2026-08-17T04:49:20.644Z</time><hdop>3.0</hdop><vdop>2.5</vdop><extensions><gom:speed>0.07</gom:speed></extensions></trkpt>
   <trkpt lat="59.327134697" lon="34.7096185792"><ele>173.865</ele><time>2026-08-17T04:49:21.645Z</time><hdop>3.0</hdop><vdop>2.5</vdop><extensions><gom:speed>0.07</gom:speed></extensions></trkpt>
   <trkpt lat="59.3271345713" lon="34.7096187469"><ele>173.877</ele><time>2026-08-17T04:49:22.644Z</time><hdop>3.0</hdop><vdop>2.5</vdop><extensions><gom:speed>0.071</gom:speed></extensions></trkpt>
   <trkpt lat="59.3271345713" lon="34.7096188307"><ele>173.889</ele><time>2026-08-17T04:49:23.643Z</time><hdop>3.0</hdop><vdop>2.5</vdop><extensions><gom:speed>0.07</gom:speed></extensions></trkpt>
   <trkpt lat="59.3271345713" lon="34.709619166"><ele>173.903</ele><time>2026-08-17T04:49:24.644Z</time><hdop>3.0</hdop><vdop>2.5</vdop><extensions><gom:speed>0.071</gom:speed></extensions></trkpt>
   <trkpt lat="59.3271342779" lon="34.7096195851"><ele>173.922</ele><time>2026-08-17T04:49:25.644Z</time><hdop>3.0</hdop><vdop>2.5</vdop><extensions><gom:speed>0.071</gom:speed></extensions></trkpt>
   <trkpt lat="59.3271342779" lon="34.7096196689"><ele>173.941</ele><time>2026-08-17T04:49:26.644Z</time><hdop>3.0</hdop><vdop>2.5</vdop><extensions><gom:speed>0.072</gom:speed></extensions></trkpt>
   <trkpt lat="59.3271343617" lon="34.7096195851"><ele>173.952</ele><time>2026-08-17T04:49:27.512Z</time><hdop>3.0</hdop><vdop>2.5</vdop><extensions><gom:speed>0.083</gom:speed></extensions></trkpt>
   <trkpt lat="59.3271342779" lon="34.7096198365"><ele>173.973</ele><time>2026-08-17T04:49:28.644Z</time><hdop>3.0</hdop><vdop>2.5</vdop><extensions><gom:speed>0.07</gom:speed></extensions></trkpt>
   <trkpt lat="59.3271343617" lon="34.7096198365"><ele>173.991</ele><time>2026-08-17T04:49:29.652Z</time><hdop>3.0</hdop><vdop>2.5</vdop><extensions><gom:speed>0.07</gom:speed></extensions></trkpt>
   <trkpt lat="59.3271344875" lon="34.709620088"><ele>174.005</ele><time>2026-08-17T04:49:30.648Z</time><hdop>3.0</hdop><vdop>2.5</vdop><extensions><gom:speed>0.071</gom:speed></extensions></trkpt>
   <trkpt lat="59.3271345713" lon="34.7096203394"><ele>174.021</ele><time>2026-08-17T04:49:31.644Z</time><hdop>3.0</hdop><vdop>2.5</vdop><extensions><gom:speed>0.071</gom:speed></extensions></trkpt>
   <trkpt lat="59.3271343617" lon="34.7096206747"><ele>174.038</ele><time>2026-08-17T04:49:32.644Z</time><hdop>3.0</hdop><vdop>2.5</vdop><extensions><gom:speed>0.071</gom:speed></extensions></trkpt>
   <trkpt lat="59.3271341941" lon="34.7096208424"><ele>174.053</ele><time>2026-08-17T04:49:33.644Z</time><hdop>3.0</hdop><vdop>2.5</vdop><extensions><gom:speed>0.071</gom:speed></extensions></trkpt>
   <trkpt lat="59.3271340684" lon="34.7096209262"><ele>174.062</ele><time>2026-08-17T04:49:34.652Z</time><hdop>3.0</hdop><vdop>2.5</vdop><extensions><gom:speed>0.072</gom:speed></extensions></trkpt>
   <trkpt lat="59.3271339846" lon="34.7096211776"><ele>174.074</ele><time>2026-08-17T04:49:35.644Z</time><hdop>3.0</hdop><vdop>2.5</vdop><extensions><gom:speed>0.079</gom:speed></extensions></trkpt>
   <trkpt lat="59.327133775" lon="34.7096212615"><ele>174.088</ele><time>2026-08-17T04:49:36.652Z</time><hdop>3.0</hdop><vdop>2.5</vdop><extensions><gom:speed>0.079</gom:speed></extensions></trkpt>
   <trkpt lat="59.3271338588" lon="34.7096216806"><ele>174.101</ele><time>2026-08-17T04:49:37.644Z</time><hdop>3.0</hdop><vdop>2.5</vdop><extensions><gom:speed>0.085</gom:speed></extensions></trkpt>
   <trkpt lat="59.3271339846" lon="34.709621932"><ele>174.111</ele><time>2026-08-17T04:49:38.644Z</time><hdop>3.0</hdop><vdop>2.5</vdop><extensions><gom:speed>0.087</gom:speed></extensions></trkpt>
   <trkpt lat="59.3271338588" lon="34.7096222673"><ele>174.117</ele><time>2026-08-17T04:49:39.652Z</time><hdop>3.0</hdop><vdop>2.5</vdop><extensions><gom:speed>0.088</gom:speed></extensions></trkpt>
   <trkpt lat="59.3271338588" lon="34.7096224349"><ele>174.141</ele><time>2026-08-17T04:49:40.664Z</time><hdop>3.0</hdop><vdop>2.5</vdop><extensions><gom:speed>0.088</gom:speed></extensions></trkpt>
   <trkpt lat="59.3271336912" lon="34.7096227702"><ele>174.196</ele><time>2026-08-17T04:49:41.652Z</time><hdop>3.0</hdop><vdop>2.5</vdop><extensions><gom:speed>0.091</gom:speed></extensions></trkpt>
   <trkpt lat="59.3271335655" lon="34.7096231893"><ele>174.23</ele><time>2026-08-17T04:49:42.644Z</time><hdop>3.0</hdop><vdop>2.5</vdop><extensions><gom:speed>0.096</gom:speed></extensions></trkpt>
   <trkpt lat="59.3271332721" lon="34.7096232731"><ele>174.25</ele><time>2026-08-17T04:49:43.643Z</time><hdop>3.0</hdop><vdop>2.5</vdop><extensions><gom:speed>0.101</gom:speed></extensions></trkpt>
   <trkpt lat="59.3271332721" lon="34.7096232731"><ele>174.262</ele><time>2026-08-17T04:49:44.205Z</time><hdop>3.062</hdop><vdop>2.5</vdop><extensions><gom:speed>0.101</gom:speed></extensions></trkpt>
   <trkpt lat="59.3271327692" lon="34.7096238598"><ele>174.268</ele><time>2026-08-17T04:49:45.644Z</time><hdop>3.187</hdop><vdop>2.5</vdop><extensions><gom:speed>0.103</gom:speed></extensions></trkpt>
   <trkpt lat="59.3271325596" lon="34.7096239437"><ele>174.269</ele><time>2026-08-17T04:49:46.652Z</time><hdop>3.25</hdop><vdop>2.5</vdop><extensions><gom:speed>0.103</gom:speed></extensions></trkpt>
   <trkpt lat="59.3271324758" lon="34.7096240275"><ele>174.273</ele><time>2026-08-17T04:49:47.644Z</time><hdop>3.312</hdop><vdop>2.5</vdop><extensions><gom:speed>0.105</gom:speed></extensions></trkpt>
   <trkpt lat="59.327132392" lon="34.7096244466"><ele>174.276</ele><time>2026-08-17T04:49:48.644Z</time><hdop>3.5</hdop><vdop>2.5</vdop><extensions><gom:speed>0.105</gom:speed></extensions></trkpt>
   <trkpt lat="59.3271325596" lon="34.7096250333"><ele>174.277</ele><time>2026-08-17T04:49:49.644Z</time><hdop>3.562</hdop><vdop>2.5</vdop><extensions><gom:speed>0.107</gom:speed></extensions></trkpt>
   <trkpt lat="59.3271326854" lon="34.7096255362"><ele>174.275</ele><time>2026-08-17T04:49:50.644Z</time><hdop>3.562</hdop><vdop>2.5</vdop><extensions><gom:speed>0.106</gom:speed></extensions></trkpt>
   <trkpt lat="59.3271326854" lon="34.7096255362"><ele>174.265</ele><time>2026-08-17T04:49:51.645Z</time><hdop>3.625</hdop><vdop>2.5</vdop><extensions><gom:speed>0.106</gom:speed></extensions></trkpt>
   <trkpt lat="59.3271325596" lon="34.7096257877"><ele>174.267</ele><time>2026-08-17T04:49:52.643Z</time><hdop>3.687</hdop><vdop>2.5</vdop><extensions><gom:speed>0.107</gom:speed></extensions></trkpt>
   <trkpt lat="59.327132392" lon="34.7096257877"><ele>174.262</ele><time>2026-08-17T04:49:53.644Z</time><hdop>3.687</hdop><vdop>2.5</vdop><extensions><gom:speed>0.108</gom:speed></extensions></trkpt>
   <trkpt lat="59.3271322663" lon="34.7096258715"><ele>174.269</ele><time>2026-08-17T04:49:54.644Z</time><hdop>3.75</hdop><vdop>2.5</vdop><extensions><gom:speed>0.109</gom:speed></extensions></trkpt>
   <trkpt lat="59.3271322663" lon="34.7096255362"><ele>174.272</ele><time>2026-08-17T04:49:55.333Z</time><hdop>3.812</hdop><vdop>2.5</vdop><extensions><gom:speed>0.109</gom:speed></extensions></trkpt>
   <trkpt lat="59.3271320986" lon="34.7096260391"><ele>174.275</ele><time>2026-08-17T04:49:56.648Z</time><hdop>3.875</hdop><vdop>2.5</vdop><extensions><gom:speed>0.11</gom:speed></extensions></trkpt>
   <trkpt lat="59.3271317634" lon="34.7096263744"><ele>174.353</ele><time>2026-08-17T04:49:57.643Z</time><hdop>3.875</hdop><vdop>2.5</vdop><extensions><gom:speed>0.307</gom:speed></extensions></trkpt>
   <trkpt lat="59.32713147" lon="34.7096284699"><ele>174.402</ele><time>2026-08-17T04:49:58.644Z</time><hdop>4.0</hdop><vdop>2.5</vdop><extensions><gom:speed>0.206</gom:speed></extensions></trkpt>
   <trkpt lat="59.32713147" lon="34.7096301463"><ele>174.386</ele><time>2026-08-17T04:49:59.643Z</time><hdop>4.062</hdop><vdop>2.625</vdop><extensions><gom:speed>0.51</gom:speed></extensions></trkpt>
   <trkpt lat="59.32713147" lon="34.7096337505"><ele>174.378</ele><time>2026-08-17T04:50:00.653Z</time><hdop>4.312</hdop><vdop>2.687</vdop><extensions><gom:speed>0.578</gom:speed></extensions></trkpt>
   <trkpt lat="59.3271310928" lon="34.7096372709"><ele>174.373</ele><time>2026-08-17T04:50:01.644Z</time><hdop>4.562</hdop><vdop>2.687</vdop><extensions><gom:speed>0.213</gom:speed></extensions></trkpt>
   <trkpt lat="59.3271306737" lon="34.7096385282"><ele>174.373</ele><time>2026-08-17T04:50:02.643Z</time><hdop>4.875</hdop><vdop>2.687</vdop><extensions><gom:speed>0.187</gom:speed></extensions></trkpt>
   <trkpt lat="59.3271303803" lon="34.7096402884"><ele>174.381</ele><time>2026-08-17T04:50:03.644Z</time><hdop>5.0</hdop><vdop>2.75</vdop><extensions><gom:speed>0.172</gom:speed></extensions></trkpt>
   <trkpt lat="59.3271299613" lon="34.7096418809"><ele>174.386</ele><time>2026-08-17T04:50:04.643Z</time><hdop>5.062</hdop><vdop>2.812</vdop><extensions><gom:speed>0.158</gom:speed></extensions></trkpt>
   <trkpt lat="59.3271296679" lon="34.7096430544"><ele>174.394</ele><time>2026-08-17T04:50:05.652Z</time><hdop>5.187</hdop><vdop>2.875</vdop><extensions><gom:speed>0.158</gom:speed></extensions></trkpt>
   <trkpt lat="59.3271295841" lon="34.7096433897"><ele>174.398</ele><time>2026-08-17T04:50:06.463Z</time><hdop>5.25</hdop><vdop>2.875</vdop><extensions><gom:speed>0.184</gom:speed></extensions></trkpt>
   <trkpt lat="59.3271293745" lon="34.7096461557"><ele>174.386</ele><time>2026-08-17T04:50:07.494Z</time><hdop>5.375</hdop><vdop>3.062</vdop><extensions><gom:speed>0.293</gom:speed></extensions></trkpt>
   <trkpt lat="59.3271287878" lon="34.7096502628"><ele>174.373</ele><time>2026-08-17T04:50:08.644Z</time><hdop>5.437</hdop><vdop>3.062</vdop><extensions><gom:speed>0.274</gom:speed></extensions></trkpt>
   <trkpt lat="59.3271285782" lon="34.7096522745"><ele>174.364</ele><time>2026-08-17T04:50:09.644Z</time><hdop>5.5</hdop><vdop>3.187</vdop><extensions><gom:speed>0.226</gom:speed></extensions></trkpt>
   <trkpt lat="59.3271283687" lon="34.7096538671"><ele>174.357</ele><time>2026-08-17T04:50:10.644Z</time><hdop>5.5</hdop><vdop>3.125</vdop><extensions><gom:speed>0.188</gom:speed></extensions></trkpt>
   <trkpt lat="59.3271281591" lon="34.7096548729"><ele>174.351</ele><time>2026-08-17T04:50:11.644Z</time><hdop>5.5</hdop><vdop>3.062</vdop><extensions><gom:speed>0.164</gom:speed></extensions></trkpt>
   <trkpt lat="59.327127782" lon="34.7096556273"><ele>174.347</ele><time>2026-08-17T04:50:12.644Z</time><hdop>5.5</hdop><vdop>3.0</vdop><extensions><gom:speed>0.239</gom:speed></extensions></trkpt>
   <trkpt lat="59.3271274886" lon="34.7096570522"><ele>174.315</ele><time>2026-08-17T04:50:13.645Z</time><hdop>5.5</hdop><vdop>3.0</vdop><extensions><gom:speed>0.244</gom:speed></extensions></trkpt>
   <trkpt lat="59.3271270695" lon="34.7096576389"><ele>174.334</ele><time>2026-08-17T04:50:14.644Z</time><hdop>5.437</hdop><vdop>3.062</vdop><extensions><gom:speed>0.205</gom:speed></extensions></trkpt>
   <trkpt lat="59.327125896" lon="34.709657136"><ele>174.551</ele><time>2026-08-17T04:50:15.644Z</time><hdop>5.437</hdop><vdop>3.0</vdop><extensions><gom:speed>0.25</gom:speed></extensions></trkpt>
   <trkpt lat="59.3271245968" lon="34.7096554596"><ele>174.69</ele><time>2026-08-17T04:50:16.643Z</time><hdop>5.375</hdop><vdop>2.937</vdop><extensions><gom:speed>0.289</gom:speed></extensions></trkpt>
   <trkpt lat="59.3271233815" lon="34.7096536994"><ele>174.906</ele><time>2026-08-17T04:50:17.644Z</time><hdop>5.312</hdop><vdop>2.75</vdop><extensions><gom:speed>0.451</gom:speed></extensions></trkpt>
   <trkpt lat="59.3271201963" lon="34.7096533641"><ele>175.197</ele><time>2026-08-17T04:50:18.644Z</time><hdop>5.125</hdop><vdop>2.812</vdop><extensions><gom:speed>0.448</gom:speed></extensions></trkpt>
   <trkpt lat="59.3271201963" lon="34.7096531965"><ele>175.393</ele><time>2026-08-17T04:50:19.652Z</time><hdop>5.187</hdop><vdop>2.812</vdop><extensions><gom:speed>0.253</gom:speed></extensions></trkpt>
   <trkpt lat="59.3271196934" lon="34.7096515201"><ele>175.511</ele><time>2026-08-17T04:50:20.644Z</time><hdop>5.062</hdop><vdop>2.75</vdop><extensions><gom:speed>0.188</gom:speed></extensions></trkpt>
   <trkpt lat="59.3271206992" lon="34.7096495923"><ele>175.581</ele><time>2026-08-17T04:50:21.652Z</time><hdop>4.937</hdop><vdop>2.687</vdop><extensions><gom:speed>0.03</gom:speed></extensions></trkpt>
   <trkpt lat="59.3271205735" lon="34.7096484188"><ele>175.627</ele><time>2026-08-17T04:50:22.649Z</time><hdop>4.812</hdop><vdop>2.625</vdop><extensions><gom:speed>0.11</gom:speed></extensions></trkpt>
   <trkpt lat="59.3271200706" lon="34.7096475806"><ele>175.654</ele><time>2026-08-17T04:50:23.256Z</time><hdop>4.75</hdop><vdop>2.625</vdop><extensions><gom:speed>0.083</gom:speed></extensions></trkpt>
   <trkpt lat="59.3271182685" lon="34.7096458204"><ele>175.52</ele><time>2026-08-17T04:50:24.035Z</time><hdop>4.562</hdop><vdop>2.562</vdop><extensions><gom:speed>0.083</gom:speed></extensions></trkpt>
   <trkpt lat="59.3271180589" lon="34.7096472454"><ele>175.257</ele><time>2026-08-17T04:50:24.644Z</time><hdop>4.375</hdop><vdop>2.75</vdop><extensions><gom:speed>0.122</gom:speed></extensions></trkpt>
   <trkpt lat="59.3271180589" lon="34.7096468263"><ele>175.099</ele><time>2026-08-17T04:50:25.461Z</time><hdop>4.312</hdop><vdop>2.75</vdop><extensions><gom:speed>0.106</gom:speed></extensions></trkpt>
   <trkpt lat="59.3271179751" lon="34.7096486703"><ele>174.097</ele><time>2026-08-17T04:50:26.362Z</time><hdop>4.312</hdop><vdop>2.625</vdop><extensions><gom:speed>0.155</gom:speed></extensions></trkpt>
   <trkpt lat="59.3271179751" lon="34.7096526936"><ele>173.439</ele><time>2026-08-17T04:50:27.222Z</time><hdop>4.375</hdop><vdop>2.562</vdop><extensions><gom:speed>0.288</gom:speed></extensions></trkpt>
   <trkpt lat="59.3271194839" lon="34.7096618299"><ele>172.827</ele><time>2026-08-17T04:50:27.859Z</time><hdop>4.375</hdop><vdop>2.687</vdop><extensions><gom:speed>0.352</gom:speed></extensions></trkpt>
   <trkpt lat="59.3271190648" lon="34.7096660208"><ele>172.272</ele><time>2026-08-17T04:50:28.652Z</time><hdop>4.437</hdop><vdop>2.625</vdop><extensions><gom:speed>0.431</gom:speed></extensions></trkpt>
   <trkpt lat="59.3271231719" lon="34.7096830361"><ele>171.979</ele><time>2026-08-17T04:50:29.644Z</time><hdop>4.625</hdop><vdop>2.687</vdop><extensions><gom:speed>0.434</gom:speed></extensions></trkpt>
   <trkpt lat="59.3271268599" lon="34.7096949384"><ele>171.378</ele><time>2026-08-17T04:50:30.643Z</time><hdop>4.812</hdop><vdop>2.687</vdop><extensions><gom:speed>0.439</gom:speed></extensions></trkpt>
   <trkpt lat="59.3271282849" lon="34.7096982911"><ele>171.02</ele><time>2026-08-17T04:50:31.279Z</time><hdop>4.937</hdop><vdop>2.687</vdop><extensions><gom:speed>0.391</gom:speed></extensions></trkpt>
   <trkpt lat="59.3271290812" lon="34.7097018954"><ele>170.901</ele><time>2026-08-17T04:50:31.896Z</time><hdop>5.125</hdop><vdop>2.75</vdop><extensions><gom:speed>0.28</gom:speed></extensions></trkpt>
   <trkpt lat="59.3271317634" lon="34.7097113669"><ele>170.842</ele><time>2026-08-17T04:50:32.644Z</time><hdop>5.187</hdop><vdop>2.562</vdop><extensions><gom:speed>0.295</gom:speed></extensions></trkpt>
   <trkpt lat="59.327132392" lon="34.7097140491"><ele>170.807</ele><time>2026-08-17T04:50:33.221Z</time><hdop>5.312</hdop><vdop>2.562</vdop><extensions><gom:speed>0.233</gom:speed></extensions></trkpt>
   <trkpt lat="59.3271336912" lon="34.7097181563"><ele>170.965</ele><time>2026-08-17T04:50:33.818Z</time><hdop>5.25</hdop><vdop>2.562</vdop><extensions><gom:speed>0.172</gom:speed></extensions></trkpt>
   <trkpt lat="59.3271342779" lon="34.7097197488"><ele>171.06</ele><time>2026-08-17T04:50:34.384Z</time><hdop>5.25</hdop><vdop>2.562</vdop><extensions><gom:speed>0.177</gom:speed></extensions></trkpt>
   <trkpt lat="59.3271395585" lon="34.7097342495"><ele>171.503</ele><time>2026-08-17T04:50:35.644Z</time><hdop>5.125</hdop><vdop>2.562</vdop><extensions><gom:speed>0.179</gom:speed></extensions></trkpt>
   <trkpt lat="59.3271403967" lon="34.7097378537"><ele>171.768</ele><time>2026-08-17T04:50:36.661Z</time><hdop>4.937</hdop><vdop>2.562</vdop><extensions><gom:speed>0.167</gom:speed></extensions></trkpt>
   <trkpt lat="59.3271431627" lon="34.7097455651"><ele>171.711</ele><time>2026-08-17T04:50:37.644Z</time><hdop>4.875</hdop><vdop>2.5</vdop><extensions><gom:speed>0.167</gom:speed></extensions></trkpt>
   <trkpt lat="59.3271437914" lon="34.7097486664"><ele>171.677</ele><time>2026-08-17T04:50:38.502Z</time><hdop>4.687</hdop><vdop>2.5</vdop><extensions><gom:speed>0.153</gom:speed></extensions></trkpt>
   <trkpt lat="59.3271444619" lon="34.7097522706"><ele>171.691</ele><time>2026-08-17T04:50:39.078Z</time><hdop>4.5</hdop><vdop>2.5</vdop><extensions><gom:speed>0.127</gom:speed></extensions></trkpt>
   <trkpt lat="59.3271452582" lon="34.7097551204"><ele>171.39</ele><time>2026-08-17T04:50:39.645Z</time><hdop>4.437</hdop><vdop>2.5</vdop><extensions><gom:speed>0.17</gom:speed></extensions></trkpt>
   <trkpt lat="59.3271464736" lon="34.709761826"><ele>171.237</ele><time>2026-08-17T04:50:40.643Z</time><hdop>4.375</hdop><vdop>2.5</vdop><extensions><gom:speed>0.143</gom:speed></extensions></trkpt>
   <trkpt lat="59.3271464736" lon="34.7097623289"><ele>171.146</ele><time>2026-08-17T04:50:41.335Z</time><hdop>4.375</hdop><vdop>2.5</vdop><extensions><gom:speed>0.122</gom:speed></extensions></trkpt>
   <trkpt lat="59.3271466831" lon="34.7097661846"><ele>171.096</ele><time>2026-08-17T04:50:42.093Z</time><hdop>4.312</hdop><vdop>2.5</vdop><extensions><gom:speed>0.108</gom:speed></extensions></trkpt>
   <trkpt lat="59.327146767" lon="34.7097688668"><ele>170.8</ele><time>2026-08-17T04:50:42.644Z</time><hdop>4.312</hdop><vdop>2.5</vdop><extensions><gom:speed>0.148</gom:speed></extensions></trkpt>
   <trkpt lat="59.3271470603" lon="34.7097709622"><ele>170.623</ele><time>2026-08-17T04:50:43.196Z</time><hdop>4.312</hdop><vdop>2.5</vdop><extensions><gom:speed>0.158</gom:speed></extensions></trkpt>
   <trkpt lat="59.3271473956" lon="34.7097731415"><ele>170.961</ele><time>2026-08-17T04:50:43.875Z</time><hdop>4.25</hdop><vdop>2.562</vdop><extensions><gom:speed>0.136</gom:speed></extensions></trkpt>
   <trkpt lat="59.3271474794" lon="34.7097740635"><ele>171.163</ele><time>2026-08-17T04:50:44.400Z</time><hdop>4.312</hdop><vdop>2.562</vdop><extensions><gom:speed>0.151</gom:speed></extensions></trkpt>
   <trkpt lat="59.3271471861" lon="34.7097749856"><ele>171.286</ele><time>2026-08-17T04:50:45.300Z</time><hdop>4.25</hdop><vdop>2.75</vdop><extensions><gom:speed>0.134</gom:speed></extensions></trkpt>
   <trkpt lat="59.3271479823" lon="34.7097739797"><ele>171.022</ele><time>2026-08-17T04:50:46.643Z</time><hdop>4.25</hdop><vdop>2.75</vdop><extensions><gom:speed>0.148</gom:speed></extensions></trkpt>
   <trkpt lat="59.3271480662" lon="34.7097740635"><ele>170.865</ele><time>2026-08-17T04:50:47.101Z</time><hdop>4.25</hdop><vdop>2.75</vdop><extensions><gom:speed>0.115</gom:speed></extensions></trkpt>
   <trkpt lat="59.3271482757" lon="34.7097747341"><ele>170.77</ele><time>2026-08-17T04:50:47.598Z</time><hdop>4.25</hdop><vdop>2.75</vdop><extensions><gom:speed>0.141</gom:speed></extensions></trkpt>
   <trkpt lat="59.327149072" lon="34.7097755723"><ele>170.453</ele><time>2026-08-17T04:50:48.194Z</time><hdop>4.187</hdop><vdop>2.75</vdop><extensions><gom:speed>0.107</gom:speed></extensions></trkpt>
   <trkpt lat="59.3271493654" lon="34.7097763267"><ele>170.256</ele><time>2026-08-17T04:50:48.649Z</time><hdop>4.187</hdop><vdop>2.812</vdop><extensions><gom:speed>0.141</gom:speed></extensions></trkpt>
   <trkpt lat="59.327149994" lon="34.7097780869"><ele>170.037</ele><time>2026-08-17T04:50:49.661Z</time><hdop>4.187</hdop><vdop>2.937</vdop><extensions><gom:speed>0.072</gom:speed></extensions></trkpt>
   <trkpt lat="59.3271507903" lon="34.7097801823"><ele>169.907</ele><time>2026-08-17T04:50:50.500Z</time><hdop>4.125</hdop><vdop>2.937</vdop><extensions><gom:speed>0.133</gom:speed></extensions></trkpt>
   <trkpt lat="59.3271515866" lon="34.7097809367"><ele>169.808</ele><time>2026-08-17T04:50:51.077Z</time><hdop>4.125</hdop><vdop>3.125</vdop><extensions><gom:speed>0.103</gom:speed></extensions></trkpt>
   <trkpt lat="59.32715276" lon="34.7097833675"><ele>169.666</ele><time>2026-08-17T04:50:51.652Z</time><hdop>4.125</hdop><vdop>2.937</vdop><extensions><gom:speed>0.097</gom:speed></extensions></trkpt>
   <trkpt lat="59.3271532629" lon="34.7097855468"><ele>169.542</ele><time>2026-08-17T04:50:52.652Z</time><hdop>4.125</hdop><vdop>2.937</vdop><extensions><gom:speed>0.077</gom:speed></extensions></trkpt>
   <trkpt lat="59.327153682" lon="34.7097908274"><ele>169.376</ele><time>2026-08-17T04:50:53.644Z</time><hdop>4.062</hdop><vdop>3.062</vdop><extensions><gom:speed>0.141</gom:speed></extensions></trkpt>
   <trkpt lat="59.3271542688" lon="34.7097952698"><ele>169.276</ele><time>2026-08-17T04:50:54.644Z</time><hdop>4.062</hdop><vdop>2.875</vdop><extensions><gom:speed>0.132</gom:speed></extensions></trkpt>
   <trkpt lat="59.3271543945" lon="34.7097984549"><ele>169.216</ele><time>2026-08-17T04:50:55.644Z</time><hdop>4.0</hdop><vdop>2.812</vdop><extensions><gom:speed>0.124</gom:speed></extensions></trkpt>
   <trkpt lat="59.3271543945" lon="34.7098013886"><ele>169.18</ele><time>2026-08-17T04:50:56.645Z</time><hdop>3.937</hdop><vdop>2.687</vdop><extensions><gom:speed>0.113</gom:speed></extensions></trkpt>
   <trkpt lat="59.327154185" lon="34.7098032326"><ele>169.159</ele><time>2026-08-17T04:50:57.562Z</time><hdop>3.875</hdop><vdop>2.687</vdop><extensions><gom:speed>0.126</gom:speed></extensions></trkpt>
   <trkpt lat="59.3271544783" lon="34.7098087646"><ele>169.002</ele><time>2026-08-17T04:50:58.643Z</time><hdop>3.875</hdop><vdop>2.75</vdop><extensions><gom:speed>0.17</gom:speed></extensions></trkpt>
   <trkpt lat="59.3271554841" lon="34.7098140452"><ele>168.759</ele><time>2026-08-17T04:50:59.643Z</time><hdop>3.875</hdop><vdop>2.75</vdop><extensions><gom:speed>0.205</gom:speed></extensions></trkpt>
   <trkpt lat="59.3271565738" lon="34.7098147996"><ele>168.614</ele><time>2026-08-17T04:51:00.314Z</time><hdop>3.937</hdop><vdop>2.75</vdop><extensions><gom:speed>0.165</gom:speed></extensions></trkpt>
   <trkpt lat="59.327157873" lon="34.7098188229"><ele>168.344</ele><time>2026-08-17T04:51:01.644Z</time><hdop>3.937</hdop><vdop>2.875</vdop><extensions><gom:speed>0.194</gom:speed></extensions></trkpt>
   <trkpt lat="59.3271576634" lon="34.7098194935"><ele>168.182</ele><time>2026-08-17T04:51:02.206Z</time><hdop>3.937</hdop><vdop>2.875</vdop><extensions><gom:speed>0.155</gom:speed></extensions></trkpt>
   <trkpt lat="59.3271562804" lon="34.7098258637"><ele>167.95</ele><time>2026-08-17T04:51:03.644Z</time><hdop>3.937</hdop><vdop>3.0</vdop><extensions><gom:speed>0.164</gom:speed></extensions></trkpt>
   <trkpt lat="59.3271554841" lon="34.7098278754"><ele>167.811</ele><time>2026-08-17T04:51:04.644Z</time><hdop>3.937</hdop><vdop>3.062</vdop><extensions><gom:speed>0.156</gom:speed></extensions></trkpt>
   <trkpt lat="59.3271545621" lon="34.7098302223"><ele>167.793</ele><time>2026-08-17T04:51:05.645Z</time><hdop>3.937</hdop><vdop>3.0</vdop><extensions><gom:speed>0.142</gom:speed></extensions></trkpt>
   <trkpt lat="59.3271528858" lon="34.7098341618"><ele>168.032</ele><time>2026-08-17T04:51:06.644Z</time><hdop>3.875</hdop><vdop>3.0</vdop><extensions><gom:speed>0.134</gom:speed></extensions></trkpt>
   <trkpt lat="59.3271517961" lon="34.7098370955"><ele>167.942</ele><time>2026-08-17T04:51:07.644Z</time><hdop>3.875</hdop><vdop>3.125</vdop><extensions><gom:speed>0.14</gom:speed></extensions></trkpt>
   <trkpt lat="59.3271520895" lon="34.709840532"><ele>167.964</ele><time>2026-08-17T04:51:08.643Z</time><hdop>3.875</hdop><vdop>3.187</vdop><extensions><gom:speed>0.138</gom:speed></extensions></trkpt>
   <trkpt lat="59.3271521733" lon="34.7098451421"><ele>168.374</ele><time>2026-08-17T04:51:09.644Z</time><hdop>3.875</hdop><vdop>3.125</vdop><extensions><gom:speed>0.167</gom:speed></extensions></trkpt>
   <trkpt lat="59.3271533887" lon="34.7098504227"><ele>168.679</ele><time>2026-08-17T04:51:10.644Z</time><hdop>3.875</hdop><vdop>3.187</vdop><extensions><gom:speed>0.188</gom:speed></extensions></trkpt>
   <trkpt lat="59.3271550651" lon="34.7098523505"><ele>168.993</ele><time>2026-08-17T04:51:11.652Z</time><hdop>3.875</hdop><vdop>3.187</vdop><extensions><gom:speed>0.134</gom:speed></extensions></trkpt>
   <trkpt lat="59.32715649" lon="34.7098597266"><ele>169.192</ele><time>2026-08-17T04:51:12.644Z</time><hdop>3.875</hdop><vdop>2.75</vdop><extensions><gom:speed>0.182</gom:speed></extensions></trkpt>
   <trkpt lat="59.32715649" lon="34.7098608162"><ele>169.31</ele><time>2026-08-17T04:51:13.334Z</time><hdop>3.875</hdop><vdop>2.75</vdop><extensions><gom:speed>0.167</gom:speed></extensions></trkpt>
   <trkpt lat="59.3271571605" lon="34.709866935"><ele>169.378</ele><time>2026-08-17T04:51:14.649Z</time><hdop>3.937</hdop><vdop>2.5</vdop><extensions><gom:speed>0.172</gom:speed></extensions></trkpt>
   <trkpt lat="59.3271583759" lon="34.709872048"><ele>169.419</ele><time>2026-08-17T04:51:15.644Z</time><hdop>3.937</hdop><vdop>2.5</vdop><extensions><gom:speed>0.113</gom:speed></extensions></trkpt>
   <trkpt lat="59.3271591722" lon="34.7098730538"><ele>169.443</ele><time>2026-08-17T04:51:16.652Z</time><hdop>3.937</hdop><vdop>2.5</vdop><extensions><gom:speed>0.028</gom:speed></extensions></trkpt>
   <trkpt lat="59.3271598846" lon="34.7098779991"><ele>169.458</ele><time>2026-08-17T04:51:17.644Z</time><hdop>3.875</hdop><vdop>2.5</vdop><extensions><gom:speed>0.1</gom:speed></extensions></trkpt>
   <trkpt lat="59.3271606809" lon="34.7098789212"><ele>169.466</ele><time>2026-08-17T04:51:18.652Z</time><hdop>3.812</hdop><vdop>2.5</vdop><extensions><gom:speed>0.03</gom:speed></extensions></trkpt>
   <trkpt lat="59.3271609743" lon="34.7098846209"><ele>169.48</ele><time>2026-08-17T04:51:19.644Z</time><hdop>3.687</hdop><vdop>2.5</vdop><extensions><gom:speed>0.12</gom:speed></extensions></trkpt>
   <trkpt lat="59.327161561" lon="34.7098879736"><ele>169.487</ele><time>2026-08-17T04:51:20.643Z</time><hdop>3.687</hdop><vdop>2.5</vdop><extensions><gom:speed>0.114</gom:speed></extensions></trkpt>
   <trkpt lat="59.3271617706" lon="34.7098908235"><ele>169.49</ele><time>2026-08-17T04:51:21.644Z</time><hdop>3.687</hdop><vdop>2.5</vdop><extensions><gom:speed>0.106</gom:speed></extensions></trkpt>
   <trkpt lat="59.3271613934" lon="34.7098924998"><ele>169.491</ele><time>2026-08-17T04:51:22.541Z</time><hdop>3.687</hdop><vdop>2.5</vdop><extensions><gom:speed>0.111</gom:speed></extensions></trkpt>
   <trkpt lat="59.3271610581" lon="34.7098960202"><ele>169.512</ele><time>2026-08-17T04:51:23.653Z</time><hdop>3.687</hdop><vdop>2.5</vdop><extensions><gom:speed>0.14</gom:speed></extensions></trkpt>
   <trkpt lat="59.3271610581" lon="34.709898451"><ele>169.489</ele><time>2026-08-17T04:51:24.463Z</time><hdop>3.687</hdop><vdop>2.5</vdop><extensions><gom:speed>0.143</gom:speed></extensions></trkpt>
   <trkpt lat="59.3271609743" lon="34.7099088446"><ele>169.588</ele><time>2026-08-17T04:51:25.644Z</time><hdop>3.687</hdop><vdop>2.5</vdop><extensions><gom:speed>0.156</gom:speed></extensions></trkpt>
   <trkpt lat="59.3271609743" lon="34.7099122811"><ele>169.649</ele><time>2026-08-17T04:51:26.644Z</time><hdop>3.687</hdop><vdop>2.5</vdop><extensions><gom:speed>0.157</gom:speed></extensions></trkpt>
   <trkpt lat="59.3271608905" lon="34.7099144604"><ele>169.754</ele><time>2026-08-17T04:51:27.644Z</time><hdop>3.625</hdop><vdop>2.5</vdop><extensions><gom:speed>0.141</gom:speed></extensions></trkpt>
   <trkpt lat="59.3271611838" lon="34.7099142928"><ele>169.816</ele><time>2026-08-17T04:51:28.499Z</time><hdop>3.625</hdop><vdop>2.5</vdop><extensions><gom:speed>0.129</gom:speed></extensions></trkpt>
   <trkpt lat="59.3271605971" lon="34.7099185676"><ele>169.956</ele><time>2026-08-17T04:51:29.644Z</time><hdop>3.625</hdop><vdop>2.687</vdop><extensions><gom:speed>0.128</gom:speed></extensions></trkpt>
   <trkpt lat="59.3271610581" lon="34.7099185676"><ele>170.02</ele><time>2026-08-17T04:51:30.653Z</time><hdop>3.625</hdop><vdop>2.875</vdop><extensions><gom:speed>0.068</gom:speed></extensions></trkpt>
   <trkpt lat="59.3271614772" lon="34.7099213336"><ele>170.436</ele><time>2026-08-17T04:51:31.646Z</time><hdop>3.687</hdop><vdop>3.062</vdop><extensions><gom:speed>0.13</gom:speed></extensions></trkpt>
   <trkpt lat="59.3271617706" lon="34.7099251893"><ele>170.594</ele><time>2026-08-17T04:51:32.658Z</time><hdop>3.75</hdop><vdop>3.062</vdop><extensions><gom:speed>0.111</gom:speed></extensions></trkpt>
   <trkpt lat="59.3271617706" lon="34.7099302184"><ele>170.688</ele><time>2026-08-17T04:51:33.578Z</time><hdop>3.75</hdop><vdop>3.062</vdop><extensions><gom:speed>0.266</gom:speed></extensions></trkpt>
   <trkpt lat="59.3271606809" lon="34.7099357505"><ele>171.303</ele><time>2026-08-17T04:51:34.644Z</time><hdop>3.812</hdop><vdop>2.875</vdop><extensions><gom:speed>0.193</gom:speed></extensions></trkpt>
   <trkpt lat="59.3271604714" lon="34.7099356666"><ele>171.671</ele><time>2026-08-17T04:51:35.318Z</time><hdop>3.875</hdop><vdop>2.875</vdop><extensions><gom:speed>0.144</gom:speed></extensions></trkpt>
   <trkpt lat="59.3271598846" lon="34.7099404443"><ele>172.212</ele><time>2026-08-17T04:51:36.461Z</time><hdop>3.875</hdop><vdop>3.0</vdop><extensions><gom:speed>0.164</gom:speed></extensions></trkpt>
   <trkpt lat="59.3271591722" lon="34.7099439647"><ele>172.601</ele><time>2026-08-17T04:51:36.938Z</time><hdop>3.875</hdop><vdop>3.375</vdop><extensions><gom:speed>0.173</gom:speed></extensions></trkpt>
   <trkpt lat="59.327157873" lon="34.7099480719"><ele>172.833</ele><time>2026-08-17T04:51:37.644Z</time><hdop>3.875</hdop><vdop>3.0</vdop><extensions><gom:speed>0.187</gom:speed></extensions></trkpt>
   <trkpt lat="59.3271557775" lon="34.7099614829"><ele>172.971</ele><time>2026-08-17T04:51:38.643Z</time><hdop>3.812</hdop><vdop>3.062</vdop><extensions><gom:speed>0.14</gom:speed></extensions></trkpt>
   <trkpt lat="59.3271548974" lon="34.7099656739"><ele>173.053</ele><time>2026-08-17T04:51:39.517Z</time><hdop>3.75</hdop><vdop>3.062</vdop><extensions><gom:speed>0.136</gom:speed></extensions></trkpt>
   <trkpt lat="59.3271530953" lon="34.7099794202"><ele>173.365</ele><time>2026-08-17T04:51:40.650Z</time><hdop>3.562</hdop><vdop>3.125</vdop><extensions><gom:speed>0.215</gom:speed></extensions></trkpt>
   <trkpt lat="59.327152299" lon="34.7099835273"><ele>173.551</ele><time>2026-08-17T04:51:41.157Z</time><hdop>3.5</hdop><vdop>3.125</vdop><extensions><gom:speed>0.226</gom:speed></extensions></trkpt>
   <trkpt lat="59.3271491977" lon="34.7099938371"><ele>173.84</ele><time>2026-08-17T04:51:41.644Z</time><hdop>3.375</hdop><vdop>3.187</vdop><extensions><gom:speed>0.292</gom:speed></extensions></trkpt>
   <trkpt lat="59.3271461802" lon="34.7099992853"><ele>174.012</ele><time>2026-08-17T04:51:42.299Z</time><hdop>3.187</hdop><vdop>3.187</vdop><extensions><gom:speed>0.364</gom:speed></extensions></trkpt>
   <trkpt lat="59.3271393909" lon="34.7100085892"><ele>174.451</ele><time>2026-08-17T04:51:43.219Z</time><hdop>3.125</hdop><vdop>3.25</vdop><extensions><gom:speed>0.475</gom:speed></extensions></trkpt>
   <trkpt lat="59.327134697" lon="34.7100164682"><ele>174.711</ele><time>2026-08-17T04:51:44.652Z</time><hdop>3.062</hdop><vdop>3.687</vdop><extensions><gom:speed>0.351</gom:speed></extensions></trkpt>
   <trkpt lat="59.3271318891" lon="34.7100227546"><ele>174.867</ele><time>2026-08-17T04:51:45.556Z</time><hdop>3.125</hdop><vdop>3.687</vdop><extensions><gom:speed>0.364</gom:speed></extensions></trkpt>
   <trkpt lat="59.327129165" lon="34.7100292925"><ele>174.699</ele><time>2026-08-17T04:51:46.578Z</time><hdop>3.125</hdop><vdop>3.812</vdop><extensions><gom:speed>0.344</gom:speed></extensions></trkpt>
   <trkpt lat="59.3271283687" lon="34.7100336511"><ele>174.678</ele><time>2026-08-17T04:51:47.175Z</time><hdop>3.062</hdop><vdop>3.75</vdop><extensions><gom:speed>0.275</gom:speed></extensions></trkpt>
   <trkpt lat="59.3271295841" lon="34.7100360818"><ele>174.759</ele><time>2026-08-17T04:51:47.643Z</time><hdop>3.062</hdop><vdop>3.562</vdop><extensions><gom:speed>0.242</gom:speed></extensions></trkpt>
   <trkpt lat="59.3271321825" lon="34.7100393508"><ele>174.837</ele><time>2026-08-17T04:51:48.644Z</time><hdop>3.062</hdop><vdop>3.562</vdop><extensions><gom:speed>0.208</gom:speed></extensions></trkpt>
   <trkpt lat="59.3271327692" lon="34.7100410272"><ele>174.883</ele><time>2026-08-17T04:51:49.300Z</time><hdop>3.062</hdop><vdop>3.562</vdop><extensions><gom:speed>0.21</gom:speed></extensions></trkpt>
   <trkpt lat="59.3271345713" lon="34.7100441285"><ele>174.826</ele><time>2026-08-17T04:51:50.652Z</time><hdop>3.0</hdop><vdop>3.625</vdop><extensions><gom:speed>0.075</gom:speed></extensions></trkpt>
   <trkpt lat="59.3271354933" lon="34.7100502473"><ele>174.791</ele><time>2026-08-17T04:51:51.475Z</time><hdop>3.0</hdop><vdop>3.625</vdop><extensions><gom:speed>0.134</gom:speed></extensions></trkpt>
   <trkpt lat="59.3271362896" lon="34.7100551926"><ele>175.375</ele><time>2026-08-17T04:51:52.652Z</time><hdop>3.0</hdop><vdop>3.562</vdop><extensions><gom:speed>0.058</gom:speed></extensions></trkpt>
   <trkpt lat="59.3271369601" lon="34.7100603894"><ele>175.733</ele><time>2026-08-17T04:51:53.660Z</time><hdop>3.0</hdop><vdop>3.562</vdop><extensions><gom:speed>0.098</gom:speed></extensions></trkpt>
   <trkpt lat="59.3271397681" lon="34.7100715373"><ele>176.143</ele><time>2026-08-17T04:51:54.643Z</time><hdop>3.0</hdop><vdop>3.437</vdop><extensions><gom:speed>0.108</gom:speed></extensions></trkpt>
   <trkpt lat="59.3271408996" lon="34.7100758959"><ele>176.388</ele><time>2026-08-17T04:51:55.542Z</time><hdop>3.0</hdop><vdop>3.437</vdop><extensions><gom:speed>0.142</gom:speed></extensions></trkpt>
   <trkpt lat="59.3271433723" lon="34.7100815956"><ele>176.78</ele><time>2026-08-17T04:51:56.118Z</time><hdop>3.0</hdop><vdop>3.375</vdop><extensions><gom:speed>0.148</gom:speed></extensions></trkpt>
   <trkpt lat="59.327143959" lon="34.7100833558"><ele>177.015</ele><time>2026-08-17T04:51:56.594Z</time><hdop>3.0</hdop><vdop>3.375</vdop><extensions><gom:speed>0.166</gom:speed></extensions></trkpt>
   <trkpt lat="59.3271468927" lon="34.7100880496"><ele>176.668</ele><time>2026-08-17T04:51:57.383Z</time><hdop>3.0</hdop><vdop>3.375</vdop><extensions><gom:speed>0.162</gom:speed></extensions></trkpt>
   <trkpt lat="59.3271483595" lon="34.7100900613"><ele>176.455</ele><time>2026-08-17T04:51:58.597Z</time><hdop>3.0</hdop><vdop>3.187</vdop><extensions><gom:speed>0.144</gom:speed></extensions></trkpt>
   <trkpt lat="59.3271496587" lon="34.7100930788"><ele>176.326</ele><time>2026-08-17T04:51:59.578Z</time><hdop>3.0</hdop><vdop>3.0</vdop><extensions><gom:speed>0.161</gom:speed></extensions></trkpt>
   <trkpt lat="59.3271505807" lon="34.7100959286"><ele>175.975</ele><time>2026-08-17T04:52:00.644Z</time><hdop>3.0</hdop><vdop>2.812</vdop><extensions><gom:speed>0.189</gom:speed></extensions></trkpt>
   <trkpt lat="59.3271501616" lon="34.7100986947"><ele>174.702</ele><time>2026-08-17T04:52:01.652Z</time><hdop>3.0</hdop><vdop>2.625</vdop><extensions><gom:speed>0.169</gom:speed></extensions></trkpt>
   <trkpt lat="59.3271496587" lon="34.7101022989"><ele>173.942</ele><time>2026-08-17T04:52:02.563Z</time><hdop>3.0</hdop><vdop>2.625</vdop><extensions><gom:speed>0.183</gom:speed></extensions></trkpt>
   <trkpt lat="59.327146767" lon="34.7101095911"><ele>172.901</ele><time>2026-08-17T04:52:03.652Z</time><hdop>3.0</hdop><vdop>2.625</vdop><extensions><gom:speed>0.109</gom:speed></extensions></trkpt>
   <trkpt lat="59.3271426598" lon="34.7101164643"><ele>172.279</ele><time>2026-08-17T04:52:04.637Z</time><hdop>3.0</hdop><vdop>2.625</vdop><extensions><gom:speed>0.205</gom:speed></extensions></trkpt>
   <trkpt lat="59.3271381755" lon="34.7101264388"><ele>171.839</ele><time>2026-08-17T04:52:05.456Z</time><hdop>3.0</hdop><vdop>3.0</vdop><extensions><gom:speed>0.318</gom:speed></extensions></trkpt>
   <trkpt lat="59.3271292907" lon="34.7101441246"><ele>171.674</ele><time>2026-08-17T04:52:06.600Z</time><hdop>3.0</hdop><vdop>3.0</vdop><extensions><gom:speed>0.568</gom:speed></extensions></trkpt>
   <trkpt lat="59.3271191905" lon="34.7101558592"><ele>171.309</ele><time>2026-08-17T04:52:07.318Z</time><hdop>3.0</hdop><vdop>2.812</vdop><extensions><gom:speed>0.7</gom:speed></extensions></trkpt>
   <trkpt lat="59.3271141614" lon="34.7101594635"><ele>171.083</ele><time>2026-08-17T04:52:08.128Z</time><hdop>3.0</hdop><vdop>2.687</vdop><extensions><gom:speed>0.616</gom:speed></extensions></trkpt>
   <trkpt lat="59.3271086712" lon="34.710163822"><ele>170.951</ele><time>2026-08-17T04:52:08.644Z</time><hdop>3.0</hdop><vdop>2.687</vdop><extensions><gom:speed>0.417</gom:speed></extensions></trkpt>
   <trkpt lat="59.3271078749" lon="34.7101646602"><ele>170.873</ele><time>2026-08-17T04:52:09.645Z</time><hdop>3.0</hdop><vdop>2.687</vdop><extensions><gom:speed>0.314</gom:speed></extensions></trkpt>
   <trkpt lat="59.3271084617" lon="34.7101664204"><ele>170.776</ele><time>2026-08-17T04:52:10.644Z</time><hdop>3.0</hdop><vdop>2.687</vdop><extensions><gom:speed>0.156</gom:speed></extensions></trkpt>
   <trkpt lat="59.3271079588" lon="34.7101685997"><ele>170.724</ele><time>2026-08-17T04:52:11.643Z</time><hdop>3.0</hdop><vdop>2.5</vdop><extensions><gom:speed>0.122</gom:speed></extensions></trkpt>
   <trkpt lat="59.3271067853" lon="34.7101713658"><ele>170.697</ele><time>2026-08-17T04:52:12.644Z</time><hdop>3.0</hdop><vdop>2.5</vdop><extensions><gom:speed>0.099</gom:speed></extensions></trkpt>
   <trkpt lat="59.3271053604" lon="34.7101735451"><ele>170.68</ele><time>2026-08-17T04:52:13.644Z</time><hdop>3.0</hdop><vdop>2.5</vdop><extensions><gom:speed>0.091</gom:speed></extensions></trkpt>
   <trkpt lat="59.3271038935" lon="34.7101750538"><ele>170.668</ele><time>2026-08-17T04:52:14.643Z</time><hdop>3.0</hdop><vdop>2.5</vdop><extensions><gom:speed>0.095</gom:speed></extensions></trkpt>
   <trkpt lat="59.3271047736" lon="34.7101739642"><ele>170.66</ele><time>2026-08-17T04:52:15.652Z</time><hdop>3.0</hdop><vdop>2.5</vdop><extensions><gom:speed>0.022</gom:speed></extensions></trkpt>
   <trkpt lat="59.3271039774" lon="34.7101761434"><ele>170.654</ele><time>2026-08-17T04:52:16.644Z</time><hdop>3.0</hdop><vdop>2.5</vdop><extensions><gom:speed>0.082</gom:speed></extensions></trkpt>
   <trkpt lat="59.3271034744" lon="34.7101785742"><ele>170.651</ele><time>2026-08-17T04:52:17.644Z</time><hdop>3.0</hdop><vdop>2.5</vdop><extensions><gom:speed>0.09</gom:speed></extensions></trkpt>
   <trkpt lat="59.3271032649" lon="34.7101779875"><ele>170.687</ele><time>2026-08-17T04:52:18.649Z</time><hdop>3.0</hdop><vdop>2.5</vdop><extensions><gom:speed>0.107</gom:speed></extensions></trkpt>
   <trkpt lat="59.3271032649" lon="34.7101780713"><ele>170.709</ele><time>2026-08-17T04:52:19.357Z</time><hdop>3.0</hdop><vdop>2.5</vdop><extensions><gom:speed>0.081</gom:speed></extensions></trkpt>
   <trkpt lat="59.3271024686" lon="34.7101807535"><ele>170.72</ele><time>2026-08-17T04:52:20.645Z</time><hdop>3.0</hdop><vdop>2.5</vdop><extensions><gom:speed>0.103</gom:speed></extensions></trkpt>
   <trkpt lat="59.3271018819" lon="34.7101816755"><ele>170.731</ele><time>2026-08-17T04:52:21.644Z</time><hdop>3.0</hdop><vdop>2.5</vdop><extensions><gom:speed>0.097</gom:speed></extensions></trkpt>
   <trkpt lat="59.3271017981" lon="34.7101825975"><ele>170.738</ele><time>2026-08-17T04:52:22.644Z</time><hdop>3.0</hdop><vdop>2.5</vdop><extensions><gom:speed>0.095</gom:speed></extensions></trkpt>
   <trkpt lat="59.3271020914" lon="34.710183771"><ele>170.866</ele><time>2026-08-17T04:52:23.643Z</time><hdop>3.0</hdop><vdop>2.562</vdop><extensions><gom:speed>0.096</gom:speed></extensions></trkpt>
   <trkpt lat="59.3271030973" lon="34.7101840224"><ele>171.019</ele><time>2026-08-17T04:52:24.644Z</time><hdop>3.0</hdop><vdop>2.687</vdop><extensions><gom:speed>0.131</gom:speed></extensions></trkpt>
   <trkpt lat="59.3271056956" lon="34.710184693"><ele>170.836</ele><time>2026-08-17T04:52:25.643Z</time><hdop>3.0</hdop><vdop>2.687</vdop><extensions><gom:speed>0.129</gom:speed></extensions></trkpt>
   <trkpt lat="59.3271062824" lon="34.710184693"><ele>170.727</ele><time>2026-08-17T04:52:26.136Z</time><hdop>3.0</hdop><vdop>2.687</vdop><extensions><gom:speed>0.087</gom:speed></extensions></trkpt>
   <trkpt lat="59.3271075816" lon="34.7101851959"><ele>170.499</ele><time>2026-08-17T04:52:26.644Z</time><hdop>3.0</hdop><vdop>2.875</vdop><extensions><gom:speed>0.154</gom:speed></extensions></trkpt>
   <trkpt lat="59.3271083778" lon="34.7101881296"><ele>170.117</ele><time>2026-08-17T04:52:27.653Z</time><hdop>3.0</hdop><vdop>2.875</vdop><extensions><gom:speed>0.192</gom:speed></extensions></trkpt>
   <trkpt lat="59.3271114792" lon="34.7101904765"><ele>169.876</ele><time>2026-08-17T04:52:28.643Z</time><hdop>3.0</hdop><vdop>2.812</vdop><extensions><gom:speed>0.065</gom:speed></extensions></trkpt>
   <trkpt lat="59.327112485" lon="34.7101911471"><ele>169.716</ele><time>2026-08-17T04:52:29.653Z</time><hdop>3.0</hdop><vdop>2.812</vdop><extensions><gom:speed>0.064</gom:speed></extensions></trkpt>
   <trkpt lat="59.3271141614" lon="34.7101908956"><ele>169.621</ele><time>2026-08-17T04:52:30.334Z</time><hdop>3.0</hdop><vdop>2.812</vdop><extensions><gom:speed>0.057</gom:speed></extensions></trkpt>
   <trkpt lat="59.3271164664" lon="34.710190728"><ele>169.196</ele><time>2026-08-17T04:52:31.214Z</time><hdop>3.0</hdop><vdop>3.0</vdop><extensions><gom:speed>0.113</gom:speed></extensions></trkpt>
   <trkpt lat="59.3271195677" lon="34.7101908956"><ele>168.775</ele><time>2026-08-17T04:52:32.296Z</time><hdop>3.0</hdop><vdop>2.875</vdop><extensions><gom:speed>0.116</gom:speed></extensions></trkpt>
   <trkpt lat="59.327127279" lon="34.7101932425"><ele>168.341</ele><time>2026-08-17T04:52:32.954Z</time><hdop>3.0</hdop><vdop>2.875</vdop><extensions><gom:speed>0.18</gom:speed></extensions></trkpt>
   <trkpt lat="59.3271336912" lon="34.7101974335"><ele>167.85</ele><time>2026-08-17T04:52:33.644Z</time><hdop>3.0</hdop><vdop>2.875</vdop><extensions><gom:speed>0.239</gom:speed></extensions></trkpt>
   <trkpt lat="59.3271370859" lon="34.7102028817"><ele>167.557</ele><time>2026-08-17T04:52:34.523Z</time><hdop>3.0</hdop><vdop>2.875</vdop><extensions><gom:speed>0.284</gom:speed></extensions></trkpt>
   <trkpt lat="59.3271436657" lon="34.7102105931"><ele>167.213</ele><time>2026-08-17T04:52:35.463Z</time><hdop>3.0</hdop><vdop>2.937</vdop><extensions><gom:speed>0.387</gom:speed></extensions></trkpt>
   <trkpt lat="59.3271479823" lon="34.7102141973"><ele>166.805</ele><time>2026-08-17T04:52:36.051Z</time><hdop>3.0</hdop><vdop>3.062</vdop><extensions><gom:speed>0.408</gom:speed></extensions></trkpt>
   <trkpt lat="59.3271551908" lon="34.7102210704"><ele>166.401</ele><time>2026-08-17T04:52:36.657Z</time><hdop>3.0</hdop><vdop>3.062</vdop><extensions><gom:speed>0.404</gom:speed></extensions></trkpt>
   <trkpt lat="59.3271586693" lon="34.7102264349"><ele>166.16</ele><time>2026-08-17T04:52:37.334Z</time><hdop>3.062</hdop><vdop>3.062</vdop><extensions><gom:speed>0.401</gom:speed></extensions></trkpt>
   <trkpt lat="59.3271613934" lon="34.7102341462"><ele>166.127</ele><time>2026-08-17T04:52:38.397Z</time><hdop>3.062</hdop><vdop>3.187</vdop><extensions><gom:speed>0.305</gom:speed></extensions></trkpt>
   <trkpt lat="59.3271632793" lon="34.7102447912"><ele>166.094</ele><time>2026-08-17T04:52:39.580Z</time><hdop>3.062</hdop><vdop>3.625</vdop><extensions><gom:speed>0.31</gom:speed></extensions></trkpt>
   <trkpt lat="59.3271626926" lon="34.7102546819"><ele>166.092</ele><time>2026-08-17T04:52:40.420Z</time><hdop>3.062</hdop><vdop>3.625</vdop><extensions><gom:speed>0.331</gom:speed></extensions></trkpt>
   <trkpt lat="59.3271604714" lon="34.7102636505"><ele>165.921</ele><time>2026-08-17T04:52:41.240Z</time><hdop>3.062</hdop><vdop>3.687</vdop><extensions><gom:speed>0.47</gom:speed></extensions></trkpt>
   <trkpt lat="59.3271566995" lon="34.7102769777"><ele>165.759</ele><time>2026-08-17T04:52:42.261Z</time><hdop>3.125</hdop><vdop>3.875</vdop><extensions><gom:speed>0.559</gom:speed></extensions></trkpt>
   <trkpt lat="59.3271525924" lon="34.7102901373"><ele>165.636</ele><time>2026-08-17T04:52:43.334Z</time><hdop>3.25</hdop><vdop>3.437</vdop><extensions><gom:speed>0.645</gom:speed></extensions></trkpt>
   <trkpt lat="59.3271540592" lon="34.7103075717"><ele>166.099</ele><time>2026-08-17T04:52:44.649Z</time><hdop>3.437</hdop><vdop>3.437</vdop><extensions><gom:speed>0.697</gom:speed></extensions></trkpt>
   <trkpt lat="59.3271534725" lon="34.7103098348"><ele>166.376</ele><time>2026-08-17T04:52:45.216Z</time><hdop>3.625</hdop><vdop>3.437</vdop><extensions><gom:speed>0.587</gom:speed></extensions></trkpt>
   <trkpt lat="59.3271486948" lon="34.7103172947"><ele>166.389</ele><time>2026-08-17T04:52:45.974Z</time><hdop>4.0</hdop><vdop>3.375</vdop><extensions><gom:speed>0.687</gom:speed></extensions></trkpt>
   <trkpt lat="59.3271443781" lon="34.7103243355"><ele>166.157</ele><time>2026-08-17T04:52:46.653Z</time><hdop>4.187</hdop><vdop>3.437</vdop><extensions><gom:speed>0.702</gom:speed></extensions></trkpt>
   <trkpt lat="59.3271407739" lon="34.7103242517"><ele>166.018</ele><time>2026-08-17T04:52:47.178Z</time><hdop>4.375</hdop><vdop>3.437</vdop><extensions><gom:speed>0.692</gom:speed></extensions></trkpt>
   <trkpt lat="59.3271339846" lon="34.7103289455"><ele>166.086</ele><time>2026-08-17T04:52:47.644Z</time><hdop>4.562</hdop><vdop>3.562</vdop><extensions><gom:speed>0.676</gom:speed></extensions></trkpt>
   <trkpt lat="59.3271294583" lon="34.710335232"><ele>166.127</ele><time>2026-08-17T04:52:48.261Z</time><hdop>4.75</hdop><vdop>3.562</vdop><extensions><gom:speed>0.754</gom:speed></extensions></trkpt>
   <trkpt lat="59.3271238844" lon="34.7103380818"><ele>166.665</ele><time>2026-08-17T04:52:48.797Z</time><hdop>4.937</hdop><vdop>3.5</vdop><extensions><gom:speed>0.752</gom:speed></extensions></trkpt>
   <trkpt lat="59.3271173884" lon="34.7103437815"><ele>167.35</ele><time>2026-08-17T04:52:49.644Z</time><hdop>5.0</hdop><vdop>3.625</vdop><extensions><gom:speed>0.733</gom:speed></extensions></trkpt>
   <trkpt lat="59.3271068691" lon="34.7103452903"><ele>167.774</ele><time>2026-08-17T04:52:50.644Z</time><hdop>5.187</hdop><vdop>3.937</vdop><extensions><gom:speed>0.734</gom:speed></extensions></trkpt>
   <trkpt lat="59.3270942963" lon="34.7103475534"><ele>167.898</ele><time>2026-08-17T04:52:51.644Z</time><hdop>5.312</hdop><vdop>4.312</vdop><extensions><gom:speed>0.811</gom:speed></extensions></trkpt>
   <trkpt lat="59.3270820587" lon="34.7103502356"><ele>168.546</ele><time>2026-08-17T04:52:52.644Z</time><hdop>5.375</hdop><vdop>4.187</vdop><extensions><gom:speed>0.817</gom:speed></extensions></trkpt>
   <trkpt lat="59.3270710784" lon="34.7103512414"><ele>169.699</ele><time>2026-08-17T04:52:53.653Z</time><hdop>5.312</hdop><vdop>4.375</vdop><extensions><gom:speed>0.737</gom:speed></extensions></trkpt>
   <trkpt lat="59.3270627803" lon="34.7103453741"><ele>170.192</ele><time>2026-08-17T04:52:54.564Z</time><hdop>5.312</hdop><vdop>4.687</vdop><extensions><gom:speed>0.75</gom:speed></extensions></trkpt>
   <trkpt lat="59.3270609782" lon="34.7103380818"><ele>170.129</ele><time>2026-08-17T04:52:55.652Z</time><hdop>5.25</hdop><vdop>4.375</vdop><extensions><gom:speed>0.456</gom:speed></extensions></trkpt>
   <trkpt lat="59.3270587989" lon="34.7103302866"><ele>170.242</ele><time>2026-08-17T04:52:56.587Z</time><hdop>5.25</hdop><vdop>4.25</vdop><extensions><gom:speed>0.445</gom:speed></extensions></trkpt>
   <trkpt lat="59.327059679" lon="34.7103299514"><ele>170.31</ele><time>2026-08-17T04:52:57.194Z</time><hdop>5.187</hdop><vdop>4.25</vdop><extensions><gom:speed>0.273</gom:speed></extensions></trkpt>
   <trkpt lat="59.3270589665" lon="34.7103271853"><ele>170.026</ele><time>2026-08-17T04:52:57.645Z</time><hdop>5.0</hdop><vdop>4.5</vdop><extensions><gom:speed>0.266</gom:speed></extensions></trkpt>
   <trkpt lat="59.3270589665" lon="34.7103263471"><ele>169.856</ele><time>2026-08-17T04:52:58.307Z</time><hdop>4.812</hdop><vdop>4.5</vdop><extensions><gom:speed>0.217</gom:speed></extensions></trkpt>
   <trkpt lat="59.3270566615" lon="34.7103053924"><ele>169.484</ele><time>2026-08-17T04:52:59.645Z</time><hdop>4.187</hdop><vdop>4.25</vdop><extensions><gom:speed>0.158</gom:speed></extensions></trkpt>
   <trkpt lat="59.3270567872" lon="34.7103025425"><ele>169.714</ele><time>2026-08-17T04:53:00.652Z</time><hdop>3.937</hdop><vdop>4.0</vdop><extensions><gom:speed>0.117</gom:speed></extensions></trkpt>
   <trkpt lat="59.327055488" lon="34.7102882933"><ele>169.858</ele><time>2026-08-17T04:53:01.645Z</time><hdop>3.625</hdop><vdop>3.75</vdop><extensions><gom:speed>0.196</gom:speed></extensions></trkpt>
   <trkpt lat="59.3270536859" lon="34.7102750499"><ele>169.944</ele><time>2026-08-17T04:53:02.495Z</time><hdop>3.375</hdop><vdop>3.75</vdop><extensions><gom:speed>0.183</gom:speed></extensions></trkpt>
   <trkpt lat="59.3270516743" lon="34.7102635667"><ele>170.08</ele><time>2026-08-17T04:53:03.396Z</time><hdop>3.062</hdop><vdop>3.375</vdop><extensions><gom:speed>0.168</gom:speed></extensions></trkpt>
   <trkpt lat="59.3270486987" lon="34.7102540951"><ele>170.411</ele><time>2026-08-17T04:53:03.871Z</time><hdop>3.0</hdop><vdop>3.437</vdop><extensions><gom:speed>0.215</gom:speed></extensions></trkpt>
   <trkpt lat="59.3270462679" lon="34.7102467191"><ele>170.609</ele><time>2026-08-17T04:53:04.640Z</time><hdop>3.0</hdop><vdop>3.437</vdop><extensions><gom:speed>0.273</gom:speed></extensions></trkpt>
   <trkpt lat="59.3270361678" lon="34.7102301229"><ele>170.619</ele><time>2026-08-17T04:53:05.644Z</time><hdop>3.0</hdop><vdop>3.75</vdop><extensions><gom:speed>0.438</gom:speed></extensions></trkpt>
   <trkpt lat="59.3270279954" lon="34.7102228306"><ele>170.631</ele><time>2026-08-17T04:53:06.644Z</time><hdop>3.0</hdop><vdop>3.625</vdop><extensions><gom:speed>0.344</gom:speed></extensions></trkpt>
   <trkpt lat="59.3270269896" lon="34.7102229983"><ele>170.64</ele><time>2026-08-17T04:53:07.652Z</time><hdop>3.0</hdop><vdop>3.562</vdop><extensions><gom:speed>0.092</gom:speed></extensions></trkpt>
   <trkpt lat="59.3270232596" lon="34.7102213219"><ele>170.776</ele><time>2026-08-17T04:53:08.644Z</time><hdop>3.0</hdop><vdop>3.437</vdop><extensions><gom:speed>0.108</gom:speed></extensions></trkpt>
   <trkpt lat="59.3270226729" lon="34.7102212381"><ele>170.858</ele><time>2026-08-17T04:53:09.435Z</time><hdop>3.0</hdop><vdop>3.437</vdop><extensions><gom:speed>0.098</gom:speed></extensions></trkpt>
   <trkpt lat="59.3270192782" lon="34.7102200646"><ele>170.92</ele><time>2026-08-17T04:53:10.649Z</time><hdop>3.0</hdop><vdop>3.062</vdop><extensions><gom:speed>0.111</gom:speed></extensions></trkpt>
   <trkpt lat="59.3270177695" lon="34.7102201484"><ele>170.958</ele><time>2026-08-17T04:53:11.643Z</time><hdop>3.0</hdop><vdop>3.0</vdop><extensions><gom:speed>0.098</gom:speed></extensions></trkpt>
   <trkpt lat="59.3270167636" lon="34.7102191426"><ele>170.984</ele><time>2026-08-17T04:53:12.652Z</time><hdop>3.0</hdop><vdop>2.937</vdop><extensions><gom:speed>0.025</gom:speed></extensions></trkpt>
   <trkpt lat="59.3270154645" lon="34.7102192264"><ele>171.0</ele><time>2026-08-17T04:53:13.644Z</time><hdop>3.0</hdop><vdop>2.875</vdop><extensions><gom:speed>0.096</gom:speed></extensions></trkpt>
   <trkpt lat="59.3270143748" lon="34.7102185559"><ele>171.01</ele><time>2026-08-17T04:53:14.645Z</time><hdop>3.0</hdop><vdop>2.687</vdop><extensions><gom:speed>0.092</gom:speed></extensions></trkpt>
   <trkpt lat="59.3270140814" lon="34.7102194779"><ele>171.017</ele><time>2026-08-17T04:53:15.643Z</time><hdop>3.0</hdop><vdop>2.562</vdop><extensions><gom:speed>0.096</gom:speed></extensions></trkpt>
   <trkpt lat="59.3270131594" lon="34.7102196455"><ele>171.019</ele><time>2026-08-17T04:53:16.644Z</time><hdop>3.0</hdop><vdop>2.5</vdop><extensions><gom:speed>0.098</gom:speed></extensions></trkpt>
   <trkpt lat="59.3270128661" lon="34.7102192264"><ele>171.021</ele><time>2026-08-17T04:53:17.357Z</time><hdop>3.0</hdop><vdop>2.5</vdop><extensions><gom:speed>0.07</gom:speed></extensions></trkpt>
   <trkpt lat="59.3270125727" lon="34.7102192264"><ele>171.024</ele><time>2026-08-17T04:53:17.842Z</time><hdop>3.0</hdop><vdop>2.5</vdop><extensions><gom:speed>0.052</gom:speed></extensions></trkpt>
   <trkpt lat="59.3270120698" lon="34.7102193941"><ele>171.026</ele><time>2026-08-17T04:53:18.419Z</time><hdop>3.0</hdop><vdop>2.5</vdop><extensions><gom:speed>0.094</gom:speed></extensions></trkpt>
   <trkpt lat="59.3270108963" lon="34.7102228306"><ele>170.771</ele><time>2026-08-17T04:53:19.239Z</time><hdop>3.0</hdop><vdop>2.5</vdop><extensions><gom:speed>0.152</gom:speed></extensions></trkpt>
   <trkpt lat="59.327009178" lon="34.7102284465"><ele>170.459</ele><time>2026-08-17T04:53:19.896Z</time><hdop>3.0</hdop><vdop>2.5</vdop><extensions><gom:speed>0.14</gom:speed></extensions></trkpt>
   <trkpt lat="59.3270081722" lon="34.7102304582"><ele>170.273</ele><time>2026-08-17T04:53:20.574Z</time><hdop>3.0</hdop><vdop>2.5</vdop><extensions><gom:speed>0.167</gom:speed></extensions></trkpt>
   <trkpt lat="59.3270050709" lon="34.7102400974"><ele>170.058</ele><time>2026-08-17T04:53:21.474Z</time><hdop>3.0</hdop><vdop>2.5</vdop><extensions><gom:speed>0.26</gom:speed></extensions></trkpt>
   <trkpt lat="59.3270007961" lon="34.7102579508"><ele>169.734</ele><time>2026-08-17T04:53:22.274Z</time><hdop>3.0</hdop><vdop>2.5</vdop><extensions><gom:speed>0.474</gom:speed></extensions></trkpt>
   <trkpt lat="59.3269976948" lon="34.7102796599"><ele>169.479</ele><time>2026-08-17T04:53:22.962Z</time><hdop>3.0</hdop><vdop>2.5</vdop><extensions><gom:speed>0.697</gom:speed></extensions></trkpt>
   <trkpt lat="59.3269963956" lon="34.7102952503"><ele>169.159</ele><time>2026-08-17T04:53:23.644Z</time><hdop>3.0</hdop><vdop>2.5</vdop><extensions><gom:speed>0.681</gom:speed></extensions></trkpt>
   <trkpt lat="59.3269948869" lon="34.7103175462"><ele>168.937</ele><time>2026-08-17T04:53:24.643Z</time><hdop>3.0</hdop><vdop>2.5</vdop><extensions><gom:speed>0.777</gom:speed></extensions></trkpt>
   <trkpt lat="59.3269933781" lon="34.710332885"><ele>168.805</ele><time>2026-08-17T04:53:25.582Z</time><hdop>3.0</hdop><vdop>2.5</vdop><extensions><gom:speed>0.705</gom:speed></extensions></trkpt>
   <trkpt lat="59.3269944678" lon="34.7103424404"><ele>168.808</ele><time>2026-08-17T04:53:26.128Z</time><hdop>3.0</hdop><vdop>2.5</vdop><extensions><gom:speed>0.714</gom:speed></extensions></trkpt>
   <trkpt lat="59.3269932943" lon="34.7103575278"><ele>168.557</ele><time>2026-08-17T04:53:26.652Z</time><hdop>3.0</hdop><vdop>2.5</vdop><extensions><gom:speed>0.699</gom:speed></extensions></trkpt>
   <trkpt lat="59.3269942582" lon="34.7103697654"><ele>168.406</ele><time>2026-08-17T04:53:27.141Z</time><hdop>3.0</hdop><vdop>2.5</vdop><extensions><gom:speed>0.733</gom:speed></extensions></trkpt>
   <trkpt lat="59.3269948869" lon="34.7103796561"><ele>167.955</ele><time>2026-08-17T04:53:27.646Z</time><hdop>3.0</hdop><vdop>2.562</vdop><extensions><gom:speed>0.736</gom:speed></extensions></trkpt>
   <trkpt lat="59.3269995807" lon="34.7104022872"><ele>167.656</ele><time>2026-08-17T04:53:28.643Z</time><hdop>3.0</hdop><vdop>2.75</vdop><extensions><gom:speed>0.729</gom:speed></extensions></trkpt>
   <trkpt lat="59.3270039812" lon="34.7104175423"><ele>167.478</ele><time>2026-08-17T04:53:29.659Z</time><hdop>3.0</hdop><vdop>2.75</vdop><extensions><gom:speed>0.713</gom:speed></extensions></trkpt>
   <trkpt lat="59.327006873" lon="34.7104335517"><ele>167.536</ele><time>2026-08-17T04:53:30.539Z</time><hdop>3.0</hdop><vdop>3.062</vdop><extensions><gom:speed>0.675</gom:speed></extensions></trkpt>
   <trkpt lat="59.3270075855" lon="34.7104493935"><ele>167.127</ele><time>2026-08-17T04:53:31.399Z</time><hdop>3.0</hdop><vdop>3.125</vdop><extensions><gom:speed>0.602</gom:speed></extensions></trkpt>
   <trkpt lat="59.3270096809" lon="34.7104699292"><ele>166.992</ele><time>2026-08-17T04:53:32.279Z</time><hdop>3.0</hdop><vdop>3.312</vdop><extensions><gom:speed>0.672</gom:speed></extensions></trkpt>
   <trkpt lat="59.3270126984" lon="34.7104804903"><ele>167.382</ele><time>2026-08-17T04:53:33.119Z</time><hdop>3.0</hdop><vdop>3.375</vdop><extensions><gom:speed>0.654</gom:speed></extensions></trkpt>
   <trkpt lat="59.3270147939" lon="34.7104869444"><ele>168.158</ele><time>2026-08-17T04:53:33.644Z</time><hdop>3.0</hdop><vdop>3.187</vdop><extensions><gom:speed>0.601</gom:speed></extensions></trkpt>
   <trkpt lat="59.3270157997" lon="34.7104993496"><ele>168.622</ele><time>2026-08-17T04:53:34.475Z</time><hdop>3.0</hdop><vdop>3.187</vdop><extensions><gom:speed>0.661</gom:speed></extensions></trkpt>
   <trkpt lat="59.3270168894" lon="34.7105165325"><ele>169.05</ele><time>2026-08-17T04:53:35.644Z</time><hdop>3.0</hdop><vdop>3.125</vdop><extensions><gom:speed>0.591</gom:speed></extensions></trkpt>
   <trkpt lat="59.3270146682" lon="34.7105272614"><ele>169.061</ele><time>2026-08-17T04:53:36.650Z</time><hdop>3.0</hdop><vdop>3.062</vdop><extensions><gom:speed>0.541</gom:speed></extensions></trkpt>
   <trkpt lat="59.3270129918" lon="34.7105324581"><ele>169.067</ele><time>2026-08-17T04:53:37.358Z</time><hdop>3.0</hdop><vdop>3.062</vdop><extensions><gom:speed>0.54</gom:speed></extensions></trkpt>
   <trkpt lat="59.3270082979" lon="34.710551066"><ele>169.111</ele><time>2026-08-17T04:53:38.319Z</time><hdop>3.0</hdop><vdop>2.937</vdop><extensions><gom:speed>0.559</gom:speed></extensions></trkpt>
   <trkpt lat="59.3270065796" lon="34.7105622977"><ele>169.233</ele><time>2026-08-17T04:53:39.159Z</time><hdop>3.0</hdop><vdop>3.062</vdop><extensions><gom:speed>0.59</gom:speed></extensions></trkpt>
   <trkpt lat="59.3270060767" lon="34.710566824"><ele>169.542</ele><time>2026-08-17T04:53:39.652Z</time><hdop>3.0</hdop><vdop>3.125</vdop><extensions><gom:speed>0.512</gom:speed></extensions></trkpt>
   <trkpt lat="59.3270039812" lon="34.7105762955"><ele>169.727</ele><time>2026-08-17T04:53:40.180Z</time><hdop>3.0</hdop><vdop>3.125</vdop><extensions><gom:speed>0.592</gom:speed></extensions></trkpt>
   <trkpt lat="59.3270030592" lon="34.7105819952"><ele>169.847</ele><time>2026-08-17T04:53:40.652Z</time><hdop>3.0</hdop><vdop>3.312</vdop><extensions><gom:speed>0.543</gom:speed></extensions></trkpt>
   <trkpt lat="59.3269985749" lon="34.7106002677"><ele>170.528</ele><time>2026-08-17T04:53:41.644Z</time><hdop>3.0</hdop><vdop>3.5</vdop><extensions><gom:speed>0.61</gom:speed></extensions></trkpt>
   <trkpt lat="59.3269916598" lon="34.7106164448"><ele>170.861</ele><time>2026-08-17T04:53:42.643Z</time><hdop>3.0</hdop><vdop>3.375</vdop><extensions><gom:speed>0.668</gom:speed></extensions></trkpt>
   <trkpt lat="59.3269848705" lon="34.7106310293"><ele>171.06</ele><time>2026-08-17T04:53:43.479Z</time><hdop>3.0</hdop><vdop>3.375</vdop><extensions><gom:speed>0.748</gom:speed></extensions></trkpt>
   <trkpt lat="59.3269839904" lon="34.7106336277"><ele>171.332</ele><time>2026-08-17T04:53:44.480Z</time><hdop>3.0</hdop><vdop>3.25</vdop><extensions><gom:speed>0.587</gom:speed></extensions></trkpt>
   <trkpt lat="59.3269802605" lon="34.7106492181"><ele>171.259</ele><time>2026-08-17T04:53:45.644Z</time><hdop>3.0</hdop><vdop>2.875</vdop><extensions><gom:speed>0.626</gom:speed></extensions></trkpt>
   <trkpt lat="59.3269786679" lon="34.7106624615"><ele>171.532</ele><time>2026-08-17T04:53:46.643Z</time><hdop>3.0</hdop><vdop>2.937</vdop><extensions><gom:speed>0.635</gom:speed></extensions></trkpt>
   <trkpt lat="59.3269796737" lon="34.7106727712"><ele>171.646</ele><time>2026-08-17T04:53:47.652Z</time><hdop>3.0</hdop><vdop>2.937</vdop><extensions><gom:speed>0.489</gom:speed></extensions></trkpt>
   <trkpt lat="59.3269808891" lon="34.7106797282"><ele>171.714</ele><time>2026-08-17T04:53:48.436Z</time><hdop>3.0</hdop><vdop>2.937</vdop><extensions><gom:speed>0.463</gom:speed></extensions></trkpt>
   <trkpt lat="59.326982775" lon="34.7106865175"><ele>172.118</ele><time>2026-08-17T04:53:48.982Z</time><hdop>3.0</hdop><vdop>2.875</vdop><extensions><gom:speed>0.43</gom:speed></extensions></trkpt>
   <trkpt lat="59.3269839904" lon="34.710689535"><ele>172.388</ele><time>2026-08-17T04:53:49.652Z</time><hdop>3.0</hdop><vdop>2.812</vdop><extensions><gom:speed>0.382</gom:speed></extensions></trkpt>
   <trkpt lat="59.3269872593" lon="34.7106970787"><ele>172.506</ele><time>2026-08-17T04:53:50.643Z</time><hdop>3.0</hdop><vdop>3.0</vdop><extensions><gom:speed>0.316</gom:speed></extensions></trkpt>
   <trkpt lat="59.3269885585" lon="34.7107029461"><ele>172.577</ele><time>2026-08-17T04:53:51.602Z</time><hdop>3.0</hdop><vdop>3.0</vdop><extensions><gom:speed>0.33</gom:speed></extensions></trkpt>
   <trkpt lat="59.3269894806" lon="34.7107102383"><ele>172.55</ele><time>2026-08-17T04:53:52.260Z</time><hdop>3.0</hdop><vdop>3.125</vdop><extensions><gom:speed>0.388</gom:speed></extensions></trkpt>
   <trkpt lat="59.3269893967" lon="34.7107171953"><ele>172.548</ele><time>2026-08-17T04:53:53.646Z</time><hdop>3.0</hdop><vdop>2.937</vdop><extensions><gom:speed>0.251</gom:speed></extensions></trkpt>
   <trkpt lat="59.3269896901" lon="34.7107179497"><ele>172.547</ele><time>2026-08-17T04:53:54.643Z</time><hdop>3.0</hdop><vdop>2.937</vdop><extensions><gom:speed>0.155</gom:speed></extensions></trkpt>
   <trkpt lat="59.326989271" lon="34.7107172791"><ele>172.545</ele><time>2026-08-17T04:53:55.644Z</time><hdop>3.0</hdop><vdop>2.937</vdop><extensions><gom:speed>0.117</gom:speed></extensions></trkpt>
   <trkpt lat="59.3269893967" lon="34.7107175306"><ele>172.543</ele><time>2026-08-17T04:53:56.644Z</time><hdop>3.0</hdop><vdop>2.937</vdop><extensions><gom:speed>0.087</gom:speed></extensions></trkpt>
   <trkpt lat="59.326989271" lon="34.7107179497"><ele>172.542</ele><time>2026-08-17T04:53:57.652Z</time><hdop>3.0</hdop><vdop>2.875</vdop><extensions><gom:speed>0.017</gom:speed></extensions></trkpt>
   <trkpt lat="59.3269896901" lon="34.7107176982"><ele>172.469</ele><time>2026-08-17T04:53:58.643Z</time><hdop>3.0</hdop><vdop>2.812</vdop><extensions><gom:speed>0.102</gom:speed></extensions></trkpt>
   <trkpt lat="59.3269903607" lon="34.7107188717"><ele>172.299</ele><time>2026-08-17T04:53:59.652Z</time><hdop>3.0</hdop><vdop>2.687</vdop><extensions><gom:speed>0.034</gom:speed></extensions></trkpt>
   <trkpt lat="59.3269904864" lon="34.7107202966"><ele>172.086</ele><time>2026-08-17T04:54:00.644Z</time><hdop>3.0</hdop><vdop>2.687</vdop><extensions><gom:speed>0.11</gom:speed></extensions></trkpt>
   <trkpt lat="59.3269908636" lon="34.7107217215"><ele>172.153</ele><time>2026-08-17T04:54:01.644Z</time><hdop>3.0</hdop><vdop>2.875</vdop><extensions><gom:speed>0.132</gom:speed></extensions></trkpt>
   <trkpt lat="59.3269914922" lon="34.7107221406"><ele>172.193</ele><time>2026-08-17T04:54:02.377Z</time><hdop>3.0</hdop><vdop>2.875</vdop><extensions><gom:speed>0.107</gom:speed></extensions></trkpt>
   <trkpt lat="59.3269922885" lon="34.7107231464"><ele>172.383</ele><time>2026-08-17T04:54:03.115Z</time><hdop>3.062</hdop><vdop>2.625</vdop><extensions><gom:speed>0.122</gom:speed></extensions></trkpt>
   <trkpt lat="59.3269927914" lon="34.7107254934"><ele>172.507</ele><time>2026-08-17T04:54:03.644Z</time><hdop>3.062</hdop><vdop>2.625</vdop><extensions><gom:speed>0.148</gom:speed></extensions></trkpt>
   <trkpt lat="59.3269933781" lon="34.7107304387"><ele>172.581</ele><time>2026-08-17T04:54:04.522Z</time><hdop>3.125</hdop><vdop>2.625</vdop><extensions><gom:speed>0.22</gom:speed></extensions></trkpt>
   <trkpt lat="59.3269930848" lon="34.7107379824"><ele>172.837</ele><time>2026-08-17T04:54:05.159Z</time><hdop>3.25</hdop><vdop>2.5</vdop><extensions><gom:speed>0.312</gom:speed></extensions></trkpt>
   <trkpt lat="59.3269920789" lon="34.7107464481"><ele>172.686</ele><time>2026-08-17T04:54:05.644Z</time><hdop>3.312</hdop><vdop>2.5</vdop><extensions><gom:speed>0.348</gom:speed></extensions></trkpt>
   <trkpt lat="59.3269896901" lon="34.7107558359"><ele>172.485</ele><time>2026-08-17T04:54:06.652Z</time><hdop>3.437</hdop><vdop>2.5</vdop><extensions><gom:speed>0.428</gom:speed></extensions></trkpt>
   <trkpt lat="59.3269874689" lon="34.7107666485"><ele>172.659</ele><time>2026-08-17T04:54:07.644Z</time><hdop>3.562</hdop><vdop>2.562</vdop><extensions><gom:speed>0.455</gom:speed></extensions></trkpt>
   <trkpt lat="59.3269848705" lon="34.7107749466"><ele>172.763</ele><time>2026-08-17T04:54:08.497Z</time><hdop>3.75</hdop><vdop>2.562</vdop><extensions><gom:speed>0.505</gom:speed></extensions></trkpt>
   <trkpt lat="59.3269782907" lon="34.7107847534"><ele>172.97</ele><time>2026-08-17T04:54:09.337Z</time><hdop>3.937</hdop><vdop>2.625</vdop><extensions><gom:speed>0.608</gom:speed></extensions></trkpt>
   <trkpt lat="59.3269701603" lon="34.7107924648"><ele>172.751</ele><time>2026-08-17T04:54:10.197Z</time><hdop>4.25</hdop><vdop>2.562</vdop><extensions><gom:speed>0.689</gom:speed></extensions></trkpt>
   <trkpt lat="59.3269649635" lon="34.7107984998"><ele>172.544</ele><time>2026-08-17T04:54:10.743Z</time><hdop>4.375</hdop><vdop>2.687</vdop><extensions><gom:speed>0.708</gom:speed></extensions></trkpt>
   <trkpt lat="59.3269596829" lon="34.71080948"><ele>172.419</ele><time>2026-08-17T04:54:11.421Z</time><hdop>4.5</hdop><vdop>2.687</vdop><extensions><gom:speed>0.714</gom:speed></extensions></trkpt>
   <trkpt lat="59.3269560787" lon="34.710817359"><ele>172.497</ele><time>2026-08-17T04:54:12.301Z</time><hdop>4.625</hdop><vdop>2.75</vdop><extensions><gom:speed>0.642</gom:speed></extensions></trkpt>
   <trkpt lat="59.326952684" lon="34.7108260762"><ele>172.35</ele><time>2026-08-17T04:54:13.202Z</time><hdop>4.687</hdop><vdop>2.687</vdop><extensions><gom:speed>0.566</gom:speed></extensions></trkpt>
   <trkpt lat="59.3269510914" lon="34.7108302672"><ele>172.165</ele><time>2026-08-17T04:54:13.652Z</time><hdop>4.75</hdop><vdop>2.562</vdop><extensions><gom:speed>0.575</gom:speed></extensions></trkpt>
   <trkpt lat="59.3269459785" lon="34.7108342905"><ele>172.061</ele><time>2026-08-17T04:54:14.644Z</time><hdop>4.875</hdop><vdop>2.5</vdop><extensions><gom:speed>0.517</gom:speed></extensions></trkpt>
   <trkpt lat="59.3269425838" lon="34.710836386"><ele>171.999</ele><time>2026-08-17T04:54:15.519Z</time><hdop>4.937</hdop><vdop>2.5</vdop><extensions><gom:speed>0.479</gom:speed></extensions></trkpt>
   <trkpt lat="59.3269410751" lon="34.71083823"><ele>171.836</ele><time>2026-08-17T04:54:16.308Z</time><hdop>5.0</hdop><vdop>2.625</vdop><extensions><gom:speed>0.448</gom:speed></extensions></trkpt>
   <trkpt lat="59.3269324836" lon="34.7108511381"><ele>171.853</ele><time>2026-08-17T04:54:17.319Z</time><hdop>5.125</hdop><vdop>2.812</vdop><extensions><gom:speed>0.6</gom:speed></extensions></trkpt>
   <trkpt lat="59.3269244789" lon="34.7108571731"><ele>171.74</ele><time>2026-08-17T04:54:18.644Z</time><hdop>5.187</hdop><vdop>2.812</vdop><extensions><gom:speed>0.571</gom:speed></extensions></trkpt>
   <trkpt lat="59.3269209585" lon="34.7108574245"><ele>171.672</ele><time>2026-08-17T04:54:19.555Z</time><hdop>5.25</hdop><vdop>2.812</vdop><extensions><gom:speed>0.501</gom:speed></extensions></trkpt>
   <trkpt lat="59.3269134986" lon="34.7108626213"><ele>172.166</ele><time>2026-08-17T04:54:20.643Z</time><hdop>5.125</hdop><vdop>2.625</vdop><extensions><gom:speed>0.233</gom:speed></extensions></trkpt>
   <trkpt lat="59.3269085952" lon="34.7108641301"><ele>172.408</ele><time>2026-08-17T04:54:21.644Z</time><hdop>4.625</hdop><vdop>2.562</vdop><extensions><gom:speed>0.205</gom:speed></extensions></trkpt>
   <trkpt lat="59.3269026859" lon="34.7108609449"><ele>172.723</ele><time>2026-08-17T04:54:22.644Z</time><hdop>4.062</hdop><vdop>2.625</vdop><extensions><gom:speed>0.201</gom:speed></extensions></trkpt>
   <trkpt lat="59.3269016801" lon="34.7108594362"><ele>172.91</ele><time>2026-08-17T04:54:23.258Z</time><hdop>3.875</hdop><vdop>2.625</vdop><extensions><gom:speed>0.185</gom:speed></extensions></trkpt>
   <trkpt lat="59.3268994589" lon="34.7108573407"><ele>173.012</ele><time>2026-08-17T04:54:24.017Z</time><hdop>3.437</hdop><vdop>2.687</vdop><extensions><gom:speed>0.159</gom:speed></extensions></trkpt>
   <trkpt lat="59.3268968605" lon="34.7108552452"><ele>172.951</ele><time>2026-08-17T04:54:24.644Z</time><hdop>3.0</hdop><vdop>2.875</vdop><extensions><gom:speed>0.182</gom:speed></extensions></trkpt>
   <trkpt lat="59.3268958966" lon="34.710853988"><ele>172.915</ele><time>2026-08-17T04:54:25.119Z</time><hdop>3.0</hdop><vdop>2.875</vdop><extensions><gom:speed>0.169</gom:speed></extensions></trkpt>
   <trkpt lat="59.3268951841" lon="34.7108523954"><ele>172.808</ele><time>2026-08-17T04:54:25.652Z</time><hdop>3.0</hdop><vdop>3.062</vdop><extensions><gom:speed>0.172</gom:speed></extensions></trkpt>
   <trkpt lat="59.3268937592" lon="34.7108518925"><ele>172.744</ele><time>2026-08-17T04:54:26.263Z</time><hdop>3.0</hdop><vdop>3.062</vdop><extensions><gom:speed>0.188</gom:speed></extensions></trkpt>
   <trkpt lat="59.3268915799" lon="34.7108498808"><ele>172.963</ele><time>2026-08-17T04:54:27.477Z</time><hdop>3.0</hdop><vdop>2.875</vdop><extensions><gom:speed>0.181</gom:speed></extensions></trkpt>
   <trkpt lat="59.3268885624" lon="34.710849797"><ele>172.783</ele><time>2026-08-17T04:54:28.644Z</time><hdop>3.0</hdop><vdop>2.625</vdop><extensions><gom:speed>0.166</gom:speed></extensions></trkpt>
   <trkpt lat="59.3268871794" lon="34.7108513896"><ele>172.674</ele><time>2026-08-17T04:54:29.643Z</time><hdop>3.0</hdop><vdop>2.562</vdop><extensions><gom:speed>0.141</gom:speed></extensions></trkpt>
   <trkpt lat="59.3268869699" lon="34.7108520601"><ele>172.608</ele><time>2026-08-17T04:54:30.652Z</time><hdop>3.0</hdop><vdop>2.5</vdop><extensions><gom:speed>0.055</gom:speed></extensions></trkpt>
   <trkpt lat="59.3268869699" lon="34.710853485"><ele>172.569</ele><time>2026-08-17T04:54:31.652Z</time><hdop>3.0</hdop><vdop>2.5</vdop><extensions><gom:speed>0.034</gom:speed></extensions></trkpt>
   <trkpt lat="59.3268862993" lon="34.7108545747"><ele>172.545</ele><time>2026-08-17T04:54:32.653Z</time><hdop>3.0</hdop><vdop>2.5</vdop><extensions><gom:speed>0.016</gom:speed></extensions></trkpt>
   <trkpt lat="59.326885964" lon="34.7108555805"><ele>172.545</ele><time>2026-08-17T04:54:33.652Z</time><hdop>3.0</hdop><vdop>2.5</vdop><extensions><gom:speed>0.019</gom:speed></extensions></trkpt>
   <trkpt lat="59.3268847906" lon="34.7108570893"><ele>172.553</ele><time>2026-08-17T04:54:34.643Z</time><hdop>3.0</hdop><vdop>2.5</vdop><extensions><gom:speed>0.057</gom:speed></extensions></trkpt>
   <trkpt lat="59.3268841619" lon="34.7108580951"><ele>172.584</ele><time>2026-08-17T04:54:35.652Z</time><hdop>3.0</hdop><vdop>2.5</vdop><extensions><gom:speed>0.031</gom:speed></extensions></trkpt>
   <trkpt lat="59.3268835752" lon="34.7108584304"><ele>172.633</ele><time>2026-08-17T04:54:36.652Z</time><hdop>3.0</hdop><vdop>2.5</vdop><extensions><gom:speed>0.03</gom:speed></extensions></trkpt>
   <trkpt lat="59.3268828627" lon="34.7108590171"><ele>172.62</ele><time>2026-08-17T04:54:37.645Z</time><hdop>3.0</hdop><vdop>2.5</vdop><extensions><gom:speed>0.089</gom:speed></extensions></trkpt>
   <trkpt lat="59.3268825694" lon="34.7108583465"><ele>172.588</ele><time>2026-08-17T04:54:38.646Z</time><hdop>3.0</hdop><vdop>2.5</vdop><extensions><gom:speed>0.106</gom:speed></extensions></trkpt>
   <trkpt lat="59.3268821922" lon="34.7108589333"><ele>172.569</ele><time>2026-08-17T04:54:39.657Z</time><hdop>3.0</hdop><vdop>2.5</vdop><extensions><gom:speed>0.028</gom:speed></extensions></trkpt>
   <trkpt lat="59.3268820665" lon="34.7108603582"><ele>172.557</ele><time>2026-08-17T04:54:40.644Z</time><hdop>3.0</hdop><vdop>2.5</vdop><extensions><gom:speed>0.064</gom:speed></extensions></trkpt>
   <trkpt lat="59.3268820665" lon="34.7108607773"><ele>172.549</ele><time>2026-08-17T04:54:41.175Z</time><hdop>3.0</hdop><vdop>2.5</vdop><extensions><gom:speed>0.079</gom:speed></extensions></trkpt>
   <trkpt lat="59.3268817731" lon="34.7108616993"><ele>172.545</ele><time>2026-08-17T04:54:41.644Z</time><hdop>3.0</hdop><vdop>2.5</vdop><extensions><gom:speed>0.091</gom:speed></extensions></trkpt>
   <trkpt lat="59.3268816893" lon="34.7108618669"><ele>172.542</ele><time>2026-08-17T04:54:42.644Z</time><hdop>3.0</hdop><vdop>2.5</vdop><extensions><gom:speed>0.094</gom:speed></extensions></trkpt>
   <trkpt lat="59.3268816893" lon="34.7108624537"><ele>172.541</ele><time>2026-08-17T04:54:43.645Z</time><hdop>3.0</hdop><vdop>2.5</vdop><extensions><gom:speed>0.097</gom:speed></extensions></trkpt>
   <trkpt lat="59.3268820665" lon="34.7108637948"><ele>172.544</ele><time>2026-08-17T04:54:44.643Z</time><hdop>3.0</hdop><vdop>2.5</vdop><extensions><gom:speed>0.101</gom:speed></extensions></trkpt>
   <trkpt lat="59.3268823598" lon="34.7108639624"><ele>172.546</ele><time>2026-08-17T04:54:45.644Z</time><hdop>3.0</hdop><vdop>2.5</vdop><extensions><gom:speed>0.087</gom:speed></extensions></trkpt>
   <trkpt lat="59.3268824856" lon="34.7108642977"><ele>172.547</ele><time>2026-08-17T04:54:46.644Z</time><hdop>3.0</hdop><vdop>2.5</vdop><extensions><gom:speed>0.064</gom:speed></extensions></trkpt>
   <trkpt lat="59.3268819826" lon="34.7108654712"><ele>172.548</ele><time>2026-08-17T04:54:47.650Z</time><hdop>3.0</hdop><vdop>2.5</vdop><extensions><gom:speed>0.065</gom:speed></extensions></trkpt>
   <trkpt lat="59.3268821922" lon="34.7108666446"><ele>172.547</ele><time>2026-08-17T04:54:48.644Z</time><hdop>3.0</hdop><vdop>2.5</vdop><extensions><gom:speed>0.063</gom:speed></extensions></trkpt>
   <trkpt lat="59.3268820665" lon="34.7108677343"><ele>172.515</ele><time>2026-08-17T04:54:49.652Z</time><hdop>3.0</hdop><vdop>2.5</vdop><extensions><gom:speed>0.063</gom:speed></extensions></trkpt>
   <trkpt lat="59.3268818988" lon="34.7108682372"><ele>172.496</ele><time>2026-08-17T04:54:50.159Z</time><hdop>3.0</hdop><vdop>2.5</vdop><extensions><gom:speed>0.117</gom:speed></extensions></trkpt>
   <trkpt lat="59.3268814797" lon="34.7108689916"><ele>172.512</ele><time>2026-08-17T04:54:50.644Z</time><hdop>3.0</hdop><vdop>2.5</vdop><extensions><gom:speed>0.39</gom:speed></extensions></trkpt>
   <trkpt lat="59.3268779593" lon="34.7108706679"><ele>172.521</ele><time>2026-08-17T04:54:51.615Z</time><hdop>3.0</hdop><vdop>2.5</vdop><extensions><gom:speed>0.452</gom:speed></extensions></trkpt>
   <trkpt lat="59.3268774983" lon="34.7108721767"><ele>172.3</ele><time>2026-08-17T04:54:52.645Z</time><hdop>3.0</hdop><vdop>2.5</vdop><extensions><gom:speed>0.269</gom:speed></extensions></trkpt>
   <trkpt lat="59.3268772888" lon="34.7108740207"><ele>172.168</ele><time>2026-08-17T04:54:53.538Z</time><hdop>3.0</hdop><vdop>2.5</vdop><extensions><gom:speed>0.222</gom:speed></extensions></trkpt>
   <trkpt lat="59.3268759896" lon="34.7108755294"><ele>171.991</ele><time>2026-08-17T04:54:54.215Z</time><hdop>3.0</hdop><vdop>2.5</vdop><extensions><gom:speed>0.277</gom:speed></extensions></trkpt>
   <trkpt lat="59.3268717986" lon="34.7108766191"><ele>171.923</ele><time>2026-08-17T04:54:55.075Z</time><hdop>3.0</hdop><vdop>2.5</vdop><extensions><gom:speed>0.443</gom:speed></extensions></trkpt>
   <trkpt lat="59.3268689907" lon="34.7108795528"><ele>171.912</ele><time>2026-08-17T04:54:55.644Z</time><hdop>3.0</hdop><vdop>2.5</vdop><extensions><gom:speed>0.405</gom:speed></extensions></trkpt>
   <trkpt lat="59.3268577589" lon="34.7108821511"><ele>172.082</ele><time>2026-08-17T04:54:56.655Z</time><hdop>3.062</hdop><vdop>2.5</vdop><extensions><gom:speed>0.761</gom:speed></extensions></trkpt>
   <trkpt lat="59.3268484969" lon="34.7108996693"><ele>172.184</ele><time>2026-08-17T04:54:57.615Z</time><hdop>3.062</hdop><vdop>2.5</vdop><extensions><gom:speed>0.781</gom:speed></extensions></trkpt>
   <trkpt lat="59.3268443898" lon="34.7109147568"><ele>172.416</ele><time>2026-08-17T04:54:58.333Z</time><hdop>3.062</hdop><vdop>2.562</vdop><extensions><gom:speed>0.714</gom:speed></extensions></trkpt>
   <trkpt lat="59.3268430906" lon="34.710948452"><ele>172.942</ele><time>2026-08-17T04:54:59.644Z</time><hdop>3.062</hdop><vdop>3.0</vdop><extensions><gom:speed>0.671</gom:speed></extensions></trkpt>
   <trkpt lat="59.3268434678" lon="34.7109691553"><ele>173.69</ele><time>2026-08-17T04:55:00.644Z</time><hdop>3.062</hdop><vdop>3.062</vdop><extensions><gom:speed>0.621</gom:speed></extensions></trkpt>
   <trkpt lat="59.3268427972" lon="34.7109832369"><ele>174.198</ele><time>2026-08-17T04:55:01.645Z</time><hdop>3.062</hdop><vdop>2.812</vdop><extensions><gom:speed>0.472</gom:speed></extensions></trkpt>
   <trkpt lat="59.3268421686" lon="34.7109985758"><ele>174.669</ele><time>2026-08-17T04:55:02.643Z</time><hdop>3.0</hdop><vdop>2.875</vdop><extensions><gom:speed>0.529</gom:speed></extensions></trkpt>
   <trkpt lat="59.326841079" lon="34.7110089693"><ele>174.951</ele><time>2026-08-17T04:55:03.533Z</time><hdop>3.0</hdop><vdop>2.875</vdop><extensions><gom:speed>0.469</gom:speed></extensions></trkpt>
   <trkpt lat="59.3268403665" lon="34.711013747"><ele>175.385</ele><time>2026-08-17T04:55:04.039Z</time><hdop>3.0</hdop><vdop>2.625</vdop><extensions><gom:speed>0.458</gom:speed></extensions></trkpt>
   <trkpt lat="59.3268381872" lon="34.7110274934"><ele>175.827</ele><time>2026-08-17T04:55:04.646Z</time><hdop>3.0</hdop><vdop>2.5</vdop><extensions><gom:speed>0.482</gom:speed></extensions></trkpt>
   <trkpt lat="59.3268313979" lon="34.7110466879"><ele>176.255</ele><time>2026-08-17T04:55:05.643Z</time><hdop>3.0</hdop><vdop>2.5</vdop><extensions><gom:speed>0.567</gom:speed></extensions></trkpt>
   <trkpt lat="59.3268267878" lon="34.7110565786"><ele>176.511</ele><time>2026-08-17T04:55:06.619Z</time><hdop>3.0</hdop><vdop>2.5</vdop><extensions><gom:speed>0.541</gom:speed></extensions></trkpt>
   <trkpt lat="59.3268217587" lon="34.7110677265"><ele>176.594</ele><time>2026-08-17T04:55:07.458Z</time><hdop>3.0</hdop><vdop>2.5</vdop><extensions><gom:speed>0.593</gom:speed></extensions></trkpt>
   <trkpt lat="59.3268139635" lon="34.7110810537"><ele>176.436</ele><time>2026-08-17T04:55:08.278Z</time><hdop>3.0</hdop><vdop>2.5</vdop><extensions><gom:speed>0.765</gom:speed></extensions></trkpt>
   <trkpt lat="59.3268070903" lon="34.71109019"><ele>176.389</ele><time>2026-08-17T04:55:08.935Z</time><hdop>3.0</hdop><vdop>2.5</vdop><extensions><gom:speed>0.854</gom:speed></extensions></trkpt>
   <trkpt lat="59.3268012649" lon="34.7110977337"><ele>176.438</ele><time>2026-08-17T04:55:09.645Z</time><hdop>3.0</hdop><vdop>2.562</vdop><extensions><gom:speed>0.834</gom:speed></extensions></trkpt>
   <trkpt lat="59.3267972835" lon="34.7111110609"><ele>176.468</ele><time>2026-08-17T04:55:10.493Z</time><hdop>3.0</hdop><vdop>2.562</vdop><extensions><gom:speed>0.754</gom:speed></extensions></trkpt>
   <trkpt lat="59.3267953976" lon="34.711113324"><ele>176.273</ele><time>2026-08-17T04:55:11.455Z</time><hdop>3.0</hdop><vdop>2.5</vdop><extensions><gom:speed>0.612</gom:speed></extensions></trkpt>
   <trkpt lat="59.3267950623" lon="34.7111148328"><ele>175.957</ele><time>2026-08-17T04:55:12.375Z</time><hdop>3.0</hdop><vdop>2.5</vdop><extensions><gom:speed>0.481</gom:speed></extensions></trkpt>
   <trkpt lat="59.3267966968" lon="34.7111192752"><ele>175.508</ele><time>2026-08-17T04:55:13.174Z</time><hdop>3.0</hdop><vdop>2.5</vdop><extensions><gom:speed>0.468</gom:speed></extensions></trkpt>
   <trkpt lat="59.3267971997" lon="34.7111234661"><ele>175.41</ele><time>2026-08-17T04:55:13.650Z</time><hdop>3.0</hdop><vdop>2.5</vdop><extensions><gom:speed>0.467</gom:speed></extensions></trkpt>
   <trkpt lat="59.3268033604" lon="34.7111424931"><ele>175.727</ele><time>2026-08-17T04:55:14.644Z</time><hdop>3.0</hdop><vdop>2.5</vdop><extensions><gom:speed>0.682</gom:speed></extensions></trkpt>
   <trkpt lat="59.3268046596" lon="34.7111482766"><ele>175.917</ele><time>2026-08-17T04:55:15.269Z</time><hdop>3.0</hdop><vdop>2.5</vdop><extensions><gom:speed>0.653</gom:speed></extensions></trkpt>
   <trkpt lat="59.3268122871" lon="34.7111653757"><ele>176.397</ele><time>2026-08-17T04:55:16.644Z</time><hdop>3.0</hdop><vdop>2.5</vdop><extensions><gom:speed>0.461</gom:speed></extensions></trkpt>
   <trkpt lat="59.3268126643" lon="34.711167052"><ele>176.807</ele><time>2026-08-17T04:55:17.652Z</time><hdop>3.0</hdop><vdop>2.5</vdop><extensions><gom:speed>0.237</gom:speed></extensions></trkpt>
   <trkpt lat="59.3268173582" lon="34.711163364"><ele>177.056</ele><time>2026-08-17T04:55:18.643Z</time><hdop>3.0</hdop><vdop>2.5</vdop><extensions><gom:speed>0.156</gom:speed></extensions></trkpt>
   <trkpt lat="59.3268199985" lon="34.7111586701"><ele>177.205</ele><time>2026-08-17T04:55:19.644Z</time><hdop>3.0</hdop><vdop>2.5</vdop><extensions><gom:speed>0.1</gom:speed></extensions></trkpt>
   <trkpt lat="59.3268222616" lon="34.7111558203"><ele>177.305</ele><time>2026-08-17T04:55:20.644Z</time><hdop>3.0</hdop><vdop>2.5</vdop><extensions><gom:speed>0.098</gom:speed></extensions></trkpt>
   <trkpt lat="59.3268253629" lon="34.7111529704"><ele>177.372</ele><time>2026-08-17T04:55:21.644Z</time><hdop>3.0</hdop><vdop>2.5</vdop><extensions><gom:speed>0.085</gom:speed></extensions></trkpt>
   <trkpt lat="59.3268256982" lon="34.7111513779"><ele>177.41</ele><time>2026-08-17T04:55:22.654Z</time><hdop>3.0</hdop><vdop>2.5</vdop><extensions><gom:speed>0.017</gom:speed></extensions></trkpt>
   <trkpt lat="59.3268276679" lon="34.711149953"><ele>177.434</ele><time>2026-08-17T04:55:23.644Z</time><hdop>3.0</hdop><vdop>2.5</vdop><extensions><gom:speed>0.08</gom:speed></extensions></trkpt>
   <trkpt lat="59.3268291767" lon="34.7111501206"><ele>177.447</ele><time>2026-08-17T04:55:24.644Z</time><hdop>3.0</hdop><vdop>2.5</vdop><extensions><gom:speed>0.091</gom:speed></extensions></trkpt>
   <trkpt lat="59.3268304759" lon="34.7111502882"><ele>177.454</ele><time>2026-08-17T04:55:25.644Z</time><hdop>3.0</hdop><vdop>2.5</vdop><extensions><gom:speed>0.092</gom:speed></extensions></trkpt>
   <trkpt lat="59.3268312721" lon="34.7111495339"><ele>177.465</ele><time>2026-08-17T04:55:26.644Z</time><hdop>3.0</hdop><vdop>2.5</vdop><extensions><gom:speed>0.089</gom:speed></extensions></trkpt>
   <trkpt lat="59.3268320684" lon="34.7111486957"><ele>177.476</ele><time>2026-08-17T04:55:27.643Z</time><hdop>3.0</hdop><vdop>2.5</vdop><extensions><gom:speed>0.092</gom:speed></extensions></trkpt>
   <trkpt lat="59.326832278" lon="34.7111484442"><ele>177.486</ele><time>2026-08-17T04:55:28.644Z</time><hdop>3.0</hdop><vdop>2.5</vdop><extensions><gom:speed>0.102</gom:speed></extensions></trkpt>
   <trkpt lat="59.3268320684" lon="34.7111484442"><ele>177.603</ele><time>2026-08-17T04:55:29.643Z</time><hdop>3.0</hdop><vdop>2.5</vdop><extensions><gom:speed>0.095</gom:speed></extensions></trkpt>
   <trkpt lat="59.3268321941" lon="34.7111489471"><ele>177.676</ele><time>2026-08-17T04:55:30.646Z</time><hdop>3.0</hdop><vdop>2.5</vdop><extensions><gom:speed>0.109</gom:speed></extensions></trkpt>
   <trkpt lat="59.3268315655" lon="34.7111468517"><ele>177.719</ele><time>2026-08-17T04:55:31.645Z</time><hdop>3.0</hdop><vdop>2.5</vdop><extensions><gom:speed>0.096</gom:speed></extensions></trkpt>
   <trkpt lat="59.3268312721" lon="34.7111462649"><ele>177.745</ele><time>2026-08-17T04:55:32.568Z</time><hdop>3.0</hdop><vdop>2.5</vdop><extensions><gom:speed>0.103</gom:speed></extensions></trkpt>
   <trkpt lat="59.3268304759" lon="34.7111438342"><ele>177.764</ele><time>2026-08-17T04:55:33.644Z</time><hdop>3.0</hdop><vdop>2.562</vdop><extensions><gom:speed>0.095</gom:speed></extensions></trkpt>
   <trkpt lat="59.3268309788" lon="34.7111432474"><ele>177.779</ele><time>2026-08-17T04:55:34.652Z</time><hdop>3.0</hdop><vdop>2.687</vdop><extensions><gom:speed>0.067</gom:speed></extensions></trkpt>
   <trkpt lat="59.3268309788" lon="34.7111425769"><ele>177.792</ele><time>2026-08-17T04:55:35.643Z</time><hdop>3.0</hdop><vdop>2.687</vdop><extensions><gom:speed>0.015</gom:speed></extensions></trkpt>
   <trkpt lat="59.3268309788" lon="34.7111423254"><ele>177.808</ele><time>2026-08-17T04:55:36.652Z</time><hdop>3.0</hdop><vdop>2.687</vdop><extensions><gom:speed>0.016</gom:speed></extensions></trkpt>
   <trkpt lat="59.3268308949" lon="34.7111423254"><ele>177.823</ele><time>2026-08-17T04:55:37.643Z</time><hdop>3.0</hdop><vdop>2.625</vdop><extensions><gom:speed>0.034</gom:speed></extensions></trkpt>
   <trkpt lat="59.3268307692" lon="34.7111424931"><ele>177.832</ele><time>2026-08-17T04:55:38.133Z</time><hdop>3.0</hdop><vdop>2.625</vdop><extensions><gom:speed>0.035</gom:speed></extensions></trkpt>
   <trkpt lat="59.3268306854" lon="34.7111427445"><ele>177.845</ele><time>2026-08-17T04:55:38.644Z</time><hdop>3.0</hdop><vdop>2.625</vdop><extensions><gom:speed>0.039</gom:speed></extensions></trkpt>
   <trkpt lat="59.3268306854" lon="34.7111432474"><ele>177.866</ele><time>2026-08-17T04:55:39.650Z</time><hdop>3.0</hdop><vdop>2.75</vdop><extensions><gom:speed>0.039</gom:speed></extensions></trkpt>
   <trkpt lat="59.3268304759" lon="34.7111434989"><ele>177.896</ele><time>2026-08-17T04:55:40.645Z</time><hdop>3.0</hdop><vdop>2.812</vdop><extensions><gom:speed>0.047</gom:speed></extensions></trkpt>
   <trkpt lat="59.3268302663" lon="34.7111438342"><ele>177.941</ele><time>2026-08-17T04:55:41.652Z</time><hdop>3.0</hdop><vdop>2.875</vdop><extensions><gom:speed>0.047</gom:speed></extensions></trkpt>
   <trkpt lat="59.3268301825" lon="34.7111437503"><ele>177.968</ele><time>2026-08-17T04:55:42.281Z</time><hdop>3.0</hdop><vdop>2.875</vdop><extensions><gom:speed>0.051</gom:speed></extensions></trkpt>
   <trkpt lat="59.3268299729" lon="34.7111441694"><ele>178.006</ele><time>2026-08-17T04:55:43.644Z</time><hdop>3.0</hdop><vdop>3.062</vdop><extensions><gom:speed>0.057</gom:speed></extensions></trkpt>
   <trkpt lat="59.3268298891" lon="34.71114484"><ele>178.032</ele><time>2026-08-17T04:55:44.644Z</time><hdop>3.0</hdop><vdop>3.0</vdop><extensions><gom:speed>0.06</gom:speed></extensions></trkpt>
   <trkpt lat="59.3268297634" lon="34.7111453429"><ele>178.052</ele><time>2026-08-17T04:55:45.643Z</time><hdop>3.0</hdop><vdop>2.937</vdop><extensions><gom:speed>0.063</gom:speed></extensions></trkpt>
   <trkpt lat="59.3268296796" lon="34.7111458458"><ele>178.08</ele><time>2026-08-17T04:55:46.644Z</time><hdop>3.0</hdop><vdop>2.937</vdop><extensions><gom:speed>0.067</gom:speed></extensions></trkpt>
   <trkpt lat="59.32682947" lon="34.7111463487"><ele>178.101</ele><time>2026-08-17T04:55:47.643Z</time><hdop>3.0</hdop><vdop>2.875</vdop><extensions><gom:speed>0.07</gom:speed></extensions></trkpt>
   <trkpt lat="59.3268293862" lon="34.7111468517"><ele>178.12</ele><time>2026-08-17T04:55:48.654Z</time><hdop>3.0</hdop><vdop>2.875</vdop><extensions><gom:speed>0.071</gom:speed></extensions></trkpt>
   <trkpt lat="59.3268292605" lon="34.7111469355"><ele>178.132</ele><time>2026-08-17T04:55:49.362Z</time><hdop>3.0</hdop><vdop>2.875</vdop><extensions><gom:speed>0.073</gom:speed></extensions></trkpt>
   <trkpt lat="59.3268289671" lon="34.7111479413"><ele>178.157</ele><time>2026-08-17T04:55:50.644Z</time><hdop>3.0</hdop><vdop>2.75</vdop><extensions><gom:speed>0.084</gom:speed></extensions></trkpt>
   <trkpt lat="59.3268288833" lon="34.7111484442"><ele>178.182</ele><time>2026-08-17T04:55:51.645Z</time><hdop>3.0</hdop><vdop>2.75</vdop><extensions><gom:speed>0.084</gom:speed></extensions></trkpt>
   <trkpt lat="59.3268286737" lon="34.7111488633"><ele>178.205</ele><time>2026-08-17T04:55:52.644Z</time><hdop>3.0</hdop><vdop>2.75</vdop><extensions><gom:speed>0.086</gom:speed></extensions></trkpt>
   <trkpt lat="59.3268285899" lon="34.7111493662"><ele>178.225</ele><time>2026-08-17T04:55:53.644Z</time><hdop>3.0</hdop><vdop>2.75</vdop><extensions><gom:speed>0.089</gom:speed></extensions></trkpt>
   <trkpt lat="59.3268283804" lon="34.7111497853"><ele>178.245</ele><time>2026-08-17T04:55:54.644Z</time><hdop>3.0</hdop><vdop>2.75</vdop><extensions><gom:speed>0.091</gom:speed></extensions></trkpt>
   <trkpt lat="59.3268281708" lon="34.7111505397"><ele>178.258</ele><time>2026-08-17T04:55:55.652Z</time><hdop>3.0</hdop><vdop>2.812</vdop><extensions><gom:speed>0.091</gom:speed></extensions></trkpt>
   <trkpt lat="59.326828087" lon="34.7111509588"><ele>178.28</ele><time>2026-08-17T04:55:56.646Z</time><hdop>3.0</hdop><vdop>2.812</vdop><extensions><gom:speed>0.093</gom:speed></extensions></trkpt>
   <trkpt lat="59.326828087" lon="34.7111512941"><ele>178.304</ele><time>2026-08-17T04:55:57.643Z</time><hdop>3.0</hdop><vdop>2.875</vdop><extensions><gom:speed>0.101</gom:speed></extensions></trkpt>
   <trkpt lat="59.3268279613" lon="34.711151797"><ele>178.334</ele><time>2026-08-17T04:55:58.644Z</time><hdop>3.0</hdop><vdop>2.937</vdop><extensions><gom:speed>0.1</gom:speed></extensions></trkpt>
   <trkpt lat="59.3268279613" lon="34.7111520484"><ele>178.369</ele><time>2026-08-17T04:55:59.644Z</time><hdop>3.0</hdop><vdop>3.0</vdop><extensions><gom:speed>0.101</gom:speed></extensions></trkpt>
   <trkpt lat="59.3268279613" lon="34.7111520484"><ele>178.39</ele><time>2026-08-17T04:56:00.491Z</time><hdop>3.0</hdop><vdop>3.0</vdop><extensions><gom:speed>0.102</gom:speed></extensions></trkpt>
   <trkpt lat="59.3268279613" lon="34.7111529704"><ele>178.436</ele><time>2026-08-17T04:56:01.644Z</time><hdop>3.062</hdop><vdop>3.187</vdop><extensions><gom:speed>0.104</gom:speed></extensions></trkpt>
   <trkpt lat="59.326828087" lon="34.7111531381"><ele>178.466</ele><time>2026-08-17T04:56:02.644Z</time><hdop>3.062</hdop><vdop>3.25</vdop><extensions><gom:speed>0.106</gom:speed></extensions></trkpt>
   <trkpt lat="59.326830392" lon="34.7111417387"><ele>178.498</ele><time>2026-08-17T04:56:03.644Z</time><hdop>4.25</hdop><vdop>3.25</vdop><extensions><gom:speed>0.0</gom:speed></extensions></trkpt>
   <trkpt lat="59.3268304759" lon="34.7111419901"><ele>178.523</ele><time>2026-08-17T04:56:04.644Z</time><hdop>5.375</hdop><vdop>3.312</vdop><extensions><gom:speed>0.0</gom:speed></extensions></trkpt>
   <trkpt lat="59.3268305597" lon="34.711142074"><ele>178.548</ele><time>2026-08-17T04:56:05.644Z</time><hdop>7.187</hdop><vdop>3.312</vdop><extensions><gom:speed>0.0</gom:speed></extensions></trkpt>
   <trkpt lat="59.3268306854" lon="34.7111423254"><ele>178.575</ele><time>2026-08-17T04:56:06.643Z</time><hdop>7.687</hdop><vdop>3.25</vdop><extensions><gom:speed>0.0</gom:speed></extensions></trkpt>
   <trkpt lat="59.3268308949" lon="34.7111424931"><ele>178.598</ele><time>2026-08-17T04:56:07.644Z</time><hdop>9.875</hdop><vdop>3.187</vdop><extensions><gom:speed>0.0</gom:speed></extensions></trkpt>
   <trkpt lat="59.3268309788" lon="34.7111425769"><ele>178.618</ele><time>2026-08-17T04:56:08.643Z</time><hdop>9.875</hdop><vdop>3.0</vdop><extensions><gom:speed>0.0</gom:speed></extensions></trkpt>
   <trkpt lat="59.3268309788" lon="34.7111424931"><ele>178.631</ele><time>2026-08-17T04:56:09.644Z</time><hdop>9.875</hdop><vdop>3.0</vdop><extensions><gom:speed>0.0</gom:speed></extensions></trkpt>
   <trkpt lat="59.3268297634" lon="34.711140649"><ele>178.802</ele><time>2026-08-17T04:56:10.643Z</time><hdop>9.875</hdop><vdop>2.875</vdop><extensions><gom:speed>0.169</gom:speed></extensions></trkpt>
   <trkpt lat="59.326830392" lon="34.7111392241"><ele>178.984</ele><time>2026-08-17T04:56:11.644Z</time><hdop>9.875</hdop><vdop>2.875</vdop><extensions><gom:speed>0.0</gom:speed></extensions></trkpt>
   <trkpt lat="59.326830392" lon="34.7111388888"><ele>179.106</ele><time>2026-08-17T04:56:12.644Z</time><hdop>9.875</hdop><vdop>2.812</vdop><extensions><gom:speed>0.0</gom:speed></extensions></trkpt>
   <trkpt lat="59.3268304759" lon="34.7111387212"><ele>179.179</ele><time>2026-08-17T04:56:13.643Z</time><hdop>9.875</hdop><vdop>2.75</vdop><extensions><gom:speed>0.0</gom:speed></extensions></trkpt>
   <trkpt lat="59.3268304759" lon="34.7111387212"><ele>179.217</ele><time>2026-08-17T04:56:14.644Z</time><hdop>9.875</hdop><vdop>2.687</vdop><extensions><gom:speed>0.0</gom:speed></extensions></trkpt>
   <trkpt lat="59.3268305597" lon="34.7111388888"><ele>179.236</ele><time>2026-08-17T04:56:15.643Z</time><hdop>9.875</hdop><vdop>2.5</vdop><extensions><gom:speed>0.0</gom:speed></extensions></trkpt>
   <trkpt lat="59.3268306854" lon="34.7111388888"><ele>179.245</ele><time>2026-08-17T04:56:16.644Z</time><hdop>9.875</hdop><vdop>2.5</vdop><extensions><gom:speed>0.0</gom:speed></extensions></trkpt>
   <trkpt lat="59.3268306854" lon="34.7111389727"><ele>179.248</ele><time>2026-08-17T04:56:17.643Z</time><hdop>9.875</hdop><vdop>2.5</vdop><extensions><gom:speed>0.0</gom:speed></extensions></trkpt>
   <trkpt lat="59.3268307692" lon="34.7111389727"><ele>179.248</ele><time>2026-08-17T04:56:18.645Z</time><hdop>9.875</hdop><vdop>2.5</vdop><extensions><gom:speed>0.0</gom:speed></extensions></trkpt>
   <trkpt lat="59.3268307692" lon="34.7111389727"><ele>179.247</ele><time>2026-08-17T04:56:19.644Z</time><hdop>9.875</hdop><vdop>2.5</vdop><extensions><gom:speed>0.0</gom:speed></extensions></trkpt>
   <trkpt lat="59.3268307692" lon="34.7111390565"><ele>179.243</ele><time>2026-08-17T04:56:20.644Z</time><hdop>9.875</hdop><vdop>2.5</vdop><extensions><gom:speed>0.0</gom:speed></extensions></trkpt>
   <trkpt lat="59.3268307692" lon="34.7111390565"><ele>179.239</ele><time>2026-08-17T04:56:21.644Z</time><hdop>9.875</hdop><vdop>2.5</vdop><extensions><gom:speed>0.0</gom:speed></extensions></trkpt>
   <trkpt lat="59.3268307692" lon="34.7111390565"><ele>179.236</ele><time>2026-08-17T04:56:22.644Z</time><hdop>9.875</hdop><vdop>2.5</vdop><extensions><gom:speed>0.0</gom:speed></extensions></trkpt>
   <trkpt lat="59.3268307692" lon="34.7111391403"><ele>179.233</ele><time>2026-08-17T04:56:23.644Z</time><hdop>9.875</hdop><vdop>2.5</vdop><extensions><gom:speed>0.0</gom:speed></extensions></trkpt>
   <trkpt lat="59.3268307692" lon="34.7111391403"><ele>179.23</ele><time>2026-08-17T04:56:24.644Z</time><hdop>9.875</hdop><vdop>2.5</vdop><extensions><gom:speed>0.0</gom:speed></extensions></trkpt>
   <trkpt lat="59.3268307692" lon="34.7111391403"><ele>179.226</ele><time>2026-08-17T04:56:25.644Z</time><hdop>9.875</hdop><vdop>2.5</vdop><extensions><gom:speed>0.0</gom:speed></extensions></trkpt>
   <trkpt lat="59.3268307692" lon="34.7111391403"><ele>179.222</ele><time>2026-08-17T04:56:26.644Z</time><hdop>9.875</hdop><vdop>2.5</vdop><extensions><gom:speed>0.0</gom:speed></extensions></trkpt>
   <trkpt lat="59.3268307692" lon="34.7111391403"><ele>179.219</ele><time>2026-08-17T04:56:27.643Z</time><hdop>9.875</hdop><vdop>2.5</vdop><extensions><gom:speed>0.0</gom:speed></extensions></trkpt>
   <trkpt lat="59.3268313979" lon="34.7111361228"><ele>179.397</ele><time>2026-08-17T04:56:28.644Z</time><hdop>9.875</hdop><vdop>2.5</vdop><extensions><gom:speed>0.0</gom:speed></extensions></trkpt>
   <trkpt lat="59.326832278" lon="34.7111347817"><ele>179.508</ele><time>2026-08-17T04:56:29.643Z</time><hdop>9.875</hdop><vdop>2.5</vdop><extensions><gom:speed>0.0</gom:speed></extensions></trkpt>
   <trkpt lat="59.3268325713" lon="34.7111344464"><ele>179.572</ele><time>2026-08-17T04:56:30.644Z</time><hdop>9.875</hdop><vdop>2.5</vdop><extensions><gom:speed>0.0</gom:speed></extensions></trkpt>
   <trkpt lat="59.3268325713" lon="34.7111343626"><ele>179.61</ele><time>2026-08-17T04:56:31.644Z</time><hdop>9.875</hdop><vdop>2.5</vdop><extensions><gom:speed>0.0</gom:speed></extensions></trkpt>
   <trkpt lat="59.3268325713" lon="34.7111343626"><ele>179.633</ele><time>2026-08-17T04:56:32.644Z</time><hdop>9.875</hdop><vdop>2.5</vdop><extensions><gom:speed>0.0</gom:speed></extensions></trkpt>
   <trkpt lat="59.3268325713" lon="34.7111342788"><ele>179.646</ele><time>2026-08-17T04:56:33.644Z</time><hdop>9.875</hdop><vdop>2.5</vdop><extensions><gom:speed>0.0</gom:speed></extensions></trkpt>
   <trkpt lat="59.3268325713" lon="34.7111342788"><ele>179.653</ele><time>2026-08-17T04:56:34.644Z</time><hdop>9.875</hdop><vdop>2.5</vdop><extensions><gom:speed>0.0</gom:speed></extensions></trkpt>
   <trkpt lat="59.3268326971" lon="34.7111343626"><ele>179.659</ele><time>2026-08-17T04:56:35.644Z</time><hdop>9.875</hdop><vdop>2.5</vdop><extensions><gom:speed>0.0</gom:speed></extensions></trkpt>
   <trkpt lat="59.3268326971" lon="34.7111343626"><ele>179.663</ele><time>2026-08-17T04:56:36.644Z</time><hdop>9.875</hdop><vdop>2.5</vdop><extensions><gom:speed>0.0</gom:speed></extensions></trkpt>
   <trkpt lat="59.3268327809" lon="34.7111343626"><ele>179.664</ele><time>2026-08-17T04:56:37.644Z</time><hdop>9.875</hdop><vdop>2.5</vdop><extensions><gom:speed>0.0</gom:speed></extensions></trkpt>
   <trkpt lat="59.3268327809" lon="34.7111343626"><ele>179.663</ele><time>2026-08-17T04:56:38.644Z</time><hdop>9.875</hdop><vdop>2.5</vdop><extensions><gom:speed>0.0</gom:speed></extensions></trkpt>
   <trkpt lat="59.3268327809" lon="34.7111343626"><ele>179.662</ele><time>2026-08-17T04:56:39.644Z</time><hdop>9.875</hdop><vdop>2.5</vdop><extensions><gom:speed>0.0</gom:speed></extensions></trkpt>
   <trkpt lat="59.3268327809" lon="34.7111344464"><ele>179.662</ele><time>2026-08-17T04:56:40.644Z</time><hdop>9.875</hdop><vdop>2.5</vdop><extensions><gom:speed>0.0</gom:speed></extensions></trkpt>
   <trkpt lat="59.3268327809" lon="34.7111345303"><ele>179.66</ele><time>2026-08-17T04:56:41.644Z</time><hdop>9.875</hdop><vdop>2.5</vdop><extensions><gom:speed>0.0</gom:speed></extensions></trkpt>
   <trkpt lat="59.3268327809" lon="34.7111346979"><ele>179.66</ele><time>2026-08-17T04:56:42.644Z</time><hdop>9.875</hdop><vdop>2.5</vdop><extensions><gom:speed>0.0</gom:speed></extensions></trkpt>
   <trkpt lat="59.3268327809" lon="34.7111346979"><ele>179.659</ele><time>2026-08-17T04:56:43.643Z</time><hdop>9.875</hdop><vdop>2.5</vdop><extensions><gom:speed>0.0</gom:speed></extensions></trkpt>
   <trkpt lat="59.3268328647" lon="34.7111347817"><ele>179.661</ele><time>2026-08-17T04:56:44.644Z</time><hdop>9.875</hdop><vdop>2.5</vdop><extensions><gom:speed>0.0</gom:speed></extensions></trkpt>
   <trkpt lat="59.3268328647" lon="34.7111348655"><ele>179.665</ele><time>2026-08-17T04:56:45.644Z</time><hdop>9.875</hdop><vdop>2.5</vdop><extensions><gom:speed>0.0</gom:speed></extensions></trkpt>
   <trkpt lat="59.3268328647" lon="34.7111350332"><ele>179.669</ele><time>2026-08-17T04:56:46.644Z</time><hdop>9.875</hdop><vdop>2.5</vdop><extensions><gom:speed>0.0</gom:speed></extensions></trkpt>
   <trkpt lat="59.3268329904" lon="34.7111352846"><ele>179.671</ele><time>2026-08-17T04:56:47.644Z</time><hdop>9.875</hdop><vdop>2.5</vdop><extensions><gom:speed>0.0</gom:speed></extensions></trkpt>
   <trkpt lat="59.3268329904" lon="34.7111353684"><ele>179.67</ele><time>2026-08-17T04:56:48.644Z</time><hdop>9.875</hdop><vdop>2.5</vdop><extensions><gom:speed>0.0</gom:speed></extensions></trkpt>
   <trkpt lat="59.3268329904" lon="34.7111355361"><ele>179.666</ele><time>2026-08-17T04:56:49.644Z</time><hdop>9.875</hdop><vdop>2.5</vdop><extensions><gom:speed>0.0</gom:speed></extensions></trkpt>
   <trkpt lat="59.3268329904" lon="34.7111356199"><ele>179.664</ele><time>2026-08-17T04:56:50.644Z</time><hdop>9.875</hdop><vdop>2.5</vdop><extensions><gom:speed>0.0</gom:speed></extensions></trkpt>
   <trkpt lat="59.3268329904" lon="34.7111358714"><ele>179.659</ele><time>2026-08-17T04:56:51.644Z</time><hdop>9.875</hdop><vdop>2.5</vdop><extensions><gom:speed>0.0</gom:speed></extensions></trkpt>
   <trkpt lat="59.3268329904" lon="34.711136039"><ele>179.656</ele><time>2026-08-17T04:56:52.643Z</time><hdop>9.875</hdop><vdop>2.5</vdop><extensions><gom:speed>0.0</gom:speed></extensions></trkpt>
   <trkpt lat="59.3268329904" lon="34.7111362905"><ele>179.652</ele><time>2026-08-17T04:56:53.644Z</time><hdop>9.875</hdop><vdop>2.5</vdop><extensions><gom:speed>0.0</gom:speed></extensions></trkpt>
   <trkpt lat="59.3268329904" lon="34.7111363743"><ele>179.647</ele><time>2026-08-17T04:56:54.644Z</time><hdop>9.875</hdop><vdop>2.5</vdop><extensions><gom:speed>0.0</gom:speed></extensions></trkpt>
   <trkpt lat="59.3268329904" lon="34.7111364581"><ele>179.643</ele><time>2026-08-17T04:56:55.643Z</time><hdop>9.875</hdop><vdop>2.5</vdop><extensions><gom:speed>0.0</gom:speed></extensions></trkpt>
   <trkpt lat="59.3268329904" lon="34.7111365419"><ele>179.639</ele><time>2026-08-17T04:56:56.645Z</time><hdop>9.875</hdop><vdop>2.5</vdop><extensions><gom:speed>0.0</gom:speed></extensions></trkpt>
   <trkpt lat="59.3268329904" lon="34.7111366257"><ele>179.637</ele><time>2026-08-17T04:56:57.643Z</time><hdop>9.875</hdop><vdop>2.5</vdop><extensions><gom:speed>0.0</gom:speed></extensions></trkpt>
   <trkpt lat="59.3268329904" lon="34.7111367934"><ele>179.635</ele><time>2026-08-17T04:56:58.644Z</time><hdop>9.875</hdop><vdop>2.5</vdop><extensions><gom:speed>0.0</gom:speed></extensions></trkpt>
   <trkpt lat="59.3268329904" lon="34.7111367934"><ele>179.634</ele><time>2026-08-17T04:56:59.643Z</time><hdop>9.875</hdop><vdop>2.5</vdop><extensions><gom:speed>0.0</gom:speed></extensions></trkpt>
   <trkpt lat="59.3268329904" lon="34.7111368772"><ele>179.635</ele><time>2026-08-17T04:57:00.644Z</time><hdop>9.875</hdop><vdop>2.5</vdop><extensions><gom:speed>0.0</gom:speed></extensions></trkpt>
   <trkpt lat="59.3268330742" lon="34.711136961"><ele>179.635</ele><time>2026-08-17T04:57:01.645Z</time><hdop>9.875</hdop><vdop>2.5</vdop><extensions><gom:speed>0.0</gom:speed></extensions></trkpt>
   <trkpt lat="59.3268330742" lon="34.7111371286"><ele>179.634</ele><time>2026-08-17T04:57:02.644Z</time><hdop>9.875</hdop><vdop>2.5</vdop><extensions><gom:speed>0.0</gom:speed></extensions></trkpt>
   <trkpt lat="59.3268330742" lon="34.7111371286"><ele>179.634</ele><time>2026-08-17T04:57:03.644Z</time><hdop>9.875</hdop><vdop>2.5</vdop><extensions><gom:speed>0.0</gom:speed></extensions></trkpt>
   <trkpt lat="59.3268330742" lon="34.7111371286"><ele>179.634</ele><time>2026-08-17T04:57:04.643Z</time><hdop>9.875</hdop><vdop>2.5</vdop><extensions><gom:speed>0.0</gom:speed></extensions></trkpt>
   <trkpt lat="59.3268330742" lon="34.7111370448"><ele>179.634</ele><time>2026-08-17T04:57:05.644Z</time><hdop>9.875</hdop><vdop>2.5</vdop><extensions><gom:speed>0.0</gom:speed></extensions></trkpt>
   <trkpt lat="59.3268330742" lon="34.7111370448"><ele>179.636</ele><time>2026-08-17T04:57:06.644Z</time><hdop>9.875</hdop><vdop>2.5</vdop><extensions><gom:speed>0.0</gom:speed></extensions></trkpt>
   <trkpt lat="59.3268331581" lon="34.7111370448"><ele>179.64</ele><time>2026-08-17T04:57:07.644Z</time><hdop>9.875</hdop><vdop>2.5</vdop><extensions><gom:speed>0.0</gom:speed></extensions></trkpt>
   <trkpt lat="59.3268331581" lon="34.7111389727"><ele>179.796</ele><time>2026-08-17T04:57:08.644Z</time><hdop>9.875</hdop><vdop>2.5</vdop><extensions><gom:speed>0.299</gom:speed></extensions></trkpt>
   <trkpt lat="59.3268331581" lon="34.7111374639"><ele>179.904</ele><time>2026-08-17T04:57:09.644Z</time><hdop>9.875</hdop><vdop>2.5</vdop><extensions><gom:speed>0.0</gom:speed></extensions></trkpt>
   <trkpt lat="59.3268331581" lon="34.7111368772"><ele>179.97</ele><time>2026-08-17T04:57:10.643Z</time><hdop>9.875</hdop><vdop>2.5</vdop><extensions><gom:speed>0.0</gom:speed></extensions></trkpt>
   <trkpt lat="59.3268331581" lon="34.7111367934"><ele>180.008</ele><time>2026-08-17T04:57:11.643Z</time><hdop>9.875</hdop><vdop>2.5</vdop><extensions><gom:speed>0.0</gom:speed></extensions></trkpt>
   <trkpt lat="59.3268331581" lon="34.7111366257"><ele>180.031</ele><time>2026-08-17T04:57:12.644Z</time><hdop>9.875</hdop><vdop>2.5</vdop><extensions><gom:speed>0.0</gom:speed></extensions></trkpt>
   <trkpt lat="59.3268331581" lon="34.7111365419"><ele>180.046</ele><time>2026-08-17T04:57:13.643Z</time><hdop>9.875</hdop><vdop>2.5</vdop><extensions><gom:speed>0.0</gom:speed></extensions></trkpt>
   <trkpt lat="59.3268332838" lon="34.7111365419"><ele>180.056</ele><time>2026-08-17T04:57:14.645Z</time><hdop>9.875</hdop><vdop>2.5</vdop><extensions><gom:speed>0.0</gom:speed></extensions></trkpt>
   <trkpt lat="59.3268331581" lon="34.7111364581"><ele>180.061</ele><time>2026-08-17T04:57:15.644Z</time><hdop>9.875</hdop><vdop>2.5</vdop><extensions><gom:speed>0.0</gom:speed></extensions></trkpt>
   <trkpt lat="59.3268332838" lon="34.7111365419"><ele>180.067</ele><time>2026-08-17T04:57:16.644Z</time><hdop>9.875</hdop><vdop>2.5</vdop><extensions><gom:speed>0.0</gom:speed></extensions></trkpt>
   <trkpt lat="59.3268333676" lon="34.7111367934"><ele>180.081</ele><time>2026-08-17T04:57:17.644Z</time><hdop>9.875</hdop><vdop>2.5</vdop><extensions><gom:speed>0.0</gom:speed></extensions></trkpt>
   <trkpt lat="59.3268334933" lon="34.711136961"><ele>180.094</ele><time>2026-08-17T04:57:18.643Z</time><hdop>9.875</hdop><vdop>2.5</vdop><extensions><gom:speed>0.0</gom:speed></extensions></trkpt>
   <trkpt lat="59.3268334933" lon="34.7111370448"><ele>180.102</ele><time>2026-08-17T04:57:19.644Z</time><hdop>9.875</hdop><vdop>2.5</vdop><extensions><gom:speed>0.0</gom:speed></extensions></trkpt>
   <trkpt lat="59.3268334933" lon="34.7111371286"><ele>180.106</ele><time>2026-08-17T04:57:20.644Z</time><hdop>9.875</hdop><vdop>2.5</vdop><extensions><gom:speed>0.0</gom:speed></extensions></trkpt>
   <trkpt lat="59.3268335772" lon="34.7111370448"><ele>180.109</ele><time>2026-08-17T04:57:21.643Z</time><hdop>9.875</hdop><vdop>2.5</vdop><extensions><gom:speed>0.0</gom:speed></extensions></trkpt>
   <trkpt lat="59.3268335772" lon="34.711136961"><ele>180.112</ele><time>2026-08-17T04:57:22.644Z</time><hdop>9.875</hdop><vdop>2.5</vdop><extensions><gom:speed>0.0</gom:speed></extensions></trkpt>
   <trkpt lat="59.3268335772" lon="34.711136961"><ele>180.111</ele><time>2026-08-17T04:57:23.644Z</time><hdop>9.875</hdop><vdop>2.5</vdop><extensions><gom:speed>0.0</gom:speed></extensions></trkpt>
   <trkpt lat="59.3268335772" lon="34.7111368772"><ele>180.106</ele><time>2026-08-17T04:57:24.643Z</time><hdop>9.875</hdop><vdop>2.5</vdop><extensions><gom:speed>0.0</gom:speed></extensions></trkpt>
   <trkpt lat="59.3268335772" lon="34.7111368772"><ele>180.099</ele><time>2026-08-17T04:57:25.644Z</time><hdop>9.875</hdop><vdop>2.5</vdop><extensions><gom:speed>0.0</gom:speed></extensions></trkpt>
   <trkpt lat="59.3268335772" lon="34.7111368772"><ele>180.092</ele><time>2026-08-17T04:57:26.644Z</time><hdop>9.875</hdop><vdop>2.5</vdop><extensions><gom:speed>0.0</gom:speed></extensions></trkpt>
   <trkpt lat="59.3268335772" lon="34.7111367934"><ele>180.085</ele><time>2026-08-17T04:57:27.644Z</time><hdop>9.875</hdop><vdop>2.5</vdop><extensions><gom:speed>0.0</gom:speed></extensions></trkpt>
   <trkpt lat="59.3268335772" lon="34.7111366257"><ele>180.075</ele><time>2026-08-17T04:57:28.644Z</time><hdop>9.875</hdop><vdop>2.5</vdop><extensions><gom:speed>0.0</gom:speed></extensions></trkpt>
   <trkpt lat="59.3268335772" lon="34.7111366257"><ele>180.067</ele><time>2026-08-17T04:57:29.644Z</time><hdop>9.875</hdop><vdop>2.5</vdop><extensions><gom:speed>0.0</gom:speed></extensions></trkpt>
   <trkpt lat="59.3268335772" lon="34.7111365419"><ele>180.061</ele><time>2026-08-17T04:57:30.644Z</time><hdop>9.875</hdop><vdop>2.5</vdop><extensions><gom:speed>0.0</gom:speed></extensions></trkpt>
   <trkpt lat="59.326833661" lon="34.7111364581"><ele>180.058</ele><time>2026-08-17T04:57:31.644Z</time><hdop>9.875</hdop><vdop>2.5</vdop><extensions><gom:speed>0.0</gom:speed></extensions></trkpt>
   <trkpt lat="59.326833661" lon="34.7111364581"><ele>180.054</ele><time>2026-08-17T04:57:32.644Z</time><hdop>9.875</hdop><vdop>2.5</vdop><extensions><gom:speed>0.0</gom:speed></extensions></trkpt>
   <trkpt lat="59.3268331581" lon="34.7111385536"><ele>179.899</ele><time>2026-08-17T04:57:33.644Z</time><hdop>9.875</hdop><vdop>2.5</vdop><extensions><gom:speed>0.0</gom:speed></extensions></trkpt>
   <trkpt lat="59.3268325713" lon="34.7111403976"><ele>179.767</ele><time>2026-08-17T04:57:34.644Z</time><hdop>9.875</hdop><vdop>2.5</vdop><extensions><gom:speed>0.0</gom:speed></extensions></trkpt>
   <trkpt lat="59.3268324875" lon="34.7111408167"><ele>179.691</ele><time>2026-08-17T04:57:35.643Z</time><hdop>9.875</hdop><vdop>2.5</vdop><extensions><gom:speed>0.0</gom:speed></extensions></trkpt>
   <trkpt lat="59.3268325713" lon="34.7111409843"><ele>179.645</ele><time>2026-08-17T04:57:36.644Z</time><hdop>9.875</hdop><vdop>2.5</vdop><extensions><gom:speed>0.0</gom:speed></extensions></trkpt>
   <trkpt lat="59.3268325713" lon="34.7111409843"><ele>179.625</ele><time>2026-08-17T04:57:37.643Z</time><hdop>9.875</hdop><vdop>2.5</vdop><extensions><gom:speed>0.0</gom:speed></extensions></trkpt>
   <trkpt lat="59.3268327809" lon="34.7111409843"><ele>179.623</ele><time>2026-08-17T04:57:38.644Z</time><hdop>9.875</hdop><vdop>2.5</vdop><extensions><gom:speed>0.0</gom:speed></extensions></trkpt>
   <trkpt lat="59.3268327809" lon="34.7111409843"><ele>179.621</ele><time>2026-08-17T04:57:39.644Z</time><hdop>9.875</hdop><vdop>2.5</vdop><extensions><gom:speed>0.0</gom:speed></extensions></trkpt>
   <trkpt lat="59.3268327809" lon="34.7111409843"><ele>179.616</ele><time>2026-08-17T04:57:40.644Z</time><hdop>9.875</hdop><vdop>2.5</vdop><extensions><gom:speed>0.0</gom:speed></extensions></trkpt>
   <trkpt lat="59.3268327809" lon="34.7111409843"><ele>179.614</ele><time>2026-08-17T04:57:41.644Z</time><hdop>9.875</hdop><vdop>2.5</vdop><extensions><gom:speed>0.0</gom:speed></extensions></trkpt>
   <trkpt lat="59.3268327809" lon="34.7111409843"><ele>179.611</ele><time>2026-08-17T04:57:42.644Z</time><hdop>9.875</hdop><vdop>2.5</vdop><extensions><gom:speed>0.0</gom:speed></extensions></trkpt>
   <trkpt lat="59.3268328647" lon="34.7111407329"><ele>179.608</ele><time>2026-08-17T04:57:43.644Z</time><hdop>9.875</hdop><vdop>2.5</vdop><extensions><gom:speed>0.0</gom:speed></extensions></trkpt>
   <trkpt lat="59.3268328647" lon="34.7111407329"><ele>179.606</ele><time>2026-08-17T04:57:44.644Z</time><hdop>9.875</hdop><vdop>2.5</vdop><extensions><gom:speed>0.0</gom:speed></extensions></trkpt>
   <trkpt lat="59.3268328647" lon="34.7111407329"><ele>179.605</ele><time>2026-08-17T04:57:45.644Z</time><hdop>9.875</hdop><vdop>2.5</vdop><extensions><gom:speed>0.0</gom:speed></extensions></trkpt>
   <trkpt lat="59.3268328647" lon="34.711140649"><ele>179.602</ele><time>2026-08-17T04:57:46.644Z</time><hdop>9.875</hdop><vdop>2.5</vdop><extensions><gom:speed>0.0</gom:speed></extensions></trkpt>
   <trkpt lat="59.3268328647" lon="34.711140649"><ele>179.6</ele><time>2026-08-17T04:57:47.644Z</time><hdop>9.875</hdop><vdop>2.5</vdop><extensions><gom:speed>0.0</gom:speed></extensions></trkpt>
   <trkpt lat="59.3268329904" lon="34.711140649"><ele>179.599</ele><time>2026-08-17T04:57:48.644Z</time><hdop>9.875</hdop><vdop>2.5</vdop><extensions><gom:speed>0.0</gom:speed></extensions></trkpt>
   <trkpt lat="59.3268329904" lon="34.7111407329"><ele>179.597</ele><time>2026-08-17T04:57:49.645Z</time><hdop>9.875</hdop><vdop>2.5</vdop><extensions><gom:speed>0.0</gom:speed></extensions></trkpt>
   <trkpt lat="59.3268329904" lon="34.7111408167"><ele>179.598</ele><time>2026-08-17T04:57:50.644Z</time><hdop>9.875</hdop><vdop>2.5</vdop><extensions><gom:speed>0.0</gom:speed></extensions></trkpt>
   <trkpt lat="59.3268329904" lon="34.7111409843"><ele>179.604</ele><time>2026-08-17T04:57:51.644Z</time><hdop>9.875</hdop><vdop>2.5</vdop><extensions><gom:speed>0.0</gom:speed></extensions></trkpt>
   <trkpt lat="59.3268329904" lon="34.711141152"><ele>179.61</ele><time>2026-08-17T04:57:52.644Z</time><hdop>9.875</hdop><vdop>2.5</vdop><extensions><gom:speed>0.0</gom:speed></extensions></trkpt>
   <trkpt lat="59.3268329904" lon="34.7111413196"><ele>179.613</ele><time>2026-08-17T04:57:53.644Z</time><hdop>9.875</hdop><vdop>2.5</vdop><extensions><gom:speed>0.0</gom:speed></extensions></trkpt>
   <trkpt lat="59.3268329904" lon="34.7111414872"><ele>179.615</ele><time>2026-08-17T04:57:54.644Z</time><hdop>9.875</hdop><vdop>2.5</vdop><extensions><gom:speed>0.0</gom:speed></extensions></trkpt>
   <trkpt lat="59.3268329904" lon="34.7111415711"><ele>179.618</ele><time>2026-08-17T04:57:55.645Z</time><hdop>9.875</hdop><vdop>2.5</vdop><extensions><gom:speed>0.0</gom:speed></extensions></trkpt>
   <trkpt lat="59.3268329904" lon="34.7111417387"><ele>179.62</ele><time>2026-08-17T04:57:56.644Z</time><hdop>9.875</hdop><vdop>2.5</vdop><extensions><gom:speed>0.0</gom:speed></extensions></trkpt>
   <trkpt lat="59.3268329904" lon="34.7111418225"><ele>179.621</ele><time>2026-08-17T04:57:57.643Z</time><hdop>9.875</hdop><vdop>2.5</vdop><extensions><gom:speed>0.0</gom:speed></extensions></trkpt>
   <trkpt lat="59.3268329904" lon="34.711142074"><ele>179.625</ele><time>2026-08-17T04:57:58.644Z</time><hdop>9.875</hdop><vdop>2.5</vdop><extensions><gom:speed>0.0</gom:speed></extensions></trkpt>
   <trkpt lat="59.3268330742" lon="34.711142074"><ele>179.627</ele><time>2026-08-17T04:57:59.644Z</time><hdop>9.875</hdop><vdop>2.5</vdop><extensions><gom:speed>0.0</gom:speed></extensions></trkpt>
   <trkpt lat="59.3268330742" lon="34.7111421578"><ele>179.627</ele><time>2026-08-17T04:58:00.644Z</time><hdop>9.875</hdop><vdop>2.5</vdop><extensions><gom:speed>0.0</gom:speed></extensions></trkpt>
   <trkpt lat="59.3268331581" lon="34.7111421578"><ele>179.627</ele><time>2026-08-17T04:58:01.644Z</time><hdop>9.875</hdop><vdop>2.5</vdop><extensions><gom:speed>0.0</gom:speed></extensions></trkpt>
   <trkpt lat="59.3268331581" lon="34.711142074"><ele>179.623</ele><time>2026-08-17T04:58:02.644Z</time><hdop>9.875</hdop><vdop>2.5</vdop><extensions><gom:speed>0.0</gom:speed></extensions></trkpt>
   <trkpt lat="59.3268331581" lon="34.7111419901"><ele>179.621</ele><time>2026-08-17T04:58:03.644Z</time><hdop>9.875</hdop><vdop>2.5</vdop><extensions><gom:speed>0.0</gom:speed></extensions></trkpt>
   <trkpt lat="59.3268331581" lon="34.7111419901"><ele>179.619</ele><time>2026-08-17T04:58:04.644Z</time><hdop>9.875</hdop><vdop>2.5</vdop><extensions><gom:speed>0.0</gom:speed></extensions></trkpt>
   <trkpt lat="59.3268331581" lon="34.7111419901"><ele>179.617</ele><time>2026-08-17T04:58:05.644Z</time><hdop>9.875</hdop><vdop>2.5</vdop><extensions><gom:speed>0.0</gom:speed></extensions></trkpt>
   <trkpt lat="59.3268331581" lon="34.711142074"><ele>179.616</ele><time>2026-08-17T04:58:06.644Z</time><hdop>9.875</hdop><vdop>2.5</vdop><extensions><gom:speed>0.0</gom:speed></extensions></trkpt>
   <trkpt lat="59.3268332838" lon="34.7111421578"><ele>179.618</ele><time>2026-08-17T04:58:07.644Z</time><hdop>9.875</hdop><vdop>2.5</vdop><extensions><gom:speed>0.0</gom:speed></extensions></trkpt>
   <trkpt lat="59.3268332838" lon="34.7111421578"><ele>179.616</ele><time>2026-08-17T04:58:08.644Z</time><hdop>9.875</hdop><vdop>2.5</vdop><extensions><gom:speed>0.0</gom:speed></extensions></trkpt>
   <trkpt lat="59.3268333676" lon="34.7111421578"><ele>179.617</ele><time>2026-08-17T04:58:09.644Z</time><hdop>9.875</hdop><vdop>2.5</vdop><extensions><gom:speed>0.0</gom:speed></extensions></trkpt>
   <trkpt lat="59.3268334933" lon="34.7111422416"><ele>179.621</ele><time>2026-08-17T04:58:10.644Z</time><hdop>9.875</hdop><vdop>2.5</vdop><extensions><gom:speed>0.0</gom:speed></extensions></trkpt>
   <trkpt lat="59.3268334933" lon="34.7111421578"><ele>179.622</ele><time>2026-08-17T04:58:11.644Z</time><hdop>9.875</hdop><vdop>2.5</vdop><extensions><gom:speed>0.0</gom:speed></extensions></trkpt>
   <trkpt lat="59.3268335772" lon="34.7111421578"><ele>179.625</ele><time>2026-08-17T04:58:12.644Z</time><hdop>9.875</hdop><vdop>2.5</vdop><extensions><gom:speed>0.0</gom:speed></extensions></trkpt>
   <trkpt lat="59.3268335772" lon="34.711142074"><ele>179.627</ele><time>2026-08-17T04:58:13.644Z</time><hdop>9.875</hdop><vdop>2.5</vdop><extensions><gom:speed>0.0</gom:speed></extensions></trkpt>
   <trkpt lat="59.326833661" lon="34.711142074"><ele>179.63</ele><time>2026-08-17T04:58:14.644Z</time><hdop>9.875</hdop><vdop>2.5</vdop><extensions><gom:speed>0.0</gom:speed></extensions></trkpt>
   <trkpt lat="59.3268337867" lon="34.7111421578"><ele>179.635</ele><time>2026-08-17T04:58:15.644Z</time><hdop>9.875</hdop><vdop>2.5</vdop><extensions><gom:speed>0.0</gom:speed></extensions></trkpt>
   <trkpt lat="59.3268338705" lon="34.7111421578"><ele>179.639</ele><time>2026-08-17T04:58:16.643Z</time><hdop>9.875</hdop><vdop>2.5</vdop><extensions><gom:speed>0.0</gom:speed></extensions></trkpt>
   <trkpt lat="59.3268338705" lon="34.7111421578"><ele>179.642</ele><time>2026-08-17T04:58:17.644Z</time><hdop>9.875</hdop><vdop>2.5</vdop><extensions><gom:speed>0.0</gom:speed></extensions></trkpt>
   <trkpt lat="59.3268339962" lon="34.711142074"><ele>179.647</ele><time>2026-08-17T04:58:18.644Z</time><hdop>9.875</hdop><vdop>2.5</vdop><extensions><gom:speed>0.0</gom:speed></extensions></trkpt>
   <trkpt lat="59.3268339962" lon="34.711142074"><ele>179.653</ele><time>2026-08-17T04:58:19.644Z</time><hdop>9.875</hdop><vdop>2.5</vdop><extensions><gom:speed>0.0</gom:speed></extensions></trkpt>
   <trkpt lat="59.3268339962" lon="34.711142074"><ele>179.657</ele><time>2026-08-17T04:58:20.644Z</time><hdop>9.875</hdop><vdop>2.5</vdop><extensions><gom:speed>0.0</gom:speed></extensions></trkpt>
   <trkpt lat="59.3268339962" lon="34.7111419901"><ele>179.662</ele><time>2026-08-17T04:58:21.644Z</time><hdop>9.875</hdop><vdop>2.5</vdop><extensions><gom:speed>0.0</gom:speed></extensions></trkpt>
   <trkpt lat="59.3268339962" lon="34.7111419901"><ele>179.667</ele><time>2026-08-17T04:58:22.644Z</time><hdop>9.875</hdop><vdop>2.5</vdop><extensions><gom:speed>0.0</gom:speed></extensions></trkpt>
   <trkpt lat="59.3268340801" lon="34.7111418225"><ele>179.672</ele><time>2026-08-17T04:58:23.644Z</time><hdop>9.875</hdop><vdop>2.5</vdop><extensions><gom:speed>0.0</gom:speed></extensions></trkpt>
   <trkpt lat="59.3268340801" lon="34.7111417387"><ele>179.679</ele><time>2026-08-17T04:58:24.643Z</time><hdop>9.875</hdop><vdop>2.5</vdop><extensions><gom:speed>0.0</gom:speed></extensions></trkpt>
   <trkpt lat="59.3268340801" lon="34.7111416549"><ele>179.685</ele><time>2026-08-17T04:58:25.644Z</time><hdop>9.875</hdop><vdop>2.5</vdop><extensions><gom:speed>0.0</gom:speed></extensions></trkpt>
   <trkpt lat="59.3268341639" lon="34.7111415711"><ele>179.688</ele><time>2026-08-17T04:58:26.644Z</time><hdop>9.875</hdop><vdop>2.5</vdop><extensions><gom:speed>0.0</gom:speed></extensions></trkpt>
   <trkpt lat="59.3268341639" lon="34.7111416549"><ele>179.691</ele><time>2026-08-17T04:58:27.644Z</time><hdop>9.875</hdop><vdop>2.5</vdop><extensions><gom:speed>0.0</gom:speed></extensions></trkpt>
   <trkpt lat="59.3268341639" lon="34.7111415711"><ele>179.692</ele><time>2026-08-17T04:58:28.643Z</time><hdop>9.875</hdop><vdop>2.5</vdop><extensions><gom:speed>0.0</gom:speed></extensions></trkpt>
   <trkpt lat="59.3268341639" lon="34.7111414872"><ele>179.691</ele><time>2026-08-17T04:58:29.643Z</time><hdop>9.875</hdop><vdop>2.5</vdop><extensions><gom:speed>0.0</gom:speed></extensions></trkpt>
   <trkpt lat="59.3268341639" lon="34.7111414872"><ele>179.691</ele><time>2026-08-17T04:58:30.644Z</time><hdop>9.875</hdop><vdop>2.5</vdop><extensions><gom:speed>0.0</gom:speed></extensions></trkpt>
   <trkpt lat="59.3268341639" lon="34.7111415711"><ele>179.699</ele><time>2026-08-17T04:58:31.644Z</time><hdop>9.875</hdop><vdop>2.5</vdop><extensions><gom:speed>0.0</gom:speed></extensions></trkpt>
   <trkpt lat="59.3268341639" lon="34.7111417387"><ele>179.708</ele><time>2026-08-17T04:58:32.644Z</time><hdop>9.875</hdop><vdop>2.5</vdop><extensions><gom:speed>0.0</gom:speed></extensions></trkpt>
   <trkpt lat="59.3268341639" lon="34.7111418225"><ele>179.717</ele><time>2026-08-17T04:58:33.644Z</time><hdop>9.875</hdop><vdop>2.5</vdop><extensions><gom:speed>0.0</gom:speed></extensions></trkpt>
   <trkpt lat="59.3268341639" lon="34.7111418225"><ele>179.724</ele><time>2026-08-17T04:58:34.643Z</time><hdop>9.875</hdop><vdop>2.5</vdop><extensions><gom:speed>0.0</gom:speed></extensions></trkpt>
   <trkpt lat="59.3268342896" lon="34.7111418225"><ele>179.726</ele><time>2026-08-17T04:58:35.644Z</time><hdop>9.875</hdop><vdop>2.5</vdop><extensions><gom:speed>0.0</gom:speed></extensions></trkpt>
   <trkpt lat="59.3268343734" lon="34.7111417387"><ele>179.73</ele><time>2026-08-17T04:58:36.644Z</time><hdop>9.875</hdop><vdop>2.5</vdop><extensions><gom:speed>0.0</gom:speed></extensions></trkpt>
   <trkpt lat="59.3268343734" lon="34.7111417387"><ele>179.733</ele><time>2026-08-17T04:58:37.644Z</time><hdop>9.875</hdop><vdop>2.5</vdop><extensions><gom:speed>0.0</gom:speed></extensions></trkpt>
   <trkpt lat="59.3268343734" lon="34.7111418225"><ele>179.739</ele><time>2026-08-17T04:58:38.644Z</time><hdop>9.875</hdop><vdop>2.5</vdop><extensions><gom:speed>0.0</gom:speed></extensions></trkpt>
   <trkpt lat="59.3268360917" lon="34.7111431636"><ele>179.682</ele><time>2026-08-17T04:58:39.644Z</time><hdop>9.875</hdop><vdop>2.5</vdop><extensions><gom:speed>0.0</gom:speed></extensions></trkpt>
   <trkpt lat="59.3268413723" lon="34.7111461811"><ele>179.681</ele><time>2026-08-17T04:58:40.644Z</time><hdop>9.875</hdop><vdop>2.5</vdop><extensions><gom:speed>0.329</gom:speed></extensions></trkpt>
   <trkpt lat="59.3268482874" lon="34.7111497853"><ele>179.965</ele><time>2026-08-17T04:58:41.644Z</time><hdop>9.875</hdop><vdop>2.5</vdop><extensions><gom:speed>0.379</gom:speed></extensions></trkpt>
   <trkpt lat="59.3268555797" lon="34.7111468517"><ele>180.047</ele><time>2026-08-17T04:58:42.644Z</time><hdop>9.875</hdop><vdop>2.5</vdop><extensions><gom:speed>0.189</gom:speed></extensions></trkpt>
   <trkpt lat="59.3268668952" lon="34.7111560717"><ele>180.049</ele><time>2026-08-17T04:58:43.644Z</time><hdop>9.875</hdop><vdop>2.5</vdop><extensions><gom:speed>0.879</gom:speed></extensions></trkpt>
   <trkpt lat="59.3268786718" lon="34.711162442"><ele>180.465</ele><time>2026-08-17T04:58:44.644Z</time><hdop>9.875</hdop><vdop>2.5</vdop><extensions><gom:speed>0.809</gom:speed></extensions></trkpt>
   <trkpt lat="59.326888772" lon="34.7111665491"><ele>180.746</ele><time>2026-08-17T04:58:45.644Z</time><hdop>9.875</hdop><vdop>2.5</vdop><extensions><gom:speed>0.699</gom:speed></extensions></trkpt>
   <trkpt lat="59.3268939688" lon="34.7111726679"><ele>180.678</ele><time>2026-08-17T04:58:46.644Z</time><hdop>9.875</hdop><vdop>2.5</vdop><extensions><gom:speed>0.359</gom:speed></extensions></trkpt>
   <trkpt lat="59.3268972796" lon="34.711172165"><ele>180.664</ele><time>2026-08-17T04:58:47.644Z</time><hdop>9.875</hdop><vdop>2.5</vdop><extensions><gom:speed>0.0</gom:speed></extensions></trkpt>
   <trkpt lat="59.3268973634" lon="34.7111828938"><ele>180.414</ele><time>2026-08-17T04:58:48.644Z</time><hdop>9.875</hdop><vdop>2.5</vdop><extensions><gom:speed>0.349</gom:speed></extensions></trkpt>
   <trkpt lat="59.3268993751" lon="34.7111847379"><ele>180.174</ele><time>2026-08-17T04:58:49.645Z</time><hdop>9.875</hdop><vdop>2.5</vdop><extensions><gom:speed>0.179</gom:speed></extensions></trkpt>
   <trkpt lat="59.3269004647" lon="34.711184654"><ele>180.044</ele><time>2026-08-17T04:58:50.644Z</time><hdop>9.875</hdop><vdop>2.5</vdop><extensions><gom:speed>0.0</gom:speed></extensions></trkpt>
   <trkpt lat="59.3269008838" lon="34.7111845702"><ele>179.969</ele><time>2026-08-17T04:58:51.644Z</time><hdop>9.875</hdop><vdop>2.5</vdop><extensions><gom:speed>0.0</gom:speed></extensions></trkpt>
   <trkpt lat="59.3269004647" lon="34.711187923"><ele>179.888</ele><time>2026-08-17T04:58:52.643Z</time><hdop>9.875</hdop><vdop>2.5</vdop><extensions><gom:speed>0.0</gom:speed></extensions></trkpt>
   <trkpt lat="59.326899878" lon="34.7111941256"><ele>179.422</ele><time>2026-08-17T04:58:53.645Z</time><hdop>9.875</hdop><vdop>2.5</vdop><extensions><gom:speed>0.0</gom:speed></extensions></trkpt>
   <trkpt lat="59.3268980759" lon="34.7111997415"><ele>178.998</ele><time>2026-08-17T04:58:54.644Z</time><hdop>9.875</hdop><vdop>2.5</vdop><extensions><gom:speed>0.149</gom:speed></extensions></trkpt>
   <trkpt lat="59.3268969863" lon="34.7112017531"><ele>178.747</ele><time>2026-08-17T04:58:55.644Z</time><hdop>9.875</hdop><vdop>2.5</vdop><extensions><gom:speed>0.0</gom:speed></extensions></trkpt>
   <trkpt lat="59.3268966929" lon="34.7112078719"><ele>178.524</ele><time>2026-08-17T04:58:56.644Z</time><hdop>9.875</hdop><vdop>2.5</vdop><extensions><gom:speed>0.0</gom:speed></extensions></trkpt>
   <trkpt lat="59.3269030631" lon="34.7112173435"><ele>178.338</ele><time>2026-08-17T04:58:57.644Z</time><hdop>9.875</hdop><vdop>2.5</vdop><extensions><gom:speed>0.869</gom:speed></extensions></trkpt>
   <trkpt lat="59.3269070864" lon="34.7112237975"><ele>177.957</ele><time>2026-08-17T04:58:58.644Z</time><hdop>9.875</hdop><vdop>2.5</vdop><extensions><gom:speed>0.419</gom:speed></extensions></trkpt>
   <trkpt lat="59.326906374" lon="34.7112280723"><ele>177.738</ele><time>2026-08-17T04:58:59.644Z</time><hdop>9.875</hdop><vdop>2.5</vdop><extensions><gom:speed>0.0</gom:speed></extensions></trkpt>
   <trkpt lat="59.3269060806" lon="34.7112292458"><ele>177.611</ele><time>2026-08-17T04:59:00.643Z</time><hdop>9.875</hdop><vdop>2.5</vdop><extensions><gom:speed>0.0</gom:speed></extensions></trkpt>
   <trkpt lat="59.3269096848" lon="34.7112312574"><ele>177.503</ele><time>2026-08-17T04:59:01.644Z</time><hdop>9.875</hdop><vdop>2.5</vdop><extensions><gom:speed>0.239</gom:speed></extensions></trkpt>
   <trkpt lat="59.3269101877" lon="34.7112362866"><ele>177.32</ele><time>2026-08-17T04:59:02.644Z</time><hdop>9.875</hdop><vdop>2.5</vdop><extensions><gom:speed>0.239</gom:speed></extensions></trkpt>
   <trkpt lat="59.326902183" lon="34.7112215344"><ele>176.282</ele><time>2026-08-17T04:59:03.644Z</time><hdop>9.875</hdop><vdop>2.5</vdop><extensions><gom:speed>1.299</gom:speed></extensions></trkpt>
   <trkpt lat="59.3269000876" lon="34.7112208639"><ele>175.466</ele><time>2026-08-17T04:59:04.644Z</time><hdop>9.875</hdop><vdop>2.5</vdop><extensions><gom:speed>0.0</gom:speed></extensions></trkpt>
   <trkpt lat="59.3269003809" lon="34.7112265636"><ele>175.013</ele><time>2026-08-17T04:59:05.643Z</time><hdop>9.875</hdop><vdop>2.5</vdop><extensions><gom:speed>0.0</gom:speed></extensions></trkpt>
   <trkpt lat="59.3269005905" lon="34.7112281561"><ele>174.748</ele><time>2026-08-17T04:59:06.645Z</time><hdop>9.875</hdop><vdop>2.5</vdop><extensions><gom:speed>0.0</gom:speed></extensions></trkpt>
   <trkpt lat="59.3269006743" lon="34.711228659"><ele>174.594</ele><time>2026-08-17T04:59:07.643Z</time><hdop>9.875</hdop><vdop>2.5</vdop><extensions><gom:speed>0.0</gom:speed></extensions></trkpt>
   <trkpt lat="59.3269022669" lon="34.7112275694"><ele>174.305</ele><time>2026-08-17T04:59:08.644Z</time><hdop>9.875</hdop><vdop>2.5</vdop><extensions><gom:speed>0.0</gom:speed></extensions></trkpt>
   <trkpt lat="59.3269030631" lon="34.7112343587"><ele>174.267</ele><time>2026-08-17T04:59:09.644Z</time><hdop>9.875</hdop><vdop>2.5</vdop><extensions><gom:speed>0.299</gom:speed></extensions></trkpt>
   <trkpt lat="59.3269042785" lon="34.7112451714"><ele>174.582</ele><time>2026-08-17T04:59:10.643Z</time><hdop>9.875</hdop><vdop>2.5</vdop><extensions><gom:speed>0.559</gom:speed></extensions></trkpt>
   <trkpt lat="59.3269039851" lon="34.7112527989"><ele>174.657</ele><time>2026-08-17T04:59:11.644Z</time><hdop>9.875</hdop><vdop>2.5</vdop><extensions><gom:speed>0.269</gom:speed></extensions></trkpt>
   <trkpt lat="59.326904991" lon="34.7112664614"><ele>174.906</ele><time>2026-08-17T04:59:12.645Z</time><hdop>9.875</hdop><vdop>2.5</vdop><extensions><gom:speed>0.659</gom:speed></extensions></trkpt>
   <trkpt lat="59.3269044881" lon="34.7112833929"><ele>175.058</ele><time>2026-08-17T04:59:13.644Z</time><hdop>9.875</hdop><vdop>2.5</vdop><extensions><gom:speed>0.449</gom:speed></extensions></trkpt>
   <trkpt lat="59.3269036918" lon="34.7113053534"><ele>175.014</ele><time>2026-08-17T04:59:14.644Z</time><hdop>9.875</hdop><vdop>2.5</vdop><extensions><gom:speed>0.949</gom:speed></extensions></trkpt>
   <trkpt lat="59.3269032727" lon="34.7113149926"><ele>174.555</ele><time>2026-08-17T04:59:15.644Z</time><hdop>9.875</hdop><vdop>2.5</vdop><extensions><gom:speed>0.149</gom:speed></extensions></trkpt>
   <trkpt lat="59.3269074636" lon="34.7112835605"><ele>174.037</ele><time>2026-08-17T04:59:16.644Z</time><hdop>9.875</hdop><vdop>2.5</vdop><extensions><gom:speed>2.229</gom:speed></extensions></trkpt>
   <trkpt lat="59.3269095591" lon="34.7112728317"><ele>173.534</ele><time>2026-08-17T04:59:17.643Z</time><hdop>9.875</hdop><vdop>2.562</vdop><extensions><gom:speed>0.739</gom:speed></extensions></trkpt>
   <trkpt lat="59.3269062902" lon="34.7112850692"><ele>172.987</ele><time>2026-08-17T04:59:18.644Z</time><hdop>9.875</hdop><vdop>2.5</vdop><extensions><gom:speed>0.329</gom:speed></extensions></trkpt>
   <trkpt lat="59.3268977825" lon="34.7112912718"><ele>172.743</ele><time>2026-08-17T04:59:19.644Z</time><hdop>9.875</hdop><vdop>2.5</vdop><extensions><gom:speed>0.869</gom:speed></extensions></trkpt>
   <trkpt lat="59.3268915799" lon="34.711312981"><ele>172.586</ele><time>2026-08-17T04:59:20.644Z</time><hdop>9.875</hdop><vdop>2.5</vdop><extensions><gom:speed>0.0</gom:speed></extensions></trkpt>
   <trkpt lat="59.326883198" lon="34.7113076166"><ele>172.353</ele><time>2026-08-17T04:59:21.644Z</time><hdop>9.875</hdop><vdop>2.5</vdop><extensions><gom:speed>0.999</gom:speed></extensions></trkpt>
   <trkpt lat="59.3268761991" lon="34.7113010787"><ele>171.936</ele><time>2026-08-17T04:59:22.644Z</time><hdop>9.875</hdop><vdop>2.625</vdop><extensions><gom:speed>0.759</gom:speed></extensions></trkpt>
   <trkpt lat="59.326863291" lon="34.7113043476"><ele>171.809</ele><time>2026-08-17T04:59:23.644Z</time><hdop>9.875</hdop><vdop>2.562</vdop><extensions><gom:speed>1.059</gom:speed></extensions></trkpt>
   <trkpt lat="59.3268497961" lon="34.7113112208"><ele>172.002</ele><time>2026-08-17T04:59:24.644Z</time><hdop>9.875</hdop><vdop>2.5</vdop><extensions><gom:speed>0.869</gom:speed></extensions></trkpt>
   <trkpt lat="59.3268487903" lon="34.7113292419"><ele>171.956</ele><time>2026-08-17T04:59:25.643Z</time><hdop>9.875</hdop><vdop>2.5</vdop><extensions><gom:speed>0.0</gom:speed></extensions></trkpt>
   <trkpt lat="59.3268453956" lon="34.7113498613"><ele>172.116</ele><time>2026-08-17T04:59:26.643Z</time><hdop>9.875</hdop><vdop>2.5</vdop><extensions><gom:speed>0.839</gom:speed></extensions></trkpt>
   <trkpt lat="59.3268442641" lon="34.7113760967"><ele>172.488</ele><time>2026-08-17T04:59:27.643Z</time><hdop>9.875</hdop><vdop>2.5</vdop><extensions><gom:speed>0.839</gom:speed></extensions></trkpt>
   <trkpt lat="59.3268390673" lon="34.7114035893"><ele>172.865</ele><time>2026-08-17T04:59:28.645Z</time><hdop>9.875</hdop><vdop>2.562</vdop><extensions><gom:speed>0.879</gom:speed></extensions></trkpt>
   <trkpt lat="59.326833661" lon="34.7114165813"><ele>172.985</ele><time>2026-08-17T04:59:29.644Z</time><hdop>9.875</hdop><vdop>2.5</vdop><extensions><gom:speed>0.289</gom:speed></extensions></trkpt>
   <trkpt lat="59.326831775" lon="34.7114294894"><ele>172.824</ele><time>2026-08-17T04:59:30.644Z</time><hdop>9.875</hdop><vdop>2.5</vdop><extensions><gom:speed>0.489</gom:speed></extensions></trkpt>
   <trkpt lat="59.3268326971" lon="34.7114431519"><ele>172.615</ele><time>2026-08-17T04:59:31.645Z</time><hdop>9.875</hdop><vdop>2.5</vdop><extensions><gom:speed>0.429</gom:speed></extensions></trkpt>
   <trkpt lat="59.3268348763" lon="34.7114588261"><ele>172.58</ele><time>2026-08-17T04:59:32.643Z</time><hdop>9.875</hdop><vdop>2.5</vdop><extensions><gom:speed>0.509</gom:speed></extensions></trkpt>
   <trkpt lat="59.3268344992" lon="34.7114715666"><ele>172.552</ele><time>2026-08-17T04:59:33.644Z</time><hdop>9.875</hdop><vdop>2.5</vdop><extensions><gom:speed>0.0</gom:speed></extensions></trkpt>
   <trkpt lat="59.326843384" lon="34.7114830498"><ele>172.551</ele><time>2026-08-17T04:59:34.644Z</time><hdop>9.875</hdop><vdop>2.5</vdop><extensions><gom:speed>0.879</gom:speed></extensions></trkpt>
   <trkpt lat="59.3268496704" lon="34.7114955388"><ele>173.031</ele><time>2026-08-17T04:59:35.645Z</time><hdop>9.875</hdop><vdop>2.5</vdop><extensions><gom:speed>0.759</gom:speed></extensions></trkpt>
   <trkpt lat="59.3268516821" lon="34.7115193434"><ele>173.157</ele><time>2026-08-17T04:59:36.644Z</time><hdop>9.875</hdop><vdop>2.5</vdop><extensions><gom:speed>0.939</gom:speed></extensions></trkpt>
   <trkpt lat="59.3268506762" lon="34.7115360234"><ele>173.151</ele><time>2026-08-17T04:59:37.644Z</time><hdop>9.875</hdop><vdop>2.687</vdop><extensions><gom:speed>0.589</gom:speed></extensions></trkpt>
   <trkpt lat="59.3268497961" lon="34.7115556371"><ele>173.835</ele><time>2026-08-17T04:59:38.643Z</time><hdop>9.875</hdop><vdop>2.812</vdop><extensions><gom:speed>0.679</gom:speed></extensions></trkpt>
   <trkpt lat="59.3268463596" lon="34.7115772624"><ele>174.39</ele><time>2026-08-17T04:59:39.644Z</time><hdop>9.875</hdop><vdop>2.625</vdop><extensions><gom:speed>0.649</gom:speed></extensions></trkpt>
   <trkpt lat="59.3268423782" lon="34.7115936909"><ele>174.702</ele><time>2026-08-17T04:59:40.643Z</time><hdop>9.875</hdop><vdop>2.5</vdop><extensions><gom:speed>0.589</gom:speed></extensions></trkpt>
   <trkpt lat="59.3268373909" lon="34.7116077725"><ele>174.692</ele><time>2026-08-17T04:59:41.644Z</time><hdop>9.875</hdop><vdop>2.625</vdop><extensions><gom:speed>0.619</gom:speed></extensions></trkpt>
   <trkpt lat="59.3268314817" lon="34.711618669"><ele>174.508</ele><time>2026-08-17T04:59:42.645Z</time><hdop>9.875</hdop><vdop>2.5</vdop><extensions><gom:speed>0.629</gom:speed></extensions></trkpt>
   <trkpt lat="59.3268264944" lon="34.7116275538"><ele>173.989</ele><time>2026-08-17T04:59:43.644Z</time><hdop>9.875</hdop><vdop>2.5</vdop><extensions><gom:speed>0.629</gom:speed></extensions></trkpt>
   <trkpt lat="59.3268220939" lon="34.7116467484"><ele>173.442</ele><time>2026-08-17T04:59:44.644Z</time><hdop>9.875</hdop><vdop>2.5</vdop><extensions><gom:speed>0.729</gom:speed></extensions></trkpt>
   <trkpt lat="59.3268216749" lon="34.7116664458"><ele>173.199</ele><time>2026-08-17T04:59:45.645Z</time><hdop>9.875</hdop><vdop>2.5</vdop><extensions><gom:speed>0.669</gom:speed></extensions></trkpt>
   <trkpt lat="59.3268254886" lon="34.7116842993"><ele>173.213</ele><time>2026-08-17T04:59:46.643Z</time><hdop>9.875</hdop><vdop>2.5</vdop><extensions><gom:speed>0.539</gom:speed></extensions></trkpt>
   <trkpt lat="59.3268327809" lon="34.7116976265"><ele>173.381</ele><time>2026-08-17T04:59:47.644Z</time><hdop>9.875</hdop><vdop>2.5</vdop><extensions><gom:speed>0.749</gom:speed></extensions></trkpt>
   <trkpt lat="59.3268422943" lon="34.7117041644"><ele>173.431</ele><time>2026-08-17T04:59:48.643Z</time><hdop>9.875</hdop><vdop>2.5</vdop><extensions><gom:speed>0.549</gom:speed></extensions></trkpt>
   <trkpt lat="59.3268513887" lon="34.7117118757"><ele>173.568</ele><time>2026-08-17T04:59:49.643Z</time><hdop>9.875</hdop><vdop>2.5</vdop><extensions><gom:speed>0.739</gom:speed></extensions></trkpt>
   <trkpt lat="59.3268553701" lon="34.7117178269"><ele>173.117</ele><time>2026-08-17T04:59:50.645Z</time><hdop>9.875</hdop><vdop>2.5</vdop><extensions><gom:speed>0.339</gom:speed></extensions></trkpt>
   <trkpt lat="59.3268642968" lon="34.7117245324"><ele>172.634</ele><time>2026-08-17T04:59:51.644Z</time><hdop>9.875</hdop><vdop>2.5</vdop><extensions><gom:speed>0.609</gom:speed></extensions></trkpt>
   <trkpt lat="59.32687117" lon="34.7117319923"><ele>172.382</ele><time>2026-08-17T04:59:52.643Z</time><hdop>9.875</hdop><vdop>2.5</vdop><extensions><gom:speed>0.389</gom:speed></extensions></trkpt>
   <trkpt lat="59.3268805996" lon="34.7117308188"><ele>172.402</ele><time>2026-08-17T04:59:53.644Z</time><hdop>9.875</hdop><vdop>2.5</vdop><extensions><gom:speed>0.579</gom:speed></extensions></trkpt>
   <trkpt lat="59.3268883948" lon="34.7117211797"><ele>172.612</ele><time>2026-08-17T04:59:54.645Z</time><hdop>9.875</hdop><vdop>2.5</vdop><extensions><gom:speed>0.649</gom:speed></extensions></trkpt>
   <trkpt lat="59.3268954775" lon="34.7117001411"><ele>173.074</ele><time>2026-08-17T04:59:55.644Z</time><hdop>9.875</hdop><vdop>2.625</vdop><extensions><gom:speed>0.829</gom:speed></extensions></trkpt>
   <trkpt lat="59.3269037756" lon="34.711670553"><ele>173.707</ele><time>2026-08-17T04:59:56.644Z</time><hdop>9.875</hdop><vdop>2.687</vdop><extensions><gom:speed>0.929</gom:speed></extensions></trkpt>
   <trkpt lat="59.3269132891" lon="34.7116620872"><ele>174.45</ele><time>2026-08-17T04:59:57.644Z</time><hdop>9.875</hdop><vdop>2.625</vdop><extensions><gom:speed>0.519</gom:speed></extensions></trkpt>
   <trkpt lat="59.3269244789" lon="34.711660327"><ele>175.164</ele><time>2026-08-17T04:59:58.643Z</time><hdop>9.875</hdop><vdop>2.875</vdop><extensions><gom:speed>0.879</gom:speed></extensions></trkpt>
   <trkpt lat="59.3269394825" lon="34.7116721455"><ele>176.016</ele><time>2026-08-17T04:59:59.644Z</time><hdop>9.875</hdop><vdop>2.875</vdop><extensions><gom:speed>1.009</gom:speed></extensions></trkpt>
   <trkpt lat="59.3269483673" lon="34.7116750792"><ele>176.499</ele><time>2026-08-17T05:00:00.643Z</time><hdop>9.937</hdop><vdop>2.875</vdop><extensions><gom:speed>0.819</gom:speed></extensions></trkpt>
   <trkpt lat="59.3269510914" lon="34.7116869815"><ele>176.868</ele><time>2026-08-17T05:00:01.644Z</time><hdop>9.937</hdop><vdop>2.562</vdop><extensions><gom:speed>0.719</gom:speed></extensions></trkpt>
   <trkpt lat="59.3269485769" lon="34.7117049188"><ele>177.295</ele><time>2026-08-17T05:00:02.644Z</time><hdop>9.937</hdop><vdop>2.625</vdop><extensions><gom:speed>0.299</gom:speed></extensions></trkpt>
   <trkpt lat="59.3269420809" lon="34.7117456548"><ele>177.266</ele><time>2026-08-17T05:00:03.644Z</time><hdop>9.937</hdop><vdop>2.562</vdop><extensions><gom:speed>0.929</gom:speed></extensions></trkpt>
   <trkpt lat="59.3269409912" lon="34.7117751591"><ele>177.329</ele><time>2026-08-17T05:00:04.644Z</time><hdop>9.937</hdop><vdop>2.562</vdop><extensions><gom:speed>0.789</gom:speed></extensions></trkpt>
   <trkpt lat="59.3269389796" lon="34.7117973712"><ele>176.835</ele><time>2026-08-17T05:00:05.643Z</time><hdop>9.937</hdop><vdop>2.5</vdop><extensions><gom:speed>0.699</gom:speed></extensions></trkpt>
   <trkpt lat="59.3269384767" lon="34.7118144702"><ele>176.25</ele><time>2026-08-17T05:00:06.644Z</time><hdop>9.875</hdop><vdop>2.5</vdop><extensions><gom:speed>0.479</gom:speed></extensions></trkpt>
   <trkpt lat="59.3269380995" lon="34.7118232712"><ele>176.085</ele><time>2026-08-17T05:00:07.644Z</time><hdop>9.875</hdop><vdop>2.5</vdop><extensions><gom:speed>0.0</gom:speed></extensions></trkpt>
   <trkpt lat="59.3269382671" lon="34.7118285518"><ele>176.042</ele><time>2026-08-17T05:00:08.644Z</time><hdop>9.875</hdop><vdop>2.5</vdop><extensions><gom:speed>0.0</gom:speed></extensions></trkpt>
   <trkpt lat="59.3269382671" lon="34.7118298929"><ele>176.015</ele><time>2026-08-17T05:00:09.644Z</time><hdop>9.875</hdop><vdop>2.687</vdop><extensions><gom:speed>0.0</gom:speed></extensions></trkpt>
   <trkpt lat="59.3269381833" lon="34.7118303959"><ele>176.001</ele><time>2026-08-17T05:00:10.644Z</time><hdop>9.875</hdop><vdop>2.687</vdop><extensions><gom:speed>0.0</gom:speed></extensions></trkpt>
   <trkpt lat="59.3269381833" lon="34.7118304797"><ele>175.987</ele><time>2026-08-17T05:00:11.643Z</time><hdop>9.875</hdop><vdop>2.687</vdop><extensions><gom:speed>0.0</gom:speed></extensions></trkpt>
   <trkpt lat="59.3269380995" lon="34.7118306473"><ele>175.982</ele><time>2026-08-17T05:00:12.644Z</time><hdop>9.875</hdop><vdop>2.625</vdop><extensions><gom:speed>0.0</gom:speed></extensions></trkpt>
   <trkpt lat="59.3269389796" lon="34.7118315693"><ele>175.473</ele><time>2026-08-17T05:00:13.644Z</time><hdop>9.875</hdop><vdop>2.562</vdop><extensions><gom:speed>0.0</gom:speed></extensions></trkpt>
   <trkpt lat="59.3269408655" lon="34.7118288871"><ele>175.38</ele><time>2026-08-17T05:00:14.643Z</time><hdop>9.875</hdop><vdop>2.5</vdop><extensions><gom:speed>0.0</gom:speed></extensions></trkpt>
   <trkpt lat="59.3269440925" lon="34.7118235227"><ele>175.323</ele><time>2026-08-17T05:00:15.644Z</time><hdop>9.875</hdop><vdop>2.5</vdop><extensions><gom:speed>0.0</gom:speed></extensions></trkpt>
   <trkpt lat="59.3269448888" lon="34.7118220978"><ele>175.289</ele><time>2026-08-17T05:00:16.644Z</time><hdop>9.875</hdop><vdop>2.5</vdop><extensions><gom:speed>0.0</gom:speed></extensions></trkpt>
   <trkpt lat="59.3269450984" lon="34.7118216787"><ele>175.269</ele><time>2026-08-17T05:00:17.644Z</time><hdop>9.875</hdop><vdop>2.5</vdop><extensions><gom:speed>0.0</gom:speed></extensions></trkpt>
   <trkpt lat="59.3269451822" lon="34.7118215949"><ele>175.262</ele><time>2026-08-17T05:00:18.643Z</time><hdop>9.875</hdop><vdop>2.5</vdop><extensions><gom:speed>0.0</gom:speed></extensions></trkpt>
   <trkpt lat="59.326945266" lon="34.7118214272"><ele>175.261</ele><time>2026-08-17T05:00:19.644Z</time><hdop>9.875</hdop><vdop>2.5</vdop><extensions><gom:speed>0.0</gom:speed></extensions></trkpt>
   <trkpt lat="59.3269500856" lon="34.7118225169"><ele>175.486</ele><time>2026-08-17T05:00:20.644Z</time><hdop>9.875</hdop><vdop>2.5</vdop><extensions><gom:speed>0.229</gom:speed></extensions></trkpt>
   <trkpt lat="59.3269585932" lon="34.7118183259"><ele>175.809</ele><time>2026-08-17T05:00:21.644Z</time><hdop>9.875</hdop><vdop>2.5</vdop><extensions><gom:speed>0.449</gom:speed></extensions></trkpt>
   <trkpt lat="59.3269707889" lon="34.7118131291"><ele>176.179</ele><time>2026-08-17T05:00:22.644Z</time><hdop>9.875</hdop><vdop>2.5</vdop><extensions><gom:speed>0.909</gom:speed></extensions></trkpt>
   <trkpt lat="59.3269801766" lon="34.7118016459"><ele>176.533</ele><time>2026-08-17T05:00:23.644Z</time><hdop>9.875</hdop><vdop>2.75</vdop><extensions><gom:speed>0.539</gom:speed></extensions></trkpt>
   <trkpt lat="59.3269812663" lon="34.7117968682"><ele>176.762</ele><time>2026-08-17T05:00:24.643Z</time><hdop>9.875</hdop><vdop>2.5</vdop><extensions><gom:speed>0.0</gom:speed></extensions></trkpt>
   <trkpt lat="59.3269805957" lon="34.7117956948"><ele>176.815</ele><time>2026-08-17T05:00:25.644Z</time><hdop>9.875</hdop><vdop>2.5</vdop><extensions><gom:speed>0.0</gom:speed></extensions></trkpt>
   <trkpt lat="59.3269801766" lon="34.7117951919"><ele>176.817</ele><time>2026-08-17T05:00:26.644Z</time><hdop>9.875</hdop><vdop>2.5</vdop><extensions><gom:speed>0.0</gom:speed></extensions></trkpt>
   <trkpt lat="59.3269801766" lon="34.7117951919"><ele>176.827</ele><time>2026-08-17T05:00:27.644Z</time><hdop>9.875</hdop><vdop>2.5</vdop><extensions><gom:speed>0.0</gom:speed></extensions></trkpt>
   <trkpt lat="59.3269828588" lon="34.7118005563"><ele>176.87</ele><time>2026-08-17T05:00:28.645Z</time><hdop>9.875</hdop><vdop>2.5</vdop><extensions><gom:speed>0.0</gom:speed></extensions></trkpt>
   <trkpt lat="59.3269872593" lon="34.7118091896"><ele>177.047</ele><time>2026-08-17T05:00:29.643Z</time><hdop>9.875</hdop><vdop>2.5</vdop><extensions><gom:speed>0.489</gom:speed></extensions></trkpt>
   <trkpt lat="59.3269897739" lon="34.7118146379"><ele>177.405</ele><time>2026-08-17T05:00:30.644Z</time><hdop>9.875</hdop><vdop>2.5</vdop><extensions><gom:speed>0.0</gom:speed></extensions></trkpt>
   <trkpt lat="59.3269931686" lon="34.7118156437"><ele>177.88</ele><time>2026-08-17T05:00:31.643Z</time><hdop>9.875</hdop><vdop>2.5</vdop><extensions><gom:speed>0.279</gom:speed></extensions></trkpt>
   <trkpt lat="59.3269979882" lon="34.7118192479"><ele>178.108</ele><time>2026-08-17T05:00:32.644Z</time><hdop>9.875</hdop><vdop>2.5</vdop><extensions><gom:speed>0.419</gom:speed></extensions></trkpt>
   <trkpt lat="59.327002263" lon="34.7118279651"><ele>178.383</ele><time>2026-08-17T05:00:33.644Z</time><hdop>9.875</hdop><vdop>2.5</vdop><extensions><gom:speed>0.0</gom:speed></extensions></trkpt>
   <trkpt lat="59.3270140814" lon="34.71182939"><ele>178.756</ele><time>2026-08-17T05:00:34.644Z</time><hdop>9.875</hdop><vdop>2.5</vdop><extensions><gom:speed>0.689</gom:speed></extensions></trkpt>
   <trkpt lat="59.3270240978" lon="34.7118294738"><ele>179.128</ele><time>2026-08-17T05:00:35.643Z</time><hdop>9.875</hdop><vdop>2.5</vdop><extensions><gom:speed>0.549</gom:speed></extensions></trkpt>
   <trkpt lat="59.3270296718" lon="34.7118338324"><ele>179.09</ele><time>2026-08-17T05:00:36.644Z</time><hdop>9.875</hdop><vdop>2.5</vdop><extensions><gom:speed>0.569</gom:speed></extensions></trkpt>
   <trkpt lat="59.3270364611" lon="34.7118384425"><ele>179.096</ele><time>2026-08-17T05:00:37.644Z</time><hdop>9.875</hdop><vdop>2.625</vdop><extensions><gom:speed>0.789</gom:speed></extensions></trkpt>
   <trkpt lat="59.3270392691" lon="34.7118498419"><ele>179.175</ele><time>2026-08-17T05:00:38.644Z</time><hdop>9.875</hdop><vdop>2.562</vdop><extensions><gom:speed>0.499</gom:speed></extensions></trkpt>
   <trkpt lat="59.3270394786" lon="34.711866438"><ele>179.07</ele><time>2026-08-17T05:00:39.644Z</time><hdop>9.875</hdop><vdop>2.562</vdop><extensions><gom:speed>0.399</gom:speed></extensions></trkpt>
   <trkpt lat="59.3270400653" lon="34.7118788433"><ele>179.092</ele><time>2026-08-17T05:00:40.644Z</time><hdop>9.875</hdop><vdop>2.562</vdop><extensions><gom:speed>0.419</gom:speed></extensions></trkpt>
   <trkpt lat="59.3270414903" lon="34.7118867222"><ele>179.163</ele><time>2026-08-17T05:00:41.645Z</time><hdop>9.875</hdop><vdop>2.562</vdop><extensions><gom:speed>0.399</gom:speed></extensions></trkpt>
   <trkpt lat="59.3270391852" lon="34.7119041566"><ele>179.076</ele><time>2026-08-17T05:00:42.644Z</time><hdop>9.875</hdop><vdop>2.687</vdop><extensions><gom:speed>0.819</gom:speed></extensions></trkpt>
   <trkpt lat="59.3270351619" lon="34.7119126223"><ele>179.067</ele><time>2026-08-17T05:00:43.643Z</time><hdop>9.875</hdop><vdop>2.5</vdop><extensions><gom:speed>0.0</gom:speed></extensions></trkpt>
   <trkpt lat="59.3270326893" lon="34.7119259496"><ele>179.093</ele><time>2026-08-17T05:00:44.644Z</time><hdop>9.875</hdop><vdop>2.5</vdop><extensions><gom:speed>0.739</gom:speed></extensions></trkpt>
   <trkpt lat="59.3270294622" lon="34.7119392768"><ele>179.284</ele><time>2026-08-17T05:00:45.644Z</time><hdop>9.875</hdop><vdop>2.5</vdop><extensions><gom:speed>0.279</gom:speed></extensions></trkpt>
   <trkpt lat="59.3270266962" lon="34.7119529393"><ele>179.387</ele><time>2026-08-17T05:00:46.644Z</time><hdop>9.875</hdop><vdop>2.562</vdop><extensions><gom:speed>0.479</gom:speed></extensions></trkpt>
   <trkpt lat="59.3270233854" lon="34.7119669371"><ele>178.918</ele><time>2026-08-17T05:00:47.644Z</time><hdop>9.875</hdop><vdop>2.5</vdop><extensions><gom:speed>0.199</gom:speed></extensions></trkpt>
   <trkpt lat="59.3270203679" lon="34.7119910769"><ele>178.362</ele><time>2026-08-17T05:00:48.645Z</time><hdop>9.875</hdop><vdop>2.5</vdop><extensions><gom:speed>1.089</gom:speed></extensions></trkpt>
   <trkpt lat="59.3270159674" lon="34.7120016381"><ele>178.002</ele><time>2026-08-17T05:00:49.644Z</time><hdop>9.875</hdop><vdop>2.5</vdop><extensions><gom:speed>0.0</gom:speed></extensions></trkpt>
   <trkpt lat="59.3270149615" lon="34.7120033983"><ele>177.787</ele><time>2026-08-17T05:00:50.643Z</time><hdop>9.875</hdop><vdop>2.5</vdop><extensions><gom:speed>0.0</gom:speed></extensions></trkpt>
   <trkpt lat="59.3270146682" lon="34.7120038174"><ele>177.658</ele><time>2026-08-17T05:00:51.643Z</time><hdop>9.875</hdop><vdop>2.5</vdop><extensions><gom:speed>0.0</gom:speed></extensions></trkpt>
   <trkpt lat="59.3270144586" lon="34.7120043203"><ele>177.592</ele><time>2026-08-17T05:00:52.644Z</time><hdop>9.875</hdop><vdop>2.5</vdop><extensions><gom:speed>0.0</gom:speed></extensions></trkpt>
   <trkpt lat="59.3270151711" lon="34.7120046556"><ele>177.532</ele><time>2026-08-17T05:00:53.644Z</time><hdop>9.875</hdop><vdop>2.5</vdop><extensions><gom:speed>0.0</gom:speed></extensions></trkpt>
   <trkpt lat="59.3270154645" lon="34.7120050747"><ele>177.516</ele><time>2026-08-17T05:00:54.643Z</time><hdop>9.875</hdop><vdop>2.5</vdop><extensions><gom:speed>0.0</gom:speed></extensions></trkpt>
   <trkpt lat="59.3270155902" lon="34.7120050747"><ele>177.505</ele><time>2026-08-17T05:00:55.644Z</time><hdop>9.875</hdop><vdop>2.5</vdop><extensions><gom:speed>0.0</gom:speed></extensions></trkpt>
   <trkpt lat="59.3270155902" lon="34.7120051585"><ele>177.499</ele><time>2026-08-17T05:00:56.644Z</time><hdop>9.875</hdop><vdop>2.5</vdop><extensions><gom:speed>0.0</gom:speed></extensions></trkpt>
   <trkpt lat="59.327015674" lon="34.7120051585"><ele>177.494</ele><time>2026-08-17T05:00:57.643Z</time><hdop>9.875</hdop><vdop>2.5</vdop><extensions><gom:speed>0.0</gom:speed></extensions></trkpt>
   <trkpt lat="59.327015674" lon="34.7120052424"><ele>177.49</ele><time>2026-08-17T05:00:58.644Z</time><hdop>9.875</hdop><vdop>2.5</vdop><extensions><gom:speed>0.0</gom:speed></extensions></trkpt>
   <trkpt lat="59.3270155902" lon="34.7120052424"><ele>177.489</ele><time>2026-08-17T05:00:59.644Z</time><hdop>9.875</hdop><vdop>2.5</vdop><extensions><gom:speed>0.0</gom:speed></extensions></trkpt>
   <trkpt lat="59.3270155902" lon="34.7120053262"><ele>177.487</ele><time>2026-08-17T05:01:00.645Z</time><hdop>9.875</hdop><vdop>2.5</vdop><extensions><gom:speed>0.0</gom:speed></extensions></trkpt>
   <trkpt lat="59.3270155902" lon="34.7120054938"><ele>177.485</ele><time>2026-08-17T05:01:01.643Z</time><hdop>9.875</hdop><vdop>2.5</vdop><extensions><gom:speed>0.0</gom:speed></extensions></trkpt>
   <trkpt lat="59.3270155902" lon="34.7120053262"><ele>177.483</ele><time>2026-08-17T05:01:02.644Z</time><hdop>9.875</hdop><vdop>2.5</vdop><extensions><gom:speed>0.0</gom:speed></extensions></trkpt>
   <trkpt lat="59.3270147939" lon="34.71201002"><ele>177.365</ele><time>2026-08-17T05:01:03.644Z</time><hdop>9.875</hdop><vdop>2.5</vdop><extensions><gom:speed>0.0</gom:speed></extensions></trkpt>
   <trkpt lat="59.3270143748" lon="34.7120117802"><ele>177.299</ele><time>2026-08-17T05:01:04.644Z</time><hdop>9.875</hdop><vdop>2.5</vdop><extensions><gom:speed>0.0</gom:speed></extensions></trkpt>
   <trkpt lat="59.3270160931" lon="34.7120134566"><ele>177.311</ele><time>2026-08-17T05:01:05.644Z</time><hdop>9.875</hdop><vdop>2.5</vdop><extensions><gom:speed>0.159</gom:speed></extensions></trkpt>
   <trkpt lat="59.3270184819" lon="34.7120161388"><ele>177.282</ele><time>2026-08-17T05:01:06.644Z</time><hdop>9.875</hdop><vdop>2.5</vdop><extensions><gom:speed>0.269</gom:speed></extensions></trkpt>
   <trkpt lat="59.3270225891" lon="34.7120180667"><ele>177.19</ele><time>2026-08-17T05:01:07.644Z</time><hdop>9.875</hdop><vdop>2.5</vdop><extensions><gom:speed>0.379</gom:speed></extensions></trkpt>
   <trkpt lat="59.3270273668" lon="34.7120216709"><ele>177.138</ele><time>2026-08-17T05:01:08.643Z</time><hdop>9.875</hdop><vdop>2.5</vdop><extensions><gom:speed>0.459</gom:speed></extensions></trkpt>
   <trkpt lat="59.3270365868" lon="34.7120410331"><ele>177.592</ele><time>2026-08-17T05:01:09.644Z</time><hdop>9.875</hdop><vdop>2.5</vdop><extensions><gom:speed>0.889</gom:speed></extensions></trkpt>
   <trkpt lat="59.3270381794" lon="34.7120583836"><ele>177.805</ele><time>2026-08-17T05:01:10.644Z</time><hdop>9.875</hdop><vdop>2.5</vdop><extensions><gom:speed>0.0</gom:speed></extensions></trkpt>
   <trkpt lat="59.3270371736" lon="34.7120850381"><ele>177.712</ele><time>2026-08-17T05:01:11.643Z</time><hdop>9.875</hdop><vdop>2.5</vdop><extensions><gom:speed>1.699</gom:speed></extensions></trkpt>
   <trkpt lat="59.3270307614" lon="34.7121056576"><ele>177.77</ele><time>2026-08-17T05:01:12.644Z</time><hdop>9.875</hdop><vdop>2.5</vdop><extensions><gom:speed>0.0</gom:speed></extensions></trkpt>
   <trkpt lat="59.3270321863" lon="34.7121161349"><ele>177.781</ele><time>2026-08-17T05:01:13.645Z</time><hdop>9.875</hdop><vdop>2.5</vdop><extensions><gom:speed>0.759</gom:speed></extensions></trkpt>
   <trkpt lat="59.327037886" lon="34.7121259418"><ele>178.131</ele><time>2026-08-17T05:01:14.643Z</time><hdop>9.875</hdop><vdop>2.5</vdop><extensions><gom:speed>0.679</gom:speed></extensions></trkpt>
   <trkpt lat="59.3270412807" lon="34.7121246845"><ele>178.325</ele><time>2026-08-17T05:01:15.644Z</time><hdop>9.875</hdop><vdop>2.5</vdop><extensions><gom:speed>0.379</gom:speed></extensions></trkpt>
   <trkpt lat="59.3270404844" lon="34.7121219184"><ele>178.442</ele><time>2026-08-17T05:01:16.643Z</time><hdop>9.875</hdop><vdop>2.5</vdop><extensions><gom:speed>0.0</gom:speed></extensions></trkpt>
   <trkpt lat="59.3270401911" lon="34.7121215832"><ele>178.51</ele><time>2026-08-17T05:01:17.644Z</time><hdop>9.875</hdop><vdop>2.5</vdop><extensions><gom:speed>0.0</gom:speed></extensions></trkpt>
   <trkpt lat="59.3270382632" lon="34.7121252712"><ele>178.537</ele><time>2026-08-17T05:01:18.644Z</time><hdop>9.875</hdop><vdop>2.5</vdop><extensions><gom:speed>0.579</gom:speed></extensions></trkpt>
   <trkpt lat="59.3270374669" lon="34.7121317253"><ele>178.55</ele><time>2026-08-17T05:01:19.643Z</time><hdop>9.875</hdop><vdop>2.5</vdop><extensions><gom:speed>0.0</gom:speed></extensions></trkpt>
   <trkpt lat="59.3270372993" lon="34.7121329826"><ele>178.554</ele><time>2026-08-17T05:01:20.644Z</time><hdop>9.875</hdop><vdop>2.5</vdop><extensions><gom:speed>0.0</gom:speed></extensions></trkpt>
   <trkpt lat="59.3270366707" lon="34.7121491596"><ele>178.774</ele><time>2026-08-17T05:01:21.644Z</time><hdop>9.875</hdop><vdop>2.5</vdop><extensions><gom:speed>0.579</gom:speed></extensions></trkpt>
   <trkpt lat="59.3270360839" lon="34.7121556975"><ele>178.903</ele><time>2026-08-17T05:01:22.643Z</time><hdop>9.875</hdop><vdop>2.5</vdop><extensions><gom:speed>0.0</gom:speed></extensions></trkpt>
   <trkpt lat="59.3270358744" lon="34.712156871"><ele>178.98</ele><time>2026-08-17T05:01:23.644Z</time><hdop>9.875</hdop><vdop>2.5</vdop><extensions><gom:speed>0.0</gom:speed></extensions></trkpt>
   <trkpt lat="59.327037886" lon="34.7121641632"><ele>179.069</ele><time>2026-08-17T05:01:24.645Z</time><hdop>9.875</hdop><vdop>2.5</vdop><extensions><gom:speed>0.409</gom:speed></extensions></trkpt>
   <trkpt lat="59.3270422865" lon="34.7121749759"><ele>179.065</ele><time>2026-08-17T05:01:25.644Z</time><hdop>9.875</hdop><vdop>2.5</vdop><extensions><gom:speed>0.719</gom:speed></extensions></trkpt>
   <trkpt lat="59.327050878" lon="34.7121827711"><ele>179.226</ele><time>2026-08-17T05:01:26.644Z</time><hdop>9.875</hdop><vdop>2.5</vdop><extensions><gom:speed>0.709</gom:speed></extensions></trkpt>
   <trkpt lat="59.3270577931" lon="34.7121903986"><ele>179.647</ele><time>2026-08-17T05:01:27.645Z</time><hdop>9.875</hdop><vdop>2.5</vdop><extensions><gom:speed>0.429</gom:speed></extensions></trkpt>
   <trkpt lat="59.3270668874" lon="34.7121956792"><ele>179.868</ele><time>2026-08-17T05:01:28.644Z</time><hdop>8.687</hdop><vdop>2.5</vdop><extensions><gom:speed>0.859</gom:speed></extensions></trkpt>
   <trkpt lat="59.32706848" lon="34.7121992834"><ele>179.947</ele><time>2026-08-17T05:01:29.643Z</time><hdop>7.875</hdop><vdop>2.5</vdop><extensions><gom:speed>0.0</gom:speed></extensions></trkpt>
   <trkpt lat="59.3270674742" lon="34.7122046478"><ele>179.989</ele><time>2026-08-17T05:01:30.644Z</time><hdop>6.187</hdop><vdop>2.5</vdop><extensions><gom:speed>0.0</gom:speed></extensions></trkpt>
   <trkpt lat="59.3270671808" lon="34.7122061566"><ele>180.013</ele><time>2026-08-17T05:01:31.644Z</time><hdop>5.812</hdop><vdop>2.5</vdop><extensions><gom:speed>0.0</gom:speed></extensions></trkpt>
   <trkpt lat="59.3270645824" lon="34.712207833"><ele>179.865</ele><time>2026-08-17T05:01:32.644Z</time><hdop>4.812</hdop><vdop>2.5</vdop><extensions><gom:speed>0.249</gom:speed></extensions></trkpt>
   <trkpt lat="59.3270638699" lon="34.7122083359"><ele>179.775</ele><time>2026-08-17T05:01:33.644Z</time><hdop>3.75</hdop><vdop>2.5</vdop><extensions><gom:speed>0.0</gom:speed></extensions></trkpt>
   <trkpt lat="59.3270637861" lon="34.7122084197"><ele>179.72</ele><time>2026-08-17T05:01:34.644Z</time><hdop>3.75</hdop><vdop>2.5</vdop><extensions><gom:speed>0.0</gom:speed></extensions></trkpt>
   <trkpt lat="59.3270636604" lon="34.7122085873"><ele>179.683</ele><time>2026-08-17T05:01:35.644Z</time><hdop>3.75</hdop><vdop>2.5</vdop><extensions><gom:speed>0.0</gom:speed></extensions></trkpt>
   <trkpt lat="59.3270604753" lon="34.7122082521"><ele>179.407</ele><time>2026-08-17T05:01:36.644Z</time><hdop>3.75</hdop><vdop>2.5</vdop><extensions><gom:speed>0.0</gom:speed></extensions></trkpt>
   <trkpt lat="59.3270586732" lon="34.712207833"><ele>179.235</ele><time>2026-08-17T05:01:37.644Z</time><hdop>3.75</hdop><vdop>2.5</vdop><extensions><gom:speed>0.0</gom:speed></extensions></trkpt>
   <trkpt lat="59.327058296" lon="34.7122077491"><ele>179.129</ele><time>2026-08-17T05:01:38.643Z</time><hdop>3.75</hdop><vdop>2.5</vdop><extensions><gom:speed>0.0</gom:speed></extensions></trkpt>
   <trkpt lat="59.3270580864" lon="34.7122076653"><ele>179.062</ele><time>2026-08-17T05:01:39.644Z</time><hdop>3.75</hdop><vdop>2.5</vdop><extensions><gom:speed>0.0</gom:speed></extensions></trkpt>
   <trkpt lat="59.3270580864" lon="34.7122076653"><ele>179.019</ele><time>2026-08-17T05:01:40.643Z</time><hdop>3.75</hdop><vdop>2.5</vdop><extensions><gom:speed>0.0</gom:speed></extensions></trkpt>
   <trkpt lat="59.3270572901" lon="34.7122100961"><ele>178.854</ele><time>2026-08-17T05:01:41.644Z</time><hdop>3.75</hdop><vdop>2.5</vdop><extensions><gom:speed>0.199</gom:speed></extensions></trkpt>
   <trkpt lat="59.3270574997" lon="34.7122110181"><ele>178.756</ele><time>2026-08-17T05:01:42.644Z</time><hdop>3.75</hdop><vdop>2.5</vdop><extensions><gom:speed>0.0</gom:speed></extensions></trkpt>
   <trkpt lat="59.3270574997" lon="34.7122111857"><ele>178.697</ele><time>2026-08-17T05:01:43.644Z</time><hdop>3.75</hdop><vdop>2.5</vdop><extensions><gom:speed>0.0</gom:speed></extensions></trkpt>
   <trkpt lat="59.3270574997" lon="34.7122112695"><ele>178.66</ele><time>2026-08-17T05:01:44.644Z</time><hdop>3.75</hdop><vdop>2.5</vdop><extensions><gom:speed>0.0</gom:speed></extensions></trkpt>
   <trkpt lat="59.3270574997" lon="34.7122112695"><ele>178.636</ele><time>2026-08-17T05:01:45.644Z</time><hdop>3.75</hdop><vdop>2.5</vdop><extensions><gom:speed>0.0</gom:speed></extensions></trkpt>
   <trkpt lat="59.3270574997" lon="34.7122112695"><ele>178.619</ele><time>2026-08-17T05:01:46.643Z</time><hdop>3.75</hdop><vdop>2.5</vdop><extensions><gom:speed>0.0</gom:speed></extensions></trkpt>
   <trkpt lat="59.3270574997" lon="34.7122112695"><ele>178.607</ele><time>2026-08-17T05:01:47.644Z</time><hdop>3.75</hdop><vdop>2.5</vdop><extensions><gom:speed>0.0</gom:speed></extensions></trkpt>
   <trkpt lat="59.3270574997" lon="34.7122112695"><ele>178.599</ele><time>2026-08-17T05:01:48.644Z</time><hdop>3.75</hdop><vdop>2.5</vdop><extensions><gom:speed>0.0</gom:speed></extensions></trkpt>
   <trkpt lat="59.327057374" lon="34.7122112695"><ele>178.592</ele><time>2026-08-17T05:01:49.644Z</time><hdop>3.75</hdop><vdop>2.5</vdop><extensions><gom:speed>0.0</gom:speed></extensions></trkpt>
   <trkpt lat="59.327057374" lon="34.7122113534"><ele>178.587</ele><time>2026-08-17T05:01:50.643Z</time><hdop>3.75</hdop><vdop>2.5</vdop><extensions><gom:speed>0.0</gom:speed></extensions></trkpt>
   <trkpt lat="59.327057374" lon="34.7122113534"><ele>178.582</ele><time>2026-08-17T05:01:51.644Z</time><hdop>3.75</hdop><vdop>2.5</vdop><extensions><gom:speed>0.0</gom:speed></extensions></trkpt>
   <trkpt lat="59.327057374" lon="34.7122113534"><ele>178.579</ele><time>2026-08-17T05:01:52.644Z</time><hdop>3.75</hdop><vdop>2.5</vdop><extensions><gom:speed>0.0</gom:speed></extensions></trkpt>
   <trkpt lat="59.327057374" lon="34.7122114372"><ele>178.575</ele><time>2026-08-17T05:01:53.644Z</time><hdop>3.75</hdop><vdop>2.5</vdop><extensions><gom:speed>0.0</gom:speed></extensions></trkpt>
   <trkpt lat="59.327057374" lon="34.7122114372"><ele>178.571</ele><time>2026-08-17T05:01:54.645Z</time><hdop>3.75</hdop><vdop>2.5</vdop><extensions><gom:speed>0.0</gom:speed></extensions></trkpt>
   <trkpt lat="59.3270574997" lon="34.712211521"><ele>178.567</ele><time>2026-08-17T05:01:55.643Z</time><hdop>3.75</hdop><vdop>2.5</vdop><extensions><gom:speed>0.0</gom:speed></extensions></trkpt>
   <trkpt lat="59.3270574997" lon="34.7122116886"><ele>178.564</ele><time>2026-08-17T05:01:56.644Z</time><hdop>3.75</hdop><vdop>2.5</vdop><extensions><gom:speed>0.0</gom:speed></extensions></trkpt>
   <trkpt lat="59.3270574997" lon="34.7122117724"><ele>178.562</ele><time>2026-08-17T05:01:57.644Z</time><hdop>3.75</hdop><vdop>2.5</vdop><extensions><gom:speed>0.0</gom:speed></extensions></trkpt>
   <trkpt lat="59.3270574997" lon="34.7122118563"><ele>178.56</ele><time>2026-08-17T05:01:58.644Z</time><hdop>3.75</hdop><vdop>2.5</vdop><extensions><gom:speed>0.0</gom:speed></extensions></trkpt>
   <trkpt lat="59.3270575835" lon="34.7122118563"><ele>178.558</ele><time>2026-08-17T05:01:59.644Z</time><hdop>3.75</hdop><vdop>2.5</vdop><extensions><gom:speed>0.0</gom:speed></extensions></trkpt>
   <trkpt lat="59.3270575835" lon="34.7122119401"><ele>178.555</ele><time>2026-08-17T05:02:00.644Z</time><hdop>3.75</hdop><vdop>2.5</vdop><extensions><gom:speed>0.0</gom:speed></extensions></trkpt>
   <trkpt lat="59.3270575835" lon="34.7122120239"><ele>178.553</ele><time>2026-08-17T05:02:01.643Z</time><hdop>3.75</hdop><vdop>2.5</vdop><extensions><gom:speed>0.0</gom:speed></extensions></trkpt>
   <trkpt lat="59.3270575835" lon="34.7122120239"><ele>178.549</ele><time>2026-08-17T05:02:02.644Z</time><hdop>3.75</hdop><vdop>2.5</vdop><extensions><gom:speed>0.0</gom:speed></extensions></trkpt>
   <trkpt lat="59.3270575835" lon="34.7122121915"><ele>178.547</ele><time>2026-08-17T05:02:03.644Z</time><hdop>3.75</hdop><vdop>2.5</vdop><extensions><gom:speed>0.0</gom:speed></extensions></trkpt>
   <trkpt lat="59.3270576673" lon="34.712212443"><ele>178.552</ele><time>2026-08-17T05:02:04.644Z</time><hdop>3.75</hdop><vdop>2.562</vdop><extensions><gom:speed>0.0</gom:speed></extensions></trkpt>
   <trkpt lat="59.3270576673" lon="34.7122125268"><ele>178.556</ele><time>2026-08-17T05:02:05.644Z</time><hdop>3.75</hdop><vdop>2.5</vdop><extensions><gom:speed>0.0</gom:speed></extensions></trkpt>
   <trkpt lat="59.3270576673" lon="34.7122125268"><ele>178.559</ele><time>2026-08-17T05:02:06.644Z</time><hdop>3.75</hdop><vdop>2.5</vdop><extensions><gom:speed>0.0</gom:speed></extensions></trkpt>
   <trkpt lat="59.3270576673" lon="34.7122125268"><ele>178.561</ele><time>2026-08-17T05:02:07.644Z</time><hdop>3.75</hdop><vdop>2.5</vdop><extensions><gom:speed>0.0</gom:speed></extensions></trkpt>
   <trkpt lat="59.3270576673" lon="34.7122125268"><ele>178.56</ele><time>2026-08-17T05:02:08.643Z</time><hdop>3.75</hdop><vdop>2.5</vdop><extensions><gom:speed>0.0</gom:speed></extensions></trkpt>
   <trkpt lat="59.3270576673" lon="34.7122125268"><ele>178.557</ele><time>2026-08-17T05:02:09.645Z</time><hdop>3.75</hdop><vdop>2.5</vdop><extensions><gom:speed>0.0</gom:speed></extensions></trkpt>
   <trkpt lat="59.3270576673" lon="34.7122125268"><ele>178.556</ele><time>2026-08-17T05:02:10.643Z</time><hdop>3.75</hdop><vdop>2.5</vdop><extensions><gom:speed>0.0</gom:speed></extensions></trkpt>
   <trkpt lat="59.3270575835" lon="34.7122125268"><ele>178.55</ele><time>2026-08-17T05:02:11.645Z</time><hdop>3.75</hdop><vdop>2.5</vdop><extensions><gom:speed>0.0</gom:speed></extensions></trkpt>
   <trkpt lat="59.3270574997" lon="34.712212443"><ele>178.542</ele><time>2026-08-17T05:02:12.644Z</time><hdop>3.75</hdop><vdop>2.5</vdop><extensions><gom:speed>0.0</gom:speed></extensions></trkpt>
   <trkpt lat="59.3270574997" lon="34.712212443"><ele>178.534</ele><time>2026-08-17T05:02:13.644Z</time><hdop>3.75</hdop><vdop>2.5</vdop><extensions><gom:speed>0.0</gom:speed></extensions></trkpt>
   <trkpt lat="59.327057374" lon="34.712212443"><ele>178.522</ele><time>2026-08-17T05:02:14.644Z</time><hdop>3.75</hdop><vdop>2.5</vdop><extensions><gom:speed>0.0</gom:speed></extensions></trkpt>
   <trkpt lat="59.3270572901" lon="34.7122123592"><ele>178.507</ele><time>2026-08-17T05:02:15.644Z</time><hdop>3.75</hdop><vdop>2.5</vdop><extensions><gom:speed>0.0</gom:speed></extensions></trkpt>
   <trkpt lat="59.3270572901" lon="34.7122123592"><ele>178.497</ele><time>2026-08-17T05:02:16.645Z</time><hdop>3.75</hdop><vdop>2.5</vdop><extensions><gom:speed>0.0</gom:speed></extensions></trkpt>
   <trkpt lat="59.3270572901" lon="34.7122123592"><ele>178.49</ele><time>2026-08-17T05:02:17.644Z</time><hdop>3.75</hdop><vdop>2.5</vdop><extensions><gom:speed>0.0</gom:speed></extensions></trkpt>
   <trkpt lat="59.3270572901" lon="34.7122123592"><ele>178.483</ele><time>2026-08-17T05:02:18.644Z</time><hdop>3.75</hdop><vdop>2.5</vdop><extensions><gom:speed>0.0</gom:speed></extensions></trkpt>
   <trkpt lat="59.3270572901" lon="34.7122123592"><ele>178.476</ele><time>2026-08-17T05:02:19.644Z</time><hdop>3.75</hdop><vdop>2.5</vdop><extensions><gom:speed>0.0</gom:speed></extensions></trkpt>
   <trkpt lat="59.3270572901" lon="34.712212443"><ele>178.471</ele><time>2026-08-17T05:02:20.644Z</time><hdop>3.75</hdop><vdop>2.5</vdop><extensions><gom:speed>0.0</gom:speed></extensions></trkpt>
   <trkpt lat="59.3270571644" lon="34.712212443"><ele>178.466</ele><time>2026-08-17T05:02:21.644Z</time><hdop>3.75</hdop><vdop>2.5</vdop><extensions><gom:speed>0.0</gom:speed></extensions></trkpt>
   <trkpt lat="59.3270571644" lon="34.712212443"><ele>178.462</ele><time>2026-08-17T05:02:22.644Z</time><hdop>3.75</hdop><vdop>2.5</vdop><extensions><gom:speed>0.0</gom:speed></extensions></trkpt>
   <trkpt lat="59.3270571644" lon="34.712212443"><ele>178.461</ele><time>2026-08-17T05:02:23.643Z</time><hdop>3.75</hdop><vdop>2.5</vdop><extensions><gom:speed>0.0</gom:speed></extensions></trkpt>
   <trkpt lat="59.3270571644" lon="34.712212443"><ele>178.458</ele><time>2026-08-17T05:02:24.644Z</time><hdop>3.75</hdop><vdop>2.5</vdop><extensions><gom:speed>0.0</gom:speed></extensions></trkpt>
   <trkpt lat="59.3270571644" lon="34.712212443"><ele>178.455</ele><time>2026-08-17T05:02:25.644Z</time><hdop>3.75</hdop><vdop>2.5</vdop><extensions><gom:speed>0.0</gom:speed></extensions></trkpt>
   <trkpt lat="59.3270571644" lon="34.712212443"><ele>178.45</ele><time>2026-08-17T05:02:26.644Z</time><hdop>3.75</hdop><vdop>2.5</vdop><extensions><gom:speed>0.0</gom:speed></extensions></trkpt>
   <trkpt lat="59.3270570806" lon="34.7122125268"><ele>178.445</ele><time>2026-08-17T05:02:27.644Z</time><hdop>3.75</hdop><vdop>2.5</vdop><extensions><gom:speed>0.0</gom:speed></extensions></trkpt>
   <trkpt lat="59.3270570806" lon="34.7122126945"><ele>178.441</ele><time>2026-08-17T05:02:28.644Z</time><hdop>3.75</hdop><vdop>2.5</vdop><extensions><gom:speed>0.0</gom:speed></extensions></trkpt>
   <trkpt lat="59.3270570806" lon="34.7122126945"><ele>178.437</ele><time>2026-08-17T05:02:29.644Z</time><hdop>3.75</hdop><vdop>2.5</vdop><extensions><gom:speed>0.0</gom:speed></extensions></trkpt>
   <trkpt lat="59.3270569968" lon="34.7122127783"><ele>178.431</ele><time>2026-08-17T05:02:30.644Z</time><hdop>3.75</hdop><vdop>2.5</vdop><extensions><gom:speed>0.0</gom:speed></extensions></trkpt>
   <trkpt lat="59.3270569968" lon="34.7122128621"><ele>178.425</ele><time>2026-08-17T05:02:31.644Z</time><hdop>3.75</hdop><vdop>2.5</vdop><extensions><gom:speed>0.0</gom:speed></extensions></trkpt>
   <trkpt lat="59.3270569968" lon="34.7122129459"><ele>178.421</ele><time>2026-08-17T05:02:32.643Z</time><hdop>3.75</hdop><vdop>2.5</vdop><extensions><gom:speed>0.0</gom:speed></extensions></trkpt>
   <trkpt lat="59.3270568711" lon="34.7122136165"><ele>178.436</ele><time>2026-08-17T05:02:33.644Z</time><hdop>3.75</hdop><vdop>2.562</vdop><extensions><gom:speed>0.0</gom:speed></extensions></trkpt>
   <trkpt lat="59.3270568711" lon="34.7122138679"><ele>178.443</ele><time>2026-08-17T05:02:34.644Z</time><hdop>3.75</hdop><vdop>2.5</vdop><extensions><gom:speed>0.0</gom:speed></extensions></trkpt>
   <trkpt lat="59.3270567872" lon="34.7122141194"><ele>178.448</ele><time>2026-08-17T05:02:35.643Z</time><hdop>3.75</hdop><vdop>2.562</vdop><extensions><gom:speed>0.0</gom:speed></extensions></trkpt>
   <trkpt lat="59.3270567872" lon="34.7122149576"><ele>178.468</ele><time>2026-08-17T05:02:36.644Z</time><hdop>3.75</hdop><vdop>2.625</vdop><extensions><gom:speed>0.0</gom:speed></extensions></trkpt>
   <trkpt lat="59.3270566615" lon="34.7122159634"><ele>178.501</ele><time>2026-08-17T05:02:37.644Z</time><hdop>3.75</hdop><vdop>2.75</vdop><extensions><gom:speed>0.0</gom:speed></extensions></trkpt>
   <trkpt lat="59.3270566615" lon="34.7122168854"><ele>178.537</ele><time>2026-08-17T05:02:38.644Z</time><hdop>3.75</hdop><vdop>2.812</vdop><extensions><gom:speed>0.0</gom:speed></extensions></trkpt>
   <trkpt lat="59.3270566615" lon="34.712217556"><ele>178.571</ele><time>2026-08-17T05:02:39.644Z</time><hdop>3.75</hdop><vdop>2.875</vdop><extensions><gom:speed>0.0</gom:speed></extensions></trkpt>
   <trkpt lat="59.3270566615" lon="34.7122182265"><ele>178.599</ele><time>2026-08-17T05:02:40.644Z</time><hdop>3.75</hdop><vdop>2.937</vdop><extensions><gom:speed>0.0</gom:speed></extensions></trkpt>
   <trkpt lat="59.3270566615" lon="34.712218478"><ele>178.616</ele><time>2026-08-17T05:02:41.643Z</time><hdop>3.75</hdop><vdop>2.812</vdop><extensions><gom:speed>0.0</gom:speed></extensions></trkpt>
   <trkpt lat="59.3270566615" lon="34.7122189809"><ele>178.635</ele><time>2026-08-17T05:02:42.644Z</time><hdop>3.75</hdop><vdop>2.812</vdop><extensions><gom:speed>0.0</gom:speed></extensions></trkpt>
   <trkpt lat="59.3270566615" lon="34.7122192323"><ele>178.647</ele><time>2026-08-17T05:02:43.643Z</time><hdop>3.75</hdop><vdop>2.75</vdop><extensions><gom:speed>0.0</gom:speed></extensions></trkpt>
   <trkpt lat="59.3270566615" lon="34.7122194838"><ele>178.654</ele><time>2026-08-17T05:02:44.644Z</time><hdop>3.75</hdop><vdop>2.687</vdop><extensions><gom:speed>0.0</gom:speed></extensions></trkpt>
   <trkpt lat="59.3270565777" lon="34.7122196514"><ele>178.658</ele><time>2026-08-17T05:02:45.644Z</time><hdop>3.75</hdop><vdop>2.562</vdop><extensions><gom:speed>0.0</gom:speed></extensions></trkpt>
   <trkpt lat="59.3270565777" lon="34.7122196514"><ele>178.661</ele><time>2026-08-17T05:02:46.643Z</time><hdop>3.75</hdop><vdop>2.5</vdop><extensions><gom:speed>0.0</gom:speed></extensions></trkpt>
   <trkpt lat="59.3270565777" lon="34.7122197353"><ele>178.66</ele><time>2026-08-17T05:02:47.644Z</time><hdop>3.75</hdop><vdop>2.5</vdop><extensions><gom:speed>0.0</gom:speed></extensions></trkpt>
   <trkpt lat="59.3270565777" lon="34.7122197353"><ele>178.66</ele><time>2026-08-17T05:02:48.644Z</time><hdop>3.75</hdop><vdop>2.5</vdop><extensions><gom:speed>0.0</gom:speed></extensions></trkpt>
   <trkpt lat="59.3270565777" lon="34.7122198191"><ele>178.661</ele><time>2026-08-17T05:02:49.644Z</time><hdop>3.75</hdop><vdop>2.5</vdop><extensions><gom:speed>0.0</gom:speed></extensions></trkpt>
   <trkpt lat="59.3270564939" lon="34.7122198191"><ele>178.662</ele><time>2026-08-17T05:02:50.644Z</time><hdop>3.75</hdop><vdop>2.5</vdop><extensions><gom:speed>0.0</gom:speed></extensions></trkpt>
   <trkpt lat="59.3270564939" lon="34.7122200705"><ele>178.668</ele><time>2026-08-17T05:02:51.644Z</time><hdop>3.75</hdop><vdop>2.5</vdop><extensions><gom:speed>0.0</gom:speed></extensions></trkpt>
   <trkpt lat="59.3270563681" lon="34.7122201544"><ele>178.674</ele><time>2026-08-17T05:02:52.644Z</time><hdop>3.75</hdop><vdop>2.5</vdop><extensions><gom:speed>0.0</gom:speed></extensions></trkpt>
   <trkpt lat="59.3270563681" lon="34.7122201544"><ele>178.677</ele><time>2026-08-17T05:02:53.645Z</time><hdop>3.75</hdop><vdop>2.5</vdop><extensions><gom:speed>0.0</gom:speed></extensions></trkpt>
   <trkpt lat="59.3270563681" lon="34.7122201544"><ele>178.68</ele><time>2026-08-17T05:02:54.643Z</time><hdop>3.75</hdop><vdop>2.5</vdop><extensions><gom:speed>0.0</gom:speed></extensions></trkpt>
   <trkpt lat="59.3270562843" lon="34.7122200705"><ele>178.687</ele><time>2026-08-17T05:02:55.645Z</time><hdop>3.75</hdop><vdop>2.5</vdop><extensions><gom:speed>0.0</gom:speed></extensions></trkpt>
   <trkpt lat="59.3270562843" lon="34.7122200705"><ele>178.695</ele><time>2026-08-17T05:02:56.643Z</time><hdop>3.75</hdop><vdop>2.5</vdop><extensions><gom:speed>0.0</gom:speed></extensions></trkpt>
   <trkpt lat="59.3270565777" lon="34.7122234233"><ele>179.002</ele><time>2026-08-17T05:02:57.644Z</time><hdop>3.75</hdop><vdop>2.5</vdop><extensions><gom:speed>0.149</gom:speed></extensions></trkpt>
   <trkpt lat="59.3270562843" lon="34.712234655"><ele>179.436</ele><time>2026-08-17T05:02:58.644Z</time><hdop>3.75</hdop><vdop>2.5</vdop><extensions><gom:speed>0.419</gom:speed></extensions></trkpt>
   <trkpt lat="59.3270565777" lon="34.7122400195"><ele>179.676</ele><time>2026-08-17T05:02:59.644Z</time><hdop>3.75</hdop><vdop>2.5</vdop><extensions><gom:speed>0.0</gom:speed></extensions></trkpt>
   <trkpt lat="59.3270552785" lon="34.7122404386"><ele>179.739</ele><time>2026-08-17T05:03:00.644Z</time><hdop>3.75</hdop><vdop>2.5</vdop><extensions><gom:speed>0.0</gom:speed></extensions></trkpt>
   <trkpt lat="59.3270551947" lon="34.7122401871"><ele>179.791</ele><time>2026-08-17T05:03:01.644Z</time><hdop>3.75</hdop><vdop>2.5</vdop><extensions><gom:speed>0.0</gom:speed></extensions></trkpt>
   <trkpt lat="59.3270550689" lon="34.7122401871"><ele>179.821</ele><time>2026-08-17T05:03:02.644Z</time><hdop>3.75</hdop><vdop>2.5</vdop><extensions><gom:speed>0.0</gom:speed></extensions></trkpt>
   <trkpt lat="59.3270550689" lon="34.7122400195"><ele>179.84</ele><time>2026-08-17T05:03:03.644Z</time><hdop>3.75</hdop><vdop>2.5</vdop><extensions><gom:speed>0.0</gom:speed></extensions></trkpt>
   <trkpt lat="59.3270550689" lon="34.7122400195"><ele>179.858</ele><time>2026-08-17T05:03:04.644Z</time><hdop>3.75</hdop><vdop>2.5</vdop><extensions><gom:speed>0.0</gom:speed></extensions></trkpt>
   <trkpt lat="59.3270550689" lon="34.7122400195"><ele>179.868</ele><time>2026-08-17T05:03:05.644Z</time><hdop>3.75</hdop><vdop>2.5</vdop><extensions><gom:speed>0.0</gom:speed></extensions></trkpt>
   <trkpt lat="59.3270550689" lon="34.7122400195"><ele>179.87</ele><time>2026-08-17T05:03:06.643Z</time><hdop>3.75</hdop><vdop>2.5</vdop><extensions><gom:speed>0.0</gom:speed></extensions></trkpt>
   <trkpt lat="59.3270550689" lon="34.7122401871"><ele>179.879</ele><time>2026-08-17T05:03:07.644Z</time><hdop>3.75</hdop><vdop>2.5</vdop><extensions><gom:speed>0.0</gom:speed></extensions></trkpt>
   <trkpt lat="59.3270550689" lon="34.7122402709"><ele>179.885</ele><time>2026-08-17T05:03:08.645Z</time><hdop>3.75</hdop><vdop>2.5</vdop><extensions><gom:speed>0.0</gom:speed></extensions></trkpt>
   <trkpt lat="59.3270550689" lon="34.7122401871"><ele>179.89</ele><time>2026-08-17T05:03:09.644Z</time><hdop>3.75</hdop><vdop>2.5</vdop><extensions><gom:speed>0.0</gom:speed></extensions></trkpt>
   <trkpt lat="59.3270556976" lon="34.7122404386"><ele>179.978</ele><time>2026-08-17T05:03:10.644Z</time><hdop>3.75</hdop><vdop>2.5</vdop><extensions><gom:speed>0.169</gom:speed></extensions></trkpt>
   <trkpt lat="59.3270560748" lon="34.7122405224"><ele>180.042</ele><time>2026-08-17T05:03:11.644Z</time><hdop>3.75</hdop><vdop>2.5</vdop><extensions><gom:speed>0.0</gom:speed></extensions></trkpt>
   <trkpt lat="59.3270574997" lon="34.7122446295"><ele>180.153</ele><time>2026-08-17T05:03:12.644Z</time><hdop>3.75</hdop><vdop>2.5</vdop><extensions><gom:speed>0.409</gom:speed></extensions></trkpt>
   <trkpt lat="59.327057374" lon="34.7122446295"><ele>180.229</ele><time>2026-08-17T05:03:13.644Z</time><hdop>3.75</hdop><vdop>2.5</vdop><extensions><gom:speed>0.0</gom:speed></extensions></trkpt>
   <trkpt lat="59.3270605591" lon="34.7122506645"><ele>180.397</ele><time>2026-08-17T05:03:14.644Z</time><hdop>3.75</hdop><vdop>2.5</vdop><extensions><gom:speed>0.429</gom:speed></extensions></trkpt>
   <trkpt lat="59.327066175" lon="34.7122441266"><ele>180.563</ele><time>2026-08-17T05:03:15.644Z</time><hdop>3.75</hdop><vdop>2.5</vdop><extensions><gom:speed>0.339</gom:speed></extensions></trkpt>
   <trkpt lat="59.3270740959" lon="34.7122357447"><ele>180.566</ele><time>2026-08-17T05:03:16.643Z</time><hdop>3.75</hdop><vdop>2.5</vdop><extensions><gom:speed>0.719</gom:speed></extensions></trkpt>
   <trkpt lat="59.3270801727" lon="34.712235158"><ele>180.485</ele><time>2026-08-17T05:03:17.644Z</time><hdop>3.75</hdop><vdop>2.75</vdop><extensions><gom:speed>0.579</gom:speed></extensions></trkpt>
   <trkpt lat="59.3270836931" lon="34.7122484852"><ele>180.421</ele><time>2026-08-17T05:03:18.644Z</time><hdop>3.75</hdop><vdop>2.562</vdop><extensions><gom:speed>0.199</gom:speed></extensions></trkpt>
   <trkpt lat="59.3270856629" lon="34.7122751396"><ele>180.416</ele><time>2026-08-17T05:03:19.643Z</time><hdop>3.75</hdop><vdop>2.5</vdop><extensions><gom:speed>0.0</gom:speed></extensions></trkpt>
   <trkpt lat="59.3270862915" lon="34.7122823481"><ele>180.418</ele><time>2026-08-17T05:03:20.644Z</time><hdop>3.75</hdop><vdop>2.5</vdop><extensions><gom:speed>0.0</gom:speed></extensions></trkpt>
   <trkpt lat="59.3270836931" lon="34.712282851"><ele>180.305</ele><time>2026-08-17T05:03:21.643Z</time><hdop>3.75</hdop><vdop>2.5</vdop><extensions><gom:speed>0.0</gom:speed></extensions></trkpt>
   <trkpt lat="59.3270787897" lon="34.7122854494"><ele>179.828</ele><time>2026-08-17T05:03:22.644Z</time><hdop>3.75</hdop><vdop>2.5</vdop><extensions><gom:speed>0.249</gom:speed></extensions></trkpt>
   <trkpt lat="59.3270723776" lon="34.7122898918"><ele>178.895</ele><time>2026-08-17T05:03:23.643Z</time><hdop>3.75</hdop><vdop>2.5</vdop><extensions><gom:speed>0.189</gom:speed></extensions></trkpt>
   <trkpt lat="59.3270676837" lon="34.7122996986"><ele>178.233</ele><time>2026-08-17T05:03:24.643Z</time><hdop>3.75</hdop><vdop>2.5</vdop><extensions><gom:speed>0.249</gom:speed></extensions></trkpt>
   <trkpt lat="59.3270575835" lon="34.7123167977"><ele>177.567</ele><time>2026-08-17T05:03:25.645Z</time><hdop>3.75</hdop><vdop>2.5</vdop><extensions><gom:speed>1.169</gom:speed></extensions></trkpt>
   <trkpt lat="59.3270503751" lon="34.712322665"><ele>177.122</ele><time>2026-08-17T05:03:26.643Z</time><hdop>3.75</hdop><vdop>2.562</vdop><extensions><gom:speed>0.359</gom:speed></extensions></trkpt>
   <trkpt lat="59.3270437953" lon="34.7123336453"><ele>177.148</ele><time>2026-08-17T05:03:27.643Z</time><hdop>3.75</hdop><vdop>2.5</vdop><extensions><gom:speed>0.949</gom:speed></extensions></trkpt>
   <trkpt lat="59.3270412807" lon="34.7123345673"><ele>176.921</ele><time>2026-08-17T05:03:28.644Z</time><hdop>3.75</hdop><vdop>2.5</vdop><extensions><gom:speed>0.169</gom:speed></extensions></trkpt>
   <trkpt lat="59.3270459746" lon="34.7123412729"><ele>176.579</ele><time>2026-08-17T05:03:29.644Z</time><hdop>3.75</hdop><vdop>2.5</vdop><extensions><gom:speed>0.979</gom:speed></extensions></trkpt>
   <trkpt lat="59.3270436696" lon="34.7123450447"><ele>176.372</ele><time>2026-08-17T05:03:30.644Z</time><hdop>3.75</hdop><vdop>2.5</vdop><extensions><gom:speed>0.469</gom:speed></extensions></trkpt>
   <trkpt lat="59.3270399815" lon="34.7123509959"><ele>175.819</ele><time>2026-08-17T05:03:31.645Z</time><hdop>3.75</hdop><vdop>2.5</vdop><extensions><gom:speed>0.329</gom:speed></extensions></trkpt>
   <trkpt lat="59.3270349943" lon="34.7123630658"><ele>175.288</ele><time>2026-08-17T05:03:32.644Z</time><hdop>3.75</hdop><vdop>2.5</vdop><extensions><gom:speed>0.729</gom:speed></extensions></trkpt>
   <trkpt lat="59.3270320606" lon="34.7123711962"><ele>174.866</ele><time>2026-08-17T05:03:33.644Z</time><hdop>3.75</hdop><vdop>2.5</vdop><extensions><gom:speed>0.329</gom:speed></extensions></trkpt>
   <trkpt lat="59.3270333598" lon="34.7123819251"><ele>174.286</ele><time>2026-08-17T05:03:34.645Z</time><hdop>3.75</hdop><vdop>2.5</vdop><extensions><gom:speed>0.679</gom:speed></extensions></trkpt>
   <trkpt lat="59.3270352877" lon="34.7123917319"><ele>173.776</ele><time>2026-08-17T05:03:35.644Z</time><hdop>3.75</hdop><vdop>2.5</vdop><extensions><gom:speed>0.629</gom:speed></extensions></trkpt>
   <trkpt lat="59.3270331922" lon="34.7123923186"><ele>173.48</ele><time>2026-08-17T05:03:36.644Z</time><hdop>3.75</hdop><vdop>2.5</vdop><extensions><gom:speed>0.0</gom:speed></extensions></trkpt>
   <trkpt lat="59.3270326893" lon="34.7123944979"><ele>173.16</ele><time>2026-08-17T05:03:37.644Z</time><hdop>3.75</hdop><vdop>2.5</vdop><extensions><gom:speed>0.309</gom:speed></extensions></trkpt>
   <trkpt lat="59.3270271991" lon="34.7124090825"><ele>173.195</ele><time>2026-08-17T05:03:38.644Z</time><hdop>3.75</hdop><vdop>2.5</vdop><extensions><gom:speed>0.469</gom:speed></extensions></trkpt>
   <trkpt lat="59.327019865" lon="34.7124183864"><ele>173.219</ele><time>2026-08-17T05:03:39.644Z</time><hdop>3.75</hdop><vdop>2.5</vdop><extensions><gom:speed>0.0</gom:speed></extensions></trkpt>
   <trkpt lat="59.3270138719" lon="34.7124322165"><ele>173.108</ele><time>2026-08-17T05:03:40.643Z</time><hdop>3.75</hdop><vdop>2.625</vdop><extensions><gom:speed>0.999</gom:speed></extensions></trkpt>
   <trkpt lat="59.3270108963" lon="34.7124424424"><ele>173.336</ele><time>2026-08-17T05:03:41.644Z</time><hdop>3.75</hdop><vdop>2.687</vdop><extensions><gom:speed>0.399</gom:speed></extensions></trkpt>
   <trkpt lat="59.3270140814" lon="34.7124673367"><ele>173.577</ele><time>2026-08-17T05:03:42.644Z</time><hdop>3.75</hdop><vdop>2.687</vdop><extensions><gom:speed>1.109</gom:speed></extensions></trkpt>
   <trkpt lat="59.3270137881" lon="34.71247597"><ele>173.745</ele><time>2026-08-17T05:03:43.643Z</time><hdop>3.75</hdop><vdop>2.5</vdop><extensions><gom:speed>0.189</gom:speed></extensions></trkpt>
   <trkpt lat="59.3270123631" lon="34.7124820888"><ele>174.16</ele><time>2026-08-17T05:03:44.644Z</time><hdop>3.75</hdop><vdop>2.5</vdop><extensions><gom:speed>0.289</gom:speed></extensions></trkpt>
   <trkpt lat="59.3270113992" lon="34.7124900516"><ele>174.378</ele><time>2026-08-17T05:03:45.644Z</time><hdop>3.75</hdop><vdop>2.5</vdop><extensions><gom:speed>0.239</gom:speed></extensions></trkpt>
   <trkpt lat="59.3270086751" lon="34.7124942426"><ele>174.38</ele><time>2026-08-17T05:03:46.644Z</time><hdop>3.75</hdop><vdop>2.5</vdop><extensions><gom:speed>0.259</gom:speed></extensions></trkpt>
   <trkpt lat="59.327003185" lon="34.7124992717"><ele>174.154</ele><time>2026-08-17T05:03:47.644Z</time><hdop>3.75</hdop><vdop>2.5</vdop><extensions><gom:speed>0.349</gom:speed></extensions></trkpt>
   <trkpt lat="59.3269972757" lon="34.7125054743"><ele>174.146</ele><time>2026-08-17T05:03:48.643Z</time><hdop>3.75</hdop><vdop>2.5</vdop><extensions><gom:speed>0.549</gom:speed></extensions></trkpt>
   <trkpt lat="59.3269938811" lon="34.7125121799"><ele>173.883</ele><time>2026-08-17T05:03:49.643Z</time><hdop>3.75</hdop><vdop>2.5</vdop><extensions><gom:speed>0.0</gom:speed></extensions></trkpt>
   <trkpt lat="59.3269970662" lon="34.7125182986"><ele>173.418</ele><time>2026-08-17T05:03:50.644Z</time><hdop>3.75</hdop><vdop>2.5</vdop><extensions><gom:speed>0.389</gom:speed></extensions></trkpt>
   <trkpt lat="59.326998072" lon="34.7125261776"><ele>172.987</ele><time>2026-08-17T05:03:51.644Z</time><hdop>3.75</hdop><vdop>2.5</vdop><extensions><gom:speed>0.219</gom:speed></extensions></trkpt>
   <trkpt lat="59.3269954736" lon="34.712527854"><ele>172.664</ele><time>2026-08-17T05:03:52.644Z</time><hdop>3.75</hdop><vdop>2.5</vdop><extensions><gom:speed>0.209</gom:speed></extensions></trkpt>
   <trkpt lat="59.3269908636" lon="34.7125240822"><ele>172.067</ele><time>2026-08-17T05:03:53.644Z</time><hdop>3.75</hdop><vdop>2.5</vdop><extensions><gom:speed>0.149</gom:speed></extensions></trkpt>
   <trkpt lat="59.3269864631" lon="34.7125224896"><ele>171.454</ele><time>2026-08-17T05:03:54.643Z</time><hdop>3.75</hdop><vdop>2.5</vdop><extensions><gom:speed>0.199</gom:speed></extensions></trkpt>
   <trkpt lat="59.3269824817" lon="34.7125234954"><ele>171.004</ele><time>2026-08-17T05:03:55.644Z</time><hdop>3.75</hdop><vdop>2.5</vdop><extensions><gom:speed>0.389</gom:speed></extensions></trkpt>
   <trkpt lat="59.3269778716" lon="34.7125292789"><ele>170.833</ele><time>2026-08-17T05:03:56.644Z</time><hdop>3.75</hdop><vdop>2.5</vdop><extensions><gom:speed>0.209</gom:speed></extensions></trkpt>
   <trkpt lat="59.3269762791" lon="34.7125349786"><ele>170.708</ele><time>2026-08-17T05:03:57.644Z</time><hdop>3.75</hdop><vdop>2.5</vdop><extensions><gom:speed>0.159</gom:speed></extensions></trkpt>
   <trkpt lat="59.3269766982" lon="34.7125480544"><ele>170.726</ele><time>2026-08-17T05:03:58.644Z</time><hdop>3.75</hdop><vdop>2.5</vdop><extensions><gom:speed>0.449</gom:speed></extensions></trkpt>
   <trkpt lat="59.3269768658" lon="34.7125556819"><ele>170.733</ele><time>2026-08-17T05:03:59.644Z</time><hdop>3.75</hdop><vdop>2.5</vdop><extensions><gom:speed>0.0</gom:speed></extensions></trkpt>
   <trkpt lat="59.3269776621" lon="34.7125597891"><ele>170.788</ele><time>2026-08-17T05:04:00.644Z</time><hdop>3.75</hdop><vdop>2.5</vdop><extensions><gom:speed>0.179</gom:speed></extensions></trkpt>
   <trkpt lat="59.3269780812" lon="34.7125669975"><ele>170.736</ele><time>2026-08-17T05:04:01.644Z</time><hdop>3.75</hdop><vdop>2.5</vdop><extensions><gom:speed>0.339</gom:speed></extensions></trkpt>
   <trkpt lat="59.3269792965" lon="34.7125792351"><ele>170.732</ele><time>2026-08-17T05:04:02.643Z</time><hdop>3.75</hdop><vdop>2.5</vdop><extensions><gom:speed>0.259</gom:speed></extensions></trkpt>
   <trkpt lat="59.3269856668" lon="34.7125985973"><ele>170.917</ele><time>2026-08-17T05:04:03.644Z</time><hdop>3.75</hdop><vdop>2.5</vdop><extensions><gom:speed>0.899</gom:speed></extensions></trkpt>
   <trkpt lat="59.3269910731" lon="34.7126125951"><ele>171.004</ele><time>2026-08-17T05:04:04.644Z</time><hdop>3.75</hdop><vdop>2.5</vdop><extensions><gom:speed>0.469</gom:speed></extensions></trkpt>
   <trkpt lat="59.3269961861" lon="34.7126238268"><ele>170.883</ele><time>2026-08-17T05:04:05.644Z</time><hdop>3.75</hdop><vdop>2.5</vdop><extensions><gom:speed>0.329</gom:speed></extensions></trkpt>
   <trkpt lat="59.3269975691" lon="34.7126409259"><ele>170.967</ele><time>2026-08-17T05:04:06.644Z</time><hdop>3.75</hdop><vdop>2.625</vdop><extensions><gom:speed>0.809</gom:speed></extensions></trkpt>
   <trkpt lat="59.3269996646" lon="34.7126474638"><ele>171.017</ele><time>2026-08-17T05:04:07.644Z</time><hdop>3.75</hdop><vdop>2.687</vdop><extensions><gom:speed>0.0</gom:speed></extensions></trkpt>
   <trkpt lat="59.3269996646" lon="34.7126550913"><ele>171.116</ele><time>2026-08-17T05:04:08.644Z</time><hdop>3.75</hdop><vdop>2.5</vdop><extensions><gom:speed>0.199</gom:speed></extensions></trkpt>
   <trkpt lat="59.3270004608" lon="34.7126574382"><ele>171.26</ele><time>2026-08-17T05:04:09.645Z</time><hdop>3.75</hdop><vdop>2.5</vdop><extensions><gom:speed>0.259</gom:speed></extensions></trkpt>
   <trkpt lat="59.3270046937" lon="34.7126539178"><ele>171.514</ele><time>2026-08-17T05:04:10.644Z</time><hdop>3.75</hdop><vdop>2.5</vdop><extensions><gom:speed>0.479</gom:speed></extensions></trkpt>
   <trkpt lat="59.3270106868" lon="34.712649224"><ele>171.942</ele><time>2026-08-17T05:04:11.644Z</time><hdop>3.75</hdop><vdop>2.5</vdop><extensions><gom:speed>0.0</gom:speed></extensions></trkpt>
   <trkpt lat="59.3270154645" lon="34.7126455359"><ele>172.177</ele><time>2026-08-17T05:04:12.644Z</time><hdop>3.75</hdop><vdop>2.75</vdop><extensions><gom:speed>0.479</gom:speed></extensions></trkpt>
   <trkpt lat="59.3270183981" lon="34.7126421832"><ele>172.323</ele><time>2026-08-17T05:04:13.645Z</time><hdop>3.75</hdop><vdop>2.5</vdop><extensions><gom:speed>0.0</gom:speed></extensions></trkpt>
   <trkpt lat="59.3270189849" lon="34.7126414288"><ele>172.41</ele><time>2026-08-17T05:04:14.644Z</time><hdop>3.75</hdop><vdop>2.5</vdop><extensions><gom:speed>0.0</gom:speed></extensions></trkpt>
   <trkpt lat="59.3270236787" lon="34.7126438596"><ele>172.495</ele><time>2026-08-17T05:04:15.644Z</time><hdop>3.75</hdop><vdop>2.5</vdop><extensions><gom:speed>0.0</gom:speed></extensions></trkpt>
   <trkpt lat="59.32702678" lon="34.7126425185"><ele>172.553</ele><time>2026-08-17T05:04:16.643Z</time><hdop>3.75</hdop><vdop>2.5</vdop><extensions><gom:speed>0.0</gom:speed></extensions></trkpt>
   <trkpt lat="59.327033276" lon="34.7126408421"><ele>172.96</ele><time>2026-08-17T05:04:17.643Z</time><hdop>3.75</hdop><vdop>2.5</vdop><extensions><gom:speed>0.589</gom:speed></extensions></trkpt>
   <trkpt lat="59.3270379699" lon="34.7126442787"><ele>173.656</ele><time>2026-08-17T05:04:18.644Z</time><hdop>3.75</hdop><vdop>2.5</vdop><extensions><gom:speed>0.629</gom:speed></extensions></trkpt>
   <trkpt lat="59.3270380956" lon="34.7126460389"><ele>174.068</ele><time>2026-08-17T05:04:19.644Z</time><hdop>3.75</hdop><vdop>2.5</vdop><extensions><gom:speed>0.0</gom:speed></extensions></trkpt>
   <trkpt lat="59.3270425799" lon="34.7126552589"><ele>174.119</ele><time>2026-08-17T05:04:20.643Z</time><hdop>3.75</hdop><vdop>2.5</vdop><extensions><gom:speed>0.789</gom:speed></extensions></trkpt>
   <trkpt lat="59.3270453878" lon="34.7126643952"><ele>174.062</ele><time>2026-08-17T05:04:21.644Z</time><hdop>3.75</hdop><vdop>2.5</vdop><extensions><gom:speed>0.169</gom:speed></extensions></trkpt>
   <trkpt lat="59.3270456812" lon="34.7126809914"><ele>173.977</ele><time>2026-08-17T05:04:22.644Z</time><hdop>3.75</hdop><vdop>2.5</vdop><extensions><gom:speed>0.539</gom:speed></extensions></trkpt>
   <trkpt lat="59.3270474833" lon="34.7126956597"><ele>173.967</ele><time>2026-08-17T05:04:23.644Z</time><hdop>3.75</hdop><vdop>2.5</vdop><extensions><gom:speed>0.409</gom:speed></extensions></trkpt>
   <trkpt lat="59.3270484892" lon="34.712705718"><ele>174.178</ele><time>2026-08-17T05:04:24.644Z</time><hdop>3.75</hdop><vdop>2.5</vdop><extensions><gom:speed>0.249</gom:speed></extensions></trkpt>
   <trkpt lat="59.3270502913" lon="34.7127173688"><ele>174.303</ele><time>2026-08-17T05:04:25.644Z</time><hdop>3.75</hdop><vdop>2.5</vdop><extensions><gom:speed>0.409</gom:speed></extensions></trkpt>
   <trkpt lat="59.3270524706" lon="34.712733043"><ele>174.476</ele><time>2026-08-17T05:04:26.643Z</time><hdop>3.75</hdop><vdop>2.5</vdop><extensions><gom:speed>0.559</gom:speed></extensions></trkpt>
   <trkpt lat="59.3270499979" lon="34.7127514832"><ele>174.448</ele><time>2026-08-17T05:04:27.643Z</time><hdop>3.75</hdop><vdop>2.5</vdop><extensions><gom:speed>0.579</gom:speed></extensions></trkpt>
   <trkpt lat="59.3270470642" lon="34.7127679955"><ele>174.435</ele><time>2026-08-17T05:04:28.644Z</time><hdop>3.75</hdop><vdop>2.5</vdop><extensions><gom:speed>0.619</gom:speed></extensions></trkpt>
   <trkpt lat="59.3270455974" lon="34.7127752878"><ele>174.454</ele><time>2026-08-17T05:04:29.645Z</time><hdop>3.75</hdop><vdop>2.5</vdop><extensions><gom:speed>0.199</gom:speed></extensions></trkpt>
   <trkpt lat="59.3270394786" lon="34.7127853461"><ele>174.424</ele><time>2026-08-17T05:04:30.644Z</time><hdop>3.75</hdop><vdop>2.5</vdop><extensions><gom:speed>0.789</gom:speed></extensions></trkpt>
   <trkpt lat="59.3270373831" lon="34.7127887827"><ele>174.392</ele><time>2026-08-17T05:04:31.644Z</time><hdop>3.75</hdop><vdop>2.5</vdop><extensions><gom:speed>0.0</gom:speed></extensions></trkpt>
   <trkpt lat="59.3270371736" lon="34.7127892856"><ele>174.373</ele><time>2026-08-17T05:04:32.643Z</time><hdop>3.75</hdop><vdop>2.5</vdop><extensions><gom:speed>0.0</gom:speed></extensions></trkpt>
   <trkpt lat="59.3270370898" lon="34.7127893694"><ele>174.361</ele><time>2026-08-17T05:04:33.644Z</time><hdop>3.75</hdop><vdop>2.5</vdop><extensions><gom:speed>0.0</gom:speed></extensions></trkpt>
   <trkpt lat="59.3270370898" lon="34.7127894532"><ele>174.354</ele><time>2026-08-17T05:04:34.645Z</time><hdop>3.75</hdop><vdop>2.5</vdop><extensions><gom:speed>0.0</gom:speed></extensions></trkpt>
   <trkpt lat="59.3270370898" lon="34.7127894532"><ele>174.35</ele><time>2026-08-17T05:04:35.644Z</time><hdop>3.75</hdop><vdop>2.5</vdop><extensions><gom:speed>0.0</gom:speed></extensions></trkpt>
   <trkpt lat="59.3270370898" lon="34.7127894532"><ele>174.347</ele><time>2026-08-17T05:04:36.645Z</time><hdop>3.75</hdop><vdop>2.5</vdop><extensions><gom:speed>0.0</gom:speed></extensions></trkpt>
   <trkpt lat="59.327036964" lon="34.7127894532"><ele>174.345</ele><time>2026-08-17T05:04:37.645Z</time><hdop>3.75</hdop><vdop>2.5</vdop><extensions><gom:speed>0.0</gom:speed></extensions></trkpt>
   <trkpt lat="59.3270359582" lon="34.7127933927"><ele>174.263</ele><time>2026-08-17T05:04:38.645Z</time><hdop>3.75</hdop><vdop>2.5</vdop><extensions><gom:speed>0.239</gom:speed></extensions></trkpt>
   <trkpt lat="59.3270370898" lon="34.7127965778"><ele>174.045</ele><time>2026-08-17T05:04:39.645Z</time><hdop>3.75</hdop><vdop>2.5</vdop><extensions><gom:speed>0.179</gom:speed></extensions></trkpt>
   <trkpt lat="59.3270392691" lon="34.712798338"><ele>173.741</ele><time>2026-08-17T05:04:40.645Z</time><hdop>3.75</hdop><vdop>2.5</vdop><extensions><gom:speed>0.0</gom:speed></extensions></trkpt>
   <trkpt lat="59.3270380956" lon="34.7128067199"><ele>173.311</ele><time>2026-08-17T05:04:41.644Z</time><hdop>3.75</hdop><vdop>2.5</vdop><extensions><gom:speed>0.0</gom:speed></extensions></trkpt>
   <trkpt lat="59.327034198" lon="34.7128255792"><ele>173.26</ele><time>2026-08-17T05:04:42.644Z</time><hdop>3.75</hdop><vdop>2.5</vdop><extensions><gom:speed>0.519</gom:speed></extensions></trkpt>
   <trkpt lat="59.3270285821" lon="34.7128412534"><ele>173.23</ele><time>2026-08-17T05:04:43.645Z</time><hdop>3.75</hdop><vdop>2.5</vdop><extensions><gom:speed>0.0</gom:speed></extensions></trkpt>
   <trkpt lat="59.3270245588" lon="34.7128481265"><ele>173.207</ele><time>2026-08-17T05:04:44.645Z</time><hdop>3.75</hdop><vdop>2.5</vdop><extensions><gom:speed>0.379</gom:speed></extensions></trkpt>
   <trkpt lat="59.3270218766" lon="34.7128498867"><ele>172.999</ele><time>2026-08-17T05:04:45.644Z</time><hdop>3.75</hdop><vdop>2.5</vdop><extensions><gom:speed>0.0</gom:speed></extensions></trkpt>
   <trkpt lat="59.3270172666" lon="34.7128522337"><ele>172.482</ele><time>2026-08-17T05:04:46.646Z</time><hdop>3.75</hdop><vdop>2.562</vdop><extensions><gom:speed>0.259</gom:speed></extensions></trkpt>
   <trkpt lat="59.3270146682" lon="34.7128524851"><ele>172.245</ele><time>2026-08-17T05:04:47.645Z</time><hdop>3.75</hdop><vdop>2.625</vdop><extensions><gom:speed>0.0</gom:speed></extensions></trkpt>
   <trkpt lat="59.3270138719" lon="34.7128555864"><ele>171.643</ele><time>2026-08-17T05:04:48.645Z</time><hdop>3.75</hdop><vdop>2.562</vdop><extensions><gom:speed>0.379</gom:speed></extensions></trkpt>
   <trkpt lat="59.3270104772" lon="34.7128612861"><ele>171.146</ele><time>2026-08-17T05:04:49.645Z</time><hdop>3.75</hdop><vdop>2.687</vdop><extensions><gom:speed>0.459</gom:speed></extensions></trkpt>
   <trkpt lat="59.3270040651" lon="34.7128697518"><ele>170.728</ele><time>2026-08-17T05:04:50.644Z</time><hdop>3.75</hdop><vdop>2.75</vdop><extensions><gom:speed>0.639</gom:speed></extensions></trkpt>
   <trkpt lat="59.326998994" lon="34.7128761221"><ele>170.576</ele><time>2026-08-17T05:04:51.645Z</time><hdop>3.75</hdop><vdop>2.562</vdop><extensions><gom:speed>0.419</gom:speed></extensions></trkpt>
   <trkpt lat="59.3269926657" lon="34.7128878568"><ele>170.534</ele><time>2026-08-17T05:04:52.644Z</time><hdop>3.75</hdop><vdop>2.5</vdop><extensions><gom:speed>0.799</gom:speed></extensions></trkpt>
   <trkpt lat="59.3269884747" lon="34.7128991723"><ele>170.37</ele><time>2026-08-17T05:04:53.645Z</time><hdop>3.75</hdop><vdop>2.5</vdop><extensions><gom:speed>0.409</gom:speed></extensions></trkpt>
   <trkpt lat="59.3269835713" lon="34.7129121643"><ele>170.255</ele><time>2026-08-17T05:04:54.645Z</time><hdop>3.75</hdop><vdop>2.5</vdop><extensions><gom:speed>0.659</gom:speed></extensions></trkpt>
   <trkpt lat="59.3269820626" lon="34.7129251562"><ele>170.285</ele><time>2026-08-17T05:04:55.645Z</time><hdop>3.75</hdop><vdop>2.562</vdop><extensions><gom:speed>0.359</gom:speed></extensions></trkpt>
   <trkpt lat="59.326979087" lon="34.7129459433"><ele>170.542</ele><time>2026-08-17T05:04:56.645Z</time><hdop>3.75</hdop><vdop>2.625</vdop><extensions><gom:speed>0.689</gom:speed></extensions></trkpt>
   <trkpt lat="59.3269761952" lon="34.7129623719"><ele>170.764</ele><time>2026-08-17T05:04:57.645Z</time><hdop>3.75</hdop><vdop>2.812</vdop><extensions><gom:speed>0.609</gom:speed></extensions></trkpt>
   <trkpt lat="59.3269752732" lon="34.712978968"><ele>171.322</ele><time>2026-08-17T05:04:58.644Z</time><hdop>3.75</hdop><vdop>2.875</vdop><extensions><gom:speed>0.669</gom:speed></extensions></trkpt>
   <trkpt lat="59.32697586" lon="34.7129853383"><ele>171.866</ele><time>2026-08-17T05:04:59.645Z</time><hdop>3.75</hdop><vdop>2.75</vdop><extensions><gom:speed>0.209</gom:speed></extensions></trkpt>
   <trkpt lat="59.3269759857" lon="34.7129807282"><ele>171.776</ele><time>2026-08-17T05:05:00.645Z</time><hdop>3.75</hdop><vdop>2.625</vdop><extensions><gom:speed>0.0</gom:speed></extensions></trkpt>
   <trkpt lat="59.3269760695" lon="34.7129793871"><ele>171.718</ele><time>2026-08-17T05:05:01.645Z</time><hdop>3.75</hdop><vdop>2.562</vdop><extensions><gom:speed>0.0</gom:speed></extensions></trkpt>
   <trkpt lat="59.3269761952" lon="34.7129791357"><ele>171.682</ele><time>2026-08-17T05:05:02.646Z</time><hdop>3.75</hdop><vdop>2.625</vdop><extensions><gom:speed>0.0</gom:speed></extensions></trkpt>
   <trkpt lat="59.3269762791" lon="34.7129790519"><ele>171.676</ele><time>2026-08-17T05:05:03.646Z</time><hdop>3.75</hdop><vdop>2.687</vdop><extensions><gom:speed>0.0</gom:speed></extensions></trkpt>
   <trkpt lat="59.3269780812" lon="34.7129924629"><ele>171.711</ele><time>2026-08-17T05:05:04.644Z</time><hdop>3.75</hdop><vdop>2.5</vdop><extensions><gom:speed>0.0</gom:speed></extensions></trkpt>
   <trkpt lat="59.3269798833" lon="34.7130113222"><ele>172.153</ele><time>2026-08-17T05:05:05.646Z</time><hdop>3.75</hdop><vdop>2.5</vdop><extensions><gom:speed>1.039</gom:speed></extensions></trkpt>
   <trkpt lat="59.3269796737" lon="34.7130151779"><ele>172.444</ele><time>2026-08-17T05:05:06.646Z</time><hdop>3.75</hdop><vdop>2.5</vdop><extensions><gom:speed>0.0</gom:speed></extensions></trkpt>
   <trkpt lat="59.3269816854" lon="34.713024398"><ele>172.644</ele><time>2026-08-17T05:05:07.646Z</time><hdop>3.75</hdop><vdop>2.5</vdop><extensions><gom:speed>0.639</gom:speed></extensions></trkpt>
   <trkpt lat="59.3269845771" lon="34.7130306844"><ele>172.853</ele><time>2026-08-17T05:05:08.645Z</time><hdop>3.75</hdop><vdop>2.5</vdop><extensions><gom:speed>0.349</gom:speed></extensions></trkpt>
   <trkpt lat="59.3269871755" lon="34.7130321931"><ele>173.226</ele><time>2026-08-17T05:05:09.645Z</time><hdop>3.75</hdop><vdop>2.5</vdop><extensions><gom:speed>0.339</gom:speed></extensions></trkpt>
   <trkpt lat="59.3269890615" lon="34.7130337857"><ele>173.379</ele><time>2026-08-17T05:05:10.645Z</time><hdop>3.75</hdop><vdop>2.5</vdop><extensions><gom:speed>0.249</gom:speed></extensions></trkpt>
   <trkpt lat="59.3269945935" lon="34.7130384796"><ele>174.13</ele><time>2026-08-17T05:05:11.645Z</time><hdop>3.75</hdop><vdop>2.5</vdop><extensions><gom:speed>0.309</gom:speed></extensions></trkpt>
   <trkpt lat="59.3269979882" lon="34.7130445983"><ele>175.125</ele><time>2026-08-17T05:05:12.646Z</time><hdop>3.75</hdop><vdop>2.5</vdop><extensions><gom:speed>0.229</gom:speed></extensions></trkpt>
   <trkpt lat="59.327000377" lon="34.7130472806"><ele>175.72</ele><time>2026-08-17T05:05:13.645Z</time><hdop>3.75</hdop><vdop>2.5</vdop><extensions><gom:speed>0.0</gom:speed></extensions></trkpt>
   <trkpt lat="59.3270008799" lon="34.7130479511"><ele>176.074</ele><time>2026-08-17T05:05:14.645Z</time><hdop>3.75</hdop><vdop>2.5</vdop><extensions><gom:speed>0.0</gom:speed></extensions></trkpt>
   <trkpt lat="59.3270009638" lon="34.7130481187"><ele>176.284</ele><time>2026-08-17T05:05:15.645Z</time><hdop>3.75</hdop><vdop>2.5</vdop><extensions><gom:speed>0.0</gom:speed></extensions></trkpt>
   <trkpt lat="59.3270009638" lon="34.7130481187"><ele>176.409</ele><time>2026-08-17T05:05:16.645Z</time><hdop>3.75</hdop><vdop>2.5</vdop><extensions><gom:speed>0.0</gom:speed></extensions></trkpt>
   <trkpt lat="59.3270009638" lon="34.7130481187"><ele>176.484</ele><time>2026-08-17T05:05:17.645Z</time><hdop>3.75</hdop><vdop>2.5</vdop><extensions><gom:speed>0.0</gom:speed></extensions></trkpt>
   <trkpt lat="59.3270009638" lon="34.7130481187"><ele>176.531</ele><time>2026-08-17T05:05:18.645Z</time><hdop>3.75</hdop><vdop>2.5</vdop><extensions><gom:speed>0.0</gom:speed></extensions></trkpt>
   <trkpt lat="59.3270009638" lon="34.7130481187"><ele>176.56</ele><time>2026-08-17T05:05:19.645Z</time><hdop>3.75</hdop><vdop>2.5</vdop><extensions><gom:speed>0.0</gom:speed></extensions></trkpt>
   <trkpt lat="59.3270009638" lon="34.7130481187"><ele>176.578</ele><time>2026-08-17T05:05:20.645Z</time><hdop>3.75</hdop><vdop>2.5</vdop><extensions><gom:speed>0.0</gom:speed></extensions></trkpt>
   <trkpt lat="59.3270009638" lon="34.7130481187"><ele>176.589</ele><time>2026-08-17T05:05:21.645Z</time><hdop>3.75</hdop><vdop>2.5</vdop><extensions><gom:speed>0.0</gom:speed></extensions></trkpt>
   <trkpt lat="59.327002263" lon="34.7130488731"><ele>176.78</ele><time>2026-08-17T05:05:22.645Z</time><hdop>3.75</hdop><vdop>2.5</vdop><extensions><gom:speed>0.289</gom:speed></extensions></trkpt>
   <trkpt lat="59.3270074597" lon="34.7130441793"><ele>177.078</ele><time>2026-08-17T05:05:23.644Z</time><hdop>3.75</hdop><vdop>2.5</vdop><extensions><gom:speed>0.399</gom:speed></extensions></trkpt>
   <trkpt lat="59.3270090942" lon="34.7130441793"><ele>177.383</ele><time>2026-08-17T05:05:24.645Z</time><hdop>3.75</hdop><vdop>2.5</vdop><extensions><gom:speed>0.199</gom:speed></extensions></trkpt>
   <trkpt lat="59.3270113992" lon="34.7130575903"><ele>177.455</ele><time>2026-08-17T05:05:25.646Z</time><hdop>3.75</hdop><vdop>2.5</vdop><extensions><gom:speed>0.989</gom:speed></extensions></trkpt>
   <trkpt lat="59.3270106868" lon="34.7130626194"><ele>177.833</ele><time>2026-08-17T05:05:26.645Z</time><hdop>3.75</hdop><vdop>2.5</vdop><extensions><gom:speed>0.0</gom:speed></extensions></trkpt>
   <trkpt lat="59.3270135785" lon="34.7130839933"><ele>178.46</ele><time>2026-08-17T05:05:27.645Z</time><hdop>3.75</hdop><vdop>2.5</vdop><extensions><gom:speed>0.679</gom:speed></extensions></trkpt>
   <trkpt lat="59.3270148777" lon="34.7130928781"><ele>178.774</ele><time>2026-08-17T05:05:28.645Z</time><hdop>3.75</hdop><vdop>2.5</vdop><extensions><gom:speed>0.0</gom:speed></extensions></trkpt>
   <trkpt lat="59.3270245588" lon="34.7130918723"><ele>178.89</ele><time>2026-08-17T05:05:29.645Z</time><hdop>3.75</hdop><vdop>2.5</vdop><extensions><gom:speed>0.969</gom:speed></extensions></trkpt>
   <trkpt lat="59.3270345752" lon="34.7130828198"><ele>179.049</ele><time>2026-08-17T05:05:30.645Z</time><hdop>3.75</hdop><vdop>2.5</vdop><extensions><gom:speed>0.599</gom:speed></extensions></trkpt>
   <trkpt lat="59.3270428733" lon="34.7130696602"><ele>179.521</ele><time>2026-08-17T05:05:31.645Z</time><hdop>3.75</hdop><vdop>2.625</vdop><extensions><gom:speed>0.779</gom:speed></extensions></trkpt>
   <trkpt lat="59.3270455974" lon="34.7130736836"><ele>179.055</ele><time>2026-08-17T05:05:32.645Z</time><hdop>3.75</hdop><vdop>2.562</vdop><extensions><gom:speed>0.189</gom:speed></extensions></trkpt>
   <trkpt lat="59.3270505846" lon="34.7130939678"><ele>178.771</ele><time>2026-08-17T05:05:33.646Z</time><hdop>3.75</hdop><vdop>2.625</vdop><extensions><gom:speed>0.839</gom:speed></extensions></trkpt>
   <trkpt lat="59.3270515905" lon="34.7131069597"><ele>178.628</ele><time>2026-08-17T05:05:34.645Z</time><hdop>3.75</hdop><vdop>2.562</vdop><extensions><gom:speed>0.0</gom:speed></extensions></trkpt>
   <trkpt lat="59.3270589665" lon="34.7131171856"><ele>178.578</ele><time>2026-08-17T05:05:35.646Z</time><hdop>3.75</hdop><vdop>2.812</vdop><extensions><gom:speed>0.859</gom:speed></extensions></trkpt>
   <trkpt lat="59.3270626965" lon="34.7131116536"><ele>178.526</ele><time>2026-08-17T05:05:36.645Z</time><hdop>3.75</hdop><vdop>2.75</vdop><extensions><gom:speed>0.0</gom:speed></extensions></trkpt>
   <trkpt lat="59.3270646662" lon="34.713109139"><ele>178.558</ele><time>2026-08-17T05:05:37.645Z</time><hdop>3.75</hdop><vdop>2.75</vdop><extensions><gom:speed>0.0</gom:speed></extensions></trkpt>
   <trkpt lat="59.3270652949" lon="34.7131086361"><ele>178.58</ele><time>2026-08-17T05:05:38.645Z</time><hdop>3.75</hdop><vdop>2.562</vdop><extensions><gom:speed>0.0</gom:speed></extensions></trkpt>
   <trkpt lat="59.3270747664" lon="34.7131141681"><ele>178.908</ele><time>2026-08-17T05:05:39.645Z</time><hdop>3.75</hdop><vdop>2.5</vdop><extensions><gom:speed>0.859</gom:speed></extensions></trkpt>
   <trkpt lat="59.3270842799" lon="34.7131153416"><ele>179.335</ele><time>2026-08-17T05:05:40.645Z</time><hdop>3.75</hdop><vdop>2.5</vdop><extensions><gom:speed>0.669</gom:speed></extensions></trkpt>
   <trkpt lat="59.3270880936" lon="34.7131172694"><ele>179.593</ele><time>2026-08-17T05:05:41.645Z</time><hdop>3.75</hdop><vdop>2.5</vdop><extensions><gom:speed>0.0</gom:speed></extensions></trkpt>
   <trkpt lat="59.3270956793" lon="34.7131113183"><ele>179.818</ele><time>2026-08-17T05:05:42.646Z</time><hdop>3.75</hdop><vdop>2.5</vdop><extensions><gom:speed>0.869</gom:speed></extensions></trkpt>
   <trkpt lat="59.3271015885" lon="34.7131079655"><ele>180.12</ele><time>2026-08-17T05:05:43.645Z</time><hdop>3.75</hdop><vdop>2.5</vdop><extensions><gom:speed>0.369</gom:speed></extensions></trkpt>
   <trkpt lat="59.3271126945" lon="34.7131115698"><ele>180.479</ele><time>2026-08-17T05:05:44.645Z</time><hdop>3.75</hdop><vdop>2.687</vdop><extensions><gom:speed>0.829</gom:speed></extensions></trkpt>
   <trkpt lat="59.327120364" lon="34.7131178562"><ele>180.873</ele><time>2026-08-17T05:05:45.644Z</time><hdop>3.75</hdop><vdop>3.0</vdop><extensions><gom:speed>0.579</gom:speed></extensions></trkpt>
   <trkpt lat="59.327121286" lon="34.713126741"><ele>181.29</ele><time>2026-08-17T05:05:46.645Z</time><hdop>3.75</hdop><vdop>2.875</vdop><extensions><gom:speed>0.0</gom:speed></extensions></trkpt>
   <trkpt lat="59.3271197772" lon="34.7131351229"><ele>181.461</ele><time>2026-08-17T05:05:47.645Z</time><hdop>3.75</hdop><vdop>2.875</vdop><extensions><gom:speed>0.0</gom:speed></extensions></trkpt>
   <trkpt lat="59.3271179751" lon="34.7131344524"><ele>181.094</ele><time>2026-08-17T05:05:48.645Z</time><hdop>3.75</hdop><vdop>2.812</vdop><extensions><gom:speed>0.0</gom:speed></extensions></trkpt>
   <trkpt lat="59.3271172627" lon="34.7131332789"><ele>180.767</ele><time>2026-08-17T05:05:49.645Z</time><hdop>3.75</hdop><vdop>2.75</vdop><extensions><gom:speed>0.0</gom:speed></extensions></trkpt>
   <trkpt lat="59.327117095" lon="34.7131328598"><ele>180.569</ele><time>2026-08-17T05:05:50.645Z</time><hdop>3.75</hdop><vdop>2.75</vdop><extensions><gom:speed>0.0</gom:speed></extensions></trkpt>
   <trkpt lat="59.3271157958" lon="34.7131347876"><ele>180.342</ele><time>2026-08-17T05:05:51.644Z</time><hdop>3.75</hdop><vdop>2.562</vdop><extensions><gom:speed>0.0</gom:speed></extensions></trkpt>
   <trkpt lat="59.3271139937" lon="34.7131378889"><ele>180.213</ele><time>2026-08-17T05:05:52.645Z</time><hdop>3.75</hdop><vdop>2.562</vdop><extensions><gom:speed>0.0</gom:speed></extensions></trkpt>
   <trkpt lat="59.3271134908" lon="34.7131388948"><ele>180.137</ele><time>2026-08-17T05:05:53.645Z</time><hdop>4.812</hdop><vdop>2.5</vdop><extensions><gom:speed>0.0</gom:speed></extensions></trkpt>
   <trkpt lat="59.3271132813" lon="34.7131393977"><ele>180.096</ele><time>2026-08-17T05:05:54.645Z</time><hdop>6.187</hdop><vdop>2.5</vdop><extensions><gom:speed>0.0</gom:speed></extensions></trkpt>
   <trkpt lat="59.3271131974" lon="34.7131395653"><ele>180.07</ele><time>2026-08-17T05:05:55.645Z</time><hdop>7.437</hdop><vdop>2.5</vdop><extensions><gom:speed>0.0</gom:speed></extensions></trkpt>
   <trkpt lat="59.3271130717" lon="34.7131395653"><ele>180.054</ele><time>2026-08-17T05:05:56.645Z</time><hdop>8.687</hdop><vdop>2.5</vdop><extensions><gom:speed>0.0</gom:speed></extensions></trkpt>
   <trkpt lat="59.3271130717" lon="34.7131395653"><ele>180.043</ele><time>2026-08-17T05:05:57.645Z</time><hdop>8.875</hdop><vdop>2.5</vdop><extensions><gom:speed>0.0</gom:speed></extensions></trkpt>
   <trkpt lat="59.3271128622" lon="34.7131395653"><ele>180.031</ele><time>2026-08-17T05:05:58.645Z</time><hdop>9.875</hdop><vdop>2.5</vdop><extensions><gom:speed>0.0</gom:speed></extensions></trkpt>
   <trkpt lat="59.3271127783" lon="34.7131394815"><ele>180.019</ele><time>2026-08-17T05:05:59.645Z</time><hdop>9.875</hdop><vdop>2.5</vdop><extensions><gom:speed>0.0</gom:speed></extensions></trkpt>
   <trkpt lat="59.3271125688" lon="34.7131393977"><ele>180.011</ele><time>2026-08-17T05:06:00.645Z</time><hdop>9.875</hdop><vdop>2.5</vdop><extensions><gom:speed>0.0</gom:speed></extensions></trkpt>
   <trkpt lat="59.3271123593" lon="34.7131393977"><ele>180.001</ele><time>2026-08-17T05:06:01.645Z</time><hdop>9.875</hdop><vdop>2.5</vdop><extensions><gom:speed>0.0</gom:speed></extensions></trkpt>
   <trkpt lat="59.3271122754" lon="34.7131394815"><ele>179.993</ele><time>2026-08-17T05:06:02.645Z</time><hdop>8.687</hdop><vdop>2.5</vdop><extensions><gom:speed>0.0</gom:speed></extensions></trkpt>
   <trkpt lat="59.3271121916" lon="34.7131394815"><ele>179.985</ele><time>2026-08-17T05:06:03.645Z</time><hdop>7.437</hdop><vdop>2.5</vdop><extensions><gom:speed>0.0</gom:speed></extensions></trkpt>
   <trkpt lat="59.3271102638" lon="34.7131445945"><ele>179.845</ele><time>2026-08-17T05:06:04.645Z</time><hdop>6.812</hdop><vdop>2.5</vdop><extensions><gom:speed>0.0</gom:speed></extensions></trkpt>
   <trkpt lat="59.3271097609" lon="34.7131465223"><ele>179.797</ele><time>2026-08-17T05:06:05.644Z</time><hdop>5.812</hdop><vdop>2.5</vdop><extensions><gom:speed>0.0</gom:speed></extensions></trkpt>
   <trkpt lat="59.327109677" lon="34.7131470252"><ele>179.768</ele><time>2026-08-17T05:06:06.645Z</time><hdop>3.75</hdop><vdop>2.5</vdop><extensions><gom:speed>0.0</gom:speed></extensions></trkpt>
   <trkpt lat="59.327109677" lon="34.7131471928"><ele>179.751</ele><time>2026-08-17T05:06:07.644Z</time><hdop>3.75</hdop><vdop>2.5</vdop><extensions><gom:speed>0.0</gom:speed></extensions></trkpt>
   <trkpt lat="59.3271095932" lon="34.7131472767"><ele>179.74</ele><time>2026-08-17T05:06:08.645Z</time><hdop>3.75</hdop><vdop>2.5</vdop><extensions><gom:speed>0.0</gom:speed></extensions></trkpt>
   <trkpt lat="59.3271095932" lon="34.7131472767"><ele>179.732</ele><time>2026-08-17T05:06:09.645Z</time><hdop>3.75</hdop><vdop>2.5</vdop><extensions><gom:speed>0.0</gom:speed></extensions></trkpt>
   <trkpt lat="59.3271095932" lon="34.7131473605"><ele>179.728</ele><time>2026-08-17T05:06:10.644Z</time><hdop>3.75</hdop><vdop>2.5</vdop><extensions><gom:speed>0.0</gom:speed></extensions></trkpt>
   <trkpt lat="59.3271094675" lon="34.7131473605"><ele>179.725</ele><time>2026-08-17T05:06:11.645Z</time><hdop>3.75</hdop><vdop>2.5</vdop><extensions><gom:speed>0.0</gom:speed></extensions></trkpt>
   <trkpt lat="59.3271094675" lon="34.7131474443"><ele>179.725</ele><time>2026-08-17T05:06:12.644Z</time><hdop>3.75</hdop><vdop>2.5</vdop><extensions><gom:speed>0.0</gom:speed></extensions></trkpt>
   <trkpt lat="59.3271095932" lon="34.7131474443"><ele>179.725</ele><time>2026-08-17T05:06:13.645Z</time><hdop>3.75</hdop><vdop>2.5</vdop><extensions><gom:speed>0.0</gom:speed></extensions></trkpt>
   <trkpt lat="59.3271095932" lon="34.7131474443"><ele>179.726</ele><time>2026-08-17T05:06:14.644Z</time><hdop>3.75</hdop><vdop>2.5</vdop><extensions><gom:speed>0.0</gom:speed></extensions></trkpt>
   <trkpt lat="59.3271095932" lon="34.7131474443"><ele>179.728</ele><time>2026-08-17T05:06:15.645Z</time><hdop>3.75</hdop><vdop>2.5</vdop><extensions><gom:speed>0.0</gom:speed></extensions></trkpt>
   <trkpt lat="59.3271095932" lon="34.7131474443"><ele>179.727</ele><time>2026-08-17T05:06:16.644Z</time><hdop>3.75</hdop><vdop>2.5</vdop><extensions><gom:speed>0.0</gom:speed></extensions></trkpt>
   <trkpt lat="59.3271094675" lon="34.7131477796"><ele>179.727</ele><time>2026-08-17T05:06:17.645Z</time><hdop>3.75</hdop><vdop>2.5</vdop><extensions><gom:speed>0.0</gom:speed></extensions></trkpt>
   <trkpt lat="59.3271094675" lon="34.7131478634"><ele>179.726</ele><time>2026-08-17T05:06:18.645Z</time><hdop>3.75</hdop><vdop>2.5</vdop><extensions><gom:speed>0.0</gom:speed></extensions></trkpt>
   <trkpt lat="59.3271094675" lon="34.7131478634"><ele>179.727</ele><time>2026-08-17T05:06:19.644Z</time><hdop>3.75</hdop><vdop>2.5</vdop><extensions><gom:speed>0.0</gom:speed></extensions></trkpt>
   <trkpt lat="59.3271094675" lon="34.7131478634"><ele>179.73</ele><time>2026-08-17T05:06:20.645Z</time><hdop>3.75</hdop><vdop>2.5</vdop><extensions><gom:speed>0.0</gom:speed></extensions></trkpt>
   <trkpt lat="59.3271092999" lon="34.7131481987"><ele>179.726</ele><time>2026-08-17T05:06:21.645Z</time><hdop>3.75</hdop><vdop>2.5</vdop><extensions><gom:speed>0.0</gom:speed></extensions></trkpt>
   <trkpt lat="59.3271106829" lon="34.713152222"><ele>179.722</ele><time>2026-08-17T05:06:22.652Z</time><hdop>3.625</hdop><vdop>2.5</vdop><extensions><gom:speed>0.065</gom:speed></extensions></trkpt>
   <trkpt lat="59.3271102638" lon="34.7131525573"><ele>179.716</ele><time>2026-08-17T05:06:23.645Z</time><hdop>3.5</hdop><vdop>2.5</vdop><extensions><gom:speed>0.069</gom:speed></extensions></trkpt>
   <trkpt lat="59.3271102638" lon="34.7131534793"><ele>179.712</ele><time>2026-08-17T05:06:24.652Z</time><hdop>3.312</hdop><vdop>2.5</vdop><extensions><gom:speed>0.069</gom:speed></extensions></trkpt>
   <trkpt lat="59.3271100961" lon="34.7131535631"><ele>179.709</ele><time>2026-08-17T05:06:25.182Z</time><hdop>3.25</hdop><vdop>2.5</vdop><extensions><gom:speed>0.073</gom:speed></extensions></trkpt>
   <trkpt lat="59.3271098866" lon="34.7131535631"><ele>179.705</ele><time>2026-08-17T05:06:25.645Z</time><hdop>3.125</hdop><vdop>2.562</vdop><extensions><gom:speed>0.071</gom:speed></extensions></trkpt>
   <trkpt lat="59.3271098866" lon="34.7131543175"><ele>179.7</ele><time>2026-08-17T05:06:26.652Z</time><hdop>3.0</hdop><vdop>2.687</vdop><extensions><gom:speed>0.071</gom:speed></extensions></trkpt>
   <trkpt lat="59.3271097609" lon="34.7131543175"><ele>179.695</ele><time>2026-08-17T05:06:27.645Z</time><hdop>3.0</hdop><vdop>2.875</vdop><extensions><gom:speed>0.073</gom:speed></extensions></trkpt>
   <trkpt lat="59.3271097609" lon="34.7131546527"><ele>179.69</ele><time>2026-08-17T05:06:28.644Z</time><hdop>3.0</hdop><vdop>2.812</vdop><extensions><gom:speed>0.075</gom:speed></extensions></trkpt>
   <trkpt lat="59.3271098866" lon="34.7131554909"><ele>179.688</ele><time>2026-08-17T05:06:29.652Z</time><hdop>3.0</hdop><vdop>2.75</vdop><extensions><gom:speed>0.075</gom:speed></extensions></trkpt>
   <trkpt lat="59.3271098866" lon="34.7131550718"><ele>179.692</ele><time>2026-08-17T05:06:30.646Z</time><hdop>3.0</hdop><vdop>2.687</vdop><extensions><gom:speed>0.068</gom:speed></extensions></trkpt>
   <trkpt lat="59.3271099704" lon="34.7131556586"><ele>179.695</ele><time>2026-08-17T05:06:31.454Z</time><hdop>3.0</hdop><vdop>2.687</vdop><extensions><gom:speed>0.068</gom:speed></extensions></trkpt>
   <trkpt lat="59.3271098866" lon="34.7131552395"><ele>179.695</ele><time>2026-08-17T05:06:32.645Z</time><hdop>3.0</hdop><vdop>2.75</vdop><extensions><gom:speed>0.07</gom:speed></extensions></trkpt>
   <trkpt lat="59.3271098866" lon="34.7131559938"><ele>179.694</ele><time>2026-08-17T05:06:33.652Z</time><hdop>3.0</hdop><vdop>2.75</vdop><extensions><gom:speed>0.07</gom:speed></extensions></trkpt>
   <trkpt lat="59.3271098866" lon="34.7131554909"><ele>179.693</ele><time>2026-08-17T05:06:34.646Z</time><hdop>3.0</hdop><vdop>2.75</vdop><extensions><gom:speed>0.07</gom:speed></extensions></trkpt>
   <trkpt lat="59.3271098866" lon="34.7131559938"><ele>179.692</ele><time>2026-08-17T05:06:35.652Z</time><hdop>3.0</hdop><vdop>2.812</vdop><extensions><gom:speed>0.07</gom:speed></extensions></trkpt>
   <trkpt lat="59.3271098866" lon="34.7131559938"><ele>179.693</ele><time>2026-08-17T05:06:36.652Z</time><hdop>3.0</hdop><vdop>2.812</vdop><extensions><gom:speed>0.072</gom:speed></extensions></trkpt>
   <trkpt lat="59.3271094675" lon="34.7131562453"><ele>179.694</ele><time>2026-08-17T05:06:37.652Z</time><hdop>3.0</hdop><vdop>2.75</vdop><extensions><gom:speed>0.073</gom:speed></extensions></trkpt>
   <trkpt lat="59.3271095932" lon="34.7131561615"><ele>179.695</ele><time>2026-08-17T05:06:38.652Z</time><hdop>3.0</hdop><vdop>2.687</vdop><extensions><gom:speed>0.074</gom:speed></extensions></trkpt>
   <trkpt lat="59.3271095932" lon="34.7131555747"><ele>179.694</ele><time>2026-08-17T05:06:39.645Z</time><hdop>3.0</hdop><vdop>2.5</vdop><extensions><gom:speed>0.075</gom:speed></extensions></trkpt>
   <trkpt lat="59.327109677" lon="34.7131560777"><ele>179.693</ele><time>2026-08-17T05:06:40.653Z</time><hdop>3.0</hdop><vdop>2.5</vdop><extensions><gom:speed>0.076</gom:speed></extensions></trkpt>
   <trkpt lat="59.327109677" lon="34.7131560777"><ele>179.69</ele><time>2026-08-17T05:06:41.652Z</time><hdop>3.0</hdop><vdop>2.5</vdop><extensions><gom:speed>0.075</gom:speed></extensions></trkpt>
   <trkpt lat="59.327109677" lon="34.7131559938"><ele>179.686</ele><time>2026-08-17T05:06:42.652Z</time><hdop>3.0</hdop><vdop>2.5</vdop><extensions><gom:speed>0.074</gom:speed></extensions></trkpt>
   <trkpt lat="59.327109677" lon="34.7131559938"><ele>179.682</ele><time>2026-08-17T05:06:43.655Z</time><hdop>3.0</hdop><vdop>2.5</vdop><extensions><gom:speed>0.074</gom:speed></extensions></trkpt>
   <trkpt lat="59.3271095932" lon="34.7131552395"><ele>179.677</ele><time>2026-08-17T05:06:44.645Z</time><hdop>3.0</hdop><vdop>2.5</vdop><extensions><gom:speed>0.078</gom:speed></extensions></trkpt>
   <trkpt lat="59.3271095932" lon="34.7131552395"><ele>179.672</ele><time>2026-08-17T05:06:45.645Z</time><hdop>3.0</hdop><vdop>2.5</vdop><extensions><gom:speed>0.077</gom:speed></extensions></trkpt>
   <trkpt lat="59.3271094675" lon="34.7131552395"><ele>179.667</ele><time>2026-08-17T05:06:46.645Z</time><hdop>3.0</hdop><vdop>2.5</vdop><extensions><gom:speed>0.078</gom:speed></extensions></trkpt>
   <trkpt lat="59.3271094675" lon="34.7131555747"><ele>179.664</ele><time>2026-08-17T05:06:47.499Z</time><hdop>3.0</hdop><vdop>2.5</vdop><extensions><gom:speed>0.078</gom:speed></extensions></trkpt>
   <trkpt lat="59.3271095932" lon="34.7131555747"><ele>179.658</ele><time>2026-08-17T05:06:48.652Z</time><hdop>3.0</hdop><vdop>2.5</vdop><extensions><gom:speed>0.076</gom:speed></extensions></trkpt>
   <trkpt lat="59.3271094675" lon="34.713154988"><ele>179.651</ele><time>2026-08-17T05:06:49.645Z</time><hdop>3.0</hdop><vdop>2.5</vdop><extensions><gom:speed>0.072</gom:speed></extensions></trkpt>
   <trkpt lat="59.3271094675" lon="34.7131552395"><ele>179.594</ele><time>2026-08-17T05:06:50.652Z</time><hdop>3.0</hdop><vdop>2.5</vdop><extensions><gom:speed>0.073</gom:speed></extensions></trkpt>
   <trkpt lat="59.3271094675" lon="34.7131550718"><ele>179.541</ele><time>2026-08-17T05:06:51.647Z</time><hdop>3.0</hdop><vdop>2.5</vdop><extensions><gom:speed>0.072</gom:speed></extensions></trkpt>
   <trkpt lat="59.3271095932" lon="34.713154066"><ele>179.514</ele><time>2026-08-17T05:06:52.646Z</time><hdop>3.0</hdop><vdop>2.5</vdop><extensions><gom:speed>0.07</gom:speed></extensions></trkpt>
   <trkpt lat="59.3271095932" lon="34.7131536469"><ele>179.499</ele><time>2026-08-17T05:06:53.645Z</time><hdop>3.0</hdop><vdop>2.5</vdop><extensions><gom:speed>0.069</gom:speed></extensions></trkpt>
   <trkpt lat="59.3271095932" lon="34.7131532278"><ele>179.489</ele><time>2026-08-17T05:06:54.644Z</time><hdop>3.0</hdop><vdop>2.5</vdop><extensions><gom:speed>0.068</gom:speed></extensions></trkpt>
   <trkpt lat="59.3271095932" lon="34.7131534793"><ele>179.481</ele><time>2026-08-17T05:06:55.652Z</time><hdop>3.0</hdop><vdop>2.5</vdop><extensions><gom:speed>0.069</gom:speed></extensions></trkpt>
   <trkpt lat="59.3271092999" lon="34.7131529764"><ele>179.476</ele><time>2026-08-17T05:06:56.645Z</time><hdop>3.0</hdop><vdop>2.5</vdop><extensions><gom:speed>0.066</gom:speed></extensions></trkpt>
   <trkpt lat="59.3271093837" lon="34.7131530602"><ele>179.474</ele><time>2026-08-17T05:06:57.653Z</time><hdop>3.0</hdop><vdop>2.5</vdop><extensions><gom:speed>0.066</gom:speed></extensions></trkpt>
   <trkpt lat="59.3271093837" lon="34.7131524734"><ele>179.475</ele><time>2026-08-17T05:06:58.645Z</time><hdop>3.0</hdop><vdop>2.5</vdop><extensions><gom:speed>0.064</gom:speed></extensions></trkpt>
   <trkpt lat="59.3271093837" lon="34.7131526411"><ele>179.476</ele><time>2026-08-17T05:06:59.639Z</time><hdop>3.0</hdop><vdop>2.5</vdop><extensions><gom:speed>0.064</gom:speed></extensions></trkpt>
   <trkpt lat="59.327109677" lon="34.7131524734"><ele>179.523</ele><time>2026-08-17T05:07:00.438Z</time><hdop>3.0</hdop><vdop>2.5</vdop><extensions><gom:speed>0.261</gom:speed></extensions></trkpt>
   <trkpt lat="59.3271097609" lon="34.713153144"><ele>179.477</ele><time>2026-08-17T05:07:01.116Z</time><hdop>3.0</hdop><vdop>2.5</vdop><extensions><gom:speed>0.239</gom:speed></extensions></trkpt>
   <trkpt lat="59.3271097609" lon="34.7131546527"><ele>179.433</ele><time>2026-08-17T05:07:01.645Z</time><hdop>3.0</hdop><vdop>2.5</vdop><extensions><gom:speed>0.075</gom:speed></extensions></trkpt>
   <trkpt lat="59.3271098866" lon="34.7131548204"><ele>179.407</ele><time>2026-08-17T05:07:02.361Z</time><hdop>3.0</hdop><vdop>2.5</vdop><extensions><gom:speed>0.076</gom:speed></extensions></trkpt>
   <trkpt lat="59.3271098866" lon="34.7131562453"><ele>179.328</ele><time>2026-08-17T05:07:02.937Z</time><hdop>3.0</hdop><vdop>2.5</vdop><extensions><gom:speed>0.055</gom:speed></extensions></trkpt>
   <trkpt lat="59.3271095932" lon="34.713156832"><ele>179.001</ele><time>2026-08-17T05:07:03.652Z</time><hdop>3.0</hdop><vdop>2.5</vdop><extensions><gom:speed>0.084</gom:speed></extensions></trkpt>
   <trkpt lat="59.3271087969" lon="34.7131621965"><ele>178.806</ele><time>2026-08-17T05:07:04.222Z</time><hdop>3.0</hdop><vdop>2.5</vdop><extensions><gom:speed>0.109</gom:speed></extensions></trkpt>
   <trkpt lat="59.3271061986" lon="34.713167058"><ele>178.25</ele><time>2026-08-17T05:07:04.738Z</time><hdop>3.0</hdop><vdop>2.75</vdop><extensions><gom:speed>0.113</gom:speed></extensions></trkpt>
   <trkpt lat="59.3271061986" lon="34.7131673932"><ele>177.919</ele><time>2026-08-17T05:07:05.396Z</time><hdop>3.0</hdop><vdop>2.75</vdop><extensions><gom:speed>0.132</gom:speed></extensions></trkpt>
   <trkpt lat="59.3271031811" lon="34.7131720871"><ele>177.583</ele><time>2026-08-17T05:07:06.277Z</time><hdop>3.0</hdop><vdop>3.125</vdop><extensions><gom:speed>0.124</gom:speed></extensions></trkpt>
   <trkpt lat="59.3271025943" lon="34.7131880965"><ele>177.194</ele><time>2026-08-17T05:07:06.974Z</time><hdop>3.0</hdop><vdop>3.375</vdop><extensions><gom:speed>0.37</gom:speed></extensions></trkpt>
   <trkpt lat="59.3271018819" lon="34.7131912817"><ele>176.961</ele><time>2026-08-17T05:07:07.601Z</time><hdop>3.0</hdop><vdop>3.375</vdop><extensions><gom:speed>0.381</gom:speed></extensions></trkpt>
   <trkpt lat="59.3271004989" lon="34.7132136613"><ele>176.935</ele><time>2026-08-17T05:07:08.523Z</time><hdop>3.062</hdop><vdop>3.562</vdop><extensions><gom:speed>0.488</gom:speed></extensions></trkpt>
   <trkpt lat="59.327100876" lon="34.713233275"><ele>176.869</ele><time>2026-08-17T05:07:09.341Z</time><hdop>3.187</hdop><vdop>3.687</vdop><extensions><gom:speed>0.567</gom:speed></extensions></trkpt>
   <trkpt lat="59.327102762" lon="34.713249033"><ele>176.713</ele><time>2026-08-17T05:07:09.857Z</time><hdop>3.187</hdop><vdop>3.875</vdop><extensions><gom:speed>0.62</gom:speed></extensions></trkpt>
   <trkpt lat="59.3271033906" lon="34.7132547327"><ele>175.177</ele><time>2026-08-17T05:07:10.644Z</time><hdop>3.25</hdop><vdop>3.5</vdop><extensions><gom:speed>0.455</gom:speed></extensions></trkpt>
   <trkpt lat="59.3270992835" lon="34.7132610191"><ele>174.26</ele><time>2026-08-17T05:07:11.658Z</time><hdop>3.312</hdop><vdop>3.5</vdop><extensions><gom:speed>0.499</gom:speed></extensions></trkpt>
   <trkpt lat="59.3270974814" lon="34.7132773638"><ele>173.78</ele><time>2026-08-17T05:07:12.477Z</time><hdop>3.312</hdop><vdop>3.25</vdop><extensions><gom:speed>0.641</gom:speed></extensions></trkpt>
   <trkpt lat="59.327097188" lon="34.7132899367"><ele>173.734</ele><time>2026-08-17T05:07:13.641Z</time><hdop>3.25</hdop><vdop>3.375</vdop><extensions><gom:speed>0.544</gom:speed></extensions></trkpt>
   <trkpt lat="59.3270941705" lon="34.7133099694"><ele>174.585</ele><time>2026-08-17T05:07:14.652Z</time><hdop>3.25</hdop><vdop>3.375</vdop><extensions><gom:speed>0.599</gom:speed></extensions></trkpt>
   <trkpt lat="59.3270914883" lon="34.7133246377"><ele>175.094</ele><time>2026-08-17T05:07:15.522Z</time><hdop>3.187</hdop><vdop>3.375</vdop><extensions><gom:speed>0.593</gom:speed></extensions></trkpt>
   <trkpt lat="59.3270871716" lon="34.713341653"><ele>174.756</ele><time>2026-08-17T05:07:16.079Z</time><hdop>3.187</hdop><vdop>3.25</vdop><extensions><gom:speed>0.697</gom:speed></extensions></trkpt>
   <trkpt lat="59.3270856629" lon="34.713344419"><ele>174.413</ele><time>2026-08-17T05:07:16.652Z</time><hdop>3.187</hdop><vdop>3.437</vdop><extensions><gom:speed>0.548</gom:speed></extensions></trkpt>
   <trkpt lat="59.3270816815" lon="34.7133651223"><ele>174.207</ele><time>2026-08-17T05:07:17.677Z</time><hdop>3.125</hdop><vdop>3.437</vdop><extensions><gom:speed>0.613</gom:speed></extensions></trkpt>
   <trkpt lat="59.3270806757" lon="34.7133739233"><ele>174.275</ele><time>2026-08-17T05:07:18.355Z</time><hdop>3.125</hdop><vdop>3.25</vdop><extensions><gom:speed>0.478</gom:speed></extensions></trkpt>
   <trkpt lat="59.3270811786" lon="34.7133801259"><ele>174.319</ele><time>2026-08-17T05:07:18.982Z</time><hdop>3.062</hdop><vdop>3.062</vdop><extensions><gom:speed>0.365</gom:speed></extensions></trkpt>
   <trkpt lat="59.3270828969" lon="34.7133940399"><ele>174.737</ele><time>2026-08-17T05:07:19.646Z</time><hdop>3.062</hdop><vdop>3.062</vdop><extensions><gom:speed>0.534</gom:speed></extensions></trkpt>
   <trkpt lat="59.3270821844" lon="34.7133973927"><ele>174.986</ele><time>2026-08-17T05:07:20.500Z</time><hdop>3.0</hdop><vdop>3.062</vdop><extensions><gom:speed>0.413</gom:speed></extensions></trkpt>
   <trkpt lat="59.3270856629" lon="34.7134030923"><ele>175.169</ele><time>2026-08-17T05:07:21.441Z</time><hdop>3.0</hdop><vdop>3.0</vdop><extensions><gom:speed>0.283</gom:speed></extensions></trkpt>
   <trkpt lat="59.3270898958" lon="34.713415749"><ele>175.277</ele><time>2026-08-17T05:07:22.645Z</time><hdop>3.0</hdop><vdop>3.25</vdop><extensions><gom:speed>0.336</gom:speed></extensions></trkpt>
   <trkpt lat="59.3270936676" lon="34.7134252206"><ele>174.999</ele><time>2026-08-17T05:07:23.636Z</time><hdop>3.0</hdop><vdop>2.937</vdop><extensions><gom:speed>0.234</gom:speed></extensions></trkpt>
   <trkpt lat="59.3270991997" lon="34.7134364523"><ele>174.986</ele><time>2026-08-17T05:07:24.376Z</time><hdop>3.0</hdop><vdop>2.937</vdop><extensions><gom:speed>0.279</gom:speed></extensions></trkpt>
   <trkpt lat="59.3271039774" lon="34.7134464268"><ele>175.029</ele><time>2026-08-17T05:07:25.114Z</time><hdop>3.0</hdop><vdop>2.687</vdop><extensions><gom:speed>0.314</gom:speed></extensions></trkpt>
   <trkpt lat="59.3271042707" lon="34.7134476841"><ele>174.946</ele><time>2026-08-17T05:07:25.652Z</time><hdop>3.0</hdop><vdop>2.75</vdop><extensions><gom:speed>0.263</gom:speed></extensions></trkpt>
   <trkpt lat="59.3271114792" lon="34.7134697285"><ele>175.25</ele><time>2026-08-17T05:07:26.644Z</time><hdop>3.0</hdop><vdop>2.875</vdop><extensions><gom:speed>0.423</gom:speed></extensions></trkpt>
   <trkpt lat="59.3271140775" lon="34.7134849835"><ele>175.163</ele><time>2026-08-17T05:07:27.645Z</time><hdop>3.0</hdop><vdop>3.0</vdop><extensions><gom:speed>0.483</gom:speed></extensions></trkpt>
   <trkpt lat="59.32711479" lon="34.713489426"><ele>175.111</ele><time>2026-08-17T05:07:28.655Z</time><hdop>3.0</hdop><vdop>3.0</vdop><extensions><gom:speed>0.37</gom:speed></extensions></trkpt>
   <trkpt lat="59.3271173884" lon="34.713507447"><ele>175.204</ele><time>2026-08-17T05:07:29.362Z</time><hdop>3.0</hdop><vdop>3.25</vdop><extensions><gom:speed>0.427</gom:speed></extensions></trkpt>
   <trkpt lat="59.3271204897" lon="34.7135253843"><ele>175.16</ele><time>2026-08-17T05:07:30.435Z</time><hdop>3.0</hdop><vdop>3.687</vdop><extensions><gom:speed>0.467</gom:speed></extensions></trkpt>
   <trkpt lat="59.3271234653" lon="34.713531084"><ele>175.303</ele><time>2026-08-17T05:07:30.981Z</time><hdop>3.0</hdop><vdop>3.437</vdop><extensions><gom:speed>0.459</gom:speed></extensions></trkpt>
   <trkpt lat="59.3271282849" lon="34.7135391306"><ele>174.779</ele><time>2026-08-17T05:07:31.644Z</time><hdop>3.0</hdop><vdop>3.375</vdop><extensions><gom:speed>0.524</gom:speed></extensions></trkpt>
   <trkpt lat="59.32713147" lon="34.7135455847"><ele>174.465</ele><time>2026-08-17T05:07:32.458Z</time><hdop>3.0</hdop><vdop>3.375</vdop><extensions><gom:speed>0.541</gom:speed></extensions></trkpt>
   <trkpt lat="59.3271324758" lon="34.7135543857"><ele>174.576</ele><time>2026-08-17T05:07:33.237Z</time><hdop>3.0</hdop><vdop>3.187</vdop><extensions><gom:speed>0.475</gom:speed></extensions></trkpt>
   <trkpt lat="59.3271296679" lon="34.7135692217"><ele>174.575</ele><time>2026-08-17T05:07:34.522Z</time><hdop>3.0</hdop><vdop>3.125</vdop><extensions><gom:speed>0.494</gom:speed></extensions></trkpt>
   <trkpt lat="59.3271253931" lon="34.7135784418"><ele>174.222</ele><time>2026-08-17T05:07:35.179Z</time><hdop>3.0</hdop><vdop>3.125</vdop><extensions><gom:speed>0.526</gom:speed></extensions></trkpt>
   <trkpt lat="59.3271248902" lon="34.7135809563"><ele>173.464</ele><time>2026-08-17T05:07:35.652Z</time><hdop>3.0</hdop><vdop>3.0</vdop><extensions><gom:speed>0.499</gom:speed></extensions></trkpt>
   <trkpt lat="59.3271116887" lon="34.7135951217"><ele>173.047</ele><time>2026-08-17T05:07:36.644Z</time><hdop>3.0</hdop><vdop>2.875</vdop><extensions><gom:speed>0.611</gom:speed></extensions></trkpt>
   <trkpt lat="59.3271075816" lon="34.7136024978"><ele>172.798</ele><time>2026-08-17T05:07:37.652Z</time><hdop>3.0</hdop><vdop>2.812</vdop><extensions><gom:speed>0.555</gom:speed></extensions></trkpt>
   <trkpt lat="59.3271017981" lon="34.713603336"><ele>172.649</ele><time>2026-08-17T05:07:38.103Z</time><hdop>3.0</hdop><vdop>2.812</vdop><extensions><gom:speed>0.479</gom:speed></extensions></trkpt>
   <trkpt lat="59.3270997864" lon="34.7136074431"><ele>172.926</ele><time>2026-08-17T05:07:38.650Z</time><hdop>3.0</hdop><vdop>2.625</vdop><extensions><gom:speed>0.479</gom:speed></extensions></trkpt>
   <trkpt lat="59.3270889737" lon="34.713619094"><ele>173.092</ele><time>2026-08-17T05:07:39.540Z</time><hdop>3.0</hdop><vdop>2.625</vdop><extensions><gom:speed>0.623</gom:speed></extensions></trkpt>
   <trkpt lat="59.3270820587" lon="34.7136254642"><ele>173.314</ele><time>2026-08-17T05:07:40.217Z</time><hdop>3.0</hdop><vdop>2.625</vdop><extensions><gom:speed>0.588</gom:speed></extensions></trkpt>
   <trkpt lat="59.3270796698" lon="34.713631583"><ele>173.542</ele><time>2026-08-17T05:07:40.673Z</time><hdop>3.0</hdop><vdop>2.562</vdop><extensions><gom:speed>0.68</gom:speed></extensions></trkpt>
   <trkpt lat="59.3270699887" lon="34.713639462"><ele>173.679</ele><time>2026-08-17T05:07:41.482Z</time><hdop>3.0</hdop><vdop>2.562</vdop><extensions><gom:speed>0.767</gom:speed></extensions></trkpt>
   <trkpt lat="59.3270604753" lon="34.7136456646"><ele>173.403</ele><time>2026-08-17T05:07:42.322Z</time><hdop>3.0</hdop><vdop>2.5</vdop><extensions><gom:speed>0.778</gom:speed></extensions></trkpt>
   <trkpt lat="59.3270498722" lon="34.7136593271"><ele>173.225</ele><time>2026-08-17T05:07:43.576Z</time><hdop>3.0</hdop><vdop>2.5</vdop><extensions><gom:speed>0.854</gom:speed></extensions></trkpt>
   <trkpt lat="59.3270396882" lon="34.7136593271"><ele>172.932</ele><time>2026-08-17T05:07:44.315Z</time><hdop>3.0</hdop><vdop>2.5</vdop><extensions><gom:speed>0.869</gom:speed></extensions></trkpt>
   <trkpt lat="59.3270310967" lon="34.7136520349"><ele>172.699</ele><time>2026-08-17T05:07:45.003Z</time><hdop>3.0</hdop><vdop>2.5</vdop><extensions><gom:speed>0.824</gom:speed></extensions></trkpt>
   <trkpt lat="59.3270240978" lon="34.713643653"><ele>172.631</ele><time>2026-08-17T05:07:45.644Z</time><hdop>3.0</hdop><vdop>2.5</vdop><extensions><gom:speed>0.821</gom:speed></extensions></trkpt>
   <trkpt lat="59.3270192782" lon="34.7136364445"><ele>172.591</ele><time>2026-08-17T05:07:46.439Z</time><hdop>3.0</hdop><vdop>2.5</vdop><extensions><gom:speed>0.793</gom:speed></extensions></trkpt>
   <trkpt lat="59.3270130756" lon="34.7136310801"><ele>172.287</ele><time>2026-08-17T05:07:47.360Z</time><hdop>3.0</hdop><vdop>2.5</vdop><extensions><gom:speed>0.651</gom:speed></extensions></trkpt>
   <trkpt lat="59.3270053643" lon="34.7136270568"><ele>172.057</ele><time>2026-08-17T05:07:48.139Z</time><hdop>3.0</hdop><vdop>2.5</vdop><extensions><gom:speed>0.668</gom:speed></extensions></trkpt>
   <trkpt lat="59.3269995807" lon="34.7136262186"><ele>171.815</ele><time>2026-08-17T05:07:48.645Z</time><hdop>3.0</hdop><vdop>2.5</vdop><extensions><gom:speed>0.701</gom:speed></extensions></trkpt>
   <trkpt lat="59.3269933781" lon="34.7136318345"><ele>171.61</ele><time>2026-08-17T05:07:49.652Z</time><hdop>3.0</hdop><vdop>2.5</vdop><extensions><gom:speed>0.609</gom:speed></extensions></trkpt>
   <trkpt lat="59.326987888" lon="34.7136333432"><ele>171.487</ele><time>2026-08-17T05:07:50.476Z</time><hdop>3.0</hdop><vdop>2.5</vdop><extensions><gom:speed>0.58</gom:speed></extensions></trkpt>
   <trkpt lat="59.3269821883" lon="34.7136383724"><ele>171.525</ele><time>2026-08-17T05:07:51.356Z</time><hdop>3.0</hdop><vdop>2.5</vdop><extensions><gom:speed>0.641</gom:speed></extensions></trkpt>
   <trkpt lat="59.3269797995" lon="34.7136395458"><ele>171.58</ele><time>2026-08-17T05:07:52.003Z</time><hdop>3.0</hdop><vdop>2.5</vdop><extensions><gom:speed>0.579</gom:speed></extensions></trkpt>
   <trkpt lat="59.326978165" lon="34.7136397973"><ele>171.485</ele><time>2026-08-17T05:07:52.645Z</time><hdop>3.0</hdop><vdop>2.5</vdop><extensions><gom:speed>0.641</gom:speed></extensions></trkpt>
   <trkpt lat="59.3269765724" lon="34.7136407193"><ele>171.564</ele><time>2026-08-17T05:07:53.645Z</time><hdop>3.0</hdop><vdop>2.5</vdop><extensions><gom:speed>0.657</gom:speed></extensions></trkpt>
   <trkpt lat="59.3269724653" lon="34.7136488497"><ele>171.611</ele><time>2026-08-17T05:07:54.543Z</time><hdop>3.0</hdop><vdop>2.5</vdop><extensions><gom:speed>0.664</gom:speed></extensions></trkpt>
   <trkpt lat="59.3269741836" lon="34.7136486821"><ele>171.581</ele><time>2026-08-17T05:07:55.322Z</time><hdop>3.0</hdop><vdop>2.5</vdop><extensions><gom:speed>0.562</gom:speed></extensions></trkpt>
   <trkpt lat="59.3269794642" lon="34.7136448264"><ele>171.082</ele><time>2026-08-17T05:07:56.645Z</time><hdop>3.0</hdop><vdop>2.5</vdop><extensions><gom:speed>0.52</gom:speed></extensions></trkpt>
   <trkpt lat="59.3269788774" lon="34.7136483468"><ele>170.785</ele><time>2026-08-17T05:07:57.173Z</time><hdop>3.0</hdop><vdop>2.5</vdop><extensions><gom:speed>0.525</gom:speed></extensions></trkpt>
   <trkpt lat="59.3269824817" lon="34.7136470895"><ele>170.15</ele><time>2026-08-17T05:07:57.646Z</time><hdop>3.0</hdop><vdop>2.5</vdop><extensions><gom:speed>0.467</gom:speed></extensions></trkpt>
   <trkpt lat="59.3269850801" lon="34.7136548847"><ele>170.007</ele><time>2026-08-17T05:07:58.645Z</time><hdop>3.0</hdop><vdop>2.5</vdop><extensions><gom:speed>0.443</gom:speed></extensions></trkpt>
   <trkpt lat="59.3269847867" lon="34.7136611711"><ele>169.921</ele><time>2026-08-17T05:07:59.561Z</time><hdop>3.0</hdop><vdop>2.5</vdop><extensions><gom:speed>0.445</gom:speed></extensions></trkpt>
   <trkpt lat="59.3269898996" lon="34.7136720676"><ele>169.781</ele><time>2026-08-17T05:08:00.462Z</time><hdop>3.0</hdop><vdop>2.5</vdop><extensions><gom:speed>0.438</gom:speed></extensions></trkpt>
   <trkpt lat="59.3269938811" lon="34.7136894182"><ele>169.838</ele><time>2026-08-17T05:08:01.221Z</time><hdop>3.0</hdop><vdop>2.5</vdop><extensions><gom:speed>0.524</gom:speed></extensions></trkpt>
   <trkpt lat="59.3269973595" lon="34.7137008175"><ele>169.586</ele><time>2026-08-17T05:08:02.221Z</time><hdop>3.0</hdop><vdop>2.5</vdop><extensions><gom:speed>0.419</gom:speed></extensions></trkpt>
   <trkpt lat="59.3269998741" lon="34.713712636"><ele>169.437</ele><time>2026-08-17T05:08:02.879Z</time><hdop>3.0</hdop><vdop>2.5</vdop><extensions><gom:speed>0.476</gom:speed></extensions></trkpt>
   <trkpt lat="59.3269991617" lon="34.7137189225"><ele>169.347</ele><time>2026-08-17T05:08:03.557Z</time><hdop>3.0</hdop><vdop>2.5</vdop><extensions><gom:speed>0.483</gom:speed></extensions></trkpt>
   <trkpt lat="59.3270044842" lon="34.7137287293"><ele>169.525</ele><time>2026-08-17T05:08:04.235Z</time><hdop>3.0</hdop><vdop>2.687</vdop><extensions><gom:speed>0.502</gom:speed></extensions></trkpt>
   <trkpt lat="59.3270111897" lon="34.7137418889"><ele>169.823</ele><time>2026-08-17T05:08:05.196Z</time><hdop>3.0</hdop><vdop>2.687</vdop><extensions><gom:speed>0.545</gom:speed></extensions></trkpt>
   <trkpt lat="59.3270155902" lon="34.7137546294"><ele>170.184</ele><time>2026-08-17T05:08:06.035Z</time><hdop>3.0</hdop><vdop>2.625</vdop><extensions><gom:speed>0.535</gom:speed></extensions></trkpt>
   <trkpt lat="59.3270138719" lon="34.7137622569"><ele>170.145</ele><time>2026-08-17T05:08:06.652Z</time><hdop>3.0</hdop><vdop>2.5</vdop><extensions><gom:speed>0.591</gom:speed></extensions></trkpt>
   <trkpt lat="59.3270131594" lon="34.7137762547"><ele>170.122</ele><time>2026-08-17T05:08:07.543Z</time><hdop>3.0</hdop><vdop>2.5</vdop><extensions><gom:speed>0.649</gom:speed></extensions></trkpt>
   <trkpt lat="59.3270089685" lon="34.7137916774"><ele>169.951</ele><time>2026-08-17T05:08:08.576Z</time><hdop>3.0</hdop><vdop>2.562</vdop><extensions><gom:speed>0.761</gom:speed></extensions></trkpt>
   <trkpt lat="59.3270051966" lon="34.7138041664"><ele>169.685</ele><time>2026-08-17T05:08:09.303Z</time><hdop>3.0</hdop><vdop>2.625</vdop><extensions><gom:speed>0.831</gom:speed></extensions></trkpt>
   <trkpt lat="59.3270057834" lon="34.7138113749"><ele>168.983</ele><time>2026-08-17T05:08:09.881Z</time><hdop>3.0</hdop><vdop>2.5</vdop><extensions><gom:speed>0.74</gom:speed></extensions></trkpt>
   <trkpt lat="59.3270064958" lon="34.7138220199"><ele>168.563</ele><time>2026-08-17T05:08:10.659Z</time><hdop>3.0</hdop><vdop>2.5</vdop><extensions><gom:speed>0.744</gom:speed></extensions></trkpt>
   <trkpt lat="59.3270118602" lon="34.7138342574"><ele>168.343</ele><time>2026-08-17T05:08:11.498Z</time><hdop>3.0</hdop><vdop>2.5</vdop><extensions><gom:speed>0.751</gom:speed></extensions></trkpt>
   <trkpt lat="59.3270151711" lon="34.7138405439"><ele>168.742</ele><time>2026-08-17T05:08:12.115Z</time><hdop>3.0</hdop><vdop>2.5</vdop><extensions><gom:speed>0.701</gom:speed></extensions></trkpt>
   <trkpt lat="59.3270169732" lon="34.713849764"><ele>169.297</ele><time>2026-08-17T05:08:12.645Z</time><hdop>3.0</hdop><vdop>2.5</vdop><extensions><gom:speed>0.796</gom:speed></extensions></trkpt>
   <trkpt lat="59.3270175599" lon="34.7138611634"><ele>169.628</ele><time>2026-08-17T05:08:13.461Z</time><hdop>3.0</hdop><vdop>2.5</vdop><extensions><gom:speed>0.77</gom:speed></extensions></trkpt>
   <trkpt lat="59.3270194878" lon="34.7138708864"><ele>169.971</ele><time>2026-08-17T05:08:14.260Z</time><hdop>3.0</hdop><vdop>2.5</vdop><extensions><gom:speed>0.654</gom:speed></extensions></trkpt>
   <trkpt lat="59.3270185658" lon="34.7138890751"><ele>170.183</ele><time>2026-08-17T05:08:15.343Z</time><hdop>3.0</hdop><vdop>2.75</vdop><extensions><gom:speed>0.678</gom:speed></extensions></trkpt>
   <trkpt lat="59.3270141653" lon="34.7139012289"><ele>170.327</ele><time>2026-08-17T05:08:15.919Z</time><hdop>3.0</hdop><vdop>2.625</vdop><extensions><gom:speed>0.786</gom:speed></extensions></trkpt>
   <trkpt lat="59.3270107706" lon="34.7139055874"><ele>170.413</ele><time>2026-08-17T05:08:16.496Z</time><hdop>3.0</hdop><vdop>2.625</vdop><extensions><gom:speed>0.777</gom:speed></extensions></trkpt>
   <trkpt lat="59.327004568" lon="34.7139154781"><ele>170.484</ele><time>2026-08-17T05:08:17.275Z</time><hdop>3.0</hdop><vdop>2.75</vdop><extensions><gom:speed>0.772</gom:speed></extensions></trkpt>
   <trkpt lat="59.3269986587" lon="34.7139263746"><ele>170.452</ele><time>2026-08-17T05:08:18.014Z</time><hdop>3.0</hdop><vdop>3.0</vdop><extensions><gom:speed>0.744</gom:speed></extensions></trkpt>
   <trkpt lat="59.3269939649" lon="34.713932661"><ele>170.335</ele><time>2026-08-17T05:08:18.645Z</time><hdop>3.0</hdop><vdop>2.812</vdop><extensions><gom:speed>0.698</gom:speed></extensions></trkpt>
   <trkpt lat="59.326990193" lon="34.7139371872"><ele>170.265</ele><time>2026-08-17T05:08:19.298Z</time><hdop>3.0</hdop><vdop>2.812</vdop><extensions><gom:speed>0.68</gom:speed></extensions></trkpt>
   <trkpt lat="59.3269870917" lon="34.7139404562"><ele>170.64</ele><time>2026-08-17T05:08:19.774Z</time><hdop>3.0</hdop><vdop>2.687</vdop><extensions><gom:speed>0.606</gom:speed></extensions></trkpt>
   <trkpt lat="59.3269857925" lon="34.7139506821"><ele>171.211</ele><time>2026-08-17T05:08:20.652Z</time><hdop>3.0</hdop><vdop>2.625</vdop><extensions><gom:speed>0.544</gom:speed></extensions></trkpt>
   <trkpt lat="59.3269860859" lon="34.7139560465"><ele>171.616</ele><time>2026-08-17T05:08:21.645Z</time><hdop>3.0</hdop><vdop>2.687</vdop><extensions><gom:speed>0.423</gom:speed></extensions></trkpt>
   <trkpt lat="59.3269837809" lon="34.7139518555"><ele>171.701</ele><time>2026-08-17T05:08:22.645Z</time><hdop>3.0</hdop><vdop>2.625</vdop><extensions><gom:speed>0.163</gom:speed></extensions></trkpt>
   <trkpt lat="59.3269822721" lon="34.713951185"><ele>171.759</ele><time>2026-08-17T05:08:23.645Z</time><hdop>3.0</hdop><vdop>2.812</vdop><extensions><gom:speed>0.113</gom:speed></extensions></trkpt>
   <trkpt lat="59.32698047" lon="34.7139494248"><ele>171.801</ele><time>2026-08-17T05:08:24.645Z</time><hdop>3.0</hdop><vdop>2.75</vdop><extensions><gom:speed>0.123</gom:speed></extensions></trkpt>
   <trkpt lat="59.3269805957" lon="34.7139486704"><ele>171.826</ele><time>2026-08-17T05:08:25.389Z</time><hdop>3.0</hdop><vdop>2.75</vdop><extensions><gom:speed>0.121</gom:speed></extensions></trkpt>
   <trkpt lat="59.326978165" lon="34.7139464911"><ele>171.843</ele><time>2026-08-17T05:08:26.645Z</time><hdop>3.0</hdop><vdop>2.562</vdop><extensions><gom:speed>0.084</gom:speed></extensions></trkpt>
   <trkpt lat="59.3269780812" lon="34.7139454853"><ele>171.854</ele><time>2026-08-17T05:08:27.652Z</time><hdop>3.0</hdop><vdop>2.5</vdop><extensions><gom:speed>0.029</gom:speed></extensions></trkpt>
   <trkpt lat="59.3269770753" lon="34.7139428869"><ele>171.715</ele><time>2026-08-17T05:08:28.645Z</time><hdop>3.0</hdop><vdop>2.5</vdop><extensions><gom:speed>0.081</gom:speed></extensions></trkpt>
   <trkpt lat="59.3269770753" lon="34.7139432222"><ele>171.744</ele><time>2026-08-17T05:08:29.652Z</time><hdop>3.0</hdop><vdop>2.5</vdop><extensions><gom:speed>0.045</gom:speed></extensions></trkpt>
   <trkpt lat="59.3269770753" lon="34.713941462"><ele>172.063</ele><time>2026-08-17T05:08:30.650Z</time><hdop>3.0</hdop><vdop>2.5</vdop><extensions><gom:speed>0.12</gom:speed></extensions></trkpt>
   <trkpt lat="59.326976782" lon="34.7139306493"><ele>172.274</ele><time>2026-08-17T05:08:31.644Z</time><hdop>3.0</hdop><vdop>2.5</vdop><extensions><gom:speed>0.1</gom:speed></extensions></trkpt>
   <trkpt lat="59.3269766982" lon="34.7139319904"><ele>172.401</ele><time>2026-08-17T05:08:32.642Z</time><hdop>3.0</hdop><vdop>2.5</vdop><extensions><gom:speed>0.128</gom:speed></extensions></trkpt>
   <trkpt lat="59.3269772849" lon="34.7139296435"><ele>172.419</ele><time>2026-08-17T05:08:33.593Z</time><hdop>3.0</hdop><vdop>2.5</vdop><extensions><gom:speed>0.138</gom:speed></extensions></trkpt>
   <trkpt lat="59.3269786679" lon="34.713928973"><ele>172.053</ele><time>2026-08-17T05:08:34.676Z</time><hdop>3.0</hdop><vdop>2.5</vdop><extensions><gom:speed>0.114</gom:speed></extensions></trkpt>
   <trkpt lat="59.3269838647" lon="34.7139294759"><ele>172.048</ele><time>2026-08-17T05:08:35.645Z</time><hdop>3.0</hdop><vdop>2.5</vdop><extensions><gom:speed>0.22</gom:speed></extensions></trkpt>
   <trkpt lat="59.3269840742" lon="34.7139328286"><ele>172.044</ele><time>2026-08-17T05:08:36.517Z</time><hdop>3.0</hdop><vdop>2.5</vdop><extensions><gom:speed>0.232</gom:speed></extensions></trkpt>
   <trkpt lat="59.3269894806" lon="34.713937774"><ele>171.501</ele><time>2026-08-17T05:08:37.620Z</time><hdop>3.0</hdop><vdop>2.5</vdop><extensions><gom:speed>0.291</gom:speed></extensions></trkpt>
   <trkpt lat="59.3269942582" lon="34.7139421325"><ele>171.548</ele><time>2026-08-17T05:08:38.217Z</time><hdop>3.0</hdop><vdop>2.5</vdop><extensions><gom:speed>0.299</gom:speed></extensions></trkpt>
   <trkpt lat="59.3269983654" lon="34.7139470779"><ele>171.63</ele><time>2026-08-17T05:08:39.037Z</time><hdop>3.0</hdop><vdop>2.5</vdop><extensions><gom:speed>0.3</gom:speed></extensions></trkpt>
   <trkpt lat="59.3270029754" lon="34.7139582258"><ele>171.762</ele><time>2026-08-17T05:08:39.645Z</time><hdop>3.0</hdop><vdop>2.5</vdop><extensions><gom:speed>0.442</gom:speed></extensions></trkpt>
   <trkpt lat="59.3270078788" lon="34.7139696252"><ele>172.153</ele><time>2026-08-17T05:08:40.645Z</time><hdop>3.0</hdop><vdop>2.5</vdop><extensions><gom:speed>0.39</gom:speed></extensions></trkpt>
   <trkpt lat="59.327007795" lon="34.713972475"><ele>172.387</ele><time>2026-08-17T05:08:41.373Z</time><hdop>3.0</hdop><vdop>2.5</vdop><extensions><gom:speed>0.356</gom:speed></extensions></trkpt>
   <trkpt lat="59.3270120698" lon="34.7139838744"><ele>172.87</ele><time>2026-08-17T05:08:42.182Z</time><hdop>3.0</hdop><vdop>2.5</vdop><extensions><gom:speed>0.333</gom:speed></extensions></trkpt>
   <trkpt lat="59.3270118602" lon="34.7139852993"><ele>173.321</ele><time>2026-08-17T05:08:42.652Z</time><hdop>3.0</hdop><vdop>2.5</vdop><extensions><gom:speed>0.283</gom:speed></extensions></trkpt>
   <trkpt lat="59.3270216671" lon="34.7140055835"><ele>174.153</ele><time>2026-08-17T05:08:43.645Z</time><hdop>3.0</hdop><vdop>2.5</vdop><extensions><gom:speed>0.443</gom:speed></extensions></trkpt>
   <trkpt lat="59.3270232596" lon="34.7140113671"><ele>174.651</ele><time>2026-08-17T05:08:44.641Z</time><hdop>3.0</hdop><vdop>2.5</vdop><extensions><gom:speed>0.382</gom:speed></extensions></trkpt>
   <trkpt lat="59.3270254808" lon="34.714018324"><ele>175.119</ele><time>2026-08-17T05:08:45.278Z</time><hdop>3.0</hdop><vdop>2.5</vdop><extensions><gom:speed>0.387</gom:speed></extensions></trkpt>
   <trkpt lat="59.3270247684" lon="34.7140342497"><ele>175.952</ele><time>2026-08-17T05:08:46.017Z</time><hdop>3.0</hdop><vdop>2.5</vdop><extensions><gom:speed>0.61</gom:speed></extensions></trkpt>
   <trkpt lat="59.3270234692" lon="34.7140423801"><ele>175.878</ele><time>2026-08-17T05:08:46.652Z</time><hdop>3.0</hdop><vdop>2.5</vdop><extensions><gom:speed>0.611</gom:speed></extensions></trkpt>
   <trkpt lat="59.3270186915" lon="34.7140562941"><ele>175.835</ele><time>2026-08-17T05:08:47.494Z</time><hdop>3.0</hdop><vdop>2.5</vdop><extensions><gom:speed>0.679</gom:speed></extensions></trkpt>
   <trkpt lat="59.3270152968" lon="34.7140768297"><ele>176.061</ele><time>2026-08-17T05:08:48.657Z</time><hdop>3.0</hdop><vdop>2.5</vdop><extensions><gom:speed>0.782</gom:speed></extensions></trkpt>
   <trkpt lat="59.3270123631" lon="34.7140807692"><ele>176.197</ele><time>2026-08-17T05:08:49.456Z</time><hdop>3.0</hdop><vdop>2.5</vdop><extensions><gom:speed>0.668</gom:speed></extensions></trkpt>
   <trkpt lat="59.3270064958" lon="34.7140791767"><ele>175.83</ele><time>2026-08-17T05:08:50.195Z</time><hdop>3.0</hdop><vdop>2.5</vdop><extensions><gom:speed>0.608</gom:speed></extensions></trkpt>
   <trkpt lat="59.3270041908" lon="34.7140840382"><ele>175.186</ele><time>2026-08-17T05:08:50.652Z</time><hdop>3.0</hdop><vdop>2.5</vdop><extensions><gom:speed>0.635</gom:speed></extensions></trkpt>
   <trkpt lat="59.3269960603" lon="34.7140782546"><ele>175.008</ele><time>2026-08-17T05:08:51.645Z</time><hdop>3.0</hdop><vdop>2.5</vdop><extensions><gom:speed>0.39</gom:speed></extensions></trkpt>
   <trkpt lat="59.3269928752" lon="34.7140752372"><ele>174.892</ele><time>2026-08-17T05:08:52.646Z</time><hdop>3.0</hdop><vdop>2.5</vdop><extensions><gom:speed>0.211</gom:speed></extensions></trkpt>
   <trkpt lat="59.3269918694" lon="34.7140837867"><ele>174.823</ele><time>2026-08-17T05:08:53.098Z</time><hdop>3.0</hdop><vdop>2.5</vdop><extensions><gom:speed>0.396</gom:speed></extensions></trkpt>
   <trkpt lat="59.3269887681" lon="34.7141002991"><ele>174.913</ele><time>2026-08-17T05:08:53.652Z</time><hdop>3.125</hdop><vdop>2.5</vdop><extensions><gom:speed>0.693</gom:speed></extensions></trkpt>
   <trkpt lat="59.3269852896" lon="34.7140971977"><ele>174.968</ele><time>2026-08-17T05:08:54.596Z</time><hdop>3.125</hdop><vdop>2.5</vdop><extensions><gom:speed>0.591</gom:speed></extensions></trkpt>
   <trkpt lat="59.3269831941" lon="34.7141007181"><ele>174.908</ele><time>2026-08-17T05:08:55.617Z</time><hdop>3.125</hdop><vdop>2.5</vdop><extensions><gom:speed>0.602</gom:speed></extensions></trkpt>
   <trkpt lat="59.3269795899" lon="34.7141146321"><ele>174.705</ele><time>2026-08-17T05:08:56.477Z</time><hdop>3.125</hdop><vdop>2.5</vdop><extensions><gom:speed>0.683</gom:speed></extensions></trkpt>
   <trkpt lat="59.326970286" lon="34.7141242713"><ele>174.611</ele><time>2026-08-17T05:08:57.196Z</time><hdop>3.125</hdop><vdop>2.5</vdop><extensions><gom:speed>0.827</gom:speed></extensions></trkpt>
   <trkpt lat="59.3269668913" lon="34.7141279593"><ele>174.78</ele><time>2026-08-17T05:08:57.662Z</time><hdop>3.125</hdop><vdop>2.5</vdop><extensions><gom:speed>0.791</gom:speed></extensions></trkpt>
   <trkpt lat="59.3269542766" lon="34.7141339943"><ele>174.842</ele><time>2026-08-17T05:08:58.652Z</time><hdop>3.062</hdop><vdop>2.5</vdop><extensions><gom:speed>0.749</gom:speed></extensions></trkpt>
   <trkpt lat="59.3269471939" lon="34.7141363412"><ele>174.667</ele><time>2026-08-17T05:08:59.645Z</time><hdop>3.0</hdop><vdop>2.5</vdop><extensions><gom:speed>0.455</gom:speed></extensions></trkpt>
   <trkpt lat="59.3269451822" lon="34.7141390234"><ele>174.559</ele><time>2026-08-17T05:09:00.645Z</time><hdop>3.0</hdop><vdop>2.5</vdop><extensions><gom:speed>0.345</gom:speed></extensions></trkpt>
   <trkpt lat="59.3269441764" lon="34.7141383529"><ele>174.5</ele><time>2026-08-17T05:09:01.645Z</time><hdop>3.0</hdop><vdop>2.5</vdop><extensions><gom:speed>0.212</gom:speed></extensions></trkpt>
   <trkpt lat="59.3269425838" lon="34.7141342458"><ele>174.468</ele><time>2026-08-17T05:09:02.645Z</time><hdop>3.0</hdop><vdop>2.5</vdop><extensions><gom:speed>0.131</gom:speed></extensions></trkpt>
   <trkpt lat="59.3269411589" lon="34.7141334914"><ele>174.451</ele><time>2026-08-17T05:09:03.645Z</time><hdop>3.0</hdop><vdop>2.5</vdop><extensions><gom:speed>0.092</gom:speed></extensions></trkpt>
   <trkpt lat="59.3269408655" lon="34.714133659"><ele>174.441</ele><time>2026-08-17T05:09:04.439Z</time><hdop>3.0</hdop><vdop>2.5</vdop><extensions><gom:speed>0.063</gom:speed></extensions></trkpt>
   <trkpt lat="59.3269398597" lon="34.7141338267"><ele>174.439</ele><time>2026-08-17T05:09:05.653Z</time><hdop>3.0</hdop><vdop>2.5</vdop><extensions><gom:speed>0.017</gom:speed></extensions></trkpt>
   <trkpt lat="59.32693877" lon="34.7141315636"><ele>174.439</ele><time>2026-08-17T05:09:06.645Z</time><hdop>3.0</hdop><vdop>2.5</vdop><extensions><gom:speed>0.065</gom:speed></extensions></trkpt>
   <trkpt lat="59.3269388958" lon="34.7141295519"><ele>174.44</ele><time>2026-08-17T05:09:07.652Z</time><hdop>3.0</hdop><vdop>2.5</vdop><extensions><gom:speed>0.015</gom:speed></extensions></trkpt>
   <trkpt lat="59.3269386862" lon="34.7141304739"><ele>174.441</ele><time>2026-08-17T05:09:08.646Z</time><hdop>3.0</hdop><vdop>2.5</vdop><extensions><gom:speed>0.089</gom:speed></extensions></trkpt>
   <trkpt lat="59.3269382671" lon="34.7141328208"><ele>174.442</ele><time>2026-08-17T05:09:09.652Z</time><hdop>3.0</hdop><vdop>2.5</vdop><extensions><gom:speed>0.014</gom:speed></extensions></trkpt>
   <trkpt lat="59.3269379738" lon="34.7141312283"><ele>174.449</ele><time>2026-08-17T05:09:10.645Z</time><hdop>3.0</hdop><vdop>2.5</vdop><extensions><gom:speed>0.091</gom:speed></extensions></trkpt>
   <trkpt lat="59.3269380995" lon="34.7141304739"><ele>174.461</ele><time>2026-08-17T05:09:11.645Z</time><hdop>3.0</hdop><vdop>2.5</vdop><extensions><gom:speed>0.089</gom:speed></extensions></trkpt>
   <trkpt lat="59.3269382671" lon="34.7141292166"><ele>174.474</ele><time>2026-08-17T05:09:12.652Z</time><hdop>3.0</hdop><vdop>2.5</vdop><extensions><gom:speed>0.019</gom:speed></extensions></trkpt>
   <trkpt lat="59.3269381833" lon="34.7141300548"><ele>174.483</ele><time>2026-08-17T05:09:13.645Z</time><hdop>3.0</hdop><vdop>2.5</vdop><extensions><gom:speed>0.101</gom:speed></extensions></trkpt>
   <trkpt lat="59.3269379738" lon="34.7141285461"><ele>174.494</ele><time>2026-08-17T05:09:14.657Z</time><hdop>3.0</hdop><vdop>2.5</vdop><extensions><gom:speed>0.021</gom:speed></extensions></trkpt>
   <trkpt lat="59.3269377642" lon="34.7141310606"><ele>174.501</ele><time>2026-08-17T05:09:15.568Z</time><hdop>3.0</hdop><vdop>2.5</vdop><extensions><gom:speed>0.103</gom:speed></extensions></trkpt>
   <trkpt lat="59.3269376804" lon="34.7141310606"><ele>174.516</ele><time>2026-08-17T05:09:16.645Z</time><hdop>3.0</hdop><vdop>2.5</vdop><extensions><gom:speed>0.08</gom:speed></extensions></trkpt>
   <trkpt lat="59.3269375966" lon="34.7141315636"><ele>174.531</ele><time>2026-08-17T05:09:17.645Z</time><hdop>3.0</hdop><vdop>2.5</vdop><extensions><gom:speed>0.094</gom:speed></extensions></trkpt>
   <trkpt lat="59.3269374708" lon="34.7141326532"><ele>174.541</ele><time>2026-08-17T05:09:18.644Z</time><hdop>3.0</hdop><vdop>2.5</vdop><extensions><gom:speed>0.134</gom:speed></extensions></trkpt>
   <trkpt lat="59.3269376804" lon="34.7141351678"><ele>174.228</ele><time>2026-08-17T05:09:19.652Z</time><hdop>3.0</hdop><vdop>2.5</vdop><extensions><gom:speed>0.135</gom:speed></extensions></trkpt>
   <trkpt lat="59.3269377642" lon="34.7141364251"><ele>174.097</ele><time>2026-08-17T05:09:20.645Z</time><hdop>3.0</hdop><vdop>2.75</vdop><extensions><gom:speed>0.371</gom:speed></extensions></trkpt>
   <trkpt lat="59.3269382671" lon="34.7141392749"><ele>174.019</ele><time>2026-08-17T05:09:21.132Z</time><hdop>3.0</hdop><vdop>2.75</vdop><extensions><gom:speed>0.371</gom:speed></extensions></trkpt>
   <trkpt lat="59.3269383929" lon="34.7141408675"><ele>173.981</ele><time>2026-08-17T05:09:21.645Z</time><hdop>3.0</hdop><vdop>2.562</vdop><extensions><gom:speed>0.209</gom:speed></extensions></trkpt>
   <trkpt lat="59.32693877" lon="34.7141440526"><ele>173.959</ele><time>2026-08-17T05:09:22.650Z</time><hdop>3.0</hdop><vdop>2.562</vdop><extensions><gom:speed>0.21</gom:speed></extensions></trkpt>
   <trkpt lat="59.3269383929" lon="34.7141431306"><ele>173.945</ele><time>2026-08-17T05:09:23.645Z</time><hdop>3.0</hdop><vdop>2.562</vdop><extensions><gom:speed>0.168</gom:speed></extensions></trkpt>
   <trkpt lat="59.3269385605" lon="34.7141456451"><ele>173.937</ele><time>2026-08-17T05:09:24.652Z</time><hdop>3.0</hdop><vdop>2.562</vdop><extensions><gom:speed>0.168</gom:speed></extensions></trkpt>
   <trkpt lat="59.3269382671" lon="34.7141437173"><ele>173.934</ele><time>2026-08-17T05:09:25.646Z</time><hdop>3.062</hdop><vdop>2.5</vdop><extensions><gom:speed>0.141</gom:speed></extensions></trkpt>
   <trkpt lat="59.3269382671" lon="34.7141436335"><ele>173.932</ele><time>2026-08-17T05:09:26.645Z</time><hdop>3.062</hdop><vdop>2.5</vdop><extensions><gom:speed>0.128</gom:speed></extensions></trkpt>
   <trkpt lat="59.3269382671" lon="34.7141434659"><ele>173.932</ele><time>2026-08-17T05:09:27.645Z</time><hdop>3.125</hdop><vdop>2.5</vdop><extensions><gom:speed>0.119</gom:speed></extensions></trkpt>
   <trkpt lat="59.3269380995" lon="34.7141437173"><ele>173.932</ele><time>2026-08-17T05:09:28.645Z</time><hdop>3.125</hdop><vdop>2.5</vdop><extensions><gom:speed>0.113</gom:speed></extensions></trkpt>
   <trkpt lat="59.3269380995" lon="34.7141432982"><ele>173.933</ele><time>2026-08-17T05:09:29.644Z</time><hdop>3.125</hdop><vdop>2.5</vdop><extensions><gom:speed>0.107</gom:speed></extensions></trkpt>
   <trkpt lat="59.3269377642" lon="34.7141426277"><ele>173.933</ele><time>2026-08-17T05:09:30.645Z</time><hdop>3.125</hdop><vdop>2.5</vdop><extensions><gom:speed>0.101</gom:speed></extensions></trkpt>
   <trkpt lat="59.3269374708" lon="34.7141436335"><ele>173.935</ele><time>2026-08-17T05:09:31.653Z</time><hdop>3.187</hdop><vdop>2.5</vdop><extensions><gom:speed>0.102</gom:speed></extensions></trkpt>
   <trkpt lat="59.3269371775" lon="34.7141425438"><ele>173.936</ele><time>2026-08-17T05:09:32.260Z</time><hdop>3.187</hdop><vdop>2.5</vdop><extensions><gom:speed>0.101</gom:speed></extensions></trkpt>
   <trkpt lat="59.3269368841" lon="34.71414246"><ele>173.94</ele><time>2026-08-17T05:09:33.652Z</time><hdop>3.187</hdop><vdop>2.5</vdop><extensions><gom:speed>0.1</gom:speed></extensions></trkpt>
   <trkpt lat="59.3269366746" lon="34.7141408675"><ele>173.948</ele><time>2026-08-17T05:09:34.645Z</time><hdop>3.125</hdop><vdop>2.5</vdop><extensions><gom:speed>0.098</gom:speed></extensions></trkpt>
   <trkpt lat="59.3269363812" lon="34.7141404484"><ele>173.954</ele><time>2026-08-17T05:09:35.644Z</time><hdop>3.125</hdop><vdop>2.5</vdop><extensions><gom:speed>0.097</gom:speed></extensions></trkpt>
   <trkpt lat="59.3269361716" lon="34.7141401969"><ele>173.958</ele><time>2026-08-17T05:09:36.645Z</time><hdop>3.062</hdop><vdop>2.5</vdop><extensions><gom:speed>0.098</gom:speed></extensions></trkpt>
   <trkpt lat="59.3269359621" lon="34.7141400293"><ele>173.96</ele><time>2026-08-17T05:09:37.645Z</time><hdop>3.0</hdop><vdop>2.5</vdop><extensions><gom:speed>0.1</gom:speed></extensions></trkpt>
   <trkpt lat="59.3269357945" lon="34.7141408675"><ele>173.962</ele><time>2026-08-17T05:09:38.652Z</time><hdop>3.0</hdop><vdop>2.5</vdop><extensions><gom:speed>0.101</gom:speed></extensions></trkpt>
   <trkpt lat="59.3269356687" lon="34.7141406998"><ele>173.965</ele><time>2026-08-17T05:09:39.645Z</time><hdop>3.0</hdop><vdop>2.5</vdop><extensions><gom:speed>0.102</gom:speed></extensions></trkpt>
   <trkpt lat="59.3269352915" lon="34.714139694"><ele>173.901</ele><time>2026-08-17T05:09:40.645Z</time><hdop>3.0</hdop><vdop>2.5</vdop><extensions><gom:speed>0.416</gom:speed></extensions></trkpt>
   <trkpt lat="59.3269340762" lon="34.7141408675"><ele>173.861</ele><time>2026-08-17T05:09:41.645Z</time><hdop>3.062</hdop><vdop>2.5</vdop><extensions><gom:speed>0.186</gom:speed></extensions></trkpt>
   <trkpt lat="59.3269335733" lon="34.7141406998"><ele>173.838</ele><time>2026-08-17T05:09:42.645Z</time><hdop>3.125</hdop><vdop>2.5</vdop><extensions><gom:speed>0.171</gom:speed></extensions></trkpt>
   <trkpt lat="59.3269332799" lon="34.7141414542"><ele>173.823</ele><time>2026-08-17T05:09:43.389Z</time><hdop>3.187</hdop><vdop>2.5</vdop><extensions><gom:speed>0.171</gom:speed></extensions></trkpt>
   <trkpt lat="59.3269330703" lon="34.7141400293"><ele>173.815</ele><time>2026-08-17T05:09:44.646Z</time><hdop>3.312</hdop><vdop>2.5</vdop><extensions><gom:speed>0.145</gom:speed></extensions></trkpt>
   <trkpt lat="59.3269328608" lon="34.7141408675"><ele>173.809</ele><time>2026-08-17T05:09:45.594Z</time><hdop>3.437</hdop><vdop>2.5</vdop><extensions><gom:speed>0.146</gom:speed></extensions></trkpt>
   <trkpt lat="59.326932777" lon="34.7141399455"><ele>173.806</ele><time>2026-08-17T05:09:46.201Z</time><hdop>3.625</hdop><vdop>2.5</vdop><extensions><gom:speed>0.135</gom:speed></extensions></trkpt>
   <trkpt lat="59.3269324836" lon="34.7141356707"><ele>173.77</ele><time>2026-08-17T05:09:47.101Z</time><hdop>3.562</hdop><vdop>2.5</vdop><extensions><gom:speed>0.127</gom:speed></extensions></trkpt>
   <trkpt lat="59.3269323998" lon="34.7141359221"><ele>173.52</ele><time>2026-08-17T05:09:47.652Z</time><hdop>3.5</hdop><vdop>2.5</vdop><extensions><gom:speed>0.128</gom:speed></extensions></trkpt>
   <trkpt lat="59.326930472" lon="34.7141324856"><ele>173.199</ele><time>2026-08-17T05:09:48.649Z</time><hdop>3.437</hdop><vdop>2.5</vdop><extensions><gom:speed>0.29</gom:speed></extensions></trkpt>
   <trkpt lat="59.3269282927" lon="34.7141259477"><ele>172.703</ele><time>2026-08-17T05:09:49.645Z</time><hdop>3.312</hdop><vdop>2.5</vdop><extensions><gom:speed>0.081</gom:speed></extensions></trkpt>
   <trkpt lat="59.3269277897" lon="34.71412578"><ele>172.406</ele><time>2026-08-17T05:09:50.298Z</time><hdop>3.25</hdop><vdop>2.5</vdop><extensions><gom:speed>0.106</gom:speed></extensions></trkpt>
   <trkpt lat="59.3269270773" lon="34.7141234331"><ele>172.327</ele><time>2026-08-17T05:09:50.976Z</time><hdop>3.125</hdop><vdop>2.5</vdop><extensions><gom:speed>0.093</gom:speed></extensions></trkpt>
   <trkpt lat="59.3269265744" lon="34.7141236846"><ele>172.302</ele><time>2026-08-17T05:09:51.645Z</time><hdop>3.0</hdop><vdop>2.5</vdop><extensions><gom:speed>0.124</gom:speed></extensions></trkpt>
   <trkpt lat="59.3269259876" lon="34.7141235169"><ele>172.287</ele><time>2026-08-17T05:09:52.433Z</time><hdop>3.0</hdop><vdop>2.5</vdop><extensions><gom:speed>0.166</gom:speed></extensions></trkpt>
   <trkpt lat="59.3269267839" lon="34.7141223435"><ele>172.219</ele><time>2026-08-17T05:09:53.476Z</time><hdop>3.0</hdop><vdop>2.5</vdop><extensions><gom:speed>0.114</gom:speed></extensions></trkpt>
   <trkpt lat="59.3269266582" lon="34.7141234331"><ele>172.134</ele><time>2026-08-17T05:09:54.001Z</time><hdop>3.0</hdop><vdop>2.5</vdop><extensions><gom:speed>0.071</gom:speed></extensions></trkpt>
   <trkpt lat="59.3269258619" lon="34.7141246904"><ele>172.058</ele><time>2026-08-17T05:09:54.652Z</time><hdop>3.0</hdop><vdop>2.5</vdop><extensions><gom:speed>0.042</gom:speed></extensions></trkpt>
   <trkpt lat="59.3269256943" lon="34.7141260315"><ele>172.013</ele><time>2026-08-17T05:09:55.225Z</time><hdop>3.0</hdop><vdop>2.5</vdop><extensions><gom:speed>0.106</gom:speed></extensions></trkpt>
   <trkpt lat="59.3269255685" lon="34.7141284622"><ele>171.985</ele><time>2026-08-17T05:09:55.903Z</time><hdop>3.0</hdop><vdop>2.5</vdop><extensions><gom:speed>0.092</gom:speed></extensions></trkpt>
   <trkpt lat="59.3269251914" lon="34.7141283784"><ele>171.969</ele><time>2026-08-17T05:09:56.540Z</time><hdop>3.0</hdop><vdop>2.5</vdop><extensions><gom:speed>0.133</gom:speed></extensions></trkpt>
   <trkpt lat="59.3269252752" lon="34.7141305577"><ele>171.963</ele><time>2026-08-17T05:09:57.097Z</time><hdop>3.0</hdop><vdop>2.5</vdop><extensions><gom:speed>0.089</gom:speed></extensions></trkpt>
   <trkpt lat="59.3269246884" lon="34.7141301386"><ele>172.044</ele><time>2026-08-17T05:09:57.673Z</time><hdop>3.0</hdop><vdop>2.5</vdop><extensions><gom:speed>0.067</gom:speed></extensions></trkpt>
   <trkpt lat="59.3269219643" lon="34.7141382691"><ele>172.054</ele><time>2026-08-17T05:09:58.645Z</time><hdop>3.0</hdop><vdop>2.5</vdop><extensions><gom:speed>0.161</gom:speed></extensions></trkpt>
   <trkpt lat="59.3269215871" lon="34.7141376823"><ele>172.156</ele><time>2026-08-17T05:09:59.652Z</time><hdop>3.0</hdop><vdop>2.5</vdop><extensions><gom:speed>0.083</gom:speed></extensions></trkpt>
   <trkpt lat="59.3269178991" lon="34.7141453937"><ele>172.216</ele><time>2026-08-17T05:10:00.516Z</time><hdop>3.0</hdop><vdop>2.5</vdop><extensions><gom:speed>0.212</gom:speed></extensions></trkpt>
   <trkpt lat="59.3269186954" lon="34.7141597267"><ele>172.036</ele><time>2026-08-17T05:10:01.644Z</time><hdop>3.0</hdop><vdop>2.5</vdop><extensions><gom:speed>0.177</gom:speed></extensions></trkpt>
   <trkpt lat="59.3269177734" lon="34.7141602297"><ele>171.928</ele><time>2026-08-17T05:10:02.651Z</time><hdop>3.0</hdop><vdop>2.5</vdop><extensions><gom:speed>0.148</gom:speed></extensions></trkpt>
   <trkpt lat="59.3269207909" lon="34.7141626604"><ele>172.135</ele><time>2026-08-17T05:10:03.683Z</time><hdop>3.0</hdop><vdop>2.5</vdop><extensions><gom:speed>0.064</gom:speed></extensions></trkpt>
   <trkpt lat="59.3269241855" lon="34.714167019"><ele>172.269</ele><time>2026-08-17T05:10:04.482Z</time><hdop>3.0</hdop><vdop>2.812</vdop><extensions><gom:speed>0.099</gom:speed></extensions></trkpt>
   <trkpt lat="59.3269277897" lon="34.7141712938"><ele>172.411</ele><time>2026-08-17T05:10:05.636Z</time><hdop>3.0</hdop><vdop>3.187</vdop><extensions><gom:speed>0.132</gom:speed></extensions></trkpt>
   <trkpt lat="59.3269316873" lon="34.7141763229"><ele>172.775</ele><time>2026-08-17T05:10:06.653Z</time><hdop>3.0</hdop><vdop>2.937</vdop><extensions><gom:speed>0.087</gom:speed></extensions></trkpt>
   <trkpt lat="59.326939273" lon="34.714186465"><ele>172.996</ele><time>2026-08-17T05:10:07.645Z</time><hdop>3.0</hdop><vdop>2.812</vdop><extensions><gom:speed>0.097</gom:speed></extensions></trkpt>
   <trkpt lat="59.3269423743" lon="34.7141904883"><ele>173.137</ele><time>2026-08-17T05:10:08.645Z</time><hdop>3.0</hdop><vdop>2.625</vdop><extensions><gom:speed>0.085</gom:speed></extensions></trkpt>
   <trkpt lat="59.3269433801" lon="34.7141941764"><ele>173.108</ele><time>2026-08-17T05:10:09.644Z</time><hdop>3.0</hdop><vdop>2.562</vdop><extensions><gom:speed>0.104</gom:speed></extensions></trkpt>
   <trkpt lat="59.3269455594" lon="34.7141992893"><ele>173.49</ele><time>2026-08-17T05:10:10.645Z</time><hdop>3.0</hdop><vdop>2.5</vdop><extensions><gom:speed>0.084</gom:speed></extensions></trkpt>
   <trkpt lat="59.3269455594" lon="34.7141992893"><ele>173.718</ele><time>2026-08-17T05:10:11.139Z</time><hdop>3.0</hdop><vdop>2.5</vdop><extensions><gom:speed>0.082</gom:speed></extensions></trkpt>
   <trkpt lat="59.3269460623" lon="34.7141976968"><ele>173.849</ele><time>2026-08-17T05:10:11.652Z</time><hdop>3.0</hdop><vdop>2.5</vdop><extensions><gom:speed>0.053</gom:speed></extensions></trkpt>
   <trkpt lat="59.3269467748" lon="34.7142028935"><ele>173.927</ele><time>2026-08-17T05:10:12.535Z</time><hdop>3.0</hdop><vdop>2.5</vdop><extensions><gom:speed>0.105</gom:speed></extensions></trkpt>
   <trkpt lat="59.3269473615" lon="34.7142062463"><ele>173.963</ele><time>2026-08-17T05:10:13.577Z</time><hdop>3.0</hdop><vdop>2.5</vdop><extensions><gom:speed>0.094</gom:speed></extensions></trkpt>
   <trkpt lat="59.3269465652" lon="34.7142238483"><ele>174.234</ele><time>2026-08-17T05:10:14.646Z</time><hdop>3.0</hdop><vdop>2.5</vdop><extensions><gom:speed>0.245</gom:speed></extensions></trkpt>
   <trkpt lat="59.326945266" lon="34.7142209985"><ele>174.448</ele><time>2026-08-17T05:10:15.652Z</time><hdop>3.0</hdop><vdop>2.687</vdop><extensions><gom:speed>0.055</gom:speed></extensions></trkpt>
   <trkpt lat="59.3269471939" lon="34.7142306376"><ele>174.576</ele><time>2026-08-17T05:10:16.157Z</time><hdop>3.0</hdop><vdop>2.687</vdop><extensions><gom:speed>0.119</gom:speed></extensions></trkpt>
   <trkpt lat="59.3269467748" lon="34.7142299671"><ele>174.679</ele><time>2026-08-17T05:10:16.652Z</time><hdop>3.0</hdop><vdop>2.687</vdop><extensions><gom:speed>0.06</gom:speed></extensions></trkpt>
   <trkpt lat="59.3269498761" lon="34.7142394386"><ele>174.572</ele><time>2026-08-17T05:10:17.652Z</time><hdop>3.0</hdop><vdop>2.875</vdop><extensions><gom:speed>0.093</gom:speed></extensions></trkpt>
   <trkpt lat="59.3269524745" lon="34.7142498322"><ele>174.508</ele><time>2026-08-17T05:10:18.382Z</time><hdop>3.0</hdop><vdop>2.875</vdop><extensions><gom:speed>0.14</gom:speed></extensions></trkpt>
   <trkpt lat="59.3269547795" lon="34.7142604772"><ele>174.609</ele><time>2026-08-17T05:10:18.959Z</time><hdop>3.0</hdop><vdop>3.125</vdop><extensions><gom:speed>0.182</gom:speed></extensions></trkpt>
   <trkpt lat="59.3269547795" lon="34.7142613992"><ele>174.669</ele><time>2026-08-17T05:10:19.455Z</time><hdop>3.0</hdop><vdop>3.125</vdop><extensions><gom:speed>0.197</gom:speed></extensions></trkpt>
   <trkpt lat="59.326956372" lon="34.7142751456"><ele>174.474</ele><time>2026-08-17T05:10:20.652Z</time><hdop>3.0</hdop><vdop>3.312</vdop><extensions><gom:speed>0.169</gom:speed></extensions></trkpt>
   <trkpt lat="59.3269581741" lon="34.7142933343"><ele>174.445</ele><time>2026-08-17T05:10:21.652Z</time><hdop>3.0</hdop><vdop>3.187</vdop><extensions><gom:speed>0.202</gom:speed></extensions></trkpt>
   <trkpt lat="59.3269586771" lon="34.7143118583"><ele>174.429</ele><time>2026-08-17T05:10:22.662Z</time><hdop>3.0</hdop><vdop>3.187</vdop><extensions><gom:speed>0.248</gom:speed></extensions></trkpt>
   <trkpt lat="59.3269583837" lon="34.714320324"><ele>174.211</ele><time>2026-08-17T05:10:23.653Z</time><hdop>3.0</hdop><vdop>3.312</vdop><extensions><gom:speed>0.135</gom:speed></extensions></trkpt>
   <trkpt lat="59.3269565816" lon="34.7143340703"><ele>174.081</ele><time>2026-08-17T05:10:24.635Z</time><hdop>3.0</hdop><vdop>3.312</vdop><extensions><gom:speed>0.177</gom:speed></extensions></trkpt>
   <trkpt lat="59.3269550728" lon="34.7143374231"><ele>174.015</ele><time>2026-08-17T05:10:25.652Z</time><hdop>3.0</hdop><vdop>3.187</vdop><extensions><gom:speed>0.08</gom:speed></extensions></trkpt>
   <trkpt lat="59.3269505885" lon="34.7143503312"><ele>173.974</ele><time>2026-08-17T05:10:26.645Z</time><hdop>3.0</hdop><vdop>3.187</vdop><extensions><gom:speed>0.112</gom:speed></extensions></trkpt>
   <trkpt lat="59.3269483673" lon="34.7143566177"><ele>173.998</ele><time>2026-08-17T05:10:27.645Z</time><hdop>3.0</hdop><vdop>3.25</vdop><extensions><gom:speed>0.153</gom:speed></extensions></trkpt>
   <trkpt lat="59.3269481997" lon="34.7143566177"><ele>173.861</ele><time>2026-08-17T05:10:28.652Z</time><hdop>3.0</hdop><vdop>3.125</vdop><extensions><gom:speed>0.045</gom:speed></extensions></trkpt>
   <trkpt lat="59.3269462718" lon="34.7143614792"><ele>173.779</ele><time>2026-08-17T05:10:29.136Z</time><hdop>3.0</hdop><vdop>3.125</vdop><extensions><gom:speed>0.046</gom:speed></extensions></trkpt>
   <trkpt lat="59.3269467748" lon="34.7143602219"><ele>173.739</ele><time>2026-08-17T05:10:29.652Z</time><hdop>3.0</hdop><vdop>2.937</vdop><extensions><gom:speed>0.032</gom:speed></extensions></trkpt>
   <trkpt lat="59.3269443859" lon="34.7143647481"><ele>173.715</ele><time>2026-08-17T05:10:30.340Z</time><hdop>3.0</hdop><vdop>2.937</vdop><extensions><gom:speed>0.073</gom:speed></extensions></trkpt>
   <trkpt lat="59.326941578" lon="34.7143696934"><ele>174.191</ele><time>2026-08-17T05:10:31.515Z</time><hdop>3.0</hdop><vdop>2.812</vdop><extensions><gom:speed>0.103</gom:speed></extensions></trkpt>
   <trkpt lat="59.3269388958" lon="34.7143744711"><ele>174.305</ele><time>2026-08-17T05:10:32.101Z</time><hdop>3.0</hdop><vdop>2.812</vdop><extensions><gom:speed>0.097</gom:speed></extensions></trkpt>
   <trkpt lat="59.3269386862" lon="34.714374974"><ele>174.259</ele><time>2026-08-17T05:10:32.652Z</time><hdop>3.0</hdop><vdop>2.875</vdop><extensions><gom:speed>0.114</gom:speed></extensions></trkpt>
   <trkpt lat="59.3269325674" lon="34.714388888"><ele>174.112</ele><time>2026-08-17T05:10:33.644Z</time><hdop>3.0</hdop><vdop>3.125</vdop><extensions><gom:speed>0.188</gom:speed></extensions></trkpt>
   <trkpt lat="59.3269318969" lon="34.7143900614"><ele>174.023</ele><time>2026-08-17T05:10:34.559Z</time><hdop>3.0</hdop><vdop>3.125</vdop><extensions><gom:speed>0.157</gom:speed></extensions></trkpt>
   <trkpt lat="59.3269303881" lon="34.7143963479"><ele>174.465</ele><time>2026-08-17T05:10:35.096Z</time><hdop>3.0</hdop><vdop>3.062</vdop><extensions><gom:speed>0.147</gom:speed></extensions></trkpt>
   <trkpt lat="59.3269279993" lon="34.7144030534"><ele>174.621</ele><time>2026-08-17T05:10:35.644Z</time><hdop>3.0</hdop><vdop>3.0</vdop><extensions><gom:speed>0.185</gom:speed></extensions></trkpt>
   <trkpt lat="59.3269282927" lon="34.7144018799"><ele>174.714</ele><time>2026-08-17T05:10:36.097Z</time><hdop>3.0</hdop><vdop>3.0</vdop><extensions><gom:speed>0.111</gom:speed></extensions></trkpt>
   <trkpt lat="59.326928586" lon="34.7144021314"><ele>174.85</ele><time>2026-08-17T05:10:36.652Z</time><hdop>3.0</hdop><vdop>2.875</vdop><extensions><gom:speed>0.097</gom:speed></extensions></trkpt>
   <trkpt lat="59.3269241855" lon="34.7144094236"><ele>175.022</ele><time>2026-08-17T05:10:37.655Z</time><hdop>3.0</hdop><vdop>2.687</vdop><extensions><gom:speed>0.173</gom:speed></extensions></trkpt>
   <trkpt lat="59.3269213776" lon="34.7144155424"><ele>175.124</ele><time>2026-08-17T05:10:38.575Z</time><hdop>3.0</hdop><vdop>2.687</vdop><extensions><gom:speed>0.116</gom:speed></extensions></trkpt>
   <trkpt lat="59.3269131633" lon="34.71442317"><ele>175.165</ele><time>2026-08-17T05:10:39.435Z</time><hdop>3.0</hdop><vdop>2.812</vdop><extensions><gom:speed>0.22</gom:speed></extensions></trkpt>
   <trkpt lat="59.3269085952" lon="34.7144281991"><ele>175.089</ele><time>2026-08-17T05:10:40.477Z</time><hdop>3.0</hdop><vdop>2.937</vdop><extensions><gom:speed>0.206</gom:speed></extensions></trkpt>
   <trkpt lat="59.3269031889" lon="34.7144358266"><ele>174.432</ele><time>2026-08-17T05:10:41.652Z</time><hdop>3.0</hdop><vdop>3.312</vdop><extensions><gom:speed>0.119</gom:speed></extensions></trkpt>
   <trkpt lat="59.3268934659" lon="34.7144509979"><ele>174.039</ele><time>2026-08-17T05:10:42.339Z</time><hdop>3.0</hdop><vdop>3.312</vdop><extensions><gom:speed>0.283</gom:speed></extensions></trkpt>
   <trkpt lat="59.3268904903" lon="34.7144576196"><ele>173.746</ele><time>2026-08-17T05:10:42.875Z</time><hdop>3.0</hdop><vdop>3.25</vdop><extensions><gom:speed>0.22</gom:speed></extensions></trkpt>
   <trkpt lat="59.3268905741" lon="34.7144581225"><ele>173.392</ele><time>2026-08-17T05:10:43.664Z</time><hdop>3.0</hdop><vdop>3.312</vdop><extensions><gom:speed>0.158</gom:speed></extensions></trkpt>
   <trkpt lat="59.3268846649" lon="34.7144719526"><ele>173.151</ele><time>2026-08-17T05:10:44.652Z</time><hdop>3.0</hdop><vdop>3.0</vdop><extensions><gom:speed>0.223</gom:speed></extensions></trkpt>
   <trkpt lat="59.3268832818" lon="34.7144782391"><ele>173.178</ele><time>2026-08-17T05:10:45.653Z</time><hdop>3.0</hdop><vdop>2.875</vdop><extensions><gom:speed>0.15</gom:speed></extensions></trkpt>
   <trkpt lat="59.3268818988" lon="34.7144886326"><ele>173.191</ele><time>2026-08-17T05:10:46.652Z</time><hdop>3.0</hdop><vdop>2.75</vdop><extensions><gom:speed>0.156</gom:speed></extensions></trkpt>
   <trkpt lat="59.3268817731" lon="34.7144990262"><ele>173.02</ele><time>2026-08-17T05:10:47.653Z</time><hdop>3.0</hdop><vdop>2.875</vdop><extensions><gom:speed>0.094</gom:speed></extensions></trkpt>
   <trkpt lat="59.3268825694" lon="34.7145129401"><ele>173.017</ele><time>2026-08-17T05:10:48.645Z</time><hdop>3.0</hdop><vdop>2.937</vdop><extensions><gom:speed>0.116</gom:speed></extensions></trkpt>
   <trkpt lat="59.3268825694" lon="34.7145135269"><ele>172.873</ele><time>2026-08-17T05:10:49.652Z</time><hdop>3.0</hdop><vdop>2.937</vdop><extensions><gom:speed>0.062</gom:speed></extensions></trkpt>
   <trkpt lat="59.3268817731" lon="34.7145226632"><ele>172.788</ele><time>2026-08-17T05:10:50.574Z</time><hdop>3.0</hdop><vdop>2.937</vdop><extensions><gom:speed>0.148</gom:speed></extensions></trkpt>
   <trkpt lat="59.3268815635" lon="34.7145300392"><ele>172.854</ele><time>2026-08-17T05:10:51.434Z</time><hdop>3.0</hdop><vdop>2.75</vdop><extensions><gom:speed>0.092</gom:speed></extensions></trkpt>
   <trkpt lat="59.3268813959" lon="34.714539427"><ele>172.732</ele><time>2026-08-17T05:10:52.652Z</time><hdop>3.0</hdop><vdop>2.562</vdop><extensions><gom:speed>0.042</gom:speed></extensions></trkpt>
   <trkpt lat="59.3268797614" lon="34.7145499882"><ele>172.658</ele><time>2026-08-17T05:10:53.659Z</time><hdop>3.0</hdop><vdop>2.562</vdop><extensions><gom:speed>0.09</gom:speed></extensions></trkpt>
   <trkpt lat="59.3268775821" lon="34.7145604655"><ele>172.507</ele><time>2026-08-17T05:10:54.652Z</time><hdop>3.0</hdop><vdop>2.625</vdop><extensions><gom:speed>0.074</gom:speed></extensions></trkpt>
   <trkpt lat="59.3268754867" lon="34.7145717811"><ele>172.421</ele><time>2026-08-17T05:10:55.653Z</time><hdop>3.0</hdop><vdop>2.5</vdop><extensions><gom:speed>0.057</gom:speed></extensions></trkpt>
   <trkpt lat="59.3268721758" lon="34.7145890478"><ele>172.377</ele><time>2026-08-17T05:10:56.645Z</time><hdop>3.0</hdop><vdop>2.5</vdop><extensions><gom:speed>0.103</gom:speed></extensions></trkpt>
   <trkpt lat="59.3268728883" lon="34.7145872876"><ele>172.358</ele><time>2026-08-17T05:10:57.652Z</time><hdop>3.0</hdop><vdop>2.5</vdop><extensions><gom:speed>0.062</gom:speed></extensions></trkpt>
   <trkpt lat="59.3268710862" lon="34.7145954181"><ele>172.358</ele><time>2026-08-17T05:10:58.653Z</time><hdop>3.0</hdop><vdop>2.5</vdop><extensions><gom:speed>0.067</gom:speed></extensions></trkpt>
   <trkpt lat="59.3268694936" lon="34.7146024589"><ele>172.358</ele><time>2026-08-17T05:10:59.143Z</time><hdop>3.0</hdop><vdop>2.5</vdop><extensions><gom:speed>0.092</gom:speed></extensions></trkpt>
   <trkpt lat="59.3268694936" lon="34.7146027941"><ele>172.255</ele><time>2026-08-17T05:10:59.652Z</time><hdop>3.0</hdop><vdop>2.5</vdop><extensions><gom:speed>0.071</gom:speed></extensions></trkpt>
   <trkpt lat="59.3268679849" lon="34.7146109246"><ele>172.169</ele><time>2026-08-17T05:11:00.652Z</time><hdop>3.0</hdop><vdop>2.5</vdop><extensions><gom:speed>0.074</gom:speed></extensions></trkpt>
   <trkpt lat="59.3268665599" lon="34.7146244195"><ele>172.079</ele><time>2026-08-17T05:11:01.645Z</time><hdop>3.0</hdop><vdop>2.5</vdop><extensions><gom:speed>0.094</gom:speed></extensions></trkpt>
   <trkpt lat="59.3268661828" lon="34.7146314603"><ele>172.026</ele><time>2026-08-17T05:11:02.645Z</time><hdop>3.0</hdop><vdop>2.5</vdop><extensions><gom:speed>0.096</gom:speed></extensions></trkpt>
   <trkpt lat="59.3268656798" lon="34.7146316279"><ele>171.995</ele><time>2026-08-17T05:11:03.652Z</time><hdop>3.0</hdop><vdop>2.5</vdop><extensions><gom:speed>0.026</gom:speed></extensions></trkpt>
   <trkpt lat="59.3268660989" lon="34.7146355674"><ele>171.976</ele><time>2026-08-17T05:11:04.652Z</time><hdop>3.0</hdop><vdop>2.5</vdop><extensions><gom:speed>0.021</gom:speed></extensions></trkpt>
   <trkpt lat="59.3268657637" lon="34.7146387525"><ele>171.966</ele><time>2026-08-17T05:11:05.658Z</time><hdop>3.0</hdop><vdop>2.5</vdop><extensions><gom:speed>0.016</gom:speed></extensions></trkpt>
   <trkpt lat="59.326865596" lon="34.7146451228"><ele>171.959</ele><time>2026-08-17T05:11:06.645Z</time><hdop>3.0</hdop><vdop>2.5</vdop><extensions><gom:speed>0.067</gom:speed></extensions></trkpt>
   <trkpt lat="59.3268657637" lon="34.7146412671"><ele>171.956</ele><time>2026-08-17T05:11:07.652Z</time><hdop>3.0</hdop><vdop>2.5</vdop><extensions><gom:speed>0.02</gom:speed></extensions></trkpt>
   <trkpt lat="59.3268657637" lon="34.7146436978"><ele>171.953</ele><time>2026-08-17T05:11:08.652Z</time><hdop>3.0</hdop><vdop>2.5</vdop><extensions><gom:speed>0.017</gom:speed></extensions></trkpt>
   <trkpt lat="59.326865596" lon="34.7146460448"><ele>171.951</ele><time>2026-08-17T05:11:09.118Z</time><hdop>3.0</hdop><vdop>2.5</vdop><extensions><gom:speed>0.07</gom:speed></extensions></trkpt>
   <trkpt lat="59.3268651769" lon="34.7146472182"><ele>171.949</ele><time>2026-08-17T05:11:09.674Z</time><hdop>3.0</hdop><vdop>2.5</vdop><extensions><gom:speed>0.108</gom:speed></extensions></trkpt>
   <trkpt lat="59.3268654703" lon="34.7146480564"><ele>171.984</ele><time>2026-08-17T05:11:10.652Z</time><hdop>3.0</hdop><vdop>2.937</vdop><extensions><gom:speed>0.032</gom:speed></extensions></trkpt>
   <trkpt lat="59.3268668952" lon="34.7146497328"><ele>172.138</ele><time>2026-08-17T05:11:11.652Z</time><hdop>3.0</hdop><vdop>3.187</vdop><extensions><gom:speed>0.044</gom:speed></extensions></trkpt>
   <trkpt lat="59.3268682782" lon="34.7146529179"><ele>172.258</ele><time>2026-08-17T05:11:12.658Z</time><hdop>3.0</hdop><vdop>3.062</vdop><extensions><gom:speed>0.109</gom:speed></extensions></trkpt>
   <trkpt lat="59.3268698708" lon="34.7146626409"><ele>172.33</ele><time>2026-08-17T05:11:13.437Z</time><hdop>3.0</hdop><vdop>3.062</vdop><extensions><gom:speed>0.202</gom:speed></extensions></trkpt>
   <trkpt lat="59.3268712957" lon="34.7146779798"><ele>172.558</ele><time>2026-08-17T05:11:14.459Z</time><hdop>3.0</hdop><vdop>3.312</vdop><extensions><gom:speed>0.252</gom:speed></extensions></trkpt>
   <trkpt lat="59.3268735588" lon="34.7146934863"><ele>172.866</ele><time>2026-08-17T05:11:15.339Z</time><hdop>3.0</hdop><vdop>3.562</vdop><extensions><gom:speed>0.293</gom:speed></extensions></trkpt>
   <trkpt lat="59.3268747742" lon="34.7147108369"><ele>172.718</ele><time>2026-08-17T05:11:16.241Z</time><hdop>3.0</hdop><vdop>3.562</vdop><extensions><gom:speed>0.316</gom:speed></extensions></trkpt>
   <trkpt lat="59.3268775821" lon="34.7147337195"><ele>172.622</ele><time>2026-08-17T05:11:17.616Z</time><hdop>3.0</hdop><vdop>3.312</vdop><extensions><gom:speed>0.337</gom:speed></extensions></trkpt>
   <trkpt lat="59.3268803901" lon="34.7147439454"><ele>172.354</ele><time>2026-08-17T05:11:18.081Z</time><hdop>3.0</hdop><vdop>3.375</vdop><extensions><gom:speed>0.244</gom:speed></extensions></trkpt>
   <trkpt lat="59.3268843715" lon="34.7147528302"><ele>172.186</ele><time>2026-08-17T05:11:18.645Z</time><hdop>3.0</hdop><vdop>2.937</vdop><extensions><gom:speed>0.216</gom:speed></extensions></trkpt>
   <trkpt lat="59.3268837848" lon="34.7147520758"><ele>172.087</ele><time>2026-08-17T05:11:19.652Z</time><hdop>3.0</hdop><vdop>2.687</vdop><extensions><gom:speed>0.087</gom:speed></extensions></trkpt>
   <trkpt lat="59.3268869699" lon="34.7147594519"><ele>172.237</ele><time>2026-08-17T05:11:20.652Z</time><hdop>3.0</hdop><vdop>2.562</vdop><extensions><gom:speed>0.038</gom:speed></extensions></trkpt>
   <trkpt lat="59.3268893587" lon="34.7147648163"><ele>172.36</ele><time>2026-08-17T05:11:21.652Z</time><hdop>3.0</hdop><vdop>2.5</vdop><extensions><gom:speed>0.028</gom:speed></extensions></trkpt>
   <trkpt lat="59.326891077" lon="34.7147659898"><ele>172.436</ele><time>2026-08-17T05:11:22.653Z</time><hdop>3.0</hdop><vdop>2.5</vdop><extensions><gom:speed>0.022</gom:speed></extensions></trkpt>
   <trkpt lat="59.3268930887" lon="34.7147684206"><ele>172.478</ele><time>2026-08-17T05:11:23.652Z</time><hdop>3.0</hdop><vdop>2.5</vdop><extensions><gom:speed>0.021</gom:speed></extensions></trkpt>
   <trkpt lat="59.3268941783" lon="34.7147693426"><ele>172.506</ele><time>2026-08-17T05:11:24.657Z</time><hdop>3.0</hdop><vdop>2.5</vdop><extensions><gom:speed>0.023</gom:speed></extensions></trkpt>
   <trkpt lat="59.32689619" lon="34.7147717733"><ele>172.524</ele><time>2026-08-17T05:11:25.644Z</time><hdop>3.0</hdop><vdop>2.5</vdop><extensions><gom:speed>0.067</gom:speed></extensions></trkpt>
   <trkpt lat="59.3268962738" lon="34.7147710189"><ele>172.534</ele><time>2026-08-17T05:11:26.653Z</time><hdop>3.0</hdop><vdop>2.5</vdop><extensions><gom:speed>0.014</gom:speed></extensions></trkpt>
   <trkpt lat="59.3268969863" lon="34.7147722762"><ele>172.537</ele><time>2026-08-17T05:11:27.651Z</time><hdop>3.0</hdop><vdop>2.5</vdop><extensions><gom:speed>0.094</gom:speed></extensions></trkpt>
   <trkpt lat="59.3268976987" lon="34.714772863"><ele>172.544</ele><time>2026-08-17T05:11:28.645Z</time><hdop>3.0</hdop><vdop>2.5</vdop><extensions><gom:speed>0.064</gom:speed></extensions></trkpt>
   <trkpt lat="59.3268979921" lon="34.7147730306"><ele>172.548</ele><time>2026-08-17T05:11:29.322Z</time><hdop>3.0</hdop><vdop>2.5</vdop><extensions><gom:speed>0.103</gom:speed></extensions></trkpt>
   <trkpt lat="59.3268987884" lon="34.7147750423"><ele>172.55</ele><time>2026-08-17T05:11:30.605Z</time><hdop>3.0</hdop><vdop>2.5</vdop><extensions><gom:speed>0.104</gom:speed></extensions></trkpt>
   <trkpt lat="59.326899878" lon="34.7147778921"><ele>172.543</ele><time>2026-08-17T05:11:31.475Z</time><hdop>3.0</hdop><vdop>2.5</vdop><extensions><gom:speed>0.104</gom:speed></extensions></trkpt>
   <trkpt lat="59.3269010934" lon="34.7147828374"><ele>172.865</ele><time>2026-08-17T05:11:32.416Z</time><hdop>3.0</hdop><vdop>2.5</vdop><extensions><gom:speed>0.138</gom:speed></extensions></trkpt>
   <trkpt lat="59.326902183" lon="34.714789543"><ele>172.87</ele><time>2026-08-17T05:11:33.377Z</time><hdop>3.0</hdop><vdop>2.562</vdop><extensions><gom:speed>0.168</gom:speed></extensions></trkpt>
   <trkpt lat="59.3269036918" lon="34.7148008585"><ele>172.821</ele><time>2026-08-17T05:11:34.177Z</time><hdop>3.0</hdop><vdop>2.812</vdop><extensions><gom:speed>0.254</gom:speed></extensions></trkpt>
   <trkpt lat="59.3269036918" lon="34.7148022834"><ele>172.565</ele><time>2026-08-17T05:11:34.652Z</time><hdop>3.0</hdop><vdop>2.875</vdop><extensions><gom:speed>0.222</gom:speed></extensions></trkpt>
   <trkpt lat="59.3269047814" lon="34.7148092404"><ele>172.411</ele><time>2026-08-17T05:11:35.603Z</time><hdop>3.0</hdop><vdop>2.875</vdop><extensions><gom:speed>0.221</gom:speed></extensions></trkpt>
   <trkpt lat="59.3269066673" lon="34.7148138505"><ele>172.298</ele><time>2026-08-17T05:11:36.099Z</time><hdop>3.0</hdop><vdop>3.062</vdop><extensions><gom:speed>0.162</gom:speed></extensions></trkpt>
   <trkpt lat="59.3269065835" lon="34.7148155269"><ele>172.011</ele><time>2026-08-17T05:11:36.652Z</time><hdop>3.0</hdop><vdop>2.875</vdop><extensions><gom:speed>0.148</gom:speed></extensions></trkpt>
   <trkpt lat="59.3269074636" lon="34.7148219809"><ele>171.84</ele><time>2026-08-17T05:11:37.596Z</time><hdop>3.0</hdop><vdop>2.875</vdop><extensions><gom:speed>0.157</gom:speed></extensions></trkpt>
   <trkpt lat="59.3269081761" lon="34.7148262557"><ele>171.748</ele><time>2026-08-17T05:11:38.416Z</time><hdop>3.0</hdop><vdop>3.0</vdop><extensions><gom:speed>0.143</gom:speed></extensions></trkpt>
   <trkpt lat="59.3269081761" lon="34.7148296923"><ele>171.707</ele><time>2026-08-17T05:11:39.275Z</time><hdop>3.0</hdop><vdop>2.875</vdop><extensions><gom:speed>0.136</gom:speed></extensions></trkpt>
   <trkpt lat="59.3269059968" lon="34.7148442768"><ele>171.708</ele><time>2026-08-17T05:11:40.257Z</time><hdop>3.0</hdop><vdop>2.875</vdop><extensions><gom:speed>0.361</gom:speed></extensions></trkpt>
   <trkpt lat="59.3269009677" lon="34.7148641419"><ele>171.792</ele><time>2026-08-17T05:11:41.501Z</time><hdop>3.0</hdop><vdop>2.875</vdop><extensions><gom:speed>0.531</gom:speed></extensions></trkpt>
   <trkpt lat="59.3268959804" lon="34.7148694225"><ele>171.843</ele><time>2026-08-17T05:11:42.482Z</time><hdop>3.062</hdop><vdop>2.812</vdop><extensions><gom:speed>0.524</gom:speed></extensions></trkpt>
   <trkpt lat="59.3268944717" lon="34.7148672432"><ele>171.719</ele><time>2026-08-17T05:11:43.555Z</time><hdop>3.187</hdop><vdop>2.625</vdop><extensions><gom:speed>0.42</gom:speed></extensions></trkpt>
   <trkpt lat="59.3268928791" lon="34.7148666565"><ele>171.473</ele><time>2026-08-17T05:11:44.617Z</time><hdop>3.25</hdop><vdop>2.5</vdop><extensions><gom:speed>0.309</gom:speed></extensions></trkpt>
   <trkpt lat="59.3268944717" lon="34.7148579393"><ele>171.235</ele><time>2026-08-17T05:11:45.397Z</time><hdop>3.312</hdop><vdop>2.5</vdop><extensions><gom:speed>0.131</gom:speed></extensions></trkpt>
   <trkpt lat="59.3268943879" lon="34.7148592804"><ele>171.085</ele><time>2026-08-17T05:11:46.478Z</time><hdop>3.25</hdop><vdop>2.5</vdop><extensions><gom:speed>0.112</gom:speed></extensions></trkpt>
   <trkpt lat="59.3268953937" lon="34.7148675785"><ele>171.15</ele><time>2026-08-17T05:11:47.318Z</time><hdop>3.187</hdop><vdop>2.5</vdop><extensions><gom:speed>0.145</gom:speed></extensions></trkpt>
   <trkpt lat="59.3268969863" lon="34.7148756251"><ele>171.006</ele><time>2026-08-17T05:11:47.825Z</time><hdop>3.187</hdop><vdop>2.5</vdop><extensions><gom:speed>0.175</gom:speed></extensions></trkpt>
   <trkpt lat="59.3268963995" lon="34.7148781397"><ele>170.92</ele><time>2026-08-17T05:11:48.421Z</time><hdop>3.125</hdop><vdop>2.5</vdop><extensions><gom:speed>0.203</gom:speed></extensions></trkpt>
   <trkpt lat="59.3268991655" lon="34.7148902934"><ele>170.854</ele><time>2026-08-17T05:11:49.200Z</time><hdop>3.0</hdop><vdop>2.5</vdop><extensions><gom:speed>0.351</gom:speed></extensions></trkpt>
   <trkpt lat="59.3269026859" lon="34.7148996812"><ele>170.876</ele><time>2026-08-17T05:11:49.979Z</time><hdop>3.0</hdop><vdop>2.5</vdop><extensions><gom:speed>0.433</gom:speed></extensions></trkpt>
   <trkpt lat="59.3269020992" lon="34.7149050456"><ele>170.89</ele><time>2026-08-17T05:11:50.677Z</time><hdop>3.0</hdop><vdop>2.5</vdop><extensions><gom:speed>0.429</gom:speed></extensions></trkpt>
   <trkpt lat="59.3269052843" lon="34.7149147686"><ele>170.87</ele><time>2026-08-17T05:11:51.537Z</time><hdop>3.0</hdop><vdop>2.625</vdop><extensions><gom:speed>0.472</gom:speed></extensions></trkpt>
   <trkpt lat="59.326908679" lon="34.7149239887"><ele>171.45</ele><time>2026-08-17T05:11:52.255Z</time><hdop>3.0</hdop><vdop>2.687</vdop><extensions><gom:speed>0.491</gom:speed></extensions></trkpt>
   <trkpt lat="59.326910984" lon="34.7149268385"><ele>171.606</ele><time>2026-08-17T05:11:52.781Z</time><hdop>3.0</hdop><vdop>2.75</vdop><extensions><gom:speed>0.361</gom:speed></extensions></trkpt>
   <trkpt lat="59.3269153845" lon="34.7149299398"><ele>171.7</ele><time>2026-08-17T05:11:53.645Z</time><hdop>3.0</hdop><vdop>2.937</vdop><extensions><gom:speed>0.257</gom:speed></extensions></trkpt>
   <trkpt lat="59.3269172705" lon="34.71492709"><ele>171.759</ele><time>2026-08-17T05:11:54.652Z</time><hdop>3.0</hdop><vdop>2.937</vdop><extensions><gom:speed>0.067</gom:speed></extensions></trkpt>
   <trkpt lat="59.326919785" lon="34.714924743"><ele>171.797</ele><time>2026-08-17T05:11:55.652Z</time><hdop>3.0</hdop><vdop>3.0</vdop><extensions><gom:speed>0.04</gom:speed></extensions></trkpt>
   <trkpt lat="59.3269224672" lon="34.7149237372"><ele>171.794</ele><time>2026-08-17T05:11:56.652Z</time><hdop>3.0</hdop><vdop>3.187</vdop><extensions><gom:speed>0.041</gom:speed></extensions></trkpt>
   <trkpt lat="59.326925359" lon="34.7149231505"><ele>171.792</ele><time>2026-08-17T05:11:57.394Z</time><hdop>3.0</hdop><vdop>3.187</vdop><extensions><gom:speed>0.086</gom:speed></extensions></trkpt>
   <trkpt lat="59.3269283765" lon="34.7149226476"><ele>171.793</ele><time>2026-08-17T05:11:58.645Z</time><hdop>3.0</hdop><vdop>2.812</vdop><extensions><gom:speed>0.082</gom:speed></extensions></trkpt>
   <trkpt lat="59.3269306815" lon="34.7149235696"><ele>171.794</ele><time>2026-08-17T05:11:59.645Z</time><hdop>3.0</hdop><vdop>2.875</vdop><extensions><gom:speed>0.086</gom:speed></extensions></trkpt>
   <trkpt lat="59.3269309749" lon="34.7149236534"><ele>171.795</ele><time>2026-08-17T05:12:00.652Z</time><hdop>3.0</hdop><vdop>2.812</vdop><extensions><gom:speed>0.033</gom:speed></extensions></trkpt>
   <trkpt lat="59.3269321902" lon="34.7149239887"><ele>171.797</ele><time>2026-08-17T05:12:01.645Z</time><hdop>3.0</hdop><vdop>2.625</vdop><extensions><gom:speed>0.066</gom:speed></extensions></trkpt>
   <trkpt lat="59.3269326932" lon="34.7149240725"><ele>171.8</ele><time>2026-08-17T05:12:02.652Z</time><hdop>3.0</hdop><vdop>2.562</vdop><extensions><gom:speed>0.017</gom:speed></extensions></trkpt>
   <trkpt lat="59.3269337828" lon="34.714923821"><ele>171.801</ele><time>2026-08-17T05:12:03.645Z</time><hdop>3.0</hdop><vdop>2.5</vdop><extensions><gom:speed>0.074</gom:speed></extensions></trkpt>
   <trkpt lat="59.32693416" lon="34.7149222285"><ele>171.801</ele><time>2026-08-17T05:12:04.658Z</time><hdop>3.0</hdop><vdop>2.5</vdop><extensions><gom:speed>0.015</gom:speed></extensions></trkpt>
   <trkpt lat="59.3269353754" lon="34.7149214741"><ele>171.8</ele><time>2026-08-17T05:12:05.644Z</time><hdop>3.0</hdop><vdop>2.5</vdop><extensions><gom:speed>0.054</gom:speed></extensions></trkpt>
   <trkpt lat="59.3269365907" lon="34.7149212227"><ele>171.798</ele><time>2026-08-17T05:12:06.646Z</time><hdop>3.0</hdop><vdop>2.5</vdop><extensions><gom:speed>0.072</gom:speed></extensions></trkpt>
   <trkpt lat="59.3269368841" lon="34.714921977"><ele>171.795</ele><time>2026-08-17T05:12:07.653Z</time><hdop>3.0</hdop><vdop>2.5</vdop><extensions><gom:speed>0.087</gom:speed></extensions></trkpt>
   <trkpt lat="59.3269371775" lon="34.7149216417"><ele>171.793</ele><time>2026-08-17T05:12:08.652Z</time><hdop>3.0</hdop><vdop>2.5</vdop><extensions><gom:speed>0.012</gom:speed></extensions></trkpt>
   <trkpt lat="59.3269375966" lon="34.7149218932"><ele>171.79</ele><time>2026-08-17T05:12:09.645Z</time><hdop>3.0</hdop><vdop>2.5</vdop><extensions><gom:speed>0.063</gom:speed></extensions></trkpt>
   <trkpt lat="59.3269375966" lon="34.7149230667"><ele>171.79</ele><time>2026-08-17T05:12:10.645Z</time><hdop>3.0</hdop><vdop>2.5</vdop><extensions><gom:speed>0.082</gom:speed></extensions></trkpt>
   <trkpt lat="59.3269371775" lon="34.7149223961"><ele>171.791</ele><time>2026-08-17T05:12:11.652Z</time><hdop>3.0</hdop><vdop>2.5</vdop><extensions><gom:speed>0.005</gom:speed></extensions></trkpt>
   <trkpt lat="59.326937387" lon="34.714922899"><ele>171.792</ele><time>2026-08-17T05:12:12.670Z</time><hdop>3.0</hdop><vdop>2.5</vdop><extensions><gom:speed>0.008</gom:speed></extensions></trkpt>
   <trkpt lat="59.3269376804" lon="34.7149225638"><ele>171.792</ele><time>2026-08-17T05:12:13.645Z</time><hdop>3.0</hdop><vdop>2.5</vdop><extensions><gom:speed>0.001</gom:speed></extensions></trkpt>
   <trkpt lat="59.3269377642" lon="34.7149224799"><ele>171.789</ele><time>2026-08-17T05:12:14.652Z</time><hdop>3.0</hdop><vdop>2.5</vdop><extensions><gom:speed>0.003</gom:speed></extensions></trkpt>
   <trkpt lat="59.3269378899" lon="34.7149224799"><ele>171.789</ele><time>2026-08-17T05:12:15.645Z</time><hdop>3.0</hdop><vdop>2.5</vdop><extensions><gom:speed>0.023</gom:speed></extensions></trkpt>
   <trkpt lat="59.3269379738" lon="34.7149227314"><ele>171.792</ele><time>2026-08-17T05:12:16.656Z</time><hdop>3.0</hdop><vdop>2.5</vdop><extensions><gom:speed>0.024</gom:speed></extensions></trkpt>
   <trkpt lat="59.3269380995" lon="34.7149231505"><ele>171.795</ele><time>2026-08-17T05:12:17.652Z</time><hdop>3.0</hdop><vdop>2.5</vdop><extensions><gom:speed>0.03</gom:speed></extensions></trkpt>
   <trkpt lat="59.3269382671" lon="34.7149234858"><ele>171.798</ele><time>2026-08-17T05:12:18.644Z</time><hdop>3.0</hdop><vdop>2.5</vdop><extensions><gom:speed>0.04</gom:speed></extensions></trkpt>
   <trkpt lat="59.3269382671" lon="34.7149240725"><ele>171.803</ele><time>2026-08-17T05:12:19.652Z</time><hdop>3.0</hdop><vdop>2.5</vdop><extensions><gom:speed>0.041</gom:speed></extensions></trkpt>
   <trkpt lat="59.3269383929" lon="34.7149246592"><ele>171.806</ele><time>2026-08-17T05:12:20.652Z</time><hdop>3.0</hdop><vdop>2.5</vdop><extensions><gom:speed>0.046</gom:speed></extensions></trkpt>
   <trkpt lat="59.3269385605" lon="34.7149250783"><ele>171.806</ele><time>2026-08-17T05:12:21.645Z</time><hdop>3.0</hdop><vdop>2.5</vdop><extensions><gom:speed>0.056</gom:speed></extensions></trkpt>
   <trkpt lat="59.3269385605" lon="34.714925246"><ele>171.807</ele><time>2026-08-17T05:12:22.554Z</time><hdop>3.0</hdop><vdop>2.5</vdop><extensions><gom:speed>0.056</gom:speed></extensions></trkpt>
   <trkpt lat="59.32693877" lon="34.7149260842"><ele>171.805</ele><time>2026-08-17T05:12:23.645Z</time><hdop>3.0</hdop><vdop>2.5</vdop><extensions><gom:speed>0.062</gom:speed></extensions></trkpt>
   <trkpt lat="59.3269388958" lon="34.7149264194"><ele>171.803</ele><time>2026-08-17T05:12:24.645Z</time><hdop>3.0</hdop><vdop>2.5</vdop><extensions><gom:speed>0.062</gom:speed></extensions></trkpt>
   <trkpt lat="59.3269389796" lon="34.7149268385"><ele>171.802</ele><time>2026-08-17T05:12:25.645Z</time><hdop>3.0</hdop><vdop>2.5</vdop><extensions><gom:speed>0.065</gom:speed></extensions></trkpt>
   <trkpt lat="59.3269390634" lon="34.7149272576"><ele>171.801</ele><time>2026-08-17T05:12:26.646Z</time><hdop>3.0</hdop><vdop>2.5</vdop><extensions><gom:speed>0.066</gom:speed></extensions></trkpt>
   <trkpt lat="59.3269390634" lon="34.7149278444"><ele>171.799</ele><time>2026-08-17T05:12:27.652Z</time><hdop>3.0</hdop><vdop>2.5</vdop><extensions><gom:speed>0.067</gom:speed></extensions></trkpt>
   <trkpt lat="59.3269390634" lon="34.7149281796"><ele>171.797</ele><time>2026-08-17T05:12:28.644Z</time><hdop>3.0</hdop><vdop>2.5</vdop><extensions><gom:speed>0.073</gom:speed></extensions></trkpt>
   <trkpt lat="59.3269391891" lon="34.714928934"><ele>171.799</ele><time>2026-08-17T05:12:29.652Z</time><hdop>3.0</hdop><vdop>2.5</vdop><extensions><gom:speed>0.074</gom:speed></extensions></trkpt>
   <trkpt lat="59.3269395663" lon="34.7149290178"><ele>171.801</ele><time>2026-08-17T05:12:30.648Z</time><hdop>3.0</hdop><vdop>2.5</vdop><extensions><gom:speed>0.073</gom:speed></extensions></trkpt>
   <trkpt lat="59.3269398597" lon="34.7149285987"><ele>171.809</ele><time>2026-08-17T05:12:31.645Z</time><hdop>3.0</hdop><vdop>2.5</vdop><extensions><gom:speed>0.076</gom:speed></extensions></trkpt>
   <trkpt lat="59.326940195" lon="34.7149286825"><ele>171.829</ele><time>2026-08-17T05:12:32.645Z</time><hdop>3.0</hdop><vdop>2.5</vdop><extensions><gom:speed>0.225</gom:speed></extensions></trkpt>
   <trkpt lat="59.3269400692" lon="34.7149308618"><ele>171.84</ele><time>2026-08-17T05:12:33.644Z</time><hdop>3.0</hdop><vdop>2.5</vdop><extensions><gom:speed>0.097</gom:speed></extensions></trkpt>
   <trkpt lat="59.3269398597" lon="34.7149308618"><ele>171.847</ele><time>2026-08-17T05:12:34.391Z</time><hdop>3.0</hdop><vdop>2.5</vdop><extensions><gom:speed>0.097</gom:speed></extensions></trkpt>
   <trkpt lat="59.326939273" lon="34.7149310295"><ele>171.853</ele><time>2026-08-17T05:12:35.646Z</time><hdop>3.0</hdop><vdop>2.5</vdop><extensions><gom:speed>0.071</gom:speed></extensions></trkpt>
   <trkpt lat="59.326939273" lon="34.7149308618"><ele>171.855</ele><time>2026-08-17T05:12:36.644Z</time><hdop>3.0</hdop><vdop>2.5</vdop><extensions><gom:speed>0.069</gom:speed></extensions></trkpt>
   <trkpt lat="59.326939273" lon="34.7149308618"><ele>171.857</ele><time>2026-08-17T05:12:37.645Z</time><hdop>3.0</hdop><vdop>2.5</vdop><extensions><gom:speed>0.066</gom:speed></extensions></trkpt>
   <trkpt lat="59.326939273" lon="34.714930778"><ele>171.859</ele><time>2026-08-17T05:12:38.645Z</time><hdop>3.0</hdop><vdop>2.5</vdop><extensions><gom:speed>0.067</gom:speed></extensions></trkpt>
   <trkpt lat="59.326939273" lon="34.7149309457"><ele>171.868</ele><time>2026-08-17T05:12:39.653Z</time><hdop>3.0</hdop><vdop>2.5</vdop><extensions><gom:speed>0.067</gom:speed></extensions></trkpt>
   <trkpt lat="59.326939273" lon="34.714930778"><ele>171.876</ele><time>2026-08-17T05:12:40.644Z</time><hdop>3.0</hdop><vdop>2.5</vdop><extensions><gom:speed>0.065</gom:speed></extensions></trkpt>
   <trkpt lat="59.326939273" lon="34.7149310295"><ele>171.879</ele><time>2026-08-17T05:12:41.652Z</time><hdop>3.0</hdop><vdop>2.562</vdop><extensions><gom:speed>0.065</gom:speed></extensions></trkpt>
   <trkpt lat="59.3269391891" lon="34.7149308618"><ele>171.88</ele><time>2026-08-17T05:12:42.646Z</time><hdop>3.0</hdop><vdop>2.625</vdop><extensions><gom:speed>0.069</gom:speed></extensions></trkpt>
   <trkpt lat="59.3269391891" lon="34.7149308618"><ele>171.89</ele><time>2026-08-17T05:12:43.645Z</time><hdop>3.0</hdop><vdop>2.625</vdop><extensions><gom:speed>0.071</gom:speed></extensions></trkpt>
   <trkpt lat="59.3269391891" lon="34.7149309457"><ele>171.896</ele><time>2026-08-17T05:12:44.644Z</time><hdop>3.0</hdop><vdop>2.75</vdop><extensions><gom:speed>0.071</gom:speed></extensions></trkpt>
   <trkpt lat="59.3269391891" lon="34.714930778"><ele>171.899</ele><time>2026-08-17T05:12:45.418Z</time><hdop>3.0</hdop><vdop>2.75</vdop><extensions><gom:speed>0.071</gom:speed></extensions></trkpt>
   <trkpt lat="59.3269390634" lon="34.7149312809"><ele>171.911</ele><time>2026-08-17T05:12:46.652Z</time><hdop>3.0</hdop><vdop>2.562</vdop><extensions><gom:speed>0.072</gom:speed></extensions></trkpt>
   <trkpt lat="59.3269389796" lon="34.7149313648"><ele>171.923</ele><time>2026-08-17T05:12:47.645Z</time><hdop>3.0</hdop><vdop>2.5</vdop><extensions><gom:speed>0.067</gom:speed></extensions></trkpt>
   <trkpt lat="59.3269389796" lon="34.7149315324"><ele>171.942</ele><time>2026-08-17T05:12:48.655Z</time><hdop>3.0</hdop><vdop>2.5</vdop><extensions><gom:speed>0.068</gom:speed></extensions></trkpt>
   <trkpt lat="59.3269390634" lon="34.7149313648"><ele>171.968</ele><time>2026-08-17T05:12:49.645Z</time><hdop>3.0</hdop><vdop>2.5</vdop><extensions><gom:speed>0.068</gom:speed></extensions></trkpt>
   <trkpt lat="59.3269390634" lon="34.7149311971"><ele>171.997</ele><time>2026-08-17T05:12:50.645Z</time><hdop>3.0</hdop><vdop>2.5</vdop><extensions><gom:speed>0.067</gom:speed></extensions></trkpt>
   <trkpt lat="59.3269390634" lon="34.7149310295"><ele>172.03</ele><time>2026-08-17T05:12:51.645Z</time><hdop>3.0</hdop><vdop>2.5</vdop><extensions><gom:speed>0.067</gom:speed></extensions></trkpt>
   <trkpt lat="59.3269391891" lon="34.7149309457"><ele>172.055</ele><time>2026-08-17T05:12:52.645Z</time><hdop>3.0</hdop><vdop>2.5</vdop><extensions><gom:speed>0.068</gom:speed></extensions></trkpt>
   <trkpt lat="59.3269391891" lon="34.7149310295"><ele>172.078</ele><time>2026-08-17T05:12:53.652Z</time><hdop>3.0</hdop><vdop>2.5</vdop><extensions><gom:speed>0.069</gom:speed></extensions></trkpt>
   <trkpt lat="59.326939273" lon="34.7149309457"><ele>172.104</ele><time>2026-08-17T05:12:54.646Z</time><hdop>3.0</hdop><vdop>2.5</vdop><extensions><gom:speed>0.072</gom:speed></extensions></trkpt>
   <trkpt lat="59.3269393987" lon="34.714930778"><ele>172.128</ele><time>2026-08-17T05:12:55.645Z</time><hdop>3.0</hdop><vdop>2.5</vdop><extensions><gom:speed>0.068</gom:speed></extensions></trkpt>
   <trkpt lat="59.3269393987" lon="34.7149309457"><ele>172.151</ele><time>2026-08-17T05:12:56.648Z</time><hdop>3.0</hdop><vdop>2.5</vdop><extensions><gom:speed>0.069</gom:speed></extensions></trkpt>
   <trkpt lat="59.3269394825" lon="34.7149306942"><ele>172.165</ele><time>2026-08-17T05:12:57.255Z</time><hdop>3.0</hdop><vdop>2.5</vdop><extensions><gom:speed>0.069</gom:speed></extensions></trkpt>
   <trkpt lat="59.3269395663" lon="34.7149304427"><ele>172.182</ele><time>2026-08-17T05:12:58.645Z</time><hdop>3.0</hdop><vdop>2.5</vdop><extensions><gom:speed>0.07</gom:speed></extensions></trkpt>
   <trkpt lat="59.326939692" lon="34.7149303589"><ele>172.204</ele><time>2026-08-17T05:12:59.645Z</time><hdop>3.0</hdop><vdop>2.5</vdop><extensions><gom:speed>0.07</gom:speed></extensions></trkpt>
   <trkpt lat="59.3269399854" lon="34.7149301913"><ele>172.22</ele><time>2026-08-17T05:13:00.645Z</time><hdop>3.0</hdop><vdop>2.5</vdop><extensions><gom:speed>0.07</gom:speed></extensions></trkpt>
   <trkpt lat="59.3269400692" lon="34.7149300236"><ele>172.232</ele><time>2026-08-17T05:13:01.645Z</time><hdop>3.0</hdop><vdop>2.5</vdop><extensions><gom:speed>0.068</gom:speed></extensions></trkpt>
   <trkpt lat="59.326940195" lon="34.714929856"><ele>172.239</ele><time>2026-08-17T05:13:02.645Z</time><hdop>3.0</hdop><vdop>2.5</vdop><extensions><gom:speed>0.07</gom:speed></extensions></trkpt>
   <trkpt lat="59.326940195" lon="34.7149297722"><ele>172.245</ele><time>2026-08-17T05:13:03.644Z</time><hdop>3.0</hdop><vdop>2.5</vdop><extensions><gom:speed>0.068</gom:speed></extensions></trkpt>
   <trkpt lat="59.326940195" lon="34.7149295207"><ele>172.249</ele><time>2026-08-17T05:13:04.645Z</time><hdop>3.0</hdop><vdop>2.5</vdop><extensions><gom:speed>0.069</gom:speed></extensions></trkpt>
   <trkpt lat="59.326940195" lon="34.7149296884"><ele>172.252</ele><time>2026-08-17T05:13:05.651Z</time><hdop>3.0</hdop><vdop>2.5</vdop><extensions><gom:speed>0.07</gom:speed></extensions></trkpt>
   <trkpt lat="59.3269402788" lon="34.7149294369"><ele>172.255</ele><time>2026-08-17T05:13:06.645Z</time><hdop>3.0</hdop><vdop>2.5</vdop><extensions><gom:speed>0.071</gom:speed></extensions></trkpt>
   <trkpt lat="59.3269403626" lon="34.7149294369"><ele>172.26</ele><time>2026-08-17T05:13:07.652Z</time><hdop>3.0</hdop><vdop>2.5</vdop><extensions><gom:speed>0.072</gom:speed></extensions></trkpt>
   <trkpt lat="59.3269403626" lon="34.7149291855"><ele>172.263</ele><time>2026-08-17T05:13:08.383Z</time><hdop>3.0</hdop><vdop>2.5</vdop><extensions><gom:speed>0.072</gom:speed></extensions></trkpt>
   <trkpt lat="59.3269406979" lon="34.7149291855"><ele>172.266</ele><time>2026-08-17T05:13:09.645Z</time><hdop>3.0</hdop><vdop>2.5</vdop><extensions><gom:speed>0.074</gom:speed></extensions></trkpt>
   <trkpt lat="59.3269407817" lon="34.7149290178"><ele>172.268</ele><time>2026-08-17T05:13:10.645Z</time><hdop>3.0</hdop><vdop>2.5</vdop><extensions><gom:speed>0.072</gom:speed></extensions></trkpt>
   <trkpt lat="59.3269409912" lon="34.714928934"><ele>172.268</ele><time>2026-08-17T05:13:11.645Z</time><hdop>3.0</hdop><vdop>2.5</vdop><extensions><gom:speed>0.07</gom:speed></extensions></trkpt>
   <trkpt lat="59.3269410751" lon="34.7149288502"><ele>172.267</ele><time>2026-08-17T05:13:12.652Z</time><hdop>3.0</hdop><vdop>2.5</vdop><extensions><gom:speed>0.071</gom:speed></extensions></trkpt>
   <trkpt lat="59.3269413684" lon="34.7149286825"><ele>172.267</ele><time>2026-08-17T05:13:13.645Z</time><hdop>3.0</hdop><vdop>2.625</vdop><extensions><gom:speed>0.07</gom:speed></extensions></trkpt>
   <trkpt lat="59.326941578" lon="34.7149286825"><ele>172.265</ele><time>2026-08-17T05:13:14.655Z</time><hdop>3.0</hdop><vdop>2.562</vdop><extensions><gom:speed>0.07</gom:speed></extensions></trkpt>
   <trkpt lat="59.3269417875" lon="34.7149283473"><ele>172.263</ele><time>2026-08-17T05:13:15.645Z</time><hdop>3.0</hdop><vdop>2.562</vdop><extensions><gom:speed>0.067</gom:speed></extensions></trkpt>
   <trkpt lat="59.3269418713" lon="34.7149283473"><ele>172.26</ele><time>2026-08-17T05:13:16.644Z</time><hdop>3.0</hdop><vdop>2.5</vdop><extensions><gom:speed>0.068</gom:speed></extensions></trkpt>
   <trkpt lat="59.3269420809" lon="34.7149283473"><ele>172.256</ele><time>2026-08-17T05:13:17.645Z</time><hdop>3.0</hdop><vdop>2.562</vdop><extensions><gom:speed>0.069</gom:speed></extensions></trkpt>
   <trkpt lat="59.3269421647" lon="34.7149282634"><ele>172.253</ele><time>2026-08-17T05:13:18.645Z</time><hdop>3.0</hdop><vdop>2.5</vdop><extensions><gom:speed>0.07</gom:speed></extensions></trkpt>
   <trkpt lat="59.3269422904" lon="34.7149282634"><ele>172.25</ele><time>2026-08-17T05:13:19.652Z</time><hdop>3.0</hdop><vdop>2.5</vdop><extensions><gom:speed>0.07</gom:speed></extensions></trkpt>
   <trkpt lat="59.3269421647" lon="34.7149281796"><ele>172.247</ele><time>2026-08-17T05:13:20.221Z</time><hdop>3.0</hdop><vdop>2.5</vdop><extensions><gom:speed>0.07</gom:speed></extensions></trkpt>
   <trkpt lat="59.3269422904" lon="34.7149281796"><ele>172.247</ele><time>2026-08-17T05:13:21.644Z</time><hdop>3.0</hdop><vdop>2.5</vdop><extensions><gom:speed>0.071</gom:speed></extensions></trkpt>
   <trkpt lat="59.3269422904" lon="34.7149281796"><ele>172.247</ele><time>2026-08-17T05:13:22.647Z</time><hdop>3.0</hdop><vdop>2.5</vdop><extensions><gom:speed>0.072</gom:speed></extensions></trkpt>
   <trkpt lat="59.3269423743" lon="34.7149279282"><ele>172.247</ele><time>2026-08-17T05:13:23.645Z</time><hdop>3.0</hdop><vdop>2.5</vdop><extensions><gom:speed>0.07</gom:speed></extensions></trkpt>
   <trkpt lat="59.3269423743" lon="34.7149278444"><ele>172.247</ele><time>2026-08-17T05:13:24.645Z</time><hdop>3.0</hdop><vdop>2.5</vdop><extensions><gom:speed>0.072</gom:speed></extensions></trkpt>
   <trkpt lat="59.3269424581" lon="34.7149278444"><ele>172.247</ele><time>2026-08-17T05:13:25.645Z</time><hdop>3.0</hdop><vdop>2.5</vdop><extensions><gom:speed>0.07</gom:speed></extensions></trkpt>
   <trkpt lat="59.3269424581" lon="34.7149279282"><ele>172.247</ele><time>2026-08-17T05:13:26.646Z</time><hdop>3.0</hdop><vdop>2.5</vdop><extensions><gom:speed>0.069</gom:speed></extensions></trkpt>
   <trkpt lat="59.3269425838" lon="34.7149277605"><ele>172.258</ele><time>2026-08-17T05:13:27.645Z</time><hdop>3.0</hdop><vdop>2.5</vdop><extensions><gom:speed>0.072</gom:speed></extensions></trkpt>
   <trkpt lat="59.326942961" lon="34.7149274253"><ele>172.255</ele><time>2026-08-17T05:13:28.645Z</time><hdop>3.0</hdop><vdop>2.5</vdop><extensions><gom:speed>0.07</gom:speed></extensions></trkpt>
   <trkpt lat="59.3269431705" lon="34.7149271738"><ele>172.253</ele><time>2026-08-17T05:13:29.645Z</time><hdop>3.0</hdop><vdop>2.5</vdop><extensions><gom:speed>0.072</gom:speed></extensions></trkpt>
   <trkpt lat="59.3269433801" lon="34.71492709"><ele>172.254</ele><time>2026-08-17T05:13:30.652Z</time><hdop>3.0</hdop><vdop>2.5</vdop><extensions><gom:speed>0.073</gom:speed></extensions></trkpt>
   <trkpt lat="59.3269433801" lon="34.7149268385"><ele>172.255</ele><time>2026-08-17T05:13:31.348Z</time><hdop>3.0</hdop><vdop>2.5</vdop><extensions><gom:speed>0.073</gom:speed></extensions></trkpt>
   <trkpt lat="59.3269439668" lon="34.7149263356"><ele>172.258</ele><time>2026-08-17T05:13:32.645Z</time><hdop>3.0</hdop><vdop>2.5</vdop><extensions><gom:speed>0.073</gom:speed></extensions></trkpt>
   <trkpt lat="59.3269442602" lon="34.7149262518"><ele>172.26</ele><time>2026-08-17T05:13:33.644Z</time><hdop>3.0</hdop><vdop>2.5</vdop><extensions><gom:speed>0.072</gom:speed></extensions></trkpt>
   <trkpt lat="59.3269444697" lon="34.714926168"><ele>172.261</ele><time>2026-08-17T05:13:34.644Z</time><hdop>3.0</hdop><vdop>2.5</vdop><extensions><gom:speed>0.068</gom:speed></extensions></trkpt>
   <trkpt lat="59.3269444697" lon="34.7149264194"><ele>172.263</ele><time>2026-08-17T05:13:35.652Z</time><hdop>3.0</hdop><vdop>2.5</vdop><extensions><gom:speed>0.068</gom:speed></extensions></trkpt>
   <trkpt lat="59.3269447631" lon="34.7149265871"><ele>172.251</ele><time>2026-08-17T05:13:36.644Z</time><hdop>3.0</hdop><vdop>2.5</vdop><extensions><gom:speed>0.067</gom:speed></extensions></trkpt>
   <trkpt lat="59.3269449726" lon="34.7149266709"><ele>172.268</ele><time>2026-08-17T05:13:37.645Z</time><hdop>3.0</hdop><vdop>2.5</vdop><extensions><gom:speed>0.069</gom:speed></extensions></trkpt>
   <trkpt lat="59.3269450984" lon="34.7149266709"><ele>172.288</ele><time>2026-08-17T05:13:38.652Z</time><hdop>3.0</hdop><vdop>2.5</vdop><extensions><gom:speed>0.07</gom:speed></extensions></trkpt>
   <trkpt lat="59.3269454756" lon="34.7149264194"><ele>172.299</ele><time>2026-08-17T05:13:39.645Z</time><hdop>3.0</hdop><vdop>2.5</vdop><extensions><gom:speed>0.067</gom:speed></extensions></trkpt>
   <trkpt lat="59.3269456851" lon="34.7149264194"><ele>172.308</ele><time>2026-08-17T05:13:40.655Z</time><hdop>3.0</hdop><vdop>2.5</vdop><extensions><gom:speed>0.067</gom:speed></extensions></trkpt>
   <trkpt lat="59.3269458947" lon="34.714926168"><ele>172.321</ele><time>2026-08-17T05:13:41.645Z</time><hdop>3.0</hdop><vdop>2.5</vdop><extensions><gom:speed>0.069</gom:speed></extensions></trkpt>
   <trkpt lat="59.3269457689" lon="34.7149260842"><ele>172.329</ele><time>2026-08-17T05:13:42.476Z</time><hdop>3.0</hdop><vdop>2.5</vdop><extensions><gom:speed>0.069</gom:speed></extensions></trkpt>
   <trkpt lat="59.3269460623" lon="34.7149263356"><ele>172.333</ele><time>2026-08-17T05:13:43.645Z</time><hdop>3.0</hdop><vdop>2.5</vdop><extensions><gom:speed>0.073</gom:speed></extensions></trkpt>
   <trkpt lat="59.3269465652" lon="34.7149265871"><ele>172.065</ele><time>2026-08-17T05:13:44.644Z</time><hdop>3.0</hdop><vdop>2.5</vdop><extensions><gom:speed>0.23</gom:speed></extensions></trkpt>
   <trkpt lat="59.3269474872" lon="34.7149269223"><ele>171.782</ele><time>2026-08-17T05:13:45.652Z</time><hdop>3.0</hdop><vdop>2.5</vdop><extensions><gom:speed>0.234</gom:speed></extensions></trkpt>
   <trkpt lat="59.3269483673" lon="34.7149271738"><ele>171.614</ele><time>2026-08-17T05:13:46.118Z</time><hdop>3.0</hdop><vdop>2.5</vdop><extensions><gom:speed>0.413</gom:speed></extensions></trkpt>
   <trkpt lat="59.3269504628" lon="34.7149272576"><ele>171.309</ele><time>2026-08-17T05:13:46.645Z</time><hdop>3.0</hdop><vdop>2.625</vdop><extensions><gom:speed>0.552</gom:speed></extensions></trkpt>
   <trkpt lat="59.3269522649" lon="34.7149273414"><ele>171.128</ele><time>2026-08-17T05:13:47.201Z</time><hdop>3.0</hdop><vdop>2.625</vdop><extensions><gom:speed>0.564</gom:speed></extensions></trkpt>
   <trkpt lat="59.3269534803" lon="34.7149273414"><ele>170.95</ele><time>2026-08-17T05:13:47.652Z</time><hdop>3.062</hdop><vdop>2.937</vdop><extensions><gom:speed>0.561</gom:speed></extensions></trkpt>
   <trkpt lat="59.3269596829" lon="34.7149283473"><ele>170.728</ele><time>2026-08-17T05:13:48.647Z</time><hdop>3.25</hdop><vdop>2.937</vdop><extensions><gom:speed>0.531</gom:speed></extensions></trkpt>
   <trkpt lat="59.3269626585" lon="34.7149280958"><ele>170.595</ele><time>2026-08-17T05:13:49.578Z</time><hdop>3.375</hdop><vdop>2.937</vdop><extensions><gom:speed>0.26</gom:speed></extensions></trkpt>
   <trkpt lat="59.3269692802" lon="34.7149274253"><ele>170.561</ele><time>2026-08-17T05:13:50.296Z</time><hdop>3.437</hdop><vdop>3.125</vdop><extensions><gom:speed>0.437</gom:speed></extensions></trkpt>
   <trkpt lat="59.3269795899" lon="34.7149272576"><ele>171.335</ele><time>2026-08-17T05:13:51.136Z</time><hdop>3.437</hdop><vdop>2.812</vdop><extensions><gom:speed>0.541</gom:speed></extensions></trkpt>
   <trkpt lat="59.3269831941" lon="34.7149245754"><ele>171.771</ele><time>2026-08-17T05:13:51.652Z</time><hdop>3.437</hdop><vdop>2.687</vdop><extensions><gom:speed>0.569</gom:speed></extensions></trkpt>
   <trkpt lat="59.3269914922" lon="34.7149186243"><ele>171.813</ele><time>2026-08-17T05:13:52.652Z</time><hdop>3.437</hdop><vdop>2.687</vdop><extensions><gom:speed>0.634</gom:speed></extensions></trkpt>
   <trkpt lat="59.3269956832" lon="34.7149170317"><ele>171.838</ele><time>2026-08-17T05:13:53.554Z</time><hdop>3.375</hdop><vdop>2.687</vdop><extensions><gom:speed>0.529</gom:speed></extensions></trkpt>
   <trkpt lat="59.3270023887" lon="34.7149133437"><ele>171.913</ele><time>2026-08-17T05:13:54.373Z</time><hdop>3.312</hdop><vdop>2.687</vdop><extensions><gom:speed>0.661</gom:speed></extensions></trkpt>
   <trkpt lat="59.3270085913" lon="34.7149152715"><ele>171.947</ele><time>2026-08-17T05:13:54.960Z</time><hdop>3.187</hdop><vdop>2.562</vdop><extensions><gom:speed>0.648</gom:speed></extensions></trkpt>
   <trkpt lat="59.3270135785" lon="34.7149166964"><ele>171.967</ele><time>2026-08-17T05:13:55.598Z</time><hdop>3.187</hdop><vdop>2.562</vdop><extensions><gom:speed>0.652</gom:speed></extensions></trkpt>
   <trkpt lat="59.327019865" lon="34.7149211388"><ele>172.57</ele><time>2026-08-17T05:13:56.337Z</time><hdop>3.187</hdop><vdop>2.5</vdop><extensions><gom:speed>0.67</gom:speed></extensions></trkpt>
   <trkpt lat="59.3270270734" lon="34.714928934"><ele>172.808</ele><time>2026-08-17T05:13:57.216Z</time><hdop>3.125</hdop><vdop>2.5</vdop><extensions><gom:speed>0.66</gom:speed></extensions></trkpt>
   <trkpt lat="59.3270368802" lon="34.7149438538"><ele>173.673</ele><time>2026-08-17T05:13:58.645Z</time><hdop>3.062</hdop><vdop>2.5</vdop><extensions><gom:speed>0.565</gom:speed></extensions></trkpt>
   <trkpt lat="59.3270408616" lon="34.7149480447"><ele>174.189</ele><time>2026-08-17T05:13:59.401Z</time><hdop>3.0</hdop><vdop>2.5</vdop><extensions><gom:speed>0.522</gom:speed></extensions></trkpt>
   <trkpt lat="59.3270478605" lon="34.7149542473"><ele>174.885</ele><time>2026-08-17T05:14:00.282Z</time><hdop>3.0</hdop><vdop>2.5</vdop><extensions><gom:speed>0.552</gom:speed></extensions></trkpt>
   <trkpt lat="59.3270537698" lon="34.7149595279"><ele>175.567</ele><time>2026-08-17T05:14:00.777Z</time><hdop>3.0</hdop><vdop>2.5</vdop><extensions><gom:speed>0.644</gom:speed></extensions></trkpt>
   <trkpt lat="59.3270586732" lon="34.7149607852"><ele>175.974</ele><time>2026-08-17T05:14:01.475Z</time><hdop>3.0</hdop><vdop>2.5</vdop><extensions><gom:speed>0.654</gom:speed></extensions></trkpt>
   <trkpt lat="59.3270653787" lon="34.714959947"><ele>176.684</ele><time>2026-08-17T05:14:02.254Z</time><hdop>3.0</hdop><vdop>2.625</vdop><extensions><gom:speed>0.643</gom:speed></extensions></trkpt>
   <trkpt lat="59.3270752693" lon="34.714959025"><ele>177.444</ele><time>2026-08-17T05:14:03.013Z</time><hdop>3.0</hdop><vdop>2.812</vdop><extensions><gom:speed>0.738</gom:speed></extensions></trkpt>
   <trkpt lat="59.327080969" lon="34.7149586898"><ele>177.898</ele><time>2026-08-17T05:14:03.660Z</time><hdop>3.0</hdop><vdop>2.812</vdop><extensions><gom:speed>0.739</gom:speed></extensions></trkpt>
   <trkpt lat="59.3270908597" lon="34.7149602823"><ele>178.059</ele><time>2026-08-17T05:14:04.581Z</time><hdop>3.0</hdop><vdop>3.125</vdop><extensions><gom:speed>0.762</gom:speed></extensions></trkpt>
   <trkpt lat="59.3270951764" lon="34.7149607852"><ele>178.149</ele><time>2026-08-17T05:14:05.138Z</time><hdop>3.0</hdop><vdop>3.437</vdop><extensions><gom:speed>0.729</gom:speed></extensions></trkpt>
   <trkpt lat="59.327101379" lon="34.7149643895"><ele>178.191</ele><time>2026-08-17T05:14:05.645Z</time><hdop>3.0</hdop><vdop>2.937</vdop><extensions><gom:speed>0.528</gom:speed></extensions></trkpt>
   <trkpt lat="59.3271035583" lon="34.7149657306"><ele>178.216</ele><time>2026-08-17T05:14:06.159Z</time><hdop>3.0</hdop><vdop>2.937</vdop><extensions><gom:speed>0.557</gom:speed></extensions></trkpt>
   <trkpt lat="59.3271057795" lon="34.7149677422"><ele>178.258</ele><time>2026-08-17T05:14:06.655Z</time><hdop>3.0</hdop><vdop>2.687</vdop><extensions><gom:speed>0.53</gom:speed></extensions></trkpt>
   <trkpt lat="59.3271104733" lon="34.7149771299"><ele>178.94</ele><time>2026-08-17T05:14:07.645Z</time><hdop>3.0</hdop><vdop>2.625</vdop><extensions><gom:speed>0.533</gom:speed></extensions></trkpt>
   <trkpt lat="59.3271151672" lon="34.7149849251"><ele>179.348</ele><time>2026-08-17T05:14:08.476Z</time><hdop>3.0</hdop><vdop>2.625</vdop><extensions><gom:speed>0.611</gom:speed></extensions></trkpt>
   <trkpt lat="59.3271213698" lon="34.7149966598"><ele>179.884</ele><time>2026-08-17T05:14:09.216Z</time><hdop>3.0</hdop><vdop>2.687</vdop><extensions><gom:speed>0.823</gom:speed></extensions></trkpt>
   <trkpt lat="59.3271254769" lon="34.7150079753"><ele>180.024</ele><time>2026-08-17T05:14:09.862Z</time><hdop>3.0</hdop><vdop>2.562</vdop><extensions><gom:speed>0.824</gom:speed></extensions></trkpt>
   <trkpt lat="59.3271289973" lon="34.7150167763"><ele>180.107</ele><time>2026-08-17T05:14:10.479Z</time><hdop>3.0</hdop><vdop>2.562</vdop><extensions><gom:speed>0.839</gom:speed></extensions></trkpt>
   <trkpt lat="59.3271362896" lon="34.7150355518"><ele>180.07</ele><time>2026-08-17T05:14:11.157Z</time><hdop>3.0</hdop><vdop>2.562</vdop><extensions><gom:speed>0.935</gom:speed></extensions></trkpt>
   <trkpt lat="59.3271386784" lon="34.7150386531"><ele>179.921</ele><time>2026-08-17T05:14:11.652Z</time><hdop>3.0</hdop><vdop>2.687</vdop><extensions><gom:speed>0.864</gom:speed></extensions></trkpt>
   <trkpt lat="59.3271430789" lon="34.7150506392"><ele>179.833</ele><time>2026-08-17T05:14:12.594Z</time><hdop>3.0</hdop><vdop>2.687</vdop><extensions><gom:speed>0.808</gom:speed></extensions></trkpt>
   <trkpt lat="59.3271479823" lon="34.7150652237"><ele>180.023</ele><time>2026-08-17T05:14:13.494Z</time><hdop>3.0</hdop><vdop>2.75</vdop><extensions><gom:speed>0.791</gom:speed></extensions></trkpt>
   <trkpt lat="59.3271511675" lon="34.71507436"><ele>180.067</ele><time>2026-08-17T05:14:14.243Z</time><hdop>3.0</hdop><vdop>2.687</vdop><extensions><gom:speed>0.704</gom:speed></extensions></trkpt>
   <trkpt lat="59.3271554841" lon="34.715083161"><ele>180.261</ele><time>2026-08-17T05:14:15.001Z</time><hdop>3.0</hdop><vdop>2.562</vdop><extensions><gom:speed>0.66</gom:speed></extensions></trkpt>
   <trkpt lat="59.3271589626" lon="34.7150918782"><ele>180.493</ele><time>2026-08-17T05:14:15.644Z</time><hdop>3.0</hdop><vdop>2.5</vdop><extensions><gom:speed>0.652</gom:speed></extensions></trkpt>
   <trkpt lat="59.3271605971" lon="34.7150962368"><ele>180.631</ele><time>2026-08-17T05:14:16.266Z</time><hdop>3.0</hdop><vdop>2.5</vdop><extensions><gom:speed>0.63</gom:speed></extensions></trkpt>
   <trkpt lat="59.3271669674" lon="34.7151188679"><ele>180.535</ele><time>2026-08-17T05:14:17.642Z</time><hdop>3.0</hdop><vdop>2.5</vdop><extensions><gom:speed>0.633</gom:speed></extensions></trkpt>
   <trkpt lat="59.3271706973" lon="34.7151345421"><ele>180.293</ele><time>2026-08-17T05:14:18.652Z</time><hdop>3.062</hdop><vdop>2.625</vdop><extensions><gom:speed>0.547</gom:speed></extensions></trkpt>
   <trkpt lat="59.3271739662" lon="34.7151478693"><ele>180.148</ele><time>2026-08-17T05:14:19.574Z</time><hdop>3.062</hdop><vdop>2.625</vdop><extensions><gom:speed>0.543</gom:speed></extensions></trkpt>
   <trkpt lat="59.3271756845" lon="34.7151565865"><ele>180.051</ele><time>2026-08-17T05:14:20.324Z</time><hdop>3.0</hdop><vdop>2.5</vdop><extensions><gom:speed>0.44</gom:speed></extensions></trkpt>
   <trkpt lat="59.3271747625" lon="34.7151616995"><ele>179.773</ele><time>2026-08-17T05:14:20.879Z</time><hdop>3.0</hdop><vdop>2.5</vdop><extensions><gom:speed>0.368</gom:speed></extensions></trkpt>
   <trkpt lat="59.3271734633" lon="34.7151745238"><ele>179.782</ele><time>2026-08-17T05:14:21.645Z</time><hdop>3.0</hdop><vdop>2.5</vdop><extensions><gom:speed>0.65</gom:speed></extensions></trkpt>
   <trkpt lat="59.3271676798" lon="34.7151895274"><ele>179.578</ele><time>2026-08-17T05:14:22.645Z</time><hdop>3.0</hdop><vdop>2.5</vdop><extensions><gom:speed>0.484</gom:speed></extensions></trkpt>
   <trkpt lat="59.3271658777" lon="34.7151945565"><ele>179.456</ele><time>2026-08-17T05:14:23.500Z</time><hdop>3.0</hdop><vdop>2.5</vdop><extensions><gom:speed>0.43</gom:speed></extensions></trkpt>
   <trkpt lat="59.3271658777" lon="34.7152006753"><ele>179.418</ele><time>2026-08-17T05:14:23.995Z</time><hdop>3.0</hdop><vdop>2.562</vdop><extensions><gom:speed>0.375</gom:speed></extensions></trkpt>
   <trkpt lat="59.3271655843" lon="34.7152086381"><ele>178.964</ele><time>2026-08-17T05:14:24.645Z</time><hdop>3.0</hdop><vdop>2.5</vdop><extensions><gom:speed>0.315</gom:speed></extensions></trkpt>
   <trkpt lat="59.3271653748" lon="34.7152156789"><ele>178.692</ele><time>2026-08-17T05:14:25.554Z</time><hdop>3.0</hdop><vdop>2.5</vdop><extensions><gom:speed>0.315</gom:speed></extensions></trkpt>
   <trkpt lat="59.3271654586" lon="34.7152220492"><ele>178.589</ele><time>2026-08-17T05:14:26.555Z</time><hdop>3.0</hdop><vdop>2.5</vdop><extensions><gom:speed>0.262</gom:speed></extensions></trkpt>
   <trkpt lat="59.3271680989" lon="34.7152296767"><ele>178.839</ele><time>2026-08-17T05:14:27.354Z</time><hdop>3.0</hdop><vdop>2.5</vdop><extensions><gom:speed>0.432</gom:speed></extensions></trkpt>
   <trkpt lat="59.3271761874" lon="34.7152380586"><ele>179.219</ele><time>2026-08-17T05:14:28.214Z</time><hdop>3.0</hdop><vdop>2.5</vdop><extensions><gom:speed>0.602</gom:speed></extensions></trkpt>
   <trkpt lat="59.3271840664" lon="34.7152387291"><ele>179.411</ele><time>2026-08-17T05:14:28.821Z</time><hdop>3.0</hdop><vdop>2.687</vdop><extensions><gom:speed>0.674</gom:speed></extensions></trkpt>
   <trkpt lat="59.3271897661" lon="34.7152388968"><ele>179.397</ele><time>2026-08-17T05:14:29.645Z</time><hdop>3.0</hdop><vdop>2.5</vdop><extensions><gom:speed>0.498</gom:speed></extensions></trkpt>
   <trkpt lat="59.327193077" lon="34.7152417466"><ele>179.388</ele><time>2026-08-17T05:14:30.257Z</time><hdop>3.0</hdop><vdop>2.5</vdop><extensions><gom:speed>0.549</gom:speed></extensions></trkpt>
   <trkpt lat="59.3271984833" lon="34.7152495418"><ele>179.465</ele><time>2026-08-17T05:14:31.097Z</time><hdop>3.0</hdop><vdop>2.5</vdop><extensions><gom:speed>0.68</gom:speed></extensions></trkpt>
   <trkpt lat="59.3272011655" lon="34.7152547386"><ele>179.422</ele><time>2026-08-17T05:14:31.646Z</time><hdop>3.0</hdop><vdop>2.5</vdop><extensions><gom:speed>0.637</gom:speed></extensions></trkpt>
   <trkpt lat="59.3272054822" lon="34.7152613603"><ele>179.396</ele><time>2026-08-17T05:14:32.534Z</time><hdop>3.0</hdop><vdop>2.5</vdop><extensions><gom:speed>0.626</gom:speed></extensions></trkpt>
   <trkpt lat="59.3272130678" lon="34.7152789623"><ele>178.936</ele><time>2026-08-17T05:14:33.645Z</time><hdop>3.0</hdop><vdop>2.5</vdop><extensions><gom:speed>0.615</gom:speed></extensions></trkpt>
   <trkpt lat="59.3272151633" lon="34.7152885176"><ele>178.821</ele><time>2026-08-17T05:14:34.652Z</time><hdop>3.0</hdop><vdop>2.5</vdop><extensions><gom:speed>0.577</gom:speed></extensions></trkpt>
   <trkpt lat="59.3272125649" lon="34.7152856678"><ele>178.768</ele><time>2026-08-17T05:14:35.645Z</time><hdop>3.0</hdop><vdop>2.5</vdop><extensions><gom:speed>0.271</gom:speed></extensions></trkpt>
   <trkpt lat="59.3272107628" lon="34.7152793814"><ele>178.735</ele><time>2026-08-17T05:14:36.645Z</time><hdop>3.0</hdop><vdop>2.5</vdop><extensions><gom:speed>0.12</gom:speed></extensions></trkpt>
   <trkpt lat="59.3272095893" lon="34.7152748551"><ele>178.639</ele><time>2026-08-17T05:14:37.652Z</time><hdop>3.0</hdop><vdop>2.5</vdop><extensions><gom:speed>0.029</gom:speed></extensions></trkpt>
   <trkpt lat="59.327209296" lon="34.7152722568"><ele>178.581</ele><time>2026-08-17T05:14:38.239Z</time><hdop>3.0</hdop><vdop>2.5</vdop><extensions><gom:speed>0.083</gom:speed></extensions></trkpt>
   <trkpt lat="59.3272101761" lon="34.7152697422"><ele>177.958</ele><time>2026-08-17T05:14:38.937Z</time><hdop>3.0</hdop><vdop>2.5</vdop><extensions><gom:speed>0.061</gom:speed></extensions></trkpt>
   <trkpt lat="59.3272099665" lon="34.7152683173"><ele>177.408</ele><time>2026-08-17T05:14:39.652Z</time><hdop>3.0</hdop><vdop>2.5</vdop><extensions><gom:speed>0.032</gom:speed></extensions></trkpt>
   <trkpt lat="59.3272112657" lon="34.7152675629"><ele>176.669</ele><time>2026-08-17T05:14:40.647Z</time><hdop>3.0</hdop><vdop>2.687</vdop><extensions><gom:speed>0.118</gom:speed></extensions></trkpt>
   <trkpt lat="59.3272172588" lon="34.7152726759"><ele>176.228</ele><time>2026-08-17T05:14:41.517Z</time><hdop>3.0</hdop><vdop>2.687</vdop><extensions><gom:speed>0.403</gom:speed></extensions></trkpt>
   <trkpt lat="59.3272224975" lon="34.7152763639"><ele>175.883</ele><time>2026-08-17T05:14:42.397Z</time><hdop>3.0</hdop><vdop>2.687</vdop><extensions><gom:speed>0.39</gom:speed></extensions></trkpt>
   <trkpt lat="59.3272327653" lon="34.7152797166"><ele>175.647</ele><time>2026-08-17T05:14:43.136Z</time><hdop>3.0</hdop><vdop>2.937</vdop><extensions><gom:speed>0.735</gom:speed></extensions></trkpt>
   <trkpt lat="59.3272377944" lon="34.7152791299"><ele>175.567</ele><time>2026-08-17T05:14:43.652Z</time><hdop>3.0</hdop><vdop>3.25</vdop><extensions><gom:speed>0.756</gom:speed></extensions></trkpt>
   <trkpt lat="59.3272426978" lon="34.7152756933"><ele>175.519</ele><time>2026-08-17T05:14:44.188Z</time><hdop>3.0</hdop><vdop>3.25</vdop><extensions><gom:speed>0.783</gom:speed></extensions></trkpt>
   <trkpt lat="59.3272502835" lon="34.7152736817"><ele>174.94</ele><time>2026-08-17T05:14:44.652Z</time><hdop>3.0</hdop><vdop>3.0</vdop><extensions><gom:speed>0.744</gom:speed></extensions></trkpt>
   <trkpt lat="59.3272555641" lon="34.7152718377"><ele>174.595</ele><time>2026-08-17T05:14:45.493Z</time><hdop>3.0</hdop><vdop>3.0</vdop><extensions><gom:speed>0.677</gom:speed></extensions></trkpt>
   <trkpt lat="59.3272579948" lon="34.71527167"><ele>174.429</ele><time>2026-08-17T05:14:46.061Z</time><hdop>3.0</hdop><vdop>2.937</vdop><extensions><gom:speed>0.619</gom:speed></extensions></trkpt>
   <trkpt lat="59.3272605932" lon="34.7152727597"><ele>174.821</ele><time>2026-08-17T05:14:46.652Z</time><hdop>3.0</hdop><vdop>3.125</vdop><extensions><gom:speed>0.582</gom:speed></extensions></trkpt>
   <trkpt lat="59.3272647842" lon="34.7152753581"><ele>175.055</ele><time>2026-08-17T05:14:47.496Z</time><hdop>3.0</hdop><vdop>3.125</vdop><extensions><gom:speed>0.691</gom:speed></extensions></trkpt>
   <trkpt lat="59.3272693942" lon="34.7152797166"><ele>175.182</ele><time>2026-08-17T05:14:48.498Z</time><hdop>3.0</hdop><vdop>3.25</vdop><extensions><gom:speed>0.615</gom:speed></extensions></trkpt>
   <trkpt lat="59.3272761836" lon="34.7152856678"><ele>175.228</ele><time>2026-08-17T05:14:49.621Z</time><hdop>3.0</hdop><vdop>3.5</vdop><extensions><gom:speed>0.839</gom:speed></extensions></trkpt>
   <trkpt lat="59.3272784886" lon="34.71528835"><ele>174.969</ele><time>2026-08-17T05:14:50.116Z</time><hdop>3.0</hdop><vdop>3.625</vdop><extensions><gom:speed>0.742</gom:speed></extensions></trkpt>
   <trkpt lat="59.3272792849" lon="34.715290194"><ele>174.73</ele><time>2026-08-17T05:14:50.664Z</time><hdop>3.0</hdop><vdop>3.687</vdop><extensions><gom:speed>0.661</gom:speed></extensions></trkpt>
   <trkpt lat="59.3272791591" lon="34.7152900264"><ele>174.633</ele><time>2026-08-17T05:14:51.652Z</time><hdop>3.0</hdop><vdop>3.812</vdop><extensions><gom:speed>0.49</gom:speed></extensions></trkpt>
   <trkpt lat="59.3272775666" lon="34.7152879309"><ele>174.491</ele><time>2026-08-17T05:14:52.653Z</time><hdop>3.0</hdop><vdop>3.75</vdop><extensions><gom:speed>0.224</gom:speed></extensions></trkpt>
   <trkpt lat="59.3272749682" lon="34.7152836561"><ele>174.324</ele><time>2026-08-17T05:14:53.657Z</time><hdop>3.062</hdop><vdop>3.937</vdop><extensions><gom:speed>0.118</gom:speed></extensions></trkpt>
   <trkpt lat="59.3272747586" lon="34.715281393"><ele>174.22</ele><time>2026-08-17T05:14:54.645Z</time><hdop>3.062</hdop><vdop>3.625</vdop><extensions><gom:speed>0.146</gom:speed></extensions></trkpt>
   <trkpt lat="59.3272742976" lon="34.7152782917"><ele>174.158</ele><time>2026-08-17T05:14:55.645Z</time><hdop>3.125</hdop><vdop>3.437</vdop><extensions><gom:speed>0.124</gom:speed></extensions></trkpt>
   <trkpt lat="59.3272734594" lon="34.7152763639"><ele>174.127</ele><time>2026-08-17T05:14:56.652Z</time><hdop>3.125</hdop><vdop>3.437</vdop><extensions><gom:speed>0.071</gom:speed></extensions></trkpt>
   <trkpt lat="59.3272752615" lon="34.7152671438"><ele>174.049</ele><time>2026-08-17T05:14:57.644Z</time><hdop>3.187</hdop><vdop>3.437</vdop><extensions><gom:speed>0.094</gom:speed></extensions></trkpt>
   <trkpt lat="59.3272762674" lon="34.7152633719"><ele>174.467</ele><time>2026-08-17T05:14:58.655Z</time><hdop>3.125</hdop><vdop>3.5</vdop><extensions><gom:speed>0.077</gom:speed></extensions></trkpt>
   <trkpt lat="59.3272772732" lon="34.7152612765"><ele>174.717</ele><time>2026-08-17T05:14:59.120Z</time><hdop>3.062</hdop><vdop>3.5</vdop><extensions><gom:speed>0.067</gom:speed></extensions></trkpt>
   <trkpt lat="59.3272777761" lon="34.7152595163"><ele>175.346</ele><time>2026-08-17T05:14:59.645Z</time><hdop>3.062</hdop><vdop>3.125</vdop><extensions><gom:speed>0.115</gom:speed></extensions></trkpt>
   <trkpt lat="59.3272781952" lon="34.7152593486"><ele>175.789</ele><time>2026-08-17T05:15:00.652Z</time><hdop>3.062</hdop><vdop>2.875</vdop><extensions><gom:speed>0.051</gom:speed></extensions></trkpt>
   <trkpt lat="59.327278279" lon="34.7152594324"><ele>176.053</ele><time>2026-08-17T05:15:01.438Z</time><hdop>3.0</hdop><vdop>2.875</vdop><extensions><gom:speed>0.102</gom:speed></extensions></trkpt>
   <trkpt lat="59.3272776923" lon="34.7152608574"><ele>176.166</ele><time>2026-08-17T05:15:02.337Z</time><hdop>3.0</hdop><vdop>2.562</vdop><extensions><gom:speed>0.089</gom:speed></extensions></trkpt>
   <trkpt lat="59.3272774827" lon="34.7152650483"><ele>176.202</ele><time>2026-08-17T05:15:03.298Z</time><hdop>3.0</hdop><vdop>2.562</vdop><extensions><gom:speed>0.116</gom:speed></extensions></trkpt>
   <trkpt lat="59.3272780695" lon="34.715272592"><ele>176.28</ele><time>2026-08-17T05:15:04.645Z</time><hdop>3.0</hdop><vdop>2.562</vdop><extensions><gom:speed>0.129</gom:speed></extensions></trkpt>
   <trkpt lat="59.3272784886" lon="34.7152744361"><ele>176.32</ele><time>2026-08-17T05:15:05.652Z</time><hdop>3.0</hdop><vdop>2.5</vdop><extensions><gom:speed>0.097</gom:speed></extensions></trkpt>
   <trkpt lat="59.3272792849" lon="34.7152790461"><ele>176.345</ele><time>2026-08-17T05:15:06.556Z</time><hdop>3.0</hdop><vdop>2.5</vdop><extensions><gom:speed>0.125</gom:speed></extensions></trkpt>
   <trkpt lat="59.3272800811" lon="34.7152835723"><ele>176.219</ele><time>2026-08-17T05:15:07.375Z</time><hdop>3.0</hdop><vdop>2.5</vdop><extensions><gom:speed>0.157</gom:speed></extensions></trkpt>
   <trkpt lat="59.3272820928" lon="34.7152884338"><ele>176.158</ele><time>2026-08-17T05:15:08.357Z</time><hdop>3.0</hdop><vdop>2.5</vdop><extensions><gom:speed>0.199</gom:speed></extensions></trkpt>
   <trkpt lat="59.3272862837" lon="34.7152960614"><ele>176.299</ele><time>2026-08-17T05:15:09.419Z</time><hdop>3.0</hdop><vdop>2.5</vdop><extensions><gom:speed>0.27</gom:speed></extensions></trkpt>
   <trkpt lat="59.3272881697" lon="34.7152987436"><ele>176.157</ele><time>2026-08-17T05:15:10.218Z</time><hdop>3.0</hdop><vdop>2.5</vdop><extensions><gom:speed>0.179</gom:speed></extensions></trkpt>
   <trkpt lat="59.3272906842" lon="34.7153028507"><ele>175.676</ele><time>2026-08-17T05:15:11.058Z</time><hdop>3.0</hdop><vdop>2.5</vdop><extensions><gom:speed>0.157</gom:speed></extensions></trkpt>
   <trkpt lat="59.3272931988" lon="34.7153070417"><ele>174.891</ele><time>2026-08-17T05:15:11.645Z</time><hdop>3.0</hdop><vdop>2.625</vdop><extensions><gom:speed>0.163</gom:speed></extensions></trkpt>
   <trkpt lat="59.3272950847" lon="34.7153098915"><ele>174.422</ele><time>2026-08-17T05:15:12.616Z</time><hdop>3.0</hdop><vdop>2.625</vdop><extensions><gom:speed>0.116</gom:speed></extensions></trkpt>
   <trkpt lat="59.3272985632" lon="34.7153173514"><ele>173.883</ele><time>2026-08-17T05:15:13.645Z</time><hdop>3.0</hdop><vdop>3.0</vdop><extensions><gom:speed>0.175</gom:speed></extensions></trkpt>
   <trkpt lat="59.3273017903" lon="34.715324476"><ele>173.527</ele><time>2026-08-17T05:15:14.645Z</time><hdop>3.0</hdop><vdop>3.062</vdop><extensions><gom:speed>0.139</gom:speed></extensions></trkpt>
   <trkpt lat="59.327304682" lon="34.7153309301"><ele>173.447</ele><time>2026-08-17T05:15:15.645Z</time><hdop>3.0</hdop><vdop>3.25</vdop><extensions><gom:speed>0.165</gom:speed></extensions></trkpt>
   <trkpt lat="59.3273055621" lon="34.7153338637"><ele>173.4</ele><time>2026-08-17T05:15:16.561Z</time><hdop>3.0</hdop><vdop>3.25</vdop><extensions><gom:speed>0.151</gom:speed></extensions></trkpt>
   <trkpt lat="59.3273084958" lon="34.7153404854"><ele>173.236</ele><time>2026-08-17T05:15:17.583Z</time><hdop>3.0</hdop><vdop>3.312</vdop><extensions><gom:speed>0.205</gom:speed></extensions></trkpt>
   <trkpt lat="59.3273109684" lon="34.7153466881"><ele>173.147</ele><time>2026-08-17T05:15:18.362Z</time><hdop>3.0</hdop><vdop>3.25</vdop><extensions><gom:speed>0.167</gom:speed></extensions></trkpt>
   <trkpt lat="59.3273147822" lon="34.7153541479"><ele>173.105</ele><time>2026-08-17T05:15:19.040Z</time><hdop>3.0</hdop><vdop>3.125</vdop><extensions><gom:speed>0.135</gom:speed></extensions></trkpt>
   <trkpt lat="59.3273153689" lon="34.715355992"><ele>173.079</ele><time>2026-08-17T05:15:19.652Z</time><hdop>3.0</hdop><vdop>3.187</vdop><extensions><gom:speed>0.083</gom:speed></extensions></trkpt>
   <trkpt lat="59.3273195599" lon="34.7153642901"><ele>173.063</ele><time>2026-08-17T05:15:20.645Z</time><hdop>3.0</hdop><vdop>3.187</vdop><extensions><gom:speed>0.124</gom:speed></extensions></trkpt>
   <trkpt lat="59.3273209848" lon="34.7153682295"><ele>173.054</ele><time>2026-08-17T05:15:21.652Z</time><hdop>3.0</hdop><vdop>3.125</vdop><extensions><gom:speed>0.035</gom:speed></extensions></trkpt>
   <trkpt lat="59.3273240861" lon="34.7153737616"><ele>173.048</ele><time>2026-08-17T05:15:22.645Z</time><hdop>3.0</hdop><vdop>3.062</vdop><extensions><gom:speed>0.065</gom:speed></extensions></trkpt>
   <trkpt lat="59.3273262654" lon="34.7153768629"><ele>173.043</ele><time>2026-08-17T05:15:23.644Z</time><hdop>3.0</hdop><vdop>3.0</vdop><extensions><gom:speed>0.074</gom:speed></extensions></trkpt>
   <trkpt lat="59.327327397" lon="34.7153780364"><ele>173.04</ele><time>2026-08-17T05:15:24.594Z</time><hdop>3.0</hdop><vdop>3.0</vdop><extensions><gom:speed>0.072</gom:speed></extensions></trkpt>
   <trkpt lat="59.32732878" lon="34.7153794613"><ele>173.102</ele><time>2026-08-17T05:15:25.645Z</time><hdop>3.0</hdop><vdop>2.875</vdop><extensions><gom:speed>0.07</gom:speed></extensions></trkpt>
   <trkpt lat="59.3273295763" lon="34.7153807186"><ele>173.14</ele><time>2026-08-17T05:15:26.645Z</time><hdop>3.0</hdop><vdop>2.812</vdop><extensions><gom:speed>0.068</gom:speed></extensions></trkpt>
   <trkpt lat="59.3273296601" lon="34.7153805509"><ele>173.163</ele><time>2026-08-17T05:15:27.652Z</time><hdop>3.0</hdop><vdop>2.687</vdop><extensions><gom:speed>0.029</gom:speed></extensions></trkpt>
   <trkpt lat="59.3273303726" lon="34.7153816406"><ele>173.178</ele><time>2026-08-17T05:15:28.645Z</time><hdop>3.0</hdop><vdop>2.75</vdop><extensions><gom:speed>0.069</gom:speed></extensions></trkpt>
   <trkpt lat="59.3273304983" lon="34.7153820597"><ele>173.182</ele><time>2026-08-17T05:15:29.652Z</time><hdop>3.0</hdop><vdop>2.937</vdop><extensions><gom:speed>0.019</gom:speed></extensions></trkpt>
   <trkpt lat="59.3273312946" lon="34.7153831493"><ele>173.184</ele><time>2026-08-17T05:15:30.603Z</time><hdop>3.0</hdop><vdop>2.937</vdop><extensions><gom:speed>0.065</gom:speed></extensions></trkpt>
   <trkpt lat="59.3273328871" lon="34.7153855801"><ele>173.18</ele><time>2026-08-17T05:15:31.160Z</time><hdop>3.0</hdop><vdop>2.875</vdop><extensions><gom:speed>0.079</gom:speed></extensions></trkpt>
   <trkpt lat="59.3273330967" lon="34.7153858315"><ele>173.043</ele><time>2026-08-17T05:15:31.652Z</time><hdop>3.0</hdop><vdop>3.187</vdop><extensions><gom:speed>0.038</gom:speed></extensions></trkpt>
   <trkpt lat="59.3273345635" lon="34.7153873403"><ele>173.143</ele><time>2026-08-17T05:15:32.645Z</time><hdop>3.0</hdop><vdop>3.0</vdop><extensions><gom:speed>0.158</gom:speed></extensions></trkpt>
   <trkpt lat="59.327335276" lon="34.7153877594"><ele>172.8</ele><time>2026-08-17T05:15:33.645Z</time><hdop>3.0</hdop><vdop>3.0</vdop><extensions><gom:speed>0.175</gom:speed></extensions></trkpt>
   <trkpt lat="59.3273358627" lon="34.7153885976"><ele>172.594</ele><time>2026-08-17T05:15:34.620Z</time><hdop>3.0</hdop><vdop>3.0</vdop><extensions><gom:speed>0.199</gom:speed></extensions></trkpt>
   <trkpt lat="59.3273350664" lon="34.7153865859"><ele>173.046</ele><time>2026-08-17T05:15:35.652Z</time><hdop>3.0</hdop><vdop>2.812</vdop><extensions><gom:speed>0.12</gom:speed></extensions></trkpt>
   <trkpt lat="59.3273340606" lon="34.7153820597"><ele>173.499</ele><time>2026-08-17T05:15:36.653Z</time><hdop>3.0</hdop><vdop>2.875</vdop><extensions><gom:speed>0.091</gom:speed></extensions></trkpt>
   <trkpt lat="59.3273339768" lon="34.7153778687"><ele>173.77</ele><time>2026-08-17T05:15:37.533Z</time><hdop>3.0</hdop><vdop>2.875</vdop><extensions><gom:speed>0.174</gom:speed></extensions></trkpt>
   <trkpt lat="59.32733339" lon="34.7153723367"><ele>174.257</ele><time>2026-08-17T05:15:38.656Z</time><hdop>3.0</hdop><vdop>2.75</vdop><extensions><gom:speed>0.112</gom:speed></extensions></trkpt>
   <trkpt lat="59.3273327614" lon="34.7153583389"><ele>174.583</ele><time>2026-08-17T05:15:39.644Z</time><hdop>3.0</hdop><vdop>2.75</vdop><extensions><gom:speed>0.152</gom:speed></extensions></trkpt>
   <trkpt lat="59.3273322585" lon="34.7153541479"><ele>175.483</ele><time>2026-08-17T05:15:40.652Z</time><hdop>3.0</hdop><vdop>3.125</vdop><extensions><gom:speed>0.067</gom:speed></extensions></trkpt>
   <trkpt lat="59.3273364913" lon="34.7153451793"><ele>176.736</ele><time>2026-08-17T05:15:41.645Z</time><hdop>3.0</hdop><vdop>2.937</vdop><extensions><gom:speed>0.11</gom:speed></extensions></trkpt>
   <trkpt lat="59.3273380839" lon="34.7153428324"><ele>177.485</ele><time>2026-08-17T05:15:42.217Z</time><hdop>3.0</hdop><vdop>2.937</vdop><extensions><gom:speed>0.113</gom:speed></extensions></trkpt>
   <trkpt lat="59.3273455857" lon="34.7153422456"><ele>178.516</ele><time>2026-08-17T05:15:43.321Z</time><hdop>3.0</hdop><vdop>2.812</vdop><extensions><gom:speed>0.154</gom:speed></extensions></trkpt>
   <trkpt lat="59.3273575718" lon="34.7153404854"><ele>179.256</ele><time>2026-08-17T05:15:44.534Z</time><hdop>3.0</hdop><vdop>2.812</vdop><extensions><gom:speed>0.186</gom:speed></extensions></trkpt>
   <trkpt lat="59.3273660795" lon="34.7153362945"><ele>179.63</ele><time>2026-08-17T05:15:45.282Z</time><hdop>3.0</hdop><vdop>2.812</vdop><extensions><gom:speed>0.24</gom:speed></extensions></trkpt>
   <trkpt lat="59.3273728688" lon="34.7153293375"><ele>179.616</ele><time>2026-08-17T05:15:46.142Z</time><hdop>3.0</hdop><vdop>2.812</vdop><extensions><gom:speed>0.205</gom:speed></extensions></trkpt>
   <trkpt lat="59.3273761797" lon="34.7153243922"><ele>179.606</ele><time>2026-08-17T05:15:46.644Z</time><hdop>3.0</hdop><vdop>2.562</vdop><extensions><gom:speed>0.24</gom:speed></extensions></trkpt>
   <trkpt lat="59.327379281" lon="34.7153214585"><ele>179.409</ele><time>2026-08-17T05:15:47.652Z</time><hdop>3.0</hdop><vdop>2.5</vdop><extensions><gom:speed>0.177</gom:speed></extensions></trkpt>
   <trkpt lat="59.3273827595" lon="34.7153116517"><ele>178.776</ele><time>2026-08-17T05:15:48.644Z</time><hdop>3.0</hdop><vdop>2.5</vdop><extensions><gom:speed>0.221</gom:speed></extensions></trkpt>
   <trkpt lat="59.3273846873" lon="34.7153095562"><ele>178.13</ele><time>2026-08-17T05:15:49.652Z</time><hdop>3.0</hdop><vdop>2.5</vdop><extensions><gom:speed>0.153</gom:speed></extensions></trkpt>
   <trkpt lat="59.327385274" lon="34.7153055329"><ele>177.744</ele><time>2026-08-17T05:15:50.341Z</time><hdop>3.0</hdop><vdop>2.5</vdop><extensions><gom:speed>0.175</gom:speed></extensions></trkpt>
   <trkpt lat="59.3273877886" lon="34.7153033536"><ele>177.692</ele><time>2026-08-17T05:15:51.100Z</time><hdop>3.0</hdop><vdop>2.625</vdop><extensions><gom:speed>0.27</gom:speed></extensions></trkpt>
   <trkpt lat="59.3273908899" lon="34.7153032698"><ele>177.281</ele><time>2026-08-17T05:15:51.645Z</time><hdop>3.0</hdop><vdop>2.562</vdop><extensions><gom:speed>0.307</gom:speed></extensions></trkpt>
   <trkpt lat="59.3273939912" lon="34.7153042756"><ele>176.989</ele><time>2026-08-17T05:15:52.652Z</time><hdop>3.0</hdop><vdop>2.625</vdop><extensions><gom:speed>0.219</gom:speed></extensions></trkpt>
   <trkpt lat="59.3274006967" lon="34.7153056167"><ele>176.597</ele><time>2026-08-17T05:15:53.645Z</time><hdop>3.0</hdop><vdop>2.625</vdop><extensions><gom:speed>0.264</gom:speed></extensions></trkpt>
   <trkpt lat="59.3274038818" lon="34.7153073769"><ele>176.422</ele><time>2026-08-17T05:15:54.652Z</time><hdop>3.0</hdop><vdop>2.812</vdop><extensions><gom:speed>0.208</gom:speed></extensions></trkpt>
   <trkpt lat="59.3274089948" lon="34.7153082989"><ele>176.336</ele><time>2026-08-17T05:15:55.652Z</time><hdop>3.0</hdop><vdop>3.0</vdop><extensions><gom:speed>0.182</gom:speed></extensions></trkpt>
   <trkpt lat="59.3274145688" lon="34.7153079637"><ele>176.284</ele><time>2026-08-17T05:15:56.563Z</time><hdop>3.0</hdop><vdop>3.0</vdop><extensions><gom:speed>0.229</gom:speed></extensions></trkpt>
   <trkpt lat="59.3274197656" lon="34.7153067902"><ele>175.761</ele><time>2026-08-17T05:15:57.615Z</time><hdop>3.0</hdop><vdop>2.937</vdop><extensions><gom:speed>0.247</gom:speed></extensions></trkpt>
   <trkpt lat="59.3274226992" lon="34.7153063711"><ele>175.078</ele><time>2026-08-17T05:15:58.516Z</time><hdop>3.0</hdop><vdop>2.812</vdop><extensions><gom:speed>0.265</gom:speed></extensions></trkpt>
   <trkpt lat="59.3274252976" lon="34.7153053653"><ele>174.59</ele><time>2026-08-17T05:15:59.456Z</time><hdop>3.0</hdop><vdop>2.875</vdop><extensions><gom:speed>0.276</gom:speed></extensions></trkpt>
   <trkpt lat="59.3274251719" lon="34.7153044433"><ele>173.821</ele><time>2026-08-17T05:16:00.316Z</time><hdop>3.0</hdop><vdop>2.875</vdop><extensions><gom:speed>0.248</gom:speed></extensions></trkpt>
   <trkpt lat="59.3274267644" lon="34.7153042756"><ele>173.691</ele><time>2026-08-17T05:16:00.953Z</time><hdop>3.0</hdop><vdop>2.625</vdop><extensions><gom:speed>0.244</gom:speed></extensions></trkpt>
   <trkpt lat="59.3274272674" lon="34.7153070417"><ele>173.614</ele><time>2026-08-17T05:16:01.642Z</time><hdop>3.0</hdop><vdop>2.625</vdop><extensions><gom:speed>0.258</gom:speed></extensions></trkpt>
   <trkpt lat="59.327430662" lon="34.7153120708"><ele>173.694</ele><time>2026-08-17T05:16:02.602Z</time><hdop>3.0</hdop><vdop>2.625</vdop><extensions><gom:speed>0.283</gom:speed></extensions></trkpt>
   <trkpt lat="59.3274347692" lon="34.7153205365"><ele>173.73</ele><time>2026-08-17T05:16:03.342Z</time><hdop>3.0</hdop><vdop>2.875</vdop><extensions><gom:speed>0.397</gom:speed></extensions></trkpt>
   <trkpt lat="59.3274401755" lon="34.7153322712"><ele>173.353</ele><time>2026-08-17T05:16:04.039Z</time><hdop>3.0</hdop><vdop>2.875</vdop><extensions><gom:speed>0.454</gom:speed></extensions></trkpt>
   <trkpt lat="59.3274430672" lon="34.7153413236"><ele>173.084</ele><time>2026-08-17T05:16:04.656Z</time><hdop>3.0</hdop><vdop>3.062</vdop><extensions><gom:speed>0.454</gom:speed></extensions></trkpt>
   <trkpt lat="59.3274504852" lon="34.7153591771"><ele>172.923</ele><time>2026-08-17T05:16:05.283Z</time><hdop>3.0</hdop><vdop>3.062</vdop><extensions><gom:speed>0.6</gom:speed></extensions></trkpt>
   <trkpt lat="59.3274562687" lon="34.7153717499"><ele>172.666</ele><time>2026-08-17T05:16:05.961Z</time><hdop>3.0</hdop><vdop>3.0</vdop><extensions><gom:speed>0.584</gom:speed></extensions></trkpt>
   <trkpt lat="59.3274596634" lon="34.715379126"><ele>172.512</ele><time>2026-08-17T05:16:06.497Z</time><hdop>3.0</hdop><vdop>3.0</vdop><extensions><gom:speed>0.592</gom:speed></extensions></trkpt>
   <trkpt lat="59.3274653631" lon="34.7153912798"><ele>172.012</ele><time>2026-08-17T05:16:07.256Z</time><hdop>3.0</hdop><vdop>3.25</vdop><extensions><gom:speed>0.589</gom:speed></extensions></trkpt>
   <trkpt lat="59.3274733678" lon="34.7154053614"><ele>171.377</ele><time>2026-08-17T05:16:08.075Z</time><hdop>3.0</hdop><vdop>3.125</vdop><extensions><gom:speed>0.65</gom:speed></extensions></trkpt>
   <trkpt lat="59.3274753795" lon="34.7154118993"><ele>171.084</ele><time>2026-08-17T05:16:08.652Z</time><hdop>3.0</hdop><vdop>3.062</vdop><extensions><gom:speed>0.569</gom:speed></extensions></trkpt>
   <trkpt lat="59.3274806601" lon="34.715420365"><ele>171.053</ele><time>2026-08-17T05:16:09.652Z</time><hdop>3.0</hdop><vdop>2.875</vdop><extensions><gom:speed>0.41</gom:speed></extensions></trkpt>
   <trkpt lat="59.327486276" lon="34.715425897"><ele>171.034</ele><time>2026-08-17T05:16:10.716Z</time><hdop>3.0</hdop><vdop>2.875</vdop><extensions><gom:speed>0.311</gom:speed></extensions></trkpt>
   <trkpt lat="59.3274916823" lon="34.7154322673"><ele>170.764</ele><time>2026-08-17T05:16:11.515Z</time><hdop>3.0</hdop><vdop>2.875</vdop><extensions><gom:speed>0.427</gom:speed></extensions></trkpt>
   <trkpt lat="59.3274991841" lon="34.7154443372"><ele>170.56</ele><time>2026-08-17T05:16:12.233Z</time><hdop>3.0</hdop><vdop>2.937</vdop><extensions><gom:speed>0.604</gom:speed></extensions></trkpt>
   <trkpt lat="59.327507566" lon="34.7154557366"><ele>170.443</ele><time>2026-08-17T05:16:13.042Z</time><hdop>3.0</hdop><vdop>3.062</vdop><extensions><gom:speed>0.637</gom:speed></extensions></trkpt>
   <trkpt lat="59.3275102901" lon="34.7154627774"><ele>170.226</ele><time>2026-08-17T05:16:13.653Z</time><hdop>3.0</hdop><vdop>3.25</vdop><extensions><gom:speed>0.657</gom:speed></extensions></trkpt>
   <trkpt lat="59.3275203903" lon="34.7154803794"><ele>170.097</ele><time>2026-08-17T05:16:14.661Z</time><hdop>3.0</hdop><vdop>3.25</vdop><extensions><gom:speed>0.799</gom:speed></extensions></trkpt>
   <trkpt lat="59.3275293589" lon="34.7154892642"><ele>169.816</ele><time>2026-08-17T05:16:15.622Z</time><hdop>3.0</hdop><vdop>3.437</vdop><extensions><gom:speed>0.704</gom:speed></extensions></trkpt>
   <trkpt lat="59.3275357711" lon="34.7154900186"><ele>169.63</ele><time>2026-08-17T05:16:16.503Z</time><hdop>3.0</hdop><vdop>3.062</vdop><extensions><gom:speed>0.496</gom:speed></extensions></trkpt>
   <trkpt lat="59.3275437758" lon="34.7154890966"><ele>169.452</ele><time>2026-08-17T05:16:17.645Z</time><hdop>3.0</hdop><vdop>3.062</vdop><extensions><gom:speed>0.435</gom:speed></extensions></trkpt>
   <trkpt lat="59.3275483859" lon="34.7154882584"><ele>169.429</ele><time>2026-08-17T05:16:18.645Z</time><hdop>3.0</hdop><vdop>3.187</vdop><extensions><gom:speed>0.225</gom:speed></extensions></trkpt>
   <trkpt lat="59.3275485954" lon="34.71548566"><ele>169.425</ele><time>2026-08-17T05:16:19.653Z</time><hdop>3.0</hdop><vdop>3.375</vdop><extensions><gom:speed>0.066</gom:speed></extensions></trkpt>
   <trkpt lat="59.3275502718" lon="34.7154839836"><ele>169.419</ele><time>2026-08-17T05:16:20.653Z</time><hdop>3.0</hdop><vdop>3.5</vdop><extensions><gom:speed>0.025</gom:speed></extensions></trkpt>
   <trkpt lat="59.3275543789" lon="34.715482894"><ele>169.413</ele><time>2026-08-17T05:16:21.645Z</time><hdop>3.0</hdop><vdop>3.625</vdop><extensions><gom:speed>0.074</gom:speed></extensions></trkpt>
   <trkpt lat="59.3275557619" lon="34.7154824749"><ele>169.408</ele><time>2026-08-17T05:16:22.652Z</time><hdop>3.0</hdop><vdop>3.625</vdop><extensions><gom:speed>0.019</gom:speed></extensions></trkpt>
   <trkpt lat="59.3275577736" lon="34.7154827263"><ele>169.403</ele><time>2026-08-17T05:16:23.655Z</time><hdop>3.0</hdop><vdop>3.625</vdop><extensions><gom:speed>0.088</gom:speed></extensions></trkpt>
   <trkpt lat="59.327558989" lon="34.7154814691"><ele>169.401</ele><time>2026-08-17T05:16:24.652Z</time><hdop>3.0</hdop><vdop>3.562</vdop><extensions><gom:speed>0.01</gom:speed></extensions></trkpt>
   <trkpt lat="59.3275600786" lon="34.715480547"><ele>169.401</ele><time>2026-08-17T05:16:25.658Z</time><hdop>3.0</hdop><vdop>3.437</vdop><extensions><gom:speed>0.008</gom:speed></extensions></trkpt>
   <trkpt lat="59.3275618807" lon="34.7154786192"><ele>169.401</ele><time>2026-08-17T05:16:26.645Z</time><hdop>3.0</hdop><vdop>3.25</vdop><extensions><gom:speed>0.088</gom:speed></extensions></trkpt>
   <trkpt lat="59.3275621741" lon="34.7154772781"><ele>169.402</ele><time>2026-08-17T05:16:27.652Z</time><hdop>3.0</hdop><vdop>3.125</vdop><extensions><gom:speed>0.013</gom:speed></extensions></trkpt>
   <trkpt lat="59.3275629704" lon="34.7154755179"><ele>169.403</ele><time>2026-08-17T05:16:28.652Z</time><hdop>3.0</hdop><vdop>3.062</vdop><extensions><gom:speed>0.008</gom:speed></extensions></trkpt>
   <trkpt lat="59.3275643953" lon="34.7154736739"><ele>169.404</ele><time>2026-08-17T05:16:29.644Z</time><hdop>3.0</hdop><vdop>3.062</vdop><extensions><gom:speed>0.076</gom:speed></extensions></trkpt>
   <trkpt lat="59.3275647725" lon="34.7154736739"><ele>169.403</ele><time>2026-08-17T05:16:30.652Z</time><hdop>3.0</hdop><vdop>2.937</vdop><extensions><gom:speed>0.005</gom:speed></extensions></trkpt>
   <trkpt lat="59.3275646887" lon="34.7154717461"><ele>169.404</ele><time>2026-08-17T05:16:31.652Z</time><hdop>3.0</hdop><vdop>2.875</vdop><extensions><gom:speed>0.015</gom:speed></extensions></trkpt>
   <trkpt lat="59.3275654849" lon="34.7154709917"><ele>169.405</ele><time>2026-08-17T05:16:32.652Z</time><hdop>3.0</hdop><vdop>2.75</vdop><extensions><gom:speed>0.01</gom:speed></extensions></trkpt>
   <trkpt lat="59.3275662812" lon="34.7154702373"><ele>169.403</ele><time>2026-08-17T05:16:33.644Z</time><hdop>3.0</hdop><vdop>2.812</vdop><extensions><gom:speed>0.059</gom:speed></extensions></trkpt>
   <trkpt lat="59.327566868" lon="34.7154692315"><ele>169.336</ele><time>2026-08-17T05:16:34.645Z</time><hdop>3.0</hdop><vdop>2.75</vdop><extensions><gom:speed>0.091</gom:speed></extensions></trkpt>
   <trkpt lat="59.327567287" lon="34.7154696506"><ele>169.294</ele><time>2026-08-17T05:16:35.652Z</time><hdop>3.0</hdop><vdop>2.5</vdop><extensions><gom:speed>0.026</gom:speed></extensions></trkpt>
   <trkpt lat="59.3275673709" lon="34.7154688962"><ele>169.268</ele><time>2026-08-17T05:16:36.645Z</time><hdop>3.0</hdop><vdop>2.5</vdop><extensions><gom:speed>0.014</gom:speed></extensions></trkpt>
   <trkpt lat="59.3275673709" lon="34.7154686447"><ele>169.248</ele><time>2026-08-17T05:16:37.656Z</time><hdop>3.0</hdop><vdop>2.625</vdop><extensions><gom:speed>0.015</gom:speed></extensions></trkpt>
   <trkpt lat="59.3275676642" lon="34.7154684771"><ele>169.234</ele><time>2026-08-17T05:16:38.652Z</time><hdop>3.0</hdop><vdop>2.687</vdop><extensions><gom:speed>0.025</gom:speed></extensions></trkpt>
   <trkpt lat="59.3275678738" lon="34.715468058"><ele>169.224</ele><time>2026-08-17T05:16:39.645Z</time><hdop>3.0</hdop><vdop>2.687</vdop><extensions><gom:speed>0.039</gom:speed></extensions></trkpt>
   <trkpt lat="59.3275681671" lon="34.7154681418"><ele>169.215</ele><time>2026-08-17T05:16:40.652Z</time><hdop>3.0</hdop><vdop>2.75</vdop><extensions><gom:speed>0.039</gom:speed></extensions></trkpt>
   <trkpt lat="59.3275684605" lon="34.7154682257"><ele>169.208</ele><time>2026-08-17T05:16:41.662Z</time><hdop>3.0</hdop><vdop>2.812</vdop><extensions><gom:speed>0.045</gom:speed></extensions></trkpt>
   <trkpt lat="59.3275687958" lon="34.715468058"><ele>169.204</ele><time>2026-08-17T05:16:42.645Z</time><hdop>3.0</hdop><vdop>2.562</vdop><extensions><gom:speed>0.054</gom:speed></extensions></trkpt>
   <trkpt lat="59.327569173" lon="34.7154682257"><ele>169.202</ele><time>2026-08-17T05:16:43.652Z</time><hdop>3.0</hdop><vdop>2.562</vdop><extensions><gom:speed>0.054</gom:speed></extensions></trkpt>
   <trkpt lat="59.3275694663" lon="34.7154684771"><ele>169.199</ele><time>2026-08-17T05:16:44.657Z</time><hdop>3.0</hdop><vdop>2.5</vdop><extensions><gom:speed>0.057</gom:speed></extensions></trkpt>
   <trkpt lat="59.3275695921" lon="34.7154682257"><ele>169.195</ele><time>2026-08-17T05:16:45.645Z</time><hdop>3.0</hdop><vdop>2.5</vdop><extensions><gom:speed>0.062</gom:speed></extensions></trkpt>
   <trkpt lat="59.3275697597" lon="34.7154681418"><ele>169.188</ele><time>2026-08-17T05:16:46.645Z</time><hdop>3.0</hdop><vdop>2.562</vdop><extensions><gom:speed>0.066</gom:speed></extensions></trkpt>
   <trkpt lat="59.327570095" lon="34.7154684771"><ele>169.182</ele><time>2026-08-17T05:16:47.652Z</time><hdop>3.0</hdop><vdop>2.562</vdop><extensions><gom:speed>0.066</gom:speed></extensions></trkpt>
   <trkpt lat="59.3275701788" lon="34.7154684771"><ele>169.178</ele><time>2026-08-17T05:16:48.645Z</time><hdop>3.0</hdop><vdop>2.562</vdop><extensions><gom:speed>0.072</gom:speed></extensions></trkpt>
   <trkpt lat="59.3275703884" lon="34.7154687286"><ele>169.177</ele><time>2026-08-17T05:16:49.652Z</time><hdop>3.0</hdop><vdop>2.625</vdop><extensions><gom:speed>0.072</gom:speed></extensions></trkpt>
   <trkpt lat="59.3275703884" lon="34.7154687286"><ele>169.177</ele><time>2026-08-17T05:16:50.645Z</time><hdop>3.0</hdop><vdop>2.687</vdop><extensions><gom:speed>0.075</gom:speed></extensions></trkpt>
   <trkpt lat="59.3275704722" lon="34.7154692315"><ele>169.179</ele><time>2026-08-17T05:16:51.659Z</time><hdop>3.0</hdop><vdop>2.687</vdop><extensions><gom:speed>0.076</gom:speed></extensions></trkpt>
   <trkpt lat="59.3275705979" lon="34.7154690638"><ele>169.181</ele><time>2026-08-17T05:16:52.645Z</time><hdop>3.0</hdop><vdop>2.812</vdop><extensions><gom:speed>0.071</gom:speed></extensions></trkpt>
   <trkpt lat="59.3275706817" lon="34.7154690638"><ele>169.183</ele><time>2026-08-17T05:16:53.645Z</time><hdop>3.0</hdop><vdop>2.687</vdop><extensions><gom:speed>0.071</gom:speed></extensions></trkpt>
   <trkpt lat="59.3275708913" lon="34.7154693991"><ele>169.185</ele><time>2026-08-17T05:16:54.652Z</time><hdop>3.0</hdop><vdop>2.562</vdop><extensions><gom:speed>0.072</gom:speed></extensions></trkpt>
   <trkpt lat="59.3275708913" lon="34.7154690638"><ele>169.182</ele><time>2026-08-17T05:16:55.645Z</time><hdop>3.0</hdop><vdop>2.812</vdop><extensions><gom:speed>0.072</gom:speed></extensions></trkpt>
   <trkpt lat="59.3275710589" lon="34.7154692315"><ele>169.179</ele><time>2026-08-17T05:16:56.652Z</time><hdop>3.0</hdop><vdop>2.687</vdop><extensions><gom:speed>0.072</gom:speed></extensions></trkpt>
   <trkpt lat="59.3275711846" lon="34.7154691477"><ele>169.177</ele><time>2026-08-17T05:16:57.652Z</time><hdop>3.0</hdop><vdop>2.625</vdop><extensions><gom:speed>0.071</gom:speed></extensions></trkpt>
   <trkpt lat="59.3275711846" lon="34.7154691477"><ele>169.174</ele><time>2026-08-17T05:16:58.653Z</time><hdop>3.0</hdop><vdop>2.687</vdop><extensions><gom:speed>0.07</gom:speed></extensions></trkpt>
   <trkpt lat="59.3275712685" lon="34.7154690638"><ele>169.173</ele><time>2026-08-17T05:16:59.652Z</time><hdop>3.0</hdop><vdop>2.812</vdop><extensions><gom:speed>0.071</gom:speed></extensions></trkpt>
   <trkpt lat="59.3275711846" lon="34.7154684771"><ele>169.173</ele><time>2026-08-17T05:17:00.645Z</time><hdop>3.0</hdop><vdop>2.875</vdop><extensions><gom:speed>0.069</gom:speed></extensions></trkpt>
   <trkpt lat="59.3275710589" lon="34.7154682257"><ele>169.172</ele><time>2026-08-17T05:17:01.646Z</time><hdop>3.0</hdop><vdop>3.0</vdop><extensions><gom:speed>0.068</gom:speed></extensions></trkpt>
   <trkpt lat="59.3275710589" lon="34.715468058"><ele>169.172</ele><time>2026-08-17T05:17:02.645Z</time><hdop>3.0</hdop><vdop>3.062</vdop><extensions><gom:speed>0.068</gom:speed></extensions></trkpt>
   <trkpt lat="59.3275711846" lon="34.7154678904"><ele>169.173</ele><time>2026-08-17T05:17:03.645Z</time><hdop>3.0</hdop><vdop>2.937</vdop><extensions><gom:speed>0.068</gom:speed></extensions></trkpt>
   <trkpt lat="59.3275712685" lon="34.7154679742"><ele>169.174</ele><time>2026-08-17T05:17:04.647Z</time><hdop>3.0</hdop><vdop>2.812</vdop><extensions><gom:speed>0.068</gom:speed></extensions></trkpt>
   <trkpt lat="59.3275712685" lon="34.7154679742"><ele>169.176</ele><time>2026-08-17T05:17:05.652Z</time><hdop>3.0</hdop><vdop>2.625</vdop><extensions><gom:speed>0.068</gom:speed></extensions></trkpt>
   <trkpt lat="59.3275709751" lon="34.715467136"><ele>169.178</ele><time>2026-08-17T05:17:06.645Z</time><hdop>3.0</hdop><vdop>2.5</vdop><extensions><gom:speed>0.068</gom:speed></extensions></trkpt>
   <trkpt lat="59.3275708913" lon="34.7154668845"><ele>169.18</ele><time>2026-08-17T05:17:07.645Z</time><hdop>3.0</hdop><vdop>2.625</vdop><extensions><gom:speed>0.068</gom:speed></extensions></trkpt>
   <trkpt lat="59.3275710589" lon="34.7154670522"><ele>169.184</ele><time>2026-08-17T05:17:08.654Z</time><hdop>3.0</hdop><vdop>2.75</vdop><extensions><gom:speed>0.069</gom:speed></extensions></trkpt>
   <trkpt lat="59.3275708913" lon="34.7154665493"><ele>169.188</ele><time>2026-08-17T05:17:09.645Z</time><hdop>3.0</hdop><vdop>2.75</vdop><extensions><gom:speed>0.07</gom:speed></extensions></trkpt>
   <trkpt lat="59.3275710589" lon="34.7154666331"><ele>169.194</ele><time>2026-08-17T05:17:10.652Z</time><hdop>3.0</hdop><vdop>2.812</vdop><extensions><gom:speed>0.07</gom:speed></extensions></trkpt>
   <trkpt lat="59.3275709751" lon="34.7154661302"><ele>169.2</ele><time>2026-08-17T05:17:11.645Z</time><hdop>3.0</hdop><vdop>2.562</vdop><extensions><gom:speed>0.068</gom:speed></extensions></trkpt>
   <trkpt lat="59.3275709751" lon="34.7154661302"><ele>169.208</ele><time>2026-08-17T05:17:12.645Z</time><hdop>3.0</hdop><vdop>2.5</vdop><extensions><gom:speed>0.068</gom:speed></extensions></trkpt>
   <trkpt lat="59.3275710589" lon="34.7154663816"><ele>169.215</ele><time>2026-08-17T05:17:13.653Z</time><hdop>3.0</hdop><vdop>2.5</vdop><extensions><gom:speed>0.069</gom:speed></extensions></trkpt>
   <trkpt lat="59.3275710589" lon="34.7154662978"><ele>169.222</ele><time>2026-08-17T05:17:14.653Z</time><hdop>3.0</hdop><vdop>2.5</vdop><extensions><gom:speed>0.073</gom:speed></extensions></trkpt>
   <trkpt lat="59.3275710589" lon="34.7154661302"><ele>169.23</ele><time>2026-08-17T05:17:15.652Z</time><hdop>3.0</hdop><vdop>2.5</vdop><extensions><gom:speed>0.074</gom:speed></extensions></trkpt>
   <trkpt lat="59.3275709751" lon="34.7154659625"><ele>169.24</ele><time>2026-08-17T05:17:16.652Z</time><hdop>3.0</hdop><vdop>2.5</vdop><extensions><gom:speed>0.072</gom:speed></extensions></trkpt>
   <trkpt lat="59.3275709751" lon="34.7154657949"><ele>169.248</ele><time>2026-08-17T05:17:17.652Z</time><hdop>3.0</hdop><vdop>2.5</vdop><extensions><gom:speed>0.071</gom:speed></extensions></trkpt>
   <trkpt lat="59.3275710589" lon="34.7154653758"><ele>169.256</ele><time>2026-08-17T05:17:18.653Z</time><hdop>3.0</hdop><vdop>2.5</vdop><extensions><gom:speed>0.07</gom:speed></extensions></trkpt>
   <trkpt lat="59.3275709751" lon="34.7154645376"><ele>169.266</ele><time>2026-08-17T05:17:19.644Z</time><hdop>3.0</hdop><vdop>2.5</vdop><extensions><gom:speed>0.07</gom:speed></extensions></trkpt>
   <trkpt lat="59.3275709751" lon="34.7154641185"><ele>169.274</ele><time>2026-08-17T05:17:20.645Z</time><hdop>3.0</hdop><vdop>2.5</vdop><extensions><gom:speed>0.071</gom:speed></extensions></trkpt>
   <trkpt lat="59.3275711846" lon="34.71546437"><ele>169.283</ele><time>2026-08-17T05:17:21.652Z</time><hdop>3.0</hdop><vdop>2.5</vdop><extensions><gom:speed>0.071</gom:speed></extensions></trkpt>
   <trkpt lat="59.3275711846" lon="34.7154640347"><ele>169.744</ele><time>2026-08-17T05:17:22.653Z</time><hdop>3.0</hdop><vdop>2.5</vdop><extensions><gom:speed>0.07</gom:speed></extensions></trkpt>
   <trkpt lat="59.3275712685" lon="34.7154637832"><ele>170.057</ele><time>2026-08-17T05:17:23.652Z</time><hdop>3.0</hdop><vdop>2.5</vdop><extensions><gom:speed>0.069</gom:speed></extensions></trkpt>
   <trkpt lat="59.3275712685" lon="34.7154627774"><ele>170.116</ele><time>2026-08-17T05:17:24.645Z</time><hdop>3.0</hdop><vdop>2.5</vdop><extensions><gom:speed>0.278</gom:speed></extensions></trkpt>
   <trkpt lat="59.3275722743" lon="34.7154632803"><ele>170.149</ele><time>2026-08-17T05:17:25.652Z</time><hdop>3.0</hdop><vdop>2.5</vdop><extensions><gom:speed>0.278</gom:speed></extensions></trkpt>
   <trkpt lat="59.3275716875" lon="34.7154630289"><ele>170.168</ele><time>2026-08-17T05:17:26.644Z</time><hdop>3.0</hdop><vdop>2.5</vdop><extensions><gom:speed>0.071</gom:speed></extensions></trkpt>
   <trkpt lat="59.3275711846" lon="34.7154629451"><ele>170.178</ele><time>2026-08-17T05:17:27.645Z</time><hdop>3.0</hdop><vdop>2.5</vdop><extensions><gom:speed>0.066</gom:speed></extensions></trkpt>
   <trkpt lat="59.3275712685" lon="34.7154629451"><ele>170.183</ele><time>2026-08-17T05:17:28.653Z</time><hdop>3.0</hdop><vdop>2.5</vdop><extensions><gom:speed>0.066</gom:speed></extensions></trkpt>
   <trkpt lat="59.3275707655" lon="34.7154627774"><ele>170.184</ele><time>2026-08-17T05:17:29.645Z</time><hdop>3.0</hdop><vdop>2.5</vdop><extensions><gom:speed>0.059</gom:speed></extensions></trkpt>
   <trkpt lat="59.3275708913" lon="34.7154627774"><ele>170.186</ele><time>2026-08-17T05:17:30.652Z</time><hdop>3.0</hdop><vdop>2.5</vdop><extensions><gom:speed>0.06</gom:speed></extensions></trkpt>
   <trkpt lat="59.3275705979" lon="34.7154629451"><ele>170.185</ele><time>2026-08-17T05:17:31.645Z</time><hdop>3.0</hdop><vdop>2.5</vdop><extensions><gom:speed>0.056</gom:speed></extensions></trkpt>
   <trkpt lat="59.3275703884" lon="34.7154628612"><ele>170.183</ele><time>2026-08-17T05:17:32.645Z</time><hdop>3.0</hdop><vdop>2.5</vdop><extensions><gom:speed>0.059</gom:speed></extensions></trkpt>
   <trkpt lat="59.3275701788" lon="34.7154626936"><ele>170.18</ele><time>2026-08-17T05:17:33.644Z</time><hdop>3.0</hdop><vdop>2.5</vdop><extensions><gom:speed>0.06</gom:speed></extensions></trkpt>
   <trkpt lat="59.327570095" lon="34.715462526"><ele>170.177</ele><time>2026-08-17T05:17:34.645Z</time><hdop>3.0</hdop><vdop>2.5</vdop><extensions><gom:speed>0.063</gom:speed></extensions></trkpt>
   <trkpt lat="59.3275699693" lon="34.715462526"><ele>170.177</ele><time>2026-08-17T05:17:35.695Z</time><hdop>3.0</hdop><vdop>2.5</vdop><extensions><gom:speed>0.063</gom:speed></extensions></trkpt>
   <trkpt lat="59.3275697597" lon="34.7154627774"><ele>170.24</ele><time>2026-08-17T05:17:36.645Z</time><hdop>3.0</hdop><vdop>2.5</vdop><extensions><gom:speed>0.498</gom:speed></extensions></trkpt>
   <trkpt lat="59.3275697597" lon="34.7154641185"><ele>170.278</ele><time>2026-08-17T05:17:37.354Z</time><hdop>3.0</hdop><vdop>2.5</vdop><extensions><gom:speed>0.499</gom:speed></extensions></trkpt>
   <trkpt lat="59.3275693825" lon="34.7154645376"><ele>170.115</ele><time>2026-08-17T05:17:37.941Z</time><hdop>3.0</hdop><vdop>2.5</vdop><extensions><gom:speed>0.217</gom:speed></extensions></trkpt>
   <trkpt lat="59.3275693825" lon="34.7154646214"><ele>170.019</ele><time>2026-08-17T05:17:38.538Z</time><hdop>3.0</hdop><vdop>2.5</vdop><extensions><gom:speed>0.217</gom:speed></extensions></trkpt>
   <trkpt lat="59.3275699693" lon="34.7154677227"><ele>170.075</ele><time>2026-08-17T05:17:39.155Z</time><hdop>3.0</hdop><vdop>2.687</vdop><extensions><gom:speed>0.778</gom:speed></extensions></trkpt>
   <trkpt lat="59.3275736992" lon="34.715481972"><ele>169.897</ele><time>2026-08-17T05:17:39.645Z</time><hdop>3.0</hdop><vdop>2.687</vdop><extensions><gom:speed>0.727</gom:speed></extensions></trkpt>
   <trkpt lat="59.3275742859" lon="34.7154886775"><ele>169.791</ele><time>2026-08-17T05:17:40.379Z</time><hdop>3.125</hdop><vdop>2.687</vdop><extensions><gom:speed>0.466</gom:speed></extensions></trkpt>
   <trkpt lat="59.3275824583" lon="34.7154984843"><ele>169.773</ele><time>2026-08-17T05:17:41.098Z</time><hdop>3.125</hdop><vdop>2.812</vdop><extensions><gom:speed>0.404</gom:speed></extensions></trkpt>
   <trkpt lat="59.3275900858" lon="34.7155039326"><ele>170.002</ele><time>2026-08-17T05:17:41.645Z</time><hdop>3.125</hdop><vdop>2.875</vdop><extensions><gom:speed>0.516</gom:speed></extensions></trkpt>
   <trkpt lat="59.3275988868" lon="34.7155108895"><ele>169.951</ele><time>2026-08-17T05:17:42.645Z</time><hdop>3.125</hdop><vdop>2.75</vdop><extensions><gom:speed>0.44</gom:speed></extensions></trkpt>
   <trkpt lat="59.3276082746" lon="34.7155183494"><ele>169.946</ele><time>2026-08-17T05:17:43.646Z</time><hdop>3.125</hdop><vdop>2.812</vdop><extensions><gom:speed>0.613</gom:speed></extensions></trkpt>
   <trkpt lat="59.327614561" lon="34.7155226242"><ele>169.942</ele><time>2026-08-17T05:17:44.638Z</time><hdop>3.125</hdop><vdop>2.812</vdop><extensions><gom:speed>0.57</gom:speed></extensions></trkpt>
   <trkpt lat="59.3276161955" lon="34.7155226242"><ele>169.903</ele><time>2026-08-17T05:17:45.651Z</time><hdop>3.062</hdop><vdop>2.812</vdop><extensions><gom:speed>0.344</gom:speed></extensions></trkpt>
   <trkpt lat="59.3276139742" lon="34.7155161701"><ele>169.877</ele><time>2026-08-17T05:17:46.645Z</time><hdop>3.062</hdop><vdop>2.812</vdop><extensions><gom:speed>0.1</gom:speed></extensions></trkpt>
   <trkpt lat="59.3276134713" lon="34.7155137394"><ele>169.864</ele><time>2026-08-17T05:17:47.645Z</time><hdop>3.062</hdop><vdop>3.0</vdop><extensions><gom:speed>0.077</gom:speed></extensions></trkpt>
   <trkpt lat="59.3276134713" lon="34.7155121468"><ele>169.86</ele><time>2026-08-17T05:17:48.645Z</time><hdop>3.062</hdop><vdop>3.062</vdop><extensions><gom:speed>0.083</gom:speed></extensions></trkpt>
   <trkpt lat="59.327613178" lon="34.7155117277"><ele>169.855</ele><time>2026-08-17T05:17:49.692Z</time><hdop>3.062</hdop><vdop>3.062</vdop><extensions><gom:speed>0.012</gom:speed></extensions></trkpt>
   <trkpt lat="59.3276146867" lon="34.7155101352"><ele>169.847</ele><time>2026-08-17T05:17:50.645Z</time><hdop>3.0</hdop><vdop>3.25</vdop><extensions><gom:speed>0.065</gom:speed></extensions></trkpt>
   <trkpt lat="59.3276157764" lon="34.7155088779"><ele>169.778</ele><time>2026-08-17T05:17:51.644Z</time><hdop>3.0</hdop><vdop>3.375</vdop><extensions><gom:speed>0.106</gom:speed></extensions></trkpt>
   <trkpt lat="59.3276162793" lon="34.7155068662"><ele>169.955</ele><time>2026-08-17T05:17:52.645Z</time><hdop>3.0</hdop><vdop>3.687</vdop><extensions><gom:speed>0.08</gom:speed></extensions></trkpt>
   <trkpt lat="59.3276167822" lon="34.7155040164"><ele>170.061</ele><time>2026-08-17T05:17:53.645Z</time><hdop>3.0</hdop><vdop>3.687</vdop><extensions><gom:speed>0.095</gom:speed></extensions></trkpt>
   <trkpt lat="59.3276163631" lon="34.7155022562"><ele>170.122</ele><time>2026-08-17T05:17:54.692Z</time><hdop>3.0</hdop><vdop>3.687</vdop><extensions><gom:speed>0.052</gom:speed></extensions></trkpt>
   <trkpt lat="59.3276169917" lon="34.7155002445"><ele>170.158</ele><time>2026-08-17T05:17:55.645Z</time><hdop>3.0</hdop><vdop>3.75</vdop><extensions><gom:speed>0.078</gom:speed></extensions></trkpt>
   <trkpt lat="59.3276173689" lon="34.7155006636"><ele>170.177</ele><time>2026-08-17T05:17:56.692Z</time><hdop>3.0</hdop><vdop>3.75</vdop><extensions><gom:speed>0.023</gom:speed></extensions></trkpt>
   <trkpt lat="59.327617788" lon="34.7154987358"><ele>170.19</ele><time>2026-08-17T05:17:57.645Z</time><hdop>3.0</hdop><vdop>3.5</vdop><extensions><gom:speed>0.061</gom:speed></extensions></trkpt>
   <trkpt lat="59.3276182909" lon="34.7154987358"><ele>170.198</ele><time>2026-08-17T05:17:58.693Z</time><hdop>3.0</hdop><vdop>3.187</vdop><extensions><gom:speed>0.014</gom:speed></extensions></trkpt>
   <trkpt lat="59.3276183747" lon="34.7154975623"><ele>170.203</ele><time>2026-08-17T05:17:59.651Z</time><hdop>3.0</hdop><vdop>3.062</vdop><extensions><gom:speed>0.082</gom:speed></extensions></trkpt>
   <trkpt lat="59.3276180814" lon="34.7154969756"><ele>170.206</ele><time>2026-08-17T05:18:00.645Z</time><hdop>3.0</hdop><vdop>3.062</vdop><extensions><gom:speed>0.057</gom:speed></extensions></trkpt>
   <trkpt lat="59.3276179976" lon="34.7154965565"><ele>170.205</ele><time>2026-08-17T05:18:01.645Z</time><hdop>3.0</hdop><vdop>2.937</vdop><extensions><gom:speed>0.05</gom:speed></extensions></trkpt>
   <trkpt lat="59.3276175785" lon="34.7154958859"><ele>170.204</ele><time>2026-08-17T05:18:02.692Z</time><hdop>3.0</hdop><vdop>3.062</vdop><extensions><gom:speed>0.015</gom:speed></extensions></trkpt>
   <trkpt lat="59.3276176623" lon="34.7154951316"><ele>170.156</ele><time>2026-08-17T05:18:03.645Z</time><hdop>3.0</hdop><vdop>3.312</vdop><extensions><gom:speed>0.015</gom:speed></extensions></trkpt>
   <trkpt lat="59.327617788" lon="34.7154950477"><ele>170.127</ele><time>2026-08-17T05:18:04.123Z</time><hdop>3.0</hdop><vdop>3.312</vdop><extensions><gom:speed>0.016</gom:speed></extensions></trkpt>
   <trkpt lat="59.3276178718" lon="34.7154950477"><ele>170.126</ele><time>2026-08-17T05:18:04.649Z</time><hdop>3.0</hdop><vdop>3.125</vdop><extensions><gom:speed>0.017</gom:speed></extensions></trkpt>
   <trkpt lat="59.3276195901" lon="34.7154946286"><ele>170.125</ele><time>2026-08-17T05:18:05.640Z</time><hdop>3.0</hdop><vdop>3.125</vdop><extensions><gom:speed>0.144</gom:speed></extensions></trkpt>
   <trkpt lat="59.327620596" lon="34.7154952992"><ele>170.16</ele><time>2026-08-17T05:18:06.217Z</time><hdop>3.0</hdop><vdop>3.062</vdop><extensions><gom:speed>0.098</gom:speed></extensions></trkpt>
   <trkpt lat="59.3276222723" lon="34.7154950477"><ele>170.489</ele><time>2026-08-17T05:18:06.896Z</time><hdop>3.0</hdop><vdop>3.0</vdop><extensions><gom:speed>0.256</gom:speed></extensions></trkpt>
   <trkpt lat="59.3276237811" lon="34.7154948801"><ele>170.685</ele><time>2026-08-17T05:18:07.633Z</time><hdop>3.0</hdop><vdop>3.0</vdop><extensions><gom:speed>0.27</gom:speed></extensions></trkpt>
   <trkpt lat="59.3276259604" lon="34.7154929523"><ele>170.823</ele><time>2026-08-17T05:18:08.342Z</time><hdop>3.0</hdop><vdop>3.062</vdop><extensions><gom:speed>0.214</gom:speed></extensions></trkpt>
   <trkpt lat="59.3276292712" lon="34.7154910244"><ele>170.921</ele><time>2026-08-17T05:18:09.121Z</time><hdop>3.0</hdop><vdop>3.062</vdop><extensions><gom:speed>0.194</gom:speed></extensions></trkpt>
   <trkpt lat="59.32763539" lon="34.7154875878"><ele>171.109</ele><time>2026-08-17T05:18:09.645Z</time><hdop>3.0</hdop><vdop>3.062</vdop><extensions><gom:speed>0.443</gom:speed></extensions></trkpt>
   <trkpt lat="59.3276397905" lon="34.7154866658"><ele>171.222</ele><time>2026-08-17T05:18:10.456Z</time><hdop>3.0</hdop><vdop>3.062</vdop><extensions><gom:speed>0.407</gom:speed></extensions></trkpt>
   <trkpt lat="59.3276475857" lon="34.7154844865"><ele>171.714</ele><time>2026-08-17T05:18:11.194Z</time><hdop>3.0</hdop><vdop>2.937</vdop><extensions><gom:speed>0.415</gom:speed></extensions></trkpt>
   <trkpt lat="59.3276485915" lon="34.7154851571"><ele>172.407</ele><time>2026-08-17T05:18:11.693Z</time><hdop>3.0</hdop><vdop>2.937</vdop><extensions><gom:speed>0.331</gom:speed></extensions></trkpt>
   <trkpt lat="59.327659488" lon="34.7154848218"><ele>172.821</ele><time>2026-08-17T05:18:12.560Z</time><hdop>3.0</hdop><vdop>2.937</vdop><extensions><gom:speed>0.425</gom:speed></extensions></trkpt>
   <trkpt lat="59.3276704683" lon="34.7154863306"><ele>173.119</ele><time>2026-08-17T05:18:13.400Z</time><hdop>3.0</hdop><vdop>3.062</vdop><extensions><gom:speed>0.518</gom:speed></extensions></trkpt>
   <trkpt lat="59.3276780958" lon="34.7154867497"><ele>173.458</ele><time>2026-08-17T05:18:14.219Z</time><hdop>3.0</hdop><vdop>3.062</vdop><extensions><gom:speed>0.449</gom:speed></extensions></trkpt>
   <trkpt lat="59.3276806942" lon="34.7154849895"><ele>173.962</ele><time>2026-08-17T05:18:14.692Z</time><hdop>3.0</hdop><vdop>3.062</vdop><extensions><gom:speed>0.495</gom:speed></extensions></trkpt>
   <trkpt lat="59.3276929737" lon="34.7154763561"><ele>174.244</ele><time>2026-08-17T05:18:15.692Z</time><hdop>3.0</hdop><vdop>2.875</vdop><extensions><gom:speed>0.663</gom:speed></extensions></trkpt>
   <trkpt lat="59.3277036606" lon="34.7154683933"><ele>174.795</ele><time>2026-08-17T05:18:16.644Z</time><hdop>3.0</hdop><vdop>2.687</vdop><extensions><gom:speed>0.675</gom:speed></extensions></trkpt>
   <trkpt lat="59.3277132998" lon="34.7154530544"><ele>175.322</ele><time>2026-08-17T05:18:17.645Z</time><hdop>3.0</hdop><vdop>2.875</vdop><extensions><gom:speed>0.881</gom:speed></extensions></trkpt>
   <trkpt lat="59.3277185804" lon="34.7154404816"><ele>175.637</ele><time>2026-08-17T05:18:18.620Z</time><hdop>3.0</hdop><vdop>2.875</vdop><extensions><gom:speed>0.835</gom:speed></extensions></trkpt>
   <trkpt lat="59.3277234838" lon="34.7154341951"><ele>175.507</ele><time>2026-08-17T05:18:19.217Z</time><hdop>3.0</hdop><vdop>2.75</vdop><extensions><gom:speed>0.787</gom:speed></extensions></trkpt>
   <trkpt lat="59.3277309856" lon="34.7154267352"><ele>175.398</ele><time>2026-08-17T05:18:19.976Z</time><hdop>3.0</hdop><vdop>2.937</vdop><extensions><gom:speed>0.834</gom:speed></extensions></trkpt>
   <trkpt lat="59.3277357633" lon="34.715420365"><ele>175.333</ele><time>2026-08-17T05:18:20.584Z</time><hdop>3.0</hdop><vdop>2.937</vdop><extensions><gom:speed>0.837</gom:speed></extensions></trkpt>
   <trkpt lat="59.3277417983" lon="34.7154171799"><ele>175.272</ele><time>2026-08-17T05:18:21.321Z</time><hdop>3.0</hdop><vdop>3.187</vdop><extensions><gom:speed>0.75</gom:speed></extensions></trkpt>
   <trkpt lat="59.3277475818" lon="34.7154166769"><ele>175.129</ele><time>2026-08-17T05:18:22.081Z</time><hdop>3.0</hdop><vdop>3.375</vdop><extensions><gom:speed>0.65</gom:speed></extensions></trkpt>
   <trkpt lat="59.3277527786" lon="34.7154182695"><ele>175.271</ele><time>2026-08-17T05:18:22.645Z</time><hdop>3.0</hdop><vdop>3.5</vdop><extensions><gom:speed>0.671</gom:speed></extensions></trkpt>
   <trkpt lat="59.3277561732" lon="34.7154173475"><ele>175.356</ele><time>2026-08-17T05:18:23.597Z</time><hdop>3.0</hdop><vdop>3.5</vdop><extensions><gom:speed>0.509</gom:speed></extensions></trkpt>
   <trkpt lat="59.3277609928" lon="34.7154200297"><ele>175.881</ele><time>2026-08-17T05:18:24.275Z</time><hdop>3.0</hdop><vdop>3.562</vdop><extensions><gom:speed>0.449</gom:speed></extensions></trkpt>
   <trkpt lat="59.3277684946" lon="34.7154195268"><ele>176.553</ele><time>2026-08-17T05:18:25.632Z</time><hdop>3.0</hdop><vdop>3.937</vdop><extensions><gom:speed>0.45</gom:speed></extensions></trkpt>
   <trkpt lat="59.3277780919" lon="34.7154206164"><ele>177.122</ele><time>2026-08-17T05:18:26.645Z</time><hdop>3.0</hdop><vdop>4.562</vdop><extensions><gom:speed>0.509</gom:speed></extensions></trkpt>
   <trkpt lat="59.3277816961" lon="34.715418521"><ele>177.462</ele><time>2026-08-17T05:18:27.695Z</time><hdop>3.0</hdop><vdop>4.562</vdop><extensions><gom:speed>0.419</gom:speed></extensions></trkpt>
   <trkpt lat="59.3277857614" lon="34.715419443"><ele>177.841</ele><time>2026-08-17T05:18:28.403Z</time><hdop>3.0</hdop><vdop>4.375</vdop><extensions><gom:speed>0.389</gom:speed></extensions></trkpt>
   <trkpt lat="59.3277912934" lon="34.7154213708"><ele>178.792</ele><time>2026-08-17T05:18:29.293Z</time><hdop>3.0</hdop><vdop>4.0</vdop><extensions><gom:speed>0.334</gom:speed></extensions></trkpt>
   <trkpt lat="59.3277976637" lon="34.7154247236"><ele>179.476</ele><time>2026-08-17T05:18:30.062Z</time><hdop>3.0</hdop><vdop>4.0</vdop><extensions><gom:speed>0.37</gom:speed></extensions></trkpt>
   <trkpt lat="59.3278026928" lon="34.7154276572"><ele>179.629</ele><time>2026-08-17T05:18:30.645Z</time><hdop>3.0</hdop><vdop>4.0</vdop><extensions><gom:speed>0.455</gom:speed></extensions></trkpt>
   <trkpt lat="59.3278055846" lon="34.7154270705"><ele>179.72</ele><time>2026-08-17T05:18:31.660Z</time><hdop>3.0</hdop><vdop>4.0</vdop><extensions><gom:speed>0.331</gom:speed></extensions></trkpt>
   <trkpt lat="59.3278133797" lon="34.7154369612"><ele>179.404</ele><time>2026-08-17T05:18:32.645Z</time><hdop>3.0</hdop><vdop>4.062</vdop><extensions><gom:speed>0.396</gom:speed></extensions></trkpt>
   <trkpt lat="59.3278173611" lon="34.7154439181"><ele>179.485</ele><time>2026-08-17T05:18:33.645Z</time><hdop>3.0</hdop><vdop>4.187</vdop><extensions><gom:speed>0.317</gom:speed></extensions></trkpt>
   <trkpt lat="59.3278188699" lon="34.7154454269"><ele>179.361</ele><time>2026-08-17T05:18:34.655Z</time><hdop>3.0</hdop><vdop>4.562</vdop><extensions><gom:speed>0.236</gom:speed></extensions></trkpt>
   <trkpt lat="59.3278194985" lon="34.7154577483"><ele>179.286</ele><time>2026-08-17T05:18:35.645Z</time><hdop>3.0</hdop><vdop>4.75</vdop><extensions><gom:speed>0.125</gom:speed></extensions></trkpt>
   <trkpt lat="59.3278195823" lon="34.7154649567"><ele>179.29</ele><time>2026-08-17T05:18:36.645Z</time><hdop>3.0</hdop><vdop>4.5</vdop><extensions><gom:speed>0.106</gom:speed></extensions></trkpt>
   <trkpt lat="59.3278190794" lon="34.7154658787"><ele>179.521</ele><time>2026-08-17T05:18:37.649Z</time><hdop>3.0</hdop><vdop>3.937</vdop><extensions><gom:speed>0.102</gom:speed></extensions></trkpt>
   <trkpt lat="59.3278202948" lon="34.7154698182"><ele>179.66</ele><time>2026-08-17T05:18:38.540Z</time><hdop>3.0</hdop><vdop>3.937</vdop><extensions><gom:speed>0.099</gom:speed></extensions></trkpt>
   <trkpt lat="59.3278224741" lon="34.7154732548"><ele>179.663</ele><time>2026-08-17T05:18:39.177Z</time><hdop>3.0</hdop><vdop>3.687</vdop><extensions><gom:speed>0.113</gom:speed></extensions></trkpt>
   <trkpt lat="59.327822977" lon="34.7154734224"><ele>179.359</ele><time>2026-08-17T05:18:39.652Z</time><hdop>3.0</hdop><vdop>3.625</vdop><extensions><gom:speed>0.113</gom:speed></extensions></trkpt>
   <trkpt lat="59.3278309817" lon="34.7154752665"><ele>179.085</ele><time>2026-08-17T05:18:40.644Z</time><hdop>3.0</hdop><vdop>3.75</vdop><extensions><gom:speed>0.277</gom:speed></extensions></trkpt>
   <trkpt lat="59.327833161" lon="34.7154751826"><ele>178.921</ele><time>2026-08-17T05:18:41.494Z</time><hdop>3.0</hdop><vdop>3.75</vdop><extensions><gom:speed>0.217</gom:speed></extensions></trkpt>
   <trkpt lat="59.3278376872" lon="34.7154745959"><ele>179.242</ele><time>2026-08-17T05:18:42.141Z</time><hdop>3.0</hdop><vdop>3.375</vdop><extensions><gom:speed>0.267</gom:speed></extensions></trkpt>
   <trkpt lat="59.3278412915" lon="34.7154742606"><ele>179.337</ele><time>2026-08-17T05:18:42.647Z</time><hdop>3.0</hdop><vdop>3.125</vdop><extensions><gom:speed>0.288</gom:speed></extensions></trkpt>
   <trkpt lat="59.3278474941" lon="34.7154724166"><ele>179.393</ele><time>2026-08-17T05:18:43.213Z</time><hdop>3.0</hdop><vdop>3.125</vdop><extensions><gom:speed>0.37</gom:speed></extensions></trkpt>
   <trkpt lat="59.3278555826" lon="34.7154705726"><ele>180.008</ele><time>2026-08-17T05:18:44.073Z</time><hdop>3.0</hdop><vdop>2.75</vdop><extensions><gom:speed>0.327</gom:speed></extensions></trkpt>
   <trkpt lat="59.3278601927" lon="34.7154685609"><ele>180.52</ele><time>2026-08-17T05:18:44.645Z</time><hdop>3.0</hdop><vdop>2.75</vdop><extensions><gom:speed>0.278</gom:speed></extensions></trkpt>
   <trkpt lat="59.3278661857" lon="34.71546437"><ele>180.975</ele><time>2026-08-17T05:18:45.645Z</time><hdop>3.0</hdop><vdop>2.687</vdop><extensions><gom:speed>0.272</gom:speed></extensions></trkpt>
   <trkpt lat="59.3278741904" lon="34.7154553175"><ele>181.314</ele><time>2026-08-17T05:18:46.645Z</time><hdop>3.0</hdop><vdop>2.75</vdop><extensions><gom:speed>0.52</gom:speed></extensions></trkpt>
   <trkpt lat="59.3278838715" lon="34.715444421"><ele>181.56</ele><time>2026-08-17T05:18:47.645Z</time><hdop>3.0</hdop><vdop>2.937</vdop><extensions><gom:speed>0.718</gom:speed></extensions></trkpt>
   <trkpt lat="59.3278934688" lon="34.7154386375"><ele>181.94</ele><time>2026-08-17T05:18:48.644Z</time><hdop>3.0</hdop><vdop>2.875</vdop><extensions><gom:speed>0.734</gom:speed></extensions></trkpt>
   <trkpt lat="59.3278983722" lon="34.715434698"><ele>182.11</ele><time>2026-08-17T05:18:49.644Z</time><hdop>3.0</hdop><vdop>2.75</vdop><extensions><gom:speed>0.549</gom:speed></extensions></trkpt>
   <trkpt lat="59.3279036947" lon="34.7154313453"><ele>182.594</ele><time>2026-08-17T05:18:50.645Z</time><hdop>3.0</hdop><vdop>2.687</vdop><extensions><gom:speed>0.595</gom:speed></extensions></trkpt>
   <trkpt lat="59.3279088915" lon="34.7154322673"><ele>182.883</ele><time>2026-08-17T05:18:51.458Z</time><hdop>3.0</hdop><vdop>2.687</vdop><extensions><gom:speed>0.598</gom:speed></extensions></trkpt>
   <trkpt lat="59.3279115737" lon="34.7154355362"><ele>182.688</ele><time>2026-08-17T05:18:52.399Z</time><hdop>3.0</hdop><vdop>2.625</vdop><extensions><gom:speed>0.49</gom:speed></extensions></trkpt>
   <trkpt lat="59.3279137949" lon="34.7154418227"><ele>182.619</ele><time>2026-08-17T05:18:53.118Z</time><hdop>3.0</hdop><vdop>2.687</vdop><extensions><gom:speed>0.524</gom:speed></extensions></trkpt>
   <trkpt lat="59.3279164771" lon="34.7154510428"><ele>182.613</ele><time>2026-08-17T05:18:53.644Z</time><hdop>3.0</hdop><vdop>2.937</vdop><extensions><gom:speed>0.594</gom:speed></extensions></trkpt>
   <trkpt lat="59.3279180697" lon="34.7154611849"><ele>182.609</ele><time>2026-08-17T05:18:54.534Z</time><hdop>3.0</hdop><vdop>2.937</vdop><extensions><gom:speed>0.621</gom:speed></extensions></trkpt>
   <trkpt lat="59.327918866" lon="34.7154687286"><ele>182.292</ele><time>2026-08-17T05:18:55.121Z</time><hdop>3.0</hdop><vdop>3.062</vdop><extensions><gom:speed>0.583</gom:speed></extensions></trkpt>
   <trkpt lat="59.3279192851" lon="34.7154719975"><ele>181.67</ele><time>2026-08-17T05:18:55.644Z</time><hdop>3.0</hdop><vdop>2.937</vdop><extensions><gom:speed>0.427</gom:speed></extensions></trkpt>
   <trkpt lat="59.3279209615" lon="34.7154758532"><ele>181.298</ele><time>2026-08-17T05:18:56.437Z</time><hdop>3.0</hdop><vdop>2.937</vdop><extensions><gom:speed>0.41</gom:speed></extensions></trkpt>
   <trkpt lat="59.3279210872" lon="34.7154737577"><ele>181.08</ele><time>2026-08-17T05:18:56.901Z</time><hdop>3.0</hdop><vdop>2.687</vdop><extensions><gom:speed>0.319</gom:speed></extensions></trkpt>
   <trkpt lat="59.3279227636" lon="34.7154753503"><ele>180.949</ele><time>2026-08-17T05:18:57.539Z</time><hdop>3.0</hdop><vdop>2.687</vdop><extensions><gom:speed>0.316</gom:speed></extensions></trkpt>
   <trkpt lat="59.3279267869" lon="34.7154779487"><ele>180.906</ele><time>2026-08-17T05:18:58.216Z</time><hdop>3.0</hdop><vdop>2.5</vdop><extensions><gom:speed>0.48</gom:speed></extensions></trkpt>
   <trkpt lat="59.3279288824" lon="34.7154766914"><ele>180.603</ele><time>2026-08-17T05:18:58.833Z</time><hdop>3.0</hdop><vdop>2.687</vdop><extensions><gom:speed>0.482</gom:speed></extensions></trkpt>
   <trkpt lat="59.3279327799" lon="34.7154720813"><ele>180.156</ele><time>2026-08-17T05:18:59.644Z</time><hdop>3.0</hdop><vdop>2.5</vdop><extensions><gom:speed>0.478</gom:speed></extensions></trkpt>
   <trkpt lat="59.3279376833" lon="34.7154712431"><ele>179.785</ele><time>2026-08-17T05:19:00.654Z</time><hdop>3.0</hdop><vdop>2.562</vdop><extensions><gom:speed>0.478</gom:speed></extensions></trkpt>
   <trkpt lat="59.327943383" lon="34.7154673875"><ele>179.231</ele><time>2026-08-17T05:19:01.645Z</time><hdop>3.0</hdop><vdop>2.625</vdop><extensions><gom:speed>0.484</gom:speed></extensions></trkpt>
   <trkpt lat="59.3279470711" lon="34.7154720813"><ele>178.899</ele><time>2026-08-17T05:19:02.617Z</time><hdop>3.0</hdop><vdop>2.625</vdop><extensions><gom:speed>0.487</gom:speed></extensions></trkpt>
   <trkpt lat="59.3279514716" lon="34.7154709917"><ele>178.598</ele><time>2026-08-17T05:19:03.275Z</time><hdop>3.0</hdop><vdop>2.625</vdop><extensions><gom:speed>0.525</gom:speed></extensions></trkpt>
   <trkpt lat="59.3279518907" lon="34.7154681418"><ele>178.401</ele><time>2026-08-17T05:19:04.398Z</time><hdop>3.0</hdop><vdop>2.5</vdop><extensions><gom:speed>0.342</gom:speed></extensions></trkpt>
   <trkpt lat="59.3279534832" lon="34.7154614363"><ele>178.155</ele><time>2026-08-17T05:19:04.863Z</time><hdop>3.0</hdop><vdop>2.5</vdop><extensions><gom:speed>0.488</gom:speed></extensions></trkpt>
   <trkpt lat="59.3279532737" lon="34.7154526353"><ele>177.761</ele><time>2026-08-17T05:19:05.645Z</time><hdop>3.0</hdop><vdop>2.5</vdop><extensions><gom:speed>0.437</gom:speed></extensions></trkpt>
   <trkpt lat="59.3279550758" lon="34.7154433314"><ele>177.525</ele><time>2026-08-17T05:19:06.633Z</time><hdop>3.0</hdop><vdop>2.5</vdop><extensions><gom:speed>0.471</gom:speed></extensions></trkpt>
   <trkpt lat="59.3279545729" lon="34.7154327702"><ele>177.418</ele><time>2026-08-17T05:19:07.301Z</time><hdop>3.0</hdop><vdop>2.5</vdop><extensions><gom:speed>0.523</gom:speed></extensions></trkpt>
   <trkpt lat="59.3279529803" lon="34.7154125698"><ele>177.391</ele><time>2026-08-17T05:19:08.100Z</time><hdop>3.0</hdop><vdop>2.5</vdop><extensions><gom:speed>0.701</gom:speed></extensions></trkpt>
   <trkpt lat="59.3279534832" lon="34.7154040203"><ele>177.32</ele><time>2026-08-17T05:19:08.648Z</time><hdop>3.0</hdop><vdop>2.562</vdop><extensions><gom:speed>0.707</gom:speed></extensions></trkpt>
   <trkpt lat="59.3279519745" lon="34.7153838199"><ele>177.277</ele><time>2026-08-17T05:19:09.476Z</time><hdop>3.0</hdop><vdop>2.562</vdop><extensions><gom:speed>0.787</gom:speed></extensions></trkpt>
   <trkpt lat="59.3279500886" lon="34.715364793"><ele>177.418</ele><time>2026-08-17T05:19:10.215Z</time><hdop>3.0</hdop><vdop>2.5</vdop><extensions><gom:speed>0.827</gom:speed></extensions></trkpt>
   <trkpt lat="59.3279482865" lon="34.7153549861"><ele>177.384</ele><time>2026-08-17T05:19:10.680Z</time><hdop>3.0</hdop><vdop>2.5</vdop><extensions><gom:speed>0.708</gom:speed></extensions></trkpt>
   <trkpt lat="59.3279519745" lon="34.7153434191"><ele>177.364</ele><time>2026-08-17T05:19:11.520Z</time><hdop>3.0</hdop><vdop>2.5</vdop><extensions><gom:speed>0.781</gom:speed></extensions></trkpt>
   <trkpt lat="59.3279543633" lon="34.7153327741"><ele>176.703</ele><time>2026-08-17T05:19:12.320Z</time><hdop>3.0</hdop><vdop>2.5</vdop><extensions><gom:speed>0.789</gom:speed></extensions></trkpt>
   <trkpt lat="59.3279562912" lon="34.7153276611"><ele>176.08</ele><time>2026-08-17T05:19:13.138Z</time><hdop>3.0</hdop><vdop>2.5</vdop><extensions><gom:speed>0.716</gom:speed></extensions></trkpt>
   <trkpt lat="59.3279593925" lon="34.7153284993"><ele>176.072</ele><time>2026-08-17T05:19:13.645Z</time><hdop>3.0</hdop><vdop>2.5</vdop><extensions><gom:speed>0.738</gom:speed></extensions></trkpt>
   <trkpt lat="59.3279661818" lon="34.7153321874"><ele>176.258</ele><time>2026-08-17T05:19:14.645Z</time><hdop>3.0</hdop><vdop>2.75</vdop><extensions><gom:speed>0.728</gom:speed></extensions></trkpt>
   <trkpt lat="59.3279719653" lon="34.7153316844"><ele>176.369</ele><time>2026-08-17T05:19:15.394Z</time><hdop>3.0</hdop><vdop>2.75</vdop><extensions><gom:speed>0.755</gom:speed></extensions></trkpt>
   <trkpt lat="59.3279774974" lon="34.7153297566"><ele>175.852</ele><time>2026-08-17T05:19:16.173Z</time><hdop>3.0</hdop><vdop>2.812</vdop><extensions><gom:speed>0.793</gom:speed></extensions></trkpt>
   <trkpt lat="59.3279802634" lon="34.715329589"><ele>175.431</ele><time>2026-08-17T05:19:16.645Z</time><hdop>3.0</hdop><vdop>2.687</vdop><extensions><gom:speed>0.706</gom:speed></extensions></trkpt>
   <trkpt lat="59.3279883939" lon="34.7153287508"><ele>175.139</ele><time>2026-08-17T05:19:17.650Z</time><hdop>3.0</hdop><vdop>2.687</vdop><extensions><gom:speed>0.806</gom:speed></extensions></trkpt>
   <trkpt lat="59.3279936745" lon="34.7153301757"><ele>174.964</ele><time>2026-08-17T05:19:18.439Z</time><hdop>3.0</hdop><vdop>2.687</vdop><extensions><gom:speed>0.681</gom:speed></extensions></trkpt>
   <trkpt lat="59.3280011763" lon="34.7153249789"><ele>175.344</ele><time>2026-08-17T05:19:19.645Z</time><hdop>3.0</hdop><vdop>2.812</vdop><extensions><gom:speed>0.465</gom:speed></extensions></trkpt>
   <trkpt lat="59.3280061635" lon="34.7153219614"><ele>175.512</ele><time>2026-08-17T05:19:20.645Z</time><hdop>3.0</hdop><vdop>3.25</vdop><extensions><gom:speed>0.568</gom:speed></extensions></trkpt>
   <trkpt lat="59.3280081752" lon="34.7153211233"><ele>175.613</ele><time>2026-08-17T05:19:21.343Z</time><hdop>3.0</hdop><vdop>3.25</vdop><extensions><gom:speed>0.392</gom:speed></extensions></trkpt>
   <trkpt lat="59.3280092648" lon="34.7153245598"><ele>175.444</ele><time>2026-08-17T05:19:21.940Z</time><hdop>3.0</hdop><vdop>3.437</vdop><extensions><gom:speed>0.251</gom:speed></extensions></trkpt>
   <trkpt lat="59.3280094744" lon="34.7153245598"><ele>175.344</ele><time>2026-08-17T05:19:22.405Z</time><hdop>3.0</hdop><vdop>3.437</vdop><extensions><gom:speed>0.25</gom:speed></extensions></trkpt>
   <trkpt lat="59.3280100611" lon="34.7153289184"><ele>175.312</ele><time>2026-08-17T05:19:23.645Z</time><hdop>3.0</hdop><vdop>3.125</vdop><extensions><gom:speed>0.116</gom:speed></extensions></trkpt>
   <trkpt lat="59.3280104802" lon="34.7153313492"><ele>175.288</ele><time>2026-08-17T05:19:24.645Z</time><hdop>3.0</hdop><vdop>3.0</vdop><extensions><gom:speed>0.085</gom:speed></extensions></trkpt>
   <trkpt lat="59.3280112765" lon="34.715333277"><ele>175.271</ele><time>2026-08-17T05:19:25.645Z</time><hdop>3.0</hdop><vdop>3.0</vdop><extensions><gom:speed>0.098</gom:speed></extensions></trkpt>
   <trkpt lat="59.3280127852" lon="34.7153328579"><ele>175.266</ele><time>2026-08-17T05:19:26.655Z</time><hdop>3.0</hdop><vdop>2.937</vdop><extensions><gom:speed>0.108</gom:speed></extensions></trkpt>
   <trkpt lat="59.3280136653" lon="34.7153357916"><ele>175.264</ele><time>2026-08-17T05:19:27.645Z</time><hdop>3.0</hdop><vdop>2.937</vdop><extensions><gom:speed>0.071</gom:speed></extensions></trkpt>
   <trkpt lat="59.3280139587" lon="34.7153376356"><ele>175.26</ele><time>2026-08-17T05:19:28.645Z</time><hdop>3.0</hdop><vdop>2.937</vdop><extensions><gom:speed>0.074</gom:speed></extensions></trkpt>
   <trkpt lat="59.3280143778" lon="34.7153390605"><ele>175.416</ele><time>2026-08-17T05:19:29.645Z</time><hdop>3.0</hdop><vdop>2.937</vdop><extensions><gom:speed>0.06</gom:speed></extensions></trkpt>
   <trkpt lat="59.3280154674" lon="34.715341156"><ele>175.513</ele><time>2026-08-17T05:19:30.646Z</time><hdop>3.0</hdop><vdop>2.937</vdop><extensions><gom:speed>0.071</gom:speed></extensions></trkpt>
   <trkpt lat="59.3280163894" lon="34.7153432515"><ele>175.572</ele><time>2026-08-17T05:19:31.644Z</time><hdop>3.0</hdop><vdop>2.875</vdop><extensions><gom:speed>0.1</gom:speed></extensions></trkpt>
   <trkpt lat="59.3280168923" lon="34.7153447602"><ele>175.61</ele><time>2026-08-17T05:19:32.645Z</time><hdop>3.0</hdop><vdop>2.812</vdop><extensions><gom:speed>0.099</gom:speed></extensions></trkpt>
   <trkpt lat="59.3280167666" lon="34.715344844"><ele>175.632</ele><time>2026-08-17T05:19:33.534Z</time><hdop>3.0</hdop><vdop>2.812</vdop><extensions><gom:speed>0.102</gom:speed></extensions></trkpt>
   <trkpt lat="59.3280169762" lon="34.7153474424"><ele>175.652</ele><time>2026-08-17T05:19:34.646Z</time><hdop>3.0</hdop><vdop>2.75</vdop><extensions><gom:speed>0.11</gom:speed></extensions></trkpt>
   <trkpt lat="59.3280177724" lon="34.7153497894"><ele>175.539</ele><time>2026-08-17T05:19:35.645Z</time><hdop>3.0</hdop><vdop>2.75</vdop><extensions><gom:speed>0.097</gom:speed></extensions></trkpt>
   <trkpt lat="59.3280184849" lon="34.7153517172"><ele>175.454</ele><time>2026-08-17T05:19:36.646Z</time><hdop>3.0</hdop><vdop>3.125</vdop><extensions><gom:speed>0.102</gom:speed></extensions></trkpt>
   <trkpt lat="59.3280185687" lon="34.7153531421"><ele>175.39</ele><time>2026-08-17T05:19:37.645Z</time><hdop>3.0</hdop><vdop>3.25</vdop><extensions><gom:speed>0.096</gom:speed></extensions></trkpt>
   <trkpt lat="59.3280186944" lon="34.71535507"><ele>175.345</ele><time>2026-08-17T05:19:38.645Z</time><hdop>3.0</hdop><vdop>3.375</vdop><extensions><gom:speed>0.097</gom:speed></extensions></trkpt>
   <trkpt lat="59.3280184849" lon="34.7153548185"><ele>175.318</ele><time>2026-08-17T05:19:39.200Z</time><hdop>3.0</hdop><vdop>3.375</vdop><extensions><gom:speed>0.081</gom:speed></extensions></trkpt>
   <trkpt lat="59.3280183592" lon="34.7153554891"><ele>175.279</ele><time>2026-08-17T05:19:40.645Z</time><hdop>3.0</hdop><vdop>3.5</vdop><extensions><gom:speed>0.023</gom:speed></extensions></trkpt>
   <trkpt lat="59.3280182753" lon="34.715355992"><ele>175.251</ele><time>2026-08-17T05:19:41.644Z</time><hdop>3.0</hdop><vdop>3.5</vdop><extensions><gom:speed>0.034</gom:speed></extensions></trkpt>
   <trkpt lat="59.3280184849" lon="34.7153564949"><ele>175.236</ele><time>2026-08-17T05:19:42.645Z</time><hdop>3.0</hdop><vdop>3.5</vdop><extensions><gom:speed>0.042</gom:speed></extensions></trkpt>
   <trkpt lat="59.3280188621" lon="34.7153566625"><ele>175.225</ele><time>2026-08-17T05:19:43.650Z</time><hdop>3.0</hdop><vdop>3.5</vdop><extensions><gom:speed>0.042</gom:speed></extensions></trkpt>
   <trkpt lat="59.3280189878" lon="34.7153575845"><ele>175.212</ele><time>2026-08-17T05:19:44.645Z</time><hdop>3.0</hdop><vdop>3.312</vdop><extensions><gom:speed>0.05</gom:speed></extensions></trkpt>
   <trkpt lat="59.3280195745" lon="34.7153582551"><ele>175.348</ele><time>2026-08-17T05:19:45.645Z</time><hdop>3.0</hdop><vdop>3.312</vdop><extensions><gom:speed>0.129</gom:speed></extensions></trkpt>
   <trkpt lat="59.3280201613" lon="34.7153584227"><ele>175.375</ele><time>2026-08-17T05:19:46.644Z</time><hdop>3.0</hdop><vdop>3.125</vdop><extensions><gom:speed>0.138</gom:speed></extensions></trkpt>
   <trkpt lat="59.3280205804" lon="34.7153580874"><ele>175.388</ele><time>2026-08-17T05:19:47.645Z</time><hdop>3.0</hdop><vdop>3.187</vdop><extensions><gom:speed>0.109</gom:speed></extensions></trkpt>
   <trkpt lat="59.328020287" lon="34.7153576683"><ele>175.396</ele><time>2026-08-17T05:19:48.645Z</time><hdop>3.0</hdop><vdop>3.125</vdop><extensions><gom:speed>0.09</gom:speed></extensions></trkpt>
   <trkpt lat="59.3280201613" lon="34.715357836"><ele>175.404</ele><time>2026-08-17T05:19:49.645Z</time><hdop>3.0</hdop><vdop>3.125</vdop><extensions><gom:speed>0.079</gom:speed></extensions></trkpt>
   <trkpt lat="59.3280201613" lon="34.7153577522"><ele>175.408</ele><time>2026-08-17T05:19:50.327Z</time><hdop>3.0</hdop><vdop>3.125</vdop><extensions><gom:speed>0.076</gom:speed></extensions></trkpt>
   <trkpt lat="59.3280213767" lon="34.71535968"><ele>175.48</ele><time>2026-08-17T05:19:51.645Z</time><hdop>3.0</hdop><vdop>3.062</vdop><extensions><gom:speed>0.1</gom:speed></extensions></trkpt>
   <trkpt lat="59.3280217957" lon="34.7153605182"><ele>175.522</ele><time>2026-08-17T05:19:52.654Z</time><hdop>3.0</hdop><vdop>3.062</vdop><extensions><gom:speed>0.1</gom:speed></extensions></trkpt>
   <trkpt lat="59.3280213767" lon="34.7153618593"><ele>175.548</ele><time>2026-08-17T05:19:53.645Z</time><hdop>3.0</hdop><vdop>3.125</vdop><extensions><gom:speed>0.077</gom:speed></extensions></trkpt>
   <trkpt lat="59.3280212928" lon="34.7153623622"><ele>175.564</ele><time>2026-08-17T05:19:54.645Z</time><hdop>3.0</hdop><vdop>3.125</vdop><extensions><gom:speed>0.118</gom:speed></extensions></trkpt>
   <trkpt lat="59.3280214605" lon="34.7153634519"><ele>175.574</ele><time>2026-08-17T05:19:55.645Z</time><hdop>3.0</hdop><vdop>3.0</vdop><extensions><gom:speed>0.093</gom:speed></extensions></trkpt>
   <trkpt lat="59.3280212928" lon="34.7153643739"><ele>175.582</ele><time>2026-08-17T05:19:56.645Z</time><hdop>3.0</hdop><vdop>2.875</vdop><extensions><gom:speed>0.083</gom:speed></extensions></trkpt>
   <trkpt lat="59.3280210833" lon="34.7153648768"><ele>175.587</ele><time>2026-08-17T05:19:57.645Z</time><hdop>3.0</hdop><vdop>2.687</vdop><extensions><gom:speed>0.078</gom:speed></extensions></trkpt>
   <trkpt lat="59.3280210833" lon="34.7153655473"><ele>175.65</ele><time>2026-08-17T05:19:58.645Z</time><hdop>3.0</hdop><vdop>2.875</vdop><extensions><gom:speed>0.122</gom:speed></extensions></trkpt>
   <trkpt lat="59.3280210833" lon="34.7153662179"><ele>175.691</ele><time>2026-08-17T05:19:59.645Z</time><hdop>3.0</hdop><vdop>2.875</vdop><extensions><gom:speed>0.09</gom:speed></extensions></trkpt>
   <trkpt lat="59.3280214605" lon="34.7153662179"><ele>175.717</ele><time>2026-08-17T05:20:00.646Z</time><hdop>3.0</hdop><vdop>2.875</vdop><extensions><gom:speed>0.09</gom:speed></extensions></trkpt>
   <trkpt lat="59.3280213767" lon="34.7153663855"><ele>175.733</ele><time>2026-08-17T05:20:01.455Z</time><hdop>3.0</hdop><vdop>2.875</vdop><extensions><gom:speed>0.083</gom:speed></extensions></trkpt>
   <trkpt lat="59.3280212928" lon="34.7153667208"><ele>175.74</ele><time>2026-08-17T05:20:02.645Z</time><hdop>3.0</hdop><vdop>3.187</vdop><extensions><gom:speed>0.07</gom:speed></extensions></trkpt>
   <trkpt lat="59.3280212928" lon="34.7153668884"><ele>175.749</ele><time>2026-08-17T05:20:03.645Z</time><hdop>3.0</hdop><vdop>2.937</vdop><extensions><gom:speed>0.069</gom:speed></extensions></trkpt>
   <trkpt lat="59.3280213767" lon="34.7153671399"><ele>175.758</ele><time>2026-08-17T05:20:04.645Z</time><hdop>3.0</hdop><vdop>2.75</vdop><extensions><gom:speed>0.067</gom:speed></extensions></trkpt>
   <trkpt lat="59.3280215862" lon="34.715367559"><ele>175.77</ele><time>2026-08-17T05:20:05.645Z</time><hdop>3.0</hdop><vdop>2.75</vdop><extensions><gom:speed>0.068</gom:speed></extensions></trkpt>
   <trkpt lat="59.32802167" lon="34.7153677266"><ele>175.783</ele><time>2026-08-17T05:20:06.645Z</time><hdop>3.0</hdop><vdop>2.687</vdop><extensions><gom:speed>0.068</gom:speed></extensions></trkpt>
   <trkpt lat="59.32802167" lon="34.7153680619"><ele>175.798</ele><time>2026-08-17T05:20:07.645Z</time><hdop>3.0</hdop><vdop>2.687</vdop><extensions><gom:speed>0.067</gom:speed></extensions></trkpt>
   <trkpt lat="59.3280217957" lon="34.7153683972"><ele>175.814</ele><time>2026-08-17T05:20:08.645Z</time><hdop>3.0</hdop><vdop>2.625</vdop><extensions><gom:speed>0.066</gom:speed></extensions></trkpt>
   <trkpt lat="59.3280220891" lon="34.715368481"><ele>175.825</ele><time>2026-08-17T05:20:09.650Z</time><hdop>3.0</hdop><vdop>2.625</vdop><extensions><gom:speed>0.066</gom:speed></extensions></trkpt>
   <trkpt lat="59.3280219634" lon="34.7153687325"><ele>175.837</ele><time>2026-08-17T05:20:10.645Z</time><hdop>3.0</hdop><vdop>2.562</vdop><extensions><gom:speed>0.068</gom:speed></extensions></trkpt>
   <trkpt lat="59.3280220891" lon="34.7153690677"><ele>175.848</ele><time>2026-08-17T05:20:11.645Z</time><hdop>3.0</hdop><vdop>2.625</vdop><extensions><gom:speed>0.065</gom:speed></extensions></trkpt>
   <trkpt lat="59.3280219634" lon="34.7153696545"><ele>175.856</ele><time>2026-08-17T05:20:12.645Z</time><hdop>3.0</hdop><vdop>2.625</vdop><extensions><gom:speed>0.066</gom:speed></extensions></trkpt>
   <trkpt lat="59.3280219634" lon="34.7153696545"><ele>175.861</ele><time>2026-08-17T05:20:13.292Z</time><hdop>3.0</hdop><vdop>2.625</vdop><extensions><gom:speed>0.066</gom:speed></extensions></trkpt>
   <trkpt lat="59.3280221729" lon="34.7153701574"><ele>175.871</ele><time>2026-08-17T05:20:14.645Z</time><hdop>3.0</hdop><vdop>2.687</vdop><extensions><gom:speed>0.067</gom:speed></extensions></trkpt>
   <trkpt lat="59.3280221729" lon="34.715370325"><ele>175.88</ele><time>2026-08-17T05:20:15.645Z</time><hdop>3.0</hdop><vdop>2.687</vdop><extensions><gom:speed>0.069</gom:speed></extensions></trkpt>
   <trkpt lat="59.3280222987" lon="34.7153705765"><ele>175.887</ele><time>2026-08-17T05:20:16.645Z</time><hdop>3.0</hdop><vdop>2.75</vdop><extensions><gom:speed>0.067</gom:speed></extensions></trkpt>
   <trkpt lat="59.3280222987" lon="34.7153706603"><ele>175.892</ele><time>2026-08-17T05:20:17.645Z</time><hdop>3.0</hdop><vdop>2.75</vdop><extensions><gom:speed>0.068</gom:speed></extensions></trkpt>
   <trkpt lat="59.3280224663" lon="34.7153708279"><ele>175.896</ele><time>2026-08-17T05:20:18.654Z</time><hdop>3.0</hdop><vdop>2.75</vdop><extensions><gom:speed>0.068</gom:speed></extensions></trkpt>
   <trkpt lat="59.3280221729" lon="34.7153709956"><ele>175.903</ele><time>2026-08-17T05:20:19.644Z</time><hdop>3.0</hdop><vdop>2.687</vdop><extensions><gom:speed>0.071</gom:speed></extensions></trkpt>
   <trkpt lat="59.3280222987" lon="34.7153709956"><ele>175.918</ele><time>2026-08-17T05:20:20.645Z</time><hdop>3.0</hdop><vdop>2.625</vdop><extensions><gom:speed>0.073</gom:speed></extensions></trkpt>
   <trkpt lat="59.3280223825" lon="34.7153710794"><ele>175.928</ele><time>2026-08-17T05:20:21.644Z</time><hdop>3.0</hdop><vdop>2.625</vdop><extensions><gom:speed>0.073</gom:speed></extensions></trkpt>
   <trkpt lat="59.3280226758" lon="34.7153707441"><ele>175.982</ele><time>2026-08-17T05:20:22.645Z</time><hdop>3.0</hdop><vdop>2.562</vdop><extensions><gom:speed>0.117</gom:speed></extensions></trkpt>
   <trkpt lat="59.3280227597" lon="34.7153708279"><ele>176.015</ele><time>2026-08-17T05:20:23.644Z</time><hdop>3.0</hdop><vdop>2.625</vdop><extensions><gom:speed>0.089</gom:speed></extensions></trkpt>
   <trkpt lat="59.3280227597" lon="34.7153708279"><ele>176.034</ele><time>2026-08-17T05:20:24.420Z</time><hdop>3.0</hdop><vdop>2.625</vdop><extensions><gom:speed>0.089</gom:speed></extensions></trkpt>
   <trkpt lat="59.3280230949" lon="34.7153704927"><ele>176.055</ele><time>2026-08-17T05:20:25.645Z</time><hdop>3.0</hdop><vdop>2.687</vdop><extensions><gom:speed>0.07</gom:speed></extensions></trkpt>
   <trkpt lat="59.3280232626" lon="34.7153704927"><ele>176.068</ele><time>2026-08-17T05:20:26.647Z</time><hdop>3.0</hdop><vdop>2.625</vdop><extensions><gom:speed>0.071</gom:speed></extensions></trkpt>
   <trkpt lat="59.3280230949" lon="34.7153695707"><ele>176.073</ele><time>2026-08-17T05:20:27.645Z</time><hdop>3.0</hdop><vdop>2.562</vdop><extensions><gom:speed>0.124</gom:speed></extensions></trkpt>
   <trkpt lat="59.3280228854" lon="34.7153686486"><ele>175.884</ele><time>2026-08-17T05:20:28.645Z</time><hdop>3.0</hdop><vdop>2.5</vdop><extensions><gom:speed>0.101</gom:speed></extensions></trkpt>
   <trkpt lat="59.3280222987" lon="34.7153678943"><ele>175.753</ele><time>2026-08-17T05:20:29.644Z</time><hdop>3.0</hdop><vdop>2.5</vdop><extensions><gom:speed>0.088</gom:speed></extensions></trkpt>
   <trkpt lat="59.32802167" lon="34.7153672237"><ele>175.671</ele><time>2026-08-17T05:20:30.645Z</time><hdop>3.0</hdop><vdop>2.5</vdop><extensions><gom:speed>0.081</gom:speed></extensions></trkpt>
   <trkpt lat="59.3280212928" lon="34.7153668884"><ele>175.617</ele><time>2026-08-17T05:20:31.644Z</time><hdop>3.0</hdop><vdop>2.5</vdop><extensions><gom:speed>0.077</gom:speed></extensions></trkpt>
   <trkpt lat="59.3280208737" lon="34.7153663855"><ele>175.58</ele><time>2026-08-17T05:20:32.645Z</time><hdop>3.0</hdop><vdop>2.5</vdop><extensions><gom:speed>0.077</gom:speed></extensions></trkpt>
   <trkpt lat="59.3280204966" lon="34.7153658826"><ele>175.554</ele><time>2026-08-17T05:20:33.645Z</time><hdop>3.0</hdop><vdop>2.5</vdop><extensions><gom:speed>0.074</gom:speed></extensions></trkpt>
   <trkpt lat="59.3280199936" lon="34.7153654635"><ele>175.183</ele><time>2026-08-17T05:20:34.645Z</time><hdop>3.0</hdop><vdop>2.5</vdop><extensions><gom:speed>0.076</gom:speed></extensions></trkpt>
   <trkpt lat="59.3280199936" lon="34.7153653797"><ele>174.962</ele><time>2026-08-17T05:20:35.548Z</time><hdop>3.0</hdop><vdop>2.5</vdop><extensions><gom:speed>0.077</gom:speed></extensions></trkpt>
   <trkpt lat="59.3280186944" lon="34.715364793"><ele>174.813</ele><time>2026-08-17T05:20:36.645Z</time><hdop>3.0</hdop><vdop>2.5</vdop><extensions><gom:speed>0.128</gom:speed></extensions></trkpt>
   <trkpt lat="59.3280184849" lon="34.7153645415"><ele>174.724</ele><time>2026-08-17T05:20:37.460Z</time><hdop>3.0</hdop><vdop>2.5</vdop><extensions><gom:speed>0.129</gom:speed></extensions></trkpt>
   <trkpt lat="59.3280174791" lon="34.7153643739"><ele>174.797</ele><time>2026-08-17T05:20:38.320Z</time><hdop>3.0</hdop><vdop>2.5</vdop><extensions><gom:speed>0.304</gom:speed></extensions></trkpt>
   <trkpt lat="59.3280153836" lon="34.7153640386"><ele>174.313</ele><time>2026-08-17T05:20:39.645Z</time><hdop>3.0</hdop><vdop>2.5</vdop><extensions><gom:speed>0.085</gom:speed></extensions></trkpt>
   <trkpt lat="59.3280141682" lon="34.715363871"><ele>174.018</ele><time>2026-08-17T05:20:40.645Z</time><hdop>3.0</hdop><vdop>2.5</vdop><extensions><gom:speed>0.078</gom:speed></extensions></trkpt>
   <trkpt lat="59.3280140844" lon="34.715363871"><ele>173.841</ele><time>2026-08-17T05:20:41.112Z</time><hdop>3.0</hdop><vdop>2.5</vdop><extensions><gom:speed>0.079</gom:speed></extensions></trkpt>
   <trkpt lat="59.3280124918" lon="34.715363871"><ele>173.881</ele><time>2026-08-17T05:20:41.645Z</time><hdop>3.0</hdop><vdop>2.5</vdop><extensions><gom:speed>0.074</gom:speed></extensions></trkpt>
   <trkpt lat="59.3280110669" lon="34.7153631166"><ele>173.899</ele><time>2026-08-17T05:20:42.645Z</time><hdop>3.0</hdop><vdop>2.5</vdop><extensions><gom:speed>0.077</gom:speed></extensions></trkpt>
   <trkpt lat="59.3280094744" lon="34.7153625299"><ele>173.909</ele><time>2026-08-17T05:20:43.645Z</time><hdop>3.0</hdop><vdop>2.5</vdop><extensions><gom:speed>0.081</gom:speed></extensions></trkpt>
   <trkpt lat="59.3280088876" lon="34.7153622784"><ele>173.914</ele><time>2026-08-17T05:20:44.653Z</time><hdop>3.0</hdop><vdop>2.5</vdop><extensions><gom:speed>0.081</gom:speed></extensions></trkpt>
   <trkpt lat="59.3280065826" lon="34.715361524"><ele>173.915</ele><time>2026-08-17T05:20:45.645Z</time><hdop>3.0</hdop><vdop>2.5</vdop><extensions><gom:speed>0.083</gom:speed></extensions></trkpt>
   <trkpt lat="59.3280050739" lon="34.7153610211"><ele>173.918</ele><time>2026-08-17T05:20:46.645Z</time><hdop>3.0</hdop><vdop>2.5</vdop><extensions><gom:speed>0.083</gom:speed></extensions></trkpt>
   <trkpt lat="59.3280036908" lon="34.7153608535"><ele>173.922</ele><time>2026-08-17T05:20:47.644Z</time><hdop>3.0</hdop><vdop>2.5</vdop><extensions><gom:speed>0.084</gom:speed></extensions></trkpt>
   <trkpt lat="59.3280027688" lon="34.7153604344"><ele>173.926</ele><time>2026-08-17T05:20:48.646Z</time><hdop>3.0</hdop><vdop>2.5</vdop><extensions><gom:speed>0.082</gom:speed></extensions></trkpt>
   <trkpt lat="59.328001763" lon="34.7153603506"><ele>173.932</ele><time>2026-08-17T05:20:49.646Z</time><hdop>3.0</hdop><vdop>2.5</vdop><extensions><gom:speed>0.082</gom:speed></extensions></trkpt>
   <trkpt lat="59.3280007991" lon="34.7153605182"><ele>173.941</ele><time>2026-08-17T05:20:50.645Z</time><hdop>3.0</hdop><vdop>2.5</vdop><extensions><gom:speed>0.082</gom:speed></extensions></trkpt>
   <trkpt lat="59.3279998771" lon="34.7153610211"><ele>173.95</ele><time>2026-08-17T05:20:51.645Z</time><hdop>3.0</hdop><vdop>2.5</vdop><extensions><gom:speed>0.084</gom:speed></extensions></trkpt>
   <trkpt lat="59.3279995837" lon="34.715361524"><ele>173.959</ele><time>2026-08-17T05:20:52.645Z</time><hdop>3.0</hdop><vdop>2.5</vdop><extensions><gom:speed>0.084</gom:speed></extensions></trkpt>
   <trkpt lat="59.3279984941" lon="34.7153612726"><ele>173.968</ele><time>2026-08-17T05:20:53.645Z</time><hdop>3.0</hdop><vdop>2.5</vdop><extensions><gom:speed>0.086</gom:speed></extensions></trkpt>
   <trkpt lat="59.3279977816" lon="34.7153612726"><ele>173.972</ele><time>2026-08-17T05:20:54.645Z</time><hdop>3.0</hdop><vdop>2.5</vdop><extensions><gom:speed>0.087</gom:speed></extensions></trkpt>
   <trkpt lat="59.3279970691" lon="34.7153613564"><ele>173.978</ele><time>2026-08-17T05:20:55.644Z</time><hdop>3.0</hdop><vdop>2.5</vdop><extensions><gom:speed>0.086</gom:speed></extensions></trkpt>
   <trkpt lat="59.3279963986" lon="34.7153612726"><ele>173.98</ele><time>2026-08-17T05:20:56.645Z</time><hdop>3.0</hdop><vdop>2.5</vdop><extensions><gom:speed>0.085</gom:speed></extensions></trkpt>
   <trkpt lat="59.3279956861" lon="34.7153609373"><ele>173.979</ele><time>2026-08-17T05:20:57.645Z</time><hdop>3.0</hdop><vdop>2.5</vdop><extensions><gom:speed>0.081</gom:speed></extensions></trkpt>
   <trkpt lat="59.3279954766" lon="34.7153608535"><ele>173.978</ele><time>2026-08-17T05:20:58.513Z</time><hdop>3.0</hdop><vdop>2.5</vdop><extensions><gom:speed>0.081</gom:speed></extensions></trkpt>
   <trkpt lat="59.3279945965" lon="34.7153601829"><ele>173.976</ele><time>2026-08-17T05:20:59.645Z</time><hdop>3.0</hdop><vdop>2.5</vdop><extensions><gom:speed>0.082</gom:speed></extensions></trkpt>
   <trkpt lat="59.3279941774" lon="34.71535968"><ele>173.975</ele><time>2026-08-17T05:21:00.645Z</time><hdop>3.0</hdop><vdop>2.5</vdop><extensions><gom:speed>0.083</gom:speed></extensions></trkpt>
   <trkpt lat="59.3279936745" lon="34.7153594285"><ele>173.975</ele><time>2026-08-17T05:21:01.649Z</time><hdop>3.0</hdop><vdop>2.5</vdop><extensions><gom:speed>0.084</gom:speed></extensions></trkpt>
   <trkpt lat="59.3279932973" lon="34.7153589256"><ele>174.176</ele><time>2026-08-17T05:21:02.644Z</time><hdop>3.0</hdop><vdop>2.5</vdop><extensions><gom:speed>0.113</gom:speed></extensions></trkpt>
   <trkpt lat="59.3279930877" lon="34.7153595962"><ele>174.296</ele><time>2026-08-17T05:21:03.399Z</time><hdop>3.0</hdop><vdop>2.5</vdop><extensions><gom:speed>0.114</gom:speed></extensions></trkpt>
   <trkpt lat="59.3279928782" lon="34.7153606858"><ele>174.169</ele><time>2026-08-17T05:21:04.037Z</time><hdop>3.0</hdop><vdop>2.5</vdop><extensions><gom:speed>0.311</gom:speed></extensions></trkpt>
   <trkpt lat="59.3279927944" lon="34.715362446"><ele>174.118</ele><time>2026-08-17T05:21:04.644Z</time><hdop>3.0</hdop><vdop>2.5</vdop><extensions><gom:speed>0.234</gom:speed></extensions></trkpt>
   <trkpt lat="59.3279928782" lon="34.7153640386"><ele>174.334</ele><time>2026-08-17T05:21:05.645Z</time><hdop>3.0</hdop><vdop>2.625</vdop><extensions><gom:speed>0.102</gom:speed></extensions></trkpt>
   <trkpt lat="59.3279928782" lon="34.715364793"><ele>174.464</ele><time>2026-08-17T05:21:06.556Z</time><hdop>3.0</hdop><vdop>2.625</vdop><extensions><gom:speed>0.103</gom:speed></extensions></trkpt>
   <trkpt lat="59.3279951832" lon="34.7153743483"><ele>175.171</ele><time>2026-08-17T05:21:07.645Z</time><hdop>3.0</hdop><vdop>2.812</vdop><extensions><gom:speed>0.346</gom:speed></extensions></trkpt>
   <trkpt lat="59.3279974882" lon="34.7153822273"><ele>175.594</ele><time>2026-08-17T05:21:08.316Z</time><hdop>3.0</hdop><vdop>2.812</vdop><extensions><gom:speed>0.456</gom:speed></extensions></trkpt>
   <trkpt lat="59.3279992903" lon="34.7153913636"><ele>175.691</ele><time>2026-08-17T05:21:08.882Z</time><hdop>3.0</hdop><vdop>2.875</vdop><extensions><gom:speed>0.507</gom:speed></extensions></trkpt>
   <trkpt lat="59.3279997933" lon="34.7153970633"><ele>175.749</ele><time>2026-08-17T05:21:09.560Z</time><hdop>3.062</hdop><vdop>2.875</vdop><extensions><gom:speed>0.496</gom:speed></extensions></trkpt>
   <trkpt lat="59.3279983683" lon="34.7154138271"><ele>175.411</ele><time>2026-08-17T05:21:10.218Z</time><hdop>3.125</hdop><vdop>2.75</vdop><extensions><gom:speed>0.718</gom:speed></extensions></trkpt>
   <trkpt lat="59.327995267" lon="34.7154251427"><ele>174.82</ele><time>2026-08-17T05:21:10.774Z</time><hdop>3.25</hdop><vdop>2.687</vdop><extensions><gom:speed>0.748</gom:speed></extensions></trkpt>
   <trkpt lat="59.3279920819" lon="34.7154365421"><ele>174.466</ele><time>2026-08-17T05:21:11.523Z</time><hdop>3.25</hdop><vdop>2.687</vdop><extensions><gom:speed>0.744</gom:speed></extensions></trkpt>
   <trkpt lat="59.3279859631" lon="34.7154524677"><ele>174.032</ele><time>2026-08-17T05:21:12.160Z</time><hdop>3.375</hdop><vdop>2.687</vdop><extensions><gom:speed>0.816</gom:speed></extensions></trkpt>
   <trkpt lat="59.3279839934" lon="34.7154605981"><ele>173.858</ele><time>2026-08-17T05:21:12.692Z</time><hdop>3.5</hdop><vdop>2.75</vdop><extensions><gom:speed>0.807</gom:speed></extensions></trkpt>
   <trkpt lat="59.3279742704" lon="34.7154736739"><ele>173.753</ele><time>2026-08-17T05:21:13.577Z</time><hdop>3.625</hdop><vdop>2.75</vdop><extensions><gom:speed>0.817</gom:speed></extensions></trkpt>
   <trkpt lat="59.3279671876" lon="34.7154845704"><ele>173.932</ele><time>2026-08-17T05:21:14.214Z</time><hdop>3.687</hdop><vdop>2.812</vdop><extensions><gom:speed>0.802</gom:speed></extensions></trkpt>
   <trkpt lat="59.3279601888" lon="34.7155043517"><ele>174.183</ele><time>2026-08-17T05:21:15.095Z</time><hdop>3.625</hdop><vdop>2.875</vdop><extensions><gom:speed>0.84</gom:speed></extensions></trkpt>
   <trkpt lat="59.3279576742" lon="34.7155127336"><ele>174.312</ele><time>2026-08-17T05:21:15.650Z</time><hdop>3.562</hdop><vdop>3.125</vdop><extensions><gom:speed>0.841</gom:speed></extensions></trkpt>
   <trkpt lat="59.3279555787" lon="34.7155233786"><ele>174.389</ele><time>2026-08-17T05:21:16.278Z</time><hdop>3.5</hdop><vdop>3.125</vdop><extensions><gom:speed>0.679</gom:speed></extensions></trkpt>
   <trkpt lat="59.3279525612" lon="34.7155349456"><ele>174.446</ele><time>2026-08-17T05:21:17.077Z</time><hdop>3.375</hdop><vdop>3.437</vdop><extensions><gom:speed>0.633</gom:speed></extensions></trkpt>
   <trkpt lat="59.3279493761" lon="34.7155443333"><ele>174.082</ele><time>2026-08-17T05:21:17.644Z</time><hdop>3.312</hdop><vdop>3.312</vdop><extensions><gom:speed>0.612</gom:speed></extensions></trkpt>
   <trkpt lat="59.3279485798" lon="34.7155477699"><ele>173.865</ele><time>2026-08-17T05:21:18.099Z</time><hdop>3.187</hdop><vdop>3.312</vdop><extensions><gom:speed>0.466</gom:speed></extensions></trkpt>
   <trkpt lat="59.3279457719" lon="34.715561181"><ele>173.541</ele><time>2026-08-17T05:21:18.645Z</time><hdop>3.062</hdop><vdop>3.75</vdop><extensions><gom:speed>0.638</gom:speed></extensions></trkpt>
   <trkpt lat="59.3279445984" lon="34.7155680541"><ele>173.348</ele><time>2026-08-17T05:21:19.454Z</time><hdop>3.0</hdop><vdop>3.75</vdop><extensions><gom:speed>0.447</gom:speed></extensions></trkpt>
   <trkpt lat="59.3279426706" lon="34.7155816328"><ele>173.36</ele><time>2026-08-17T05:21:20.436Z</time><hdop>3.0</hdop><vdop>4.062</vdop><extensions><gom:speed>0.394</gom:speed></extensions></trkpt>
   <trkpt lat="59.3279417905" lon="34.7155911882"><ele>173.077</ele><time>2026-08-17T05:21:21.397Z</time><hdop>3.0</hdop><vdop>4.25</vdop><extensions><gom:speed>0.354</gom:speed></extensions></trkpt>
   <trkpt lat="59.3279409942" lon="34.7156023361"><ele>173.603</ele><time>2026-08-17T05:21:22.317Z</time><hdop>3.0</hdop><vdop>4.312</vdop><extensions><gom:speed>0.335</gom:speed></extensions></trkpt>
   <trkpt lat="59.3279416648" lon="34.715609796"><ele>173.718</ele><time>2026-08-17T05:21:23.562Z</time><hdop>3.0</hdop><vdop>4.562</vdop><extensions><gom:speed>0.249</gom:speed></extensions></trkpt>
   <trkpt lat="59.3279422934" lon="34.7156191837"><ele>173.692</ele><time>2026-08-17T05:21:24.280Z</time><hdop>3.0</hdop><vdop>4.062</vdop><extensions><gom:speed>0.279</gom:speed></extensions></trkpt>
   <trkpt lat="59.3279420838" lon="34.7156358637"><ele>173.307</ele><time>2026-08-17T05:21:25.160Z</time><hdop>3.0</hdop><vdop>3.812</vdop><extensions><gom:speed>0.288</gom:speed></extensions></trkpt>
   <trkpt lat="59.3279408685" lon="34.7156466764"><ele>173.078</ele><time>2026-08-17T05:21:25.645Z</time><hdop>3.0</hdop><vdop>3.75</vdop><extensions><gom:speed>0.266</gom:speed></extensions></trkpt>
   <trkpt lat="59.3279404913" lon="34.7156527952"><ele>172.941</ele><time>2026-08-17T05:21:26.536Z</time><hdop>3.0</hdop><vdop>3.75</vdop><extensions><gom:speed>0.267</gom:speed></extensions></trkpt>
   <trkpt lat="59.3279384796" lon="34.7156736661"><ele>173.047</ele><time>2026-08-17T05:21:27.376Z</time><hdop>3.0</hdop><vdop>3.375</vdop><extensions><gom:speed>0.352</gom:speed></extensions></trkpt>
   <trkpt lat="59.3279361746" lon="34.7156900946"><ele>173.107</ele><time>2026-08-17T05:21:28.074Z</time><hdop>3.0</hdop><vdop>3.312</vdop><extensions><gom:speed>0.294</gom:speed></extensions></trkpt>
   <trkpt lat="59.3279333667" lon="34.7157059364"><ele>173.259</ele><time>2026-08-17T05:21:28.646Z</time><hdop>3.0</hdop><vdop>3.25</vdop><extensions><gom:speed>0.464</gom:speed></extensions></trkpt>
   <trkpt lat="59.3279319837" lon="34.7157109656"><ele>173.35</ele><time>2026-08-17T05:21:29.237Z</time><hdop>3.0</hdop><vdop>3.25</vdop><extensions><gom:speed>0.345</gom:speed></extensions></trkpt>
   <trkpt lat="59.3279289662" lon="34.7157229517"><ele>173.236</ele><time>2026-08-17T05:21:29.915Z</time><hdop>3.0</hdop><vdop>3.187</vdop><extensions><gom:speed>0.282</gom:speed></extensions></trkpt>
   <trkpt lat="59.3279250686" lon="34.7157347702"><ele>173.198</ele><time>2026-08-17T05:21:30.645Z</time><hdop>3.0</hdop><vdop>3.25</vdop><extensions><gom:speed>0.421</gom:speed></extensions></trkpt>
   <trkpt lat="59.3279240628" lon="34.7157401346"><ele>172.824</ele><time>2026-08-17T05:21:31.655Z</time><hdop>3.0</hdop><vdop>3.125</vdop><extensions><gom:speed>0.311</gom:speed></extensions></trkpt>
   <trkpt lat="59.3279187822" lon="34.7157516178"><ele>172.482</ele><time>2026-08-17T05:21:32.645Z</time><hdop>3.0</hdop><vdop>3.25</vdop><extensions><gom:speed>0.247</gom:speed></extensions></trkpt>
   <trkpt lat="59.327916561" lon="34.7157538809"><ele>171.975</ele><time>2026-08-17T05:21:33.645Z</time><hdop>3.0</hdop><vdop>3.25</vdop><extensions><gom:speed>0.146</gom:speed></extensions></trkpt>
   <trkpt lat="59.3279156809" lon="34.7157543838"><ele>171.71</ele><time>2026-08-17T05:21:34.650Z</time><hdop>3.0</hdop><vdop>3.312</vdop><extensions><gom:speed>0.142</gom:speed></extensions></trkpt>
   <trkpt lat="59.3279104841" lon="34.7157606703"><ele>171.582</ele><time>2026-08-17T05:21:35.645Z</time><hdop>3.0</hdop><vdop>3.312</vdop><extensions><gom:speed>0.172</gom:speed></extensions></trkpt>
   <trkpt lat="59.3279095621" lon="34.7157615923"><ele>171.505</ele><time>2026-08-17T05:21:36.259Z</time><hdop>3.0</hdop><vdop>3.312</vdop><extensions><gom:speed>0.141</gom:speed></extensions></trkpt>
   <trkpt lat="59.3279051616" lon="34.7157661185"><ele>171.785</ele><time>2026-08-17T05:21:37.077Z</time><hdop>3.0</hdop><vdop>3.687</vdop><extensions><gom:speed>0.12</gom:speed></extensions></trkpt>
   <trkpt lat="59.3279020603" lon="34.7157697227"><ele>171.994</ele><time>2026-08-17T05:21:37.645Z</time><hdop>3.0</hdop><vdop>3.812</vdop><extensions><gom:speed>0.165</gom:speed></extensions></trkpt>
   <trkpt lat="59.3279008868" lon="34.7157702256"><ele>172.12</ele><time>2026-08-17T05:21:38.423Z</time><hdop>3.0</hdop><vdop>3.812</vdop><extensions><gom:speed>0.108</gom:speed></extensions></trkpt>
   <trkpt lat="59.327898498" lon="34.7157726564"><ele>171.736</ele><time>2026-08-17T05:21:39.202Z</time><hdop>3.0</hdop><vdop>4.0</vdop><extensions><gom:speed>0.106</gom:speed></extensions></trkpt>
   <trkpt lat="59.3278932593" lon="34.7157773502"><ele>171.979</ele><time>2026-08-17T05:21:40.082Z</time><hdop>3.0</hdop><vdop>3.75</vdop><extensions><gom:speed>0.1</gom:speed></extensions></trkpt>
   <trkpt lat="59.327889194" lon="34.7157815412"><ele>172.283</ele><time>2026-08-17T05:21:40.645Z</time><hdop>3.0</hdop><vdop>3.625</vdop><extensions><gom:speed>0.123</gom:speed></extensions></trkpt>
   <trkpt lat="59.3278880625" lon="34.7157826308"><ele>172.466</ele><time>2026-08-17T05:21:41.154Z</time><hdop>3.0</hdop><vdop>3.625</vdop><extensions><gom:speed>0.116</gom:speed></extensions></trkpt>
   <trkpt lat="59.3278873919" lon="34.7157832176"><ele>173.024</ele><time>2026-08-17T05:21:41.650Z</time><hdop>3.0</hdop><vdop>3.625</vdop><extensions><gom:speed>0.116</gom:speed></extensions></trkpt>
   <trkpt lat="59.3278835782" lon="34.7157891687"><ele>173.357</ele><time>2026-08-17T05:21:42.601Z</time><hdop>3.0</hdop><vdop>3.625</vdop><extensions><gom:speed>0.157</gom:speed></extensions></trkpt>
   <trkpt lat="59.3278765793" lon="34.7158025798"><ele>173.49</ele><time>2026-08-17T05:21:43.645Z</time><hdop>3.0</hdop><vdop>4.312</vdop><extensions><gom:speed>0.188</gom:speed></extensions></trkpt>
   <trkpt lat="59.3278758668" lon="34.7158035856"><ele>173.569</ele><time>2026-08-17T05:21:44.716Z</time><hdop>3.0</hdop><vdop>4.312</vdop><extensions><gom:speed>0.114</gom:speed></extensions></trkpt>
   <trkpt lat="59.3278714663" lon="34.715814985"><ele>173.939</ele><time>2026-08-17T05:21:45.535Z</time><hdop>3.0</hdop><vdop>4.062</vdop><extensions><gom:speed>0.207</gom:speed></extensions></trkpt>
   <trkpt lat="59.3278671915" lon="34.715829318"><ele>173.951</ele><time>2026-08-17T05:21:46.557Z</time><hdop>3.0</hdop><vdop>3.75</vdop><extensions><gom:speed>0.209</gom:speed></extensions></trkpt>
   <trkpt lat="59.3278643836" lon="34.7158412203"><ele>174.128</ele><time>2026-08-17T05:21:47.396Z</time><hdop>3.0</hdop><vdop>3.687</vdop><extensions><gom:speed>0.198</gom:speed></extensions></trkpt>
   <trkpt lat="59.3278619948" lon="34.7158508595"><ele>174.116</ele><time>2026-08-17T05:21:48.074Z</time><hdop>3.0</hdop><vdop>4.0</vdop><extensions><gom:speed>0.178</gom:speed></extensions></trkpt>
   <trkpt lat="59.3278591868" lon="34.7158579841"><ele>174.093</ele><time>2026-08-17T05:21:48.645Z</time><hdop>3.0</hdop><vdop>4.312</vdop><extensions><gom:speed>0.262</gom:speed></extensions></trkpt>
   <trkpt lat="59.3278582648" lon="34.7158594929"><ele>174.08</ele><time>2026-08-17T05:21:49.096Z</time><hdop>3.0</hdop><vdop>4.312</vdop><extensions><gom:speed>0.217</gom:speed></extensions></trkpt>
   <trkpt lat="59.3278552892" lon="34.7158660308"><ele>174.019</ele><time>2026-08-17T05:21:49.645Z</time><hdop>3.0</hdop><vdop>4.437</vdop><extensions><gom:speed>0.277</gom:speed></extensions></trkpt>
   <trkpt lat="59.3278545768" lon="34.7158681263"><ele>173.984</ele><time>2026-08-17T05:21:50.158Z</time><hdop>3.0</hdop><vdop>4.437</vdop><extensions><gom:speed>0.196</gom:speed></extensions></trkpt>
   <trkpt lat="59.3278521879" lon="34.7158732392"><ele>173.913</ele><time>2026-08-17T05:21:50.644Z</time><hdop>3.0</hdop><vdop>4.687</vdop><extensions><gom:speed>0.225</gom:speed></extensions></trkpt>
   <trkpt lat="59.327851685" lon="34.7158751671"><ele>173.871</ele><time>2026-08-17T05:21:51.220Z</time><hdop>3.0</hdop><vdop>4.687</vdop><extensions><gom:speed>0.172</gom:speed></extensions></trkpt>
   <trkpt lat="59.3278485837" lon="34.7158824593"><ele>173.728</ele><time>2026-08-17T05:21:52.455Z</time><hdop>3.0</hdop><vdop>4.812</vdop><extensions><gom:speed>0.179</gom:speed></extensions></trkpt>
   <trkpt lat="59.3278460691" lon="34.715889081"><ele>173.478</ele><time>2026-08-17T05:21:53.062Z</time><hdop>3.0</hdop><vdop>5.062</vdop><extensions><gom:speed>0.192</gom:speed></extensions></trkpt>
   <trkpt lat="59.3278414591" lon="34.7158972953"><ele>173.438</ele><time>2026-08-17T05:21:53.645Z</time><hdop>3.0</hdop><vdop>4.437</vdop><extensions><gom:speed>0.239</gom:speed></extensions></trkpt>
   <trkpt lat="59.3278348793" lon="34.7159072697"><ele>173.506</ele><time>2026-08-17T05:21:54.645Z</time><hdop>3.0</hdop><vdop>4.5</vdop><extensions><gom:speed>0.317</gom:speed></extensions></trkpt>
   <trkpt lat="59.3278319876" lon="34.7159093652"><ele>173.546</ele><time>2026-08-17T05:21:55.561Z</time><hdop>3.0</hdop><vdop>4.5</vdop><extensions><gom:speed>0.283</gom:speed></extensions></trkpt>
   <trkpt lat="59.3278240667" lon="34.7159157355"><ele>173.381</ele><time>2026-08-17T05:21:56.602Z</time><hdop>3.0</hdop><vdop>4.437</vdop><extensions><gom:speed>0.351</gom:speed></extensions></trkpt>
   <trkpt lat="59.327814176" lon="34.7159143944"><ele>173.039</ele><time>2026-08-17T05:21:57.645Z</time><hdop>3.0</hdop><vdop>4.125</vdop><extensions><gom:speed>0.285</gom:speed></extensions></trkpt>
   <trkpt lat="59.3278134635" lon="34.7159129694"><ele>172.859</ele><time>2026-08-17T05:21:58.692Z</time><hdop>3.0</hdop><vdop>4.0</vdop><extensions><gom:speed>0.168</gom:speed></extensions></trkpt>
   <trkpt lat="59.327810488" lon="34.7159055934"><ele>172.767</ele><time>2026-08-17T05:21:59.645Z</time><hdop>3.0</hdop><vdop>3.625</vdop><extensions><gom:speed>0.156</gom:speed></extensions></trkpt>
   <trkpt lat="59.3278091888" lon="34.7159010671"><ele>172.711</ele><time>2026-08-17T05:22:00.645Z</time><hdop>3.0</hdop><vdop>3.625</vdop><extensions><gom:speed>0.099</gom:speed></extensions></trkpt>
   <trkpt lat="59.3278088954" lon="34.7158991393"><ele>172.685</ele><time>2026-08-17T05:22:01.661Z</time><hdop>3.0</hdop><vdop>3.562</vdop><extensions><gom:speed>0.105</gom:speed></extensions></trkpt>
   <trkpt lat="59.3278081829" lon="34.7158945292"><ele>172.666</ele><time>2026-08-17T05:22:02.644Z</time><hdop>3.0</hdop><vdop>3.562</vdop><extensions><gom:speed>0.067</gom:speed></extensions></trkpt>
   <trkpt lat="59.3278075962" lon="34.7158916794"><ele>172.656</ele><time>2026-08-17T05:22:03.645Z</time><hdop>3.0</hdop><vdop>3.375</vdop><extensions><gom:speed>0.069</gom:speed></extensions></trkpt>
   <trkpt lat="59.3278069676" lon="34.715889081"><ele>172.654</ele><time>2026-08-17T05:22:04.646Z</time><hdop>3.0</hdop><vdop>3.25</vdop><extensions><gom:speed>0.066</gom:speed></extensions></trkpt>
   <trkpt lat="59.3278061713" lon="34.7158882428"><ele>172.656</ele><time>2026-08-17T05:22:05.644Z</time><hdop>3.0</hdop><vdop>3.187</vdop><extensions><gom:speed>0.065</gom:speed></extensions></trkpt>
   <trkpt lat="59.3278055846" lon="34.7158871532"><ele>172.654</ele><time>2026-08-17T05:22:06.644Z</time><hdop>3.0</hdop><vdop>3.187</vdop><extensions><gom:speed>0.059</gom:speed></extensions></trkpt>
   <trkpt lat="59.3278050816" lon="34.7158863988"><ele>172.652</ele><time>2026-08-17T05:22:07.645Z</time><hdop>3.0</hdop><vdop>3.125</vdop><extensions><gom:speed>0.058</gom:speed></extensions></trkpt>
   <trkpt lat="59.3278047883" lon="34.7158858959"><ele>172.766</ele><time>2026-08-17T05:22:08.644Z</time><hdop>3.0</hdop><vdop>2.812</vdop><extensions><gom:speed>0.077</gom:speed></extensions></trkpt>
   <trkpt lat="59.3278050816" lon="34.7158855606"><ele>172.834</ele><time>2026-08-17T05:22:09.137Z</time><hdop>3.0</hdop><vdop>2.812</vdop><extensions><gom:speed>0.013</gom:speed></extensions></trkpt>
   <trkpt lat="59.3278042854" lon="34.7158854768"><ele>173.264</ele><time>2026-08-17T05:22:09.645Z</time><hdop>3.0</hdop><vdop>2.875</vdop><extensions><gom:speed>0.062</gom:speed></extensions></trkpt>
   <trkpt lat="59.3278036986" lon="34.7158851415"><ele>173.521</ele><time>2026-08-17T05:22:10.260Z</time><hdop>3.0</hdop><vdop>2.875</vdop><extensions><gom:speed>0.073</gom:speed></extensions></trkpt>
   <trkpt lat="59.3278018965" lon="34.7158864826"><ele>173.702</ele><time>2026-08-17T05:22:11.364Z</time><hdop>3.0</hdop><vdop>2.937</vdop><extensions><gom:speed>0.11</gom:speed></extensions></trkpt>
   <trkpt lat="59.3277998849" lon="34.7158879914"><ele>173.671</ele><time>2026-08-17T05:22:12.668Z</time><hdop>3.0</hdop><vdop>2.937</vdop><extensions><gom:speed>0.135</gom:speed></extensions></trkpt>
   <trkpt lat="59.3277970769" lon="34.7158902545"><ele>173.542</ele><time>2026-08-17T05:22:13.645Z</time><hdop>3.0</hdop><vdop>3.0</vdop><extensions><gom:speed>0.115</gom:speed></extensions></trkpt>
   <trkpt lat="59.3277958615" lon="34.715890925"><ele>173.465</ele><time>2026-08-17T05:22:14.418Z</time><hdop>3.0</hdop><vdop>3.0</vdop><extensions><gom:speed>0.144</gom:speed></extensions></trkpt>
   <trkpt lat="59.3277916706" lon="34.715892769"><ele>173.687</ele><time>2026-08-17T05:22:15.645Z</time><hdop>3.0</hdop><vdop>2.75</vdop><extensions><gom:speed>0.114</gom:speed></extensions></trkpt>
   <trkpt lat="59.3277889884" lon="34.7158934396"><ele>173.799</ele><time>2026-08-17T05:22:16.645Z</time><hdop>3.0</hdop><vdop>2.687</vdop><extensions><gom:speed>0.163</gom:speed></extensions></trkpt>
   <trkpt lat="59.3277850908" lon="34.7158938587"><ele>173.645</ele><time>2026-08-17T05:22:17.645Z</time><hdop>3.0</hdop><vdop>2.75</vdop><extensions><gom:speed>0.214</gom:speed></extensions></trkpt>
   <trkpt lat="59.3277811932" lon="34.7158939425"><ele>173.312</ele><time>2026-08-17T05:22:18.645Z</time><hdop>3.0</hdop><vdop>2.75</vdop><extensions><gom:speed>0.222</gom:speed></extensions></trkpt>
   <trkpt lat="59.3277773795" lon="34.715892769"><ele>173.386</ele><time>2026-08-17T05:22:19.645Z</time><hdop>3.0</hdop><vdop>2.625</vdop><extensions><gom:speed>0.213</gom:speed></extensions></trkpt>
   <trkpt lat="59.3277755773" lon="34.7158912603"><ele>173.431</ele><time>2026-08-17T05:22:20.397Z</time><hdop>3.0</hdop><vdop>2.625</vdop><extensions><gom:speed>0.203</gom:speed></extensions></trkpt>
   <trkpt lat="59.3277704644" lon="34.7158868179"><ele>173.686</ele><time>2026-08-17T05:22:21.196Z</time><hdop>3.0</hdop><vdop>2.812</vdop><extensions><gom:speed>0.215</gom:speed></extensions></trkpt>
   <trkpt lat="59.3277694586" lon="34.7158859797"><ele>173.735</ele><time>2026-08-17T05:22:21.651Z</time><hdop>3.0</hdop><vdop>3.0</vdop><extensions><gom:speed>0.214</gom:speed></extensions></trkpt>
   <trkpt lat="59.3277546645" lon="34.7158667851"><ele>174.555</ele><time>2026-08-17T05:22:22.645Z</time><hdop>3.0</hdop><vdop>3.0</vdop><extensions><gom:speed>0.454</gom:speed></extensions></trkpt>
   <trkpt lat="59.3277454863" lon="34.7158539608"><ele>175.2</ele><time>2026-08-17T05:22:23.645Z</time><hdop>3.0</hdop><vdop>3.0</vdop><extensions><gom:speed>0.335</gom:speed></extensions></trkpt>
   <trkpt lat="59.3277426784" lon="34.7158490993"><ele>175.585</ele><time>2026-08-17T05:22:24.495Z</time><hdop>3.0</hdop><vdop>3.0</vdop><extensions><gom:speed>0.284</gom:speed></extensions></trkpt>
   <trkpt lat="59.3277363919" lon="34.7158351854"><ele>175.801</ele><time>2026-08-17T05:22:25.354Z</time><hdop>3.0</hdop><vdop>3.062</vdop><extensions><gom:speed>0.403</gom:speed></extensions></trkpt>
   <trkpt lat="59.3277301893" lon="34.7158193436"><ele>175.915</ele><time>2026-08-17T05:22:26.143Z</time><hdop>3.0</hdop><vdop>3.5</vdop><extensions><gom:speed>0.459</gom:speed></extensions></trkpt>
   <trkpt lat="59.3277253697" lon="34.7158042561"><ele>175.908</ele><time>2026-08-17T05:22:26.645Z</time><hdop>3.0</hdop><vdop>3.812</vdop><extensions><gom:speed>0.591</gom:speed></extensions></trkpt>
   <trkpt lat="59.3277233581" lon="34.7157951199"><ele>175.839</ele><time>2026-08-17T05:22:27.692Z</time><hdop>3.0</hdop><vdop>3.812</vdop><extensions><gom:speed>0.387</gom:speed></extensions></trkpt>
   <trkpt lat="59.3277178679" lon="34.7157685492"><ele>175.705</ele><time>2026-08-17T05:22:28.645Z</time><hdop>3.0</hdop><vdop>4.0</vdop><extensions><gom:speed>0.579</gom:speed></extensions></trkpt>
   <trkpt lat="59.3277158982" lon="34.715757066"><ele>175.625</ele><time>2026-08-17T05:22:29.653Z</time><hdop>3.0</hdop><vdop>4.0</vdop><extensions><gom:speed>0.452</gom:speed></extensions></trkpt>
   <trkpt lat="59.3277110786" lon="34.7157389611"><ele>176.033</ele><time>2026-08-17T05:22:30.645Z</time><hdop>3.0</hdop><vdop>3.625</vdop><extensions><gom:speed>0.559</gom:speed></extensions></trkpt>
   <trkpt lat="59.3277095699" lon="34.7157326747"><ele>176.277</ele><time>2026-08-17T05:22:31.414Z</time><hdop>3.0</hdop><vdop>3.625</vdop><extensions><gom:speed>0.407</gom:speed></extensions></trkpt>
   <trkpt lat="59.3277053789" lon="34.7157262206"><ele>176.417</ele><time>2026-08-17T05:22:32.142Z</time><hdop>3.0</hdop><vdop>3.25</vdop><extensions><gom:speed>0.365</gom:speed></extensions></trkpt>
   <trkpt lat="59.3277009784" lon="34.7157194313"><ele>176.875</ele><time>2026-08-17T05:22:32.644Z</time><hdop>3.0</hdop><vdop>3.312</vdop><extensions><gom:speed>0.457</gom:speed></extensions></trkpt>
   <trkpt lat="59.3276991763" lon="34.7157156594"><ele>176.869</ele><time>2026-08-17T05:22:33.649Z</time><hdop>3.0</hdop><vdop>3.0</vdop><extensions><gom:speed>0.297</gom:speed></extensions></trkpt>
   <trkpt lat="59.3276932671" lon="34.7157069423"><ele>176.615</ele><time>2026-08-17T05:22:34.661Z</time><hdop>3.0</hdop><vdop>2.937</vdop><extensions><gom:speed>0.242</gom:speed></extensions></trkpt>
   <trkpt lat="59.327682161" lon="34.7156928607"><ele>176.505</ele><time>2026-08-17T05:22:35.645Z</time><hdop>3.0</hdop><vdop>3.0</vdop><extensions><gom:speed>0.307</gom:speed></extensions></trkpt>
   <trkpt lat="59.3276777605" lon="34.7156900946"><ele>176.356</ele><time>2026-08-17T05:22:36.645Z</time><hdop>3.0</hdop><vdop>3.0</vdop><extensions><gom:speed>0.154</gom:speed></extensions></trkpt>
   <trkpt lat="59.32767709" lon="34.7156906814"><ele>176.267</ele><time>2026-08-17T05:22:37.160Z</time><hdop>3.0</hdop><vdop>3.0</vdop><extensions><gom:speed>0.1</gom:speed></extensions></trkpt>
   <trkpt lat="59.3276754974" lon="34.7156909328"><ele>176.188</ele><time>2026-08-17T05:22:37.645Z</time><hdop>3.0</hdop><vdop>3.0</vdop><extensions><gom:speed>0.16</gom:speed></extensions></trkpt>
   <trkpt lat="59.3276746592" lon="34.715690849"><ele>176.142</ele><time>2026-08-17T05:22:38.161Z</time><hdop>3.0</hdop><vdop>3.0</vdop><extensions><gom:speed>0.079</gom:speed></extensions></trkpt>
   <trkpt lat="59.327674282" lon="34.7156905975"><ele>176.114</ele><time>2026-08-17T05:22:38.698Z</time><hdop>3.0</hdop><vdop>3.0</vdop><extensions><gom:speed>0.116</gom:speed></extensions></trkpt>
   <trkpt lat="59.3276736953" lon="34.7156936988"><ele>175.927</ele><time>2026-08-17T05:22:39.194Z</time><hdop>3.0</hdop><vdop>3.125</vdop><extensions><gom:speed>0.126</gom:speed></extensions></trkpt>
   <trkpt lat="59.3276731924" lon="34.7156941179"><ele>175.815</ele><time>2026-08-17T05:22:39.660Z</time><hdop>3.0</hdop><vdop>3.125</vdop><extensions><gom:speed>0.127</gom:speed></extensions></trkpt>
   <trkpt lat="59.3276724799" lon="34.7156976383"><ele>175.764</ele><time>2026-08-17T05:22:40.640Z</time><hdop>3.0</hdop><vdop>2.875</vdop><extensions><gom:speed>0.152</gom:speed></extensions></trkpt>
   <trkpt lat="59.3276725638" lon="34.7157101274"><ele>175.71</ele><time>2026-08-17T05:22:41.644Z</time><hdop>3.0</hdop><vdop>2.625</vdop><extensions><gom:speed>0.131</gom:speed></extensions></trkpt>
   <trkpt lat="59.3276718932" lon="34.7157159947"><ele>175.679</ele><time>2026-08-17T05:22:42.644Z</time><hdop>3.0</hdop><vdop>2.562</vdop><extensions><gom:speed>0.113</gom:speed></extensions></trkpt>
   <trkpt lat="59.3276715998" lon="34.7157173358"><ele>175.661</ele><time>2026-08-17T05:22:43.098Z</time><hdop>3.0</hdop><vdop>2.562</vdop><extensions><gom:speed>0.061</gom:speed></extensions></trkpt>
   <trkpt lat="59.3276710969" lon="34.7157210239"><ele>175.613</ele><time>2026-08-17T05:22:43.644Z</time><hdop>3.0</hdop><vdop>2.687</vdop><extensions><gom:speed>0.121</gom:speed></extensions></trkpt>
   <trkpt lat="59.3276707616" lon="34.7157205209"><ele>175.585</ele><time>2026-08-17T05:22:44.434Z</time><hdop>3.0</hdop><vdop>2.687</vdop><extensions><gom:speed>0.111</gom:speed></extensions></trkpt>
   <trkpt lat="59.3276700911" lon="34.7157230355"><ele>175.603</ele><time>2026-08-17T05:22:45.435Z</time><hdop>3.0</hdop><vdop>3.0</vdop><extensions><gom:speed>0.134</gom:speed></extensions></trkpt>
   <trkpt lat="59.3276699654" lon="34.715728819"><ele>175.583</ele><time>2026-08-17T05:22:46.174Z</time><hdop>3.0</hdop><vdop>2.687</vdop><extensions><gom:speed>0.115</gom:speed></extensions></trkpt>
   <trkpt lat="59.3276689595" lon="34.7157289867"><ele>175.878</ele><time>2026-08-17T05:22:46.645Z</time><hdop>3.0</hdop><vdop>2.562</vdop><extensions><gom:speed>0.197</gom:speed></extensions></trkpt>
   <trkpt lat="59.3276683728" lon="34.7157276456"><ele>176.054</ele><time>2026-08-17T05:22:47.196Z</time><hdop>3.0</hdop><vdop>2.562</vdop><extensions><gom:speed>0.224</gom:speed></extensions></trkpt>
   <trkpt lat="59.327665481" lon="34.7157270588"><ele>176.509</ele><time>2026-08-17T05:22:48.645Z</time><hdop>3.0</hdop><vdop>2.937</vdop><extensions><gom:speed>0.228</gom:speed></extensions></trkpt>
   <trkpt lat="59.3276642657" lon="34.7157254663"><ele>176.781</ele><time>2026-08-17T05:22:49.178Z</time><hdop>3.0</hdop><vdop>2.937</vdop><extensions><gom:speed>0.216</gom:speed></extensions></trkpt>
   <trkpt lat="59.3276642657" lon="34.7157259692"><ele>177.077</ele><time>2026-08-17T05:22:49.692Z</time><hdop>3.0</hdop><vdop>3.0</vdop><extensions><gom:speed>0.162</gom:speed></extensions></trkpt>
   <trkpt lat="59.3276628827" lon="34.7157264721"><ele>177.254</ele><time>2026-08-17T05:22:50.646Z</time><hdop>3.0</hdop><vdop>3.0</vdop><extensions><gom:speed>0.172</gom:speed></extensions></trkpt>
   <trkpt lat="59.3276606614" lon="34.7157283999"><ele>177.878</ele><time>2026-08-17T05:22:51.596Z</time><hdop>3.0</hdop><vdop>2.812</vdop><extensions><gom:speed>0.147</gom:speed></extensions></trkpt>
   <trkpt lat="59.3276579792" lon="34.7157367818"><ele>178.15</ele><time>2026-08-17T05:22:52.645Z</time><hdop>3.0</hdop><vdop>2.625</vdop><extensions><gom:speed>0.137</gom:speed></extensions></trkpt>
   <trkpt lat="59.3276560933" lon="34.7157426492"><ele>177.958</ele><time>2026-08-17T05:22:53.644Z</time><hdop>3.0</hdop><vdop>2.687</vdop><extensions><gom:speed>0.131</gom:speed></extensions></trkpt>
   <trkpt lat="59.3276549618" lon="34.715743655"><ele>177.843</ele><time>2026-08-17T05:22:54.642Z</time><hdop>3.0</hdop><vdop>2.687</vdop><extensions><gom:speed>0.146</gom:speed></extensions></trkpt>
   <trkpt lat="59.3276519862" lon="34.7157513663"><ele>177.485</ele><time>2026-08-17T05:22:55.645Z</time><hdop>3.0</hdop><vdop>3.0</vdop><extensions><gom:speed>0.112</gom:speed></extensions></trkpt>
   <trkpt lat="59.3276508965" lon="34.7157541324"><ele>177.271</ele><time>2026-08-17T05:22:56.553Z</time><hdop>3.0</hdop><vdop>3.0</vdop><extensions><gom:speed>0.107</gom:speed></extensions></trkpt>
   <trkpt lat="59.3276486753" lon="34.7157596644"><ele>177.184</ele><time>2026-08-17T05:22:57.494Z</time><hdop>3.0</hdop><vdop>3.062</vdop><extensions><gom:speed>0.131</gom:speed></extensions></trkpt>
   <trkpt lat="59.3276461608" lon="34.7157666214"><ele>177.073</ele><time>2026-08-17T05:22:58.658Z</time><hdop>3.0</hdop><vdop>2.937</vdop><extensions><gom:speed>0.177</gom:speed></extensions></trkpt>
   <trkpt lat="59.3276443586" lon="34.7157753386"><ele>177.032</ele><time>2026-08-17T05:22:59.457Z</time><hdop>3.0</hdop><vdop>3.062</vdop><extensions><gom:speed>0.175</gom:speed></extensions></trkpt>
   <trkpt lat="59.3276414669" lon="34.7157873247"><ele>176.786</ele><time>2026-08-17T05:23:00.094Z</time><hdop>3.0</hdop><vdop>3.25</vdop><extensions><gom:speed>0.2</gom:speed></extensions></trkpt>
   <trkpt lat="59.3276393714" lon="34.7157967963"><ele>176.047</ele><time>2026-08-17T05:23:00.645Z</time><hdop>3.0</hdop><vdop>3.0</vdop><extensions><gom:speed>0.175</gom:speed></extensions></trkpt>
   <trkpt lat="59.3276365635" lon="34.715810794"><ele>175.363</ele><time>2026-08-17T05:23:01.645Z</time><hdop>3.0</hdop><vdop>3.062</vdop><extensions><gom:speed>0.222</gom:speed></extensions></trkpt>
   <trkpt lat="59.3276358929" lon="34.7158147335"><ele>174.955</ele><time>2026-08-17T05:23:02.583Z</time><hdop>3.0</hdop><vdop>3.062</vdop><extensions><gom:speed>0.17</gom:speed></extensions></trkpt>
   <trkpt lat="59.3276339651" lon="34.7158275578"><ele>174.661</ele><time>2026-08-17T05:23:03.321Z</time><hdop>3.0</hdop><vdop>2.875</vdop><extensions><gom:speed>0.167</gom:speed></extensions></trkpt>
   <trkpt lat="59.3276323725" lon="34.7158388734"><ele>174.289</ele><time>2026-08-17T05:23:04.060Z</time><hdop>3.0</hdop><vdop>2.812</vdop><extensions><gom:speed>0.167</gom:speed></extensions></trkpt>
   <trkpt lat="59.3276319953" lon="34.7158392925"><ele>174.093</ele><time>2026-08-17T05:23:04.692Z</time><hdop>3.0</hdop><vdop>2.875</vdop><extensions><gom:speed>0.119</gom:speed></extensions></trkpt>
   <trkpt lat="59.3276300675" lon="34.7158490993"><ele>173.976</ele><time>2026-08-17T05:23:05.557Z</time><hdop>3.0</hdop><vdop>2.875</vdop><extensions><gom:speed>0.183</gom:speed></extensions></trkpt>
   <trkpt lat="59.3276281816" lon="34.7158544637"><ele>173.697</ele><time>2026-08-17T05:23:06.336Z</time><hdop>3.0</hdop><vdop>2.812</vdop><extensions><gom:speed>0.2</gom:speed></extensions></trkpt>
   <trkpt lat="59.3276258766" lon="34.7158632647"><ele>173.502</ele><time>2026-08-17T05:23:07.135Z</time><hdop>3.0</hdop><vdop>2.687</vdop><extensions><gom:speed>0.189</gom:speed></extensions></trkpt>
   <trkpt lat="59.3276250803" lon="34.7158695512"><ele>173.316</ele><time>2026-08-17T05:23:07.646Z</time><hdop>3.0</hdop><vdop>2.687</vdop><extensions><gom:speed>0.193</gom:speed></extensions></trkpt>
   <trkpt lat="59.3276251641" lon="34.7158805315"><ele>173.279</ele><time>2026-08-17T05:23:08.645Z</time><hdop>3.0</hdop><vdop>2.5</vdop><extensions><gom:speed>0.113</gom:speed></extensions></trkpt>
   <trkpt lat="59.3276252898" lon="34.7158943616"><ele>173.402</ele><time>2026-08-17T05:23:09.645Z</time><hdop>3.0</hdop><vdop>2.562</vdop><extensions><gom:speed>0.159</gom:speed></extensions></trkpt>
   <trkpt lat="59.3276252898" lon="34.7159093652"><ele>173.353</ele><time>2026-08-17T05:23:10.645Z</time><hdop>3.0</hdop><vdop>2.812</vdop><extensions><gom:speed>0.189</gom:speed></extensions></trkpt>
   <trkpt lat="59.3276249965" lon="34.7159124665"><ele>173.324</ele><time>2026-08-17T05:23:11.597Z</time><hdop>3.0</hdop><vdop>2.812</vdop><extensions><gom:speed>0.154</gom:speed></extensions></trkpt>
   <trkpt lat="59.3276254994" lon="34.7159220219"><ele>173.219</ele><time>2026-08-17T05:23:12.143Z</time><hdop>3.0</hdop><vdop>2.812</vdop><extensions><gom:speed>0.163</gom:speed></extensions></trkpt>
   <trkpt lat="59.3276255832" lon="34.7159252908"><ele>172.788</ele><time>2026-08-17T05:23:12.692Z</time><hdop>3.0</hdop><vdop>2.937</vdop><extensions><gom:speed>0.153</gom:speed></extensions></trkpt>
   <trkpt lat="59.3276262956" lon="34.7159519453"><ele>172.303</ele><time>2026-08-17T05:23:13.645Z</time><hdop>3.0</hdop><vdop>2.937</vdop><extensions><gom:speed>0.216</gom:speed></extensions></trkpt>
   <trkpt lat="59.3276266728" lon="34.7159689605"><ele>171.887</ele><time>2026-08-17T05:23:14.644Z</time><hdop>3.0</hdop><vdop>3.0</vdop><extensions><gom:speed>0.197</gom:speed></extensions></trkpt>
   <trkpt lat="59.327626589" lon="34.7159737382"><ele>171.639</ele><time>2026-08-17T05:23:15.542Z</time><hdop>3.0</hdop><vdop>3.0</vdop><extensions><gom:speed>0.176</gom:speed></extensions></trkpt>
   <trkpt lat="59.3276262956" lon="34.7159929328"><ele>171.346</ele><time>2026-08-17T05:23:16.442Z</time><hdop>3.0</hdop><vdop>3.125</vdop><extensions><gom:speed>0.151</gom:speed></extensions></trkpt>
   <trkpt lat="59.3276251641" lon="34.7160182461"><ele>170.932</ele><time>2026-08-17T05:23:17.302Z</time><hdop>3.0</hdop><vdop>3.125</vdop><extensions><gom:speed>0.109</gom:speed></extensions></trkpt>
   <trkpt lat="59.3276244935" lon="34.7160329983"><ele>170.493</ele><time>2026-08-17T05:23:18.041Z</time><hdop>3.0</hdop><vdop>3.062</vdop><extensions><gom:speed>0.135</gom:speed></extensions></trkpt>
   <trkpt lat="59.3276243678" lon="34.7160331659"><ele>170.392</ele><time>2026-08-17T05:23:18.648Z</time><hdop>3.0</hdop><vdop>3.0</vdop><extensions><gom:speed>0.152</gom:speed></extensions></trkpt>
   <trkpt lat="59.3276240744" lon="34.7160449844"><ele>170.332</ele><time>2026-08-17T05:23:19.558Z</time><hdop>3.0</hdop><vdop>3.0</vdop><extensions><gom:speed>0.145</gom:speed></extensions></trkpt>
   <trkpt lat="59.3276238649" lon="34.7160566353"><ele>170.36</ele><time>2026-08-17T05:23:20.337Z</time><hdop>3.0</hdop><vdop>2.875</vdop><extensions><gom:speed>0.177</gom:speed></extensions></trkpt>
   <trkpt lat="59.3276234877" lon="34.7160684537"><ele>170.364</ele><time>2026-08-17T05:23:20.995Z</time><hdop>3.0</hdop><vdop>2.812</vdop><extensions><gom:speed>0.162</gom:speed></extensions></trkpt>
   <trkpt lat="59.3276225657" lon="34.7160818648"><ele>170.481</ele><time>2026-08-17T05:23:21.644Z</time><hdop>3.0</hdop><vdop>2.75</vdop><extensions><gom:speed>0.198</gom:speed></extensions></trkpt>
   <trkpt lat="59.3276211827" lon="34.7160995506"><ele>170.449</ele><time>2026-08-17T05:23:22.644Z</time><hdop>3.0</hdop><vdop>2.562</vdop><extensions><gom:speed>0.148</gom:speed></extensions></trkpt>
   <trkpt lat="59.3276194644" lon="34.7161149733"><ele>170.442</ele><time>2026-08-17T05:23:23.645Z</time><hdop>3.0</hdop><vdop>2.812</vdop><extensions><gom:speed>0.17</gom:speed></extensions></trkpt>
   <trkpt lat="59.3276192968" lon="34.7161182422"><ele>170.437</ele><time>2026-08-17T05:23:24.495Z</time><hdop>3.0</hdop><vdop>2.812</vdop><extensions><gom:speed>0.156</gom:speed></extensions></trkpt>
   <trkpt lat="59.3276178718" lon="34.7161279653"><ele>170.23</ele><time>2026-08-17T05:23:24.981Z</time><hdop>3.0</hdop><vdop>2.937</vdop><extensions><gom:speed>0.135</gom:speed></extensions></trkpt>
   <trkpt lat="59.3276158602" lon="34.7161402866"><ele>170.252</ele><time>2026-08-17T05:23:25.645Z</time><hdop>3.0</hdop><vdop>3.062</vdop><extensions><gom:speed>0.263</gom:speed></extensions></trkpt>
   <trkpt lat="59.3276152734" lon="34.7161443938"><ele>170.265</ele><time>2026-08-17T05:23:26.175Z</time><hdop>3.0</hdop><vdop>3.062</vdop><extensions><gom:speed>0.225</gom:speed></extensions></trkpt>
   <trkpt lat="59.3276141838" lon="34.7161548712"><ele>170.295</ele><time>2026-08-17T05:23:26.645Z</time><hdop>3.0</hdop><vdop>3.437</vdop><extensions><gom:speed>0.21</gom:speed></extensions></trkpt>
   <trkpt lat="59.3276132618" lon="34.7161678631"><ele>170.115</ele><time>2026-08-17T05:23:27.645Z</time><hdop>3.0</hdop><vdop>3.625</vdop><extensions><gom:speed>0.261</gom:speed></extensions></trkpt>
   <trkpt lat="59.327613178" lon="34.716169288"><ele>170.007</ele><time>2026-08-17T05:23:28.522Z</time><hdop>3.0</hdop><vdop>3.625</vdop><extensions><gom:speed>0.255</gom:speed></extensions></trkpt>
   <trkpt lat="59.327613178" lon="34.7161792625"><ele>169.932</ele><time>2026-08-17T05:23:29.533Z</time><hdop>3.0</hdop><vdop>3.625</vdop><extensions><gom:speed>0.239</gom:speed></extensions></trkpt>
   <trkpt lat="59.3276126751" lon="34.7161977865"><ele>170.355</ele><time>2026-08-17T05:23:30.413Z</time><hdop>3.0</hdop><vdop>3.5</vdop><extensions><gom:speed>0.23</gom:speed></extensions></trkpt>
   <trkpt lat="59.3276115854" lon="34.7162092697"><ele>170.063</ele><time>2026-08-17T05:23:31.435Z</time><hdop>3.0</hdop><vdop>3.375</vdop><extensions><gom:speed>0.158</gom:speed></extensions></trkpt>
   <trkpt lat="59.3276099928" lon="34.7162169811"><ele>169.627</ele><time>2026-08-17T05:23:32.194Z</time><hdop>3.0</hdop><vdop>3.25</vdop><extensions><gom:speed>0.132</gom:speed></extensions></trkpt>
   <trkpt lat="59.3276086937" lon="34.7162228484"><ele>169.78</ele><time>2026-08-17T05:23:32.645Z</time><hdop>3.0</hdop><vdop>3.062</vdop><extensions><gom:speed>0.135</gom:speed></extensions></trkpt>
   <trkpt lat="59.327606682" lon="34.716232739"><ele>169.843</ele><time>2026-08-17T05:23:33.645Z</time><hdop>3.0</hdop><vdop>3.062</vdop><extensions><gom:speed>0.103</gom:speed></extensions></trkpt>
   <trkpt lat="59.32760576" lon="34.7162366785"><ele>169.863</ele><time>2026-08-17T05:23:34.692Z</time><hdop>3.0</hdop><vdop>3.0</vdop><extensions><gom:speed>0.079</gom:speed></extensions></trkpt>
   <trkpt lat="59.3276049637" lon="34.7162408695"><ele>169.874</ele><time>2026-08-17T05:23:35.644Z</time><hdop>3.0</hdop><vdop>3.0</vdop><extensions><gom:speed>0.123</gom:speed></extensions></trkpt>
   <trkpt lat="59.3276031616" lon="34.7162518498"><ele>169.893</ele><time>2026-08-17T05:23:36.655Z</time><hdop>3.0</hdop><vdop>3.125</vdop><extensions><gom:speed>0.132</gom:speed></extensions></trkpt>
   <trkpt lat="59.3276018624" lon="34.7162643388"><ele>169.891</ele><time>2026-08-17T05:23:37.644Z</time><hdop>3.0</hdop><vdop>3.0</vdop><extensions><gom:speed>0.143</gom:speed></extensions></trkpt>
   <trkpt lat="59.3276012757" lon="34.7162689489"><ele>169.89</ele><time>2026-08-17T05:23:38.619Z</time><hdop>3.0</hdop><vdop>3.0</vdop><extensions><gom:speed>0.126</gom:speed></extensions></trkpt>
   <trkpt lat="59.3276007728" lon="34.7162771631"><ele>169.815</ele><time>2026-08-17T05:23:39.478Z</time><hdop>3.0</hdop><vdop>2.75</vdop><extensions><gom:speed>0.105</gom:speed></extensions></trkpt>
   <trkpt lat="59.3276006889" lon="34.716287389"><ele>169.658</ele><time>2026-08-17T05:23:40.257Z</time><hdop>3.0</hdop><vdop>2.562</vdop><extensions><gom:speed>0.13</gom:speed></extensions></trkpt>
   <trkpt lat="59.3276005632" lon="34.7162976988"><ele>169.508</ele><time>2026-08-17T05:23:41.098Z</time><hdop>3.0</hdop><vdop>2.5</vdop><extensions><gom:speed>0.124</gom:speed></extensions></trkpt>
   <trkpt lat="59.3276008985" lon="34.7163056616"><ele>169.435</ele><time>2026-08-17T05:23:41.646Z</time><hdop>3.0</hdop><vdop>2.5</vdop><extensions><gom:speed>0.158</gom:speed></extensions></trkpt>
   <trkpt lat="59.3276010661" lon="34.7163088467"><ele>169.39</ele><time>2026-08-17T05:23:42.503Z</time><hdop>3.0</hdop><vdop>2.5</vdop><extensions><gom:speed>0.149</gom:speed></extensions></trkpt>
   <trkpt lat="59.3276022815" lon="34.7163173963"><ele>169.63</ele><time>2026-08-17T05:23:43.201Z</time><hdop>3.0</hdop><vdop>2.5</vdop><extensions><gom:speed>0.214</gom:speed></extensions></trkpt>
   <trkpt lat="59.3276027844" lon="34.7163270355"><ele>169.771</ele><time>2026-08-17T05:23:43.692Z</time><hdop>3.0</hdop><vdop>2.5</vdop><extensions><gom:speed>0.205</gom:speed></extensions></trkpt>
   <trkpt lat="59.3276034969" lon="34.7163265325"><ele>169.855</ele><time>2026-08-17T05:23:44.607Z</time><hdop>3.0</hdop><vdop>2.5</vdop><extensions><gom:speed>0.213</gom:speed></extensions></trkpt>
   <trkpt lat="59.3276033711" lon="34.7163414523"><ele>170.184</ele><time>2026-08-17T05:23:45.538Z</time><hdop>3.0</hdop><vdop>2.5</vdop><extensions><gom:speed>0.188</gom:speed></extensions></trkpt>
   <trkpt lat="59.3276039998" lon="34.7163507562"><ele>170.731</ele><time>2026-08-17T05:23:46.600Z</time><hdop>3.0</hdop><vdop>2.5</vdop><extensions><gom:speed>0.191</gom:speed></extensions></trkpt>
   <trkpt lat="59.3276038741" lon="34.716358719"><ele>170.681</ele><time>2026-08-17T05:23:47.359Z</time><hdop>3.0</hdop><vdop>2.5</vdop><extensions><gom:speed>0.186</gom:speed></extensions></trkpt>
   <trkpt lat="59.3276030778" lon="34.7163682744"><ele>170.264</ele><time>2026-08-17T05:23:48.036Z</time><hdop>3.0</hdop><vdop>2.5</vdop><extensions><gom:speed>0.176</gom:speed></extensions></trkpt>
   <trkpt lat="59.3276019881" lon="34.7163741417"><ele>169.829</ele><time>2026-08-17T05:23:48.645Z</time><hdop>3.0</hdop><vdop>2.5</vdop><extensions><gom:speed>0.208</gom:speed></extensions></trkpt>
   <trkpt lat="59.3275997669" lon="34.7163825236"><ele>169.563</ele><time>2026-08-17T05:23:49.645Z</time><hdop>3.0</hdop><vdop>2.5</vdop><extensions><gom:speed>0.294</gom:speed></extensions></trkpt>
   <trkpt lat="59.3275997669" lon="34.7163818531"><ele>169.405</ele><time>2026-08-17T05:23:50.677Z</time><hdop>3.0</hdop><vdop>2.5</vdop><extensions><gom:speed>0.279</gom:speed></extensions></trkpt>
   <trkpt lat="59.3275979648" lon="34.7163863793"><ele>169.168</ele><time>2026-08-17T05:23:51.557Z</time><hdop>3.0</hdop><vdop>2.5</vdop><extensions><gom:speed>0.241</gom:speed></extensions></trkpt>
   <trkpt lat="59.3275954922" lon="34.716392079"><ele>168.788</ele><time>2026-08-17T05:23:52.255Z</time><hdop>3.0</hdop><vdop>2.75</vdop><extensions><gom:speed>0.362</gom:speed></extensions></trkpt>
   <trkpt lat="59.3275926842" lon="34.7163973596"><ele>168.281</ele><time>2026-08-17T05:23:52.953Z</time><hdop>3.0</hdop><vdop>3.062</vdop><extensions><gom:speed>0.304</gom:speed></extensions></trkpt>
   <trkpt lat="59.3275934805" lon="34.7163960185"><ele>167.978</ele><time>2026-08-17T05:23:53.662Z</time><hdop>3.0</hdop><vdop>3.062</vdop><extensions><gom:speed>0.309</gom:speed></extensions></trkpt>
   <trkpt lat="59.3275903792" lon="34.7163996227"><ele>167.306</ele><time>2026-08-17T05:23:54.339Z</time><hdop>3.0</hdop><vdop>3.062</vdop><extensions><gom:speed>0.249</gom:speed></extensions></trkpt>
   <trkpt lat="59.3275850986" lon="34.7164039813"><ele>166.575</ele><time>2026-08-17T05:23:54.976Z</time><hdop>3.0</hdop><vdop>2.937</vdop><extensions><gom:speed>0.234</gom:speed></extensions></trkpt>
   <trkpt lat="59.3275849729" lon="34.7164029755"><ele>166.138</ele><time>2026-08-17T05:23:55.674Z</time><hdop>3.0</hdop><vdop>2.937</vdop><extensions><gom:speed>0.242</gom:speed></extensions></trkpt>
   <trkpt lat="59.3275809915" lon="34.7164044842"><ele>165.754</ele><time>2026-08-17T05:23:56.413Z</time><hdop>3.0</hdop><vdop>2.687</vdop><extensions><gom:speed>0.243</gom:speed></extensions></trkpt>
   <trkpt lat="59.3275746631" lon="34.7164061606"><ele>165.306</ele><time>2026-08-17T05:23:57.121Z</time><hdop>3.0</hdop><vdop>2.562</vdop><extensions><gom:speed>0.295</gom:speed></extensions></trkpt>
   <trkpt lat="59.327570095" lon="34.7164069988"><ele>165.065</ele><time>2026-08-17T05:23:57.645Z</time><hdop>3.0</hdop><vdop>2.5</vdop><extensions><gom:speed>0.374</gom:speed></extensions></trkpt>
   <trkpt lat="59.3275688796" lon="34.7164056577"><ele>164.921</ele><time>2026-08-17T05:23:58.416Z</time><hdop>3.0</hdop><vdop>2.5</vdop><extensions><gom:speed>0.356</gom:speed></extensions></trkpt>
   <trkpt lat="59.327563599" lon="34.7164063283"><ele>164.775</ele><time>2026-08-17T05:23:59.034Z</time><hdop>3.0</hdop><vdop>2.562</vdop><extensions><gom:speed>0.359</gom:speed></extensions></trkpt>
   <trkpt lat="59.3275578993" lon="34.7164065797"><ele>164.555</ele><time>2026-08-17T05:23:59.646Z</time><hdop>3.0</hdop><vdop>2.562</vdop><extensions><gom:speed>0.383</gom:speed></extensions></trkpt>
   <trkpt lat="59.3275564744" lon="34.716405993"><ele>164.424</ele><time>2026-08-17T05:24:00.358Z</time><hdop>3.0</hdop><vdop>2.562</vdop><extensions><gom:speed>0.355</gom:speed></extensions></trkpt>
   <trkpt lat="59.3275514872" lon="34.7164063283"><ele>164.298</ele><time>2026-08-17T05:24:01.036Z</time><hdop>3.0</hdop><vdop>2.5</vdop><extensions><gom:speed>0.344</gom:speed></extensions></trkpt>
   <trkpt lat="59.3275468771" lon="34.716405993"><ele>164.278</ele><time>2026-08-17T05:24:01.645Z</time><hdop>3.0</hdop><vdop>2.5</vdop><extensions><gom:speed>0.378</gom:speed></extensions></trkpt>
   <trkpt lat="59.3275455779" lon="34.7164054901"><ele>164.266</ele><time>2026-08-17T05:24:02.301Z</time><hdop>3.0</hdop><vdop>2.5</vdop><extensions><gom:speed>0.328</gom:speed></extensions></trkpt>
   <trkpt lat="59.3275386628" lon="34.7164061606"><ele>164.304</ele><time>2026-08-17T05:24:02.999Z</time><hdop>3.0</hdop><vdop>2.5</vdop><extensions><gom:speed>0.344</gom:speed></extensions></trkpt>
   <trkpt lat="59.3275396687" lon="34.7164056577"><ele>164.327</ele><time>2026-08-17T05:24:03.636Z</time><hdop>3.0</hdop><vdop>2.5</vdop><extensions><gom:speed>0.352</gom:speed></extensions></trkpt>
   <trkpt lat="59.3275333823" lon="34.7164049872"><ele>164.396</ele><time>2026-08-17T05:24:04.182Z</time><hdop>3.0</hdop><vdop>2.5</vdop><extensions><gom:speed>0.325</gom:speed></extensions></trkpt>
   <trkpt lat="59.3275312868" lon="34.7164045681"><ele>164.444</ele><time>2026-08-17T05:24:04.692Z</time><hdop>3.0</hdop><vdop>2.5</vdop><extensions><gom:speed>0.29</gom:speed></extensions></trkpt>
   <trkpt lat="59.3275244974" lon="34.7163995389"><ele>164.472</ele><time>2026-08-17T05:24:05.457Z</time><hdop>3.0</hdop><vdop>2.5</vdop><extensions><gom:speed>0.339</gom:speed></extensions></trkpt>
   <trkpt lat="59.3275198874" lon="34.7163951803"><ele>164.52</ele><time>2026-08-17T05:24:06.116Z</time><hdop>3.0</hdop><vdop>2.5</vdop><extensions><gom:speed>0.319</gom:speed></extensions></trkpt>
   <trkpt lat="59.3275188816" lon="34.7163933363"><ele>164.548</ele><time>2026-08-17T05:24:06.622Z</time><hdop>3.0</hdop><vdop>2.5</vdop><extensions><gom:speed>0.319</gom:speed></extensions></trkpt>
   <trkpt lat="59.3275118827" lon="34.7163844515"><ele>164.537</ele><time>2026-08-17T05:24:07.197Z</time><hdop>3.0</hdop><vdop>2.5</vdop><extensions><gom:speed>0.346</gom:speed></extensions></trkpt>
   <trkpt lat="59.3275103739" lon="34.7163822722"><ele>164.435</ele><time>2026-08-17T05:24:07.692Z</time><hdop>3.0</hdop><vdop>2.5</vdop><extensions><gom:speed>0.291</gom:speed></extensions></trkpt>
   <trkpt lat="59.3275024949" lon="34.7163745608"><ele>164.375</ele><time>2026-08-17T05:24:08.462Z</time><hdop>3.0</hdop><vdop>2.5</vdop><extensions><gom:speed>0.335</gom:speed></extensions></trkpt>
   <trkpt lat="59.3274982621" lon="34.716370789"><ele>164.375</ele><time>2026-08-17T05:24:09.069Z</time><hdop>3.0</hdop><vdop>2.5</vdop><extensions><gom:speed>0.412</gom:speed></extensions></trkpt>
   <trkpt lat="59.3274989745" lon="34.7163699508"><ele>164.376</ele><time>2026-08-17T05:24:09.554Z</time><hdop>3.0</hdop><vdop>2.5</vdop><extensions><gom:speed>0.425</gom:speed></extensions></trkpt>
   <trkpt lat="59.3274992679" lon="34.7163672686"><ele>164.203</ele><time>2026-08-17T05:24:10.202Z</time><hdop>3.062</hdop><vdop>2.5</vdop><extensions><gom:speed>0.469</gom:speed></extensions></trkpt>
   <trkpt lat="59.3275006928" lon="34.7163659275"><ele>164.084</ele><time>2026-08-17T05:24:10.950Z</time><hdop>3.25</hdop><vdop>2.5</vdop><extensions><gom:speed>0.507</gom:speed></extensions></trkpt>
   <trkpt lat="59.3274985974" lon="34.7163650893"><ele>164.073</ele><time>2026-08-17T05:24:11.693Z</time><hdop>3.5</hdop><vdop>2.5</vdop><extensions><gom:speed>0.369</gom:speed></extensions></trkpt>
   <trkpt lat="59.3275066859" lon="34.7163620718"><ele>164.066</ele><time>2026-08-17T05:24:12.640Z</time><hdop>3.75</hdop><vdop>2.5</vdop><extensions><gom:speed>0.518</gom:speed></extensions></trkpt>
   <trkpt lat="59.3275138943" lon="34.7163602278"><ele>164.032</ele><time>2026-08-17T05:24:13.217Z</time><hdop>4.062</hdop><vdop>2.5</vdop><extensions><gom:speed>0.568</gom:speed></extensions></trkpt>
   <trkpt lat="59.3275182948" lon="34.7163595572"><ele>164.017</ele><time>2026-08-17T05:24:13.783Z</time><hdop>4.375</hdop><vdop>2.5</vdop><extensions><gom:speed>0.599</gom:speed></extensions></trkpt>
   <trkpt lat="59.3275200969" lon="34.7163596411"><ele>164.009</ele><time>2026-08-17T05:24:14.420Z</time><hdop>4.5</hdop><vdop>2.5</vdop><extensions><gom:speed>0.575</gom:speed></extensions></trkpt>
   <trkpt lat="59.3275234916" lon="34.7163589705"><ele>164.115</ele><time>2026-08-17T05:24:14.997Z</time><hdop>4.812</hdop><vdop>2.5</vdop><extensions><gom:speed>0.567</gom:speed></extensions></trkpt>
   <trkpt lat="59.3275253775" lon="34.7163581323"><ele>164.179</ele><time>2026-08-17T05:24:15.594Z</time><hdop>4.937</hdop><vdop>2.5</vdop><extensions><gom:speed>0.533</gom:speed></extensions></trkpt>
   <trkpt lat="59.3274166642" lon="34.7162425459"><ele>164.152</ele><time>2026-08-17T05:24:16.181Z</time><hdop>5.062</hdop><vdop>2.5</vdop><extensions><gom:speed>0.595</gom:speed></extensions></trkpt>
   <trkpt lat="59.3273948713" lon="34.7162224293"><ele>164.146</ele><time>2026-08-17T05:24:16.692Z</time><hdop>5.187</hdop><vdop>2.5</vdop><extensions><gom:speed>0.474</gom:speed></extensions></trkpt>
   <trkpt lat="59.3273714858" lon="34.7161961939"><ele>164.143</ele><time>2026-08-17T05:24:17.354Z</time><hdop>5.0</hdop><vdop>2.5</vdop><extensions><gom:speed>0.477</gom:speed></extensions></trkpt>
   <trkpt lat="59.3273629782" lon="34.71618689"><ele>164.267</ele><time>2026-08-17T05:24:17.901Z</time><hdop>4.687</hdop><vdop>2.5</vdop><extensions><gom:speed>0.534</gom:speed></extensions></trkpt>
   <trkpt lat="59.3273609665" lon="34.7161857166"><ele>164.341</ele><time>2026-08-17T05:24:18.477Z</time><hdop>4.625</hdop><vdop>2.5</vdop><extensions><gom:speed>0.522</gom:speed></extensions></trkpt>
   <trkpt lat="59.3273536742" lon="34.7161775861"><ele>164.401</ele><time>2026-08-17T05:24:19.094Z</time><hdop>4.312</hdop><vdop>2.5</vdop><extensions><gom:speed>0.567</gom:speed></extensions></trkpt>
   <trkpt lat="59.3273513692" lon="34.7161754906"><ele>164.437</ele><time>2026-08-17T05:24:19.620Z</time><hdop>4.25</hdop><vdop>2.5</vdop><extensions><gom:speed>0.549</gom:speed></extensions></trkpt>
   <trkpt lat="59.3273457953" lon="34.7161676955"><ele>164.439</ele><time>2026-08-17T05:24:20.137Z</time><hdop>3.937</hdop><vdop>2.5</vdop><extensions><gom:speed>0.565</gom:speed></extensions></trkpt>
   <trkpt lat="59.3273443703" lon="34.7161656838"><ele>164.437</ele><time>2026-08-17T05:24:20.692Z</time><hdop>3.812</hdop><vdop>2.5</vdop><extensions><gom:speed>0.341</gom:speed></extensions></trkpt>
   <trkpt lat="59.3273368685" lon="34.716154033"><ele>164.436</ele><time>2026-08-17T05:24:21.259Z</time><hdop>3.562</hdop><vdop>2.5</vdop><extensions><gom:speed>0.523</gom:speed></extensions></trkpt>
   <trkpt lat="59.3273265588" lon="34.7161384426"><ele>164.504</ele><time>2026-08-17T05:24:21.856Z</time><hdop>3.312</hdop><vdop>2.5</vdop><extensions><gom:speed>0.696</gom:speed></extensions></trkpt>
   <trkpt lat="59.3273217811" lon="34.7161318209"><ele>164.544</ele><time>2026-08-17T05:24:22.605Z</time><hdop>3.312</hdop><vdop>2.5</vdop><extensions><gom:speed>0.697</gom:speed></extensions></trkpt>
   <trkpt lat="59.327306568" lon="34.7161129616"><ele>164.844</ele><time>2026-08-17T05:24:23.596Z</time><hdop>3.312</hdop><vdop>2.5</vdop><extensions><gom:speed>0.823</gom:speed></extensions></trkpt>
   <trkpt lat="59.3272990661" lon="34.7161064238"><ele>165.199</ele><time>2026-08-17T05:24:24.193Z</time><hdop>3.312</hdop><vdop>2.5</vdop><extensions><gom:speed>0.82</gom:speed></extensions></trkpt>
   <trkpt lat="59.327289888" lon="34.7160995506"><ele>165.484</ele><time>2026-08-17T05:24:24.645Z</time><hdop>3.25</hdop><vdop>2.5</vdop><extensions><gom:speed>0.972</gom:speed></extensions></trkpt>
   <trkpt lat="59.3272765607" lon="34.7160885703"><ele>165.837</ele><time>2026-08-17T05:24:25.645Z</time><hdop>3.187</hdop><vdop>2.5</vdop><extensions><gom:speed>1.0</gom:speed></extensions></trkpt>
   <trkpt lat="59.3272683884" lon="34.7160810266"><ele>166.049</ele><time>2026-08-17T05:24:26.496Z</time><hdop>3.187</hdop><vdop>2.5</vdop><extensions><gom:speed>0.928</gom:speed></extensions></trkpt>
   <trkpt lat="59.3272601741" lon="34.7160750754"><ele>166.343</ele><time>2026-08-17T05:24:27.042Z</time><hdop>3.187</hdop><vdop>2.5</vdop><extensions><gom:speed>0.982</gom:speed></extensions></trkpt>
   <trkpt lat="59.3272540972" lon="34.7160710521"><ele>166.519</ele><time>2026-08-17T05:24:27.639Z</time><hdop>3.125</hdop><vdop>2.5</vdop><extensions><gom:speed>0.98</gom:speed></extensions></trkpt>
   <trkpt lat="59.3272446676" lon="34.7160654363"><ele>166.733</ele><time>2026-08-17T05:24:28.290Z</time><hdop>3.125</hdop><vdop>2.5</vdop><extensions><gom:speed>1.003</gom:speed></extensions></trkpt>
   <trkpt lat="59.3272359923" lon="34.7160598204"><ele>166.808</ele><time>2026-08-17T05:24:28.887Z</time><hdop>3.062</hdop><vdop>2.5</vdop><extensions><gom:speed>1.03</gom:speed></extensions></trkpt>
   <trkpt lat="59.3272307955" lon="34.7160564676"><ele>166.853</ele><time>2026-08-17T05:24:29.373Z</time><hdop>3.0</hdop><vdop>2.5</vdop><extensions><gom:speed>1.029</gom:speed></extensions></trkpt>
   <trkpt lat="59.3272223717" lon="34.7160487563"><ele>167.006</ele><time>2026-08-17T05:24:30.010Z</time><hdop>3.0</hdop><vdop>2.5</vdop><extensions><gom:speed>1.055</gom:speed></extensions></trkpt>
   <trkpt lat="59.3272165882" lon="34.7160438948"><ele>167.098</ele><time>2026-08-17T05:24:30.577Z</time><hdop>3.0</hdop><vdop>2.5</vdop><extensions><gom:speed>1.051</gom:speed></extensions></trkpt>
   <trkpt lat="59.327209296" lon="34.7160371892"><ele>167.066</ele><time>2026-08-17T05:24:31.275Z</time><hdop>3.0</hdop><vdop>2.5</vdop><extensions><gom:speed>1.074</gom:speed></extensions></trkpt>
   <trkpt lat="59.3272036801" lon="34.7160319925"><ele>167.272</ele><time>2026-08-17T05:24:31.791Z</time><hdop>3.0</hdop><vdop>2.5</vdop><extensions><gom:speed>1.088</gom:speed></extensions></trkpt>
   <trkpt lat="59.3271973937" lon="34.7160260413"><ele>167.396</ele><time>2026-08-17T05:24:32.428Z</time><hdop>3.0</hdop><vdop>2.5</vdop><extensions><gom:speed>1.094</gom:speed></extensions></trkpt>
   <trkpt lat="59.3271911911" lon="34.7160208445"><ele>167.39</ele><time>2026-08-17T05:24:32.974Z</time><hdop>3.0</hdop><vdop>2.5</vdop><extensions><gom:speed>1.118</gom:speed></extensions></trkpt>
   <trkpt lat="59.3271841922" lon="34.7160148934"><ele>167.387</ele><time>2026-08-17T05:24:33.633Z</time><hdop>3.0</hdop><vdop>2.5</vdop><extensions><gom:speed>1.128</gom:speed></extensions></trkpt>
   <trkpt lat="59.3271752654" lon="34.7160099481"><ele>167.577</ele><time>2026-08-17T05:24:34.188Z</time><hdop>3.0</hdop><vdop>2.5</vdop><extensions><gom:speed>1.103</gom:speed></extensions></trkpt>
   <trkpt lat="59.3271713679" lon="34.716009026"><ele>167.783</ele><time>2026-08-17T05:24:34.645Z</time><hdop>3.0</hdop><vdop>2.5</vdop><extensions><gom:speed>1.092</gom:speed></extensions></trkpt>
   <trkpt lat="59.3271645785" lon="34.716005338"><ele>167.905</ele><time>2026-08-17T05:24:35.392Z</time><hdop>3.0</hdop><vdop>2.5</vdop><extensions><gom:speed>1.051</gom:speed></extensions></trkpt>
   <trkpt lat="59.3271577892" lon="34.7160057571"><ele>168.033</ele><time>2026-08-17T05:24:36.009Z</time><hdop>3.0</hdop><vdop>2.5</vdop><extensions><gom:speed>1.05</gom:speed></extensions></trkpt>
   <trkpt lat="59.3271515866" lon="34.7160040807"><ele>168.11</ele><time>2026-08-17T05:24:36.616Z</time><hdop>3.0</hdop><vdop>2.5</vdop><extensions><gom:speed>1.052</gom:speed></extensions></trkpt>
   <trkpt lat="59.3271442943" lon="34.7160024882"><ele>168.127</ele><time>2026-08-17T05:24:37.213Z</time><hdop>3.0</hdop><vdop>2.5</vdop><extensions><gom:speed>1.054</gom:speed></extensions></trkpt>
   <trkpt lat="59.327137966" lon="34.7159995545"><ele>168.111</ele><time>2026-08-17T05:24:37.790Z</time><hdop>3.0</hdop><vdop>2.5</vdop><extensions><gom:speed>1.042</gom:speed></extensions></trkpt>
   <trkpt lat="59.3271311766" lon="34.7159953635"><ele>168.1</ele><time>2026-08-17T05:24:38.467Z</time><hdop>3.0</hdop><vdop>2.5</vdop><extensions><gom:speed>1.061</gom:speed></extensions></trkpt>
   <trkpt lat="59.3271260637" lon="34.7159906697"><ele>168.096</ele><time>2026-08-17T05:24:38.973Z</time><hdop>3.0</hdop><vdop>2.5</vdop><extensions><gom:speed>1.06</gom:speed></extensions></trkpt>
   <trkpt lat="59.3271193581" lon="34.7159850538"><ele>168.029</ele><time>2026-08-17T05:24:39.645Z</time><hdop>3.0</hdop><vdop>2.5</vdop><extensions><gom:speed>1.085</gom:speed></extensions></trkpt>
   <trkpt lat="59.3271139937" lon="34.7159804438"><ele>167.989</ele><time>2026-08-17T05:24:40.188Z</time><hdop>3.0</hdop><vdop>2.5</vdop><extensions><gom:speed>1.064</gom:speed></extensions></trkpt>
   <trkpt lat="59.3271089646" lon="34.7159754984"><ele>167.957</ele><time>2026-08-17T05:24:40.645Z</time><hdop>3.0</hdop><vdop>2.5</vdop><extensions><gom:speed>1.077</gom:speed></extensions></trkpt>
   <trkpt lat="59.3271011694" lon="34.7159691282"><ele>167.938</ele><time>2026-08-17T05:24:41.392Z</time><hdop>3.0</hdop><vdop>2.5</vdop><extensions><gom:speed>1.059</gom:speed></extensions></trkpt>
   <trkpt lat="59.3270943801" lon="34.7159630932"><ele>167.896</ele><time>2026-08-17T05:24:42.069Z</time><hdop>3.0</hdop><vdop>2.5</vdop><extensions><gom:speed>1.036</gom:speed></extensions></trkpt>
   <trkpt lat="59.3270891833" lon="34.7159589861"><ele>167.87</ele><time>2026-08-17T05:24:42.615Z</time><hdop>3.0</hdop><vdop>2.5</vdop><extensions><gom:speed>1.038</gom:speed></extensions></trkpt>
   <trkpt lat="59.3270831902" lon="34.7159522806"><ele>167.881</ele><time>2026-08-17T05:24:43.273Z</time><hdop>3.0</hdop><vdop>2.5</vdop><extensions><gom:speed>1.022</gom:speed></extensions></trkpt>
   <trkpt lat="59.3270778677" lon="34.715945575"><ele>167.951</ele><time>2026-08-17T05:24:43.870Z</time><hdop>3.0</hdop><vdop>2.5</vdop><extensions><gom:speed>1.021</gom:speed></extensions></trkpt>
   <trkpt lat="59.3270715813" lon="34.7159393724"><ele>167.993</ele><time>2026-08-17T05:24:44.568Z</time><hdop>3.0</hdop><vdop>2.5</vdop><extensions><gom:speed>1.015</gom:speed></extensions></trkpt>
  </trkseg>
 </trk>
</gpx>